﻿<?xml version="1.0" encoding="UTF-8"?>
<gpx xmlns="http://www.topografix.com/GPX/1/1" creator="HOLUX ezTour Plus" version="1.1">
<metadata>
<link href="http://www.holux.com"><text>HOLUX Technology, Inc.</text></link>
<time>2012-08-01T18:52:18Z</time></metadata>
<trk>
<name><![CDATA[raw9]]></name>
<trkseg>
<trkpt lat="63.831604004" lon="-19.205492020">
<ele>542.578125</ele>
<time>2012-07-26T10:39:34Z</time>
<speed>0.140000</speed>
<extensions>
<speed>0.1</speed>
<temp>0.00</temp>
<bpm>0</bpm>
<rpm>0.00</rpm>
</extensions>
</trkpt>
<trkpt lat="63.831619263" lon="-19.205499649">
<ele>548.375000</ele>
<time>2012-07-26T10:39:39Z</time>
<speed>0.150000</speed>
<extensions>
<speed>0.2</speed>
<temp>0.00</temp>
<bpm>0</bpm>
<rpm>0.00</rpm>
</extensions>
</trkpt>
<trkpt lat="63.831653595" lon="-19.205442429">
<ele>551.406250</ele>
<time>2012-07-26T10:39:44Z</time>
<speed>0.220000</speed>
<extensions>
<speed>0.2</speed>
<temp>0.00</temp>
<bpm>0</bpm>
<rpm>0.00</rpm>
</extensions>
</trkpt>
<trkpt lat="63.831665039" lon="-19.205377579">
<ele>550.140625</ele>
<time>2012-07-26T10:39:49Z</time>
<speed>0.250000</speed>
<extensions>
<speed>0.2</speed>
<temp>0.00</temp>
<bpm>0</bpm>
<rpm>0.00</rpm>
</extensions>
</trkpt>
<trkpt lat="63.831695557" lon="-19.205337524">
<ele>553.375000</ele>
<time>2012-07-26T10:39:54Z</time>
<speed>0.160000</speed>
<extensions>
<speed>0.2</speed>
<temp>0.00</temp>
<bpm>0</bpm>
<rpm>0.00</rpm>
</extensions>
</trkpt>
<trkpt lat="63.831729889" lon="-19.205322266">
<ele>558.328125</ele>
<time>2012-07-26T10:39:59Z</time>
<speed>0.130000</speed>
<extensions>
<speed>0.1</speed>
<temp>0.00</temp>
<bpm>0</bpm>
<rpm>0.00</rpm>
</extensions>
</trkpt>
<trkpt lat="63.831756592" lon="-19.205310822">
<ele>560.500000</ele>
<time>2012-07-26T10:40:04Z</time>
<speed>0.040000</speed>
<extensions>
<speed>0.0</speed>
<temp>0.00</temp>
<bpm>0</bpm>
<rpm>0.00</rpm>
</extensions>
</trkpt>
<trkpt lat="63.831768036" lon="-19.205314636">
<ele>559.609375</ele>
<time>2012-07-26T10:40:09Z</time>
<speed>0.040000</speed>
<extensions>
<speed>0.0</speed>
<temp>0.00</temp>
<bpm>0</bpm>
<rpm>0.00</rpm>
</extensions>
</trkpt>
<trkpt lat="63.831764221" lon="-19.205310822">
<ele>559.531250</ele>
<time>2012-07-26T10:40:14Z</time>
<speed>0.110000</speed>
<extensions>
<speed>0.1</speed>
<temp>0.00</temp>
<bpm>0</bpm>
<rpm>0.00</rpm>
</extensions>
</trkpt>
<trkpt lat="63.831752777" lon="-19.205314636">
<ele>558.984375</ele>
<time>2012-07-26T10:40:19Z</time>
<speed>0.370000</speed>
<extensions>
<speed>0.4</speed>
<temp>0.00</temp>
<bpm>0</bpm>
<rpm>0.00</rpm>
</extensions>
</trkpt>
<trkpt lat="63.831733704" lon="-19.205301285">
<ele>558.968750</ele>
<time>2012-07-26T10:40:24Z</time>
<speed>0.010000</speed>
<extensions>
<speed>0.0</speed>
<temp>0.00</temp>
<bpm>0</bpm>
<rpm>0.00</rpm>
</extensions>
</trkpt>
<trkpt lat="63.831733704" lon="-19.205299377">
<ele>559.046875</ele>
<time>2012-07-26T10:40:29Z</time>
<speed>0.070000</speed>
<extensions>
<speed>0.1</speed>
<temp>0.00</temp>
<bpm>0</bpm>
<rpm>0.00</rpm>
</extensions>
</trkpt>
<trkpt lat="63.831726074" lon="-19.205308914">
<ele>558.484375</ele>
<time>2012-07-26T10:40:34Z</time>
<speed>0.470000</speed>
<extensions>
<speed>0.5</speed>
<temp>0.00</temp>
<bpm>0</bpm>
<rpm>0.00</rpm>
</extensions>
</trkpt>
<trkpt lat="63.831844330" lon="-19.205291748">
<ele>577.453125</ele>
<time>2012-07-26T10:40:39Z</time>
<speed>0.120000</speed>
<extensions>
<speed>0.1</speed>
<temp>0.00</temp>
<bpm>0</bpm>
<rpm>0.00</rpm>
</extensions>
</trkpt>
<trkpt lat="63.831855774" lon="-19.205259323">
<ele>579.500000</ele>
<time>2012-07-26T10:40:44Z</time>
<extensions>
<speed>0.0</speed>
<temp>0.00</temp>
<bpm>0</bpm>
<rpm>0.00</rpm>
</extensions>
</trkpt>
<trkpt lat="63.831855774" lon="-19.205257416">
<ele>579.500000</ele>
<time>2012-07-26T10:40:49Z</time>
<extensions>
<speed>0.0</speed>
<temp>0.00</temp>
<bpm>0</bpm>
<rpm>0.00</rpm>
</extensions>
</trkpt>
<trkpt lat="63.831825256" lon="-19.205274582">
<ele>575.171875</ele>
<time>2012-07-26T10:40:54Z</time>
<speed>0.340000</speed>
<extensions>
<speed>0.3</speed>
<temp>0.00</temp>
<bpm>0</bpm>
<rpm>0.00</rpm>
</extensions>
</trkpt>
<trkpt lat="63.831764221" lon="-19.205320358">
<ele>570.515625</ele>
<time>2012-07-26T10:40:59Z</time>
<speed>0.670000</speed>
<extensions>
<speed>0.7</speed>
<temp>0.00</temp>
<bpm>0</bpm>
<rpm>0.00</rpm>
</extensions>
</trkpt>
<trkpt lat="63.831748962" lon="-19.205345154">
<ele>568.859375</ele>
<time>2012-07-26T10:41:04Z</time>
<speed>0.140000</speed>
<extensions>
<speed>0.1</speed>
<temp>0.00</temp>
<bpm>0</bpm>
<rpm>0.00</rpm>
</extensions>
</trkpt>
<trkpt lat="63.831748962" lon="-19.205350876">
<ele>568.859375</ele>
<time>2012-07-26T10:41:09Z</time>
<speed>0.160000</speed>
<extensions>
<speed>0.2</speed>
<temp>0.00</temp>
<bpm>0</bpm>
<rpm>0.00</rpm>
</extensions>
</trkpt>
<trkpt lat="63.831745148" lon="-19.205354691">
<ele>568.859375</ele>
<time>2012-07-26T10:41:14Z</time>
<speed>0.010000</speed>
<extensions>
<speed>0.0</speed>
<temp>0.00</temp>
<bpm>0</bpm>
<rpm>0.00</rpm>
</extensions>
</trkpt>
<trkpt lat="63.831745148" lon="-19.205356598">
<ele>568.796875</ele>
<time>2012-07-26T10:41:19Z</time>
<speed>0.220000</speed>
<extensions>
<speed>0.2</speed>
<temp>0.00</temp>
<bpm>0</bpm>
<rpm>0.00</rpm>
</extensions>
</trkpt>
<trkpt lat="63.831741333" lon="-19.205343246">
<ele>568.781250</ele>
<time>2012-07-26T10:41:24Z</time>
<speed>0.100000</speed>
<extensions>
<speed>0.1</speed>
<temp>0.00</temp>
<bpm>0</bpm>
<rpm>0.00</rpm>
</extensions>
</trkpt>
<trkpt lat="63.831745148" lon="-19.205341339">
<ele>568.781250</ele>
<time>2012-07-26T10:41:29Z</time>
<speed>0.020000</speed>
<extensions>
<speed>0.0</speed>
<temp>0.00</temp>
<bpm>0</bpm>
<rpm>0.00</rpm>
</extensions>
</trkpt>
<trkpt lat="63.831737518" lon="-19.205343246">
<ele>568.781250</ele>
<time>2012-07-26T10:41:34Z</time>
<speed>0.150000</speed>
<extensions>
<speed>0.2</speed>
<temp>0.00</temp>
<bpm>0</bpm>
<rpm>0.00</rpm>
</extensions>
</trkpt>
<trkpt lat="63.831737518" lon="-19.205333710">
<ele>568.781250</ele>
<time>2012-07-26T10:41:39Z</time>
<speed>0.080000</speed>
<extensions>
<speed>0.1</speed>
<temp>0.00</temp>
<bpm>0</bpm>
<rpm>0.00</rpm>
</extensions>
</trkpt>
<trkpt lat="63.831737518" lon="-19.205329895">
<ele>568.765625</ele>
<time>2012-07-26T10:41:44Z</time>
<speed>0.420000</speed>
<extensions>
<speed>0.4</speed>
<temp>0.00</temp>
<bpm>0</bpm>
<rpm>0.00</rpm>
</extensions>
</trkpt>
<trkpt lat="63.831745148" lon="-19.205280304">
<ele>568.687500</ele>
<time>2012-07-26T10:41:49Z</time>
<speed>0.160000</speed>
<extensions>
<speed>0.2</speed>
<temp>0.00</temp>
<bpm>0</bpm>
<rpm>0.00</rpm>
</extensions>
</trkpt>
<trkpt lat="63.831741333" lon="-19.205266953">
<ele>568.609375</ele>
<time>2012-07-26T10:41:54Z</time>
<speed>0.070000</speed>
<extensions>
<speed>0.1</speed>
<temp>0.00</temp>
<bpm>0</bpm>
<rpm>0.00</rpm>
</extensions>
</trkpt>
<trkpt lat="63.831741333" lon="-19.205299377">
<ele>569.468750</ele>
<time>2012-07-26T10:41:59Z</time>
<speed>0.310000</speed>
<extensions>
<speed>0.3</speed>
<temp>0.00</temp>
<bpm>0</bpm>
<rpm>0.00</rpm>
</extensions>
</trkpt>
<trkpt lat="63.831733704" lon="-19.205305099">
<ele>569.828125</ele>
<time>2012-07-26T10:42:04Z</time>
<speed>0.620000</speed>
<extensions>
<speed>0.6</speed>
<temp>0.00</temp>
<bpm>0</bpm>
<rpm>0.00</rpm>
</extensions>
</trkpt>
<trkpt lat="63.831729889" lon="-19.205322266">
<ele>569.921875</ele>
<time>2012-07-26T10:42:09Z</time>
<speed>0.780000</speed>
<extensions>
<speed>0.8</speed>
<temp>0.00</temp>
<bpm>0</bpm>
<rpm>0.00</rpm>
</extensions>
</trkpt>
<trkpt lat="63.831733704" lon="-19.205345154">
<ele>570.515625</ele>
<time>2012-07-26T10:42:14Z</time>
<speed>0.180000</speed>
<extensions>
<speed>0.2</speed>
<temp>0.00</temp>
<bpm>0</bpm>
<rpm>0.00</rpm>
</extensions>
</trkpt>
<trkpt lat="63.831729889" lon="-19.205335617">
<ele>570.296875</ele>
<time>2012-07-26T10:42:19Z</time>
<speed>0.050000</speed>
<extensions>
<speed>0.1</speed>
<temp>0.00</temp>
<bpm>0</bpm>
<rpm>0.00</rpm>
</extensions>
</trkpt>
<trkpt lat="63.831733704" lon="-19.205335617">
<ele>570.125000</ele>
<time>2012-07-26T10:42:24Z</time>
<speed>0.030000</speed>
<extensions>
<speed>0.0</speed>
<temp>0.00</temp>
<bpm>0</bpm>
<rpm>0.00</rpm>
</extensions>
</trkpt>
<trkpt lat="63.831729889" lon="-19.205326080">
<ele>570.046875</ele>
<time>2012-07-26T10:42:29Z</time>
<speed>0.170000</speed>
<extensions>
<speed>0.2</speed>
<temp>0.00</temp>
<bpm>0</bpm>
<rpm>0.00</rpm>
</extensions>
</trkpt>
<trkpt lat="63.831726074" lon="-19.205312729">
<ele>570.000000</ele>
<time>2012-07-26T10:42:34Z</time>
<speed>0.050000</speed>
<extensions>
<speed>0.1</speed>
<temp>0.00</temp>
<bpm>0</bpm>
<rpm>0.00</rpm>
</extensions>
</trkpt>
<trkpt lat="63.831729889" lon="-19.205297470">
<ele>570.093750</ele>
<time>2012-07-26T10:42:39Z</time>
<speed>0.220000</speed>
<extensions>
<speed>0.2</speed>
<temp>0.00</temp>
<bpm>0</bpm>
<rpm>0.00</rpm>
</extensions>
</trkpt>
<trkpt lat="63.831733704" lon="-19.205293655">
<ele>570.171875</ele>
<time>2012-07-26T10:42:44Z</time>
<speed>0.270000</speed>
<extensions>
<speed>0.3</speed>
<temp>0.00</temp>
<bpm>0</bpm>
<rpm>0.00</rpm>
</extensions>
</trkpt>
<trkpt lat="63.831737518" lon="-19.205327988">
<ele>570.390625</ele>
<time>2012-07-26T10:42:49Z</time>
<speed>0.310000</speed>
<extensions>
<speed>0.3</speed>
<temp>0.00</temp>
<bpm>0</bpm>
<rpm>0.00</rpm>
</extensions>
</trkpt>
<trkpt lat="63.831733704" lon="-19.205333710">
<ele>570.625000</ele>
<time>2012-07-26T10:42:54Z</time>
<speed>0.070000</speed>
<extensions>
<speed>0.1</speed>
<temp>0.00</temp>
<bpm>0</bpm>
<rpm>0.00</rpm>
</extensions>
</trkpt>
<trkpt lat="63.831737518" lon="-19.205364227">
<ele>570.828125</ele>
<time>2012-07-26T10:42:59Z</time>
<speed>0.030000</speed>
<extensions>
<speed>0.0</speed>
<temp>0.00</temp>
<bpm>0</bpm>
<rpm>0.00</rpm>
</extensions>
</trkpt>
<trkpt lat="63.831737518" lon="-19.205358505">
<ele>570.890625</ele>
<time>2012-07-26T10:43:04Z</time>
<speed>0.010000</speed>
<extensions>
<speed>0.0</speed>
<temp>0.00</temp>
<bpm>0</bpm>
<rpm>0.00</rpm>
</extensions>
</trkpt>
<trkpt lat="63.831737518" lon="-19.205354691">
<ele>570.843750</ele>
<time>2012-07-26T10:43:09Z</time>
<speed>0.080000</speed>
<extensions>
<speed>0.1</speed>
<temp>0.00</temp>
<bpm>0</bpm>
<rpm>0.00</rpm>
</extensions>
</trkpt>
<trkpt lat="63.831741333" lon="-19.205347061">
<ele>570.812500</ele>
<time>2012-07-26T10:43:14Z</time>
<speed>0.070000</speed>
<extensions>
<speed>0.1</speed>
<temp>0.00</temp>
<bpm>0</bpm>
<rpm>0.00</rpm>
</extensions>
</trkpt>
<trkpt lat="63.831741333" lon="-19.205341339">
<ele>570.796875</ele>
<time>2012-07-26T10:43:19Z</time>
<speed>0.050000</speed>
<extensions>
<speed>0.1</speed>
<temp>0.00</temp>
<bpm>0</bpm>
<rpm>0.00</rpm>
</extensions>
</trkpt>
<trkpt lat="63.831741333" lon="-19.205339432">
<ele>570.781250</ele>
<time>2012-07-26T10:43:24Z</time>
<speed>0.030000</speed>
<extensions>
<speed>0.0</speed>
<temp>0.00</temp>
<bpm>0</bpm>
<rpm>0.00</rpm>
</extensions>
</trkpt>
<trkpt lat="63.831741333" lon="-19.205341339">
<ele>570.765625</ele>
<time>2012-07-26T10:43:29Z</time>
<extensions>
<speed>0.0</speed>
<temp>0.00</temp>
<bpm>0</bpm>
<rpm>0.00</rpm>
</extensions>
</trkpt>
<trkpt lat="63.831741333" lon="-19.205341339">
<ele>570.750000</ele>
<time>2012-07-26T10:43:34Z</time>
<speed>0.020000</speed>
<extensions>
<speed>0.0</speed>
<temp>0.00</temp>
<bpm>0</bpm>
<rpm>0.00</rpm>
</extensions>
</trkpt>
<trkpt lat="63.831741333" lon="-19.205341339">
<ele>570.750000</ele>
<time>2012-07-26T10:43:39Z</time>
<speed>0.030000</speed>
<extensions>
<speed>0.0</speed>
<temp>0.00</temp>
<bpm>0</bpm>
<rpm>0.00</rpm>
</extensions>
</trkpt>
<trkpt lat="63.831741333" lon="-19.205343246">
<ele>570.734375</ele>
<time>2012-07-26T10:43:44Z</time>
<speed>0.020000</speed>
<extensions>
<speed>0.0</speed>
<temp>0.00</temp>
<bpm>0</bpm>
<rpm>0.00</rpm>
</extensions>
</trkpt>
<trkpt lat="63.831737518" lon="-19.205343246">
<ele>570.734375</ele>
<time>2012-07-26T10:43:49Z</time>
<speed>0.050000</speed>
<extensions>
<speed>0.1</speed>
<temp>0.00</temp>
<bpm>0</bpm>
<rpm>0.00</rpm>
</extensions>
</trkpt>
<trkpt lat="63.831745148" lon="-19.205341339">
<ele>570.671875</ele>
<time>2012-07-26T10:43:54Z</time>
<speed>0.180000</speed>
<extensions>
<speed>0.2</speed>
<temp>0.00</temp>
<bpm>0</bpm>
<rpm>0.00</rpm>
</extensions>
</trkpt>
<trkpt lat="63.831737518" lon="-19.205310822">
<ele>570.468750</ele>
<time>2012-07-26T10:43:59Z</time>
<speed>0.580000</speed>
<extensions>
<speed>0.6</speed>
<temp>0.00</temp>
<bpm>0</bpm>
<rpm>0.00</rpm>
</extensions>
</trkpt>
<trkpt lat="63.831722260" lon="-19.205316544">
<ele>569.906250</ele>
<time>2012-07-26T10:44:04Z</time>
<speed>0.030000</speed>
<extensions>
<speed>0.0</speed>
<temp>0.00</temp>
<bpm>0</bpm>
<rpm>0.00</rpm>
</extensions>
</trkpt>
<trkpt lat="63.831722260" lon="-19.205312729">
<ele>569.828125</ele>
<time>2012-07-26T10:44:09Z</time>
<speed>0.070000</speed>
<extensions>
<speed>0.1</speed>
<temp>0.00</temp>
<bpm>0</bpm>
<rpm>0.00</rpm>
</extensions>
</trkpt>
<trkpt lat="63.831718445" lon="-19.205316544">
<ele>569.796875</ele>
<time>2012-07-26T10:44:14Z</time>
<speed>0.080000</speed>
<extensions>
<speed>0.1</speed>
<temp>0.00</temp>
<bpm>0</bpm>
<rpm>0.00</rpm>
</extensions>
</trkpt>
<trkpt lat="63.831722260" lon="-19.205312729">
<ele>569.781250</ele>
<time>2012-07-26T10:44:19Z</time>
<speed>0.070000</speed>
<extensions>
<speed>0.1</speed>
<temp>0.00</temp>
<bpm>0</bpm>
<rpm>0.00</rpm>
</extensions>
</trkpt>
<trkpt lat="63.831722260" lon="-19.205310822">
<ele>569.750000</ele>
<time>2012-07-26T10:44:24Z</time>
<extensions>
<speed>0.0</speed>
<temp>0.00</temp>
<bpm>0</bpm>
<rpm>0.00</rpm>
</extensions>
</trkpt>
<trkpt lat="63.831722260" lon="-19.205310822">
<ele>569.625000</ele>
<time>2012-07-26T10:44:29Z</time>
<speed>0.400000</speed>
<extensions>
<speed>0.4</speed>
<temp>0.00</temp>
<bpm>0</bpm>
<rpm>0.00</rpm>
</extensions>
</trkpt>
<trkpt lat="63.831722260" lon="-19.205329895">
<ele>569.328125</ele>
<time>2012-07-26T10:44:34Z</time>
<speed>0.050000</speed>
<extensions>
<speed>0.1</speed>
<temp>0.00</temp>
<bpm>0</bpm>
<rpm>0.00</rpm>
</extensions>
</trkpt>
<trkpt lat="63.831722260" lon="-19.205327988">
<ele>569.281250</ele>
<time>2012-07-26T10:44:39Z</time>
<speed>0.060000</speed>
<extensions>
<speed>0.1</speed>
<temp>0.00</temp>
<bpm>0</bpm>
<rpm>0.00</rpm>
</extensions>
</trkpt>
<trkpt lat="63.831718445" lon="-19.205326080">
<ele>569.250000</ele>
<time>2012-07-26T10:44:44Z</time>
<speed>0.080000</speed>
<extensions>
<speed>0.1</speed>
<temp>0.00</temp>
<bpm>0</bpm>
<rpm>0.00</rpm>
</extensions>
</trkpt>
<trkpt lat="63.831714630" lon="-19.205318451">
<ele>569.218750</ele>
<time>2012-07-26T10:44:49Z</time>
<speed>0.130000</speed>
<extensions>
<speed>0.1</speed>
<temp>0.00</temp>
<bpm>0</bpm>
<rpm>0.00</rpm>
</extensions>
</trkpt>
<trkpt lat="63.831714630" lon="-19.205310822">
<ele>569.203125</ele>
<time>2012-07-26T10:44:54Z</time>
<speed>0.050000</speed>
<extensions>
<speed>0.1</speed>
<temp>0.00</temp>
<bpm>0</bpm>
<rpm>0.00</rpm>
</extensions>
</trkpt>
<trkpt lat="63.831707001" lon="-19.205329895">
<ele>569.406250</ele>
<time>2012-07-26T10:44:59Z</time>
<speed>0.450000</speed>
<extensions>
<speed>0.5</speed>
<temp>0.00</temp>
<bpm>0</bpm>
<rpm>0.00</rpm>
</extensions>
</trkpt>
<trkpt lat="63.831703186" lon="-19.205385208">
<ele>569.640625</ele>
<time>2012-07-26T10:45:04Z</time>
<speed>0.230000</speed>
<extensions>
<speed>0.2</speed>
<temp>0.00</temp>
<bpm>0</bpm>
<rpm>0.00</rpm>
</extensions>
</trkpt>
<trkpt lat="63.831695557" lon="-19.205419540">
<ele>569.765625</ele>
<time>2012-07-26T10:45:09Z</time>
<speed>0.120000</speed>
<extensions>
<speed>0.1</speed>
<temp>0.00</temp>
<bpm>0</bpm>
<rpm>0.00</rpm>
</extensions>
</trkpt>
<trkpt lat="63.831699371" lon="-19.205429077">
<ele>569.781250</ele>
<time>2012-07-26T10:45:14Z</time>
<speed>0.180000</speed>
<extensions>
<speed>0.2</speed>
<temp>0.00</temp>
<bpm>0</bpm>
<rpm>0.00</rpm>
</extensions>
</trkpt>
<trkpt lat="63.831699371" lon="-19.205444336">
<ele>569.781250</ele>
<time>2012-07-26T10:45:19Z</time>
<speed>0.110000</speed>
<extensions>
<speed>0.1</speed>
<temp>0.00</temp>
<bpm>0</bpm>
<rpm>0.00</rpm>
</extensions>
</trkpt>
<trkpt lat="63.831703186" lon="-19.205451965">
<ele>569.781250</ele>
<time>2012-07-26T10:45:24Z</time>
<speed>0.110000</speed>
<extensions>
<speed>0.1</speed>
<temp>0.00</temp>
<bpm>0</bpm>
<rpm>0.00</rpm>
</extensions>
</trkpt>
<trkpt lat="63.831710815" lon="-19.205457687">
<ele>569.796875</ele>
<time>2012-07-26T10:45:29Z</time>
<speed>0.090000</speed>
<extensions>
<speed>0.1</speed>
<temp>0.00</temp>
<bpm>0</bpm>
<rpm>0.00</rpm>
</extensions>
</trkpt>
<trkpt lat="63.831710815" lon="-19.205446243">
<ele>569.796875</ele>
<time>2012-07-26T10:45:34Z</time>
<speed>0.100000</speed>
<extensions>
<speed>0.1</speed>
<temp>0.00</temp>
<bpm>0</bpm>
<rpm>0.00</rpm>
</extensions>
</trkpt>
<trkpt lat="63.831714630" lon="-19.205451965">
<ele>569.796875</ele>
<time>2012-07-26T10:45:39Z</time>
<speed>0.170000</speed>
<extensions>
<speed>0.2</speed>
<temp>0.00</temp>
<bpm>0</bpm>
<rpm>0.00</rpm>
</extensions>
</trkpt>
<trkpt lat="63.831714630" lon="-19.205450058">
<ele>569.765625</ele>
<time>2012-07-26T10:45:44Z</time>
<speed>0.030000</speed>
<extensions>
<speed>0.0</speed>
<temp>0.00</temp>
<bpm>0</bpm>
<rpm>0.00</rpm>
</extensions>
</trkpt>
<trkpt lat="63.831718445" lon="-19.205444336">
<ele>569.750000</ele>
<time>2012-07-26T10:45:49Z</time>
<speed>0.020000</speed>
<extensions>
<speed>0.0</speed>
<temp>0.00</temp>
<bpm>0</bpm>
<rpm>0.00</rpm>
</extensions>
</trkpt>
<trkpt lat="63.831714630" lon="-19.205430984">
<ele>569.734375</ele>
<time>2012-07-26T10:45:54Z</time>
<speed>0.250000</speed>
<extensions>
<speed>0.2</speed>
<temp>0.00</temp>
<bpm>0</bpm>
<rpm>0.00</rpm>
</extensions>
</trkpt>
<trkpt lat="63.831710815" lon="-19.205368042">
<ele>569.781250</ele>
<time>2012-07-26T10:45:59Z</time>
<speed>0.310000</speed>
<extensions>
<speed>0.3</speed>
<temp>0.00</temp>
<bpm>0</bpm>
<rpm>0.00</rpm>
</extensions>
</trkpt>
<trkpt lat="63.831722260" lon="-19.205354691">
<ele>570.453125</ele>
<time>2012-07-26T10:46:04Z</time>
<speed>0.230000</speed>
<extensions>
<speed>0.2</speed>
<temp>0.00</temp>
<bpm>0</bpm>
<rpm>0.00</rpm>
</extensions>
</trkpt>
<trkpt lat="63.831726074" lon="-19.205347061">
<ele>570.437500</ele>
<time>2012-07-26T10:46:09Z</time>
<speed>0.140000</speed>
<extensions>
<speed>0.1</speed>
<temp>0.00</temp>
<bpm>0</bpm>
<rpm>0.00</rpm>
</extensions>
</trkpt>
<trkpt lat="63.831733704" lon="-19.205358505">
<ele>570.437500</ele>
<time>2012-07-26T10:46:14Z</time>
<speed>0.120000</speed>
<extensions>
<speed>0.1</speed>
<temp>0.00</temp>
<bpm>0</bpm>
<rpm>0.00</rpm>
</extensions>
</trkpt>
<trkpt lat="63.831733704" lon="-19.205362320">
<ele>570.375000</ele>
<time>2012-07-26T10:46:19Z</time>
<speed>0.090000</speed>
<extensions>
<speed>0.1</speed>
<temp>0.00</temp>
<bpm>0</bpm>
<rpm>0.00</rpm>
</extensions>
</trkpt>
<trkpt lat="63.831733704" lon="-19.205371857">
<ele>570.312500</ele>
<time>2012-07-26T10:46:24Z</time>
<speed>0.120000</speed>
<extensions>
<speed>0.1</speed>
<temp>0.00</temp>
<bpm>0</bpm>
<rpm>0.00</rpm>
</extensions>
</trkpt>
<trkpt lat="63.831733704" lon="-19.205373764">
<ele>570.281250</ele>
<time>2012-07-26T10:46:29Z</time>
<speed>0.110000</speed>
<extensions>
<speed>0.1</speed>
<temp>0.00</temp>
<bpm>0</bpm>
<rpm>0.00</rpm>
</extensions>
</trkpt>
<trkpt lat="63.831729889" lon="-19.205329895">
<ele>570.390625</ele>
<time>2012-07-26T10:46:34Z</time>
<speed>0.340000</speed>
<extensions>
<speed>0.3</speed>
<temp>0.00</temp>
<bpm>0</bpm>
<rpm>0.00</rpm>
</extensions>
</trkpt>
<trkpt lat="63.831737518" lon="-19.205356598">
<ele>570.578125</ele>
<time>2012-07-26T10:46:39Z</time>
<speed>0.100000</speed>
<extensions>
<speed>0.1</speed>
<temp>0.00</temp>
<bpm>0</bpm>
<rpm>0.00</rpm>
</extensions>
</trkpt>
<trkpt lat="63.831737518" lon="-19.205358505">
<ele>570.390625</ele>
<time>2012-07-26T10:46:44Z</time>
<speed>0.150000</speed>
<extensions>
<speed>0.2</speed>
<temp>0.00</temp>
<bpm>0</bpm>
<rpm>0.00</rpm>
</extensions>
</trkpt>
<trkpt lat="63.831745148" lon="-19.205404282">
<ele>570.203125</ele>
<time>2012-07-26T10:46:49Z</time>
<speed>0.530000</speed>
<extensions>
<speed>0.5</speed>
<temp>0.00</temp>
<bpm>0</bpm>
<rpm>0.00</rpm>
</extensions>
</trkpt>
<trkpt lat="63.831733704" lon="-19.205419540">
<ele>570.687500</ele>
<time>2012-07-26T10:46:54Z</time>
<speed>0.170000</speed>
<extensions>
<speed>0.2</speed>
<temp>0.00</temp>
<bpm>0</bpm>
<rpm>0.00</rpm>
</extensions>
</trkpt>
<trkpt lat="63.831733704" lon="-19.205427170">
<ele>570.078125</ele>
<time>2012-07-26T10:46:59Z</time>
<speed>0.060000</speed>
<extensions>
<speed>0.1</speed>
<temp>0.00</temp>
<bpm>0</bpm>
<rpm>0.00</rpm>
</extensions>
</trkpt>
<trkpt lat="63.831733704" lon="-19.205430984">
<ele>569.734375</ele>
<time>2012-07-26T10:47:04Z</time>
<speed>0.090000</speed>
<extensions>
<speed>0.1</speed>
<temp>0.00</temp>
<bpm>0</bpm>
<rpm>0.00</rpm>
</extensions>
</trkpt>
<trkpt lat="63.831733704" lon="-19.205429077">
<ele>569.500000</ele>
<time>2012-07-26T10:47:09Z</time>
<speed>0.080000</speed>
<extensions>
<speed>0.1</speed>
<temp>0.00</temp>
<bpm>0</bpm>
<rpm>0.00</rpm>
</extensions>
</trkpt>
<trkpt lat="63.831733704" lon="-19.205429077">
<ele>569.515625</ele>
<time>2012-07-26T10:47:14Z</time>
<extensions>
<speed>0.0</speed>
<temp>0.00</temp>
<bpm>0</bpm>
<rpm>0.00</rpm>
</extensions>
</trkpt>
<trkpt lat="63.831733704" lon="-19.205427170">
<ele>569.515625</ele>
<time>2012-07-26T10:47:19Z</time>
<speed>0.030000</speed>
<extensions>
<speed>0.0</speed>
<temp>0.00</temp>
<bpm>0</bpm>
<rpm>0.00</rpm>
</extensions>
</trkpt>
<trkpt lat="63.831733704" lon="-19.205427170">
<ele>569.531250</ele>
<time>2012-07-26T10:47:24Z</time>
<speed>0.010000</speed>
<extensions>
<speed>0.0</speed>
<temp>0.00</temp>
<bpm>0</bpm>
<rpm>0.00</rpm>
</extensions>
</trkpt>
<trkpt lat="63.831733704" lon="-19.205427170">
<ele>569.531250</ele>
<time>2012-07-26T10:47:29Z</time>
<speed>0.010000</speed>
<extensions>
<speed>0.0</speed>
<temp>0.00</temp>
<bpm>0</bpm>
<rpm>0.00</rpm>
</extensions>
</trkpt>
<trkpt lat="63.831733704" lon="-19.205427170">
<ele>569.531250</ele>
<time>2012-07-26T10:47:34Z</time>
<speed>0.060000</speed>
<extensions>
<speed>0.1</speed>
<temp>0.00</temp>
<bpm>0</bpm>
<rpm>0.00</rpm>
</extensions>
</trkpt>
<trkpt lat="63.831741333" lon="-19.205423355">
<ele>569.578125</ele>
<time>2012-07-26T10:47:39Z</time>
<speed>0.150000</speed>
<extensions>
<speed>0.2</speed>
<temp>0.00</temp>
<bpm>0</bpm>
<rpm>0.00</rpm>
</extensions>
</trkpt>
<trkpt lat="63.831745148" lon="-19.205415726">
<ele>569.656250</ele>
<time>2012-07-26T10:47:44Z</time>
<speed>0.110000</speed>
<extensions>
<speed>0.1</speed>
<temp>0.00</temp>
<bpm>0</bpm>
<rpm>0.00</rpm>
</extensions>
</trkpt>
<trkpt lat="63.831748962" lon="-19.205406189">
<ele>569.734375</ele>
<time>2012-07-26T10:47:49Z</time>
<speed>0.140000</speed>
<extensions>
<speed>0.1</speed>
<temp>0.00</temp>
<bpm>0</bpm>
<rpm>0.00</rpm>
</extensions>
</trkpt>
<trkpt lat="63.831752777" lon="-19.205398560">
<ele>569.859375</ele>
<time>2012-07-26T10:47:54Z</time>
<speed>0.070000</speed>
<extensions>
<speed>0.1</speed>
<temp>0.00</temp>
<bpm>0</bpm>
<rpm>0.00</rpm>
</extensions>
</trkpt>
<trkpt lat="63.831756592" lon="-19.205387115">
<ele>569.953125</ele>
<time>2012-07-26T10:47:59Z</time>
<speed>0.100000</speed>
<extensions>
<speed>0.1</speed>
<temp>0.00</temp>
<bpm>0</bpm>
<rpm>0.00</rpm>
</extensions>
</trkpt>
<trkpt lat="63.831756592" lon="-19.205379486">
<ele>570.109375</ele>
<time>2012-07-26T10:48:04Z</time>
<speed>0.050000</speed>
<extensions>
<speed>0.1</speed>
<temp>0.00</temp>
<bpm>0</bpm>
<rpm>0.00</rpm>
</extensions>
</trkpt>
<trkpt lat="63.831756592" lon="-19.205371857">
<ele>570.312500</ele>
<time>2012-07-26T10:48:09Z</time>
<speed>0.040000</speed>
<extensions>
<speed>0.0</speed>
<temp>0.00</temp>
<bpm>0</bpm>
<rpm>0.00</rpm>
</extensions>
</trkpt>
<trkpt lat="63.831756592" lon="-19.205366135">
<ele>570.484375</ele>
<time>2012-07-26T10:48:14Z</time>
<speed>0.230000</speed>
<extensions>
<speed>0.2</speed>
<temp>0.00</temp>
<bpm>0</bpm>
<rpm>0.00</rpm>
</extensions>
</trkpt>
<trkpt lat="63.831760406" lon="-19.205343246">
<ele>570.796875</ele>
<time>2012-07-26T10:48:19Z</time>
<speed>0.170000</speed>
<extensions>
<speed>0.2</speed>
<temp>0.00</temp>
<bpm>0</bpm>
<rpm>0.00</rpm>
</extensions>
</trkpt>
<trkpt lat="63.831752777" lon="-19.205341339">
<ele>570.500000</ele>
<time>2012-07-26T10:48:24Z</time>
<speed>0.250000</speed>
<extensions>
<speed>0.2</speed>
<temp>0.00</temp>
<bpm>0</bpm>
<rpm>0.00</rpm>
</extensions>
</trkpt>
<trkpt lat="63.831748962" lon="-19.205343246">
<ele>570.453125</ele>
<time>2012-07-26T10:48:29Z</time>
<speed>0.100000</speed>
<extensions>
<speed>0.1</speed>
<temp>0.00</temp>
<bpm>0</bpm>
<rpm>0.00</rpm>
</extensions>
</trkpt>
<trkpt lat="63.831748962" lon="-19.205345154">
<ele>570.406250</ele>
<time>2012-07-26T10:48:34Z</time>
<speed>0.020000</speed>
<extensions>
<speed>0.0</speed>
<temp>0.00</temp>
<bpm>0</bpm>
<rpm>0.00</rpm>
</extensions>
</trkpt>
<trkpt lat="63.831748962" lon="-19.205345154">
<ele>570.421875</ele>
<time>2012-07-26T10:48:39Z</time>
<speed>0.090000</speed>
<extensions>
<speed>0.1</speed>
<temp>0.00</temp>
<bpm>0</bpm>
<rpm>0.00</rpm>
</extensions>
</trkpt>
<trkpt lat="63.831748962" lon="-19.205345154">
<ele>570.453125</ele>
<time>2012-07-26T10:48:44Z</time>
<speed>0.030000</speed>
<extensions>
<speed>0.0</speed>
<temp>0.00</temp>
<bpm>0</bpm>
<rpm>0.00</rpm>
</extensions>
</trkpt>
<trkpt lat="63.831748962" lon="-19.205345154">
<ele>570.453125</ele>
<time>2012-07-26T10:48:49Z</time>
<speed>0.010000</speed>
<extensions>
<speed>0.0</speed>
<temp>0.00</temp>
<bpm>0</bpm>
<rpm>0.00</rpm>
</extensions>
</trkpt>
<trkpt lat="63.831752777" lon="-19.205339432">
<ele>570.437500</ele>
<time>2012-07-26T10:48:54Z</time>
<speed>0.300000</speed>
<extensions>
<speed>0.3</speed>
<temp>0.00</temp>
<bpm>0</bpm>
<rpm>0.00</rpm>
</extensions>
</trkpt>
<trkpt lat="63.831748962" lon="-19.205307007">
<ele>570.031250</ele>
<time>2012-07-26T10:48:59Z</time>
<speed>0.210000</speed>
<extensions>
<speed>0.2</speed>
<temp>0.00</temp>
<bpm>0</bpm>
<rpm>0.00</rpm>
</extensions>
</trkpt>
<trkpt lat="63.831745148" lon="-19.205293655">
<ele>569.828125</ele>
<time>2012-07-26T10:49:04Z</time>
<speed>0.110000</speed>
<extensions>
<speed>0.1</speed>
<temp>0.00</temp>
<bpm>0</bpm>
<rpm>0.00</rpm>
</extensions>
</trkpt>
<trkpt lat="63.831775665" lon="-19.205219269">
<ele>569.734375</ele>
<time>2012-07-26T10:49:09Z</time>
<speed>1.220000</speed>
<extensions>
<speed>1.2</speed>
<temp>0.00</temp>
<bpm>0</bpm>
<rpm>0.00</rpm>
</extensions>
</trkpt>
<trkpt lat="63.831802368" lon="-19.205165863">
<ele>569.640625</ele>
<time>2012-07-26T10:49:14Z</time>
<speed>0.420000</speed>
<extensions>
<speed>0.4</speed>
<temp>0.00</temp>
<bpm>0</bpm>
<rpm>0.00</rpm>
</extensions>
</trkpt>
<trkpt lat="63.831829071" lon="-19.205204010">
<ele>568.421875</ele>
<time>2012-07-26T10:49:19Z</time>
<speed>1.250000</speed>
<extensions>
<speed>1.3</speed>
<temp>0.00</temp>
<bpm>0</bpm>
<rpm>0.00</rpm>
</extensions>
</trkpt>
<trkpt lat="63.831867218" lon="-19.205268860">
<ele>567.765625</ele>
<time>2012-07-26T10:49:24Z</time>
<speed>1.300000</speed>
<extensions>
<speed>1.3</speed>
<temp>0.00</temp>
<bpm>0</bpm>
<rpm>0.00</rpm>
</extensions>
</trkpt>
<trkpt lat="63.831893921" lon="-19.205429077">
<ele>567.843750</ele>
<time>2012-07-26T10:49:29Z</time>
<speed>1.100000</speed>
<extensions>
<speed>1.1</speed>
<temp>0.00</temp>
<bpm>0</bpm>
<rpm>0.00</rpm>
</extensions>
</trkpt>
<trkpt lat="63.831916809" lon="-19.205549240">
<ele>566.390625</ele>
<time>2012-07-26T10:49:34Z</time>
<speed>1.640000</speed>
<extensions>
<speed>1.6</speed>
<temp>0.00</temp>
<bpm>0</bpm>
<rpm>0.00</rpm>
</extensions>
</trkpt>
<trkpt lat="63.831905365" lon="-19.205722809">
<ele>566.281250</ele>
<time>2012-07-26T10:49:39Z</time>
<speed>1.310000</speed>
<extensions>
<speed>1.3</speed>
<temp>0.00</temp>
<bpm>0</bpm>
<rpm>0.00</rpm>
</extensions>
</trkpt>
<trkpt lat="63.831897736" lon="-19.205905914">
<ele>566.625000</ele>
<time>2012-07-26T10:49:44Z</time>
<speed>1.430000</speed>
<extensions>
<speed>1.4</speed>
<temp>0.00</temp>
<bpm>0</bpm>
<rpm>0.00</rpm>
</extensions>
</trkpt>
<trkpt lat="63.831905365" lon="-19.206089020">
<ele>566.671875</ele>
<time>2012-07-26T10:49:49Z</time>
<speed>1.530000</speed>
<extensions>
<speed>1.5</speed>
<temp>0.00</temp>
<bpm>0</bpm>
<rpm>0.00</rpm>
</extensions>
</trkpt>
<trkpt lat="63.831920624" lon="-19.206235886">
<ele>566.781250</ele>
<time>2012-07-26T10:49:54Z</time>
<speed>1.680000</speed>
<extensions>
<speed>1.7</speed>
<temp>0.00</temp>
<bpm>0</bpm>
<rpm>0.00</rpm>
</extensions>
</trkpt>
<trkpt lat="63.831932068" lon="-19.206289291">
<ele>567.281250</ele>
<time>2012-07-26T10:49:59Z</time>
<speed>0.370000</speed>
<extensions>
<speed>0.4</speed>
<temp>0.00</temp>
<bpm>0</bpm>
<rpm>0.00</rpm>
</extensions>
</trkpt>
<trkpt lat="63.831924438" lon="-19.206264496">
<ele>567.953125</ele>
<time>2012-07-26T10:50:04Z</time>
<speed>0.540000</speed>
<extensions>
<speed>0.5</speed>
<temp>0.00</temp>
<bpm>0</bpm>
<rpm>0.00</rpm>
</extensions>
</trkpt>
<trkpt lat="63.831912994" lon="-19.206264496">
<ele>568.062500</ele>
<time>2012-07-26T10:50:09Z</time>
<speed>0.090000</speed>
<extensions>
<speed>0.1</speed>
<temp>0.00</temp>
<bpm>0</bpm>
<rpm>0.00</rpm>
</extensions>
</trkpt>
<trkpt lat="63.831912994" lon="-19.206264496">
<ele>568.125000</ele>
<time>2012-07-26T10:50:14Z</time>
<speed>0.060000</speed>
<extensions>
<speed>0.1</speed>
<temp>0.00</temp>
<bpm>0</bpm>
<rpm>0.00</rpm>
</extensions>
</trkpt>
<trkpt lat="63.831916809" lon="-19.206258774">
<ele>568.140625</ele>
<time>2012-07-26T10:50:19Z</time>
<speed>0.140000</speed>
<extensions>
<speed>0.1</speed>
<temp>0.00</temp>
<bpm>0</bpm>
<rpm>0.00</rpm>
</extensions>
</trkpt>
<trkpt lat="63.831920624" lon="-19.206258774">
<ele>568.156250</ele>
<time>2012-07-26T10:50:24Z</time>
<speed>0.080000</speed>
<extensions>
<speed>0.1</speed>
<temp>0.00</temp>
<bpm>0</bpm>
<rpm>0.00</rpm>
</extensions>
</trkpt>
<trkpt lat="63.831924438" lon="-19.206262589">
<ele>568.171875</ele>
<time>2012-07-26T10:50:29Z</time>
<speed>0.120000</speed>
<extensions>
<speed>0.1</speed>
<temp>0.00</temp>
<bpm>0</bpm>
<rpm>0.00</rpm>
</extensions>
</trkpt>
<trkpt lat="63.831928253" lon="-19.206272125">
<ele>568.187500</ele>
<time>2012-07-26T10:50:34Z</time>
<speed>0.220000</speed>
<extensions>
<speed>0.2</speed>
<temp>0.00</temp>
<bpm>0</bpm>
<rpm>0.00</rpm>
</extensions>
</trkpt>
<trkpt lat="63.831939697" lon="-19.206283569">
<ele>568.187500</ele>
<time>2012-07-26T10:50:39Z</time>
<speed>0.200000</speed>
<extensions>
<speed>0.2</speed>
<temp>0.00</temp>
<bpm>0</bpm>
<rpm>0.00</rpm>
</extensions>
</trkpt>
<trkpt lat="63.831939697" lon="-19.206300735">
<ele>568.203125</ele>
<time>2012-07-26T10:50:44Z</time>
<speed>0.440000</speed>
<extensions>
<speed>0.4</speed>
<temp>0.00</temp>
<bpm>0</bpm>
<rpm>0.00</rpm>
</extensions>
</trkpt>
<trkpt lat="63.831928253" lon="-19.206138611">
<ele>567.593750</ele>
<time>2012-07-26T10:50:49Z</time>
<speed>1.160000</speed>
<extensions>
<speed>1.2</speed>
<temp>0.00</temp>
<bpm>0</bpm>
<rpm>0.00</rpm>
</extensions>
</trkpt>
<trkpt lat="63.831920624" lon="-19.205984116">
<ele>567.265625</ele>
<time>2012-07-26T10:50:54Z</time>
<speed>1.160000</speed>
<extensions>
<speed>1.2</speed>
<temp>0.00</temp>
<bpm>0</bpm>
<rpm>0.00</rpm>
</extensions>
</trkpt>
<trkpt lat="63.831905365" lon="-19.205839157">
<ele>567.015625</ele>
<time>2012-07-26T10:50:59Z</time>
<speed>1.470000</speed>
<extensions>
<speed>1.5</speed>
<temp>0.00</temp>
<bpm>0</bpm>
<rpm>0.00</rpm>
</extensions>
</trkpt>
<trkpt lat="63.831874847" lon="-19.205724716">
<ele>567.078125</ele>
<time>2012-07-26T10:51:04Z</time>
<speed>1.090000</speed>
<extensions>
<speed>1.1</speed>
<temp>0.00</temp>
<bpm>0</bpm>
<rpm>0.00</rpm>
</extensions>
</trkpt>
<trkpt lat="63.831871033" lon="-19.205625534">
<ele>567.687500</ele>
<time>2012-07-26T10:51:09Z</time>
<speed>1.070000</speed>
<extensions>
<speed>1.1</speed>
<temp>0.00</temp>
<bpm>0</bpm>
<rpm>0.00</rpm>
</extensions>
</trkpt>
<trkpt lat="63.831920624" lon="-19.205524445">
<ele>568.531250</ele>
<time>2012-07-26T10:51:14Z</time>
<speed>1.370000</speed>
<extensions>
<speed>1.4</speed>
<temp>0.00</temp>
<bpm>0</bpm>
<rpm>0.00</rpm>
</extensions>
</trkpt>
<trkpt lat="63.831943512" lon="-19.205442429">
<ele>569.031250</ele>
<time>2012-07-26T10:51:19Z</time>
<speed>1.200000</speed>
<extensions>
<speed>1.2</speed>
<temp>0.00</temp>
<bpm>0</bpm>
<rpm>0.00</rpm>
</extensions>
</trkpt>
<trkpt lat="63.831932068" lon="-19.205282211">
<ele>565.437500</ele>
<time>2012-07-26T10:51:24Z</time>
<speed>1.420000</speed>
<extensions>
<speed>1.4</speed>
<temp>0.00</temp>
<bpm>0</bpm>
<rpm>0.00</rpm>
</extensions>
</trkpt>
<trkpt lat="63.831893921" lon="-19.205265045">
<ele>564.328125</ele>
<time>2012-07-26T10:51:29Z</time>
<speed>1.470000</speed>
<extensions>
<speed>1.5</speed>
<temp>0.00</temp>
<bpm>0</bpm>
<rpm>0.00</rpm>
</extensions>
</trkpt>
<trkpt lat="63.831863403" lon="-19.205194473">
<ele>563.312500</ele>
<time>2012-07-26T10:51:34Z</time>
<speed>0.910000</speed>
<extensions>
<speed>0.9</speed>
<temp>0.00</temp>
<bpm>0</bpm>
<rpm>0.00</rpm>
</extensions>
</trkpt>
<trkpt lat="63.831802368" lon="-19.205198288">
<ele>563.906250</ele>
<time>2012-07-26T10:51:39Z</time>
<speed>0.890000</speed>
<extensions>
<speed>0.9</speed>
<temp>0.00</temp>
<bpm>0</bpm>
<rpm>0.00</rpm>
</extensions>
</trkpt>
<trkpt lat="63.831756592" lon="-19.205261230">
<ele>565.812500</ele>
<time>2012-07-26T10:51:44Z</time>
<speed>1.100000</speed>
<extensions>
<speed>1.1</speed>
<temp>0.00</temp>
<bpm>0</bpm>
<rpm>0.00</rpm>
</extensions>
</trkpt>
<trkpt lat="63.831737518" lon="-19.205362320">
<ele>565.281250</ele>
<time>2012-07-26T10:51:49Z</time>
<speed>0.930000</speed>
<extensions>
<speed>0.9</speed>
<temp>0.00</temp>
<bpm>0</bpm>
<rpm>0.00</rpm>
</extensions>
</trkpt>
<trkpt lat="63.831726074" lon="-19.205381393">
<ele>565.593750</ele>
<time>2012-07-26T10:51:54Z</time>
<speed>0.290000</speed>
<extensions>
<speed>0.3</speed>
<temp>0.00</temp>
<bpm>0</bpm>
<rpm>0.00</rpm>
</extensions>
</trkpt>
<trkpt lat="63.831726074" lon="-19.205385208">
<ele>566.921875</ele>
<time>2012-07-26T10:51:59Z</time>
<speed>0.230000</speed>
<extensions>
<speed>0.2</speed>
<temp>0.00</temp>
<bpm>0</bpm>
<rpm>0.00</rpm>
</extensions>
</trkpt>
<trkpt lat="63.831729889" lon="-19.205390930">
<ele>567.656250</ele>
<time>2012-07-26T10:52:04Z</time>
<speed>0.020000</speed>
<extensions>
<speed>0.0</speed>
<temp>0.00</temp>
<bpm>0</bpm>
<rpm>0.00</rpm>
</extensions>
</trkpt>
<trkpt lat="63.831729889" lon="-19.205390930">
<ele>567.750000</ele>
<time>2012-07-26T10:52:09Z</time>
<speed>0.040000</speed>
<extensions>
<speed>0.0</speed>
<temp>0.00</temp>
<bpm>0</bpm>
<rpm>0.00</rpm>
</extensions>
</trkpt>
<trkpt lat="63.831729889" lon="-19.205392838">
<ele>567.781250</ele>
<time>2012-07-26T10:52:14Z</time>
<speed>0.080000</speed>
<extensions>
<speed>0.1</speed>
<temp>0.00</temp>
<bpm>0</bpm>
<rpm>0.00</rpm>
</extensions>
</trkpt>
<trkpt lat="63.831737518" lon="-19.205369949">
<ele>567.750000</ele>
<time>2012-07-26T10:52:19Z</time>
<speed>0.040000</speed>
<extensions>
<speed>0.0</speed>
<temp>0.00</temp>
<bpm>0</bpm>
<rpm>0.00</rpm>
</extensions>
</trkpt>
<trkpt lat="63.831741333" lon="-19.205369949">
<ele>567.953125</ele>
<time>2012-07-26T10:52:24Z</time>
<speed>0.220000</speed>
<extensions>
<speed>0.2</speed>
<temp>0.00</temp>
<bpm>0</bpm>
<rpm>0.00</rpm>
</extensions>
</trkpt>
<trkpt lat="63.831741333" lon="-19.205366135">
<ele>568.046875</ele>
<time>2012-07-26T10:52:29Z</time>
<speed>0.150000</speed>
<extensions>
<speed>0.2</speed>
<temp>0.00</temp>
<bpm>0</bpm>
<rpm>0.00</rpm>
</extensions>
</trkpt>
<trkpt lat="63.831745148" lon="-19.205362320">
<ele>568.078125</ele>
<time>2012-07-26T10:52:34Z</time>
<speed>0.110000</speed>
<extensions>
<speed>0.1</speed>
<temp>0.00</temp>
<bpm>0</bpm>
<rpm>0.00</rpm>
</extensions>
</trkpt>
<trkpt lat="63.831741333" lon="-19.205371857">
<ele>568.093750</ele>
<time>2012-07-26T10:52:39Z</time>
<speed>0.080000</speed>
<extensions>
<speed>0.1</speed>
<temp>0.00</temp>
<bpm>0</bpm>
<rpm>0.00</rpm>
</extensions>
</trkpt>
<trkpt lat="63.831741333" lon="-19.205368042">
<ele>568.078125</ele>
<time>2012-07-26T10:52:44Z</time>
<speed>0.040000</speed>
<extensions>
<speed>0.0</speed>
<temp>0.00</temp>
<bpm>0</bpm>
<rpm>0.00</rpm>
</extensions>
</trkpt>
<trkpt lat="63.831741333" lon="-19.205369949">
<ele>568.062500</ele>
<time>2012-07-26T10:52:49Z</time>
<speed>0.090000</speed>
<extensions>
<speed>0.1</speed>
<temp>0.00</temp>
<bpm>0</bpm>
<rpm>0.00</rpm>
</extensions>
</trkpt>
<trkpt lat="63.831741333" lon="-19.205366135">
<ele>568.093750</ele>
<time>2012-07-26T10:52:54Z</time>
<speed>0.040000</speed>
<extensions>
<speed>0.0</speed>
<temp>0.00</temp>
<bpm>0</bpm>
<rpm>0.00</rpm>
</extensions>
</trkpt>
<trkpt lat="63.831741333" lon="-19.205366135">
<ele>568.140625</ele>
<time>2012-07-26T10:52:59Z</time>
<speed>0.010000</speed>
<extensions>
<speed>0.0</speed>
<temp>0.00</temp>
<bpm>0</bpm>
<rpm>0.00</rpm>
</extensions>
</trkpt>
<trkpt lat="63.831741333" lon="-19.205362320">
<ele>567.984375</ele>
<time>2012-07-26T10:53:04Z</time>
<speed>0.080000</speed>
<extensions>
<speed>0.1</speed>
<temp>0.00</temp>
<bpm>0</bpm>
<rpm>0.00</rpm>
</extensions>
</trkpt>
<trkpt lat="63.831741333" lon="-19.205358505">
<ele>567.937500</ele>
<time>2012-07-26T10:53:09Z</time>
<speed>0.010000</speed>
<extensions>
<speed>0.0</speed>
<temp>0.00</temp>
<bpm>0</bpm>
<rpm>0.00</rpm>
</extensions>
</trkpt>
<trkpt lat="63.831741333" lon="-19.205364227">
<ele>567.921875</ele>
<time>2012-07-26T10:53:14Z</time>
<speed>0.040000</speed>
<extensions>
<speed>0.0</speed>
<temp>0.00</temp>
<bpm>0</bpm>
<rpm>0.00</rpm>
</extensions>
</trkpt>
<trkpt lat="63.831741333" lon="-19.205368042">
<ele>567.906250</ele>
<time>2012-07-26T10:53:19Z</time>
<speed>0.090000</speed>
<extensions>
<speed>0.1</speed>
<temp>0.00</temp>
<bpm>0</bpm>
<rpm>0.00</rpm>
</extensions>
</trkpt>
<trkpt lat="63.831726074" lon="-19.205316544">
<ele>567.281250</ele>
<time>2012-07-26T10:53:24Z</time>
<speed>0.770000</speed>
<extensions>
<speed>0.8</speed>
<temp>0.00</temp>
<bpm>0</bpm>
<rpm>0.00</rpm>
</extensions>
</trkpt>
<trkpt lat="63.831733704" lon="-19.205297470">
<ele>567.218750</ele>
<time>2012-07-26T10:53:29Z</time>
<speed>0.150000</speed>
<extensions>
<speed>0.2</speed>
<temp>0.00</temp>
<bpm>0</bpm>
<rpm>0.00</rpm>
</extensions>
</trkpt>
<trkpt lat="63.831733704" lon="-19.205291748">
<ele>566.859375</ele>
<time>2012-07-26T10:53:34Z</time>
<speed>0.570000</speed>
<extensions>
<speed>0.6</speed>
<temp>0.00</temp>
<bpm>0</bpm>
<rpm>0.00</rpm>
</extensions>
</trkpt>
<trkpt lat="63.831760406" lon="-19.205230713">
<ele>566.468750</ele>
<time>2012-07-26T10:53:39Z</time>
<speed>0.960000</speed>
<extensions>
<speed>1.0</speed>
<temp>0.00</temp>
<bpm>0</bpm>
<rpm>0.00</rpm>
</extensions>
</trkpt>
<trkpt lat="63.831771851" lon="-19.205200195">
<ele>566.093750</ele>
<time>2012-07-26T10:53:44Z</time>
<speed>0.630000</speed>
<extensions>
<speed>0.6</speed>
<temp>0.00</temp>
<bpm>0</bpm>
<rpm>0.00</rpm>
</extensions>
</trkpt>
<trkpt lat="63.831745148" lon="-19.205272675">
<ele>565.625000</ele>
<time>2012-07-26T10:53:49Z</time>
<speed>0.410000</speed>
<extensions>
<speed>0.4</speed>
<temp>0.00</temp>
<bpm>0</bpm>
<rpm>0.00</rpm>
</extensions>
</trkpt>
<trkpt lat="63.831729889" lon="-19.205278397">
<ele>565.750000</ele>
<time>2012-07-26T10:53:54Z</time>
<speed>0.020000</speed>
<extensions>
<speed>0.0</speed>
<temp>0.00</temp>
<bpm>0</bpm>
<rpm>0.00</rpm>
</extensions>
</trkpt>
<trkpt lat="63.831729889" lon="-19.205280304">
<ele>565.703125</ele>
<time>2012-07-26T10:53:59Z</time>
<speed>0.100000</speed>
<extensions>
<speed>0.1</speed>
<temp>0.00</temp>
<bpm>0</bpm>
<rpm>0.00</rpm>
</extensions>
</trkpt>
<trkpt lat="63.831729889" lon="-19.205284119">
<ele>565.703125</ele>
<time>2012-07-26T10:54:04Z</time>
<speed>0.050000</speed>
<extensions>
<speed>0.1</speed>
<temp>0.00</temp>
<bpm>0</bpm>
<rpm>0.00</rpm>
</extensions>
</trkpt>
<trkpt lat="63.831729889" lon="-19.205291748">
<ele>565.703125</ele>
<time>2012-07-26T10:54:09Z</time>
<speed>0.040000</speed>
<extensions>
<speed>0.0</speed>
<temp>0.00</temp>
<bpm>0</bpm>
<rpm>0.00</rpm>
</extensions>
</trkpt>
<trkpt lat="63.831733704" lon="-19.205265045">
<ele>565.718750</ele>
<time>2012-07-26T10:54:14Z</time>
<speed>1.140000</speed>
<extensions>
<speed>1.1</speed>
<temp>0.00</temp>
<bpm>0</bpm>
<rpm>0.00</rpm>
</extensions>
</trkpt>
<trkpt lat="63.831764221" lon="-19.205169678">
<ele>565.828125</ele>
<time>2012-07-26T10:54:19Z</time>
<speed>0.740000</speed>
<extensions>
<speed>0.7</speed>
<temp>0.00</temp>
<bpm>0</bpm>
<rpm>0.00</rpm>
</extensions>
</trkpt>
<trkpt lat="63.831794739" lon="-19.205097198">
<ele>566.046875</ele>
<time>2012-07-26T10:54:24Z</time>
<speed>1.280000</speed>
<extensions>
<speed>1.3</speed>
<temp>0.00</temp>
<bpm>0</bpm>
<rpm>0.00</rpm>
</extensions>
</trkpt>
<trkpt lat="63.831794739" lon="-19.204980850">
<ele>567.312500</ele>
<time>2012-07-26T10:54:29Z</time>
<speed>1.160000</speed>
<extensions>
<speed>1.2</speed>
<temp>0.00</temp>
<bpm>0</bpm>
<rpm>0.00</rpm>
</extensions>
</trkpt>
<trkpt lat="63.831802368" lon="-19.204835892">
<ele>567.437500</ele>
<time>2012-07-26T10:54:34Z</time>
<speed>1.200000</speed>
<extensions>
<speed>1.2</speed>
<temp>0.00</temp>
<bpm>0</bpm>
<rpm>0.00</rpm>
</extensions>
</trkpt>
<trkpt lat="63.831832886" lon="-19.204751968">
<ele>567.281250</ele>
<time>2012-07-26T10:54:39Z</time>
<speed>0.160000</speed>
<extensions>
<speed>0.2</speed>
<temp>0.00</temp>
<bpm>0</bpm>
<rpm>0.00</rpm>
</extensions>
</trkpt>
<trkpt lat="63.831859589" lon="-19.204648972">
<ele>569.125000</ele>
<time>2012-07-26T10:54:44Z</time>
<speed>0.080000</speed>
<extensions>
<speed>0.1</speed>
<temp>0.00</temp>
<bpm>0</bpm>
<rpm>0.00</rpm>
</extensions>
</trkpt>
<trkpt lat="63.831859589" lon="-19.204641342">
<ele>569.359375</ele>
<time>2012-07-26T10:54:49Z</time>
<speed>0.180000</speed>
<extensions>
<speed>0.2</speed>
<temp>0.00</temp>
<bpm>0</bpm>
<rpm>0.00</rpm>
</extensions>
</trkpt>
<trkpt lat="63.831848145" lon="-19.204633713">
<ele>569.609375</ele>
<time>2012-07-26T10:54:54Z</time>
<speed>0.230000</speed>
<extensions>
<speed>0.2</speed>
<temp>0.00</temp>
<bpm>0</bpm>
<rpm>0.00</rpm>
</extensions>
</trkpt>
<trkpt lat="63.831825256" lon="-19.204626083">
<ele>570.218750</ele>
<time>2012-07-26T10:54:59Z</time>
<speed>0.430000</speed>
<extensions>
<speed>0.4</speed>
<temp>0.00</temp>
<bpm>0</bpm>
<rpm>0.00</rpm>
</extensions>
</trkpt>
<trkpt lat="63.831790924" lon="-19.204587936">
<ele>570.156250</ele>
<time>2012-07-26T10:55:04Z</time>
<speed>0.560000</speed>
<extensions>
<speed>0.6</speed>
<temp>0.00</temp>
<bpm>0</bpm>
<rpm>0.00</rpm>
</extensions>
</trkpt>
<trkpt lat="63.831752777" lon="-19.204553604">
<ele>570.562500</ele>
<time>2012-07-26T10:55:09Z</time>
<speed>0.560000</speed>
<extensions>
<speed>0.6</speed>
<temp>0.00</temp>
<bpm>0</bpm>
<rpm>0.00</rpm>
</extensions>
</trkpt>
<trkpt lat="63.831733704" lon="-19.204545975">
<ele>570.984375</ele>
<time>2012-07-26T10:55:14Z</time>
<speed>0.560000</speed>
<extensions>
<speed>0.6</speed>
<temp>0.00</temp>
<bpm>0</bpm>
<rpm>0.00</rpm>
</extensions>
</trkpt>
<trkpt lat="63.831771851" lon="-19.204601288">
<ele>570.546875</ele>
<time>2012-07-26T10:55:19Z</time>
<speed>0.210000</speed>
<extensions>
<speed>0.2</speed>
<temp>0.00</temp>
<bpm>0</bpm>
<rpm>0.00</rpm>
</extensions>
</trkpt>
<trkpt lat="63.831771851" lon="-19.204605103">
<ele>570.796875</ele>
<time>2012-07-26T10:55:24Z</time>
<speed>0.140000</speed>
<extensions>
<speed>0.1</speed>
<temp>0.00</temp>
<bpm>0</bpm>
<rpm>0.00</rpm>
</extensions>
</trkpt>
<trkpt lat="63.831764221" lon="-19.204607010">
<ele>571.062500</ele>
<time>2012-07-26T10:55:29Z</time>
<speed>0.050000</speed>
<extensions>
<speed>0.1</speed>
<temp>0.00</temp>
<bpm>0</bpm>
<rpm>0.00</rpm>
</extensions>
</trkpt>
<trkpt lat="63.831764221" lon="-19.204608917">
<ele>571.328125</ele>
<time>2012-07-26T10:55:34Z</time>
<speed>0.020000</speed>
<extensions>
<speed>0.0</speed>
<temp>0.00</temp>
<bpm>0</bpm>
<rpm>0.00</rpm>
</extensions>
</trkpt>
<trkpt lat="63.831764221" lon="-19.204610825">
<ele>571.562500</ele>
<time>2012-07-26T10:55:39Z</time>
<speed>0.020000</speed>
<extensions>
<speed>0.0</speed>
<temp>0.00</temp>
<bpm>0</bpm>
<rpm>0.00</rpm>
</extensions>
</trkpt>
<trkpt lat="63.831764221" lon="-19.204607010">
<ele>571.703125</ele>
<time>2012-07-26T10:55:44Z</time>
<speed>0.170000</speed>
<extensions>
<speed>0.2</speed>
<temp>0.00</temp>
<bpm>0</bpm>
<rpm>0.00</rpm>
</extensions>
</trkpt>
<trkpt lat="63.831760406" lon="-19.204601288">
<ele>571.781250</ele>
<time>2012-07-26T10:55:49Z</time>
<speed>0.010000</speed>
<extensions>
<speed>0.0</speed>
<temp>0.00</temp>
<bpm>0</bpm>
<rpm>0.00</rpm>
</extensions>
</trkpt>
<trkpt lat="63.831760406" lon="-19.204603195">
<ele>571.812500</ele>
<time>2012-07-26T10:55:54Z</time>
<speed>0.080000</speed>
<extensions>
<speed>0.1</speed>
<temp>0.00</temp>
<bpm>0</bpm>
<rpm>0.00</rpm>
</extensions>
</trkpt>
<trkpt lat="63.831756592" lon="-19.204605103">
<ele>571.796875</ele>
<time>2012-07-26T10:55:59Z</time>
<speed>0.160000</speed>
<extensions>
<speed>0.2</speed>
<temp>0.00</temp>
<bpm>0</bpm>
<rpm>0.00</rpm>
</extensions>
</trkpt>
<trkpt lat="63.831748962" lon="-19.204608917">
<ele>571.796875</ele>
<time>2012-07-26T10:56:04Z</time>
<speed>0.110000</speed>
<extensions>
<speed>0.1</speed>
<temp>0.00</temp>
<bpm>0</bpm>
<rpm>0.00</rpm>
</extensions>
</trkpt>
<trkpt lat="63.831752777" lon="-19.204660416">
<ele>571.578125</ele>
<time>2012-07-26T10:56:09Z</time>
<speed>1.090000</speed>
<extensions>
<speed>1.1</speed>
<temp>0.00</temp>
<bpm>0</bpm>
<rpm>0.00</rpm>
</extensions>
</trkpt>
<trkpt lat="63.831768036" lon="-19.204814911">
<ele>571.812500</ele>
<time>2012-07-26T10:56:14Z</time>
<speed>1.370000</speed>
<extensions>
<speed>1.4</speed>
<temp>0.00</temp>
<bpm>0</bpm>
<rpm>0.00</rpm>
</extensions>
</trkpt>
<trkpt lat="63.831741333" lon="-19.204952240">
<ele>571.234375</ele>
<time>2012-07-26T10:56:19Z</time>
<speed>1.170000</speed>
<extensions>
<speed>1.2</speed>
<temp>0.00</temp>
<bpm>0</bpm>
<rpm>0.00</rpm>
</extensions>
</trkpt>
<trkpt lat="63.831703186" lon="-19.205053329">
<ele>572.156250</ele>
<time>2012-07-26T10:56:24Z</time>
<speed>1.280000</speed>
<extensions>
<speed>1.3</speed>
<temp>0.00</temp>
<bpm>0</bpm>
<rpm>0.00</rpm>
</extensions>
</trkpt>
<trkpt lat="63.831680298" lon="-19.205183029">
<ele>571.156250</ele>
<time>2012-07-26T10:56:29Z</time>
<speed>1.540000</speed>
<extensions>
<speed>1.5</speed>
<temp>0.00</temp>
<bpm>0</bpm>
<rpm>0.00</rpm>
</extensions>
</trkpt>
<trkpt lat="63.831714630" lon="-19.205291748">
<ele>570.828125</ele>
<time>2012-07-26T10:56:34Z</time>
<speed>0.970000</speed>
<extensions>
<speed>1.0</speed>
<temp>0.00</temp>
<bpm>0</bpm>
<rpm>0.00</rpm>
</extensions>
</trkpt>
<trkpt lat="63.831741333" lon="-19.205289841">
<ele>570.953125</ele>
<time>2012-07-26T10:56:39Z</time>
<speed>0.190000</speed>
<extensions>
<speed>0.2</speed>
<temp>0.00</temp>
<bpm>0</bpm>
<rpm>0.00</rpm>
</extensions>
</trkpt>
<trkpt lat="63.831745148" lon="-19.205293655">
<ele>571.453125</ele>
<time>2012-07-26T10:56:44Z</time>
<speed>0.050000</speed>
<extensions>
<speed>0.1</speed>
<temp>0.00</temp>
<bpm>0</bpm>
<rpm>0.00</rpm>
</extensions>
</trkpt>
<trkpt lat="63.831745148" lon="-19.205293655">
<ele>571.906250</ele>
<time>2012-07-26T10:56:49Z</time>
<speed>0.040000</speed>
<extensions>
<speed>0.0</speed>
<temp>0.00</temp>
<bpm>0</bpm>
<rpm>0.00</rpm>
</extensions>
</trkpt>
<trkpt lat="63.831745148" lon="-19.205293655">
<ele>572.312500</ele>
<time>2012-07-26T10:56:54Z</time>
<speed>0.050000</speed>
<extensions>
<speed>0.1</speed>
<temp>0.00</temp>
<bpm>0</bpm>
<rpm>0.00</rpm>
</extensions>
</trkpt>
<trkpt lat="63.831748962" lon="-19.205295563">
<ele>572.765625</ele>
<time>2012-07-26T10:56:59Z</time>
<speed>0.150000</speed>
<extensions>
<speed>0.2</speed>
<temp>0.00</temp>
<bpm>0</bpm>
<rpm>0.00</rpm>
</extensions>
</trkpt>
<trkpt lat="63.831752777" lon="-19.205293655">
<ele>573.265625</ele>
<time>2012-07-26T10:57:04Z</time>
<speed>0.040000</speed>
<extensions>
<speed>0.0</speed>
<temp>0.00</temp>
<bpm>0</bpm>
<rpm>0.00</rpm>
</extensions>
</trkpt>
<trkpt lat="63.831752777" lon="-19.205295563">
<ele>573.750000</ele>
<time>2012-07-26T10:57:09Z</time>
<speed>0.050000</speed>
<extensions>
<speed>0.1</speed>
<temp>0.00</temp>
<bpm>0</bpm>
<rpm>0.00</rpm>
</extensions>
</trkpt>
<trkpt lat="63.831748962" lon="-19.205297470">
<ele>574.203125</ele>
<time>2012-07-26T10:57:14Z</time>
<speed>0.100000</speed>
<extensions>
<speed>0.1</speed>
<temp>0.00</temp>
<bpm>0</bpm>
<rpm>0.00</rpm>
</extensions>
</trkpt>
<trkpt lat="63.831748962" lon="-19.205293655">
<ele>574.625000</ele>
<time>2012-07-26T10:57:19Z</time>
<speed>0.070000</speed>
<extensions>
<speed>0.1</speed>
<temp>0.00</temp>
<bpm>0</bpm>
<rpm>0.00</rpm>
</extensions>
</trkpt>
<trkpt lat="63.831748962" lon="-19.205301285">
<ele>575.062500</ele>
<time>2012-07-26T10:57:24Z</time>
<speed>0.050000</speed>
<extensions>
<speed>0.1</speed>
<temp>0.00</temp>
<bpm>0</bpm>
<rpm>0.00</rpm>
</extensions>
</trkpt>
<trkpt lat="63.831752777" lon="-19.205301285">
<ele>575.359375</ele>
<time>2012-07-26T10:57:29Z</time>
<speed>0.120000</speed>
<extensions>
<speed>0.1</speed>
<temp>0.00</temp>
<bpm>0</bpm>
<rpm>0.00</rpm>
</extensions>
</trkpt>
<trkpt lat="63.831752777" lon="-19.205301285">
<ele>575.546875</ele>
<time>2012-07-26T10:57:34Z</time>
<speed>0.250000</speed>
<extensions>
<speed>0.2</speed>
<temp>0.00</temp>
<bpm>0</bpm>
<rpm>0.00</rpm>
</extensions>
</trkpt>
<trkpt lat="63.831752777" lon="-19.205312729">
<ele>575.531250</ele>
<time>2012-07-26T10:57:39Z</time>
<speed>0.170000</speed>
<extensions>
<speed>0.2</speed>
<temp>0.00</temp>
<bpm>0</bpm>
<rpm>0.00</rpm>
</extensions>
</trkpt>
<trkpt lat="63.831752777" lon="-19.205326080">
<ele>575.500000</ele>
<time>2012-07-26T10:57:44Z</time>
<speed>0.050000</speed>
<extensions>
<speed>0.1</speed>
<temp>0.00</temp>
<bpm>0</bpm>
<rpm>0.00</rpm>
</extensions>
</trkpt>
<trkpt lat="63.831748962" lon="-19.205337524">
<ele>575.468750</ele>
<time>2012-07-26T10:57:49Z</time>
<speed>0.070000</speed>
<extensions>
<speed>0.1</speed>
<temp>0.00</temp>
<bpm>0</bpm>
<rpm>0.00</rpm>
</extensions>
</trkpt>
<trkpt lat="63.831752777" lon="-19.205352783">
<ele>575.484375</ele>
<time>2012-07-26T10:57:54Z</time>
<speed>0.160000</speed>
<extensions>
<speed>0.2</speed>
<temp>0.00</temp>
<bpm>0</bpm>
<rpm>0.00</rpm>
</extensions>
</trkpt>
<trkpt lat="63.831752777" lon="-19.205364227">
<ele>575.421875</ele>
<time>2012-07-26T10:57:59Z</time>
<speed>0.130000</speed>
<extensions>
<speed>0.1</speed>
<temp>0.00</temp>
<bpm>0</bpm>
<rpm>0.00</rpm>
</extensions>
</trkpt>
<trkpt lat="63.831752777" lon="-19.205379486">
<ele>575.421875</ele>
<time>2012-07-26T10:58:04Z</time>
<speed>0.130000</speed>
<extensions>
<speed>0.1</speed>
<temp>0.00</temp>
<bpm>0</bpm>
<rpm>0.00</rpm>
</extensions>
</trkpt>
<trkpt lat="63.831752777" lon="-19.205390930">
<ele>575.421875</ele>
<time>2012-07-26T10:58:09Z</time>
<speed>0.240000</speed>
<extensions>
<speed>0.2</speed>
<temp>0.00</temp>
<bpm>0</bpm>
<rpm>0.00</rpm>
</extensions>
</trkpt>
<trkpt lat="63.831748962" lon="-19.205392838">
<ele>575.343750</ele>
<time>2012-07-26T10:58:14Z</time>
<speed>0.170000</speed>
<extensions>
<speed>0.2</speed>
<temp>0.00</temp>
<bpm>0</bpm>
<rpm>0.00</rpm>
</extensions>
</trkpt>
<trkpt lat="63.831745148" lon="-19.205394745">
<ele>575.250000</ele>
<time>2012-07-26T10:58:19Z</time>
<speed>0.120000</speed>
<extensions>
<speed>0.1</speed>
<temp>0.00</temp>
<bpm>0</bpm>
<rpm>0.00</rpm>
</extensions>
</trkpt>
<trkpt lat="63.831737518" lon="-19.205390930">
<ele>575.171875</ele>
<time>2012-07-26T10:58:24Z</time>
<speed>0.190000</speed>
<extensions>
<speed>0.2</speed>
<temp>0.00</temp>
<bpm>0</bpm>
<rpm>0.00</rpm>
</extensions>
</trkpt>
<trkpt lat="63.831737518" lon="-19.205389023">
<ele>575.093750</ele>
<time>2012-07-26T10:58:29Z</time>
<speed>0.150000</speed>
<extensions>
<speed>0.2</speed>
<temp>0.00</temp>
<bpm>0</bpm>
<rpm>0.00</rpm>
</extensions>
</trkpt>
<trkpt lat="63.831741333" lon="-19.205377579">
<ele>575.015625</ele>
<time>2012-07-26T10:58:34Z</time>
<speed>0.190000</speed>
<extensions>
<speed>0.2</speed>
<temp>0.00</temp>
<bpm>0</bpm>
<rpm>0.00</rpm>
</extensions>
</trkpt>
<trkpt lat="63.831756592" lon="-19.205451965">
<ele>574.953125</ele>
<time>2012-07-26T10:58:39Z</time>
<speed>0.380000</speed>
<extensions>
<speed>0.4</speed>
<temp>0.00</temp>
<bpm>0</bpm>
<rpm>0.00</rpm>
</extensions>
</trkpt>
<trkpt lat="63.831760406" lon="-19.205434799">
<ele>574.781250</ele>
<time>2012-07-26T10:58:44Z</time>
<speed>0.250000</speed>
<extensions>
<speed>0.2</speed>
<temp>0.00</temp>
<bpm>0</bpm>
<rpm>0.00</rpm>
</extensions>
</trkpt>
<trkpt lat="63.831771851" lon="-19.205434799">
<ele>574.546875</ele>
<time>2012-07-26T10:58:49Z</time>
<speed>0.160000</speed>
<extensions>
<speed>0.2</speed>
<temp>0.00</temp>
<bpm>0</bpm>
<rpm>0.00</rpm>
</extensions>
</trkpt>
<trkpt lat="63.831779480" lon="-19.205429077">
<ele>574.406250</ele>
<time>2012-07-26T10:58:54Z</time>
<speed>0.120000</speed>
<extensions>
<speed>0.1</speed>
<temp>0.00</temp>
<bpm>0</bpm>
<rpm>0.00</rpm>
</extensions>
</trkpt>
<trkpt lat="63.831783295" lon="-19.205425262">
<ele>574.250000</ele>
<time>2012-07-26T10:58:59Z</time>
<speed>0.070000</speed>
<extensions>
<speed>0.1</speed>
<temp>0.00</temp>
<bpm>0</bpm>
<rpm>0.00</rpm>
</extensions>
</trkpt>
<trkpt lat="63.831790924" lon="-19.205425262">
<ele>574.031250</ele>
<time>2012-07-26T10:59:04Z</time>
<speed>0.130000</speed>
<extensions>
<speed>0.1</speed>
<temp>0.00</temp>
<bpm>0</bpm>
<rpm>0.00</rpm>
</extensions>
</trkpt>
<trkpt lat="63.831790924" lon="-19.205421448">
<ele>573.796875</ele>
<time>2012-07-26T10:59:09Z</time>
<speed>0.140000</speed>
<extensions>
<speed>0.1</speed>
<temp>0.00</temp>
<bpm>0</bpm>
<rpm>0.00</rpm>
</extensions>
</trkpt>
<trkpt lat="63.831779480" lon="-19.205419540">
<ele>573.515625</ele>
<time>2012-07-26T10:59:14Z</time>
<speed>0.190000</speed>
<extensions>
<speed>0.2</speed>
<temp>0.00</temp>
<bpm>0</bpm>
<rpm>0.00</rpm>
</extensions>
</trkpt>
<trkpt lat="63.831775665" lon="-19.205429077">
<ele>573.218750</ele>
<time>2012-07-26T10:59:19Z</time>
<speed>0.150000</speed>
<extensions>
<speed>0.2</speed>
<temp>0.00</temp>
<bpm>0</bpm>
<rpm>0.00</rpm>
</extensions>
</trkpt>
<trkpt lat="63.831771851" lon="-19.205438614">
<ele>572.859375</ele>
<time>2012-07-26T10:59:24Z</time>
<speed>0.040000</speed>
<extensions>
<speed>0.0</speed>
<temp>0.00</temp>
<bpm>0</bpm>
<rpm>0.00</rpm>
</extensions>
</trkpt>
<trkpt lat="63.831775665" lon="-19.205440521">
<ele>572.484375</ele>
<time>2012-07-26T10:59:29Z</time>
<speed>0.170000</speed>
<extensions>
<speed>0.2</speed>
<temp>0.00</temp>
<bpm>0</bpm>
<rpm>0.00</rpm>
</extensions>
</trkpt>
<trkpt lat="63.831764221" lon="-19.205438614">
<ele>572.171875</ele>
<time>2012-07-26T10:59:34Z</time>
<speed>0.410000</speed>
<extensions>
<speed>0.4</speed>
<temp>0.00</temp>
<bpm>0</bpm>
<rpm>0.00</rpm>
</extensions>
</trkpt>
<trkpt lat="63.831748962" lon="-19.205450058">
<ele>570.281250</ele>
<time>2012-07-26T10:59:39Z</time>
<speed>0.480000</speed>
<extensions>
<speed>0.5</speed>
<temp>0.00</temp>
<bpm>0</bpm>
<rpm>0.00</rpm>
</extensions>
</trkpt>
<trkpt lat="63.831745148" lon="-19.205434799">
<ele>569.968750</ele>
<time>2012-07-26T10:59:44Z</time>
<speed>0.040000</speed>
<extensions>
<speed>0.0</speed>
<temp>0.00</temp>
<bpm>0</bpm>
<rpm>0.00</rpm>
</extensions>
</trkpt>
<trkpt lat="63.831745148" lon="-19.205425262">
<ele>569.703125</ele>
<time>2012-07-26T10:59:49Z</time>
<speed>0.620000</speed>
<extensions>
<speed>0.6</speed>
<temp>0.00</temp>
<bpm>0</bpm>
<rpm>0.00</rpm>
</extensions>
</trkpt>
<trkpt lat="63.831745148" lon="-19.205434799">
<ele>569.468750</ele>
<time>2012-07-26T10:59:54Z</time>
<speed>0.090000</speed>
<extensions>
<speed>0.1</speed>
<temp>0.00</temp>
<bpm>0</bpm>
<rpm>0.00</rpm>
</extensions>
</trkpt>
<trkpt lat="63.831729889" lon="-19.205459595">
<ele>567.375000</ele>
<time>2012-07-26T10:59:59Z</time>
<speed>0.570000</speed>
<extensions>
<speed>0.6</speed>
<temp>0.00</temp>
<bpm>0</bpm>
<rpm>0.00</rpm>
</extensions>
</trkpt>
<trkpt lat="63.831722260" lon="-19.205474854">
<ele>565.531250</ele>
<time>2012-07-26T11:00:04Z</time>
<speed>0.450000</speed>
<extensions>
<speed>0.5</speed>
<temp>0.00</temp>
<bpm>0</bpm>
<rpm>0.00</rpm>
</extensions>
</trkpt>
<trkpt lat="63.831722260" lon="-19.205543518">
<ele>566.125000</ele>
<time>2012-07-26T11:00:09Z</time>
<speed>0.600000</speed>
<extensions>
<speed>0.6</speed>
<temp>0.00</temp>
<bpm>0</bpm>
<rpm>0.00</rpm>
</extensions>
</trkpt>
<trkpt lat="63.831695557" lon="-19.205566406">
<ele>565.578125</ele>
<time>2012-07-26T11:00:14Z</time>
<speed>0.220000</speed>
<extensions>
<speed>0.2</speed>
<temp>0.00</temp>
<bpm>0</bpm>
<rpm>0.00</rpm>
</extensions>
</trkpt>
<trkpt lat="63.831687927" lon="-19.205572128">
<ele>565.562500</ele>
<time>2012-07-26T11:00:19Z</time>
<speed>0.370000</speed>
<extensions>
<speed>0.4</speed>
<temp>0.00</temp>
<bpm>0</bpm>
<rpm>0.00</rpm>
</extensions>
</trkpt>
<trkpt lat="63.831619263" lon="-19.205648422">
<ele>565.296875</ele>
<time>2012-07-26T11:00:24Z</time>
<speed>2.020000</speed>
<extensions>
<speed>2.0</speed>
<temp>0.00</temp>
<bpm>0</bpm>
<rpm>0.00</rpm>
</extensions>
</trkpt>
<trkpt lat="63.831516266" lon="-19.205709457">
<ele>565.765625</ele>
<time>2012-07-26T11:00:29Z</time>
<speed>2.330000</speed>
<extensions>
<speed>2.3</speed>
<temp>0.00</temp>
<bpm>0</bpm>
<rpm>0.00</rpm>
</extensions>
</trkpt>
<trkpt lat="63.831432343" lon="-19.205827713">
<ele>566.234375</ele>
<time>2012-07-26T11:00:34Z</time>
<speed>1.810000</speed>
<extensions>
<speed>1.8</speed>
<temp>0.00</temp>
<bpm>0</bpm>
<rpm>0.00</rpm>
</extensions>
</trkpt>
<trkpt lat="63.831340790" lon="-19.205902100">
<ele>567.906250</ele>
<time>2012-07-26T11:00:39Z</time>
<speed>2.080000</speed>
<extensions>
<speed>2.1</speed>
<temp>0.00</temp>
<bpm>0</bpm>
<rpm>0.00</rpm>
</extensions>
</trkpt>
<trkpt lat="63.831283569" lon="-19.206069946">
<ele>566.828125</ele>
<time>2012-07-26T11:00:44Z</time>
<speed>1.930000</speed>
<extensions>
<speed>1.9</speed>
<temp>0.00</temp>
<bpm>0</bpm>
<rpm>0.00</rpm>
</extensions>
</trkpt>
<trkpt lat="63.831207275" lon="-19.206193924">
<ele>567.328125</ele>
<time>2012-07-26T11:00:49Z</time>
<speed>1.540000</speed>
<extensions>
<speed>1.5</speed>
<temp>0.00</temp>
<bpm>0</bpm>
<rpm>0.00</rpm>
</extensions>
</trkpt>
<trkpt lat="63.831203461" lon="-19.206182480">
<ele>567.343750</ele>
<time>2012-07-26T11:00:54Z</time>
<speed>0.150000</speed>
<extensions>
<speed>0.2</speed>
<temp>0.00</temp>
<bpm>0</bpm>
<rpm>0.00</rpm>
</extensions>
</trkpt>
<trkpt lat="63.831180573" lon="-19.206220627">
<ele>567.468750</ele>
<time>2012-07-26T11:00:59Z</time>
<speed>0.470000</speed>
<extensions>
<speed>0.5</speed>
<temp>0.00</temp>
<bpm>0</bpm>
<rpm>0.00</rpm>
</extensions>
</trkpt>
<trkpt lat="63.831161499" lon="-19.206256866">
<ele>567.593750</ele>
<time>2012-07-26T11:01:04Z</time>
<speed>0.710000</speed>
<extensions>
<speed>0.7</speed>
<temp>0.00</temp>
<bpm>0</bpm>
<rpm>0.00</rpm>
</extensions>
</trkpt>
<trkpt lat="63.831115723" lon="-19.206214905">
<ele>567.250000</ele>
<time>2012-07-26T11:01:09Z</time>
<speed>1.410000</speed>
<extensions>
<speed>1.4</speed>
<temp>0.00</temp>
<bpm>0</bpm>
<rpm>0.00</rpm>
</extensions>
</trkpt>
<trkpt lat="63.831062317" lon="-19.206226349">
<ele>566.765625</ele>
<time>2012-07-26T11:01:14Z</time>
<speed>1.130000</speed>
<extensions>
<speed>1.1</speed>
<temp>0.00</temp>
<bpm>0</bpm>
<rpm>0.00</rpm>
</extensions>
</trkpt>
<trkpt lat="63.831024170" lon="-19.206203461">
<ele>567.359375</ele>
<time>2012-07-26T11:01:19Z</time>
<speed>0.380000</speed>
<extensions>
<speed>0.4</speed>
<temp>0.00</temp>
<bpm>0</bpm>
<rpm>0.00</rpm>
</extensions>
</trkpt>
<trkpt lat="63.830997467" lon="-19.206172943">
<ele>567.171875</ele>
<time>2012-07-26T11:01:24Z</time>
<speed>0.730000</speed>
<extensions>
<speed>0.7</speed>
<temp>0.00</temp>
<bpm>0</bpm>
<rpm>0.00</rpm>
</extensions>
</trkpt>
<trkpt lat="63.830951691" lon="-19.206186295">
<ele>567.515625</ele>
<time>2012-07-26T11:01:29Z</time>
<speed>0.890000</speed>
<extensions>
<speed>0.9</speed>
<temp>0.00</temp>
<bpm>0</bpm>
<rpm>0.00</rpm>
</extensions>
</trkpt>
<trkpt lat="63.830936432" lon="-19.206172943">
<ele>567.687500</ele>
<time>2012-07-26T11:01:34Z</time>
<speed>0.710000</speed>
<extensions>
<speed>0.7</speed>
<temp>0.00</temp>
<bpm>0</bpm>
<rpm>0.00</rpm>
</extensions>
</trkpt>
<trkpt lat="63.830921173" lon="-19.206201553">
<ele>568.937500</ele>
<time>2012-07-26T11:01:39Z</time>
<speed>0.170000</speed>
<extensions>
<speed>0.2</speed>
<temp>0.00</temp>
<bpm>0</bpm>
<rpm>0.00</rpm>
</extensions>
</trkpt>
<trkpt lat="63.830913544" lon="-19.206211090">
<ele>569.093750</ele>
<time>2012-07-26T11:01:44Z</time>
<speed>0.060000</speed>
<extensions>
<speed>0.1</speed>
<temp>0.00</temp>
<bpm>0</bpm>
<rpm>0.00</rpm>
</extensions>
</trkpt>
<trkpt lat="63.830913544" lon="-19.206212997">
<ele>569.109375</ele>
<time>2012-07-26T11:01:49Z</time>
<speed>0.060000</speed>
<extensions>
<speed>0.1</speed>
<temp>0.00</temp>
<bpm>0</bpm>
<rpm>0.00</rpm>
</extensions>
</trkpt>
<trkpt lat="63.830913544" lon="-19.206214905">
<ele>569.093750</ele>
<time>2012-07-26T11:01:54Z</time>
<speed>0.020000</speed>
<extensions>
<speed>0.0</speed>
<temp>0.00</temp>
<bpm>0</bpm>
<rpm>0.00</rpm>
</extensions>
</trkpt>
<trkpt lat="63.830913544" lon="-19.206214905">
<ele>569.109375</ele>
<time>2012-07-26T11:01:59Z</time>
<speed>0.020000</speed>
<extensions>
<speed>0.0</speed>
<temp>0.00</temp>
<bpm>0</bpm>
<rpm>0.00</rpm>
</extensions>
</trkpt>
<trkpt lat="63.830913544" lon="-19.206216812">
<ele>569.093750</ele>
<time>2012-07-26T11:02:04Z</time>
<speed>0.030000</speed>
<extensions>
<speed>0.0</speed>
<temp>0.00</temp>
<bpm>0</bpm>
<rpm>0.00</rpm>
</extensions>
</trkpt>
<trkpt lat="63.830913544" lon="-19.206216812">
<ele>569.093750</ele>
<time>2012-07-26T11:02:09Z</time>
<speed>0.140000</speed>
<extensions>
<speed>0.1</speed>
<temp>0.00</temp>
<bpm>0</bpm>
<rpm>0.00</rpm>
</extensions>
</trkpt>
<trkpt lat="63.830860138" lon="-19.206243515">
<ele>569.203125</ele>
<time>2012-07-26T11:02:14Z</time>
<speed>1.900000</speed>
<extensions>
<speed>1.9</speed>
<temp>0.00</temp>
<bpm>0</bpm>
<rpm>0.00</rpm>
</extensions>
</trkpt>
<trkpt lat="63.830772400" lon="-19.206296921">
<ele>568.890625</ele>
<time>2012-07-26T11:02:19Z</time>
<speed>1.830000</speed>
<extensions>
<speed>1.8</speed>
<temp>0.00</temp>
<bpm>0</bpm>
<rpm>0.00</rpm>
</extensions>
</trkpt>
<trkpt lat="63.830665588" lon="-19.206398010">
<ele>567.875000</ele>
<time>2012-07-26T11:02:24Z</time>
<speed>2.550000</speed>
<extensions>
<speed>2.6</speed>
<temp>0.00</temp>
<bpm>0</bpm>
<rpm>0.00</rpm>
</extensions>
</trkpt>
<trkpt lat="63.830566406" lon="-19.206541061">
<ele>567.796875</ele>
<time>2012-07-26T11:02:29Z</time>
<speed>2.440000</speed>
<extensions>
<speed>2.4</speed>
<temp>0.00</temp>
<bpm>0</bpm>
<rpm>0.00</rpm>
</extensions>
</trkpt>
<trkpt lat="63.830471039" lon="-19.206678391">
<ele>567.546875</ele>
<time>2012-07-26T11:02:34Z</time>
<speed>2.410000</speed>
<extensions>
<speed>2.4</speed>
<temp>0.00</temp>
<bpm>0</bpm>
<rpm>0.00</rpm>
</extensions>
</trkpt>
<trkpt lat="63.830371857" lon="-19.206766129">
<ele>570.015625</ele>
<time>2012-07-26T11:02:39Z</time>
<speed>2.260000</speed>
<extensions>
<speed>2.3</speed>
<temp>0.00</temp>
<bpm>0</bpm>
<rpm>0.00</rpm>
</extensions>
</trkpt>
<trkpt lat="63.830249786" lon="-19.206823349">
<ele>569.656250</ele>
<time>2012-07-26T11:02:44Z</time>
<speed>2.770000</speed>
<extensions>
<speed>2.8</speed>
<temp>0.00</temp>
<bpm>0</bpm>
<rpm>0.00</rpm>
</extensions>
</trkpt>
<trkpt lat="63.830120087" lon="-19.206844330">
<ele>567.578125</ele>
<time>2012-07-26T11:02:49Z</time>
<speed>3.300000</speed>
<extensions>
<speed>3.3</speed>
<temp>0.00</temp>
<bpm>0</bpm>
<rpm>0.00</rpm>
</extensions>
</trkpt>
<trkpt lat="63.829967499" lon="-19.206766129">
<ele>564.734375</ele>
<time>2012-07-26T11:02:54Z</time>
<speed>3.410000</speed>
<extensions>
<speed>3.4</speed>
<temp>0.00</temp>
<bpm>0</bpm>
<rpm>0.00</rpm>
</extensions>
</trkpt>
<trkpt lat="63.829803467" lon="-19.206800461">
<ele>563.000000</ele>
<time>2012-07-26T11:02:59Z</time>
<speed>3.760000</speed>
<extensions>
<speed>3.8</speed>
<temp>0.00</temp>
<bpm>0</bpm>
<rpm>0.00</rpm>
</extensions>
</trkpt>
<trkpt lat="63.829631805" lon="-19.206857681">
<ele>562.734375</ele>
<time>2012-07-26T11:03:04Z</time>
<speed>3.570000</speed>
<extensions>
<speed>3.6</speed>
<temp>0.00</temp>
<bpm>0</bpm>
<rpm>0.00</rpm>
</extensions>
</trkpt>
<trkpt lat="63.829498291" lon="-19.206953049">
<ele>563.421875</ele>
<time>2012-07-26T11:03:09Z</time>
<speed>1.420000</speed>
<extensions>
<speed>1.4</speed>
<temp>0.00</temp>
<bpm>0</bpm>
<rpm>0.00</rpm>
</extensions>
</trkpt>
<trkpt lat="63.829483032" lon="-19.206943512">
<ele>563.015625</ele>
<time>2012-07-26T11:03:14Z</time>
<speed>0.730000</speed>
<extensions>
<speed>0.7</speed>
<temp>0.00</temp>
<bpm>0</bpm>
<rpm>0.00</rpm>
</extensions>
</trkpt>
<trkpt lat="63.829448700" lon="-19.206970215">
<ele>563.796875</ele>
<time>2012-07-26T11:03:19Z</time>
<speed>0.960000</speed>
<extensions>
<speed>1.0</speed>
<temp>0.00</temp>
<bpm>0</bpm>
<rpm>0.00</rpm>
</extensions>
</trkpt>
<trkpt lat="63.829410553" lon="-19.207036972">
<ele>564.734375</ele>
<time>2012-07-26T11:03:24Z</time>
<speed>0.440000</speed>
<extensions>
<speed>0.4</speed>
<temp>0.00</temp>
<bpm>0</bpm>
<rpm>0.00</rpm>
</extensions>
</trkpt>
<trkpt lat="63.829364777" lon="-19.207077026">
<ele>564.296875</ele>
<time>2012-07-26T11:03:29Z</time>
<speed>0.930000</speed>
<extensions>
<speed>0.9</speed>
<temp>0.00</temp>
<bpm>0</bpm>
<rpm>0.00</rpm>
</extensions>
</trkpt>
<trkpt lat="63.829322815" lon="-19.207092285">
<ele>564.421875</ele>
<time>2012-07-26T11:03:34Z</time>
<speed>0.330000</speed>
<extensions>
<speed>0.3</speed>
<temp>0.00</temp>
<bpm>0</bpm>
<rpm>0.00</rpm>
</extensions>
</trkpt>
<trkpt lat="63.829292297" lon="-19.207086563">
<ele>564.640625</ele>
<time>2012-07-26T11:03:39Z</time>
<speed>1.110000</speed>
<extensions>
<speed>1.1</speed>
<temp>0.00</temp>
<bpm>0</bpm>
<rpm>0.00</rpm>
</extensions>
</trkpt>
<trkpt lat="63.829212189" lon="-19.207124710">
<ele>564.734375</ele>
<time>2012-07-26T11:03:44Z</time>
<speed>2.470000</speed>
<extensions>
<speed>2.5</speed>
<temp>0.00</temp>
<bpm>0</bpm>
<rpm>0.00</rpm>
</extensions>
</trkpt>
<trkpt lat="63.829093933" lon="-19.207191467">
<ele>564.781250</ele>
<time>2012-07-26T11:03:49Z</time>
<speed>3.260000</speed>
<extensions>
<speed>3.3</speed>
<temp>0.00</temp>
<bpm>0</bpm>
<rpm>0.00</rpm>
</extensions>
</trkpt>
<trkpt lat="63.828952789" lon="-19.207307816">
<ele>562.515625</ele>
<time>2012-07-26T11:03:54Z</time>
<speed>2.980000</speed>
<extensions>
<speed>3.0</speed>
<temp>0.00</temp>
<bpm>0</bpm>
<rpm>0.00</rpm>
</extensions>
</trkpt>
<trkpt lat="63.828842163" lon="-19.207366943">
<ele>561.828125</ele>
<time>2012-07-26T11:03:59Z</time>
<speed>1.990000</speed>
<extensions>
<speed>2.0</speed>
<temp>0.00</temp>
<bpm>0</bpm>
<rpm>0.00</rpm>
</extensions>
</trkpt>
<trkpt lat="63.828792572" lon="-19.207399368">
<ele>562.375000</ele>
<time>2012-07-26T11:04:04Z</time>
<speed>1.400000</speed>
<extensions>
<speed>1.4</speed>
<temp>0.00</temp>
<bpm>0</bpm>
<rpm>0.00</rpm>
</extensions>
</trkpt>
<trkpt lat="63.828704834" lon="-19.207458496">
<ele>561.921875</ele>
<time>2012-07-26T11:04:09Z</time>
<speed>2.660000</speed>
<extensions>
<speed>2.7</speed>
<temp>0.00</temp>
<bpm>0</bpm>
<rpm>0.00</rpm>
</extensions>
</trkpt>
<trkpt lat="63.828620911" lon="-19.207513809">
<ele>561.296875</ele>
<time>2012-07-26T11:04:14Z</time>
<speed>1.680000</speed>
<extensions>
<speed>1.7</speed>
<temp>0.00</temp>
<bpm>0</bpm>
<rpm>0.00</rpm>
</extensions>
</trkpt>
<trkpt lat="63.828590393" lon="-19.207559586">
<ele>558.671875</ele>
<time>2012-07-26T11:04:19Z</time>
<speed>0.090000</speed>
<extensions>
<speed>0.1</speed>
<temp>0.00</temp>
<bpm>0</bpm>
<rpm>0.00</rpm>
</extensions>
</trkpt>
<trkpt lat="63.828567505" lon="-19.207584381">
<ele>558.546875</ele>
<time>2012-07-26T11:04:24Z</time>
<speed>0.120000</speed>
<extensions>
<speed>0.1</speed>
<temp>0.00</temp>
<bpm>0</bpm>
<rpm>0.00</rpm>
</extensions>
</trkpt>
<trkpt lat="63.828567505" lon="-19.207588196">
<ele>558.562500</ele>
<time>2012-07-26T11:04:29Z</time>
<speed>0.080000</speed>
<extensions>
<speed>0.1</speed>
<temp>0.00</temp>
<bpm>0</bpm>
<rpm>0.00</rpm>
</extensions>
</trkpt>
<trkpt lat="63.828567505" lon="-19.207590103">
<ele>558.593750</ele>
<time>2012-07-26T11:04:34Z</time>
<speed>0.190000</speed>
<extensions>
<speed>0.2</speed>
<temp>0.00</temp>
<bpm>0</bpm>
<rpm>0.00</rpm>
</extensions>
</trkpt>
<trkpt lat="63.828571320" lon="-19.207555771">
<ele>558.640625</ele>
<time>2012-07-26T11:04:39Z</time>
<speed>0.480000</speed>
<extensions>
<speed>0.5</speed>
<temp>0.00</temp>
<bpm>0</bpm>
<rpm>0.00</rpm>
</extensions>
</trkpt>
<trkpt lat="63.828594208" lon="-19.207477570">
<ele>558.328125</ele>
<time>2012-07-26T11:04:44Z</time>
<speed>1.040000</speed>
<extensions>
<speed>1.0</speed>
<temp>0.00</temp>
<bpm>0</bpm>
<rpm>0.00</rpm>
</extensions>
</trkpt>
<trkpt lat="63.828590393" lon="-19.207424164">
<ele>558.015625</ele>
<time>2012-07-26T11:04:49Z</time>
<speed>0.080000</speed>
<extensions>
<speed>0.1</speed>
<temp>0.00</temp>
<bpm>0</bpm>
<rpm>0.00</rpm>
</extensions>
</trkpt>
<trkpt lat="63.828590393" lon="-19.207412720">
<ele>556.890625</ele>
<time>2012-07-26T11:04:54Z</time>
<speed>0.220000</speed>
<extensions>
<speed>0.2</speed>
<temp>0.00</temp>
<bpm>0</bpm>
<rpm>0.00</rpm>
</extensions>
</trkpt>
<trkpt lat="63.828598022" lon="-19.207397461">
<ele>556.671875</ele>
<time>2012-07-26T11:04:59Z</time>
<speed>0.770000</speed>
<extensions>
<speed>0.8</speed>
<temp>0.00</temp>
<bpm>0</bpm>
<rpm>0.00</rpm>
</extensions>
</trkpt>
<trkpt lat="63.828590393" lon="-19.207435608">
<ele>556.437500</ele>
<time>2012-07-26T11:05:04Z</time>
<speed>0.160000</speed>
<extensions>
<speed>0.2</speed>
<temp>0.00</temp>
<bpm>0</bpm>
<rpm>0.00</rpm>
</extensions>
</trkpt>
<trkpt lat="63.828598022" lon="-19.207452774">
<ele>556.468750</ele>
<time>2012-07-26T11:05:09Z</time>
<speed>0.180000</speed>
<extensions>
<speed>0.2</speed>
<temp>0.00</temp>
<bpm>0</bpm>
<rpm>0.00</rpm>
</extensions>
</trkpt>
<trkpt lat="63.828605652" lon="-19.207460403">
<ele>556.453125</ele>
<time>2012-07-26T11:05:14Z</time>
<speed>0.080000</speed>
<extensions>
<speed>0.1</speed>
<temp>0.00</temp>
<bpm>0</bpm>
<rpm>0.00</rpm>
</extensions>
</trkpt>
<trkpt lat="63.828605652" lon="-19.207458496">
<ele>556.421875</ele>
<time>2012-07-26T11:05:19Z</time>
<speed>0.030000</speed>
<extensions>
<speed>0.0</speed>
<temp>0.00</temp>
<bpm>0</bpm>
<rpm>0.00</rpm>
</extensions>
</trkpt>
<trkpt lat="63.828605652" lon="-19.207456589">
<ele>556.421875</ele>
<time>2012-07-26T11:05:24Z</time>
<speed>0.070000</speed>
<extensions>
<speed>0.1</speed>
<temp>0.00</temp>
<bpm>0</bpm>
<rpm>0.00</rpm>
</extensions>
</trkpt>
<trkpt lat="63.828601837" lon="-19.207454681">
<ele>556.468750</ele>
<time>2012-07-26T11:05:29Z</time>
<extensions>
<speed>0.0</speed>
<temp>0.00</temp>
<bpm>0</bpm>
<rpm>0.00</rpm>
</extensions>
</trkpt>
<trkpt lat="63.828605652" lon="-19.207454681">
<ele>556.484375</ele>
<time>2012-07-26T11:05:34Z</time>
<speed>0.080000</speed>
<extensions>
<speed>0.1</speed>
<temp>0.00</temp>
<bpm>0</bpm>
<rpm>0.00</rpm>
</extensions>
</trkpt>
<trkpt lat="63.828609467" lon="-19.207448959">
<ele>556.531250</ele>
<time>2012-07-26T11:05:39Z</time>
<speed>0.090000</speed>
<extensions>
<speed>0.1</speed>
<temp>0.00</temp>
<bpm>0</bpm>
<rpm>0.00</rpm>
</extensions>
</trkpt>
<trkpt lat="63.828609467" lon="-19.207447052">
<ele>556.578125</ele>
<time>2012-07-26T11:05:44Z</time>
<speed>0.010000</speed>
<extensions>
<speed>0.0</speed>
<temp>0.00</temp>
<bpm>0</bpm>
<rpm>0.00</rpm>
</extensions>
</trkpt>
<trkpt lat="63.828613281" lon="-19.207445145">
<ele>556.578125</ele>
<time>2012-07-26T11:05:49Z</time>
<speed>0.140000</speed>
<extensions>
<speed>0.1</speed>
<temp>0.00</temp>
<bpm>0</bpm>
<rpm>0.00</rpm>
</extensions>
</trkpt>
<trkpt lat="63.828617096" lon="-19.207437515">
<ele>556.609375</ele>
<time>2012-07-26T11:05:54Z</time>
<speed>0.170000</speed>
<extensions>
<speed>0.2</speed>
<temp>0.00</temp>
<bpm>0</bpm>
<rpm>0.00</rpm>
</extensions>
</trkpt>
<trkpt lat="63.828624725" lon="-19.207437515">
<ele>556.718750</ele>
<time>2012-07-26T11:05:59Z</time>
<speed>0.180000</speed>
<extensions>
<speed>0.2</speed>
<temp>0.00</temp>
<bpm>0</bpm>
<rpm>0.00</rpm>
</extensions>
</trkpt>
<trkpt lat="63.828632355" lon="-19.207437515">
<ele>556.875000</ele>
<time>2012-07-26T11:06:04Z</time>
<speed>0.140000</speed>
<extensions>
<speed>0.1</speed>
<temp>0.00</temp>
<bpm>0</bpm>
<rpm>0.00</rpm>
</extensions>
</trkpt>
<trkpt lat="63.828639984" lon="-19.207441330">
<ele>557.062500</ele>
<time>2012-07-26T11:06:09Z</time>
<speed>0.160000</speed>
<extensions>
<speed>0.2</speed>
<temp>0.00</temp>
<bpm>0</bpm>
<rpm>0.00</rpm>
</extensions>
</trkpt>
<trkpt lat="63.828647614" lon="-19.207456589">
<ele>557.359375</ele>
<time>2012-07-26T11:06:14Z</time>
<speed>0.240000</speed>
<extensions>
<speed>0.2</speed>
<temp>0.00</temp>
<bpm>0</bpm>
<rpm>0.00</rpm>
</extensions>
</trkpt>
<trkpt lat="63.828647614" lon="-19.207481384">
<ele>557.703125</ele>
<time>2012-07-26T11:06:19Z</time>
<speed>0.230000</speed>
<extensions>
<speed>0.2</speed>
<temp>0.00</temp>
<bpm>0</bpm>
<rpm>0.00</rpm>
</extensions>
</trkpt>
<trkpt lat="63.828655243" lon="-19.207500458">
<ele>558.046875</ele>
<time>2012-07-26T11:06:24Z</time>
<speed>0.160000</speed>
<extensions>
<speed>0.2</speed>
<temp>0.00</temp>
<bpm>0</bpm>
<rpm>0.00</rpm>
</extensions>
</trkpt>
<trkpt lat="63.828647614" lon="-19.207485199">
<ele>558.937500</ele>
<time>2012-07-26T11:06:29Z</time>
<speed>0.480000</speed>
<extensions>
<speed>0.5</speed>
<temp>0.00</temp>
<bpm>0</bpm>
<rpm>0.00</rpm>
</extensions>
</trkpt>
<trkpt lat="63.828632355" lon="-19.207441330">
<ele>560.937500</ele>
<time>2012-07-26T11:06:34Z</time>
<extensions>
<speed>0.0</speed>
<temp>0.00</temp>
<bpm>0</bpm>
<rpm>0.00</rpm>
</extensions>
</trkpt>
<trkpt lat="63.828632355" lon="-19.207439423">
<ele>560.875000</ele>
<time>2012-07-26T11:06:39Z</time>
<speed>0.060000</speed>
<extensions>
<speed>0.1</speed>
<temp>0.00</temp>
<bpm>0</bpm>
<rpm>0.00</rpm>
</extensions>
</trkpt>
<trkpt lat="63.828632355" lon="-19.207437515">
<ele>560.843750</ele>
<time>2012-07-26T11:06:44Z</time>
<speed>0.040000</speed>
<extensions>
<speed>0.0</speed>
<temp>0.00</temp>
<bpm>0</bpm>
<rpm>0.00</rpm>
</extensions>
</trkpt>
<trkpt lat="63.828632355" lon="-19.207435608">
<ele>560.859375</ele>
<time>2012-07-26T11:06:49Z</time>
<speed>0.040000</speed>
<extensions>
<speed>0.0</speed>
<temp>0.00</temp>
<bpm>0</bpm>
<rpm>0.00</rpm>
</extensions>
</trkpt>
<trkpt lat="63.828632355" lon="-19.207435608">
<ele>560.843750</ele>
<time>2012-07-26T11:06:54Z</time>
<extensions>
<speed>0.0</speed>
<temp>0.00</temp>
<bpm>0</bpm>
<rpm>0.00</rpm>
</extensions>
</trkpt>
<trkpt lat="63.828636169" lon="-19.207433701">
<ele>560.171875</ele>
<time>2012-07-26T11:06:59Z</time>
<speed>0.090000</speed>
<extensions>
<speed>0.1</speed>
<temp>0.00</temp>
<bpm>0</bpm>
<rpm>0.00</rpm>
</extensions>
</trkpt>
<trkpt lat="63.828636169" lon="-19.207435608">
<ele>559.156250</ele>
<time>2012-07-26T11:07:04Z</time>
<speed>0.130000</speed>
<extensions>
<speed>0.1</speed>
<temp>0.00</temp>
<bpm>0</bpm>
<rpm>0.00</rpm>
</extensions>
</trkpt>
<trkpt lat="63.828639984" lon="-19.207426071">
<ele>558.171875</ele>
<time>2012-07-26T11:07:09Z</time>
<speed>0.060000</speed>
<extensions>
<speed>0.1</speed>
<temp>0.00</temp>
<bpm>0</bpm>
<rpm>0.00</rpm>
</extensions>
</trkpt>
<trkpt lat="63.828639984" lon="-19.207424164">
<ele>557.250000</ele>
<time>2012-07-26T11:07:14Z</time>
<speed>0.020000</speed>
<extensions>
<speed>0.0</speed>
<temp>0.00</temp>
<bpm>0</bpm>
<rpm>0.00</rpm>
</extensions>
</trkpt>
<trkpt lat="63.828639984" lon="-19.207416534">
<ele>556.343750</ele>
<time>2012-07-26T11:07:19Z</time>
<speed>0.110000</speed>
<extensions>
<speed>0.1</speed>
<temp>0.00</temp>
<bpm>0</bpm>
<rpm>0.00</rpm>
</extensions>
</trkpt>
<trkpt lat="63.828636169" lon="-19.207403183">
<ele>555.500000</ele>
<time>2012-07-26T11:07:24Z</time>
<speed>0.150000</speed>
<extensions>
<speed>0.2</speed>
<temp>0.00</temp>
<bpm>0</bpm>
<rpm>0.00</rpm>
</extensions>
</trkpt>
<trkpt lat="63.828628540" lon="-19.207401276">
<ele>554.734375</ele>
<time>2012-07-26T11:07:29Z</time>
<speed>0.150000</speed>
<extensions>
<speed>0.2</speed>
<temp>0.00</temp>
<bpm>0</bpm>
<rpm>0.00</rpm>
</extensions>
</trkpt>
<trkpt lat="63.828620911" lon="-19.207399368">
<ele>553.984375</ele>
<time>2012-07-26T11:07:34Z</time>
<speed>0.170000</speed>
<extensions>
<speed>0.2</speed>
<temp>0.00</temp>
<bpm>0</bpm>
<rpm>0.00</rpm>
</extensions>
</trkpt>
<trkpt lat="63.828613281" lon="-19.207391739">
<ele>553.250000</ele>
<time>2012-07-26T11:07:39Z</time>
<speed>0.180000</speed>
<extensions>
<speed>0.2</speed>
<temp>0.00</temp>
<bpm>0</bpm>
<rpm>0.00</rpm>
</extensions>
</trkpt>
<trkpt lat="63.828609467" lon="-19.207378387">
<ele>552.546875</ele>
<time>2012-07-26T11:07:44Z</time>
<speed>0.140000</speed>
<extensions>
<speed>0.1</speed>
<temp>0.00</temp>
<bpm>0</bpm>
<rpm>0.00</rpm>
</extensions>
</trkpt>
<trkpt lat="63.828605652" lon="-19.207363129">
<ele>551.875000</ele>
<time>2012-07-26T11:07:49Z</time>
<speed>0.150000</speed>
<extensions>
<speed>0.2</speed>
<temp>0.00</temp>
<bpm>0</bpm>
<rpm>0.00</rpm>
</extensions>
</trkpt>
<trkpt lat="63.828605652" lon="-19.207347870">
<ele>551.265625</ele>
<time>2012-07-26T11:07:54Z</time>
<speed>0.140000</speed>
<extensions>
<speed>0.1</speed>
<temp>0.00</temp>
<bpm>0</bpm>
<rpm>0.00</rpm>
</extensions>
</trkpt>
<trkpt lat="63.828601837" lon="-19.207330704">
<ele>550.718750</ele>
<time>2012-07-26T11:07:59Z</time>
<speed>0.170000</speed>
<extensions>
<speed>0.2</speed>
<temp>0.00</temp>
<bpm>0</bpm>
<rpm>0.00</rpm>
</extensions>
</trkpt>
<trkpt lat="63.828598022" lon="-19.207315445">
<ele>550.234375</ele>
<time>2012-07-26T11:08:04Z</time>
<speed>0.120000</speed>
<extensions>
<speed>0.1</speed>
<temp>0.00</temp>
<bpm>0</bpm>
<rpm>0.00</rpm>
</extensions>
</trkpt>
<trkpt lat="63.828598022" lon="-19.207313538">
<ele>549.812500</ele>
<time>2012-07-26T11:08:09Z</time>
<extensions>
<speed>0.0</speed>
<temp>0.00</temp>
<bpm>0</bpm>
<rpm>0.00</rpm>
</extensions>
</trkpt>
<trkpt lat="63.828598022" lon="-19.207311630">
<ele>549.406250</ele>
<time>2012-07-26T11:08:14Z</time>
<speed>0.020000</speed>
<extensions>
<speed>0.0</speed>
<temp>0.00</temp>
<bpm>0</bpm>
<rpm>0.00</rpm>
</extensions>
</trkpt>
<trkpt lat="63.828598022" lon="-19.207311630">
<ele>549.015625</ele>
<time>2012-07-26T11:08:19Z</time>
<extensions>
<speed>0.0</speed>
<temp>0.00</temp>
<bpm>0</bpm>
<rpm>0.00</rpm>
</extensions>
</trkpt>
<trkpt lat="63.828598022" lon="-19.207311630">
<ele>548.687500</ele>
<time>2012-07-26T11:08:24Z</time>
<extensions>
<speed>0.0</speed>
<temp>0.00</temp>
<bpm>0</bpm>
<rpm>0.00</rpm>
</extensions>
</trkpt>
<trkpt lat="63.828598022" lon="-19.207311630">
<ele>548.421875</ele>
<time>2012-07-26T11:08:29Z</time>
<speed>0.010000</speed>
<extensions>
<speed>0.0</speed>
<temp>0.00</temp>
<bpm>0</bpm>
<rpm>0.00</rpm>
</extensions>
</trkpt>
<trkpt lat="63.828598022" lon="-19.207311630">
<ele>548.218750</ele>
<time>2012-07-26T11:08:34Z</time>
<speed>0.010000</speed>
<extensions>
<speed>0.0</speed>
<temp>0.00</temp>
<bpm>0</bpm>
<rpm>0.00</rpm>
</extensions>
</trkpt>
<trkpt lat="63.828598022" lon="-19.207311630">
<ele>548.078125</ele>
<time>2012-07-26T11:08:39Z</time>
<extensions>
<speed>0.0</speed>
<temp>0.00</temp>
<bpm>0</bpm>
<rpm>0.00</rpm>
</extensions>
</trkpt>
<trkpt lat="63.828598022" lon="-19.207313538">
<ele>548.078125</ele>
<time>2012-07-26T11:08:44Z</time>
<speed>0.010000</speed>
<extensions>
<speed>0.0</speed>
<temp>0.00</temp>
<bpm>0</bpm>
<rpm>0.00</rpm>
</extensions>
</trkpt>
<trkpt lat="63.828598022" lon="-19.207313538">
<ele>548.156250</ele>
<time>2012-07-26T11:08:49Z</time>
<speed>0.010000</speed>
<extensions>
<speed>0.0</speed>
<temp>0.00</temp>
<bpm>0</bpm>
<rpm>0.00</rpm>
</extensions>
</trkpt>
<trkpt lat="63.828598022" lon="-19.207313538">
<ele>548.281250</ele>
<time>2012-07-26T11:08:54Z</time>
<extensions>
<speed>0.0</speed>
<temp>0.00</temp>
<bpm>0</bpm>
<rpm>0.00</rpm>
</extensions>
</trkpt>
<trkpt lat="63.828598022" lon="-19.207313538">
<ele>548.468750</ele>
<time>2012-07-26T11:08:59Z</time>
<extensions>
<speed>0.0</speed>
<temp>0.00</temp>
<bpm>0</bpm>
<rpm>0.00</rpm>
</extensions>
</trkpt>
<trkpt lat="63.828598022" lon="-19.207313538">
<ele>548.718750</ele>
<time>2012-07-26T11:09:04Z</time>
<speed>0.020000</speed>
<extensions>
<speed>0.0</speed>
<temp>0.00</temp>
<bpm>0</bpm>
<rpm>0.00</rpm>
</extensions>
</trkpt>
<trkpt lat="63.828598022" lon="-19.207311630">
<ele>549.062500</ele>
<time>2012-07-26T11:09:09Z</time>
<speed>0.010000</speed>
<extensions>
<speed>0.0</speed>
<temp>0.00</temp>
<bpm>0</bpm>
<rpm>0.00</rpm>
</extensions>
</trkpt>
<trkpt lat="63.828598022" lon="-19.207311630">
<ele>549.515625</ele>
<time>2012-07-26T11:09:14Z</time>
<extensions>
<speed>0.0</speed>
<temp>0.00</temp>
<bpm>0</bpm>
<rpm>0.00</rpm>
</extensions>
</trkpt>
<trkpt lat="63.828598022" lon="-19.207311630">
<ele>550.062500</ele>
<time>2012-07-26T11:09:19Z</time>
<extensions>
<speed>0.0</speed>
<temp>0.00</temp>
<bpm>0</bpm>
<rpm>0.00</rpm>
</extensions>
</trkpt>
<trkpt lat="63.828598022" lon="-19.207311630">
<ele>550.578125</ele>
<time>2012-07-26T11:09:24Z</time>
<speed>0.010000</speed>
<extensions>
<speed>0.0</speed>
<temp>0.00</temp>
<bpm>0</bpm>
<rpm>0.00</rpm>
</extensions>
</trkpt>
<trkpt lat="63.828598022" lon="-19.207311630">
<ele>551.171875</ele>
<time>2012-07-26T11:09:29Z</time>
<speed>0.010000</speed>
<extensions>
<speed>0.0</speed>
<temp>0.00</temp>
<bpm>0</bpm>
<rpm>0.00</rpm>
</extensions>
</trkpt>
<trkpt lat="63.828598022" lon="-19.207311630">
<ele>551.812500</ele>
<time>2012-07-26T11:09:34Z</time>
<speed>0.010000</speed>
<extensions>
<speed>0.0</speed>
<temp>0.00</temp>
<bpm>0</bpm>
<rpm>0.00</rpm>
</extensions>
</trkpt>
<trkpt lat="63.828598022" lon="-19.207315445">
<ele>552.375000</ele>
<time>2012-07-26T11:09:39Z</time>
<speed>0.050000</speed>
<extensions>
<speed>0.1</speed>
<temp>0.00</temp>
<bpm>0</bpm>
<rpm>0.00</rpm>
</extensions>
</trkpt>
<trkpt lat="63.828598022" lon="-19.207319260">
<ele>552.937500</ele>
<time>2012-07-26T11:09:44Z</time>
<speed>0.010000</speed>
<extensions>
<speed>0.0</speed>
<temp>0.00</temp>
<bpm>0</bpm>
<rpm>0.00</rpm>
</extensions>
</trkpt>
<trkpt lat="63.828598022" lon="-19.207321167">
<ele>553.562500</ele>
<time>2012-07-26T11:09:49Z</time>
<extensions>
<speed>0.0</speed>
<temp>0.00</temp>
<bpm>0</bpm>
<rpm>0.00</rpm>
</extensions>
</trkpt>
<trkpt lat="63.828598022" lon="-19.207321167">
<ele>554.265625</ele>
<time>2012-07-26T11:09:54Z</time>
<extensions>
<speed>0.0</speed>
<temp>0.00</temp>
<bpm>0</bpm>
<rpm>0.00</rpm>
</extensions>
</trkpt>
<trkpt lat="63.828598022" lon="-19.207319260">
<ele>555.000000</ele>
<time>2012-07-26T11:09:59Z</time>
<speed>0.020000</speed>
<extensions>
<speed>0.0</speed>
<temp>0.00</temp>
<bpm>0</bpm>
<rpm>0.00</rpm>
</extensions>
</trkpt>
<trkpt lat="63.828598022" lon="-19.207319260">
<ele>555.734375</ele>
<time>2012-07-26T11:10:04Z</time>
<speed>0.020000</speed>
<extensions>
<speed>0.0</speed>
<temp>0.00</temp>
<bpm>0</bpm>
<rpm>0.00</rpm>
</extensions>
</trkpt>
<trkpt lat="63.828594208" lon="-19.207319260">
<ele>556.453125</ele>
<time>2012-07-26T11:10:09Z</time>
<speed>0.020000</speed>
<extensions>
<speed>0.0</speed>
<temp>0.00</temp>
<bpm>0</bpm>
<rpm>0.00</rpm>
</extensions>
</trkpt>
<trkpt lat="63.828594208" lon="-19.207319260">
<ele>557.125000</ele>
<time>2012-07-26T11:10:14Z</time>
<extensions>
<speed>0.0</speed>
<temp>0.00</temp>
<bpm>0</bpm>
<rpm>0.00</rpm>
</extensions>
</trkpt>
<trkpt lat="63.828609467" lon="-19.207340240">
<ele>558.093750</ele>
<time>2012-07-26T11:10:19Z</time>
<speed>0.810000</speed>
<extensions>
<speed>0.8</speed>
<temp>0.00</temp>
<bpm>0</bpm>
<rpm>0.00</rpm>
</extensions>
</trkpt>
<trkpt lat="63.828620911" lon="-19.207393646">
<ele>560.812500</ele>
<time>2012-07-26T11:10:24Z</time>
<speed>0.020000</speed>
<extensions>
<speed>0.0</speed>
<temp>0.00</temp>
<bpm>0</bpm>
<rpm>0.00</rpm>
</extensions>
</trkpt>
<trkpt lat="63.828620911" lon="-19.207391739">
<ele>561.031250</ele>
<time>2012-07-26T11:10:29Z</time>
<speed>0.100000</speed>
<extensions>
<speed>0.1</speed>
<temp>0.00</temp>
<bpm>0</bpm>
<rpm>0.00</rpm>
</extensions>
</trkpt>
<trkpt lat="63.828620911" lon="-19.207374573">
<ele>561.062500</ele>
<time>2012-07-26T11:10:34Z</time>
<speed>0.160000</speed>
<extensions>
<speed>0.2</speed>
<temp>0.00</temp>
<bpm>0</bpm>
<rpm>0.00</rpm>
</extensions>
</trkpt>
<trkpt lat="63.828620911" lon="-19.207357407">
<ele>561.062500</ele>
<time>2012-07-26T11:10:39Z</time>
<speed>0.250000</speed>
<extensions>
<speed>0.2</speed>
<temp>0.00</temp>
<bpm>0</bpm>
<rpm>0.00</rpm>
</extensions>
</trkpt>
<trkpt lat="63.828609467" lon="-19.207401276">
<ele>561.250000</ele>
<time>2012-07-26T11:10:44Z</time>
<speed>0.370000</speed>
<extensions>
<speed>0.4</speed>
<temp>0.00</temp>
<bpm>0</bpm>
<rpm>0.00</rpm>
</extensions>
</trkpt>
<trkpt lat="63.828601837" lon="-19.207380295">
<ele>562.484375</ele>
<time>2012-07-26T11:10:49Z</time>
<speed>0.270000</speed>
<extensions>
<speed>0.3</speed>
<temp>0.00</temp>
<bpm>0</bpm>
<rpm>0.00</rpm>
</extensions>
</trkpt>
<trkpt lat="63.828601837" lon="-19.207366943">
<ele>562.500000</ele>
<time>2012-07-26T11:10:54Z</time>
<speed>0.200000</speed>
<extensions>
<speed>0.2</speed>
<temp>0.00</temp>
<bpm>0</bpm>
<rpm>0.00</rpm>
</extensions>
</trkpt>
<trkpt lat="63.828601837" lon="-19.207357407">
<ele>562.546875</ele>
<time>2012-07-26T11:10:59Z</time>
<speed>0.100000</speed>
<extensions>
<speed>0.1</speed>
<temp>0.00</temp>
<bpm>0</bpm>
<rpm>0.00</rpm>
</extensions>
</trkpt>
<trkpt lat="63.828601837" lon="-19.207357407">
<ele>562.578125</ele>
<time>2012-07-26T11:11:04Z</time>
<speed>0.070000</speed>
<extensions>
<speed>0.1</speed>
<temp>0.00</temp>
<bpm>0</bpm>
<rpm>0.00</rpm>
</extensions>
</trkpt>
<trkpt lat="63.828598022" lon="-19.207366943">
<ele>562.609375</ele>
<time>2012-07-26T11:11:09Z</time>
<speed>0.190000</speed>
<extensions>
<speed>0.2</speed>
<temp>0.00</temp>
<bpm>0</bpm>
<rpm>0.00</rpm>
</extensions>
</trkpt>
<trkpt lat="63.828590393" lon="-19.207382202">
<ele>562.640625</ele>
<time>2012-07-26T11:11:14Z</time>
<speed>0.180000</speed>
<extensions>
<speed>0.2</speed>
<temp>0.00</temp>
<bpm>0</bpm>
<rpm>0.00</rpm>
</extensions>
</trkpt>
<trkpt lat="63.828586578" lon="-19.207397461">
<ele>562.703125</ele>
<time>2012-07-26T11:11:19Z</time>
<speed>0.190000</speed>
<extensions>
<speed>0.2</speed>
<temp>0.00</temp>
<bpm>0</bpm>
<rpm>0.00</rpm>
</extensions>
</trkpt>
<trkpt lat="63.828582764" lon="-19.207406998">
<ele>562.781250</ele>
<time>2012-07-26T11:11:24Z</time>
<speed>0.050000</speed>
<extensions>
<speed>0.1</speed>
<temp>0.00</temp>
<bpm>0</bpm>
<rpm>0.00</rpm>
</extensions>
</trkpt>
<trkpt lat="63.828582764" lon="-19.207412720">
<ele>562.906250</ele>
<time>2012-07-26T11:11:29Z</time>
<speed>0.110000</speed>
<extensions>
<speed>0.1</speed>
<temp>0.00</temp>
<bpm>0</bpm>
<rpm>0.00</rpm>
</extensions>
</trkpt>
<trkpt lat="63.828582764" lon="-19.207426071">
<ele>563.046875</ele>
<time>2012-07-26T11:11:34Z</time>
<speed>0.090000</speed>
<extensions>
<speed>0.1</speed>
<temp>0.00</temp>
<bpm>0</bpm>
<rpm>0.00</rpm>
</extensions>
</trkpt>
<trkpt lat="63.828582764" lon="-19.207431793">
<ele>563.187500</ele>
<time>2012-07-26T11:11:39Z</time>
<speed>0.070000</speed>
<extensions>
<speed>0.1</speed>
<temp>0.00</temp>
<bpm>0</bpm>
<rpm>0.00</rpm>
</extensions>
</trkpt>
<trkpt lat="63.828586578" lon="-19.207447052">
<ele>563.359375</ele>
<time>2012-07-26T11:11:44Z</time>
<speed>0.190000</speed>
<extensions>
<speed>0.2</speed>
<temp>0.00</temp>
<bpm>0</bpm>
<rpm>0.00</rpm>
</extensions>
</trkpt>
<trkpt lat="63.828586578" lon="-19.207468033">
<ele>563.546875</ele>
<time>2012-07-26T11:11:49Z</time>
<speed>0.230000</speed>
<extensions>
<speed>0.2</speed>
<temp>0.00</temp>
<bpm>0</bpm>
<rpm>0.00</rpm>
</extensions>
</trkpt>
<trkpt lat="63.828590393" lon="-19.207489014">
<ele>563.781250</ele>
<time>2012-07-26T11:11:54Z</time>
<speed>0.210000</speed>
<extensions>
<speed>0.2</speed>
<temp>0.00</temp>
<bpm>0</bpm>
<rpm>0.00</rpm>
</extensions>
</trkpt>
<trkpt lat="63.828598022" lon="-19.207502365">
<ele>564.078125</ele>
<time>2012-07-26T11:11:59Z</time>
<speed>0.140000</speed>
<extensions>
<speed>0.1</speed>
<temp>0.00</temp>
<bpm>0</bpm>
<rpm>0.00</rpm>
</extensions>
</trkpt>
<trkpt lat="63.828598022" lon="-19.207511902">
<ele>564.437500</ele>
<time>2012-07-26T11:12:04Z</time>
<speed>0.040000</speed>
<extensions>
<speed>0.0</speed>
<temp>0.00</temp>
<bpm>0</bpm>
<rpm>0.00</rpm>
</extensions>
</trkpt>
<trkpt lat="63.828598022" lon="-19.207509995">
<ele>564.843750</ele>
<time>2012-07-26T11:12:09Z</time>
<speed>0.100000</speed>
<extensions>
<speed>0.1</speed>
<temp>0.00</temp>
<bpm>0</bpm>
<rpm>0.00</rpm>
</extensions>
</trkpt>
<trkpt lat="63.828590393" lon="-19.207506180">
<ele>565.250000</ele>
<time>2012-07-26T11:12:14Z</time>
<speed>0.140000</speed>
<extensions>
<speed>0.1</speed>
<temp>0.00</temp>
<bpm>0</bpm>
<rpm>0.00</rpm>
</extensions>
</trkpt>
<trkpt lat="63.828586578" lon="-19.207500458">
<ele>565.640625</ele>
<time>2012-07-26T11:12:19Z</time>
<speed>0.070000</speed>
<extensions>
<speed>0.1</speed>
<temp>0.00</temp>
<bpm>0</bpm>
<rpm>0.00</rpm>
</extensions>
</trkpt>
<trkpt lat="63.828586578" lon="-19.207489014">
<ele>566.031250</ele>
<time>2012-07-26T11:12:24Z</time>
<speed>0.130000</speed>
<extensions>
<speed>0.1</speed>
<temp>0.00</temp>
<bpm>0</bpm>
<rpm>0.00</rpm>
</extensions>
</trkpt>
<trkpt lat="63.828586578" lon="-19.207471848">
<ele>566.406250</ele>
<time>2012-07-26T11:12:29Z</time>
<speed>0.140000</speed>
<extensions>
<speed>0.1</speed>
<temp>0.00</temp>
<bpm>0</bpm>
<rpm>0.00</rpm>
</extensions>
</trkpt>
<trkpt lat="63.828586578" lon="-19.207456589">
<ele>566.796875</ele>
<time>2012-07-26T11:12:34Z</time>
<speed>0.150000</speed>
<extensions>
<speed>0.2</speed>
<temp>0.00</temp>
<bpm>0</bpm>
<rpm>0.00</rpm>
</extensions>
</trkpt>
<trkpt lat="63.828590393" lon="-19.207445145">
<ele>567.218750</ele>
<time>2012-07-26T11:12:39Z</time>
<speed>0.170000</speed>
<extensions>
<speed>0.2</speed>
<temp>0.00</temp>
<bpm>0</bpm>
<rpm>0.00</rpm>
</extensions>
</trkpt>
<trkpt lat="63.828594208" lon="-19.207433701">
<ele>567.640625</ele>
<time>2012-07-26T11:12:44Z</time>
<speed>0.100000</speed>
<extensions>
<speed>0.1</speed>
<temp>0.00</temp>
<bpm>0</bpm>
<rpm>0.00</rpm>
</extensions>
</trkpt>
<trkpt lat="63.828598022" lon="-19.207427979">
<ele>568.093750</ele>
<time>2012-07-26T11:12:49Z</time>
<speed>0.050000</speed>
<extensions>
<speed>0.1</speed>
<temp>0.00</temp>
<bpm>0</bpm>
<rpm>0.00</rpm>
</extensions>
</trkpt>
<trkpt lat="63.828598022" lon="-19.207424164">
<ele>568.593750</ele>
<time>2012-07-26T11:12:54Z</time>
<speed>0.050000</speed>
<extensions>
<speed>0.1</speed>
<temp>0.00</temp>
<bpm>0</bpm>
<rpm>0.00</rpm>
</extensions>
</trkpt>
<trkpt lat="63.828598022" lon="-19.207420349">
<ele>569.125000</ele>
<time>2012-07-26T11:12:59Z</time>
<extensions>
<speed>0.0</speed>
<temp>0.00</temp>
<bpm>0</bpm>
<rpm>0.00</rpm>
</extensions>
</trkpt>
<trkpt lat="63.828598022" lon="-19.207418442">
<ele>569.703125</ele>
<time>2012-07-26T11:13:04Z</time>
<speed>0.020000</speed>
<extensions>
<speed>0.0</speed>
<temp>0.00</temp>
<bpm>0</bpm>
<rpm>0.00</rpm>
</extensions>
</trkpt>
<trkpt lat="63.828601837" lon="-19.207422256">
<ele>570.359375</ele>
<time>2012-07-26T11:13:09Z</time>
<speed>0.050000</speed>
<extensions>
<speed>0.1</speed>
<temp>0.00</temp>
<bpm>0</bpm>
<rpm>0.00</rpm>
</extensions>
</trkpt>
<trkpt lat="63.828601837" lon="-19.207426071">
<ele>571.015625</ele>
<time>2012-07-26T11:13:14Z</time>
<speed>0.050000</speed>
<extensions>
<speed>0.1</speed>
<temp>0.00</temp>
<bpm>0</bpm>
<rpm>0.00</rpm>
</extensions>
</trkpt>
<trkpt lat="63.828601837" lon="-19.207433701">
<ele>571.687500</ele>
<time>2012-07-26T11:13:19Z</time>
<speed>0.110000</speed>
<extensions>
<speed>0.1</speed>
<temp>0.00</temp>
<bpm>0</bpm>
<rpm>0.00</rpm>
</extensions>
</trkpt>
<trkpt lat="63.828601837" lon="-19.207443237">
<ele>572.390625</ele>
<time>2012-07-26T11:13:24Z</time>
<speed>0.100000</speed>
<extensions>
<speed>0.1</speed>
<temp>0.00</temp>
<bpm>0</bpm>
<rpm>0.00</rpm>
</extensions>
</trkpt>
<trkpt lat="63.828601837" lon="-19.207454681">
<ele>573.093750</ele>
<time>2012-07-26T11:13:29Z</time>
<speed>0.080000</speed>
<extensions>
<speed>0.1</speed>
<temp>0.00</temp>
<bpm>0</bpm>
<rpm>0.00</rpm>
</extensions>
</trkpt>
<trkpt lat="63.828598022" lon="-19.207458496">
<ele>573.781250</ele>
<time>2012-07-26T11:13:34Z</time>
<speed>0.030000</speed>
<extensions>
<speed>0.0</speed>
<temp>0.00</temp>
<bpm>0</bpm>
<rpm>0.00</rpm>
</extensions>
</trkpt>
<trkpt lat="63.828598022" lon="-19.207466125">
<ele>574.437500</ele>
<time>2012-07-26T11:13:39Z</time>
<speed>0.130000</speed>
<extensions>
<speed>0.1</speed>
<temp>0.00</temp>
<bpm>0</bpm>
<rpm>0.00</rpm>
</extensions>
</trkpt>
<trkpt lat="63.828598022" lon="-19.207477570">
<ele>575.109375</ele>
<time>2012-07-26T11:13:44Z</time>
<speed>0.090000</speed>
<extensions>
<speed>0.1</speed>
<temp>0.00</temp>
<bpm>0</bpm>
<rpm>0.00</rpm>
</extensions>
</trkpt>
<trkpt lat="63.828594208" lon="-19.207483292">
<ele>575.718750</ele>
<time>2012-07-26T11:13:49Z</time>
<speed>0.070000</speed>
<extensions>
<speed>0.1</speed>
<temp>0.00</temp>
<bpm>0</bpm>
<rpm>0.00</rpm>
</extensions>
</trkpt>
<trkpt lat="63.828590393" lon="-19.207481384">
<ele>576.281250</ele>
<time>2012-07-26T11:13:54Z</time>
<speed>0.050000</speed>
<extensions>
<speed>0.1</speed>
<temp>0.00</temp>
<bpm>0</bpm>
<rpm>0.00</rpm>
</extensions>
</trkpt>
<trkpt lat="63.828590393" lon="-19.207475662">
<ele>576.875000</ele>
<time>2012-07-26T11:13:59Z</time>
<speed>0.040000</speed>
<extensions>
<speed>0.0</speed>
<temp>0.00</temp>
<bpm>0</bpm>
<rpm>0.00</rpm>
</extensions>
</trkpt>
<trkpt lat="63.828590393" lon="-19.207481384">
<ele>577.437500</ele>
<time>2012-07-26T11:14:04Z</time>
<speed>0.050000</speed>
<extensions>
<speed>0.1</speed>
<temp>0.00</temp>
<bpm>0</bpm>
<rpm>0.00</rpm>
</extensions>
</trkpt>
<trkpt lat="63.828590393" lon="-19.207490921">
<ele>578.015625</ele>
<time>2012-07-26T11:14:09Z</time>
<speed>0.150000</speed>
<extensions>
<speed>0.2</speed>
<temp>0.00</temp>
<bpm>0</bpm>
<rpm>0.00</rpm>
</extensions>
</trkpt>
<trkpt lat="63.828594208" lon="-19.207509995">
<ele>578.593750</ele>
<time>2012-07-26T11:14:14Z</time>
<speed>0.210000</speed>
<extensions>
<speed>0.2</speed>
<temp>0.00</temp>
<bpm>0</bpm>
<rpm>0.00</rpm>
</extensions>
</trkpt>
<trkpt lat="63.828598022" lon="-19.207534790">
<ele>579.156250</ele>
<time>2012-07-26T11:14:19Z</time>
<speed>0.230000</speed>
<extensions>
<speed>0.2</speed>
<temp>0.00</temp>
<bpm>0</bpm>
<rpm>0.00</rpm>
</extensions>
</trkpt>
<trkpt lat="63.828598022" lon="-19.207557678">
<ele>579.765625</ele>
<time>2012-07-26T11:14:24Z</time>
<speed>0.180000</speed>
<extensions>
<speed>0.2</speed>
<temp>0.00</temp>
<bpm>0</bpm>
<rpm>0.00</rpm>
</extensions>
</trkpt>
<trkpt lat="63.828601837" lon="-19.207572937">
<ele>580.453125</ele>
<time>2012-07-26T11:14:29Z</time>
<speed>0.120000</speed>
<extensions>
<speed>0.1</speed>
<temp>0.00</temp>
<bpm>0</bpm>
<rpm>0.00</rpm>
</extensions>
</trkpt>
<trkpt lat="63.828601837" lon="-19.207582474">
<ele>581.078125</ele>
<time>2012-07-26T11:14:34Z</time>
<speed>0.060000</speed>
<extensions>
<speed>0.1</speed>
<temp>0.00</temp>
<bpm>0</bpm>
<rpm>0.00</rpm>
</extensions>
</trkpt>
<trkpt lat="63.828601837" lon="-19.207584381">
<ele>581.703125</ele>
<time>2012-07-26T11:14:39Z</time>
<speed>0.030000</speed>
<extensions>
<speed>0.0</speed>
<temp>0.00</temp>
<bpm>0</bpm>
<rpm>0.00</rpm>
</extensions>
</trkpt>
<trkpt lat="63.828598022" lon="-19.207580566">
<ele>582.156250</ele>
<time>2012-07-26T11:14:44Z</time>
<speed>0.010000</speed>
<extensions>
<speed>0.0</speed>
<temp>0.00</temp>
<bpm>0</bpm>
<rpm>0.00</rpm>
</extensions>
</trkpt>
<trkpt lat="63.828598022" lon="-19.207574844">
<ele>582.453125</ele>
<time>2012-07-26T11:14:49Z</time>
<speed>0.090000</speed>
<extensions>
<speed>0.1</speed>
<temp>0.00</temp>
<bpm>0</bpm>
<rpm>0.00</rpm>
</extensions>
</trkpt>
<trkpt lat="63.828601837" lon="-19.207559586">
<ele>582.546875</ele>
<time>2012-07-26T11:14:54Z</time>
<speed>0.180000</speed>
<extensions>
<speed>0.2</speed>
<temp>0.00</temp>
<bpm>0</bpm>
<rpm>0.00</rpm>
</extensions>
</trkpt>
<trkpt lat="63.828605652" lon="-19.207536697">
<ele>582.406250</ele>
<time>2012-07-26T11:14:59Z</time>
<speed>0.280000</speed>
<extensions>
<speed>0.3</speed>
<temp>0.00</temp>
<bpm>0</bpm>
<rpm>0.00</rpm>
</extensions>
</trkpt>
<trkpt lat="63.828609467" lon="-19.207511902">
<ele>582.093750</ele>
<time>2012-07-26T11:15:04Z</time>
<speed>0.220000</speed>
<extensions>
<speed>0.2</speed>
<temp>0.00</temp>
<bpm>0</bpm>
<rpm>0.00</rpm>
</extensions>
</trkpt>
<trkpt lat="63.828613281" lon="-19.207500458">
<ele>581.640625</ele>
<time>2012-07-26T11:15:09Z</time>
<speed>0.110000</speed>
<extensions>
<speed>0.1</speed>
<temp>0.00</temp>
<bpm>0</bpm>
<rpm>0.00</rpm>
</extensions>
</trkpt>
<trkpt lat="63.828617096" lon="-19.207500458">
<ele>581.062500</ele>
<time>2012-07-26T11:15:14Z</time>
<speed>0.070000</speed>
<extensions>
<speed>0.1</speed>
<temp>0.00</temp>
<bpm>0</bpm>
<rpm>0.00</rpm>
</extensions>
</trkpt>
<trkpt lat="63.828617096" lon="-19.207511902">
<ele>580.343750</ele>
<time>2012-07-26T11:15:19Z</time>
<speed>0.090000</speed>
<extensions>
<speed>0.1</speed>
<temp>0.00</temp>
<bpm>0</bpm>
<rpm>0.00</rpm>
</extensions>
</trkpt>
<trkpt lat="63.828617096" lon="-19.207521439">
<ele>579.468750</ele>
<time>2012-07-26T11:15:24Z</time>
<speed>0.010000</speed>
<extensions>
<speed>0.0</speed>
<temp>0.00</temp>
<bpm>0</bpm>
<rpm>0.00</rpm>
</extensions>
</trkpt>
<trkpt lat="63.828617096" lon="-19.207523346">
<ele>578.562500</ele>
<time>2012-07-26T11:15:29Z</time>
<speed>0.050000</speed>
<extensions>
<speed>0.1</speed>
<temp>0.00</temp>
<bpm>0</bpm>
<rpm>0.00</rpm>
</extensions>
</trkpt>
<trkpt lat="63.828617096" lon="-19.207525253">
<ele>577.640625</ele>
<time>2012-07-26T11:15:34Z</time>
<extensions>
<speed>0.0</speed>
<temp>0.00</temp>
<bpm>0</bpm>
<rpm>0.00</rpm>
</extensions>
</trkpt>
<trkpt lat="63.828617096" lon="-19.207525253">
<ele>576.656250</ele>
<time>2012-07-26T11:15:39Z</time>
<speed>0.040000</speed>
<extensions>
<speed>0.0</speed>
<temp>0.00</temp>
<bpm>0</bpm>
<rpm>0.00</rpm>
</extensions>
</trkpt>
<trkpt lat="63.828617096" lon="-19.207534790">
<ele>575.687500</ele>
<time>2012-07-26T11:15:44Z</time>
<speed>0.120000</speed>
<extensions>
<speed>0.1</speed>
<temp>0.00</temp>
<bpm>0</bpm>
<rpm>0.00</rpm>
</extensions>
</trkpt>
<trkpt lat="63.828620911" lon="-19.207546234">
<ele>574.734375</ele>
<time>2012-07-26T11:15:49Z</time>
<speed>0.120000</speed>
<extensions>
<speed>0.1</speed>
<temp>0.00</temp>
<bpm>0</bpm>
<rpm>0.00</rpm>
</extensions>
</trkpt>
<trkpt lat="63.828617096" lon="-19.207557678">
<ele>573.906250</ele>
<time>2012-07-26T11:15:54Z</time>
<speed>0.070000</speed>
<extensions>
<speed>0.1</speed>
<temp>0.00</temp>
<bpm>0</bpm>
<rpm>0.00</rpm>
</extensions>
</trkpt>
<trkpt lat="63.828613281" lon="-19.207557678">
<ele>573.062500</ele>
<time>2012-07-26T11:15:59Z</time>
<speed>0.060000</speed>
<extensions>
<speed>0.1</speed>
<temp>0.00</temp>
<bpm>0</bpm>
<rpm>0.00</rpm>
</extensions>
</trkpt>
<trkpt lat="63.828609467" lon="-19.207551956">
<ele>572.171875</ele>
<time>2012-07-26T11:16:04Z</time>
<speed>0.100000</speed>
<extensions>
<speed>0.1</speed>
<temp>0.00</temp>
<bpm>0</bpm>
<rpm>0.00</rpm>
</extensions>
</trkpt>
<trkpt lat="63.828609467" lon="-19.207544327">
<ele>571.296875</ele>
<time>2012-07-26T11:16:09Z</time>
<speed>0.090000</speed>
<extensions>
<speed>0.1</speed>
<temp>0.00</temp>
<bpm>0</bpm>
<rpm>0.00</rpm>
</extensions>
</trkpt>
<trkpt lat="63.828605652" lon="-19.207536697">
<ele>570.328125</ele>
<time>2012-07-26T11:16:14Z</time>
<speed>0.090000</speed>
<extensions>
<speed>0.1</speed>
<temp>0.00</temp>
<bpm>0</bpm>
<rpm>0.00</rpm>
</extensions>
</trkpt>
<trkpt lat="63.828601837" lon="-19.207529068">
<ele>569.343750</ele>
<time>2012-07-26T11:16:19Z</time>
<speed>0.100000</speed>
<extensions>
<speed>0.1</speed>
<temp>0.00</temp>
<bpm>0</bpm>
<rpm>0.00</rpm>
</extensions>
</trkpt>
<trkpt lat="63.828601837" lon="-19.207519531">
<ele>568.406250</ele>
<time>2012-07-26T11:16:24Z</time>
<speed>0.120000</speed>
<extensions>
<speed>0.1</speed>
<temp>0.00</temp>
<bpm>0</bpm>
<rpm>0.00</rpm>
</extensions>
</trkpt>
<trkpt lat="63.828598022" lon="-19.207509995">
<ele>567.500000</ele>
<time>2012-07-26T11:16:29Z</time>
<speed>0.100000</speed>
<extensions>
<speed>0.1</speed>
<temp>0.00</temp>
<bpm>0</bpm>
<rpm>0.00</rpm>
</extensions>
</trkpt>
<trkpt lat="63.828594208" lon="-19.207502365">
<ele>566.656250</ele>
<time>2012-07-26T11:16:34Z</time>
<speed>0.130000</speed>
<extensions>
<speed>0.1</speed>
<temp>0.00</temp>
<bpm>0</bpm>
<rpm>0.00</rpm>
</extensions>
</trkpt>
<trkpt lat="63.828590393" lon="-19.207494736">
<ele>565.796875</ele>
<time>2012-07-26T11:16:39Z</time>
<speed>0.100000</speed>
<extensions>
<speed>0.1</speed>
<temp>0.00</temp>
<bpm>0</bpm>
<rpm>0.00</rpm>
</extensions>
</trkpt>
<trkpt lat="63.828586578" lon="-19.207487106">
<ele>564.953125</ele>
<time>2012-07-26T11:16:44Z</time>
<speed>0.080000</speed>
<extensions>
<speed>0.1</speed>
<temp>0.00</temp>
<bpm>0</bpm>
<rpm>0.00</rpm>
</extensions>
</trkpt>
<trkpt lat="63.828582764" lon="-19.207479477">
<ele>564.109375</ele>
<time>2012-07-26T11:16:49Z</time>
<speed>0.080000</speed>
<extensions>
<speed>0.1</speed>
<temp>0.00</temp>
<bpm>0</bpm>
<rpm>0.00</rpm>
</extensions>
</trkpt>
<trkpt lat="63.828582764" lon="-19.207473755">
<ele>563.296875</ele>
<time>2012-07-26T11:16:54Z</time>
<speed>0.070000</speed>
<extensions>
<speed>0.1</speed>
<temp>0.00</temp>
<bpm>0</bpm>
<rpm>0.00</rpm>
</extensions>
</trkpt>
<trkpt lat="63.828578949" lon="-19.207468033">
<ele>562.531250</ele>
<time>2012-07-26T11:16:59Z</time>
<speed>0.100000</speed>
<extensions>
<speed>0.1</speed>
<temp>0.00</temp>
<bpm>0</bpm>
<rpm>0.00</rpm>
</extensions>
</trkpt>
<trkpt lat="63.828575134" lon="-19.207458496">
<ele>561.843750</ele>
<time>2012-07-26T11:17:04Z</time>
<speed>0.140000</speed>
<extensions>
<speed>0.1</speed>
<temp>0.00</temp>
<bpm>0</bpm>
<rpm>0.00</rpm>
</extensions>
</trkpt>
<trkpt lat="63.828571320" lon="-19.207447052">
<ele>561.156250</ele>
<time>2012-07-26T11:17:09Z</time>
<speed>0.150000</speed>
<extensions>
<speed>0.2</speed>
<temp>0.00</temp>
<bpm>0</bpm>
<rpm>0.00</rpm>
</extensions>
</trkpt>
<trkpt lat="63.828563690" lon="-19.207435608">
<ele>560.515625</ele>
<time>2012-07-26T11:17:14Z</time>
<speed>0.140000</speed>
<extensions>
<speed>0.1</speed>
<temp>0.00</temp>
<bpm>0</bpm>
<rpm>0.00</rpm>
</extensions>
</trkpt>
<trkpt lat="63.828559875" lon="-19.207424164">
<ele>559.968750</ele>
<time>2012-07-26T11:17:19Z</time>
<speed>0.130000</speed>
<extensions>
<speed>0.1</speed>
<temp>0.00</temp>
<bpm>0</bpm>
<rpm>0.00</rpm>
</extensions>
</trkpt>
<trkpt lat="63.828559875" lon="-19.207410812">
<ele>559.593750</ele>
<time>2012-07-26T11:17:24Z</time>
<speed>0.140000</speed>
<extensions>
<speed>0.1</speed>
<temp>0.00</temp>
<bpm>0</bpm>
<rpm>0.00</rpm>
</extensions>
</trkpt>
<trkpt lat="63.828556061" lon="-19.207395554">
<ele>559.343750</ele>
<time>2012-07-26T11:17:29Z</time>
<speed>0.170000</speed>
<extensions>
<speed>0.2</speed>
<temp>0.00</temp>
<bpm>0</bpm>
<rpm>0.00</rpm>
</extensions>
</trkpt>
<trkpt lat="63.828552246" lon="-19.207382202">
<ele>559.140625</ele>
<time>2012-07-26T11:17:34Z</time>
<speed>0.160000</speed>
<extensions>
<speed>0.2</speed>
<temp>0.00</temp>
<bpm>0</bpm>
<rpm>0.00</rpm>
</extensions>
</trkpt>
<trkpt lat="63.828548431" lon="-19.207366943">
<ele>558.968750</ele>
<time>2012-07-26T11:17:39Z</time>
<speed>0.190000</speed>
<extensions>
<speed>0.2</speed>
<temp>0.00</temp>
<bpm>0</bpm>
<rpm>0.00</rpm>
</extensions>
</trkpt>
<trkpt lat="63.828544617" lon="-19.207353592">
<ele>558.843750</ele>
<time>2012-07-26T11:17:44Z</time>
<speed>0.120000</speed>
<extensions>
<speed>0.1</speed>
<temp>0.00</temp>
<bpm>0</bpm>
<rpm>0.00</rpm>
</extensions>
</trkpt>
<trkpt lat="63.828544617" lon="-19.207342148">
<ele>558.765625</ele>
<time>2012-07-26T11:17:49Z</time>
<speed>0.110000</speed>
<extensions>
<speed>0.1</speed>
<temp>0.00</temp>
<bpm>0</bpm>
<rpm>0.00</rpm>
</extensions>
</trkpt>
<trkpt lat="63.828540802" lon="-19.207336426">
<ele>558.796875</ele>
<time>2012-07-26T11:17:54Z</time>
<speed>0.040000</speed>
<extensions>
<speed>0.0</speed>
<temp>0.00</temp>
<bpm>0</bpm>
<rpm>0.00</rpm>
</extensions>
</trkpt>
<trkpt lat="63.828540802" lon="-19.207338333">
<ele>558.953125</ele>
<time>2012-07-26T11:17:59Z</time>
<speed>0.030000</speed>
<extensions>
<speed>0.0</speed>
<temp>0.00</temp>
<bpm>0</bpm>
<rpm>0.00</rpm>
</extensions>
</trkpt>
<trkpt lat="63.828540802" lon="-19.207344055">
<ele>559.171875</ele>
<time>2012-07-26T11:18:04Z</time>
<speed>0.070000</speed>
<extensions>
<speed>0.1</speed>
<temp>0.00</temp>
<bpm>0</bpm>
<rpm>0.00</rpm>
</extensions>
</trkpt>
<trkpt lat="63.828540802" lon="-19.207345963">
<ele>559.187500</ele>
<time>2012-07-26T11:18:09Z</time>
<speed>0.030000</speed>
<extensions>
<speed>0.0</speed>
<temp>0.00</temp>
<bpm>0</bpm>
<rpm>0.00</rpm>
</extensions>
</trkpt>
<trkpt lat="63.828540802" lon="-19.207345963">
<ele>559.218750</ele>
<time>2012-07-26T11:18:14Z</time>
<speed>0.010000</speed>
<extensions>
<speed>0.0</speed>
<temp>0.00</temp>
<bpm>0</bpm>
<rpm>0.00</rpm>
</extensions>
</trkpt>
<trkpt lat="63.828540802" lon="-19.207347870">
<ele>559.234375</ele>
<time>2012-07-26T11:18:19Z</time>
<speed>0.010000</speed>
<extensions>
<speed>0.0</speed>
<temp>0.00</temp>
<bpm>0</bpm>
<rpm>0.00</rpm>
</extensions>
</trkpt>
<trkpt lat="63.828540802" lon="-19.207347870">
<ele>559.250000</ele>
<time>2012-07-26T11:18:24Z</time>
<speed>0.010000</speed>
<extensions>
<speed>0.0</speed>
<temp>0.00</temp>
<bpm>0</bpm>
<rpm>0.00</rpm>
</extensions>
</trkpt>
<trkpt lat="63.828544617" lon="-19.207347870">
<ele>559.281250</ele>
<time>2012-07-26T11:18:29Z</time>
<speed>0.030000</speed>
<extensions>
<speed>0.0</speed>
<temp>0.00</temp>
<bpm>0</bpm>
<rpm>0.00</rpm>
</extensions>
</trkpt>
<trkpt lat="63.828544617" lon="-19.207349777">
<ele>559.296875</ele>
<time>2012-07-26T11:18:34Z</time>
<speed>0.020000</speed>
<extensions>
<speed>0.0</speed>
<temp>0.00</temp>
<bpm>0</bpm>
<rpm>0.00</rpm>
</extensions>
</trkpt>
<trkpt lat="63.828544617" lon="-19.207349777">
<ele>559.343750</ele>
<time>2012-07-26T11:18:39Z</time>
<speed>0.030000</speed>
<extensions>
<speed>0.0</speed>
<temp>0.00</temp>
<bpm>0</bpm>
<rpm>0.00</rpm>
</extensions>
</trkpt>
<trkpt lat="63.828544617" lon="-19.207351685">
<ele>559.359375</ele>
<time>2012-07-26T11:18:44Z</time>
<speed>0.010000</speed>
<extensions>
<speed>0.0</speed>
<temp>0.00</temp>
<bpm>0</bpm>
<rpm>0.00</rpm>
</extensions>
</trkpt>
<trkpt lat="63.828544617" lon="-19.207351685">
<ele>559.406250</ele>
<time>2012-07-26T11:18:49Z</time>
<speed>0.020000</speed>
<extensions>
<speed>0.0</speed>
<temp>0.00</temp>
<bpm>0</bpm>
<rpm>0.00</rpm>
</extensions>
</trkpt>
<trkpt lat="63.828544617" lon="-19.207353592">
<ele>559.437500</ele>
<time>2012-07-26T11:18:54Z</time>
<speed>0.010000</speed>
<extensions>
<speed>0.0</speed>
<temp>0.00</temp>
<bpm>0</bpm>
<rpm>0.00</rpm>
</extensions>
</trkpt>
<trkpt lat="63.828544617" lon="-19.207353592">
<ele>559.453125</ele>
<time>2012-07-26T11:18:59Z</time>
<extensions>
<speed>0.0</speed>
<temp>0.00</temp>
<bpm>0</bpm>
<rpm>0.00</rpm>
</extensions>
</trkpt>
<trkpt lat="63.828544617" lon="-19.207355499">
<ele>559.484375</ele>
<time>2012-07-26T11:19:04Z</time>
<speed>0.010000</speed>
<extensions>
<speed>0.0</speed>
<temp>0.00</temp>
<bpm>0</bpm>
<rpm>0.00</rpm>
</extensions>
</trkpt>
<trkpt lat="63.828544617" lon="-19.207355499">
<ele>559.515625</ele>
<time>2012-07-26T11:19:09Z</time>
<speed>0.010000</speed>
<extensions>
<speed>0.0</speed>
<temp>0.00</temp>
<bpm>0</bpm>
<rpm>0.00</rpm>
</extensions>
</trkpt>
<trkpt lat="63.828544617" lon="-19.207355499">
<ele>559.546875</ele>
<time>2012-07-26T11:19:14Z</time>
<speed>0.040000</speed>
<extensions>
<speed>0.0</speed>
<temp>0.00</temp>
<bpm>0</bpm>
<rpm>0.00</rpm>
</extensions>
</trkpt>
<trkpt lat="63.828544617" lon="-19.207357407">
<ele>559.593750</ele>
<time>2012-07-26T11:19:19Z</time>
<extensions>
<speed>0.0</speed>
<temp>0.00</temp>
<bpm>0</bpm>
<rpm>0.00</rpm>
</extensions>
</trkpt>
<trkpt lat="63.828544617" lon="-19.207357407">
<ele>559.593750</ele>
<time>2012-07-26T11:19:24Z</time>
<extensions>
<speed>0.0</speed>
<temp>0.00</temp>
<bpm>0</bpm>
<rpm>0.00</rpm>
</extensions>
</trkpt>
<trkpt lat="63.828544617" lon="-19.207357407">
<ele>559.625000</ele>
<time>2012-07-26T11:19:29Z</time>
<speed>0.010000</speed>
<extensions>
<speed>0.0</speed>
<temp>0.00</temp>
<bpm>0</bpm>
<rpm>0.00</rpm>
</extensions>
</trkpt>
<trkpt lat="63.828544617" lon="-19.207357407">
<ele>559.640625</ele>
<time>2012-07-26T11:19:34Z</time>
<speed>0.040000</speed>
<extensions>
<speed>0.0</speed>
<temp>0.00</temp>
<bpm>0</bpm>
<rpm>0.00</rpm>
</extensions>
</trkpt>
<trkpt lat="63.828544617" lon="-19.207355499">
<ele>559.625000</ele>
<time>2012-07-26T11:19:39Z</time>
<speed>0.040000</speed>
<extensions>
<speed>0.0</speed>
<temp>0.00</temp>
<bpm>0</bpm>
<rpm>0.00</rpm>
</extensions>
</trkpt>
<trkpt lat="63.828540802" lon="-19.207357407">
<ele>559.671875</ele>
<time>2012-07-26T11:19:44Z</time>
<speed>0.050000</speed>
<extensions>
<speed>0.1</speed>
<temp>0.00</temp>
<bpm>0</bpm>
<rpm>0.00</rpm>
</extensions>
</trkpt>
<trkpt lat="63.828540802" lon="-19.207357407">
<ele>559.687500</ele>
<time>2012-07-26T11:19:49Z</time>
<extensions>
<speed>0.0</speed>
<temp>0.00</temp>
<bpm>0</bpm>
<rpm>0.00</rpm>
</extensions>
</trkpt>
<trkpt lat="63.828540802" lon="-19.207357407">
<ele>559.718750</ele>
<time>2012-07-26T11:19:54Z</time>
<extensions>
<speed>0.0</speed>
<temp>0.00</temp>
<bpm>0</bpm>
<rpm>0.00</rpm>
</extensions>
</trkpt>
<trkpt lat="63.828540802" lon="-19.207357407">
<ele>559.718750</ele>
<time>2012-07-26T11:19:59Z</time>
<speed>0.090000</speed>
<extensions>
<speed>0.1</speed>
<temp>0.00</temp>
<bpm>0</bpm>
<rpm>0.00</rpm>
</extensions>
</trkpt>
<trkpt lat="63.828544617" lon="-19.207357407">
<ele>559.734375</ele>
<time>2012-07-26T11:20:04Z</time>
<extensions>
<speed>0.0</speed>
<temp>0.00</temp>
<bpm>0</bpm>
<rpm>0.00</rpm>
</extensions>
</trkpt>
<trkpt lat="63.828544617" lon="-19.207357407">
<ele>559.765625</ele>
<time>2012-07-26T11:20:09Z</time>
<speed>0.020000</speed>
<extensions>
<speed>0.0</speed>
<temp>0.00</temp>
<bpm>0</bpm>
<rpm>0.00</rpm>
</extensions>
</trkpt>
<trkpt lat="63.828544617" lon="-19.207359314">
<ele>559.781250</ele>
<time>2012-07-26T11:20:14Z</time>
<speed>0.010000</speed>
<extensions>
<speed>0.0</speed>
<temp>0.00</temp>
<bpm>0</bpm>
<rpm>0.00</rpm>
</extensions>
</trkpt>
<trkpt lat="63.828544617" lon="-19.207359314">
<ele>559.812500</ele>
<time>2012-07-26T11:20:19Z</time>
<speed>0.010000</speed>
<extensions>
<speed>0.0</speed>
<temp>0.00</temp>
<bpm>0</bpm>
<rpm>0.00</rpm>
</extensions>
</trkpt>
<trkpt lat="63.828544617" lon="-19.207359314">
<ele>559.828125</ele>
<time>2012-07-26T11:20:24Z</time>
<extensions>
<speed>0.0</speed>
<temp>0.00</temp>
<bpm>0</bpm>
<rpm>0.00</rpm>
</extensions>
</trkpt>
<trkpt lat="63.828544617" lon="-19.207359314">
<ele>559.859375</ele>
<time>2012-07-26T11:20:29Z</time>
<speed>0.070000</speed>
<extensions>
<speed>0.1</speed>
<temp>0.00</temp>
<bpm>0</bpm>
<rpm>0.00</rpm>
</extensions>
</trkpt>
<trkpt lat="63.828544617" lon="-19.207359314">
<ele>559.875000</ele>
<time>2012-07-26T11:20:34Z</time>
<speed>0.010000</speed>
<extensions>
<speed>0.0</speed>
<temp>0.00</temp>
<bpm>0</bpm>
<rpm>0.00</rpm>
</extensions>
</trkpt>
<trkpt lat="63.828544617" lon="-19.207359314">
<ele>559.890625</ele>
<time>2012-07-26T11:20:39Z</time>
<extensions>
<speed>0.0</speed>
<temp>0.00</temp>
<bpm>0</bpm>
<rpm>0.00</rpm>
</extensions>
</trkpt>
<trkpt lat="63.828544617" lon="-19.207359314">
<ele>559.906250</ele>
<time>2012-07-26T11:20:44Z</time>
<extensions>
<speed>0.0</speed>
<temp>0.00</temp>
<bpm>0</bpm>
<rpm>0.00</rpm>
</extensions>
</trkpt>
<trkpt lat="63.828544617" lon="-19.207359314">
<ele>559.906250</ele>
<time>2012-07-26T11:20:49Z</time>
<extensions>
<speed>0.0</speed>
<temp>0.00</temp>
<bpm>0</bpm>
<rpm>0.00</rpm>
</extensions>
</trkpt>
<trkpt lat="63.828544617" lon="-19.207359314">
<ele>559.921875</ele>
<time>2012-07-26T11:20:54Z</time>
<speed>0.010000</speed>
<extensions>
<speed>0.0</speed>
<temp>0.00</temp>
<bpm>0</bpm>
<rpm>0.00</rpm>
</extensions>
</trkpt>
<trkpt lat="63.828548431" lon="-19.207359314">
<ele>559.921875</ele>
<time>2012-07-26T11:20:59Z</time>
<extensions>
<speed>0.0</speed>
<temp>0.00</temp>
<bpm>0</bpm>
<rpm>0.00</rpm>
</extensions>
</trkpt>
<trkpt lat="63.828548431" lon="-19.207357407">
<ele>559.906250</ele>
<time>2012-07-26T11:21:04Z</time>
<extensions>
<speed>0.0</speed>
<temp>0.00</temp>
<bpm>0</bpm>
<rpm>0.00</rpm>
</extensions>
</trkpt>
<trkpt lat="63.828548431" lon="-19.207357407">
<ele>559.906250</ele>
<time>2012-07-26T11:21:09Z</time>
<speed>0.010000</speed>
<extensions>
<speed>0.0</speed>
<temp>0.00</temp>
<bpm>0</bpm>
<rpm>0.00</rpm>
</extensions>
</trkpt>
<trkpt lat="63.828548431" lon="-19.207357407">
<ele>559.906250</ele>
<time>2012-07-26T11:21:14Z</time>
<speed>0.010000</speed>
<extensions>
<speed>0.0</speed>
<temp>0.00</temp>
<bpm>0</bpm>
<rpm>0.00</rpm>
</extensions>
</trkpt>
<trkpt lat="63.828548431" lon="-19.207357407">
<ele>559.906250</ele>
<time>2012-07-26T11:21:19Z</time>
<speed>0.010000</speed>
<extensions>
<speed>0.0</speed>
<temp>0.00</temp>
<bpm>0</bpm>
<rpm>0.00</rpm>
</extensions>
</trkpt>
<trkpt lat="63.828548431" lon="-19.207357407">
<ele>559.906250</ele>
<time>2012-07-26T11:21:24Z</time>
<speed>0.010000</speed>
<extensions>
<speed>0.0</speed>
<temp>0.00</temp>
<bpm>0</bpm>
<rpm>0.00</rpm>
</extensions>
</trkpt>
<trkpt lat="63.828548431" lon="-19.207357407">
<ele>559.921875</ele>
<time>2012-07-26T11:21:29Z</time>
<speed>0.020000</speed>
<extensions>
<speed>0.0</speed>
<temp>0.00</temp>
<bpm>0</bpm>
<rpm>0.00</rpm>
</extensions>
</trkpt>
<trkpt lat="63.828548431" lon="-19.207357407">
<ele>559.921875</ele>
<time>2012-07-26T11:21:34Z</time>
<speed>0.010000</speed>
<extensions>
<speed>0.0</speed>
<temp>0.00</temp>
<bpm>0</bpm>
<rpm>0.00</rpm>
</extensions>
</trkpt>
<trkpt lat="63.828548431" lon="-19.207357407">
<ele>559.921875</ele>
<time>2012-07-26T11:21:39Z</time>
<extensions>
<speed>0.0</speed>
<temp>0.00</temp>
<bpm>0</bpm>
<rpm>0.00</rpm>
</extensions>
</trkpt>
<trkpt lat="63.828548431" lon="-19.207357407">
<ele>559.921875</ele>
<time>2012-07-26T11:21:44Z</time>
<extensions>
<speed>0.0</speed>
<temp>0.00</temp>
<bpm>0</bpm>
<rpm>0.00</rpm>
</extensions>
</trkpt>
<trkpt lat="63.828548431" lon="-19.207355499">
<ele>559.921875</ele>
<time>2012-07-26T11:21:49Z</time>
<speed>0.010000</speed>
<extensions>
<speed>0.0</speed>
<temp>0.00</temp>
<bpm>0</bpm>
<rpm>0.00</rpm>
</extensions>
</trkpt>
<trkpt lat="63.828548431" lon="-19.207357407">
<ele>559.921875</ele>
<time>2012-07-26T11:21:54Z</time>
<extensions>
<speed>0.0</speed>
<temp>0.00</temp>
<bpm>0</bpm>
<rpm>0.00</rpm>
</extensions>
</trkpt>
<trkpt lat="63.828548431" lon="-19.207355499">
<ele>559.937500</ele>
<time>2012-07-26T11:21:59Z</time>
<extensions>
<speed>0.0</speed>
<temp>0.00</temp>
<bpm>0</bpm>
<rpm>0.00</rpm>
</extensions>
</trkpt>
<trkpt lat="63.828548431" lon="-19.207355499">
<ele>559.937500</ele>
<time>2012-07-26T11:22:04Z</time>
<extensions>
<speed>0.0</speed>
<temp>0.00</temp>
<bpm>0</bpm>
<rpm>0.00</rpm>
</extensions>
</trkpt>
<trkpt lat="63.828548431" lon="-19.207357407">
<ele>559.953125</ele>
<time>2012-07-26T11:22:09Z</time>
<extensions>
<speed>0.0</speed>
<temp>0.00</temp>
<bpm>0</bpm>
<rpm>0.00</rpm>
</extensions>
</trkpt>
<trkpt lat="63.828548431" lon="-19.207357407">
<ele>559.968750</ele>
<time>2012-07-26T11:22:14Z</time>
<extensions>
<speed>0.0</speed>
<temp>0.00</temp>
<bpm>0</bpm>
<rpm>0.00</rpm>
</extensions>
</trkpt>
<trkpt lat="63.828548431" lon="-19.207357407">
<ele>559.953125</ele>
<time>2012-07-26T11:22:19Z</time>
<speed>0.100000</speed>
<extensions>
<speed>0.1</speed>
<temp>0.00</temp>
<bpm>0</bpm>
<rpm>0.00</rpm>
</extensions>
</trkpt>
<trkpt lat="63.828552246" lon="-19.207357407">
<ele>559.953125</ele>
<time>2012-07-26T11:22:24Z</time>
<speed>0.010000</speed>
<extensions>
<speed>0.0</speed>
<temp>0.00</temp>
<bpm>0</bpm>
<rpm>0.00</rpm>
</extensions>
</trkpt>
<trkpt lat="63.828552246" lon="-19.207357407">
<ele>559.953125</ele>
<time>2012-07-26T11:22:29Z</time>
<extensions>
<speed>0.0</speed>
<temp>0.00</temp>
<bpm>0</bpm>
<rpm>0.00</rpm>
</extensions>
</trkpt>
<trkpt lat="63.828552246" lon="-19.207357407">
<ele>559.937500</ele>
<time>2012-07-26T11:22:34Z</time>
<speed>0.030000</speed>
<extensions>
<speed>0.0</speed>
<temp>0.00</temp>
<bpm>0</bpm>
<rpm>0.00</rpm>
</extensions>
</trkpt>
<trkpt lat="63.828552246" lon="-19.207355499">
<ele>559.937500</ele>
<time>2012-07-26T11:22:39Z</time>
<speed>0.060000</speed>
<extensions>
<speed>0.1</speed>
<temp>0.00</temp>
<bpm>0</bpm>
<rpm>0.00</rpm>
</extensions>
</trkpt>
<trkpt lat="63.828556061" lon="-19.207357407">
<ele>559.937500</ele>
<time>2012-07-26T11:22:44Z</time>
<speed>0.070000</speed>
<extensions>
<speed>0.1</speed>
<temp>0.00</temp>
<bpm>0</bpm>
<rpm>0.00</rpm>
</extensions>
</trkpt>
<trkpt lat="63.828559875" lon="-19.207361221">
<ele>559.921875</ele>
<time>2012-07-26T11:22:49Z</time>
<speed>0.100000</speed>
<extensions>
<speed>0.1</speed>
<temp>0.00</temp>
<bpm>0</bpm>
<rpm>0.00</rpm>
</extensions>
</trkpt>
<trkpt lat="63.828563690" lon="-19.207366943">
<ele>559.921875</ele>
<time>2012-07-26T11:22:54Z</time>
<speed>0.090000</speed>
<extensions>
<speed>0.1</speed>
<temp>0.00</temp>
<bpm>0</bpm>
<rpm>0.00</rpm>
</extensions>
</trkpt>
<trkpt lat="63.828571320" lon="-19.207366943">
<ele>559.921875</ele>
<time>2012-07-26T11:22:59Z</time>
<speed>0.110000</speed>
<extensions>
<speed>0.1</speed>
<temp>0.00</temp>
<bpm>0</bpm>
<rpm>0.00</rpm>
</extensions>
</trkpt>
<trkpt lat="63.828575134" lon="-19.207366943">
<ele>559.921875</ele>
<time>2012-07-26T11:23:04Z</time>
<speed>0.120000</speed>
<extensions>
<speed>0.1</speed>
<temp>0.00</temp>
<bpm>0</bpm>
<rpm>0.00</rpm>
</extensions>
</trkpt>
<trkpt lat="63.828582764" lon="-19.207368851">
<ele>559.890625</ele>
<time>2012-07-26T11:23:09Z</time>
<speed>0.160000</speed>
<extensions>
<speed>0.2</speed>
<temp>0.00</temp>
<bpm>0</bpm>
<rpm>0.00</rpm>
</extensions>
</trkpt>
<trkpt lat="63.828590393" lon="-19.207370758">
<ele>559.859375</ele>
<time>2012-07-26T11:23:14Z</time>
<speed>0.180000</speed>
<extensions>
<speed>0.2</speed>
<temp>0.00</temp>
<bpm>0</bpm>
<rpm>0.00</rpm>
</extensions>
</trkpt>
<trkpt lat="63.828598022" lon="-19.207378387">
<ele>559.812500</ele>
<time>2012-07-26T11:23:19Z</time>
<speed>0.160000</speed>
<extensions>
<speed>0.2</speed>
<temp>0.00</temp>
<bpm>0</bpm>
<rpm>0.00</rpm>
</extensions>
</trkpt>
<trkpt lat="63.828605652" lon="-19.207387924">
<ele>559.765625</ele>
<time>2012-07-26T11:23:24Z</time>
<speed>0.210000</speed>
<extensions>
<speed>0.2</speed>
<temp>0.00</temp>
<bpm>0</bpm>
<rpm>0.00</rpm>
</extensions>
</trkpt>
<trkpt lat="63.828613281" lon="-19.207393646">
<ele>559.734375</ele>
<time>2012-07-26T11:23:29Z</time>
<speed>0.180000</speed>
<extensions>
<speed>0.2</speed>
<temp>0.00</temp>
<bpm>0</bpm>
<rpm>0.00</rpm>
</extensions>
</trkpt>
<trkpt lat="63.828620911" lon="-19.207393646">
<ele>559.718750</ele>
<time>2012-07-26T11:23:34Z</time>
<speed>0.080000</speed>
<extensions>
<speed>0.1</speed>
<temp>0.00</temp>
<bpm>0</bpm>
<rpm>0.00</rpm>
</extensions>
</trkpt>
<trkpt lat="63.828624725" lon="-19.207389832">
<ele>559.687500</ele>
<time>2012-07-26T11:23:39Z</time>
<speed>0.110000</speed>
<extensions>
<speed>0.1</speed>
<temp>0.00</temp>
<bpm>0</bpm>
<rpm>0.00</rpm>
</extensions>
</trkpt>
<trkpt lat="63.828628540" lon="-19.207382202">
<ele>559.640625</ele>
<time>2012-07-26T11:23:44Z</time>
<speed>0.110000</speed>
<extensions>
<speed>0.1</speed>
<temp>0.00</temp>
<bpm>0</bpm>
<rpm>0.00</rpm>
</extensions>
</trkpt>
<trkpt lat="63.828632355" lon="-19.207378387">
<ele>559.593750</ele>
<time>2012-07-26T11:23:49Z</time>
<speed>0.030000</speed>
<extensions>
<speed>0.0</speed>
<temp>0.00</temp>
<bpm>0</bpm>
<rpm>0.00</rpm>
</extensions>
</trkpt>
<trkpt lat="63.828632355" lon="-19.207374573">
<ele>559.562500</ele>
<time>2012-07-26T11:23:54Z</time>
<speed>0.070000</speed>
<extensions>
<speed>0.1</speed>
<temp>0.00</temp>
<bpm>0</bpm>
<rpm>0.00</rpm>
</extensions>
</trkpt>
<trkpt lat="63.828628540" lon="-19.207368851">
<ele>559.515625</ele>
<time>2012-07-26T11:23:59Z</time>
<speed>0.120000</speed>
<extensions>
<speed>0.1</speed>
<temp>0.00</temp>
<bpm>0</bpm>
<rpm>0.00</rpm>
</extensions>
</trkpt>
<trkpt lat="63.828624725" lon="-19.207365036">
<ele>559.468750</ele>
<time>2012-07-26T11:24:04Z</time>
<speed>0.130000</speed>
<extensions>
<speed>0.1</speed>
<temp>0.00</temp>
<bpm>0</bpm>
<rpm>0.00</rpm>
</extensions>
</trkpt>
<trkpt lat="63.828617096" lon="-19.207361221">
<ele>559.406250</ele>
<time>2012-07-26T11:24:09Z</time>
<speed>0.130000</speed>
<extensions>
<speed>0.1</speed>
<temp>0.00</temp>
<bpm>0</bpm>
<rpm>0.00</rpm>
</extensions>
</trkpt>
<trkpt lat="63.828613281" lon="-19.207353592">
<ele>559.375000</ele>
<time>2012-07-26T11:24:14Z</time>
<speed>0.130000</speed>
<extensions>
<speed>0.1</speed>
<temp>0.00</temp>
<bpm>0</bpm>
<rpm>0.00</rpm>
</extensions>
</trkpt>
<trkpt lat="63.828605652" lon="-19.207347870">
<ele>559.359375</ele>
<time>2012-07-26T11:24:19Z</time>
<speed>0.110000</speed>
<extensions>
<speed>0.1</speed>
<temp>0.00</temp>
<bpm>0</bpm>
<rpm>0.00</rpm>
</extensions>
</trkpt>
<trkpt lat="63.828601837" lon="-19.207345963">
<ele>559.375000</ele>
<time>2012-07-26T11:24:24Z</time>
<speed>0.100000</speed>
<extensions>
<speed>0.1</speed>
<temp>0.00</temp>
<bpm>0</bpm>
<rpm>0.00</rpm>
</extensions>
</trkpt>
<trkpt lat="63.828598022" lon="-19.207345963">
<ele>559.406250</ele>
<time>2012-07-26T11:24:29Z</time>
<speed>0.110000</speed>
<extensions>
<speed>0.1</speed>
<temp>0.00</temp>
<bpm>0</bpm>
<rpm>0.00</rpm>
</extensions>
</trkpt>
<trkpt lat="63.828594208" lon="-19.207344055">
<ele>559.390625</ele>
<time>2012-07-26T11:24:34Z</time>
<speed>0.110000</speed>
<extensions>
<speed>0.1</speed>
<temp>0.00</temp>
<bpm>0</bpm>
<rpm>0.00</rpm>
</extensions>
</trkpt>
<trkpt lat="63.828586578" lon="-19.207342148">
<ele>559.343750</ele>
<time>2012-07-26T11:24:39Z</time>
<speed>0.100000</speed>
<extensions>
<speed>0.1</speed>
<temp>0.00</temp>
<bpm>0</bpm>
<rpm>0.00</rpm>
</extensions>
</trkpt>
<trkpt lat="63.828582764" lon="-19.207344055">
<ele>559.312500</ele>
<time>2012-07-26T11:24:44Z</time>
<speed>0.090000</speed>
<extensions>
<speed>0.1</speed>
<temp>0.00</temp>
<bpm>0</bpm>
<rpm>0.00</rpm>
</extensions>
</trkpt>
<trkpt lat="63.828578949" lon="-19.207351685">
<ele>559.218750</ele>
<time>2012-07-26T11:24:49Z</time>
<speed>0.100000</speed>
<extensions>
<speed>0.1</speed>
<temp>0.00</temp>
<bpm>0</bpm>
<rpm>0.00</rpm>
</extensions>
</trkpt>
<trkpt lat="63.828575134" lon="-19.207359314">
<ele>559.156250</ele>
<time>2012-07-26T11:24:54Z</time>
<speed>0.130000</speed>
<extensions>
<speed>0.1</speed>
<temp>0.00</temp>
<bpm>0</bpm>
<rpm>0.00</rpm>
</extensions>
</trkpt>
<trkpt lat="63.828571320" lon="-19.207365036">
<ele>559.062500</ele>
<time>2012-07-26T11:24:59Z</time>
<speed>0.050000</speed>
<extensions>
<speed>0.1</speed>
<temp>0.00</temp>
<bpm>0</bpm>
<rpm>0.00</rpm>
</extensions>
</trkpt>
<trkpt lat="63.828571320" lon="-19.207366943">
<ele>559.000000</ele>
<time>2012-07-26T11:25:04Z</time>
<speed>0.020000</speed>
<extensions>
<speed>0.0</speed>
<temp>0.00</temp>
<bpm>0</bpm>
<rpm>0.00</rpm>
</extensions>
</trkpt>
<trkpt lat="63.828571320" lon="-19.207370758">
<ele>558.937500</ele>
<time>2012-07-26T11:25:09Z</time>
<speed>0.030000</speed>
<extensions>
<speed>0.0</speed>
<temp>0.00</temp>
<bpm>0</bpm>
<rpm>0.00</rpm>
</extensions>
</trkpt>
<trkpt lat="63.828571320" lon="-19.207370758">
<ele>558.937500</ele>
<time>2012-07-26T11:25:14Z</time>
<extensions>
<speed>0.0</speed>
<temp>0.00</temp>
<bpm>0</bpm>
<rpm>0.00</rpm>
</extensions>
</trkpt>
<trkpt lat="63.828571320" lon="-19.207372665">
<ele>558.937500</ele>
<time>2012-07-26T11:25:19Z</time>
<speed>0.010000</speed>
<extensions>
<speed>0.0</speed>
<temp>0.00</temp>
<bpm>0</bpm>
<rpm>0.00</rpm>
</extensions>
</trkpt>
<trkpt lat="63.828571320" lon="-19.207370758">
<ele>558.921875</ele>
<time>2012-07-26T11:25:24Z</time>
<speed>0.070000</speed>
<extensions>
<speed>0.1</speed>
<temp>0.00</temp>
<bpm>0</bpm>
<rpm>0.00</rpm>
</extensions>
</trkpt>
<trkpt lat="63.828571320" lon="-19.207370758">
<ele>558.921875</ele>
<time>2012-07-26T11:25:29Z</time>
<speed>0.010000</speed>
<extensions>
<speed>0.0</speed>
<temp>0.00</temp>
<bpm>0</bpm>
<rpm>0.00</rpm>
</extensions>
</trkpt>
<trkpt lat="63.828571320" lon="-19.207370758">
<ele>558.921875</ele>
<time>2012-07-26T11:25:34Z</time>
<speed>0.020000</speed>
<extensions>
<speed>0.0</speed>
<temp>0.00</temp>
<bpm>0</bpm>
<rpm>0.00</rpm>
</extensions>
</trkpt>
<trkpt lat="63.828571320" lon="-19.207370758">
<ele>558.906250</ele>
<time>2012-07-26T11:25:39Z</time>
<speed>0.020000</speed>
<extensions>
<speed>0.0</speed>
<temp>0.00</temp>
<bpm>0</bpm>
<rpm>0.00</rpm>
</extensions>
</trkpt>
<trkpt lat="63.828571320" lon="-19.207370758">
<ele>558.875000</ele>
<time>2012-07-26T11:25:44Z</time>
<extensions>
<speed>0.0</speed>
<temp>0.00</temp>
<bpm>0</bpm>
<rpm>0.00</rpm>
</extensions>
</trkpt>
<trkpt lat="63.828571320" lon="-19.207370758">
<ele>558.843750</ele>
<time>2012-07-26T11:25:49Z</time>
<extensions>
<speed>0.0</speed>
<temp>0.00</temp>
<bpm>0</bpm>
<rpm>0.00</rpm>
</extensions>
</trkpt>
<trkpt lat="63.828571320" lon="-19.207370758">
<ele>558.875000</ele>
<time>2012-07-26T11:25:54Z</time>
<extensions>
<speed>0.0</speed>
<temp>0.00</temp>
<bpm>0</bpm>
<rpm>0.00</rpm>
</extensions>
</trkpt>
<trkpt lat="63.828571320" lon="-19.207370758">
<ele>558.843750</ele>
<time>2012-07-26T11:25:59Z</time>
<extensions>
<speed>0.0</speed>
<temp>0.00</temp>
<bpm>0</bpm>
<rpm>0.00</rpm>
</extensions>
</trkpt>
<trkpt lat="63.828571320" lon="-19.207370758">
<ele>558.843750</ele>
<time>2012-07-26T11:26:04Z</time>
<extensions>
<speed>0.0</speed>
<temp>0.00</temp>
<bpm>0</bpm>
<rpm>0.00</rpm>
</extensions>
</trkpt>
<trkpt lat="63.828571320" lon="-19.207370758">
<ele>558.859375</ele>
<time>2012-07-26T11:26:09Z</time>
<speed>0.020000</speed>
<extensions>
<speed>0.0</speed>
<temp>0.00</temp>
<bpm>0</bpm>
<rpm>0.00</rpm>
</extensions>
</trkpt>
<trkpt lat="63.828575134" lon="-19.207370758">
<ele>558.859375</ele>
<time>2012-07-26T11:26:14Z</time>
<speed>0.040000</speed>
<extensions>
<speed>0.0</speed>
<temp>0.00</temp>
<bpm>0</bpm>
<rpm>0.00</rpm>
</extensions>
</trkpt>
<trkpt lat="63.828575134" lon="-19.207370758">
<ele>558.890625</ele>
<time>2012-07-26T11:26:19Z</time>
<extensions>
<speed>0.0</speed>
<temp>0.00</temp>
<bpm>0</bpm>
<rpm>0.00</rpm>
</extensions>
</trkpt>
<trkpt lat="63.828575134" lon="-19.207370758">
<ele>558.906250</ele>
<time>2012-07-26T11:26:24Z</time>
<speed>0.010000</speed>
<extensions>
<speed>0.0</speed>
<temp>0.00</temp>
<bpm>0</bpm>
<rpm>0.00</rpm>
</extensions>
</trkpt>
<trkpt lat="63.828575134" lon="-19.207370758">
<ele>558.921875</ele>
<time>2012-07-26T11:26:29Z</time>
<extensions>
<speed>0.0</speed>
<temp>0.00</temp>
<bpm>0</bpm>
<rpm>0.00</rpm>
</extensions>
</trkpt>
<trkpt lat="63.828575134" lon="-19.207370758">
<ele>558.937500</ele>
<time>2012-07-26T11:26:34Z</time>
<speed>0.010000</speed>
<extensions>
<speed>0.0</speed>
<temp>0.00</temp>
<bpm>0</bpm>
<rpm>0.00</rpm>
</extensions>
</trkpt>
<trkpt lat="63.828575134" lon="-19.207370758">
<ele>558.968750</ele>
<time>2012-07-26T11:26:39Z</time>
<speed>0.020000</speed>
<extensions>
<speed>0.0</speed>
<temp>0.00</temp>
<bpm>0</bpm>
<rpm>0.00</rpm>
</extensions>
</trkpt>
<trkpt lat="63.828575134" lon="-19.207372665">
<ele>559.000000</ele>
<time>2012-07-26T11:26:44Z</time>
<speed>0.010000</speed>
<extensions>
<speed>0.0</speed>
<temp>0.00</temp>
<bpm>0</bpm>
<rpm>0.00</rpm>
</extensions>
</trkpt>
<trkpt lat="63.828575134" lon="-19.207372665">
<ele>559.031250</ele>
<time>2012-07-26T11:26:49Z</time>
<extensions>
<speed>0.0</speed>
<temp>0.00</temp>
<bpm>0</bpm>
<rpm>0.00</rpm>
</extensions>
</trkpt>
<trkpt lat="63.828575134" lon="-19.207372665">
<ele>559.015625</ele>
<time>2012-07-26T11:26:54Z</time>
<speed>0.030000</speed>
<extensions>
<speed>0.0</speed>
<temp>0.00</temp>
<bpm>0</bpm>
<rpm>0.00</rpm>
</extensions>
</trkpt>
<trkpt lat="63.828575134" lon="-19.207372665">
<ele>559.046875</ele>
<time>2012-07-26T11:26:59Z</time>
<extensions>
<speed>0.0</speed>
<temp>0.00</temp>
<bpm>0</bpm>
<rpm>0.00</rpm>
</extensions>
</trkpt>
<trkpt lat="63.828575134" lon="-19.207372665">
<ele>559.078125</ele>
<time>2012-07-26T11:27:04Z</time>
<extensions>
<speed>0.0</speed>
<temp>0.00</temp>
<bpm>0</bpm>
<rpm>0.00</rpm>
</extensions>
</trkpt>
<trkpt lat="63.828586578" lon="-19.207386017">
<ele>559.562500</ele>
<time>2012-07-26T11:27:09Z</time>
<speed>0.420000</speed>
<extensions>
<speed>0.4</speed>
<temp>0.00</temp>
<bpm>0</bpm>
<rpm>0.00</rpm>
</extensions>
</trkpt>
<trkpt lat="63.828594208" lon="-19.207403183">
<ele>559.078125</ele>
<time>2012-07-26T11:27:14Z</time>
<speed>0.040000</speed>
<extensions>
<speed>0.0</speed>
<temp>0.00</temp>
<bpm>0</bpm>
<rpm>0.00</rpm>
</extensions>
</trkpt>
<trkpt lat="63.828594208" lon="-19.207408905">
<ele>559.062500</ele>
<time>2012-07-26T11:27:19Z</time>
<speed>0.010000</speed>
<extensions>
<speed>0.0</speed>
<temp>0.00</temp>
<bpm>0</bpm>
<rpm>0.00</rpm>
</extensions>
</trkpt>
<trkpt lat="63.828590393" lon="-19.207410812">
<ele>559.046875</ele>
<time>2012-07-26T11:27:24Z</time>
<speed>0.050000</speed>
<extensions>
<speed>0.1</speed>
<temp>0.00</temp>
<bpm>0</bpm>
<rpm>0.00</rpm>
</extensions>
</trkpt>
<trkpt lat="63.828590393" lon="-19.207410812">
<ele>559.046875</ele>
<time>2012-07-26T11:27:29Z</time>
<speed>0.020000</speed>
<extensions>
<speed>0.0</speed>
<temp>0.00</temp>
<bpm>0</bpm>
<rpm>0.00</rpm>
</extensions>
</trkpt>
<trkpt lat="63.828590393" lon="-19.207410812">
<ele>559.031250</ele>
<time>2012-07-26T11:27:34Z</time>
<extensions>
<speed>0.0</speed>
<temp>0.00</temp>
<bpm>0</bpm>
<rpm>0.00</rpm>
</extensions>
</trkpt>
<trkpt lat="63.828590393" lon="-19.207410812">
<ele>559.046875</ele>
<time>2012-07-26T11:27:39Z</time>
<extensions>
<speed>0.0</speed>
<temp>0.00</temp>
<bpm>0</bpm>
<rpm>0.00</rpm>
</extensions>
</trkpt>
<trkpt lat="63.828594208" lon="-19.207408905">
<ele>559.046875</ele>
<time>2012-07-26T11:27:44Z</time>
<speed>0.020000</speed>
<extensions>
<speed>0.0</speed>
<temp>0.00</temp>
<bpm>0</bpm>
<rpm>0.00</rpm>
</extensions>
</trkpt>
<trkpt lat="63.828594208" lon="-19.207406998">
<ele>559.046875</ele>
<time>2012-07-26T11:27:49Z</time>
<speed>0.070000</speed>
<extensions>
<speed>0.1</speed>
<temp>0.00</temp>
<bpm>0</bpm>
<rpm>0.00</rpm>
</extensions>
</trkpt>
<trkpt lat="63.828598022" lon="-19.207405090">
<ele>559.031250</ele>
<time>2012-07-26T11:27:54Z</time>
<speed>0.080000</speed>
<extensions>
<speed>0.1</speed>
<temp>0.00</temp>
<bpm>0</bpm>
<rpm>0.00</rpm>
</extensions>
</trkpt>
<trkpt lat="63.828601837" lon="-19.207399368">
<ele>559.031250</ele>
<time>2012-07-26T11:27:59Z</time>
<speed>0.110000</speed>
<extensions>
<speed>0.1</speed>
<temp>0.00</temp>
<bpm>0</bpm>
<rpm>0.00</rpm>
</extensions>
</trkpt>
<trkpt lat="63.828605652" lon="-19.207391739">
<ele>559.046875</ele>
<time>2012-07-26T11:28:04Z</time>
<speed>0.090000</speed>
<extensions>
<speed>0.1</speed>
<temp>0.00</temp>
<bpm>0</bpm>
<rpm>0.00</rpm>
</extensions>
</trkpt>
<trkpt lat="63.828609467" lon="-19.207386017">
<ele>559.046875</ele>
<time>2012-07-26T11:28:09Z</time>
<speed>0.090000</speed>
<extensions>
<speed>0.1</speed>
<temp>0.00</temp>
<bpm>0</bpm>
<rpm>0.00</rpm>
</extensions>
</trkpt>
<trkpt lat="63.828613281" lon="-19.207380295">
<ele>559.046875</ele>
<time>2012-07-26T11:28:14Z</time>
<speed>0.090000</speed>
<extensions>
<speed>0.1</speed>
<temp>0.00</temp>
<bpm>0</bpm>
<rpm>0.00</rpm>
</extensions>
</trkpt>
<trkpt lat="63.828617096" lon="-19.207376480">
<ele>559.062500</ele>
<time>2012-07-26T11:28:19Z</time>
<speed>0.130000</speed>
<extensions>
<speed>0.1</speed>
<temp>0.00</temp>
<bpm>0</bpm>
<rpm>0.00</rpm>
</extensions>
</trkpt>
<trkpt lat="63.828624725" lon="-19.207378387">
<ele>559.062500</ele>
<time>2012-07-26T11:28:24Z</time>
<speed>0.110000</speed>
<extensions>
<speed>0.1</speed>
<temp>0.00</temp>
<bpm>0</bpm>
<rpm>0.00</rpm>
</extensions>
</trkpt>
<trkpt lat="63.828628540" lon="-19.207387924">
<ele>559.062500</ele>
<time>2012-07-26T11:28:29Z</time>
<speed>0.160000</speed>
<extensions>
<speed>0.2</speed>
<temp>0.00</temp>
<bpm>0</bpm>
<rpm>0.00</rpm>
</extensions>
</trkpt>
<trkpt lat="63.828636169" lon="-19.207395554">
<ele>559.062500</ele>
<time>2012-07-26T11:28:34Z</time>
<speed>0.130000</speed>
<extensions>
<speed>0.1</speed>
<temp>0.00</temp>
<bpm>0</bpm>
<rpm>0.00</rpm>
</extensions>
</trkpt>
<trkpt lat="63.828639984" lon="-19.207406998">
<ele>559.093750</ele>
<time>2012-07-26T11:28:39Z</time>
<speed>0.150000</speed>
<extensions>
<speed>0.2</speed>
<temp>0.00</temp>
<bpm>0</bpm>
<rpm>0.00</rpm>
</extensions>
</trkpt>
<trkpt lat="63.828647614" lon="-19.207416534">
<ele>559.140625</ele>
<time>2012-07-26T11:28:44Z</time>
<speed>0.160000</speed>
<extensions>
<speed>0.2</speed>
<temp>0.00</temp>
<bpm>0</bpm>
<rpm>0.00</rpm>
</extensions>
</trkpt>
<trkpt lat="63.828651428" lon="-19.207427979">
<ele>559.203125</ele>
<time>2012-07-26T11:28:49Z</time>
<speed>0.120000</speed>
<extensions>
<speed>0.1</speed>
<temp>0.00</temp>
<bpm>0</bpm>
<rpm>0.00</rpm>
</extensions>
</trkpt>
<trkpt lat="63.828655243" lon="-19.207437515">
<ele>559.265625</ele>
<time>2012-07-26T11:28:54Z</time>
<speed>0.090000</speed>
<extensions>
<speed>0.1</speed>
<temp>0.00</temp>
<bpm>0</bpm>
<rpm>0.00</rpm>
</extensions>
</trkpt>
<trkpt lat="63.828659058" lon="-19.207445145">
<ele>559.343750</ele>
<time>2012-07-26T11:28:59Z</time>
<speed>0.060000</speed>
<extensions>
<speed>0.1</speed>
<temp>0.00</temp>
<bpm>0</bpm>
<rpm>0.00</rpm>
</extensions>
</trkpt>
<trkpt lat="63.828659058" lon="-19.207454681">
<ele>559.406250</ele>
<time>2012-07-26T11:29:04Z</time>
<speed>0.050000</speed>
<extensions>
<speed>0.1</speed>
<temp>0.00</temp>
<bpm>0</bpm>
<rpm>0.00</rpm>
</extensions>
</trkpt>
<trkpt lat="63.828659058" lon="-19.207454681">
<ele>559.437500</ele>
<time>2012-07-26T11:29:09Z</time>
<speed>0.020000</speed>
<extensions>
<speed>0.0</speed>
<temp>0.00</temp>
<bpm>0</bpm>
<rpm>0.00</rpm>
</extensions>
</trkpt>
<trkpt lat="63.828659058" lon="-19.207454681">
<ele>559.500000</ele>
<time>2012-07-26T11:29:14Z</time>
<speed>0.010000</speed>
<extensions>
<speed>0.0</speed>
<temp>0.00</temp>
<bpm>0</bpm>
<rpm>0.00</rpm>
</extensions>
</trkpt>
<trkpt lat="63.828659058" lon="-19.207454681">
<ele>559.531250</ele>
<time>2012-07-26T11:29:19Z</time>
<speed>0.030000</speed>
<extensions>
<speed>0.0</speed>
<temp>0.00</temp>
<bpm>0</bpm>
<rpm>0.00</rpm>
</extensions>
</trkpt>
<trkpt lat="63.828659058" lon="-19.207454681">
<ele>559.546875</ele>
<time>2012-07-26T11:29:24Z</time>
<speed>0.010000</speed>
<extensions>
<speed>0.0</speed>
<temp>0.00</temp>
<bpm>0</bpm>
<rpm>0.00</rpm>
</extensions>
</trkpt>
<trkpt lat="63.828659058" lon="-19.207454681">
<ele>559.671875</ele>
<time>2012-07-26T11:29:29Z</time>
<extensions>
<speed>0.0</speed>
<temp>0.00</temp>
<bpm>0</bpm>
<rpm>0.00</rpm>
</extensions>
</trkpt>
<trkpt lat="63.828659058" lon="-19.207454681">
<ele>559.703125</ele>
<time>2012-07-26T11:29:34Z</time>
<extensions>
<speed>0.0</speed>
<temp>0.00</temp>
<bpm>0</bpm>
<rpm>0.00</rpm>
</extensions>
</trkpt>
<trkpt lat="63.828659058" lon="-19.207454681">
<ele>559.687500</ele>
<time>2012-07-26T11:29:39Z</time>
<extensions>
<speed>0.0</speed>
<temp>0.00</temp>
<bpm>0</bpm>
<rpm>0.00</rpm>
</extensions>
</trkpt>
<trkpt lat="63.828659058" lon="-19.207454681">
<ele>559.687500</ele>
<time>2012-07-26T11:29:44Z</time>
<extensions>
<speed>0.0</speed>
<temp>0.00</temp>
<bpm>0</bpm>
<rpm>0.00</rpm>
</extensions>
</trkpt>
<trkpt lat="63.828659058" lon="-19.207454681">
<ele>559.687500</ele>
<time>2012-07-26T11:29:49Z</time>
<extensions>
<speed>0.0</speed>
<temp>0.00</temp>
<bpm>0</bpm>
<rpm>0.00</rpm>
</extensions>
</trkpt>
<trkpt lat="63.828659058" lon="-19.207454681">
<ele>559.703125</ele>
<time>2012-07-26T11:29:54Z</time>
<extensions>
<speed>0.0</speed>
<temp>0.00</temp>
<bpm>0</bpm>
<rpm>0.00</rpm>
</extensions>
</trkpt>
<trkpt lat="63.828659058" lon="-19.207454681">
<ele>559.718750</ele>
<time>2012-07-26T11:29:59Z</time>
<extensions>
<speed>0.0</speed>
<temp>0.00</temp>
<bpm>0</bpm>
<rpm>0.00</rpm>
</extensions>
</trkpt>
<trkpt lat="63.828659058" lon="-19.207454681">
<ele>559.718750</ele>
<time>2012-07-26T11:30:04Z</time>
<extensions>
<speed>0.0</speed>
<temp>0.00</temp>
<bpm>0</bpm>
<rpm>0.00</rpm>
</extensions>
</trkpt>
<trkpt lat="63.828659058" lon="-19.207454681">
<ele>559.718750</ele>
<time>2012-07-26T11:30:09Z</time>
<speed>0.010000</speed>
<extensions>
<speed>0.0</speed>
<temp>0.00</temp>
<bpm>0</bpm>
<rpm>0.00</rpm>
</extensions>
</trkpt>
<trkpt lat="63.828655243" lon="-19.207454681">
<ele>559.718750</ele>
<time>2012-07-26T11:30:14Z</time>
<speed>0.010000</speed>
<extensions>
<speed>0.0</speed>
<temp>0.00</temp>
<bpm>0</bpm>
<rpm>0.00</rpm>
</extensions>
</trkpt>
<trkpt lat="63.828655243" lon="-19.207454681">
<ele>559.734375</ele>
<time>2012-07-26T11:30:19Z</time>
<speed>0.020000</speed>
<extensions>
<speed>0.0</speed>
<temp>0.00</temp>
<bpm>0</bpm>
<rpm>0.00</rpm>
</extensions>
</trkpt>
<trkpt lat="63.828655243" lon="-19.207454681">
<ele>559.734375</ele>
<time>2012-07-26T11:30:24Z</time>
<speed>0.020000</speed>
<extensions>
<speed>0.0</speed>
<temp>0.00</temp>
<bpm>0</bpm>
<rpm>0.00</rpm>
</extensions>
</trkpt>
<trkpt lat="63.828655243" lon="-19.207452774">
<ele>559.750000</ele>
<time>2012-07-26T11:30:29Z</time>
<speed>0.060000</speed>
<extensions>
<speed>0.1</speed>
<temp>0.00</temp>
<bpm>0</bpm>
<rpm>0.00</rpm>
</extensions>
</trkpt>
<trkpt lat="63.828655243" lon="-19.207450867">
<ele>559.765625</ele>
<time>2012-07-26T11:30:34Z</time>
<speed>0.010000</speed>
<extensions>
<speed>0.0</speed>
<temp>0.00</temp>
<bpm>0</bpm>
<rpm>0.00</rpm>
</extensions>
</trkpt>
<trkpt lat="63.828655243" lon="-19.207450867">
<ele>559.781250</ele>
<time>2012-07-26T11:30:39Z</time>
<speed>0.010000</speed>
<extensions>
<speed>0.0</speed>
<temp>0.00</temp>
<bpm>0</bpm>
<rpm>0.00</rpm>
</extensions>
</trkpt>
<trkpt lat="63.828655243" lon="-19.207450867">
<ele>559.812500</ele>
<time>2012-07-26T11:30:44Z</time>
<speed>0.010000</speed>
<extensions>
<speed>0.0</speed>
<temp>0.00</temp>
<bpm>0</bpm>
<rpm>0.00</rpm>
</extensions>
</trkpt>
<trkpt lat="63.828655243" lon="-19.207450867">
<ele>559.828125</ele>
<time>2012-07-26T11:30:49Z</time>
<speed>0.010000</speed>
<extensions>
<speed>0.0</speed>
<temp>0.00</temp>
<bpm>0</bpm>
<rpm>0.00</rpm>
</extensions>
</trkpt>
<trkpt lat="63.828655243" lon="-19.207450867">
<ele>559.875000</ele>
<time>2012-07-26T11:30:54Z</time>
<speed>0.020000</speed>
<extensions>
<speed>0.0</speed>
<temp>0.00</temp>
<bpm>0</bpm>
<rpm>0.00</rpm>
</extensions>
</trkpt>
<trkpt lat="63.828655243" lon="-19.207450867">
<ele>559.921875</ele>
<time>2012-07-26T11:30:59Z</time>
<speed>0.010000</speed>
<extensions>
<speed>0.0</speed>
<temp>0.00</temp>
<bpm>0</bpm>
<rpm>0.00</rpm>
</extensions>
</trkpt>
<trkpt lat="63.828655243" lon="-19.207450867">
<ele>559.937500</ele>
<time>2012-07-26T11:31:04Z</time>
<extensions>
<speed>0.0</speed>
<temp>0.00</temp>
<bpm>0</bpm>
<rpm>0.00</rpm>
</extensions>
</trkpt>
<trkpt lat="63.828655243" lon="-19.207450867">
<ele>559.921875</ele>
<time>2012-07-26T11:31:09Z</time>
<extensions>
<speed>0.0</speed>
<temp>0.00</temp>
<bpm>0</bpm>
<rpm>0.00</rpm>
</extensions>
</trkpt>
<trkpt lat="63.828655243" lon="-19.207450867">
<ele>559.937500</ele>
<time>2012-07-26T11:31:14Z</time>
<speed>0.010000</speed>
<extensions>
<speed>0.0</speed>
<temp>0.00</temp>
<bpm>0</bpm>
<rpm>0.00</rpm>
</extensions>
</trkpt>
<trkpt lat="63.828655243" lon="-19.207450867">
<ele>559.921875</ele>
<time>2012-07-26T11:31:19Z</time>
<extensions>
<speed>0.0</speed>
<temp>0.00</temp>
<bpm>0</bpm>
<rpm>0.00</rpm>
</extensions>
</trkpt>
<trkpt lat="63.828655243" lon="-19.207450867">
<ele>559.921875</ele>
<time>2012-07-26T11:31:24Z</time>
<extensions>
<speed>0.0</speed>
<temp>0.00</temp>
<bpm>0</bpm>
<rpm>0.00</rpm>
</extensions>
</trkpt>
<trkpt lat="63.828655243" lon="-19.207450867">
<ele>559.921875</ele>
<time>2012-07-26T11:31:29Z</time>
<speed>0.010000</speed>
<extensions>
<speed>0.0</speed>
<temp>0.00</temp>
<bpm>0</bpm>
<rpm>0.00</rpm>
</extensions>
</trkpt>
<trkpt lat="63.828651428" lon="-19.207450867">
<ele>559.937500</ele>
<time>2012-07-26T11:31:34Z</time>
<speed>0.020000</speed>
<extensions>
<speed>0.0</speed>
<temp>0.00</temp>
<bpm>0</bpm>
<rpm>0.00</rpm>
</extensions>
</trkpt>
<trkpt lat="63.828651428" lon="-19.207450867">
<ele>559.953125</ele>
<time>2012-07-26T11:31:39Z</time>
<speed>0.020000</speed>
<extensions>
<speed>0.0</speed>
<temp>0.00</temp>
<bpm>0</bpm>
<rpm>0.00</rpm>
</extensions>
</trkpt>
<trkpt lat="63.828651428" lon="-19.207450867">
<ele>559.953125</ele>
<time>2012-07-26T11:31:44Z</time>
<speed>0.010000</speed>
<extensions>
<speed>0.0</speed>
<temp>0.00</temp>
<bpm>0</bpm>
<rpm>0.00</rpm>
</extensions>
</trkpt>
<trkpt lat="63.828651428" lon="-19.207450867">
<ele>559.953125</ele>
<time>2012-07-26T11:31:49Z</time>
<speed>0.030000</speed>
<extensions>
<speed>0.0</speed>
<temp>0.00</temp>
<bpm>0</bpm>
<rpm>0.00</rpm>
</extensions>
</trkpt>
<trkpt lat="63.828651428" lon="-19.207450867">
<ele>559.953125</ele>
<time>2012-07-26T11:31:54Z</time>
<speed>0.020000</speed>
<extensions>
<speed>0.0</speed>
<temp>0.00</temp>
<bpm>0</bpm>
<rpm>0.00</rpm>
</extensions>
</trkpt>
<trkpt lat="63.828651428" lon="-19.207448959">
<ele>559.953125</ele>
<time>2012-07-26T11:31:59Z</time>
<extensions>
<speed>0.0</speed>
<temp>0.00</temp>
<bpm>0</bpm>
<rpm>0.00</rpm>
</extensions>
</trkpt>
<trkpt lat="63.828651428" lon="-19.207450867">
<ele>559.937500</ele>
<time>2012-07-26T11:32:04Z</time>
<speed>0.010000</speed>
<extensions>
<speed>0.0</speed>
<temp>0.00</temp>
<bpm>0</bpm>
<rpm>0.00</rpm>
</extensions>
</trkpt>
<trkpt lat="63.828651428" lon="-19.207450867">
<ele>559.968750</ele>
<time>2012-07-26T11:32:09Z</time>
<speed>0.010000</speed>
<extensions>
<speed>0.0</speed>
<temp>0.00</temp>
<bpm>0</bpm>
<rpm>0.00</rpm>
</extensions>
</trkpt>
<trkpt lat="63.828651428" lon="-19.207450867">
<ele>559.968750</ele>
<time>2012-07-26T11:32:14Z</time>
<speed>0.030000</speed>
<extensions>
<speed>0.0</speed>
<temp>0.00</temp>
<bpm>0</bpm>
<rpm>0.00</rpm>
</extensions>
</trkpt>
<trkpt lat="63.828651428" lon="-19.207452774">
<ele>559.984375</ele>
<time>2012-07-26T11:32:19Z</time>
<extensions>
<speed>0.0</speed>
<temp>0.00</temp>
<bpm>0</bpm>
<rpm>0.00</rpm>
</extensions>
</trkpt>
<trkpt lat="63.828651428" lon="-19.207452774">
<ele>560.000000</ele>
<time>2012-07-26T11:32:24Z</time>
<extensions>
<speed>0.0</speed>
<temp>0.00</temp>
<bpm>0</bpm>
<rpm>0.00</rpm>
</extensions>
</trkpt>
<trkpt lat="63.828651428" lon="-19.207452774">
<ele>560.015625</ele>
<time>2012-07-26T11:32:29Z</time>
<extensions>
<speed>0.0</speed>
<temp>0.00</temp>
<bpm>0</bpm>
<rpm>0.00</rpm>
</extensions>
</trkpt>
<trkpt lat="63.828651428" lon="-19.207452774">
<ele>560.015625</ele>
<time>2012-07-26T11:32:34Z</time>
<extensions>
<speed>0.0</speed>
<temp>0.00</temp>
<bpm>0</bpm>
<rpm>0.00</rpm>
</extensions>
</trkpt>
<trkpt lat="63.828651428" lon="-19.207452774">
<ele>560.000000</ele>
<time>2012-07-26T11:32:39Z</time>
<extensions>
<speed>0.0</speed>
<temp>0.00</temp>
<bpm>0</bpm>
<rpm>0.00</rpm>
</extensions>
</trkpt>
<trkpt lat="63.828651428" lon="-19.207452774">
<ele>560.000000</ele>
<time>2012-07-26T11:32:44Z</time>
<speed>0.010000</speed>
<extensions>
<speed>0.0</speed>
<temp>0.00</temp>
<bpm>0</bpm>
<rpm>0.00</rpm>
</extensions>
</trkpt>
<trkpt lat="63.828651428" lon="-19.207452774">
<ele>560.015625</ele>
<time>2012-07-26T11:32:49Z</time>
<extensions>
<speed>0.0</speed>
<temp>0.00</temp>
<bpm>0</bpm>
<rpm>0.00</rpm>
</extensions>
</trkpt>
<trkpt lat="63.828651428" lon="-19.207452774">
<ele>560.031250</ele>
<time>2012-07-26T11:32:54Z</time>
<extensions>
<speed>0.0</speed>
<temp>0.00</temp>
<bpm>0</bpm>
<rpm>0.00</rpm>
</extensions>
</trkpt>
<trkpt lat="63.828651428" lon="-19.207452774">
<ele>560.031250</ele>
<time>2012-07-26T11:32:59Z</time>
<speed>0.010000</speed>
<extensions>
<speed>0.0</speed>
<temp>0.00</temp>
<bpm>0</bpm>
<rpm>0.00</rpm>
</extensions>
</trkpt>
<trkpt lat="63.828651428" lon="-19.207454681">
<ele>560.046875</ele>
<time>2012-07-26T11:33:04Z</time>
<speed>0.020000</speed>
<extensions>
<speed>0.0</speed>
<temp>0.00</temp>
<bpm>0</bpm>
<rpm>0.00</rpm>
</extensions>
</trkpt>
<trkpt lat="63.828651428" lon="-19.207452774">
<ele>560.062500</ele>
<time>2012-07-26T11:33:09Z</time>
<extensions>
<speed>0.0</speed>
<temp>0.00</temp>
<bpm>0</bpm>
<rpm>0.00</rpm>
</extensions>
</trkpt>
<trkpt lat="63.828651428" lon="-19.207454681">
<ele>560.078125</ele>
<time>2012-07-26T11:33:14Z</time>
<speed>0.010000</speed>
<extensions>
<speed>0.0</speed>
<temp>0.00</temp>
<bpm>0</bpm>
<rpm>0.00</rpm>
</extensions>
</trkpt>
<trkpt lat="63.828651428" lon="-19.207454681">
<ele>560.093750</ele>
<time>2012-07-26T11:33:19Z</time>
<speed>0.010000</speed>
<extensions>
<speed>0.0</speed>
<temp>0.00</temp>
<bpm>0</bpm>
<rpm>0.00</rpm>
</extensions>
</trkpt>
<trkpt lat="63.828651428" lon="-19.207454681">
<ele>560.109375</ele>
<time>2012-07-26T11:33:24Z</time>
<extensions>
<speed>0.0</speed>
<temp>0.00</temp>
<bpm>0</bpm>
<rpm>0.00</rpm>
</extensions>
</trkpt>
<trkpt lat="63.828651428" lon="-19.207454681">
<ele>560.125000</ele>
<time>2012-07-26T11:33:29Z</time>
<speed>0.010000</speed>
<extensions>
<speed>0.0</speed>
<temp>0.00</temp>
<bpm>0</bpm>
<rpm>0.00</rpm>
</extensions>
</trkpt>
<trkpt lat="63.828651428" lon="-19.207454681">
<ele>560.140625</ele>
<time>2012-07-26T11:33:34Z</time>
<extensions>
<speed>0.0</speed>
<temp>0.00</temp>
<bpm>0</bpm>
<rpm>0.00</rpm>
</extensions>
</trkpt>
<trkpt lat="63.828651428" lon="-19.207454681">
<ele>560.156250</ele>
<time>2012-07-26T11:33:39Z</time>
<speed>0.010000</speed>
<extensions>
<speed>0.0</speed>
<temp>0.00</temp>
<bpm>0</bpm>
<rpm>0.00</rpm>
</extensions>
</trkpt>
<trkpt lat="63.828651428" lon="-19.207454681">
<ele>560.156250</ele>
<time>2012-07-26T11:33:44Z</time>
<speed>0.030000</speed>
<extensions>
<speed>0.0</speed>
<temp>0.00</temp>
<bpm>0</bpm>
<rpm>0.00</rpm>
</extensions>
</trkpt>
<trkpt lat="63.828651428" lon="-19.207456589">
<ele>560.140625</ele>
<time>2012-07-26T11:33:49Z</time>
<extensions>
<speed>0.0</speed>
<temp>0.00</temp>
<bpm>0</bpm>
<rpm>0.00</rpm>
</extensions>
</trkpt>
<trkpt lat="63.828651428" lon="-19.207454681">
<ele>560.140625</ele>
<time>2012-07-26T11:33:54Z</time>
<speed>0.010000</speed>
<extensions>
<speed>0.0</speed>
<temp>0.00</temp>
<bpm>0</bpm>
<rpm>0.00</rpm>
</extensions>
</trkpt>
<trkpt lat="63.828651428" lon="-19.207454681">
<ele>560.156250</ele>
<time>2012-07-26T11:33:59Z</time>
<speed>0.030000</speed>
<extensions>
<speed>0.0</speed>
<temp>0.00</temp>
<bpm>0</bpm>
<rpm>0.00</rpm>
</extensions>
</trkpt>
<trkpt lat="63.828651428" lon="-19.207454681">
<ele>560.156250</ele>
<time>2012-07-26T11:34:04Z</time>
<speed>0.010000</speed>
<extensions>
<speed>0.0</speed>
<temp>0.00</temp>
<bpm>0</bpm>
<rpm>0.00</rpm>
</extensions>
</trkpt>
<trkpt lat="63.828651428" lon="-19.207454681">
<ele>560.156250</ele>
<time>2012-07-26T11:34:09Z</time>
<speed>0.010000</speed>
<extensions>
<speed>0.0</speed>
<temp>0.00</temp>
<bpm>0</bpm>
<rpm>0.00</rpm>
</extensions>
</trkpt>
<trkpt lat="63.828651428" lon="-19.207454681">
<ele>560.140625</ele>
<time>2012-07-26T11:34:14Z</time>
<speed>0.010000</speed>
<extensions>
<speed>0.0</speed>
<temp>0.00</temp>
<bpm>0</bpm>
<rpm>0.00</rpm>
</extensions>
</trkpt>
<trkpt lat="63.828651428" lon="-19.207454681">
<ele>560.125000</ele>
<time>2012-07-26T11:34:19Z</time>
<extensions>
<speed>0.0</speed>
<temp>0.00</temp>
<bpm>0</bpm>
<rpm>0.00</rpm>
</extensions>
</trkpt>
<trkpt lat="63.828651428" lon="-19.207454681">
<ele>560.109375</ele>
<time>2012-07-26T11:34:24Z</time>
<speed>0.010000</speed>
<extensions>
<speed>0.0</speed>
<temp>0.00</temp>
<bpm>0</bpm>
<rpm>0.00</rpm>
</extensions>
</trkpt>
<trkpt lat="63.828651428" lon="-19.207454681">
<ele>560.125000</ele>
<time>2012-07-26T11:34:29Z</time>
<speed>0.090000</speed>
<extensions>
<speed>0.1</speed>
<temp>0.00</temp>
<bpm>0</bpm>
<rpm>0.00</rpm>
</extensions>
</trkpt>
<trkpt lat="63.828651428" lon="-19.207447052">
<ele>560.171875</ele>
<time>2012-07-26T11:34:34Z</time>
<speed>0.180000</speed>
<extensions>
<speed>0.2</speed>
<temp>0.00</temp>
<bpm>0</bpm>
<rpm>0.00</rpm>
</extensions>
</trkpt>
<trkpt lat="63.828651428" lon="-19.207441330">
<ele>560.203125</ele>
<time>2012-07-26T11:34:39Z</time>
<speed>0.050000</speed>
<extensions>
<speed>0.1</speed>
<temp>0.00</temp>
<bpm>0</bpm>
<rpm>0.00</rpm>
</extensions>
</trkpt>
<trkpt lat="63.828655243" lon="-19.207441330">
<ele>560.125000</ele>
<time>2012-07-26T11:34:44Z</time>
<speed>0.050000</speed>
<extensions>
<speed>0.1</speed>
<temp>0.00</temp>
<bpm>0</bpm>
<rpm>0.00</rpm>
</extensions>
</trkpt>
<trkpt lat="63.828651428" lon="-19.207422256">
<ele>559.812500</ele>
<time>2012-07-26T11:34:49Z</time>
<speed>0.010000</speed>
<extensions>
<speed>0.0</speed>
<temp>0.00</temp>
<bpm>0</bpm>
<rpm>0.00</rpm>
</extensions>
</trkpt>
<trkpt lat="63.828651428" lon="-19.207422256">
<ele>559.484375</ele>
<time>2012-07-26T11:34:54Z</time>
<speed>0.030000</speed>
<extensions>
<speed>0.0</speed>
<temp>0.00</temp>
<bpm>0</bpm>
<rpm>0.00</rpm>
</extensions>
</trkpt>
<trkpt lat="63.828651428" lon="-19.207424164">
<ele>559.250000</ele>
<time>2012-07-26T11:34:59Z</time>
<speed>0.010000</speed>
<extensions>
<speed>0.0</speed>
<temp>0.00</temp>
<bpm>0</bpm>
<rpm>0.00</rpm>
</extensions>
</trkpt>
<trkpt lat="63.828651428" lon="-19.207424164">
<ele>559.265625</ele>
<time>2012-07-26T11:35:04Z</time>
<speed>0.040000</speed>
<extensions>
<speed>0.0</speed>
<temp>0.00</temp>
<bpm>0</bpm>
<rpm>0.00</rpm>
</extensions>
</trkpt>
<trkpt lat="63.828651428" lon="-19.207424164">
<ele>559.265625</ele>
<time>2012-07-26T11:35:09Z</time>
<speed>0.010000</speed>
<extensions>
<speed>0.0</speed>
<temp>0.00</temp>
<bpm>0</bpm>
<rpm>0.00</rpm>
</extensions>
</trkpt>
<trkpt lat="63.828651428" lon="-19.207431793">
<ele>559.312500</ele>
<time>2012-07-26T11:35:14Z</time>
<speed>0.220000</speed>
<extensions>
<speed>0.2</speed>
<temp>0.00</temp>
<bpm>0</bpm>
<rpm>0.00</rpm>
</extensions>
</trkpt>
<trkpt lat="63.828655243" lon="-19.207454681">
<ele>559.328125</ele>
<time>2012-07-26T11:35:19Z</time>
<speed>0.290000</speed>
<extensions>
<speed>0.3</speed>
<temp>0.00</temp>
<bpm>0</bpm>
<rpm>0.00</rpm>
</extensions>
</trkpt>
<trkpt lat="63.828655243" lon="-19.207473755">
<ele>559.343750</ele>
<time>2012-07-26T11:35:24Z</time>
<speed>0.110000</speed>
<extensions>
<speed>0.1</speed>
<temp>0.00</temp>
<bpm>0</bpm>
<rpm>0.00</rpm>
</extensions>
</trkpt>
<trkpt lat="63.828655243" lon="-19.207481384">
<ele>559.328125</ele>
<time>2012-07-26T11:35:29Z</time>
<speed>0.080000</speed>
<extensions>
<speed>0.1</speed>
<temp>0.00</temp>
<bpm>0</bpm>
<rpm>0.00</rpm>
</extensions>
</trkpt>
<trkpt lat="63.828655243" lon="-19.207485199">
<ele>559.421875</ele>
<time>2012-07-26T11:35:34Z</time>
<speed>0.060000</speed>
<extensions>
<speed>0.1</speed>
<temp>0.00</temp>
<bpm>0</bpm>
<rpm>0.00</rpm>
</extensions>
</trkpt>
<trkpt lat="63.828659058" lon="-19.207489014">
<ele>559.593750</ele>
<time>2012-07-26T11:35:39Z</time>
<extensions>
<speed>0.0</speed>
<temp>0.00</temp>
<bpm>0</bpm>
<rpm>0.00</rpm>
</extensions>
</trkpt>
<trkpt lat="63.828659058" lon="-19.207489014">
<ele>559.718750</ele>
<time>2012-07-26T11:35:44Z</time>
<speed>0.040000</speed>
<extensions>
<speed>0.0</speed>
<temp>0.00</temp>
<bpm>0</bpm>
<rpm>0.00</rpm>
</extensions>
</trkpt>
<trkpt lat="63.828659058" lon="-19.207489014">
<ele>559.750000</ele>
<time>2012-07-26T11:35:49Z</time>
<extensions>
<speed>0.0</speed>
<temp>0.00</temp>
<bpm>0</bpm>
<rpm>0.00</rpm>
</extensions>
</trkpt>
<trkpt lat="63.828659058" lon="-19.207489014">
<ele>559.765625</ele>
<time>2012-07-26T11:35:54Z</time>
<extensions>
<speed>0.0</speed>
<temp>0.00</temp>
<bpm>0</bpm>
<rpm>0.00</rpm>
</extensions>
</trkpt>
<trkpt lat="63.828659058" lon="-19.207489014">
<ele>559.781250</ele>
<time>2012-07-26T11:35:59Z</time>
<speed>0.010000</speed>
<extensions>
<speed>0.0</speed>
<temp>0.00</temp>
<bpm>0</bpm>
<rpm>0.00</rpm>
</extensions>
</trkpt>
<trkpt lat="63.828659058" lon="-19.207489014">
<ele>559.796875</ele>
<time>2012-07-26T11:36:04Z</time>
<extensions>
<speed>0.0</speed>
<temp>0.00</temp>
<bpm>0</bpm>
<rpm>0.00</rpm>
</extensions>
</trkpt>
<trkpt lat="63.828659058" lon="-19.207489014">
<ele>559.812500</ele>
<time>2012-07-26T11:36:09Z</time>
<extensions>
<speed>0.0</speed>
<temp>0.00</temp>
<bpm>0</bpm>
<rpm>0.00</rpm>
</extensions>
</trkpt>
<trkpt lat="63.828659058" lon="-19.207487106">
<ele>559.859375</ele>
<time>2012-07-26T11:36:14Z</time>
<speed>0.020000</speed>
<extensions>
<speed>0.0</speed>
<temp>0.00</temp>
<bpm>0</bpm>
<rpm>0.00</rpm>
</extensions>
</trkpt>
<trkpt lat="63.828659058" lon="-19.207487106">
<ele>559.875000</ele>
<time>2012-07-26T11:36:19Z</time>
<extensions>
<speed>0.0</speed>
<temp>0.00</temp>
<bpm>0</bpm>
<rpm>0.00</rpm>
</extensions>
</trkpt>
<trkpt lat="63.828659058" lon="-19.207485199">
<ele>559.875000</ele>
<time>2012-07-26T11:36:24Z</time>
<speed>0.010000</speed>
<extensions>
<speed>0.0</speed>
<temp>0.00</temp>
<bpm>0</bpm>
<rpm>0.00</rpm>
</extensions>
</trkpt>
<trkpt lat="63.828659058" lon="-19.207485199">
<ele>559.890625</ele>
<time>2012-07-26T11:36:29Z</time>
<speed>0.010000</speed>
<extensions>
<speed>0.0</speed>
<temp>0.00</temp>
<bpm>0</bpm>
<rpm>0.00</rpm>
</extensions>
</trkpt>
<trkpt lat="63.828659058" lon="-19.207485199">
<ele>559.890625</ele>
<time>2012-07-26T11:36:34Z</time>
<extensions>
<speed>0.0</speed>
<temp>0.00</temp>
<bpm>0</bpm>
<rpm>0.00</rpm>
</extensions>
</trkpt>
<trkpt lat="63.828655243" lon="-19.207485199">
<ele>559.890625</ele>
<time>2012-07-26T11:36:39Z</time>
<speed>0.020000</speed>
<extensions>
<speed>0.0</speed>
<temp>0.00</temp>
<bpm>0</bpm>
<rpm>0.00</rpm>
</extensions>
</trkpt>
<trkpt lat="63.828655243" lon="-19.207483292">
<ele>559.859375</ele>
<time>2012-07-26T11:36:44Z</time>
<speed>0.010000</speed>
<extensions>
<speed>0.0</speed>
<temp>0.00</temp>
<bpm>0</bpm>
<rpm>0.00</rpm>
</extensions>
</trkpt>
<trkpt lat="63.828655243" lon="-19.207483292">
<ele>559.875000</ele>
<time>2012-07-26T11:36:49Z</time>
<extensions>
<speed>0.0</speed>
<temp>0.00</temp>
<bpm>0</bpm>
<rpm>0.00</rpm>
</extensions>
</trkpt>
<trkpt lat="63.828655243" lon="-19.207481384">
<ele>559.875000</ele>
<time>2012-07-26T11:36:54Z</time>
<extensions>
<speed>0.0</speed>
<temp>0.00</temp>
<bpm>0</bpm>
<rpm>0.00</rpm>
</extensions>
</trkpt>
<trkpt lat="63.828655243" lon="-19.207481384">
<ele>559.890625</ele>
<time>2012-07-26T11:36:59Z</time>
<extensions>
<speed>0.0</speed>
<temp>0.00</temp>
<bpm>0</bpm>
<rpm>0.00</rpm>
</extensions>
</trkpt>
<trkpt lat="63.828655243" lon="-19.207481384">
<ele>559.906250</ele>
<time>2012-07-26T11:37:04Z</time>
<speed>0.010000</speed>
<extensions>
<speed>0.0</speed>
<temp>0.00</temp>
<bpm>0</bpm>
<rpm>0.00</rpm>
</extensions>
</trkpt>
<trkpt lat="63.828655243" lon="-19.207481384">
<ele>559.906250</ele>
<time>2012-07-26T11:37:09Z</time>
<extensions>
<speed>0.0</speed>
<temp>0.00</temp>
<bpm>0</bpm>
<rpm>0.00</rpm>
</extensions>
</trkpt>
<trkpt lat="63.828655243" lon="-19.207481384">
<ele>559.906250</ele>
<time>2012-07-26T11:37:14Z</time>
<extensions>
<speed>0.0</speed>
<temp>0.00</temp>
<bpm>0</bpm>
<rpm>0.00</rpm>
</extensions>
</trkpt>
<trkpt lat="63.828655243" lon="-19.207481384">
<ele>559.953125</ele>
<time>2012-07-26T11:37:19Z</time>
<speed>0.050000</speed>
<extensions>
<speed>0.1</speed>
<temp>0.00</temp>
<bpm>0</bpm>
<rpm>0.00</rpm>
</extensions>
</trkpt>
<trkpt lat="63.828639984" lon="-19.207433701">
<ele>561.843750</ele>
<time>2012-07-26T11:37:24Z</time>
<speed>0.430000</speed>
<extensions>
<speed>0.4</speed>
<temp>0.00</temp>
<bpm>0</bpm>
<rpm>0.00</rpm>
</extensions>
</trkpt>
<trkpt lat="63.828628540" lon="-19.207429886">
<ele>561.906250</ele>
<time>2012-07-26T11:37:29Z</time>
<speed>0.090000</speed>
<extensions>
<speed>0.1</speed>
<temp>0.00</temp>
<bpm>0</bpm>
<rpm>0.00</rpm>
</extensions>
</trkpt>
<trkpt lat="63.828628540" lon="-19.207429886">
<ele>561.968750</ele>
<time>2012-07-26T11:37:34Z</time>
<speed>0.110000</speed>
<extensions>
<speed>0.1</speed>
<temp>0.00</temp>
<bpm>0</bpm>
<rpm>0.00</rpm>
</extensions>
</trkpt>
<trkpt lat="63.828636169" lon="-19.207427979">
<ele>562.015625</ele>
<time>2012-07-26T11:37:39Z</time>
<speed>0.100000</speed>
<extensions>
<speed>0.1</speed>
<temp>0.00</temp>
<bpm>0</bpm>
<rpm>0.00</rpm>
</extensions>
</trkpt>
<trkpt lat="63.828639984" lon="-19.207422256">
<ele>562.046875</ele>
<time>2012-07-26T11:37:44Z</time>
<speed>0.250000</speed>
<extensions>
<speed>0.2</speed>
<temp>0.00</temp>
<bpm>0</bpm>
<rpm>0.00</rpm>
</extensions>
</trkpt>
<trkpt lat="63.828647614" lon="-19.207418442">
<ele>562.078125</ele>
<time>2012-07-26T11:37:49Z</time>
<speed>0.140000</speed>
<extensions>
<speed>0.1</speed>
<temp>0.00</temp>
<bpm>0</bpm>
<rpm>0.00</rpm>
</extensions>
</trkpt>
<trkpt lat="63.828651428" lon="-19.207408905">
<ele>562.125000</ele>
<time>2012-07-26T11:37:54Z</time>
<speed>0.120000</speed>
<extensions>
<speed>0.1</speed>
<temp>0.00</temp>
<bpm>0</bpm>
<rpm>0.00</rpm>
</extensions>
</trkpt>
<trkpt lat="63.828655243" lon="-19.207401276">
<ele>562.093750</ele>
<time>2012-07-26T11:37:59Z</time>
<speed>0.080000</speed>
<extensions>
<speed>0.1</speed>
<temp>0.00</temp>
<bpm>0</bpm>
<rpm>0.00</rpm>
</extensions>
</trkpt>
<trkpt lat="63.828636169" lon="-19.207366943">
<ele>562.125000</ele>
<time>2012-07-26T11:38:04Z</time>
<speed>0.060000</speed>
<extensions>
<speed>0.1</speed>
<temp>0.00</temp>
<bpm>0</bpm>
<rpm>0.00</rpm>
</extensions>
</trkpt>
<trkpt lat="63.828636169" lon="-19.207345963">
<ele>561.859375</ele>
<time>2012-07-26T11:38:09Z</time>
<speed>0.080000</speed>
<extensions>
<speed>0.1</speed>
<temp>0.00</temp>
<bpm>0</bpm>
<rpm>0.00</rpm>
</extensions>
</trkpt>
<trkpt lat="63.828632355" lon="-19.207336426">
<ele>561.734375</ele>
<time>2012-07-26T11:38:14Z</time>
<speed>0.140000</speed>
<extensions>
<speed>0.1</speed>
<temp>0.00</temp>
<bpm>0</bpm>
<rpm>0.00</rpm>
</extensions>
</trkpt>
<trkpt lat="63.828632355" lon="-19.207345963">
<ele>561.671875</ele>
<time>2012-07-26T11:38:19Z</time>
<speed>0.100000</speed>
<extensions>
<speed>0.1</speed>
<temp>0.00</temp>
<bpm>0</bpm>
<rpm>0.00</rpm>
</extensions>
</trkpt>
<trkpt lat="63.828632355" lon="-19.207338333">
<ele>561.750000</ele>
<time>2012-07-26T11:38:24Z</time>
<speed>0.120000</speed>
<extensions>
<speed>0.1</speed>
<temp>0.00</temp>
<bpm>0</bpm>
<rpm>0.00</rpm>
</extensions>
</trkpt>
<trkpt lat="63.828632355" lon="-19.207359314">
<ele>561.562500</ele>
<time>2012-07-26T11:38:29Z</time>
<speed>0.040000</speed>
<extensions>
<speed>0.0</speed>
<temp>0.00</temp>
<bpm>0</bpm>
<rpm>0.00</rpm>
</extensions>
</trkpt>
<trkpt lat="63.828624725" lon="-19.207332611">
<ele>561.296875</ele>
<time>2012-07-26T11:38:34Z</time>
<speed>0.080000</speed>
<extensions>
<speed>0.1</speed>
<temp>0.00</temp>
<bpm>0</bpm>
<rpm>0.00</rpm>
</extensions>
</trkpt>
<trkpt lat="63.828628540" lon="-19.207336426">
<ele>561.359375</ele>
<time>2012-07-26T11:38:39Z</time>
<speed>0.200000</speed>
<extensions>
<speed>0.2</speed>
<temp>0.00</temp>
<bpm>0</bpm>
<rpm>0.00</rpm>
</extensions>
</trkpt>
<trkpt lat="63.828628540" lon="-19.207342148">
<ele>561.640625</ele>
<time>2012-07-26T11:38:44Z</time>
<speed>0.070000</speed>
<extensions>
<speed>0.1</speed>
<temp>0.00</temp>
<bpm>0</bpm>
<rpm>0.00</rpm>
</extensions>
</trkpt>
<trkpt lat="63.828632355" lon="-19.207344055">
<ele>561.671875</ele>
<time>2012-07-26T11:38:49Z</time>
<speed>0.040000</speed>
<extensions>
<speed>0.0</speed>
<temp>0.00</temp>
<bpm>0</bpm>
<rpm>0.00</rpm>
</extensions>
</trkpt>
<trkpt lat="63.828632355" lon="-19.207344055">
<ele>561.734375</ele>
<time>2012-07-26T11:38:54Z</time>
<speed>0.010000</speed>
<extensions>
<speed>0.0</speed>
<temp>0.00</temp>
<bpm>0</bpm>
<rpm>0.00</rpm>
</extensions>
</trkpt>
<trkpt lat="63.828632355" lon="-19.207344055">
<ele>561.734375</ele>
<time>2012-07-26T11:38:59Z</time>
<speed>0.020000</speed>
<extensions>
<speed>0.0</speed>
<temp>0.00</temp>
<bpm>0</bpm>
<rpm>0.00</rpm>
</extensions>
</trkpt>
<trkpt lat="63.828632355" lon="-19.207344055">
<ele>561.734375</ele>
<time>2012-07-26T11:39:04Z</time>
<extensions>
<speed>0.0</speed>
<temp>0.00</temp>
<bpm>0</bpm>
<rpm>0.00</rpm>
</extensions>
</trkpt>
<trkpt lat="63.828632355" lon="-19.207344055">
<ele>561.734375</ele>
<time>2012-07-26T11:39:09Z</time>
<extensions>
<speed>0.0</speed>
<temp>0.00</temp>
<bpm>0</bpm>
<rpm>0.00</rpm>
</extensions>
</trkpt>
<trkpt lat="63.828632355" lon="-19.207344055">
<ele>561.734375</ele>
<time>2012-07-26T11:39:14Z</time>
<extensions>
<speed>0.0</speed>
<temp>0.00</temp>
<bpm>0</bpm>
<rpm>0.00</rpm>
</extensions>
</trkpt>
<trkpt lat="63.828632355" lon="-19.207345963">
<ele>561.765625</ele>
<time>2012-07-26T11:39:19Z</time>
<extensions>
<speed>0.0</speed>
<temp>0.00</temp>
<bpm>0</bpm>
<rpm>0.00</rpm>
</extensions>
</trkpt>
<trkpt lat="63.828632355" lon="-19.207345963">
<ele>561.765625</ele>
<time>2012-07-26T11:39:24Z</time>
<speed>0.010000</speed>
<extensions>
<speed>0.0</speed>
<temp>0.00</temp>
<bpm>0</bpm>
<rpm>0.00</rpm>
</extensions>
</trkpt>
<trkpt lat="63.828632355" lon="-19.207345963">
<ele>561.781250</ele>
<time>2012-07-26T11:39:29Z</time>
<speed>0.010000</speed>
<extensions>
<speed>0.0</speed>
<temp>0.00</temp>
<bpm>0</bpm>
<rpm>0.00</rpm>
</extensions>
</trkpt>
<trkpt lat="63.828632355" lon="-19.207347870">
<ele>561.625000</ele>
<time>2012-07-26T11:39:34Z</time>
<speed>0.230000</speed>
<extensions>
<speed>0.2</speed>
<temp>0.00</temp>
<bpm>0</bpm>
<rpm>0.00</rpm>
</extensions>
</trkpt>
<trkpt lat="63.828643799" lon="-19.207401276">
<ele>561.265625</ele>
<time>2012-07-26T11:39:39Z</time>
<speed>0.130000</speed>
<extensions>
<speed>0.1</speed>
<temp>0.00</temp>
<bpm>0</bpm>
<rpm>0.00</rpm>
</extensions>
</trkpt>
<trkpt lat="63.828636169" lon="-19.207416534">
<ele>560.406250</ele>
<time>2012-07-26T11:39:44Z</time>
<extensions>
<speed>0.0</speed>
<temp>0.00</temp>
<bpm>0</bpm>
<rpm>0.00</rpm>
</extensions>
</trkpt>
<trkpt lat="63.828636169" lon="-19.207416534">
<ele>560.437500</ele>
<time>2012-07-26T11:39:49Z</time>
<speed>0.080000</speed>
<extensions>
<speed>0.1</speed>
<temp>0.00</temp>
<bpm>0</bpm>
<rpm>0.00</rpm>
</extensions>
</trkpt>
<trkpt lat="63.828639984" lon="-19.207412720">
<ele>560.437500</ele>
<time>2012-07-26T11:39:54Z</time>
<speed>0.010000</speed>
<extensions>
<speed>0.0</speed>
<temp>0.00</temp>
<bpm>0</bpm>
<rpm>0.00</rpm>
</extensions>
</trkpt>
<trkpt lat="63.828639984" lon="-19.207412720">
<ele>560.453125</ele>
<time>2012-07-26T11:39:59Z</time>
<extensions>
<speed>0.0</speed>
<temp>0.00</temp>
<bpm>0</bpm>
<rpm>0.00</rpm>
</extensions>
</trkpt>
<trkpt lat="63.828639984" lon="-19.207410812">
<ele>560.453125</ele>
<time>2012-07-26T11:40:04Z</time>
<speed>0.020000</speed>
<extensions>
<speed>0.0</speed>
<temp>0.00</temp>
<bpm>0</bpm>
<rpm>0.00</rpm>
</extensions>
</trkpt>
<trkpt lat="63.828639984" lon="-19.207410812">
<ele>560.437500</ele>
<time>2012-07-26T11:40:09Z</time>
<speed>0.010000</speed>
<extensions>
<speed>0.0</speed>
<temp>0.00</temp>
<bpm>0</bpm>
<rpm>0.00</rpm>
</extensions>
</trkpt>
<trkpt lat="63.828639984" lon="-19.207410812">
<ele>560.406250</ele>
<time>2012-07-26T11:40:14Z</time>
<speed>0.020000</speed>
<extensions>
<speed>0.0</speed>
<temp>0.00</temp>
<bpm>0</bpm>
<rpm>0.00</rpm>
</extensions>
</trkpt>
<trkpt lat="63.828639984" lon="-19.207410812">
<ele>560.359375</ele>
<time>2012-07-26T11:40:19Z</time>
<speed>0.010000</speed>
<extensions>
<speed>0.0</speed>
<temp>0.00</temp>
<bpm>0</bpm>
<rpm>0.00</rpm>
</extensions>
</trkpt>
<trkpt lat="63.828639984" lon="-19.207410812">
<ele>560.312500</ele>
<time>2012-07-26T11:40:24Z</time>
<speed>0.010000</speed>
<extensions>
<speed>0.0</speed>
<temp>0.00</temp>
<bpm>0</bpm>
<rpm>0.00</rpm>
</extensions>
</trkpt>
<trkpt lat="63.828639984" lon="-19.207410812">
<ele>560.265625</ele>
<time>2012-07-26T11:40:29Z</time>
<extensions>
<speed>0.0</speed>
<temp>0.00</temp>
<bpm>0</bpm>
<rpm>0.00</rpm>
</extensions>
</trkpt>
<trkpt lat="63.828639984" lon="-19.207410812">
<ele>560.218750</ele>
<time>2012-07-26T11:40:34Z</time>
<speed>0.020000</speed>
<extensions>
<speed>0.0</speed>
<temp>0.00</temp>
<bpm>0</bpm>
<rpm>0.00</rpm>
</extensions>
</trkpt>
<trkpt lat="63.828639984" lon="-19.207410812">
<ele>560.203125</ele>
<time>2012-07-26T11:40:39Z</time>
<extensions>
<speed>0.0</speed>
<temp>0.00</temp>
<bpm>0</bpm>
<rpm>0.00</rpm>
</extensions>
</trkpt>
<trkpt lat="63.828639984" lon="-19.207410812">
<ele>560.187500</ele>
<time>2012-07-26T11:40:44Z</time>
<extensions>
<speed>0.0</speed>
<temp>0.00</temp>
<bpm>0</bpm>
<rpm>0.00</rpm>
</extensions>
</trkpt>
<trkpt lat="63.828639984" lon="-19.207410812">
<ele>560.234375</ele>
<time>2012-07-26T11:40:49Z</time>
<speed>0.040000</speed>
<extensions>
<speed>0.0</speed>
<temp>0.00</temp>
<bpm>0</bpm>
<rpm>0.00</rpm>
</extensions>
</trkpt>
<trkpt lat="63.828639984" lon="-19.207386017">
<ele>560.734375</ele>
<time>2012-07-26T11:40:54Z</time>
<speed>0.670000</speed>
<extensions>
<speed>0.7</speed>
<temp>0.00</temp>
<bpm>0</bpm>
<rpm>0.00</rpm>
</extensions>
</trkpt>
<trkpt lat="63.828643799" lon="-19.207405090">
<ele>562.390625</ele>
<time>2012-07-26T11:40:59Z</time>
<speed>0.150000</speed>
<extensions>
<speed>0.2</speed>
<temp>0.00</temp>
<bpm>0</bpm>
<rpm>0.00</rpm>
</extensions>
</trkpt>
<trkpt lat="63.828647614" lon="-19.207408905">
<ele>562.531250</ele>
<time>2012-07-26T11:41:04Z</time>
<speed>0.070000</speed>
<extensions>
<speed>0.1</speed>
<temp>0.00</temp>
<bpm>0</bpm>
<rpm>0.00</rpm>
</extensions>
</trkpt>
<trkpt lat="63.828647614" lon="-19.207403183">
<ele>562.593750</ele>
<time>2012-07-26T11:41:09Z</time>
<speed>0.030000</speed>
<extensions>
<speed>0.0</speed>
<temp>0.00</temp>
<bpm>0</bpm>
<rpm>0.00</rpm>
</extensions>
</trkpt>
<trkpt lat="63.828651428" lon="-19.207399368">
<ele>562.640625</ele>
<time>2012-07-26T11:41:14Z</time>
<extensions>
<speed>0.0</speed>
<temp>0.00</temp>
<bpm>0</bpm>
<rpm>0.00</rpm>
</extensions>
</trkpt>
<trkpt lat="63.828651428" lon="-19.207397461">
<ele>562.750000</ele>
<time>2012-07-26T11:41:19Z</time>
<speed>0.050000</speed>
<extensions>
<speed>0.1</speed>
<temp>0.00</temp>
<bpm>0</bpm>
<rpm>0.00</rpm>
</extensions>
</trkpt>
<trkpt lat="63.828651428" lon="-19.207397461">
<ele>562.984375</ele>
<time>2012-07-26T11:41:24Z</time>
<speed>0.010000</speed>
<extensions>
<speed>0.0</speed>
<temp>0.00</temp>
<bpm>0</bpm>
<rpm>0.00</rpm>
</extensions>
</trkpt>
<trkpt lat="63.828662872" lon="-19.207389832">
<ele>562.890625</ele>
<time>2012-07-26T11:41:29Z</time>
<speed>0.440000</speed>
<extensions>
<speed>0.4</speed>
<temp>0.00</temp>
<bpm>0</bpm>
<rpm>0.00</rpm>
</extensions>
</trkpt>
<trkpt lat="63.828662872" lon="-19.207408905">
<ele>562.562500</ele>
<time>2012-07-26T11:41:34Z</time>
<speed>0.230000</speed>
<extensions>
<speed>0.2</speed>
<temp>0.00</temp>
<bpm>0</bpm>
<rpm>0.00</rpm>
</extensions>
</trkpt>
<trkpt lat="63.828659058" lon="-19.207393646">
<ele>562.875000</ele>
<time>2012-07-26T11:41:39Z</time>
<speed>0.450000</speed>
<extensions>
<speed>0.5</speed>
<temp>0.00</temp>
<bpm>0</bpm>
<rpm>0.00</rpm>
</extensions>
</trkpt>
<trkpt lat="63.828643799" lon="-19.207393646">
<ele>562.859375</ele>
<time>2012-07-26T11:41:44Z</time>
<speed>0.350000</speed>
<extensions>
<speed>0.3</speed>
<temp>0.00</temp>
<bpm>0</bpm>
<rpm>0.00</rpm>
</extensions>
</trkpt>
<trkpt lat="63.828639984" lon="-19.207406998">
<ele>562.953125</ele>
<time>2012-07-26T11:41:49Z</time>
<speed>0.250000</speed>
<extensions>
<speed>0.2</speed>
<temp>0.00</temp>
<bpm>0</bpm>
<rpm>0.00</rpm>
</extensions>
</trkpt>
<trkpt lat="63.828636169" lon="-19.207399368">
<ele>562.968750</ele>
<time>2012-07-26T11:41:54Z</time>
<speed>0.230000</speed>
<extensions>
<speed>0.2</speed>
<temp>0.00</temp>
<bpm>0</bpm>
<rpm>0.00</rpm>
</extensions>
</trkpt>
<trkpt lat="63.828636169" lon="-19.207408905">
<ele>563.015625</ele>
<time>2012-07-26T11:41:59Z</time>
<speed>0.330000</speed>
<extensions>
<speed>0.3</speed>
<temp>0.00</temp>
<bpm>0</bpm>
<rpm>0.00</rpm>
</extensions>
</trkpt>
<trkpt lat="63.828628540" lon="-19.207408905">
<ele>563.375000</ele>
<time>2012-07-26T11:42:04Z</time>
<speed>0.030000</speed>
<extensions>
<speed>0.0</speed>
<temp>0.00</temp>
<bpm>0</bpm>
<rpm>0.00</rpm>
</extensions>
</trkpt>
<trkpt lat="63.828632355" lon="-19.207416534">
<ele>563.406250</ele>
<time>2012-07-26T11:42:09Z</time>
<speed>0.350000</speed>
<extensions>
<speed>0.3</speed>
<temp>0.00</temp>
<bpm>0</bpm>
<rpm>0.00</rpm>
</extensions>
</trkpt>
<trkpt lat="63.828628540" lon="-19.207450867">
<ele>563.609375</ele>
<time>2012-07-26T11:42:14Z</time>
<speed>0.190000</speed>
<extensions>
<speed>0.2</speed>
<temp>0.00</temp>
<bpm>0</bpm>
<rpm>0.00</rpm>
</extensions>
</trkpt>
<trkpt lat="63.828624725" lon="-19.207456589">
<ele>563.671875</ele>
<time>2012-07-26T11:42:19Z</time>
<speed>0.080000</speed>
<extensions>
<speed>0.1</speed>
<temp>0.00</temp>
<bpm>0</bpm>
<rpm>0.00</rpm>
</extensions>
</trkpt>
<trkpt lat="63.828624725" lon="-19.207464218">
<ele>563.765625</ele>
<time>2012-07-26T11:42:24Z</time>
<speed>0.040000</speed>
<extensions>
<speed>0.0</speed>
<temp>0.00</temp>
<bpm>0</bpm>
<rpm>0.00</rpm>
</extensions>
</trkpt>
<trkpt lat="63.828624725" lon="-19.207466125">
<ele>563.843750</ele>
<time>2012-07-26T11:42:29Z</time>
<extensions>
<speed>0.0</speed>
<temp>0.00</temp>
<bpm>0</bpm>
<rpm>0.00</rpm>
</extensions>
</trkpt>
<trkpt lat="63.828624725" lon="-19.207466125">
<ele>563.890625</ele>
<time>2012-07-26T11:42:34Z</time>
<speed>0.010000</speed>
<extensions>
<speed>0.0</speed>
<temp>0.00</temp>
<bpm>0</bpm>
<rpm>0.00</rpm>
</extensions>
</trkpt>
<trkpt lat="63.828624725" lon="-19.207466125">
<ele>563.890625</ele>
<time>2012-07-26T11:42:39Z</time>
<extensions>
<speed>0.0</speed>
<temp>0.00</temp>
<bpm>0</bpm>
<rpm>0.00</rpm>
</extensions>
</trkpt>
<trkpt lat="63.828624725" lon="-19.207466125">
<ele>563.890625</ele>
<time>2012-07-26T11:42:44Z</time>
<extensions>
<speed>0.0</speed>
<temp>0.00</temp>
<bpm>0</bpm>
<rpm>0.00</rpm>
</extensions>
</trkpt>
<trkpt lat="63.828624725" lon="-19.207466125">
<ele>563.890625</ele>
<time>2012-07-26T11:42:49Z</time>
<extensions>
<speed>0.0</speed>
<temp>0.00</temp>
<bpm>0</bpm>
<rpm>0.00</rpm>
</extensions>
</trkpt>
<trkpt lat="63.828624725" lon="-19.207466125">
<ele>563.875000</ele>
<time>2012-07-26T11:42:54Z</time>
<speed>0.010000</speed>
<extensions>
<speed>0.0</speed>
<temp>0.00</temp>
<bpm>0</bpm>
<rpm>0.00</rpm>
</extensions>
</trkpt>
<trkpt lat="63.828624725" lon="-19.207464218">
<ele>563.859375</ele>
<time>2012-07-26T11:42:59Z</time>
<extensions>
<speed>0.0</speed>
<temp>0.00</temp>
<bpm>0</bpm>
<rpm>0.00</rpm>
</extensions>
</trkpt>
<trkpt lat="63.828624725" lon="-19.207464218">
<ele>563.859375</ele>
<time>2012-07-26T11:43:04Z</time>
<extensions>
<speed>0.0</speed>
<temp>0.00</temp>
<bpm>0</bpm>
<rpm>0.00</rpm>
</extensions>
</trkpt>
<trkpt lat="63.828624725" lon="-19.207464218">
<ele>563.843750</ele>
<time>2012-07-26T11:43:09Z</time>
<extensions>
<speed>0.0</speed>
<temp>0.00</temp>
<bpm>0</bpm>
<rpm>0.00</rpm>
</extensions>
</trkpt>
<trkpt lat="63.828624725" lon="-19.207464218">
<ele>563.828125</ele>
<time>2012-07-26T11:43:14Z</time>
<speed>0.020000</speed>
<extensions>
<speed>0.0</speed>
<temp>0.00</temp>
<bpm>0</bpm>
<rpm>0.00</rpm>
</extensions>
</trkpt>
<trkpt lat="63.828624725" lon="-19.207462311">
<ele>563.796875</ele>
<time>2012-07-26T11:43:19Z</time>
<speed>0.130000</speed>
<extensions>
<speed>0.1</speed>
<temp>0.00</temp>
<bpm>0</bpm>
<rpm>0.00</rpm>
</extensions>
</trkpt>
<trkpt lat="63.828628540" lon="-19.207450867">
<ele>563.765625</ele>
<time>2012-07-26T11:43:24Z</time>
<speed>0.170000</speed>
<extensions>
<speed>0.2</speed>
<temp>0.00</temp>
<bpm>0</bpm>
<rpm>0.00</rpm>
</extensions>
</trkpt>
<trkpt lat="63.828628540" lon="-19.207439423">
<ele>563.765625</ele>
<time>2012-07-26T11:43:29Z</time>
<speed>0.030000</speed>
<extensions>
<speed>0.0</speed>
<temp>0.00</temp>
<bpm>0</bpm>
<rpm>0.00</rpm>
</extensions>
</trkpt>
<trkpt lat="63.828628540" lon="-19.207435608">
<ele>563.812500</ele>
<time>2012-07-26T11:43:34Z</time>
<speed>0.050000</speed>
<extensions>
<speed>0.1</speed>
<temp>0.00</temp>
<bpm>0</bpm>
<rpm>0.00</rpm>
</extensions>
</trkpt>
<trkpt lat="63.828628540" lon="-19.207431793">
<ele>563.812500</ele>
<time>2012-07-26T11:43:39Z</time>
<speed>0.120000</speed>
<extensions>
<speed>0.1</speed>
<temp>0.00</temp>
<bpm>0</bpm>
<rpm>0.00</rpm>
</extensions>
</trkpt>
<trkpt lat="63.828628540" lon="-19.207420349">
<ele>563.859375</ele>
<time>2012-07-26T11:43:44Z</time>
<speed>0.090000</speed>
<extensions>
<speed>0.1</speed>
<temp>0.00</temp>
<bpm>0</bpm>
<rpm>0.00</rpm>
</extensions>
</trkpt>
<trkpt lat="63.828632355" lon="-19.207410812">
<ele>563.921875</ele>
<time>2012-07-26T11:43:49Z</time>
<speed>0.120000</speed>
<extensions>
<speed>0.1</speed>
<temp>0.00</temp>
<bpm>0</bpm>
<rpm>0.00</rpm>
</extensions>
</trkpt>
<trkpt lat="63.828632355" lon="-19.207405090">
<ele>564.062500</ele>
<time>2012-07-26T11:43:54Z</time>
<speed>0.030000</speed>
<extensions>
<speed>0.0</speed>
<temp>0.00</temp>
<bpm>0</bpm>
<rpm>0.00</rpm>
</extensions>
</trkpt>
<trkpt lat="63.828632355" lon="-19.207399368">
<ele>564.250000</ele>
<time>2012-07-26T11:43:59Z</time>
<extensions>
<speed>0.0</speed>
<temp>0.00</temp>
<bpm>0</bpm>
<rpm>0.00</rpm>
</extensions>
</trkpt>
<trkpt lat="63.828632355" lon="-19.207393646">
<ele>564.421875</ele>
<time>2012-07-26T11:44:04Z</time>
<speed>0.130000</speed>
<extensions>
<speed>0.1</speed>
<temp>0.00</temp>
<bpm>0</bpm>
<rpm>0.00</rpm>
</extensions>
</trkpt>
<trkpt lat="63.828636169" lon="-19.207389832">
<ele>564.484375</ele>
<time>2012-07-26T11:44:09Z</time>
<speed>0.230000</speed>
<extensions>
<speed>0.2</speed>
<temp>0.00</temp>
<bpm>0</bpm>
<rpm>0.00</rpm>
</extensions>
</trkpt>
<trkpt lat="63.828636169" lon="-19.207384109">
<ele>564.421875</ele>
<time>2012-07-26T11:44:14Z</time>
<speed>0.050000</speed>
<extensions>
<speed>0.1</speed>
<temp>0.00</temp>
<bpm>0</bpm>
<rpm>0.00</rpm>
</extensions>
</trkpt>
<trkpt lat="63.828643799" lon="-19.207359314">
<ele>564.781250</ele>
<time>2012-07-26T11:44:19Z</time>
<speed>0.280000</speed>
<extensions>
<speed>0.3</speed>
<temp>0.00</temp>
<bpm>0</bpm>
<rpm>0.00</rpm>
</extensions>
</trkpt>
<trkpt lat="63.828632355" lon="-19.207374573">
<ele>564.734375</ele>
<time>2012-07-26T11:44:24Z</time>
<speed>0.360000</speed>
<extensions>
<speed>0.4</speed>
<temp>0.00</temp>
<bpm>0</bpm>
<rpm>0.00</rpm>
</extensions>
</trkpt>
<trkpt lat="63.828628540" lon="-19.207429886">
<ele>564.218750</ele>
<time>2012-07-26T11:44:29Z</time>
<speed>0.050000</speed>
<extensions>
<speed>0.1</speed>
<temp>0.00</temp>
<bpm>0</bpm>
<rpm>0.00</rpm>
</extensions>
</trkpt>
<trkpt lat="63.828628540" lon="-19.207429886">
<ele>564.140625</ele>
<time>2012-07-26T11:44:34Z</time>
<speed>0.110000</speed>
<extensions>
<speed>0.1</speed>
<temp>0.00</temp>
<bpm>0</bpm>
<rpm>0.00</rpm>
</extensions>
</trkpt>
<trkpt lat="63.828632355" lon="-19.207424164">
<ele>564.062500</ele>
<time>2012-07-26T11:44:39Z</time>
<speed>0.020000</speed>
<extensions>
<speed>0.0</speed>
<temp>0.00</temp>
<bpm>0</bpm>
<rpm>0.00</rpm>
</extensions>
</trkpt>
<trkpt lat="63.828632355" lon="-19.207443237">
<ele>563.593750</ele>
<time>2012-07-26T11:44:44Z</time>
<speed>0.260000</speed>
<extensions>
<speed>0.3</speed>
<temp>0.00</temp>
<bpm>0</bpm>
<rpm>0.00</rpm>
</extensions>
</trkpt>
<trkpt lat="63.828613281" lon="-19.207466125">
<ele>563.078125</ele>
<time>2012-07-26T11:44:49Z</time>
<speed>0.240000</speed>
<extensions>
<speed>0.2</speed>
<temp>0.00</temp>
<bpm>0</bpm>
<rpm>0.00</rpm>
</extensions>
</trkpt>
<trkpt lat="63.828613281" lon="-19.207456589">
<ele>563.000000</ele>
<time>2012-07-26T11:44:54Z</time>
<speed>0.110000</speed>
<extensions>
<speed>0.1</speed>
<temp>0.00</temp>
<bpm>0</bpm>
<rpm>0.00</rpm>
</extensions>
</trkpt>
<trkpt lat="63.828613281" lon="-19.207448959">
<ele>562.953125</ele>
<time>2012-07-26T11:44:59Z</time>
<speed>0.030000</speed>
<extensions>
<speed>0.0</speed>
<temp>0.00</temp>
<bpm>0</bpm>
<rpm>0.00</rpm>
</extensions>
</trkpt>
<trkpt lat="63.828613281" lon="-19.207448959">
<ele>562.921875</ele>
<time>2012-07-26T11:45:04Z</time>
<speed>0.030000</speed>
<extensions>
<speed>0.0</speed>
<temp>0.00</temp>
<bpm>0</bpm>
<rpm>0.00</rpm>
</extensions>
</trkpt>
<trkpt lat="63.828613281" lon="-19.207448959">
<ele>562.921875</ele>
<time>2012-07-26T11:45:09Z</time>
<speed>0.160000</speed>
<extensions>
<speed>0.2</speed>
<temp>0.00</temp>
<bpm>0</bpm>
<rpm>0.00</rpm>
</extensions>
</trkpt>
<trkpt lat="63.828613281" lon="-19.207448959">
<ele>562.906250</ele>
<time>2012-07-26T11:45:14Z</time>
<speed>0.010000</speed>
<extensions>
<speed>0.0</speed>
<temp>0.00</temp>
<bpm>0</bpm>
<rpm>0.00</rpm>
</extensions>
</trkpt>
<trkpt lat="63.828613281" lon="-19.207448959">
<ele>562.906250</ele>
<time>2012-07-26T11:45:19Z</time>
<speed>0.020000</speed>
<extensions>
<speed>0.0</speed>
<temp>0.00</temp>
<bpm>0</bpm>
<rpm>0.00</rpm>
</extensions>
</trkpt>
<trkpt lat="63.828617096" lon="-19.207450867">
<ele>562.937500</ele>
<time>2012-07-26T11:45:24Z</time>
<speed>0.250000</speed>
<extensions>
<speed>0.2</speed>
<temp>0.00</temp>
<bpm>0</bpm>
<rpm>0.00</rpm>
</extensions>
</trkpt>
<trkpt lat="63.828624725" lon="-19.207429886">
<ele>563.921875</ele>
<time>2012-07-26T11:45:29Z</time>
<speed>0.220000</speed>
<extensions>
<speed>0.2</speed>
<temp>0.00</temp>
<bpm>0</bpm>
<rpm>0.00</rpm>
</extensions>
</trkpt>
<trkpt lat="63.828639984" lon="-19.207420349">
<ele>564.406250</ele>
<time>2012-07-26T11:45:34Z</time>
<speed>0.190000</speed>
<extensions>
<speed>0.2</speed>
<temp>0.00</temp>
<bpm>0</bpm>
<rpm>0.00</rpm>
</extensions>
</trkpt>
<trkpt lat="63.828632355" lon="-19.207433701">
<ele>564.593750</ele>
<time>2012-07-26T11:45:39Z</time>
<speed>0.360000</speed>
<extensions>
<speed>0.4</speed>
<temp>0.00</temp>
<bpm>0</bpm>
<rpm>0.00</rpm>
</extensions>
</trkpt>
<trkpt lat="63.828632355" lon="-19.207443237">
<ele>564.968750</ele>
<time>2012-07-26T11:45:44Z</time>
<speed>0.120000</speed>
<extensions>
<speed>0.1</speed>
<temp>0.00</temp>
<bpm>0</bpm>
<rpm>0.00</rpm>
</extensions>
</trkpt>
<trkpt lat="63.828632355" lon="-19.207439423">
<ele>565.203125</ele>
<time>2012-07-26T11:45:49Z</time>
<speed>0.070000</speed>
<extensions>
<speed>0.1</speed>
<temp>0.00</temp>
<bpm>0</bpm>
<rpm>0.00</rpm>
</extensions>
</trkpt>
<trkpt lat="63.828632355" lon="-19.207435608">
<ele>565.265625</ele>
<time>2012-07-26T11:45:54Z</time>
<speed>0.190000</speed>
<extensions>
<speed>0.2</speed>
<temp>0.00</temp>
<bpm>0</bpm>
<rpm>0.00</rpm>
</extensions>
</trkpt>
<trkpt lat="63.828636169" lon="-19.207448959">
<ele>565.093750</ele>
<time>2012-07-26T11:45:59Z</time>
<speed>0.140000</speed>
<extensions>
<speed>0.1</speed>
<temp>0.00</temp>
<bpm>0</bpm>
<rpm>0.00</rpm>
</extensions>
</trkpt>
<trkpt lat="63.828636169" lon="-19.207445145">
<ele>565.234375</ele>
<time>2012-07-26T11:46:04Z</time>
<speed>0.100000</speed>
<extensions>
<speed>0.1</speed>
<temp>0.00</temp>
<bpm>0</bpm>
<rpm>0.00</rpm>
</extensions>
</trkpt>
<trkpt lat="63.828639984" lon="-19.207437515">
<ele>565.343750</ele>
<time>2012-07-26T11:46:09Z</time>
<speed>0.120000</speed>
<extensions>
<speed>0.1</speed>
<temp>0.00</temp>
<bpm>0</bpm>
<rpm>0.00</rpm>
</extensions>
</trkpt>
<trkpt lat="63.828636169" lon="-19.207443237">
<ele>565.328125</ele>
<time>2012-07-26T11:46:14Z</time>
<speed>0.010000</speed>
<extensions>
<speed>0.0</speed>
<temp>0.00</temp>
<bpm>0</bpm>
<rpm>0.00</rpm>
</extensions>
</trkpt>
<trkpt lat="63.828639984" lon="-19.207441330">
<ele>565.312500</ele>
<time>2012-07-26T11:46:19Z</time>
<speed>0.090000</speed>
<extensions>
<speed>0.1</speed>
<temp>0.00</temp>
<bpm>0</bpm>
<rpm>0.00</rpm>
</extensions>
</trkpt>
<trkpt lat="63.828639984" lon="-19.207439423">
<ele>565.296875</ele>
<time>2012-07-26T11:46:24Z</time>
<speed>0.040000</speed>
<extensions>
<speed>0.0</speed>
<temp>0.00</temp>
<bpm>0</bpm>
<rpm>0.00</rpm>
</extensions>
</trkpt>
<trkpt lat="63.828639984" lon="-19.207439423">
<ele>565.296875</ele>
<time>2012-07-26T11:46:29Z</time>
<speed>0.010000</speed>
<extensions>
<speed>0.0</speed>
<temp>0.00</temp>
<bpm>0</bpm>
<rpm>0.00</rpm>
</extensions>
</trkpt>
<trkpt lat="63.828639984" lon="-19.207439423">
<ele>565.281250</ele>
<time>2012-07-26T11:46:34Z</time>
<speed>0.010000</speed>
<extensions>
<speed>0.0</speed>
<temp>0.00</temp>
<bpm>0</bpm>
<rpm>0.00</rpm>
</extensions>
</trkpt>
<trkpt lat="63.828639984" lon="-19.207439423">
<ele>565.281250</ele>
<time>2012-07-26T11:46:39Z</time>
<extensions>
<speed>0.0</speed>
<temp>0.00</temp>
<bpm>0</bpm>
<rpm>0.00</rpm>
</extensions>
</trkpt>
<trkpt lat="63.828639984" lon="-19.207437515">
<ele>565.281250</ele>
<time>2012-07-26T11:46:44Z</time>
<extensions>
<speed>0.0</speed>
<temp>0.00</temp>
<bpm>0</bpm>
<rpm>0.00</rpm>
</extensions>
</trkpt>
<trkpt lat="63.828639984" lon="-19.207437515">
<ele>565.296875</ele>
<time>2012-07-26T11:46:49Z</time>
<speed>0.010000</speed>
<extensions>
<speed>0.0</speed>
<temp>0.00</temp>
<bpm>0</bpm>
<rpm>0.00</rpm>
</extensions>
</trkpt>
<trkpt lat="63.828639984" lon="-19.207437515">
<ele>565.312500</ele>
<time>2012-07-26T11:46:54Z</time>
<extensions>
<speed>0.0</speed>
<temp>0.00</temp>
<bpm>0</bpm>
<rpm>0.00</rpm>
</extensions>
</trkpt>
<trkpt lat="63.828639984" lon="-19.207437515">
<ele>565.328125</ele>
<time>2012-07-26T11:46:59Z</time>
<speed>0.010000</speed>
<extensions>
<speed>0.0</speed>
<temp>0.00</temp>
<bpm>0</bpm>
<rpm>0.00</rpm>
</extensions>
</trkpt>
<trkpt lat="63.828639984" lon="-19.207435608">
<ele>565.328125</ele>
<time>2012-07-26T11:47:04Z</time>
<extensions>
<speed>0.0</speed>
<temp>0.00</temp>
<bpm>0</bpm>
<rpm>0.00</rpm>
</extensions>
</trkpt>
<trkpt lat="63.828639984" lon="-19.207435608">
<ele>565.343750</ele>
<time>2012-07-26T11:47:09Z</time>
<extensions>
<speed>0.0</speed>
<temp>0.00</temp>
<bpm>0</bpm>
<rpm>0.00</rpm>
</extensions>
</trkpt>
<trkpt lat="63.828639984" lon="-19.207435608">
<ele>565.343750</ele>
<time>2012-07-26T11:47:14Z</time>
<extensions>
<speed>0.0</speed>
<temp>0.00</temp>
<bpm>0</bpm>
<rpm>0.00</rpm>
</extensions>
</trkpt>
<trkpt lat="63.828639984" lon="-19.207435608">
<ele>565.359375</ele>
<time>2012-07-26T11:47:19Z</time>
<extensions>
<speed>0.0</speed>
<temp>0.00</temp>
<bpm>0</bpm>
<rpm>0.00</rpm>
</extensions>
</trkpt>
<trkpt lat="63.828639984" lon="-19.207435608">
<ele>565.343750</ele>
<time>2012-07-26T11:47:24Z</time>
<speed>0.010000</speed>
<extensions>
<speed>0.0</speed>
<temp>0.00</temp>
<bpm>0</bpm>
<rpm>0.00</rpm>
</extensions>
</trkpt>
<trkpt lat="63.828639984" lon="-19.207435608">
<ele>565.343750</ele>
<time>2012-07-26T11:47:29Z</time>
<speed>0.030000</speed>
<extensions>
<speed>0.0</speed>
<temp>0.00</temp>
<bpm>0</bpm>
<rpm>0.00</rpm>
</extensions>
</trkpt>
<trkpt lat="63.828639984" lon="-19.207435608">
<ele>565.343750</ele>
<time>2012-07-26T11:47:34Z</time>
<speed>0.040000</speed>
<extensions>
<speed>0.0</speed>
<temp>0.00</temp>
<bpm>0</bpm>
<rpm>0.00</rpm>
</extensions>
</trkpt>
<trkpt lat="63.828639984" lon="-19.207435608">
<ele>565.343750</ele>
<time>2012-07-26T11:47:39Z</time>
<extensions>
<speed>0.0</speed>
<temp>0.00</temp>
<bpm>0</bpm>
<rpm>0.00</rpm>
</extensions>
</trkpt>
<trkpt lat="63.828639984" lon="-19.207435608">
<ele>565.328125</ele>
<time>2012-07-26T11:47:44Z</time>
<extensions>
<speed>0.0</speed>
<temp>0.00</temp>
<bpm>0</bpm>
<rpm>0.00</rpm>
</extensions>
</trkpt>
<trkpt lat="63.828639984" lon="-19.207435608">
<ele>565.312500</ele>
<time>2012-07-26T11:47:49Z</time>
<extensions>
<speed>0.0</speed>
<temp>0.00</temp>
<bpm>0</bpm>
<rpm>0.00</rpm>
</extensions>
</trkpt>
<trkpt lat="63.828639984" lon="-19.207437515">
<ele>565.296875</ele>
<time>2012-07-26T11:47:54Z</time>
<speed>0.010000</speed>
<extensions>
<speed>0.0</speed>
<temp>0.00</temp>
<bpm>0</bpm>
<rpm>0.00</rpm>
</extensions>
</trkpt>
<trkpt lat="63.828639984" lon="-19.207437515">
<ele>565.296875</ele>
<time>2012-07-26T11:47:59Z</time>
<speed>0.010000</speed>
<extensions>
<speed>0.0</speed>
<temp>0.00</temp>
<bpm>0</bpm>
<rpm>0.00</rpm>
</extensions>
</trkpt>
<trkpt lat="63.828636169" lon="-19.207437515">
<ele>565.265625</ele>
<time>2012-07-26T11:48:04Z</time>
<speed>0.020000</speed>
<extensions>
<speed>0.0</speed>
<temp>0.00</temp>
<bpm>0</bpm>
<rpm>0.00</rpm>
</extensions>
</trkpt>
<trkpt lat="63.828636169" lon="-19.207437515">
<ele>565.265625</ele>
<time>2012-07-26T11:48:09Z</time>
<speed>0.020000</speed>
<extensions>
<speed>0.0</speed>
<temp>0.00</temp>
<bpm>0</bpm>
<rpm>0.00</rpm>
</extensions>
</trkpt>
<trkpt lat="63.828636169" lon="-19.207437515">
<ele>565.250000</ele>
<time>2012-07-26T11:48:14Z</time>
<speed>0.020000</speed>
<extensions>
<speed>0.0</speed>
<temp>0.00</temp>
<bpm>0</bpm>
<rpm>0.00</rpm>
</extensions>
</trkpt>
<trkpt lat="63.828636169" lon="-19.207439423">
<ele>565.250000</ele>
<time>2012-07-26T11:48:19Z</time>
<speed>0.040000</speed>
<extensions>
<speed>0.0</speed>
<temp>0.00</temp>
<bpm>0</bpm>
<rpm>0.00</rpm>
</extensions>
</trkpt>
<trkpt lat="63.828636169" lon="-19.207439423">
<ele>565.250000</ele>
<time>2012-07-26T11:48:24Z</time>
<speed>0.020000</speed>
<extensions>
<speed>0.0</speed>
<temp>0.00</temp>
<bpm>0</bpm>
<rpm>0.00</rpm>
</extensions>
</trkpt>
<trkpt lat="63.828636169" lon="-19.207439423">
<ele>565.250000</ele>
<time>2012-07-26T11:48:29Z</time>
<speed>0.010000</speed>
<extensions>
<speed>0.0</speed>
<temp>0.00</temp>
<bpm>0</bpm>
<rpm>0.00</rpm>
</extensions>
</trkpt>
<trkpt lat="63.828636169" lon="-19.207439423">
<ele>565.234375</ele>
<time>2012-07-26T11:48:34Z</time>
<extensions>
<speed>0.0</speed>
<temp>0.00</temp>
<bpm>0</bpm>
<rpm>0.00</rpm>
</extensions>
</trkpt>
<trkpt lat="63.828636169" lon="-19.207439423">
<ele>565.203125</ele>
<time>2012-07-26T11:48:39Z</time>
<extensions>
<speed>0.0</speed>
<temp>0.00</temp>
<bpm>0</bpm>
<rpm>0.00</rpm>
</extensions>
</trkpt>
<trkpt lat="63.828636169" lon="-19.207439423">
<ele>565.187500</ele>
<time>2012-07-26T11:48:44Z</time>
<speed>0.030000</speed>
<extensions>
<speed>0.0</speed>
<temp>0.00</temp>
<bpm>0</bpm>
<rpm>0.00</rpm>
</extensions>
</trkpt>
<trkpt lat="63.828636169" lon="-19.207441330">
<ele>565.203125</ele>
<time>2012-07-26T11:48:49Z</time>
<extensions>
<speed>0.0</speed>
<temp>0.00</temp>
<bpm>0</bpm>
<rpm>0.00</rpm>
</extensions>
</trkpt>
<trkpt lat="63.828636169" lon="-19.207441330">
<ele>565.187500</ele>
<time>2012-07-26T11:48:54Z</time>
<speed>0.040000</speed>
<extensions>
<speed>0.0</speed>
<temp>0.00</temp>
<bpm>0</bpm>
<rpm>0.00</rpm>
</extensions>
</trkpt>
<trkpt lat="63.828636169" lon="-19.207441330">
<ele>565.187500</ele>
<time>2012-07-26T11:48:59Z</time>
<speed>0.010000</speed>
<extensions>
<speed>0.0</speed>
<temp>0.00</temp>
<bpm>0</bpm>
<rpm>0.00</rpm>
</extensions>
</trkpt>
<trkpt lat="63.828636169" lon="-19.207441330">
<ele>565.187500</ele>
<time>2012-07-26T11:49:04Z</time>
<extensions>
<speed>0.0</speed>
<temp>0.00</temp>
<bpm>0</bpm>
<rpm>0.00</rpm>
</extensions>
</trkpt>
<trkpt lat="63.828636169" lon="-19.207441330">
<ele>565.187500</ele>
<time>2012-07-26T11:49:09Z</time>
<extensions>
<speed>0.0</speed>
<temp>0.00</temp>
<bpm>0</bpm>
<rpm>0.00</rpm>
</extensions>
</trkpt>
<trkpt lat="63.828636169" lon="-19.207441330">
<ele>565.187500</ele>
<time>2012-07-26T11:49:14Z</time>
<extensions>
<speed>0.0</speed>
<temp>0.00</temp>
<bpm>0</bpm>
<rpm>0.00</rpm>
</extensions>
</trkpt>
<trkpt lat="63.828636169" lon="-19.207441330">
<ele>565.187500</ele>
<time>2012-07-26T11:49:19Z</time>
<extensions>
<speed>0.0</speed>
<temp>0.00</temp>
<bpm>0</bpm>
<rpm>0.00</rpm>
</extensions>
</trkpt>
<trkpt lat="63.828636169" lon="-19.207441330">
<ele>565.234375</ele>
<time>2012-07-26T11:49:24Z</time>
<extensions>
<speed>0.0</speed>
<temp>0.00</temp>
<bpm>0</bpm>
<rpm>0.00</rpm>
</extensions>
</trkpt>
<trkpt lat="63.828636169" lon="-19.207441330">
<ele>565.281250</ele>
<time>2012-07-26T11:49:29Z</time>
<speed>0.090000</speed>
<extensions>
<speed>0.1</speed>
<temp>0.00</temp>
<bpm>0</bpm>
<rpm>0.00</rpm>
</extensions>
</trkpt>
<trkpt lat="63.828636169" lon="-19.207441330">
<ele>565.328125</ele>
<time>2012-07-26T11:49:34Z</time>
<speed>0.010000</speed>
<extensions>
<speed>0.0</speed>
<temp>0.00</temp>
<bpm>0</bpm>
<rpm>0.00</rpm>
</extensions>
</trkpt>
<trkpt lat="63.828636169" lon="-19.207439423">
<ele>565.359375</ele>
<time>2012-07-26T11:49:39Z</time>
<extensions>
<speed>0.0</speed>
<temp>0.00</temp>
<bpm>0</bpm>
<rpm>0.00</rpm>
</extensions>
</trkpt>
<trkpt lat="63.828636169" lon="-19.207439423">
<ele>565.390625</ele>
<time>2012-07-26T11:49:44Z</time>
<speed>0.010000</speed>
<extensions>
<speed>0.0</speed>
<temp>0.00</temp>
<bpm>0</bpm>
<rpm>0.00</rpm>
</extensions>
</trkpt>
<trkpt lat="63.828636169" lon="-19.207439423">
<ele>565.406250</ele>
<time>2012-07-26T11:49:49Z</time>
<extensions>
<speed>0.0</speed>
<temp>0.00</temp>
<bpm>0</bpm>
<rpm>0.00</rpm>
</extensions>
</trkpt>
<trkpt lat="63.828636169" lon="-19.207439423">
<ele>565.406250</ele>
<time>2012-07-26T11:49:54Z</time>
<extensions>
<speed>0.0</speed>
<temp>0.00</temp>
<bpm>0</bpm>
<rpm>0.00</rpm>
</extensions>
</trkpt>
<trkpt lat="63.828636169" lon="-19.207439423">
<ele>565.437500</ele>
<time>2012-07-26T11:49:59Z</time>
<speed>0.080000</speed>
<extensions>
<speed>0.1</speed>
<temp>0.00</temp>
<bpm>0</bpm>
<rpm>0.00</rpm>
</extensions>
</trkpt>
<trkpt lat="63.828636169" lon="-19.207439423">
<ele>565.468750</ele>
<time>2012-07-26T11:50:04Z</time>
<extensions>
<speed>0.0</speed>
<temp>0.00</temp>
<bpm>0</bpm>
<rpm>0.00</rpm>
</extensions>
</trkpt>
<trkpt lat="63.828636169" lon="-19.207439423">
<ele>565.484375</ele>
<time>2012-07-26T11:50:09Z</time>
<speed>0.020000</speed>
<extensions>
<speed>0.0</speed>
<temp>0.00</temp>
<bpm>0</bpm>
<rpm>0.00</rpm>
</extensions>
</trkpt>
<trkpt lat="63.828636169" lon="-19.207439423">
<ele>565.515625</ele>
<time>2012-07-26T11:50:14Z</time>
<speed>0.010000</speed>
<extensions>
<speed>0.0</speed>
<temp>0.00</temp>
<bpm>0</bpm>
<rpm>0.00</rpm>
</extensions>
</trkpt>
<trkpt lat="63.828636169" lon="-19.207437515">
<ele>565.531250</ele>
<time>2012-07-26T11:50:19Z</time>
<speed>0.010000</speed>
<extensions>
<speed>0.0</speed>
<temp>0.00</temp>
<bpm>0</bpm>
<rpm>0.00</rpm>
</extensions>
</trkpt>
<trkpt lat="63.828636169" lon="-19.207437515">
<ele>565.546875</ele>
<time>2012-07-26T11:50:24Z</time>
<extensions>
<speed>0.0</speed>
<temp>0.00</temp>
<bpm>0</bpm>
<rpm>0.00</rpm>
</extensions>
</trkpt>
<trkpt lat="63.828636169" lon="-19.207437515">
<ele>565.562500</ele>
<time>2012-07-26T11:50:29Z</time>
<speed>0.010000</speed>
<extensions>
<speed>0.0</speed>
<temp>0.00</temp>
<bpm>0</bpm>
<rpm>0.00</rpm>
</extensions>
</trkpt>
<trkpt lat="63.828636169" lon="-19.207435608">
<ele>565.578125</ele>
<time>2012-07-26T11:50:34Z</time>
<extensions>
<speed>0.0</speed>
<temp>0.00</temp>
<bpm>0</bpm>
<rpm>0.00</rpm>
</extensions>
</trkpt>
<trkpt lat="63.828636169" lon="-19.207435608">
<ele>565.609375</ele>
<time>2012-07-26T11:50:39Z</time>
<extensions>
<speed>0.0</speed>
<temp>0.00</temp>
<bpm>0</bpm>
<rpm>0.00</rpm>
</extensions>
</trkpt>
<trkpt lat="63.828636169" lon="-19.207435608">
<ele>565.609375</ele>
<time>2012-07-26T11:50:44Z</time>
<speed>0.010000</speed>
<extensions>
<speed>0.0</speed>
<temp>0.00</temp>
<bpm>0</bpm>
<rpm>0.00</rpm>
</extensions>
</trkpt>
<trkpt lat="63.828636169" lon="-19.207435608">
<ele>565.640625</ele>
<time>2012-07-26T11:50:49Z</time>
<speed>0.020000</speed>
<extensions>
<speed>0.0</speed>
<temp>0.00</temp>
<bpm>0</bpm>
<rpm>0.00</rpm>
</extensions>
</trkpt>
<trkpt lat="63.828636169" lon="-19.207435608">
<ele>565.640625</ele>
<time>2012-07-26T11:50:54Z</time>
<speed>0.010000</speed>
<extensions>
<speed>0.0</speed>
<temp>0.00</temp>
<bpm>0</bpm>
<rpm>0.00</rpm>
</extensions>
</trkpt>
<trkpt lat="63.828636169" lon="-19.207433701">
<ele>565.640625</ele>
<time>2012-07-26T11:50:59Z</time>
<extensions>
<speed>0.0</speed>
<temp>0.00</temp>
<bpm>0</bpm>
<rpm>0.00</rpm>
</extensions>
</trkpt>
<trkpt lat="63.828636169" lon="-19.207433701">
<ele>565.656250</ele>
<time>2012-07-26T11:51:04Z</time>
<extensions>
<speed>0.0</speed>
<temp>0.00</temp>
<bpm>0</bpm>
<rpm>0.00</rpm>
</extensions>
</trkpt>
<trkpt lat="63.828636169" lon="-19.207433701">
<ele>565.656250</ele>
<time>2012-07-26T11:51:09Z</time>
<speed>0.010000</speed>
<extensions>
<speed>0.0</speed>
<temp>0.00</temp>
<bpm>0</bpm>
<rpm>0.00</rpm>
</extensions>
</trkpt>
<trkpt lat="63.828636169" lon="-19.207433701">
<ele>565.687500</ele>
<time>2012-07-26T11:51:14Z</time>
<speed>0.020000</speed>
<extensions>
<speed>0.0</speed>
<temp>0.00</temp>
<bpm>0</bpm>
<rpm>0.00</rpm>
</extensions>
</trkpt>
<trkpt lat="63.828636169" lon="-19.207433701">
<ele>565.703125</ele>
<time>2012-07-26T11:51:19Z</time>
<extensions>
<speed>0.0</speed>
<temp>0.00</temp>
<bpm>0</bpm>
<rpm>0.00</rpm>
</extensions>
</trkpt>
<trkpt lat="63.828636169" lon="-19.207433701">
<ele>565.718750</ele>
<time>2012-07-26T11:51:24Z</time>
<speed>0.070000</speed>
<extensions>
<speed>0.1</speed>
<temp>0.00</temp>
<bpm>0</bpm>
<rpm>0.00</rpm>
</extensions>
</trkpt>
<trkpt lat="63.828636169" lon="-19.207426071">
<ele>565.812500</ele>
<time>2012-07-26T11:51:29Z</time>
<speed>0.130000</speed>
<extensions>
<speed>0.1</speed>
<temp>0.00</temp>
<bpm>0</bpm>
<rpm>0.00</rpm>
</extensions>
</trkpt>
<trkpt lat="63.828639984" lon="-19.207416534">
<ele>565.968750</ele>
<time>2012-07-26T11:51:34Z</time>
<speed>0.090000</speed>
<extensions>
<speed>0.1</speed>
<temp>0.00</temp>
<bpm>0</bpm>
<rpm>0.00</rpm>
</extensions>
</trkpt>
<trkpt lat="63.828643799" lon="-19.207431793">
<ele>566.109375</ele>
<time>2012-07-26T11:51:39Z</time>
<speed>0.120000</speed>
<extensions>
<speed>0.1</speed>
<temp>0.00</temp>
<bpm>0</bpm>
<rpm>0.00</rpm>
</extensions>
</trkpt>
<trkpt lat="63.828639984" lon="-19.207439423">
<ele>566.171875</ele>
<time>2012-07-26T11:51:44Z</time>
<speed>0.170000</speed>
<extensions>
<speed>0.2</speed>
<temp>0.00</temp>
<bpm>0</bpm>
<rpm>0.00</rpm>
</extensions>
</trkpt>
<trkpt lat="63.828651428" lon="-19.207437515">
<ele>565.656250</ele>
<time>2012-07-26T11:51:49Z</time>
<speed>0.160000</speed>
<extensions>
<speed>0.2</speed>
<temp>0.00</temp>
<bpm>0</bpm>
<rpm>0.00</rpm>
</extensions>
</trkpt>
<trkpt lat="63.828651428" lon="-19.207433701">
<ele>565.656250</ele>
<time>2012-07-26T11:51:54Z</time>
<speed>0.170000</speed>
<extensions>
<speed>0.2</speed>
<temp>0.00</temp>
<bpm>0</bpm>
<rpm>0.00</rpm>
</extensions>
</trkpt>
<trkpt lat="63.828651428" lon="-19.207429886">
<ele>565.671875</ele>
<time>2012-07-26T11:51:59Z</time>
<speed>0.170000</speed>
<extensions>
<speed>0.2</speed>
<temp>0.00</temp>
<bpm>0</bpm>
<rpm>0.00</rpm>
</extensions>
</trkpt>
<trkpt lat="63.828651428" lon="-19.207426071">
<ele>565.671875</ele>
<time>2012-07-26T11:52:04Z</time>
<speed>0.040000</speed>
<extensions>
<speed>0.0</speed>
<temp>0.00</temp>
<bpm>0</bpm>
<rpm>0.00</rpm>
</extensions>
</trkpt>
<trkpt lat="63.828655243" lon="-19.207429886">
<ele>565.640625</ele>
<time>2012-07-26T11:52:09Z</time>
<speed>0.270000</speed>
<extensions>
<speed>0.3</speed>
<temp>0.00</temp>
<bpm>0</bpm>
<rpm>0.00</rpm>
</extensions>
</trkpt>
<trkpt lat="63.828632355" lon="-19.207502365">
<ele>565.859375</ele>
<time>2012-07-26T11:52:14Z</time>
<speed>0.020000</speed>
<extensions>
<speed>0.0</speed>
<temp>0.00</temp>
<bpm>0</bpm>
<rpm>0.00</rpm>
</extensions>
</trkpt>
<trkpt lat="63.828632355" lon="-19.207515717">
<ele>565.609375</ele>
<time>2012-07-26T11:52:19Z</time>
<speed>0.230000</speed>
<extensions>
<speed>0.2</speed>
<temp>0.00</temp>
<bpm>0</bpm>
<rpm>0.00</rpm>
</extensions>
</trkpt>
<trkpt lat="63.828632355" lon="-19.207534790">
<ele>565.578125</ele>
<time>2012-07-26T11:52:24Z</time>
<speed>0.150000</speed>
<extensions>
<speed>0.2</speed>
<temp>0.00</temp>
<bpm>0</bpm>
<rpm>0.00</rpm>
</extensions>
</trkpt>
<trkpt lat="63.828628540" lon="-19.207540512">
<ele>565.515625</ele>
<time>2012-07-26T11:52:29Z</time>
<speed>0.080000</speed>
<extensions>
<speed>0.1</speed>
<temp>0.00</temp>
<bpm>0</bpm>
<rpm>0.00</rpm>
</extensions>
</trkpt>
<trkpt lat="63.828628540" lon="-19.207548141">
<ele>565.375000</ele>
<time>2012-07-26T11:52:34Z</time>
<speed>0.080000</speed>
<extensions>
<speed>0.1</speed>
<temp>0.00</temp>
<bpm>0</bpm>
<rpm>0.00</rpm>
</extensions>
</trkpt>
<trkpt lat="63.828624725" lon="-19.207551956">
<ele>565.031250</ele>
<time>2012-07-26T11:52:39Z</time>
<speed>0.130000</speed>
<extensions>
<speed>0.1</speed>
<temp>0.00</temp>
<bpm>0</bpm>
<rpm>0.00</rpm>
</extensions>
</trkpt>
<trkpt lat="63.828620911" lon="-19.207557678">
<ele>564.609375</ele>
<time>2012-07-26T11:52:44Z</time>
<speed>0.130000</speed>
<extensions>
<speed>0.1</speed>
<temp>0.00</temp>
<bpm>0</bpm>
<rpm>0.00</rpm>
</extensions>
</trkpt>
<trkpt lat="63.828617096" lon="-19.207563400">
<ele>564.125000</ele>
<time>2012-07-26T11:52:49Z</time>
<speed>0.260000</speed>
<extensions>
<speed>0.3</speed>
<temp>0.00</temp>
<bpm>0</bpm>
<rpm>0.00</rpm>
</extensions>
</trkpt>
<trkpt lat="63.828575134" lon="-19.207649231">
<ele>564.156250</ele>
<time>2012-07-26T11:52:54Z</time>
<speed>1.740000</speed>
<extensions>
<speed>1.7</speed>
<temp>0.00</temp>
<bpm>0</bpm>
<rpm>0.00</rpm>
</extensions>
</trkpt>
<trkpt lat="63.828502655" lon="-19.207780838">
<ele>563.250000</ele>
<time>2012-07-26T11:52:59Z</time>
<speed>2.110000</speed>
<extensions>
<speed>2.1</speed>
<temp>0.00</temp>
<bpm>0</bpm>
<rpm>0.00</rpm>
</extensions>
</trkpt>
<trkpt lat="63.828422546" lon="-19.207967758">
<ele>562.609375</ele>
<time>2012-07-26T11:53:04Z</time>
<speed>2.580000</speed>
<extensions>
<speed>2.6</speed>
<temp>0.00</temp>
<bpm>0</bpm>
<rpm>0.00</rpm>
</extensions>
</trkpt>
<trkpt lat="63.828361511" lon="-19.208211899">
<ele>562.437500</ele>
<time>2012-07-26T11:53:09Z</time>
<speed>2.490000</speed>
<extensions>
<speed>2.5</speed>
<temp>0.00</temp>
<bpm>0</bpm>
<rpm>0.00</rpm>
</extensions>
</trkpt>
<trkpt lat="63.828315735" lon="-19.208467484">
<ele>563.062500</ele>
<time>2012-07-26T11:53:14Z</time>
<speed>2.590000</speed>
<extensions>
<speed>2.6</speed>
<temp>0.00</temp>
<bpm>0</bpm>
<rpm>0.00</rpm>
</extensions>
</trkpt>
<trkpt lat="63.828281403" lon="-19.208667755">
<ele>563.765625</ele>
<time>2012-07-26T11:53:19Z</time>
<speed>1.610000</speed>
<extensions>
<speed>1.6</speed>
<temp>0.00</temp>
<bpm>0</bpm>
<rpm>0.00</rpm>
</extensions>
</trkpt>
<trkpt lat="63.828247070" lon="-19.208854675">
<ele>564.468750</ele>
<time>2012-07-26T11:53:24Z</time>
<speed>2.480000</speed>
<extensions>
<speed>2.5</speed>
<temp>0.00</temp>
<bpm>0</bpm>
<rpm>0.00</rpm>
</extensions>
</trkpt>
<trkpt lat="63.828166962" lon="-19.209045410">
<ele>565.046875</ele>
<time>2012-07-26T11:53:29Z</time>
<speed>2.770000</speed>
<extensions>
<speed>2.8</speed>
<temp>0.00</temp>
<bpm>0</bpm>
<rpm>0.00</rpm>
</extensions>
</trkpt>
<trkpt lat="63.828067780" lon="-19.209224701">
<ele>565.500000</ele>
<time>2012-07-26T11:53:34Z</time>
<speed>3.140000</speed>
<extensions>
<speed>3.1</speed>
<temp>0.00</temp>
<bpm>0</bpm>
<rpm>0.00</rpm>
</extensions>
</trkpt>
<trkpt lat="63.827964783" lon="-19.209278107">
<ele>566.718750</ele>
<time>2012-07-26T11:53:39Z</time>
<speed>2.140000</speed>
<extensions>
<speed>2.1</speed>
<temp>0.00</temp>
<bpm>0</bpm>
<rpm>0.00</rpm>
</extensions>
</trkpt>
<trkpt lat="63.827873230" lon="-19.209346771">
<ele>567.687500</ele>
<time>2012-07-26T11:53:44Z</time>
<speed>2.020000</speed>
<extensions>
<speed>2.0</speed>
<temp>0.00</temp>
<bpm>0</bpm>
<rpm>0.00</rpm>
</extensions>
</trkpt>
<trkpt lat="63.827785492" lon="-19.209461212">
<ele>567.765625</ele>
<time>2012-07-26T11:53:49Z</time>
<speed>2.700000</speed>
<extensions>
<speed>2.7</speed>
<temp>0.00</temp>
<bpm>0</bpm>
<rpm>0.00</rpm>
</extensions>
</trkpt>
<trkpt lat="63.827735901" lon="-19.209749222">
<ele>567.609375</ele>
<time>2012-07-26T11:53:54Z</time>
<speed>3.070000</speed>
<extensions>
<speed>3.1</speed>
<temp>0.00</temp>
<bpm>0</bpm>
<rpm>0.00</rpm>
</extensions>
</trkpt>
<trkpt lat="63.827659607" lon="-19.210094452">
<ele>566.875000</ele>
<time>2012-07-26T11:53:59Z</time>
<speed>4.100000</speed>
<extensions>
<speed>4.1</speed>
<temp>0.00</temp>
<bpm>0</bpm>
<rpm>0.00</rpm>
</extensions>
</trkpt>
<trkpt lat="63.827541351" lon="-19.210405350">
<ele>566.921875</ele>
<time>2012-07-26T11:54:04Z</time>
<speed>4.370000</speed>
<extensions>
<speed>4.4</speed>
<temp>0.00</temp>
<bpm>0</bpm>
<rpm>0.00</rpm>
</extensions>
</trkpt>
<trkpt lat="63.827373505" lon="-19.210676193">
<ele>566.062500</ele>
<time>2012-07-26T11:54:09Z</time>
<speed>4.530000</speed>
<extensions>
<speed>4.5</speed>
<temp>0.00</temp>
<bpm>0</bpm>
<rpm>0.00</rpm>
</extensions>
</trkpt>
<trkpt lat="63.827255249" lon="-19.210899353">
<ele>566.828125</ele>
<time>2012-07-26T11:54:14Z</time>
<speed>0.820000</speed>
<extensions>
<speed>0.8</speed>
<temp>0.00</temp>
<bpm>0</bpm>
<rpm>0.00</rpm>
</extensions>
</trkpt>
<trkpt lat="63.827262878" lon="-19.210889816">
<ele>568.171875</ele>
<time>2012-07-26T11:54:19Z</time>
<speed>0.060000</speed>
<extensions>
<speed>0.1</speed>
<temp>0.00</temp>
<bpm>0</bpm>
<rpm>0.00</rpm>
</extensions>
</trkpt>
<trkpt lat="63.827262878" lon="-19.210891724">
<ele>568.671875</ele>
<time>2012-07-26T11:54:24Z</time>
<speed>0.040000</speed>
<extensions>
<speed>0.0</speed>
<temp>0.00</temp>
<bpm>0</bpm>
<rpm>0.00</rpm>
</extensions>
</trkpt>
<trkpt lat="63.827266693" lon="-19.210895538">
<ele>568.937500</ele>
<time>2012-07-26T11:54:29Z</time>
<speed>0.180000</speed>
<extensions>
<speed>0.2</speed>
<temp>0.00</temp>
<bpm>0</bpm>
<rpm>0.00</rpm>
</extensions>
</trkpt>
<trkpt lat="63.827266693" lon="-19.210914612">
<ele>569.140625</ele>
<time>2012-07-26T11:54:34Z</time>
<speed>0.170000</speed>
<extensions>
<speed>0.2</speed>
<temp>0.00</temp>
<bpm>0</bpm>
<rpm>0.00</rpm>
</extensions>
</trkpt>
<trkpt lat="63.827266693" lon="-19.210935593">
<ele>569.312500</ele>
<time>2012-07-26T11:54:39Z</time>
<speed>0.150000</speed>
<extensions>
<speed>0.2</speed>
<temp>0.00</temp>
<bpm>0</bpm>
<rpm>0.00</rpm>
</extensions>
</trkpt>
<trkpt lat="63.827266693" lon="-19.210939407">
<ele>569.468750</ele>
<time>2012-07-26T11:54:44Z</time>
<speed>0.230000</speed>
<extensions>
<speed>0.2</speed>
<temp>0.00</temp>
<bpm>0</bpm>
<rpm>0.00</rpm>
</extensions>
</trkpt>
<trkpt lat="63.827270508" lon="-19.210935593">
<ele>569.609375</ele>
<time>2012-07-26T11:54:49Z</time>
<speed>0.020000</speed>
<extensions>
<speed>0.0</speed>
<temp>0.00</temp>
<bpm>0</bpm>
<rpm>0.00</rpm>
</extensions>
</trkpt>
<trkpt lat="63.827270508" lon="-19.210952759">
<ele>569.734375</ele>
<time>2012-07-26T11:54:54Z</time>
<speed>0.750000</speed>
<extensions>
<speed>0.8</speed>
<temp>0.00</temp>
<bpm>0</bpm>
<rpm>0.00</rpm>
</extensions>
</trkpt>
<trkpt lat="63.827304840" lon="-19.210899353">
<ele>569.234375</ele>
<time>2012-07-26T11:54:59Z</time>
<speed>2.290000</speed>
<extensions>
<speed>2.3</speed>
<temp>0.00</temp>
<bpm>0</bpm>
<rpm>0.00</rpm>
</extensions>
</trkpt>
<trkpt lat="63.827407837" lon="-19.210739136">
<ele>569.937500</ele>
<time>2012-07-26T11:55:04Z</time>
<speed>2.960000</speed>
<extensions>
<speed>3.0</speed>
<temp>0.00</temp>
<bpm>0</bpm>
<rpm>0.00</rpm>
</extensions>
</trkpt>
<trkpt lat="63.827526093" lon="-19.210538864">
<ele>571.062500</ele>
<time>2012-07-26T11:55:09Z</time>
<speed>3.320000</speed>
<extensions>
<speed>3.3</speed>
<temp>0.00</temp>
<bpm>0</bpm>
<rpm>0.00</rpm>
</extensions>
</trkpt>
<trkpt lat="63.827636719" lon="-19.210302353">
<ele>571.562500</ele>
<time>2012-07-26T11:55:14Z</time>
<speed>3.670000</speed>
<extensions>
<speed>3.7</speed>
<temp>0.00</temp>
<bpm>0</bpm>
<rpm>0.00</rpm>
</extensions>
</trkpt>
<trkpt lat="63.827732086" lon="-19.209970474">
<ele>572.609375</ele>
<time>2012-07-26T11:55:19Z</time>
<speed>3.560000</speed>
<extensions>
<speed>3.6</speed>
<temp>0.00</temp>
<bpm>0</bpm>
<rpm>0.00</rpm>
</extensions>
</trkpt>
<trkpt lat="63.827789307" lon="-19.209703445">
<ele>574.218750</ele>
<time>2012-07-26T11:55:24Z</time>
<speed>2.480000</speed>
<extensions>
<speed>2.5</speed>
<temp>0.00</temp>
<bpm>0</bpm>
<rpm>0.00</rpm>
</extensions>
</trkpt>
<trkpt lat="63.827793121" lon="-19.209564209">
<ele>574.265625</ele>
<time>2012-07-26T11:55:29Z</time>
<speed>0.370000</speed>
<extensions>
<speed>0.4</speed>
<temp>0.00</temp>
<bpm>0</bpm>
<rpm>0.00</rpm>
</extensions>
</trkpt>
<trkpt lat="63.827793121" lon="-19.209575653">
<ele>574.578125</ele>
<time>2012-07-26T11:55:34Z</time>
<extensions>
<speed>0.0</speed>
<temp>0.00</temp>
<bpm>0</bpm>
<rpm>0.00</rpm>
</extensions>
</trkpt>
<trkpt lat="63.827789307" lon="-19.209560394">
<ele>575.140625</ele>
<time>2012-07-26T11:55:39Z</time>
<speed>0.320000</speed>
<extensions>
<speed>0.3</speed>
<temp>0.00</temp>
<bpm>0</bpm>
<rpm>0.00</rpm>
</extensions>
</trkpt>
<trkpt lat="63.827766418" lon="-19.209608078">
<ele>574.250000</ele>
<time>2012-07-26T11:55:44Z</time>
<speed>1.750000</speed>
<extensions>
<speed>1.8</speed>
<temp>0.00</temp>
<bpm>0</bpm>
<rpm>0.00</rpm>
</extensions>
</trkpt>
<trkpt lat="63.827713013" lon="-19.209897995">
<ele>573.468750</ele>
<time>2012-07-26T11:55:49Z</time>
<speed>3.950000</speed>
<extensions>
<speed>4.0</speed>
<temp>0.00</temp>
<bpm>0</bpm>
<rpm>0.00</rpm>
</extensions>
</trkpt>
<trkpt lat="63.827594757" lon="-19.210260391">
<ele>571.984375</ele>
<time>2012-07-26T11:55:54Z</time>
<speed>4.990000</speed>
<extensions>
<speed>5.0</speed>
<temp>0.00</temp>
<bpm>0</bpm>
<rpm>0.00</rpm>
</extensions>
</trkpt>
<trkpt lat="63.827396393" lon="-19.210613251">
<ele>572.953125</ele>
<time>2012-07-26T11:55:59Z</time>
<speed>5.500000</speed>
<extensions>
<speed>5.5</speed>
<temp>0.00</temp>
<bpm>0</bpm>
<rpm>0.00</rpm>
</extensions>
</trkpt>
<trkpt lat="63.827201843" lon="-19.210990906">
<ele>569.812500</ele>
<time>2012-07-26T11:56:04Z</time>
<speed>5.750000</speed>
<extensions>
<speed>5.8</speed>
<temp>0.00</temp>
<bpm>0</bpm>
<rpm>0.00</rpm>
</extensions>
</trkpt>
<trkpt lat="63.827045441" lon="-19.211404800">
<ele>567.390625</ele>
<time>2012-07-26T11:56:09Z</time>
<speed>5.380000</speed>
<extensions>
<speed>5.4</speed>
<temp>0.00</temp>
<bpm>0</bpm>
<rpm>0.00</rpm>
</extensions>
</trkpt>
<trkpt lat="63.826896667" lon="-19.211771011">
<ele>562.531250</ele>
<time>2012-07-26T11:56:14Z</time>
<speed>3.900000</speed>
<extensions>
<speed>3.9</speed>
<temp>0.00</temp>
<bpm>0</bpm>
<rpm>0.00</rpm>
</extensions>
</trkpt>
<trkpt lat="63.826755524" lon="-19.212072372">
<ele>562.718750</ele>
<time>2012-07-26T11:56:19Z</time>
<speed>4.400000</speed>
<extensions>
<speed>4.4</speed>
<temp>0.00</temp>
<bpm>0</bpm>
<rpm>0.00</rpm>
</extensions>
</trkpt>
<trkpt lat="63.826625824" lon="-19.212301254">
<ele>563.453125</ele>
<time>2012-07-26T11:56:24Z</time>
<speed>3.110000</speed>
<extensions>
<speed>3.1</speed>
<temp>0.00</temp>
<bpm>0</bpm>
<rpm>0.00</rpm>
</extensions>
</trkpt>
<trkpt lat="63.826507568" lon="-19.212398529">
<ele>562.734375</ele>
<time>2012-07-26T11:56:29Z</time>
<speed>3.160000</speed>
<extensions>
<speed>3.2</speed>
<temp>0.00</temp>
<bpm>0</bpm>
<rpm>0.00</rpm>
</extensions>
</trkpt>
<trkpt lat="63.826419830" lon="-19.212505341">
<ele>564.062500</ele>
<time>2012-07-26T11:56:34Z</time>
<speed>1.600000</speed>
<extensions>
<speed>1.6</speed>
<temp>0.00</temp>
<bpm>0</bpm>
<rpm>0.00</rpm>
</extensions>
</trkpt>
<trkpt lat="63.826347351" lon="-19.212562561">
<ele>565.500000</ele>
<time>2012-07-26T11:56:39Z</time>
<speed>0.540000</speed>
<extensions>
<speed>0.5</speed>
<temp>0.00</temp>
<bpm>0</bpm>
<rpm>0.00</rpm>
</extensions>
</trkpt>
<trkpt lat="63.826305389" lon="-19.212614059">
<ele>566.921875</ele>
<time>2012-07-26T11:56:44Z</time>
<speed>1.360000</speed>
<extensions>
<speed>1.4</speed>
<temp>0.00</temp>
<bpm>0</bpm>
<rpm>0.00</rpm>
</extensions>
</trkpt>
<trkpt lat="63.826221466" lon="-19.212705612">
<ele>568.609375</ele>
<time>2012-07-26T11:56:49Z</time>
<speed>2.040000</speed>
<extensions>
<speed>2.0</speed>
<temp>0.00</temp>
<bpm>0</bpm>
<rpm>0.00</rpm>
</extensions>
</trkpt>
<trkpt lat="63.826133728" lon="-19.212812424">
<ele>569.656250</ele>
<time>2012-07-26T11:56:54Z</time>
<speed>1.940000</speed>
<extensions>
<speed>1.9</speed>
<temp>0.00</temp>
<bpm>0</bpm>
<rpm>0.00</rpm>
</extensions>
</trkpt>
<trkpt lat="63.826091766" lon="-19.212858200">
<ele>569.609375</ele>
<time>2012-07-26T11:56:59Z</time>
<speed>0.080000</speed>
<extensions>
<speed>0.1</speed>
<temp>0.00</temp>
<bpm>0</bpm>
<rpm>0.00</rpm>
</extensions>
</trkpt>
<trkpt lat="63.826057434" lon="-19.212919235">
<ele>567.015625</ele>
<time>2012-07-26T11:57:04Z</time>
<speed>0.610000</speed>
<extensions>
<speed>0.6</speed>
<temp>0.00</temp>
<bpm>0</bpm>
<rpm>0.00</rpm>
</extensions>
</trkpt>
<trkpt lat="63.826030731" lon="-19.212982178">
<ele>566.968750</ele>
<time>2012-07-26T11:57:09Z</time>
<speed>1.010000</speed>
<extensions>
<speed>1.0</speed>
<temp>0.00</temp>
<bpm>0</bpm>
<rpm>0.00</rpm>
</extensions>
</trkpt>
<trkpt lat="63.825988770" lon="-19.213056564">
<ele>567.953125</ele>
<time>2012-07-26T11:57:14Z</time>
<speed>0.800000</speed>
<extensions>
<speed>0.8</speed>
<temp>0.00</temp>
<bpm>0</bpm>
<rpm>0.00</rpm>
</extensions>
</trkpt>
<trkpt lat="63.825939178" lon="-19.213087082">
<ele>567.390625</ele>
<time>2012-07-26T11:57:19Z</time>
<speed>0.870000</speed>
<extensions>
<speed>0.9</speed>
<temp>0.00</temp>
<bpm>0</bpm>
<rpm>0.00</rpm>
</extensions>
</trkpt>
<trkpt lat="63.825897217" lon="-19.213140488">
<ele>566.484375</ele>
<time>2012-07-26T11:57:24Z</time>
<speed>0.890000</speed>
<extensions>
<speed>0.9</speed>
<temp>0.00</temp>
<bpm>0</bpm>
<rpm>0.00</rpm>
</extensions>
</trkpt>
<trkpt lat="63.825855255" lon="-19.213153839">
<ele>566.703125</ele>
<time>2012-07-26T11:57:29Z</time>
<speed>0.700000</speed>
<extensions>
<speed>0.7</speed>
<temp>0.00</temp>
<bpm>0</bpm>
<rpm>0.00</rpm>
</extensions>
</trkpt>
<trkpt lat="63.825824738" lon="-19.213212967">
<ele>565.484375</ele>
<time>2012-07-26T11:57:34Z</time>
<speed>0.990000</speed>
<extensions>
<speed>1.0</speed>
<temp>0.00</temp>
<bpm>0</bpm>
<rpm>0.00</rpm>
</extensions>
</trkpt>
<trkpt lat="63.825805664" lon="-19.213270187">
<ele>564.718750</ele>
<time>2012-07-26T11:57:39Z</time>
<speed>0.120000</speed>
<extensions>
<speed>0.1</speed>
<temp>0.00</temp>
<bpm>0</bpm>
<rpm>0.00</rpm>
</extensions>
</trkpt>
<trkpt lat="63.825782776" lon="-19.213275909">
<ele>564.218750</ele>
<time>2012-07-26T11:57:44Z</time>
<speed>0.450000</speed>
<extensions>
<speed>0.5</speed>
<temp>0.00</temp>
<bpm>0</bpm>
<rpm>0.00</rpm>
</extensions>
</trkpt>
<trkpt lat="63.825752258" lon="-19.213308334">
<ele>564.250000</ele>
<time>2012-07-26T11:57:49Z</time>
<speed>0.630000</speed>
<extensions>
<speed>0.6</speed>
<temp>0.00</temp>
<bpm>0</bpm>
<rpm>0.00</rpm>
</extensions>
</trkpt>
<trkpt lat="63.825740814" lon="-19.213333130">
<ele>565.250000</ele>
<time>2012-07-26T11:57:54Z</time>
<speed>0.590000</speed>
<extensions>
<speed>0.6</speed>
<temp>0.00</temp>
<bpm>0</bpm>
<rpm>0.00</rpm>
</extensions>
</trkpt>
<trkpt lat="63.825733185" lon="-19.213365555">
<ele>564.843750</ele>
<time>2012-07-26T11:57:59Z</time>
<speed>0.340000</speed>
<extensions>
<speed>0.3</speed>
<temp>0.00</temp>
<bpm>0</bpm>
<rpm>0.00</rpm>
</extensions>
</trkpt>
<trkpt lat="63.825717926" lon="-19.213418961">
<ele>565.343750</ele>
<time>2012-07-26T11:58:04Z</time>
<speed>0.590000</speed>
<extensions>
<speed>0.6</speed>
<temp>0.00</temp>
<bpm>0</bpm>
<rpm>0.00</rpm>
</extensions>
</trkpt>
<trkpt lat="63.825668335" lon="-19.213483810">
<ele>565.687500</ele>
<time>2012-07-26T11:58:09Z</time>
<speed>0.050000</speed>
<extensions>
<speed>0.1</speed>
<temp>0.00</temp>
<bpm>0</bpm>
<rpm>0.00</rpm>
</extensions>
</trkpt>
<trkpt lat="63.825664520" lon="-19.213478088">
<ele>565.312500</ele>
<time>2012-07-26T11:58:14Z</time>
<speed>0.080000</speed>
<extensions>
<speed>0.1</speed>
<temp>0.00</temp>
<bpm>0</bpm>
<rpm>0.00</rpm>
</extensions>
</trkpt>
<trkpt lat="63.825656891" lon="-19.213489532">
<ele>565.203125</ele>
<time>2012-07-26T11:58:19Z</time>
<speed>0.640000</speed>
<extensions>
<speed>0.6</speed>
<temp>0.00</temp>
<bpm>0</bpm>
<rpm>0.00</rpm>
</extensions>
</trkpt>
<trkpt lat="63.825626373" lon="-19.213512421">
<ele>565.234375</ele>
<time>2012-07-26T11:58:24Z</time>
<speed>1.110000</speed>
<extensions>
<speed>1.1</speed>
<temp>0.00</temp>
<bpm>0</bpm>
<rpm>0.00</rpm>
</extensions>
</trkpt>
<trkpt lat="63.825611115" lon="-19.213481903">
<ele>564.359375</ele>
<time>2012-07-26T11:58:29Z</time>
<speed>0.170000</speed>
<extensions>
<speed>0.2</speed>
<temp>0.00</temp>
<bpm>0</bpm>
<rpm>0.00</rpm>
</extensions>
</trkpt>
<trkpt lat="63.825611115" lon="-19.213493347">
<ele>564.359375</ele>
<time>2012-07-26T11:58:34Z</time>
<speed>0.260000</speed>
<extensions>
<speed>0.3</speed>
<temp>0.00</temp>
<bpm>0</bpm>
<rpm>0.00</rpm>
</extensions>
</trkpt>
<trkpt lat="63.825611115" lon="-19.213497162">
<ele>564.390625</ele>
<time>2012-07-26T11:58:39Z</time>
<speed>0.090000</speed>
<extensions>
<speed>0.1</speed>
<temp>0.00</temp>
<bpm>0</bpm>
<rpm>0.00</rpm>
</extensions>
</trkpt>
<trkpt lat="63.825611115" lon="-19.213502884">
<ele>564.421875</ele>
<time>2012-07-26T11:58:44Z</time>
<speed>0.260000</speed>
<extensions>
<speed>0.3</speed>
<temp>0.00</temp>
<bpm>0</bpm>
<rpm>0.00</rpm>
</extensions>
</trkpt>
<trkpt lat="63.825607300" lon="-19.213521957">
<ele>564.468750</ele>
<time>2012-07-26T11:58:49Z</time>
<speed>0.180000</speed>
<extensions>
<speed>0.2</speed>
<temp>0.00</temp>
<bpm>0</bpm>
<rpm>0.00</rpm>
</extensions>
</trkpt>
<trkpt lat="63.825599670" lon="-19.213533401">
<ele>563.812500</ele>
<time>2012-07-26T11:58:54Z</time>
<speed>0.090000</speed>
<extensions>
<speed>0.1</speed>
<temp>0.00</temp>
<bpm>0</bpm>
<rpm>0.00</rpm>
</extensions>
</trkpt>
<trkpt lat="63.825599670" lon="-19.213535309">
<ele>563.968750</ele>
<time>2012-07-26T11:58:59Z</time>
<speed>0.100000</speed>
<extensions>
<speed>0.1</speed>
<temp>0.00</temp>
<bpm>0</bpm>
<rpm>0.00</rpm>
</extensions>
</trkpt>
<trkpt lat="63.825595856" lon="-19.213535309">
<ele>564.203125</ele>
<time>2012-07-26T11:59:04Z</time>
<speed>0.270000</speed>
<extensions>
<speed>0.3</speed>
<temp>0.00</temp>
<bpm>0</bpm>
<rpm>0.00</rpm>
</extensions>
</trkpt>
<trkpt lat="63.825557709" lon="-19.213600159">
<ele>564.156250</ele>
<time>2012-07-26T11:59:09Z</time>
<speed>1.360000</speed>
<extensions>
<speed>1.4</speed>
<temp>0.00</temp>
<bpm>0</bpm>
<rpm>0.00</rpm>
</extensions>
</trkpt>
<trkpt lat="63.825504303" lon="-19.213693619">
<ele>564.078125</ele>
<time>2012-07-26T11:59:14Z</time>
<speed>1.140000</speed>
<extensions>
<speed>1.1</speed>
<temp>0.00</temp>
<bpm>0</bpm>
<rpm>0.00</rpm>
</extensions>
</trkpt>
<trkpt lat="63.825469971" lon="-19.213729858">
<ele>564.828125</ele>
<time>2012-07-26T11:59:19Z</time>
<speed>0.180000</speed>
<extensions>
<speed>0.2</speed>
<temp>0.00</temp>
<bpm>0</bpm>
<rpm>0.00</rpm>
</extensions>
</trkpt>
<trkpt lat="63.825462341" lon="-19.213754654">
<ele>564.593750</ele>
<time>2012-07-26T11:59:24Z</time>
<speed>0.080000</speed>
<extensions>
<speed>0.1</speed>
<temp>0.00</temp>
<bpm>0</bpm>
<rpm>0.00</rpm>
</extensions>
</trkpt>
<trkpt lat="63.825462341" lon="-19.213748932">
<ele>564.593750</ele>
<time>2012-07-26T11:59:29Z</time>
<speed>0.210000</speed>
<extensions>
<speed>0.2</speed>
<temp>0.00</temp>
<bpm>0</bpm>
<rpm>0.00</rpm>
</extensions>
</trkpt>
<trkpt lat="63.825466156" lon="-19.213733673">
<ele>565.265625</ele>
<time>2012-07-26T11:59:34Z</time>
<speed>0.380000</speed>
<extensions>
<speed>0.4</speed>
<temp>0.00</temp>
<bpm>0</bpm>
<rpm>0.00</rpm>
</extensions>
</trkpt>
<trkpt lat="63.825458527" lon="-19.213737488">
<ele>565.328125</ele>
<time>2012-07-26T11:59:39Z</time>
<speed>0.630000</speed>
<extensions>
<speed>0.6</speed>
<temp>0.00</temp>
<bpm>0</bpm>
<rpm>0.00</rpm>
</extensions>
</trkpt>
<trkpt lat="63.825462341" lon="-19.213684082">
<ele>566.406250</ele>
<time>2012-07-26T11:59:44Z</time>
<speed>0.120000</speed>
<extensions>
<speed>0.1</speed>
<temp>0.00</temp>
<bpm>0</bpm>
<rpm>0.00</rpm>
</extensions>
</trkpt>
<trkpt lat="63.825454712" lon="-19.213689804">
<ele>566.312500</ele>
<time>2012-07-26T11:59:49Z</time>
<speed>0.200000</speed>
<extensions>
<speed>0.2</speed>
<temp>0.00</temp>
<bpm>0</bpm>
<rpm>0.00</rpm>
</extensions>
</trkpt>
<trkpt lat="63.825443268" lon="-19.213699341">
<ele>566.187500</ele>
<time>2012-07-26T11:59:54Z</time>
<speed>0.920000</speed>
<extensions>
<speed>0.9</speed>
<temp>0.00</temp>
<bpm>0</bpm>
<rpm>0.00</rpm>
</extensions>
</trkpt>
<trkpt lat="63.825450897" lon="-19.213720322">
<ele>567.265625</ele>
<time>2012-07-26T11:59:59Z</time>
<speed>1.020000</speed>
<extensions>
<speed>1.0</speed>
<temp>0.00</temp>
<bpm>0</bpm>
<rpm>0.00</rpm>
</extensions>
</trkpt>
<trkpt lat="63.825492859" lon="-19.213697433">
<ele>567.703125</ele>
<time>2012-07-26T12:00:04Z</time>
<speed>0.440000</speed>
<extensions>
<speed>0.4</speed>
<temp>0.00</temp>
<bpm>0</bpm>
<rpm>0.00</rpm>
</extensions>
</trkpt>
<trkpt lat="63.825511932" lon="-19.213676453">
<ele>567.921875</ele>
<time>2012-07-26T12:00:09Z</time>
<speed>1.320000</speed>
<extensions>
<speed>1.3</speed>
<temp>0.00</temp>
<bpm>0</bpm>
<rpm>0.00</rpm>
</extensions>
</trkpt>
<trkpt lat="63.825557709" lon="-19.213609695">
<ele>566.796875</ele>
<time>2012-07-26T12:00:14Z</time>
<speed>1.240000</speed>
<extensions>
<speed>1.2</speed>
<temp>0.00</temp>
<bpm>0</bpm>
<rpm>0.00</rpm>
</extensions>
</trkpt>
<trkpt lat="63.825607300" lon="-19.213537216">
<ele>566.640625</ele>
<time>2012-07-26T12:00:19Z</time>
<speed>1.180000</speed>
<extensions>
<speed>1.2</speed>
<temp>0.00</temp>
<bpm>0</bpm>
<rpm>0.00</rpm>
</extensions>
</trkpt>
<trkpt lat="63.825626373" lon="-19.213544846">
<ele>566.953125</ele>
<time>2012-07-26T12:00:24Z</time>
<speed>0.020000</speed>
<extensions>
<speed>0.0</speed>
<temp>0.00</temp>
<bpm>0</bpm>
<rpm>0.00</rpm>
</extensions>
</trkpt>
<trkpt lat="63.825626373" lon="-19.213550568">
<ele>566.796875</ele>
<time>2012-07-26T12:00:29Z</time>
<extensions>
<speed>0.0</speed>
<temp>0.00</temp>
<bpm>0</bpm>
<rpm>0.00</rpm>
</extensions>
</trkpt>
<trkpt lat="63.825626373" lon="-19.213550568">
<ele>566.843750</ele>
<time>2012-07-26T12:00:34Z</time>
<speed>0.030000</speed>
<extensions>
<speed>0.0</speed>
<temp>0.00</temp>
<bpm>0</bpm>
<rpm>0.00</rpm>
</extensions>
</trkpt>
<trkpt lat="63.825626373" lon="-19.213550568">
<ele>566.828125</ele>
<time>2012-07-26T12:00:39Z</time>
<speed>0.030000</speed>
<extensions>
<speed>0.0</speed>
<temp>0.00</temp>
<bpm>0</bpm>
<rpm>0.00</rpm>
</extensions>
</trkpt>
<trkpt lat="63.825630188" lon="-19.213541031">
<ele>566.062500</ele>
<time>2012-07-26T12:00:44Z</time>
<speed>0.620000</speed>
<extensions>
<speed>0.6</speed>
<temp>0.00</temp>
<bpm>0</bpm>
<rpm>0.00</rpm>
</extensions>
</trkpt>
<trkpt lat="63.825641632" lon="-19.213493347">
<ele>565.593750</ele>
<time>2012-07-26T12:00:49Z</time>
<speed>0.050000</speed>
<extensions>
<speed>0.1</speed>
<temp>0.00</temp>
<bpm>0</bpm>
<rpm>0.00</rpm>
</extensions>
</trkpt>
<trkpt lat="63.825645447" lon="-19.213483810">
<ele>566.140625</ele>
<time>2012-07-26T12:00:54Z</time>
<speed>0.250000</speed>
<extensions>
<speed>0.2</speed>
<temp>0.00</temp>
<bpm>0</bpm>
<rpm>0.00</rpm>
</extensions>
</trkpt>
<trkpt lat="63.825637817" lon="-19.213504791">
<ele>566.359375</ele>
<time>2012-07-26T12:00:59Z</time>
<speed>0.240000</speed>
<extensions>
<speed>0.2</speed>
<temp>0.00</temp>
<bpm>0</bpm>
<rpm>0.00</rpm>
</extensions>
</trkpt>
<trkpt lat="63.825622559" lon="-19.213497162">
<ele>565.609375</ele>
<time>2012-07-26T12:01:04Z</time>
<speed>0.130000</speed>
<extensions>
<speed>0.1</speed>
<temp>0.00</temp>
<bpm>0</bpm>
<rpm>0.00</rpm>
</extensions>
</trkpt>
<trkpt lat="63.825607300" lon="-19.213523865">
<ele>564.156250</ele>
<time>2012-07-26T12:01:09Z</time>
<speed>0.150000</speed>
<extensions>
<speed>0.2</speed>
<temp>0.00</temp>
<bpm>0</bpm>
<rpm>0.00</rpm>
</extensions>
</trkpt>
<trkpt lat="63.825603485" lon="-19.213535309">
<ele>564.140625</ele>
<time>2012-07-26T12:01:14Z</time>
<speed>0.120000</speed>
<extensions>
<speed>0.1</speed>
<temp>0.00</temp>
<bpm>0</bpm>
<rpm>0.00</rpm>
</extensions>
</trkpt>
<trkpt lat="63.825603485" lon="-19.213531494">
<ele>563.937500</ele>
<time>2012-07-26T12:01:19Z</time>
<speed>0.130000</speed>
<extensions>
<speed>0.1</speed>
<temp>0.00</temp>
<bpm>0</bpm>
<rpm>0.00</rpm>
</extensions>
</trkpt>
<trkpt lat="63.825599670" lon="-19.213535309">
<ele>563.843750</ele>
<time>2012-07-26T12:01:24Z</time>
<speed>0.080000</speed>
<extensions>
<speed>0.1</speed>
<temp>0.00</temp>
<bpm>0</bpm>
<rpm>0.00</rpm>
</extensions>
</trkpt>
<trkpt lat="63.825603485" lon="-19.213535309">
<ele>563.828125</ele>
<time>2012-07-26T12:01:29Z</time>
<speed>0.010000</speed>
<extensions>
<speed>0.0</speed>
<temp>0.00</temp>
<bpm>0</bpm>
<rpm>0.00</rpm>
</extensions>
</trkpt>
<trkpt lat="63.825603485" lon="-19.213535309">
<ele>563.812500</ele>
<time>2012-07-26T12:01:34Z</time>
<speed>0.100000</speed>
<extensions>
<speed>0.1</speed>
<temp>0.00</temp>
<bpm>0</bpm>
<rpm>0.00</rpm>
</extensions>
</trkpt>
<trkpt lat="63.825599670" lon="-19.213539124">
<ele>563.828125</ele>
<time>2012-07-26T12:01:39Z</time>
<speed>0.110000</speed>
<extensions>
<speed>0.1</speed>
<temp>0.00</temp>
<bpm>0</bpm>
<rpm>0.00</rpm>
</extensions>
</trkpt>
<trkpt lat="63.825592041" lon="-19.213535309">
<ele>563.875000</ele>
<time>2012-07-26T12:01:44Z</time>
<speed>0.700000</speed>
<extensions>
<speed>0.7</speed>
<temp>0.00</temp>
<bpm>0</bpm>
<rpm>0.00</rpm>
</extensions>
</trkpt>
<trkpt lat="63.825592041" lon="-19.213493347">
<ele>564.078125</ele>
<time>2012-07-26T12:01:49Z</time>
<speed>0.080000</speed>
<extensions>
<speed>0.1</speed>
<temp>0.00</temp>
<bpm>0</bpm>
<rpm>0.00</rpm>
</extensions>
</trkpt>
<trkpt lat="63.825595856" lon="-19.213497162">
<ele>564.203125</ele>
<time>2012-07-26T12:01:54Z</time>
<speed>0.040000</speed>
<extensions>
<speed>0.0</speed>
<temp>0.00</temp>
<bpm>0</bpm>
<rpm>0.00</rpm>
</extensions>
</trkpt>
<trkpt lat="63.825588226" lon="-19.213518143">
<ele>565.484375</ele>
<time>2012-07-26T12:01:59Z</time>
<speed>0.570000</speed>
<extensions>
<speed>0.6</speed>
<temp>0.00</temp>
<bpm>0</bpm>
<rpm>0.00</rpm>
</extensions>
</trkpt>
<trkpt lat="63.825584412" lon="-19.213521957">
<ele>567.531250</ele>
<time>2012-07-26T12:02:04Z</time>
<speed>0.020000</speed>
<extensions>
<speed>0.0</speed>
<temp>0.00</temp>
<bpm>0</bpm>
<rpm>0.00</rpm>
</extensions>
</trkpt>
<trkpt lat="63.825576782" lon="-19.213525772">
<ele>567.562500</ele>
<time>2012-07-26T12:02:09Z</time>
<speed>0.680000</speed>
<extensions>
<speed>0.7</speed>
<temp>0.00</temp>
<bpm>0</bpm>
<rpm>0.00</rpm>
</extensions>
</trkpt>
<trkpt lat="63.825534821" lon="-19.213592529">
<ele>566.234375</ele>
<time>2012-07-26T12:02:14Z</time>
<speed>1.240000</speed>
<extensions>
<speed>1.2</speed>
<temp>0.00</temp>
<bpm>0</bpm>
<rpm>0.00</rpm>
</extensions>
</trkpt>
<trkpt lat="63.825473785" lon="-19.213661194">
<ele>567.453125</ele>
<time>2012-07-26T12:02:19Z</time>
<speed>1.090000</speed>
<extensions>
<speed>1.1</speed>
<temp>0.00</temp>
<bpm>0</bpm>
<rpm>0.00</rpm>
</extensions>
</trkpt>
<trkpt lat="63.825462341" lon="-19.213706970">
<ele>566.359375</ele>
<time>2012-07-26T12:02:24Z</time>
<speed>0.420000</speed>
<extensions>
<speed>0.4</speed>
<temp>0.00</temp>
<bpm>0</bpm>
<rpm>0.00</rpm>
</extensions>
</trkpt>
<trkpt lat="63.825454712" lon="-19.213710785">
<ele>564.640625</ele>
<time>2012-07-26T12:02:29Z</time>
<speed>0.560000</speed>
<extensions>
<speed>0.6</speed>
<temp>0.00</temp>
<bpm>0</bpm>
<rpm>0.00</rpm>
</extensions>
</trkpt>
<trkpt lat="63.825443268" lon="-19.213727951">
<ele>564.140625</ele>
<time>2012-07-26T12:02:34Z</time>
<speed>0.120000</speed>
<extensions>
<speed>0.1</speed>
<temp>0.00</temp>
<bpm>0</bpm>
<rpm>0.00</rpm>
</extensions>
</trkpt>
<trkpt lat="63.825447083" lon="-19.213714600">
<ele>564.390625</ele>
<time>2012-07-26T12:02:39Z</time>
<speed>0.020000</speed>
<extensions>
<speed>0.0</speed>
<temp>0.00</temp>
<bpm>0</bpm>
<rpm>0.00</rpm>
</extensions>
</trkpt>
<trkpt lat="63.825447083" lon="-19.213714600">
<ele>564.328125</ele>
<time>2012-07-26T12:02:44Z</time>
<speed>0.010000</speed>
<extensions>
<speed>0.0</speed>
<temp>0.00</temp>
<bpm>0</bpm>
<rpm>0.00</rpm>
</extensions>
</trkpt>
<trkpt lat="63.825447083" lon="-19.213714600">
<ele>564.328125</ele>
<time>2012-07-26T12:02:49Z</time>
<speed>0.030000</speed>
<extensions>
<speed>0.0</speed>
<temp>0.00</temp>
<bpm>0</bpm>
<rpm>0.00</rpm>
</extensions>
</trkpt>
<trkpt lat="63.825447083" lon="-19.213712692">
<ele>564.390625</ele>
<time>2012-07-26T12:02:54Z</time>
<extensions>
<speed>0.0</speed>
<temp>0.00</temp>
<bpm>0</bpm>
<rpm>0.00</rpm>
</extensions>
</trkpt>
<trkpt lat="63.825450897" lon="-19.213706970">
<ele>563.906250</ele>
<time>2012-07-26T12:02:59Z</time>
<speed>0.100000</speed>
<extensions>
<speed>0.1</speed>
<temp>0.00</temp>
<bpm>0</bpm>
<rpm>0.00</rpm>
</extensions>
</trkpt>
<trkpt lat="63.825462341" lon="-19.213705063">
<ele>563.765625</ele>
<time>2012-07-26T12:03:04Z</time>
<speed>0.260000</speed>
<extensions>
<speed>0.3</speed>
<temp>0.00</temp>
<bpm>0</bpm>
<rpm>0.00</rpm>
</extensions>
</trkpt>
<trkpt lat="63.825485229" lon="-19.213661194">
<ele>563.593750</ele>
<time>2012-07-26T12:03:09Z</time>
<speed>0.490000</speed>
<extensions>
<speed>0.5</speed>
<temp>0.00</temp>
<bpm>0</bpm>
<rpm>0.00</rpm>
</extensions>
</trkpt>
<trkpt lat="63.825519562" lon="-19.213636398">
<ele>563.375000</ele>
<time>2012-07-26T12:03:14Z</time>
<speed>0.670000</speed>
<extensions>
<speed>0.7</speed>
<temp>0.00</temp>
<bpm>0</bpm>
<rpm>0.00</rpm>
</extensions>
</trkpt>
<trkpt lat="63.825523376" lon="-19.213632584">
<ele>564.187500</ele>
<time>2012-07-26T12:03:19Z</time>
<speed>0.370000</speed>
<extensions>
<speed>0.4</speed>
<temp>0.00</temp>
<bpm>0</bpm>
<rpm>0.00</rpm>
</extensions>
</trkpt>
<trkpt lat="63.825481415" lon="-19.213685989">
<ele>564.421875</ele>
<time>2012-07-26T12:03:24Z</time>
<speed>0.890000</speed>
<extensions>
<speed>0.9</speed>
<temp>0.00</temp>
<bpm>0</bpm>
<rpm>0.00</rpm>
</extensions>
</trkpt>
<trkpt lat="63.825466156" lon="-19.213705063">
<ele>563.312500</ele>
<time>2012-07-26T12:03:29Z</time>
<speed>0.250000</speed>
<extensions>
<speed>0.2</speed>
<temp>0.00</temp>
<bpm>0</bpm>
<rpm>0.00</rpm>
</extensions>
</trkpt>
<trkpt lat="63.825477600" lon="-19.213743210">
<ele>561.328125</ele>
<time>2012-07-26T12:03:34Z</time>
<speed>0.070000</speed>
<extensions>
<speed>0.1</speed>
<temp>0.00</temp>
<bpm>0</bpm>
<rpm>0.00</rpm>
</extensions>
</trkpt>
<trkpt lat="63.825469971" lon="-19.213741302">
<ele>561.671875</ele>
<time>2012-07-26T12:03:39Z</time>
<speed>0.060000</speed>
<extensions>
<speed>0.1</speed>
<temp>0.00</temp>
<bpm>0</bpm>
<rpm>0.00</rpm>
</extensions>
</trkpt>
<trkpt lat="63.825469971" lon="-19.213733673">
<ele>561.750000</ele>
<time>2012-07-26T12:03:44Z</time>
<speed>0.040000</speed>
<extensions>
<speed>0.0</speed>
<temp>0.00</temp>
<bpm>0</bpm>
<rpm>0.00</rpm>
</extensions>
</trkpt>
<trkpt lat="63.825466156" lon="-19.213737488">
<ele>561.546875</ele>
<time>2012-07-26T12:03:49Z</time>
<speed>0.170000</speed>
<extensions>
<speed>0.2</speed>
<temp>0.00</temp>
<bpm>0</bpm>
<rpm>0.00</rpm>
</extensions>
</trkpt>
<trkpt lat="63.825462341" lon="-19.213743210">
<ele>561.562500</ele>
<time>2012-07-26T12:03:54Z</time>
<speed>0.740000</speed>
<extensions>
<speed>0.7</speed>
<temp>0.00</temp>
<bpm>0</bpm>
<rpm>0.00</rpm>
</extensions>
</trkpt>
<trkpt lat="63.825443268" lon="-19.213731766">
<ele>561.593750</ele>
<time>2012-07-26T12:03:59Z</time>
<speed>0.040000</speed>
<extensions>
<speed>0.0</speed>
<temp>0.00</temp>
<bpm>0</bpm>
<rpm>0.00</rpm>
</extensions>
</trkpt>
<trkpt lat="63.825424194" lon="-19.213758469">
<ele>562.234375</ele>
<time>2012-07-26T12:04:04Z</time>
<speed>0.540000</speed>
<extensions>
<speed>0.5</speed>
<temp>0.00</temp>
<bpm>0</bpm>
<rpm>0.00</rpm>
</extensions>
</trkpt>
<trkpt lat="63.825389862" lon="-19.213830948">
<ele>561.234375</ele>
<time>2012-07-26T12:04:09Z</time>
<speed>1.370000</speed>
<extensions>
<speed>1.4</speed>
<temp>0.00</temp>
<bpm>0</bpm>
<rpm>0.00</rpm>
</extensions>
</trkpt>
<trkpt lat="63.825344086" lon="-19.213918686">
<ele>560.828125</ele>
<time>2012-07-26T12:04:14Z</time>
<speed>0.380000</speed>
<extensions>
<speed>0.4</speed>
<temp>0.00</temp>
<bpm>0</bpm>
<rpm>0.00</rpm>
</extensions>
</trkpt>
<trkpt lat="63.825313568" lon="-19.213996887">
<ele>560.140625</ele>
<time>2012-07-26T12:04:19Z</time>
<speed>2.040000</speed>
<extensions>
<speed>2.0</speed>
<temp>0.00</temp>
<bpm>0</bpm>
<rpm>0.00</rpm>
</extensions>
</trkpt>
<trkpt lat="63.825244904" lon="-19.214157104">
<ele>561.812500</ele>
<time>2012-07-26T12:04:24Z</time>
<speed>3.540000</speed>
<extensions>
<speed>3.5</speed>
<temp>0.00</temp>
<bpm>0</bpm>
<rpm>0.00</rpm>
</extensions>
</trkpt>
<trkpt lat="63.825149536" lon="-19.214426041">
<ele>561.937500</ele>
<time>2012-07-26T12:04:29Z</time>
<speed>3.060000</speed>
<extensions>
<speed>3.1</speed>
<temp>0.00</temp>
<bpm>0</bpm>
<rpm>0.00</rpm>
</extensions>
</trkpt>
<trkpt lat="63.825080872" lon="-19.214670181">
<ele>562.187500</ele>
<time>2012-07-26T12:04:34Z</time>
<speed>2.480000</speed>
<extensions>
<speed>2.5</speed>
<temp>0.00</temp>
<bpm>0</bpm>
<rpm>0.00</rpm>
</extensions>
</trkpt>
<trkpt lat="63.825000763" lon="-19.214912415">
<ele>562.859375</ele>
<time>2012-07-26T12:04:39Z</time>
<speed>3.020000</speed>
<extensions>
<speed>3.0</speed>
<temp>0.00</temp>
<bpm>0</bpm>
<rpm>0.00</rpm>
</extensions>
</trkpt>
<trkpt lat="63.824935913" lon="-19.215154648">
<ele>565.265625</ele>
<time>2012-07-26T12:04:44Z</time>
<speed>2.480000</speed>
<extensions>
<speed>2.5</speed>
<temp>0.00</temp>
<bpm>0</bpm>
<rpm>0.00</rpm>
</extensions>
</trkpt>
<trkpt lat="63.824867249" lon="-19.215471268">
<ele>562.796875</ele>
<time>2012-07-26T12:04:49Z</time>
<speed>3.610000</speed>
<extensions>
<speed>3.6</speed>
<temp>0.00</temp>
<bpm>0</bpm>
<rpm>0.00</rpm>
</extensions>
</trkpt>
<trkpt lat="63.824794769" lon="-19.215850830">
<ele>562.656250</ele>
<time>2012-07-26T12:04:54Z</time>
<speed>4.620000</speed>
<extensions>
<speed>4.6</speed>
<temp>0.00</temp>
<bpm>0</bpm>
<rpm>0.00</rpm>
</extensions>
</trkpt>
<trkpt lat="63.824722290" lon="-19.216287613">
<ele>562.375000</ele>
<time>2012-07-26T12:04:59Z</time>
<speed>4.440000</speed>
<extensions>
<speed>4.4</speed>
<temp>0.00</temp>
<bpm>0</bpm>
<rpm>0.00</rpm>
</extensions>
</trkpt>
<trkpt lat="63.824645996" lon="-19.216743469">
<ele>563.000000</ele>
<time>2012-07-26T12:05:04Z</time>
<speed>4.690000</speed>
<extensions>
<speed>4.7</speed>
<temp>0.00</temp>
<bpm>0</bpm>
<rpm>0.00</rpm>
</extensions>
</trkpt>
<trkpt lat="63.824546814" lon="-19.217178345">
<ele>563.000000</ele>
<time>2012-07-26T12:05:09Z</time>
<speed>4.880000</speed>
<extensions>
<speed>4.9</speed>
<temp>0.00</temp>
<bpm>0</bpm>
<rpm>0.00</rpm>
</extensions>
</trkpt>
<trkpt lat="63.824432373" lon="-19.217603683">
<ele>563.718750</ele>
<time>2012-07-26T12:05:14Z</time>
<speed>4.720000</speed>
<extensions>
<speed>4.7</speed>
<temp>0.00</temp>
<bpm>0</bpm>
<rpm>0.00</rpm>
</extensions>
</trkpt>
<trkpt lat="63.824314117" lon="-19.217912674">
<ele>563.453125</ele>
<time>2012-07-26T12:05:19Z</time>
<speed>3.870000</speed>
<extensions>
<speed>3.9</speed>
<temp>0.00</temp>
<bpm>0</bpm>
<rpm>0.00</rpm>
</extensions>
</trkpt>
<trkpt lat="63.824165344" lon="-19.218156815">
<ele>563.343750</ele>
<time>2012-07-26T12:05:24Z</time>
<speed>5.160000</speed>
<extensions>
<speed>5.2</speed>
<temp>0.00</temp>
<bpm>0</bpm>
<rpm>0.00</rpm>
</extensions>
</trkpt>
<trkpt lat="63.823978424" lon="-19.218374252">
<ele>562.921875</ele>
<time>2012-07-26T12:05:29Z</time>
<speed>4.950000</speed>
<extensions>
<speed>4.9</speed>
<temp>0.00</temp>
<bpm>0</bpm>
<rpm>0.00</rpm>
</extensions>
</trkpt>
<trkpt lat="63.823776245" lon="-19.218584061">
<ele>562.875000</ele>
<time>2012-07-26T12:05:34Z</time>
<speed>4.520000</speed>
<extensions>
<speed>4.5</speed>
<temp>0.00</temp>
<bpm>0</bpm>
<rpm>0.00</rpm>
</extensions>
</trkpt>
<trkpt lat="63.823593140" lon="-19.218786240">
<ele>563.140625</ele>
<time>2012-07-26T12:05:39Z</time>
<speed>4.540000</speed>
<extensions>
<speed>4.5</speed>
<temp>0.00</temp>
<bpm>0</bpm>
<rpm>0.00</rpm>
</extensions>
</trkpt>
<trkpt lat="63.823417664" lon="-19.218963623">
<ele>562.921875</ele>
<time>2012-07-26T12:05:44Z</time>
<speed>4.510000</speed>
<extensions>
<speed>4.5</speed>
<temp>0.00</temp>
<bpm>0</bpm>
<rpm>0.00</rpm>
</extensions>
</trkpt>
<trkpt lat="63.823257446" lon="-19.219154358">
<ele>562.687500</ele>
<time>2012-07-26T12:05:49Z</time>
<speed>3.540000</speed>
<extensions>
<speed>3.5</speed>
<temp>0.00</temp>
<bpm>0</bpm>
<rpm>0.00</rpm>
</extensions>
</trkpt>
<trkpt lat="63.823135376" lon="-19.219209671">
<ele>562.734375</ele>
<time>2012-07-26T12:05:54Z</time>
<speed>2.370000</speed>
<extensions>
<speed>2.4</speed>
<temp>0.00</temp>
<bpm>0</bpm>
<rpm>0.00</rpm>
</extensions>
</trkpt>
<trkpt lat="63.823017120" lon="-19.219202042">
<ele>562.671875</ele>
<time>2012-07-26T12:05:59Z</time>
<speed>2.630000</speed>
<extensions>
<speed>2.6</speed>
<temp>0.00</temp>
<bpm>0</bpm>
<rpm>0.00</rpm>
</extensions>
</trkpt>
<trkpt lat="63.822917938" lon="-19.219184875">
<ele>561.390625</ele>
<time>2012-07-26T12:06:04Z</time>
<speed>1.840000</speed>
<extensions>
<speed>1.8</speed>
<temp>0.00</temp>
<bpm>0</bpm>
<rpm>0.00</rpm>
</extensions>
</trkpt>
<trkpt lat="63.822830200" lon="-19.219251633">
<ele>560.093750</ele>
<time>2012-07-26T12:06:09Z</time>
<speed>1.490000</speed>
<extensions>
<speed>1.5</speed>
<temp>0.00</temp>
<bpm>0</bpm>
<rpm>0.00</rpm>
</extensions>
</trkpt>
<trkpt lat="63.822818756" lon="-19.219322205">
<ele>557.843750</ele>
<time>2012-07-26T12:06:14Z</time>
<speed>0.390000</speed>
<extensions>
<speed>0.4</speed>
<temp>0.00</temp>
<bpm>0</bpm>
<rpm>0.00</rpm>
</extensions>
</trkpt>
<trkpt lat="63.822811127" lon="-19.219327927">
<ele>556.109375</ele>
<time>2012-07-26T12:06:19Z</time>
<speed>0.160000</speed>
<extensions>
<speed>0.2</speed>
<temp>0.00</temp>
<bpm>0</bpm>
<rpm>0.00</rpm>
</extensions>
</trkpt>
<trkpt lat="63.822818756" lon="-19.219350815">
<ele>555.500000</ele>
<time>2012-07-26T12:06:24Z</time>
<speed>0.360000</speed>
<extensions>
<speed>0.4</speed>
<temp>0.00</temp>
<bpm>0</bpm>
<rpm>0.00</rpm>
</extensions>
</trkpt>
<trkpt lat="63.822830200" lon="-19.219385147">
<ele>555.109375</ele>
<time>2012-07-26T12:06:29Z</time>
<speed>1.190000</speed>
<extensions>
<speed>1.2</speed>
<temp>0.00</temp>
<bpm>0</bpm>
<rpm>0.00</rpm>
</extensions>
</trkpt>
<trkpt lat="63.822895050" lon="-19.219551086">
<ele>555.437500</ele>
<time>2012-07-26T12:06:34Z</time>
<speed>1.950000</speed>
<extensions>
<speed>1.9</speed>
<temp>0.00</temp>
<bpm>0</bpm>
<rpm>0.00</rpm>
</extensions>
</trkpt>
<trkpt lat="63.822967529" lon="-19.219686508">
<ele>554.953125</ele>
<time>2012-07-26T12:06:39Z</time>
<speed>1.810000</speed>
<extensions>
<speed>1.8</speed>
<temp>0.00</temp>
<bpm>0</bpm>
<rpm>0.00</rpm>
</extensions>
</trkpt>
<trkpt lat="63.823001862" lon="-19.219841003">
<ele>554.609375</ele>
<time>2012-07-26T12:06:44Z</time>
<speed>1.440000</speed>
<extensions>
<speed>1.4</speed>
<temp>0.00</temp>
<bpm>0</bpm>
<rpm>0.00</rpm>
</extensions>
</trkpt>
<trkpt lat="63.823024750" lon="-19.219993591">
<ele>553.906250</ele>
<time>2012-07-26T12:06:49Z</time>
<speed>1.160000</speed>
<extensions>
<speed>1.2</speed>
<temp>0.00</temp>
<bpm>0</bpm>
<rpm>0.00</rpm>
</extensions>
</trkpt>
<trkpt lat="63.823013306" lon="-19.220006943">
<ele>554.250000</ele>
<time>2012-07-26T12:06:54Z</time>
<speed>0.300000</speed>
<extensions>
<speed>0.3</speed>
<temp>0.00</temp>
<bpm>0</bpm>
<rpm>0.00</rpm>
</extensions>
</trkpt>
<trkpt lat="63.823013306" lon="-19.220012665">
<ele>555.078125</ele>
<time>2012-07-26T12:06:59Z</time>
<speed>0.140000</speed>
<extensions>
<speed>0.1</speed>
<temp>0.00</temp>
<bpm>0</bpm>
<rpm>0.00</rpm>
</extensions>
</trkpt>
<trkpt lat="63.823020935" lon="-19.220001221">
<ele>556.156250</ele>
<time>2012-07-26T12:07:04Z</time>
<speed>0.230000</speed>
<extensions>
<speed>0.2</speed>
<temp>0.00</temp>
<bpm>0</bpm>
<rpm>0.00</rpm>
</extensions>
</trkpt>
<trkpt lat="63.823028564" lon="-19.220003128">
<ele>556.406250</ele>
<time>2012-07-26T12:07:09Z</time>
<speed>0.390000</speed>
<extensions>
<speed>0.4</speed>
<temp>0.00</temp>
<bpm>0</bpm>
<rpm>0.00</rpm>
</extensions>
</trkpt>
<trkpt lat="63.823040009" lon="-19.219968796">
<ele>557.328125</ele>
<time>2012-07-26T12:07:14Z</time>
<speed>0.080000</speed>
<extensions>
<speed>0.1</speed>
<temp>0.00</temp>
<bpm>0</bpm>
<rpm>0.00</rpm>
</extensions>
</trkpt>
<trkpt lat="63.823040009" lon="-19.219976425">
<ele>558.171875</ele>
<time>2012-07-26T12:07:19Z</time>
<speed>0.240000</speed>
<extensions>
<speed>0.2</speed>
<temp>0.00</temp>
<bpm>0</bpm>
<rpm>0.00</rpm>
</extensions>
</trkpt>
<trkpt lat="63.823043823" lon="-19.219978333">
<ele>558.078125</ele>
<time>2012-07-26T12:07:24Z</time>
<speed>0.050000</speed>
<extensions>
<speed>0.1</speed>
<temp>0.00</temp>
<bpm>0</bpm>
<rpm>0.00</rpm>
</extensions>
</trkpt>
<trkpt lat="63.823043823" lon="-19.219984055">
<ele>558.031250</ele>
<time>2012-07-26T12:07:29Z</time>
<speed>0.300000</speed>
<extensions>
<speed>0.3</speed>
<temp>0.00</temp>
<bpm>0</bpm>
<rpm>0.00</rpm>
</extensions>
</trkpt>
<trkpt lat="63.823036194" lon="-19.220003128">
<ele>557.953125</ele>
<time>2012-07-26T12:07:34Z</time>
<speed>0.120000</speed>
<extensions>
<speed>0.1</speed>
<temp>0.00</temp>
<bpm>0</bpm>
<rpm>0.00</rpm>
</extensions>
</trkpt>
<trkpt lat="63.823043823" lon="-19.220008850">
<ele>558.140625</ele>
<time>2012-07-26T12:07:39Z</time>
<speed>0.090000</speed>
<extensions>
<speed>0.1</speed>
<temp>0.00</temp>
<bpm>0</bpm>
<rpm>0.00</rpm>
</extensions>
</trkpt>
<trkpt lat="63.823043823" lon="-19.220008850">
<ele>558.109375</ele>
<time>2012-07-26T12:07:44Z</time>
<speed>0.040000</speed>
<extensions>
<speed>0.0</speed>
<temp>0.00</temp>
<bpm>0</bpm>
<rpm>0.00</rpm>
</extensions>
</trkpt>
<trkpt lat="63.823040009" lon="-19.220005035">
<ele>558.109375</ele>
<time>2012-07-26T12:07:49Z</time>
<speed>0.140000</speed>
<extensions>
<speed>0.1</speed>
<temp>0.00</temp>
<bpm>0</bpm>
<rpm>0.00</rpm>
</extensions>
</trkpt>
<trkpt lat="63.823040009" lon="-19.219993591">
<ele>558.109375</ele>
<time>2012-07-26T12:07:54Z</time>
<speed>0.100000</speed>
<extensions>
<speed>0.1</speed>
<temp>0.00</temp>
<bpm>0</bpm>
<rpm>0.00</rpm>
</extensions>
</trkpt>
<trkpt lat="63.823040009" lon="-19.219985962">
<ele>558.125000</ele>
<time>2012-07-26T12:07:59Z</time>
<speed>0.080000</speed>
<extensions>
<speed>0.1</speed>
<temp>0.00</temp>
<bpm>0</bpm>
<rpm>0.00</rpm>
</extensions>
</trkpt>
<trkpt lat="63.823032379" lon="-19.219974518">
<ele>558.171875</ele>
<time>2012-07-26T12:08:04Z</time>
<speed>0.200000</speed>
<extensions>
<speed>0.2</speed>
<temp>0.00</temp>
<bpm>0</bpm>
<rpm>0.00</rpm>
</extensions>
</trkpt>
<trkpt lat="63.823028564" lon="-19.219964981">
<ele>558.250000</ele>
<time>2012-07-26T12:08:09Z</time>
<speed>0.080000</speed>
<extensions>
<speed>0.1</speed>
<temp>0.00</temp>
<bpm>0</bpm>
<rpm>0.00</rpm>
</extensions>
</trkpt>
<trkpt lat="63.823024750" lon="-19.219963074">
<ele>558.421875</ele>
<time>2012-07-26T12:08:14Z</time>
<speed>0.140000</speed>
<extensions>
<speed>0.1</speed>
<temp>0.00</temp>
<bpm>0</bpm>
<rpm>0.00</rpm>
</extensions>
</trkpt>
<trkpt lat="63.823024750" lon="-19.219957352">
<ele>558.671875</ele>
<time>2012-07-26T12:08:19Z</time>
<speed>0.150000</speed>
<extensions>
<speed>0.2</speed>
<temp>0.00</temp>
<bpm>0</bpm>
<rpm>0.00</rpm>
</extensions>
</trkpt>
<trkpt lat="63.823028564" lon="-19.219955444">
<ele>558.828125</ele>
<time>2012-07-26T12:08:24Z</time>
<speed>0.060000</speed>
<extensions>
<speed>0.1</speed>
<temp>0.00</temp>
<bpm>0</bpm>
<rpm>0.00</rpm>
</extensions>
</trkpt>
<trkpt lat="63.823028564" lon="-19.219961166">
<ele>558.906250</ele>
<time>2012-07-26T12:08:29Z</time>
<speed>0.130000</speed>
<extensions>
<speed>0.1</speed>
<temp>0.00</temp>
<bpm>0</bpm>
<rpm>0.00</rpm>
</extensions>
</trkpt>
<trkpt lat="63.823028564" lon="-19.219982147">
<ele>559.140625</ele>
<time>2012-07-26T12:08:34Z</time>
<speed>0.270000</speed>
<extensions>
<speed>0.3</speed>
<temp>0.00</temp>
<bpm>0</bpm>
<rpm>0.00</rpm>
</extensions>
</trkpt>
<trkpt lat="63.823032379" lon="-19.219993591">
<ele>559.437500</ele>
<time>2012-07-26T12:08:39Z</time>
<speed>0.080000</speed>
<extensions>
<speed>0.1</speed>
<temp>0.00</temp>
<bpm>0</bpm>
<rpm>0.00</rpm>
</extensions>
</trkpt>
<trkpt lat="63.823032379" lon="-19.219997406">
<ele>559.500000</ele>
<time>2012-07-26T12:08:44Z</time>
<speed>0.050000</speed>
<extensions>
<speed>0.1</speed>
<temp>0.00</temp>
<bpm>0</bpm>
<rpm>0.00</rpm>
</extensions>
</trkpt>
<trkpt lat="63.823020935" lon="-19.220001221">
<ele>559.609375</ele>
<time>2012-07-26T12:08:49Z</time>
<speed>0.320000</speed>
<extensions>
<speed>0.3</speed>
<temp>0.00</temp>
<bpm>0</bpm>
<rpm>0.00</rpm>
</extensions>
</trkpt>
<trkpt lat="63.823013306" lon="-19.220008850">
<ele>560.125000</ele>
<time>2012-07-26T12:08:54Z</time>
<speed>0.280000</speed>
<extensions>
<speed>0.3</speed>
<temp>0.00</temp>
<bpm>0</bpm>
<rpm>0.00</rpm>
</extensions>
</trkpt>
<trkpt lat="63.823005676" lon="-19.220016479">
<ele>560.421875</ele>
<time>2012-07-26T12:08:59Z</time>
<speed>0.240000</speed>
<extensions>
<speed>0.2</speed>
<temp>0.00</temp>
<bpm>0</bpm>
<rpm>0.00</rpm>
</extensions>
</trkpt>
<trkpt lat="63.822994232" lon="-19.220039368">
<ele>561.015625</ele>
<time>2012-07-26T12:09:04Z</time>
<speed>0.270000</speed>
<extensions>
<speed>0.3</speed>
<temp>0.00</temp>
<bpm>0</bpm>
<rpm>0.00</rpm>
</extensions>
</trkpt>
<trkpt lat="63.822990417" lon="-19.220066071">
<ele>562.296875</ele>
<time>2012-07-26T12:09:09Z</time>
<speed>0.270000</speed>
<extensions>
<speed>0.3</speed>
<temp>0.00</temp>
<bpm>0</bpm>
<rpm>0.00</rpm>
</extensions>
</trkpt>
<trkpt lat="63.822982788" lon="-19.220088959">
<ele>562.609375</ele>
<time>2012-07-26T12:09:14Z</time>
<speed>0.320000</speed>
<extensions>
<speed>0.3</speed>
<temp>0.00</temp>
<bpm>0</bpm>
<rpm>0.00</rpm>
</extensions>
</trkpt>
<trkpt lat="63.822978973" lon="-19.220117569">
<ele>563.625000</ele>
<time>2012-07-26T12:09:19Z</time>
<speed>0.380000</speed>
<extensions>
<speed>0.4</speed>
<temp>0.00</temp>
<bpm>0</bpm>
<rpm>0.00</rpm>
</extensions>
</trkpt>
<trkpt lat="63.822959900" lon="-19.220155716">
<ele>563.640625</ele>
<time>2012-07-26T12:09:24Z</time>
<speed>0.520000</speed>
<extensions>
<speed>0.5</speed>
<temp>0.00</temp>
<bpm>0</bpm>
<rpm>0.00</rpm>
</extensions>
</trkpt>
<trkpt lat="63.822940826" lon="-19.220193863">
<ele>563.296875</ele>
<time>2012-07-26T12:09:29Z</time>
<speed>0.580000</speed>
<extensions>
<speed>0.6</speed>
<temp>0.00</temp>
<bpm>0</bpm>
<rpm>0.00</rpm>
</extensions>
</trkpt>
<trkpt lat="63.822914124" lon="-19.220241547">
<ele>562.593750</ele>
<time>2012-07-26T12:09:34Z</time>
<speed>0.690000</speed>
<extensions>
<speed>0.7</speed>
<temp>0.00</temp>
<bpm>0</bpm>
<rpm>0.00</rpm>
</extensions>
</trkpt>
<trkpt lat="63.822898865" lon="-19.220300674">
<ele>562.968750</ele>
<time>2012-07-26T12:09:39Z</time>
<speed>0.590000</speed>
<extensions>
<speed>0.6</speed>
<temp>0.00</temp>
<bpm>0</bpm>
<rpm>0.00</rpm>
</extensions>
</trkpt>
<trkpt lat="63.822868347" lon="-19.220344543">
<ele>563.328125</ele>
<time>2012-07-26T12:09:44Z</time>
<speed>0.530000</speed>
<extensions>
<speed>0.5</speed>
<temp>0.00</temp>
<bpm>0</bpm>
<rpm>0.00</rpm>
</extensions>
</trkpt>
<trkpt lat="63.822860718" lon="-19.220363617">
<ele>563.125000</ele>
<time>2012-07-26T12:09:49Z</time>
<speed>0.540000</speed>
<extensions>
<speed>0.5</speed>
<temp>0.00</temp>
<bpm>0</bpm>
<rpm>0.00</rpm>
</extensions>
</trkpt>
<trkpt lat="63.822856903" lon="-19.220403671">
<ele>563.875000</ele>
<time>2012-07-26T12:09:54Z</time>
<speed>0.750000</speed>
<extensions>
<speed>0.8</speed>
<temp>0.00</temp>
<bpm>0</bpm>
<rpm>0.00</rpm>
</extensions>
</trkpt>
<trkpt lat="63.822856903" lon="-19.220409393">
<ele>564.062500</ele>
<time>2012-07-26T12:09:59Z</time>
<speed>0.210000</speed>
<extensions>
<speed>0.2</speed>
<temp>0.00</temp>
<bpm>0</bpm>
<rpm>0.00</rpm>
</extensions>
</trkpt>
<trkpt lat="63.822856903" lon="-19.220418930">
<ele>563.765625</ele>
<time>2012-07-26T12:10:04Z</time>
<speed>0.190000</speed>
<extensions>
<speed>0.2</speed>
<temp>0.00</temp>
<bpm>0</bpm>
<rpm>0.00</rpm>
</extensions>
</trkpt>
<trkpt lat="63.822860718" lon="-19.220413208">
<ele>563.484375</ele>
<time>2012-07-26T12:10:09Z</time>
<speed>0.120000</speed>
<extensions>
<speed>0.1</speed>
<temp>0.00</temp>
<bpm>0</bpm>
<rpm>0.00</rpm>
</extensions>
</trkpt>
<trkpt lat="63.822864532" lon="-19.220415115">
<ele>563.250000</ele>
<time>2012-07-26T12:10:14Z</time>
<speed>0.020000</speed>
<extensions>
<speed>0.0</speed>
<temp>0.00</temp>
<bpm>0</bpm>
<rpm>0.00</rpm>
</extensions>
</trkpt>
<trkpt lat="63.822868347" lon="-19.220424652">
<ele>563.031250</ele>
<time>2012-07-26T12:10:19Z</time>
<speed>0.130000</speed>
<extensions>
<speed>0.1</speed>
<temp>0.00</temp>
<bpm>0</bpm>
<rpm>0.00</rpm>
</extensions>
</trkpt>
<trkpt lat="63.822872162" lon="-19.220418930">
<ele>562.843750</ele>
<time>2012-07-26T12:10:24Z</time>
<speed>0.120000</speed>
<extensions>
<speed>0.1</speed>
<temp>0.00</temp>
<bpm>0</bpm>
<rpm>0.00</rpm>
</extensions>
</trkpt>
<trkpt lat="63.822875977" lon="-19.220409393">
<ele>562.656250</ele>
<time>2012-07-26T12:10:29Z</time>
<speed>0.070000</speed>
<extensions>
<speed>0.1</speed>
<temp>0.00</temp>
<bpm>0</bpm>
<rpm>0.00</rpm>
</extensions>
</trkpt>
<trkpt lat="63.822879791" lon="-19.220411301">
<ele>562.515625</ele>
<time>2012-07-26T12:10:34Z</time>
<speed>0.200000</speed>
<extensions>
<speed>0.2</speed>
<temp>0.00</temp>
<bpm>0</bpm>
<rpm>0.00</rpm>
</extensions>
</trkpt>
<trkpt lat="63.822872162" lon="-19.220407486">
<ele>562.531250</ele>
<time>2012-07-26T12:10:39Z</time>
<speed>0.100000</speed>
<extensions>
<speed>0.1</speed>
<temp>0.00</temp>
<bpm>0</bpm>
<rpm>0.00</rpm>
</extensions>
</trkpt>
<trkpt lat="63.822872162" lon="-19.220403671">
<ele>562.640625</ele>
<time>2012-07-26T12:10:44Z</time>
<speed>0.010000</speed>
<extensions>
<speed>0.0</speed>
<temp>0.00</temp>
<bpm>0</bpm>
<rpm>0.00</rpm>
</extensions>
</trkpt>
<trkpt lat="63.822872162" lon="-19.220403671">
<ele>562.765625</ele>
<time>2012-07-26T12:10:49Z</time>
<extensions>
<speed>0.0</speed>
<temp>0.00</temp>
<bpm>0</bpm>
<rpm>0.00</rpm>
</extensions>
</trkpt>
<trkpt lat="63.822872162" lon="-19.220403671">
<ele>562.812500</ele>
<time>2012-07-26T12:10:54Z</time>
<extensions>
<speed>0.0</speed>
<temp>0.00</temp>
<bpm>0</bpm>
<rpm>0.00</rpm>
</extensions>
</trkpt>
<trkpt lat="63.822872162" lon="-19.220405579">
<ele>562.875000</ele>
<time>2012-07-26T12:10:59Z</time>
<extensions>
<speed>0.0</speed>
<temp>0.00</temp>
<bpm>0</bpm>
<rpm>0.00</rpm>
</extensions>
</trkpt>
<trkpt lat="63.822872162" lon="-19.220405579">
<ele>562.906250</ele>
<time>2012-07-26T12:11:04Z</time>
<extensions>
<speed>0.0</speed>
<temp>0.00</temp>
<bpm>0</bpm>
<rpm>0.00</rpm>
</extensions>
</trkpt>
<trkpt lat="63.822872162" lon="-19.220405579">
<ele>562.906250</ele>
<time>2012-07-26T12:11:09Z</time>
<speed>0.020000</speed>
<extensions>
<speed>0.0</speed>
<temp>0.00</temp>
<bpm>0</bpm>
<rpm>0.00</rpm>
</extensions>
</trkpt>
<trkpt lat="63.822872162" lon="-19.220405579">
<ele>562.921875</ele>
<time>2012-07-26T12:11:14Z</time>
<extensions>
<speed>0.0</speed>
<temp>0.00</temp>
<bpm>0</bpm>
<rpm>0.00</rpm>
</extensions>
</trkpt>
<trkpt lat="63.822872162" lon="-19.220405579">
<ele>562.937500</ele>
<time>2012-07-26T12:11:19Z</time>
<extensions>
<speed>0.0</speed>
<temp>0.00</temp>
<bpm>0</bpm>
<rpm>0.00</rpm>
</extensions>
</trkpt>
<trkpt lat="63.822872162" lon="-19.220405579">
<ele>562.937500</ele>
<time>2012-07-26T12:11:24Z</time>
<speed>0.010000</speed>
<extensions>
<speed>0.0</speed>
<temp>0.00</temp>
<bpm>0</bpm>
<rpm>0.00</rpm>
</extensions>
</trkpt>
<trkpt lat="63.822872162" lon="-19.220405579">
<ele>562.953125</ele>
<time>2012-07-26T12:11:29Z</time>
<extensions>
<speed>0.0</speed>
<temp>0.00</temp>
<bpm>0</bpm>
<rpm>0.00</rpm>
</extensions>
</trkpt>
<trkpt lat="63.822872162" lon="-19.220407486">
<ele>562.953125</ele>
<time>2012-07-26T12:11:34Z</time>
<speed>0.040000</speed>
<extensions>
<speed>0.0</speed>
<temp>0.00</temp>
<bpm>0</bpm>
<rpm>0.00</rpm>
</extensions>
</trkpt>
<trkpt lat="63.822868347" lon="-19.220407486">
<ele>562.968750</ele>
<time>2012-07-26T12:11:39Z</time>
<extensions>
<speed>0.0</speed>
<temp>0.00</temp>
<bpm>0</bpm>
<rpm>0.00</rpm>
</extensions>
</trkpt>
<trkpt lat="63.822868347" lon="-19.220407486">
<ele>562.968750</ele>
<time>2012-07-26T12:11:44Z</time>
<extensions>
<speed>0.0</speed>
<temp>0.00</temp>
<bpm>0</bpm>
<rpm>0.00</rpm>
</extensions>
</trkpt>
<trkpt lat="63.822868347" lon="-19.220407486">
<ele>562.968750</ele>
<time>2012-07-26T12:11:49Z</time>
<speed>0.030000</speed>
<extensions>
<speed>0.0</speed>
<temp>0.00</temp>
<bpm>0</bpm>
<rpm>0.00</rpm>
</extensions>
</trkpt>
<trkpt lat="63.822868347" lon="-19.220407486">
<ele>562.968750</ele>
<time>2012-07-26T12:11:54Z</time>
<speed>0.020000</speed>
<extensions>
<speed>0.0</speed>
<temp>0.00</temp>
<bpm>0</bpm>
<rpm>0.00</rpm>
</extensions>
</trkpt>
<trkpt lat="63.822868347" lon="-19.220407486">
<ele>562.953125</ele>
<time>2012-07-26T12:11:59Z</time>
<speed>0.010000</speed>
<extensions>
<speed>0.0</speed>
<temp>0.00</temp>
<bpm>0</bpm>
<rpm>0.00</rpm>
</extensions>
</trkpt>
<trkpt lat="63.822868347" lon="-19.220407486">
<ele>562.968750</ele>
<time>2012-07-26T12:12:04Z</time>
<speed>0.020000</speed>
<extensions>
<speed>0.0</speed>
<temp>0.00</temp>
<bpm>0</bpm>
<rpm>0.00</rpm>
</extensions>
</trkpt>
<trkpt lat="63.822868347" lon="-19.220407486">
<ele>562.968750</ele>
<time>2012-07-26T12:12:09Z</time>
<extensions>
<speed>0.0</speed>
<temp>0.00</temp>
<bpm>0</bpm>
<rpm>0.00</rpm>
</extensions>
</trkpt>
<trkpt lat="63.822868347" lon="-19.220407486">
<ele>562.968750</ele>
<time>2012-07-26T12:12:14Z</time>
<speed>0.010000</speed>
<extensions>
<speed>0.0</speed>
<temp>0.00</temp>
<bpm>0</bpm>
<rpm>0.00</rpm>
</extensions>
</trkpt>
<trkpt lat="63.822868347" lon="-19.220407486">
<ele>562.968750</ele>
<time>2012-07-26T12:12:19Z</time>
<speed>0.020000</speed>
<extensions>
<speed>0.0</speed>
<temp>0.00</temp>
<bpm>0</bpm>
<rpm>0.00</rpm>
</extensions>
</trkpt>
<trkpt lat="63.822868347" lon="-19.220407486">
<ele>562.953125</ele>
<time>2012-07-26T12:12:24Z</time>
<speed>0.010000</speed>
<extensions>
<speed>0.0</speed>
<temp>0.00</temp>
<bpm>0</bpm>
<rpm>0.00</rpm>
</extensions>
</trkpt>
<trkpt lat="63.822868347" lon="-19.220407486">
<ele>562.953125</ele>
<time>2012-07-26T12:12:29Z</time>
<speed>0.020000</speed>
<extensions>
<speed>0.0</speed>
<temp>0.00</temp>
<bpm>0</bpm>
<rpm>0.00</rpm>
</extensions>
</trkpt>
<trkpt lat="63.822868347" lon="-19.220407486">
<ele>562.953125</ele>
<time>2012-07-26T12:12:34Z</time>
<speed>0.050000</speed>
<extensions>
<speed>0.1</speed>
<temp>0.00</temp>
<bpm>0</bpm>
<rpm>0.00</rpm>
</extensions>
</trkpt>
<trkpt lat="63.822868347" lon="-19.220407486">
<ele>562.968750</ele>
<time>2012-07-26T12:12:39Z</time>
<extensions>
<speed>0.0</speed>
<temp>0.00</temp>
<bpm>0</bpm>
<rpm>0.00</rpm>
</extensions>
</trkpt>
<trkpt lat="63.822868347" lon="-19.220407486">
<ele>562.968750</ele>
<time>2012-07-26T12:12:44Z</time>
<extensions>
<speed>0.0</speed>
<temp>0.00</temp>
<bpm>0</bpm>
<rpm>0.00</rpm>
</extensions>
</trkpt>
<trkpt lat="63.822868347" lon="-19.220407486">
<ele>562.968750</ele>
<time>2012-07-26T12:12:49Z</time>
<speed>0.010000</speed>
<extensions>
<speed>0.0</speed>
<temp>0.00</temp>
<bpm>0</bpm>
<rpm>0.00</rpm>
</extensions>
</trkpt>
<trkpt lat="63.822868347" lon="-19.220405579">
<ele>562.968750</ele>
<time>2012-07-26T12:12:54Z</time>
<extensions>
<speed>0.0</speed>
<temp>0.00</temp>
<bpm>0</bpm>
<rpm>0.00</rpm>
</extensions>
</trkpt>
<trkpt lat="63.822868347" lon="-19.220407486">
<ele>562.984375</ele>
<time>2012-07-26T12:12:59Z</time>
<speed>0.050000</speed>
<extensions>
<speed>0.1</speed>
<temp>0.00</temp>
<bpm>0</bpm>
<rpm>0.00</rpm>
</extensions>
</trkpt>
<trkpt lat="63.822872162" lon="-19.220407486">
<ele>563.000000</ele>
<time>2012-07-26T12:13:04Z</time>
<speed>0.080000</speed>
<extensions>
<speed>0.1</speed>
<temp>0.00</temp>
<bpm>0</bpm>
<rpm>0.00</rpm>
</extensions>
</trkpt>
<trkpt lat="63.822875977" lon="-19.220405579">
<ele>563.031250</ele>
<time>2012-07-26T12:13:09Z</time>
<speed>0.100000</speed>
<extensions>
<speed>0.1</speed>
<temp>0.00</temp>
<bpm>0</bpm>
<rpm>0.00</rpm>
</extensions>
</trkpt>
<trkpt lat="63.822879791" lon="-19.220397949">
<ele>563.062500</ele>
<time>2012-07-26T12:13:14Z</time>
<speed>0.090000</speed>
<extensions>
<speed>0.1</speed>
<temp>0.00</temp>
<bpm>0</bpm>
<rpm>0.00</rpm>
</extensions>
</trkpt>
<trkpt lat="63.822879791" lon="-19.220390320">
<ele>563.093750</ele>
<time>2012-07-26T12:13:19Z</time>
<speed>0.110000</speed>
<extensions>
<speed>0.1</speed>
<temp>0.00</temp>
<bpm>0</bpm>
<rpm>0.00</rpm>
</extensions>
</trkpt>
<trkpt lat="63.822883606" lon="-19.220378876">
<ele>563.109375</ele>
<time>2012-07-26T12:13:24Z</time>
<speed>0.100000</speed>
<extensions>
<speed>0.1</speed>
<temp>0.00</temp>
<bpm>0</bpm>
<rpm>0.00</rpm>
</extensions>
</trkpt>
<trkpt lat="63.822883606" lon="-19.220371246">
<ele>563.125000</ele>
<time>2012-07-26T12:13:29Z</time>
<speed>0.060000</speed>
<extensions>
<speed>0.1</speed>
<temp>0.00</temp>
<bpm>0</bpm>
<rpm>0.00</rpm>
</extensions>
</trkpt>
<trkpt lat="63.822883606" lon="-19.220367432">
<ele>563.140625</ele>
<time>2012-07-26T12:13:34Z</time>
<speed>0.030000</speed>
<extensions>
<speed>0.0</speed>
<temp>0.00</temp>
<bpm>0</bpm>
<rpm>0.00</rpm>
</extensions>
</trkpt>
<trkpt lat="63.822883606" lon="-19.220361710">
<ele>563.171875</ele>
<time>2012-07-26T12:13:39Z</time>
<speed>0.110000</speed>
<extensions>
<speed>0.1</speed>
<temp>0.00</temp>
<bpm>0</bpm>
<rpm>0.00</rpm>
</extensions>
</trkpt>
<trkpt lat="63.822875977" lon="-19.220357895">
<ele>563.187500</ele>
<time>2012-07-26T12:13:44Z</time>
<speed>0.140000</speed>
<extensions>
<speed>0.1</speed>
<temp>0.00</temp>
<bpm>0</bpm>
<rpm>0.00</rpm>
</extensions>
</trkpt>
<trkpt lat="63.822872162" lon="-19.220354080">
<ele>563.234375</ele>
<time>2012-07-26T12:13:49Z</time>
<speed>0.170000</speed>
<extensions>
<speed>0.2</speed>
<temp>0.00</temp>
<bpm>0</bpm>
<rpm>0.00</rpm>
</extensions>
</trkpt>
<trkpt lat="63.822864532" lon="-19.220346451">
<ele>563.312500</ele>
<time>2012-07-26T12:13:54Z</time>
<speed>0.090000</speed>
<extensions>
<speed>0.1</speed>
<temp>0.00</temp>
<bpm>0</bpm>
<rpm>0.00</rpm>
</extensions>
</trkpt>
<trkpt lat="63.822860718" lon="-19.220340729">
<ele>563.406250</ele>
<time>2012-07-26T12:13:59Z</time>
<speed>0.080000</speed>
<extensions>
<speed>0.1</speed>
<temp>0.00</temp>
<bpm>0</bpm>
<rpm>0.00</rpm>
</extensions>
</trkpt>
<trkpt lat="63.822860718" lon="-19.220333099">
<ele>563.515625</ele>
<time>2012-07-26T12:14:04Z</time>
<speed>0.060000</speed>
<extensions>
<speed>0.1</speed>
<temp>0.00</temp>
<bpm>0</bpm>
<rpm>0.00</rpm>
</extensions>
</trkpt>
<trkpt lat="63.822860718" lon="-19.220329285">
<ele>563.640625</ele>
<time>2012-07-26T12:14:09Z</time>
<speed>0.010000</speed>
<extensions>
<speed>0.0</speed>
<temp>0.00</temp>
<bpm>0</bpm>
<rpm>0.00</rpm>
</extensions>
</trkpt>
<trkpt lat="63.822864532" lon="-19.220329285">
<ele>563.843750</ele>
<time>2012-07-26T12:14:14Z</time>
<speed>0.030000</speed>
<extensions>
<speed>0.0</speed>
<temp>0.00</temp>
<bpm>0</bpm>
<rpm>0.00</rpm>
</extensions>
</trkpt>
<trkpt lat="63.822864532" lon="-19.220331192">
<ele>563.875000</ele>
<time>2012-07-26T12:14:19Z</time>
<speed>0.040000</speed>
<extensions>
<speed>0.0</speed>
<temp>0.00</temp>
<bpm>0</bpm>
<rpm>0.00</rpm>
</extensions>
</trkpt>
<trkpt lat="63.822864532" lon="-19.220333099">
<ele>563.890625</ele>
<time>2012-07-26T12:14:24Z</time>
<speed>0.020000</speed>
<extensions>
<speed>0.0</speed>
<temp>0.00</temp>
<bpm>0</bpm>
<rpm>0.00</rpm>
</extensions>
</trkpt>
<trkpt lat="63.822860718" lon="-19.220336914">
<ele>563.953125</ele>
<time>2012-07-26T12:14:29Z</time>
<speed>0.080000</speed>
<extensions>
<speed>0.1</speed>
<temp>0.00</temp>
<bpm>0</bpm>
<rpm>0.00</rpm>
</extensions>
</trkpt>
<trkpt lat="63.822856903" lon="-19.220344543">
<ele>564.031250</ele>
<time>2012-07-26T12:14:34Z</time>
<speed>0.090000</speed>
<extensions>
<speed>0.1</speed>
<temp>0.00</temp>
<bpm>0</bpm>
<rpm>0.00</rpm>
</extensions>
</trkpt>
<trkpt lat="63.822860718" lon="-19.220346451">
<ele>564.171875</ele>
<time>2012-07-26T12:14:39Z</time>
<speed>0.080000</speed>
<extensions>
<speed>0.1</speed>
<temp>0.00</temp>
<bpm>0</bpm>
<rpm>0.00</rpm>
</extensions>
</trkpt>
<trkpt lat="63.822860718" lon="-19.220340729">
<ele>564.328125</ele>
<time>2012-07-26T12:14:44Z</time>
<speed>0.070000</speed>
<extensions>
<speed>0.1</speed>
<temp>0.00</temp>
<bpm>0</bpm>
<rpm>0.00</rpm>
</extensions>
</trkpt>
<trkpt lat="63.822860718" lon="-19.220338821">
<ele>564.375000</ele>
<time>2012-07-26T12:14:49Z</time>
<speed>0.020000</speed>
<extensions>
<speed>0.0</speed>
<temp>0.00</temp>
<bpm>0</bpm>
<rpm>0.00</rpm>
</extensions>
</trkpt>
<trkpt lat="63.822860718" lon="-19.220340729">
<ele>564.375000</ele>
<time>2012-07-26T12:14:54Z</time>
<speed>0.070000</speed>
<extensions>
<speed>0.1</speed>
<temp>0.00</temp>
<bpm>0</bpm>
<rpm>0.00</rpm>
</extensions>
</trkpt>
<trkpt lat="63.822864532" lon="-19.220342636">
<ele>564.734375</ele>
<time>2012-07-26T12:14:59Z</time>
<speed>0.080000</speed>
<extensions>
<speed>0.1</speed>
<temp>0.00</temp>
<bpm>0</bpm>
<rpm>0.00</rpm>
</extensions>
</trkpt>
<trkpt lat="63.822856903" lon="-19.220361710">
<ele>564.296875</ele>
<time>2012-07-26T12:15:04Z</time>
<speed>0.110000</speed>
<extensions>
<speed>0.1</speed>
<temp>0.00</temp>
<bpm>0</bpm>
<rpm>0.00</rpm>
</extensions>
</trkpt>
<trkpt lat="63.822853088" lon="-19.220367432">
<ele>564.375000</ele>
<time>2012-07-26T12:15:09Z</time>
<speed>0.080000</speed>
<extensions>
<speed>0.1</speed>
<temp>0.00</temp>
<bpm>0</bpm>
<rpm>0.00</rpm>
</extensions>
</trkpt>
<trkpt lat="63.822853088" lon="-19.220367432">
<ele>564.453125</ele>
<time>2012-07-26T12:15:14Z</time>
<speed>0.020000</speed>
<extensions>
<speed>0.0</speed>
<temp>0.00</temp>
<bpm>0</bpm>
<rpm>0.00</rpm>
</extensions>
</trkpt>
<trkpt lat="63.822853088" lon="-19.220367432">
<ele>564.531250</ele>
<time>2012-07-26T12:15:19Z</time>
<extensions>
<speed>0.0</speed>
<temp>0.00</temp>
<bpm>0</bpm>
<rpm>0.00</rpm>
</extensions>
</trkpt>
<trkpt lat="63.822853088" lon="-19.220371246">
<ele>564.562500</ele>
<time>2012-07-26T12:15:24Z</time>
<speed>0.030000</speed>
<extensions>
<speed>0.0</speed>
<temp>0.00</temp>
<bpm>0</bpm>
<rpm>0.00</rpm>
</extensions>
</trkpt>
<trkpt lat="63.822853088" lon="-19.220371246">
<ele>564.578125</ele>
<time>2012-07-26T12:15:29Z</time>
<speed>0.040000</speed>
<extensions>
<speed>0.0</speed>
<temp>0.00</temp>
<bpm>0</bpm>
<rpm>0.00</rpm>
</extensions>
</trkpt>
<trkpt lat="63.822853088" lon="-19.220371246">
<ele>564.593750</ele>
<time>2012-07-26T12:15:34Z</time>
<speed>0.030000</speed>
<extensions>
<speed>0.0</speed>
<temp>0.00</temp>
<bpm>0</bpm>
<rpm>0.00</rpm>
</extensions>
</trkpt>
<trkpt lat="63.822853088" lon="-19.220371246">
<ele>564.593750</ele>
<time>2012-07-26T12:15:39Z</time>
<speed>0.010000</speed>
<extensions>
<speed>0.0</speed>
<temp>0.00</temp>
<bpm>0</bpm>
<rpm>0.00</rpm>
</extensions>
</trkpt>
<trkpt lat="63.822853088" lon="-19.220373154">
<ele>564.578125</ele>
<time>2012-07-26T12:15:44Z</time>
<extensions>
<speed>0.0</speed>
<temp>0.00</temp>
<bpm>0</bpm>
<rpm>0.00</rpm>
</extensions>
</trkpt>
<trkpt lat="63.822853088" lon="-19.220373154">
<ele>564.593750</ele>
<time>2012-07-26T12:15:49Z</time>
<speed>0.010000</speed>
<extensions>
<speed>0.0</speed>
<temp>0.00</temp>
<bpm>0</bpm>
<rpm>0.00</rpm>
</extensions>
</trkpt>
<trkpt lat="63.822853088" lon="-19.220373154">
<ele>564.593750</ele>
<time>2012-07-26T12:15:54Z</time>
<speed>0.010000</speed>
<extensions>
<speed>0.0</speed>
<temp>0.00</temp>
<bpm>0</bpm>
<rpm>0.00</rpm>
</extensions>
</trkpt>
<trkpt lat="63.822856903" lon="-19.220369339">
<ele>564.796875</ele>
<time>2012-07-26T12:15:59Z</time>
<speed>0.420000</speed>
<extensions>
<speed>0.4</speed>
<temp>0.00</temp>
<bpm>0</bpm>
<rpm>0.00</rpm>
</extensions>
</trkpt>
<trkpt lat="63.822864532" lon="-19.220397949">
<ele>565.218750</ele>
<time>2012-07-26T12:16:04Z</time>
<extensions>
<speed>0.0</speed>
<temp>0.00</temp>
<bpm>0</bpm>
<rpm>0.00</rpm>
</extensions>
</trkpt>
<trkpt lat="63.822864532" lon="-19.220397949">
<ele>565.218750</ele>
<time>2012-07-26T12:16:09Z</time>
<extensions>
<speed>0.0</speed>
<temp>0.00</temp>
<bpm>0</bpm>
<rpm>0.00</rpm>
</extensions>
</trkpt>
<trkpt lat="63.822864532" lon="-19.220397949">
<ele>565.234375</ele>
<time>2012-07-26T12:16:14Z</time>
<speed>0.020000</speed>
<extensions>
<speed>0.0</speed>
<temp>0.00</temp>
<bpm>0</bpm>
<rpm>0.00</rpm>
</extensions>
</trkpt>
<trkpt lat="63.822864532" lon="-19.220397949">
<ele>565.234375</ele>
<time>2012-07-26T12:16:19Z</time>
<speed>0.010000</speed>
<extensions>
<speed>0.0</speed>
<temp>0.00</temp>
<bpm>0</bpm>
<rpm>0.00</rpm>
</extensions>
</trkpt>
<trkpt lat="63.822864532" lon="-19.220397949">
<ele>565.265625</ele>
<time>2012-07-26T12:16:24Z</time>
<speed>0.010000</speed>
<extensions>
<speed>0.0</speed>
<temp>0.00</temp>
<bpm>0</bpm>
<rpm>0.00</rpm>
</extensions>
</trkpt>
<trkpt lat="63.822864532" lon="-19.220397949">
<ele>565.328125</ele>
<time>2012-07-26T12:16:29Z</time>
<speed>0.030000</speed>
<extensions>
<speed>0.0</speed>
<temp>0.00</temp>
<bpm>0</bpm>
<rpm>0.00</rpm>
</extensions>
</trkpt>
<trkpt lat="63.822864532" lon="-19.220397949">
<ele>565.343750</ele>
<time>2012-07-26T12:16:34Z</time>
<speed>0.020000</speed>
<extensions>
<speed>0.0</speed>
<temp>0.00</temp>
<bpm>0</bpm>
<rpm>0.00</rpm>
</extensions>
</trkpt>
<trkpt lat="63.822864532" lon="-19.220399857">
<ele>565.515625</ele>
<time>2012-07-26T12:16:39Z</time>
<speed>0.040000</speed>
<extensions>
<speed>0.0</speed>
<temp>0.00</temp>
<bpm>0</bpm>
<rpm>0.00</rpm>
</extensions>
</trkpt>
<trkpt lat="63.822864532" lon="-19.220399857">
<ele>565.531250</ele>
<time>2012-07-26T12:16:44Z</time>
<speed>0.010000</speed>
<extensions>
<speed>0.0</speed>
<temp>0.00</temp>
<bpm>0</bpm>
<rpm>0.00</rpm>
</extensions>
</trkpt>
<trkpt lat="63.822864532" lon="-19.220399857">
<ele>565.531250</ele>
<time>2012-07-26T12:16:49Z</time>
<extensions>
<speed>0.0</speed>
<temp>0.00</temp>
<bpm>0</bpm>
<rpm>0.00</rpm>
</extensions>
</trkpt>
<trkpt lat="63.822856903" lon="-19.220401764">
<ele>565.953125</ele>
<time>2012-07-26T12:16:54Z</time>
<speed>0.320000</speed>
<extensions>
<speed>0.3</speed>
<temp>0.00</temp>
<bpm>0</bpm>
<rpm>0.00</rpm>
</extensions>
</trkpt>
<trkpt lat="63.822837830" lon="-19.220430374">
<ele>565.890625</ele>
<time>2012-07-26T12:16:59Z</time>
<speed>0.080000</speed>
<extensions>
<speed>0.1</speed>
<temp>0.00</temp>
<bpm>0</bpm>
<rpm>0.00</rpm>
</extensions>
</trkpt>
<trkpt lat="63.822841644" lon="-19.220443726">
<ele>565.515625</ele>
<time>2012-07-26T12:17:04Z</time>
<speed>0.110000</speed>
<extensions>
<speed>0.1</speed>
<temp>0.00</temp>
<bpm>0</bpm>
<rpm>0.00</rpm>
</extensions>
</trkpt>
<trkpt lat="63.822841644" lon="-19.220441818">
<ele>565.531250</ele>
<time>2012-07-26T12:17:09Z</time>
<speed>0.010000</speed>
<extensions>
<speed>0.0</speed>
<temp>0.00</temp>
<bpm>0</bpm>
<rpm>0.00</rpm>
</extensions>
</trkpt>
<trkpt lat="63.822841644" lon="-19.220443726">
<ele>565.593750</ele>
<time>2012-07-26T12:17:14Z</time>
<speed>0.030000</speed>
<extensions>
<speed>0.0</speed>
<temp>0.00</temp>
<bpm>0</bpm>
<rpm>0.00</rpm>
</extensions>
</trkpt>
<trkpt lat="63.822841644" lon="-19.220445633">
<ele>565.593750</ele>
<time>2012-07-26T12:17:19Z</time>
<speed>0.010000</speed>
<extensions>
<speed>0.0</speed>
<temp>0.00</temp>
<bpm>0</bpm>
<rpm>0.00</rpm>
</extensions>
</trkpt>
<trkpt lat="63.822841644" lon="-19.220445633">
<ele>565.593750</ele>
<time>2012-07-26T12:17:24Z</time>
<extensions>
<speed>0.0</speed>
<temp>0.00</temp>
<bpm>0</bpm>
<rpm>0.00</rpm>
</extensions>
</trkpt>
<trkpt lat="63.822841644" lon="-19.220445633">
<ele>565.593750</ele>
<time>2012-07-26T12:17:29Z</time>
<speed>0.020000</speed>
<extensions>
<speed>0.0</speed>
<temp>0.00</temp>
<bpm>0</bpm>
<rpm>0.00</rpm>
</extensions>
</trkpt>
<trkpt lat="63.822841644" lon="-19.220445633">
<ele>565.609375</ele>
<time>2012-07-26T12:17:34Z</time>
<extensions>
<speed>0.0</speed>
<temp>0.00</temp>
<bpm>0</bpm>
<rpm>0.00</rpm>
</extensions>
</trkpt>
<trkpt lat="63.822841644" lon="-19.220445633">
<ele>565.609375</ele>
<time>2012-07-26T12:17:39Z</time>
<extensions>
<speed>0.0</speed>
<temp>0.00</temp>
<bpm>0</bpm>
<rpm>0.00</rpm>
</extensions>
</trkpt>
<trkpt lat="63.822841644" lon="-19.220445633">
<ele>565.609375</ele>
<time>2012-07-26T12:17:44Z</time>
<extensions>
<speed>0.0</speed>
<temp>0.00</temp>
<bpm>0</bpm>
<rpm>0.00</rpm>
</extensions>
</trkpt>
<trkpt lat="63.822841644" lon="-19.220445633">
<ele>565.625000</ele>
<time>2012-07-26T12:17:49Z</time>
<extensions>
<speed>0.0</speed>
<temp>0.00</temp>
<bpm>0</bpm>
<rpm>0.00</rpm>
</extensions>
</trkpt>
<trkpt lat="63.822841644" lon="-19.220445633">
<ele>565.625000</ele>
<time>2012-07-26T12:17:54Z</time>
<speed>0.050000</speed>
<extensions>
<speed>0.1</speed>
<temp>0.00</temp>
<bpm>0</bpm>
<rpm>0.00</rpm>
</extensions>
</trkpt>
<trkpt lat="63.822841644" lon="-19.220447540">
<ele>565.593750</ele>
<time>2012-07-26T12:17:59Z</time>
<speed>0.020000</speed>
<extensions>
<speed>0.0</speed>
<temp>0.00</temp>
<bpm>0</bpm>
<rpm>0.00</rpm>
</extensions>
</trkpt>
<trkpt lat="63.822841644" lon="-19.220447540">
<ele>565.609375</ele>
<time>2012-07-26T12:18:04Z</time>
<speed>0.010000</speed>
<extensions>
<speed>0.0</speed>
<temp>0.00</temp>
<bpm>0</bpm>
<rpm>0.00</rpm>
</extensions>
</trkpt>
<trkpt lat="63.822841644" lon="-19.220445633">
<ele>565.609375</ele>
<time>2012-07-26T12:18:09Z</time>
<speed>0.020000</speed>
<extensions>
<speed>0.0</speed>
<temp>0.00</temp>
<bpm>0</bpm>
<rpm>0.00</rpm>
</extensions>
</trkpt>
<trkpt lat="63.822841644" lon="-19.220445633">
<ele>565.609375</ele>
<time>2012-07-26T12:18:14Z</time>
<speed>0.010000</speed>
<extensions>
<speed>0.0</speed>
<temp>0.00</temp>
<bpm>0</bpm>
<rpm>0.00</rpm>
</extensions>
</trkpt>
<trkpt lat="63.822841644" lon="-19.220445633">
<ele>565.609375</ele>
<time>2012-07-26T12:18:19Z</time>
<speed>0.050000</speed>
<extensions>
<speed>0.1</speed>
<temp>0.00</temp>
<bpm>0</bpm>
<rpm>0.00</rpm>
</extensions>
</trkpt>
<trkpt lat="63.822841644" lon="-19.220445633">
<ele>565.625000</ele>
<time>2012-07-26T12:18:24Z</time>
<speed>0.030000</speed>
<extensions>
<speed>0.0</speed>
<temp>0.00</temp>
<bpm>0</bpm>
<rpm>0.00</rpm>
</extensions>
</trkpt>
<trkpt lat="63.822841644" lon="-19.220445633">
<ele>565.609375</ele>
<time>2012-07-26T12:18:29Z</time>
<extensions>
<speed>0.0</speed>
<temp>0.00</temp>
<bpm>0</bpm>
<rpm>0.00</rpm>
</extensions>
</trkpt>
<trkpt lat="63.822841644" lon="-19.220445633">
<ele>565.609375</ele>
<time>2012-07-26T12:18:34Z</time>
<speed>0.010000</speed>
<extensions>
<speed>0.0</speed>
<temp>0.00</temp>
<bpm>0</bpm>
<rpm>0.00</rpm>
</extensions>
</trkpt>
<trkpt lat="63.822841644" lon="-19.220445633">
<ele>565.609375</ele>
<time>2012-07-26T12:18:39Z</time>
<speed>0.050000</speed>
<extensions>
<speed>0.1</speed>
<temp>0.00</temp>
<bpm>0</bpm>
<rpm>0.00</rpm>
</extensions>
</trkpt>
<trkpt lat="63.822841644" lon="-19.220445633">
<ele>565.625000</ele>
<time>2012-07-26T12:18:44Z</time>
<speed>0.060000</speed>
<extensions>
<speed>0.1</speed>
<temp>0.00</temp>
<bpm>0</bpm>
<rpm>0.00</rpm>
</extensions>
</trkpt>
<trkpt lat="63.822841644" lon="-19.220445633">
<ele>565.625000</ele>
<time>2012-07-26T12:18:49Z</time>
<extensions>
<speed>0.0</speed>
<temp>0.00</temp>
<bpm>0</bpm>
<rpm>0.00</rpm>
</extensions>
</trkpt>
<trkpt lat="63.822841644" lon="-19.220443726">
<ele>565.625000</ele>
<time>2012-07-26T12:18:54Z</time>
<speed>0.020000</speed>
<extensions>
<speed>0.0</speed>
<temp>0.00</temp>
<bpm>0</bpm>
<rpm>0.00</rpm>
</extensions>
</trkpt>
<trkpt lat="63.822841644" lon="-19.220443726">
<ele>565.625000</ele>
<time>2012-07-26T12:18:59Z</time>
<speed>0.050000</speed>
<extensions>
<speed>0.1</speed>
<temp>0.00</temp>
<bpm>0</bpm>
<rpm>0.00</rpm>
</extensions>
</trkpt>
<trkpt lat="63.822841644" lon="-19.220443726">
<ele>565.640625</ele>
<time>2012-07-26T12:19:04Z</time>
<speed>0.010000</speed>
<extensions>
<speed>0.0</speed>
<temp>0.00</temp>
<bpm>0</bpm>
<rpm>0.00</rpm>
</extensions>
</trkpt>
<trkpt lat="63.822841644" lon="-19.220443726">
<ele>565.640625</ele>
<time>2012-07-26T12:19:09Z</time>
<extensions>
<speed>0.0</speed>
<temp>0.00</temp>
<bpm>0</bpm>
<rpm>0.00</rpm>
</extensions>
</trkpt>
<trkpt lat="63.822841644" lon="-19.220443726">
<ele>565.656250</ele>
<time>2012-07-26T12:19:14Z</time>
<speed>0.050000</speed>
<extensions>
<speed>0.1</speed>
<temp>0.00</temp>
<bpm>0</bpm>
<rpm>0.00</rpm>
</extensions>
</trkpt>
<trkpt lat="63.822834015" lon="-19.220455170">
<ele>565.500000</ele>
<time>2012-07-26T12:19:19Z</time>
<speed>0.520000</speed>
<extensions>
<speed>0.5</speed>
<temp>0.00</temp>
<bpm>0</bpm>
<rpm>0.00</rpm>
</extensions>
</trkpt>
<trkpt lat="63.822788239" lon="-19.220415115">
<ele>565.531250</ele>
<time>2012-07-26T12:19:24Z</time>
<speed>1.700000</speed>
<extensions>
<speed>1.7</speed>
<temp>0.00</temp>
<bpm>0</bpm>
<rpm>0.00</rpm>
</extensions>
</trkpt>
<trkpt lat="63.822700500" lon="-19.220266342">
<ele>565.609375</ele>
<time>2012-07-26T12:19:29Z</time>
<speed>2.390000</speed>
<extensions>
<speed>2.4</speed>
<temp>0.00</temp>
<bpm>0</bpm>
<rpm>0.00</rpm>
</extensions>
</trkpt>
<trkpt lat="63.822608948" lon="-19.220117569">
<ele>565.484375</ele>
<time>2012-07-26T12:19:34Z</time>
<speed>2.100000</speed>
<extensions>
<speed>2.1</speed>
<temp>0.00</temp>
<bpm>0</bpm>
<rpm>0.00</rpm>
</extensions>
</trkpt>
<trkpt lat="63.822521210" lon="-19.219944000">
<ele>565.406250</ele>
<time>2012-07-26T12:19:39Z</time>
<speed>2.150000</speed>
<extensions>
<speed>2.1</speed>
<temp>0.00</temp>
<bpm>0</bpm>
<rpm>0.00</rpm>
</extensions>
</trkpt>
<trkpt lat="63.822429657" lon="-19.219907761">
<ele>565.796875</ele>
<time>2012-07-26T12:19:44Z</time>
<speed>2.430000</speed>
<extensions>
<speed>2.4</speed>
<temp>0.00</temp>
<bpm>0</bpm>
<rpm>0.00</rpm>
</extensions>
</trkpt>
<trkpt lat="63.822368622" lon="-19.220167160">
<ele>567.468750</ele>
<time>2012-07-26T12:19:49Z</time>
<speed>3.370000</speed>
<extensions>
<speed>3.4</speed>
<temp>0.00</temp>
<bpm>0</bpm>
<rpm>0.00</rpm>
</extensions>
</trkpt>
<trkpt lat="63.822288513" lon="-19.220514297">
<ele>569.093750</ele>
<time>2012-07-26T12:19:54Z</time>
<speed>3.740000</speed>
<extensions>
<speed>3.7</speed>
<temp>0.00</temp>
<bpm>0</bpm>
<rpm>0.00</rpm>
</extensions>
</trkpt>
<trkpt lat="63.822219849" lon="-19.220815659">
<ele>568.984375</ele>
<time>2012-07-26T12:19:59Z</time>
<speed>3.000000</speed>
<extensions>
<speed>3.0</speed>
<temp>0.00</temp>
<bpm>0</bpm>
<rpm>0.00</rpm>
</extensions>
</trkpt>
<trkpt lat="63.822143555" lon="-19.221132278">
<ele>569.343750</ele>
<time>2012-07-26T12:20:04Z</time>
<speed>3.710000</speed>
<extensions>
<speed>3.7</speed>
<temp>0.00</temp>
<bpm>0</bpm>
<rpm>0.00</rpm>
</extensions>
</trkpt>
<trkpt lat="63.822052002" lon="-19.221504211">
<ele>569.734375</ele>
<time>2012-07-26T12:20:09Z</time>
<speed>4.400000</speed>
<extensions>
<speed>4.4</speed>
<temp>0.00</temp>
<bpm>0</bpm>
<rpm>0.00</rpm>
</extensions>
</trkpt>
<trkpt lat="63.821952820" lon="-19.221879959">
<ele>569.421875</ele>
<time>2012-07-26T12:20:14Z</time>
<speed>4.560000</speed>
<extensions>
<speed>4.6</speed>
<temp>0.00</temp>
<bpm>0</bpm>
<rpm>0.00</rpm>
</extensions>
</trkpt>
<trkpt lat="63.821853638" lon="-19.222286224">
<ele>571.765625</ele>
<time>2012-07-26T12:20:19Z</time>
<speed>4.790000</speed>
<extensions>
<speed>4.8</speed>
<temp>0.00</temp>
<bpm>0</bpm>
<rpm>0.00</rpm>
</extensions>
</trkpt>
<trkpt lat="63.821765900" lon="-19.222692490">
<ele>574.218750</ele>
<time>2012-07-26T12:20:24Z</time>
<speed>4.770000</speed>
<extensions>
<speed>4.8</speed>
<temp>0.00</temp>
<bpm>0</bpm>
<rpm>0.00</rpm>
</extensions>
</trkpt>
<trkpt lat="63.821666718" lon="-19.223127365">
<ele>573.890625</ele>
<time>2012-07-26T12:20:29Z</time>
<speed>4.690000</speed>
<extensions>
<speed>4.7</speed>
<temp>0.00</temp>
<bpm>0</bpm>
<rpm>0.00</rpm>
</extensions>
</trkpt>
<trkpt lat="63.821571350" lon="-19.223514557">
<ele>573.734375</ele>
<time>2012-07-26T12:20:34Z</time>
<speed>4.410000</speed>
<extensions>
<speed>4.4</speed>
<temp>0.00</temp>
<bpm>0</bpm>
<rpm>0.00</rpm>
</extensions>
</trkpt>
<trkpt lat="63.821483612" lon="-19.223972321">
<ele>571.921875</ele>
<time>2012-07-26T12:20:39Z</time>
<speed>4.760000</speed>
<extensions>
<speed>4.8</speed>
<temp>0.00</temp>
<bpm>0</bpm>
<rpm>0.00</rpm>
</extensions>
</trkpt>
<trkpt lat="63.821422577" lon="-19.224428177">
<ele>573.578125</ele>
<time>2012-07-26T12:20:44Z</time>
<speed>4.890000</speed>
<extensions>
<speed>4.9</speed>
<temp>0.00</temp>
<bpm>0</bpm>
<rpm>0.00</rpm>
</extensions>
</trkpt>
<trkpt lat="63.821361542" lon="-19.224897385">
<ele>574.062500</ele>
<time>2012-07-26T12:20:49Z</time>
<speed>4.680000</speed>
<extensions>
<speed>4.7</speed>
<temp>0.00</temp>
<bpm>0</bpm>
<rpm>0.00</rpm>
</extensions>
</trkpt>
<trkpt lat="63.821292877" lon="-19.225353241">
<ele>574.390625</ele>
<time>2012-07-26T12:20:54Z</time>
<speed>4.880000</speed>
<extensions>
<speed>4.9</speed>
<temp>0.00</temp>
<bpm>0</bpm>
<rpm>0.00</rpm>
</extensions>
</trkpt>
<trkpt lat="63.821186066" lon="-19.225807190">
<ele>573.890625</ele>
<time>2012-07-26T12:20:59Z</time>
<speed>4.910000</speed>
<extensions>
<speed>4.9</speed>
<temp>0.00</temp>
<bpm>0</bpm>
<rpm>0.00</rpm>
</extensions>
</trkpt>
<trkpt lat="63.821075439" lon="-19.226247787">
<ele>572.031250</ele>
<time>2012-07-26T12:21:04Z</time>
<speed>4.800000</speed>
<extensions>
<speed>4.8</speed>
<temp>0.00</temp>
<bpm>0</bpm>
<rpm>0.00</rpm>
</extensions>
</trkpt>
<trkpt lat="63.820976257" lon="-19.226675034">
<ele>572.703125</ele>
<time>2012-07-26T12:21:09Z</time>
<speed>4.700000</speed>
<extensions>
<speed>4.7</speed>
<temp>0.00</temp>
<bpm>0</bpm>
<rpm>0.00</rpm>
</extensions>
</trkpt>
<trkpt lat="63.820884705" lon="-19.227100372">
<ele>571.781250</ele>
<time>2012-07-26T12:21:14Z</time>
<speed>4.410000</speed>
<extensions>
<speed>4.4</speed>
<temp>0.00</temp>
<bpm>0</bpm>
<rpm>0.00</rpm>
</extensions>
</trkpt>
<trkpt lat="63.820793152" lon="-19.227481842">
<ele>571.046875</ele>
<time>2012-07-26T12:21:19Z</time>
<speed>4.430000</speed>
<extensions>
<speed>4.4</speed>
<temp>0.00</temp>
<bpm>0</bpm>
<rpm>0.00</rpm>
</extensions>
</trkpt>
<trkpt lat="63.820709229" lon="-19.227848053">
<ele>570.906250</ele>
<time>2012-07-26T12:21:24Z</time>
<speed>3.980000</speed>
<extensions>
<speed>4.0</speed>
<temp>0.00</temp>
<bpm>0</bpm>
<rpm>0.00</rpm>
</extensions>
</trkpt>
<trkpt lat="63.820621490" lon="-19.228202820">
<ele>571.328125</ele>
<time>2012-07-26T12:21:29Z</time>
<speed>3.880000</speed>
<extensions>
<speed>3.9</speed>
<temp>0.00</temp>
<bpm>0</bpm>
<rpm>0.00</rpm>
</extensions>
</trkpt>
<trkpt lat="63.820545197" lon="-19.228559494">
<ele>571.187500</ele>
<time>2012-07-26T12:21:34Z</time>
<speed>4.020000</speed>
<extensions>
<speed>4.0</speed>
<temp>0.00</temp>
<bpm>0</bpm>
<rpm>0.00</rpm>
</extensions>
</trkpt>
<trkpt lat="63.820465088" lon="-19.228923798">
<ele>571.562500</ele>
<time>2012-07-26T12:21:39Z</time>
<speed>3.620000</speed>
<extensions>
<speed>3.6</speed>
<temp>0.00</temp>
<bpm>0</bpm>
<rpm>0.00</rpm>
</extensions>
</trkpt>
<trkpt lat="63.820377350" lon="-19.229349136">
<ele>570.609375</ele>
<time>2012-07-26T12:21:44Z</time>
<speed>4.390000</speed>
<extensions>
<speed>4.4</speed>
<temp>0.00</temp>
<bpm>0</bpm>
<rpm>0.00</rpm>
</extensions>
</trkpt>
<trkpt lat="63.820289612" lon="-19.229747772">
<ele>570.875000</ele>
<time>2012-07-26T12:21:49Z</time>
<speed>4.760000</speed>
<extensions>
<speed>4.8</speed>
<temp>0.00</temp>
<bpm>0</bpm>
<rpm>0.00</rpm>
</extensions>
</trkpt>
<trkpt lat="63.820186615" lon="-19.230123520">
<ele>574.265625</ele>
<time>2012-07-26T12:21:54Z</time>
<speed>4.810000</speed>
<extensions>
<speed>4.8</speed>
<temp>0.00</temp>
<bpm>0</bpm>
<rpm>0.00</rpm>
</extensions>
</trkpt>
<trkpt lat="63.820068359" lon="-19.230539322">
<ele>576.234375</ele>
<time>2012-07-26T12:21:59Z</time>
<speed>4.720000</speed>
<extensions>
<speed>4.7</speed>
<temp>0.00</temp>
<bpm>0</bpm>
<rpm>0.00</rpm>
</extensions>
</trkpt>
<trkpt lat="63.819953918" lon="-19.230978012">
<ele>577.515625</ele>
<time>2012-07-26T12:22:04Z</time>
<speed>4.900000</speed>
<extensions>
<speed>4.9</speed>
<temp>0.00</temp>
<bpm>0</bpm>
<rpm>0.00</rpm>
</extensions>
</trkpt>
<trkpt lat="63.819839478" lon="-19.231479645">
<ele>575.218750</ele>
<time>2012-07-26T12:22:09Z</time>
<speed>5.400000</speed>
<extensions>
<speed>5.4</speed>
<temp>0.00</temp>
<bpm>0</bpm>
<rpm>0.00</rpm>
</extensions>
</trkpt>
<trkpt lat="63.819744110" lon="-19.232011795">
<ele>575.046875</ele>
<time>2012-07-26T12:22:14Z</time>
<speed>5.880000</speed>
<extensions>
<speed>5.9</speed>
<temp>0.00</temp>
<bpm>0</bpm>
<rpm>0.00</rpm>
</extensions>
</trkpt>
<trkpt lat="63.819648743" lon="-19.232606888">
<ele>575.093750</ele>
<time>2012-07-26T12:22:19Z</time>
<speed>6.630000</speed>
<extensions>
<speed>6.6</speed>
<temp>0.00</temp>
<bpm>0</bpm>
<rpm>0.00</rpm>
</extensions>
</trkpt>
<trkpt lat="63.819545746" lon="-19.233222961">
<ele>573.781250</ele>
<time>2012-07-26T12:22:24Z</time>
<speed>6.180000</speed>
<extensions>
<speed>6.2</speed>
<temp>0.00</temp>
<bpm>0</bpm>
<rpm>0.00</rpm>
</extensions>
</trkpt>
<trkpt lat="63.819431305" lon="-19.233772278">
<ele>569.437500</ele>
<time>2012-07-26T12:22:29Z</time>
<speed>4.510000</speed>
<extensions>
<speed>4.5</speed>
<temp>0.00</temp>
<bpm>0</bpm>
<rpm>0.00</rpm>
</extensions>
</trkpt>
<trkpt lat="63.819404602" lon="-19.233907700">
<ele>569.359375</ele>
<time>2012-07-26T12:22:34Z</time>
<speed>0.210000</speed>
<extensions>
<speed>0.2</speed>
<temp>0.00</temp>
<bpm>0</bpm>
<rpm>0.00</rpm>
</extensions>
</trkpt>
<trkpt lat="63.819374084" lon="-19.234031677">
<ele>568.343750</ele>
<time>2012-07-26T12:22:39Z</time>
<speed>2.620000</speed>
<extensions>
<speed>2.6</speed>
<temp>0.00</temp>
<bpm>0</bpm>
<rpm>0.00</rpm>
</extensions>
</trkpt>
<trkpt lat="63.819324493" lon="-19.234371185">
<ele>568.656250</ele>
<time>2012-07-26T12:22:44Z</time>
<speed>3.950000</speed>
<extensions>
<speed>4.0</speed>
<temp>0.00</temp>
<bpm>0</bpm>
<rpm>0.00</rpm>
</extensions>
</trkpt>
<trkpt lat="63.819259644" lon="-19.234771729">
<ele>568.234375</ele>
<time>2012-07-26T12:22:49Z</time>
<speed>4.320000</speed>
<extensions>
<speed>4.3</speed>
<temp>0.00</temp>
<bpm>0</bpm>
<rpm>0.00</rpm>
</extensions>
</trkpt>
<trkpt lat="63.819156647" lon="-19.235179901">
<ele>566.734375</ele>
<time>2012-07-26T12:22:54Z</time>
<speed>4.560000</speed>
<extensions>
<speed>4.6</speed>
<temp>0.00</temp>
<bpm>0</bpm>
<rpm>0.00</rpm>
</extensions>
</trkpt>
<trkpt lat="63.819042206" lon="-19.235555649">
<ele>567.468750</ele>
<time>2012-07-26T12:22:59Z</time>
<speed>4.850000</speed>
<extensions>
<speed>4.8</speed>
<temp>0.00</temp>
<bpm>0</bpm>
<rpm>0.00</rpm>
</extensions>
</trkpt>
<trkpt lat="63.818916321" lon="-19.235918045">
<ele>569.781250</ele>
<time>2012-07-26T12:23:04Z</time>
<speed>5.170000</speed>
<extensions>
<speed>5.2</speed>
<temp>0.00</temp>
<bpm>0</bpm>
<rpm>0.00</rpm>
</extensions>
</trkpt>
<trkpt lat="63.818778992" lon="-19.236370087">
<ele>570.812500</ele>
<time>2012-07-26T12:23:09Z</time>
<speed>5.190000</speed>
<extensions>
<speed>5.2</speed>
<temp>0.00</temp>
<bpm>0</bpm>
<rpm>0.00</rpm>
</extensions>
</trkpt>
<trkpt lat="63.818653107" lon="-19.236827850">
<ele>572.546875</ele>
<time>2012-07-26T12:23:14Z</time>
<speed>5.810000</speed>
<extensions>
<speed>5.8</speed>
<temp>0.00</temp>
<bpm>0</bpm>
<rpm>0.00</rpm>
</extensions>
</trkpt>
<trkpt lat="63.818519592" lon="-19.237348557">
<ele>572.281250</ele>
<time>2012-07-26T12:23:19Z</time>
<speed>6.020000</speed>
<extensions>
<speed>6.0</speed>
<temp>0.00</temp>
<bpm>0</bpm>
<rpm>0.00</rpm>
</extensions>
</trkpt>
<trkpt lat="63.818401337" lon="-19.237888336">
<ele>572.781250</ele>
<time>2012-07-26T12:23:24Z</time>
<speed>6.050000</speed>
<extensions>
<speed>6.1</speed>
<temp>0.00</temp>
<bpm>0</bpm>
<rpm>0.00</rpm>
</extensions>
</trkpt>
<trkpt lat="63.818275452" lon="-19.238456726">
<ele>572.015625</ele>
<time>2012-07-26T12:23:29Z</time>
<speed>6.160000</speed>
<extensions>
<speed>6.2</speed>
<temp>0.00</temp>
<bpm>0</bpm>
<rpm>0.00</rpm>
</extensions>
</trkpt>
<trkpt lat="63.818172455" lon="-19.239009857">
<ele>571.906250</ele>
<time>2012-07-26T12:23:34Z</time>
<speed>6.040000</speed>
<extensions>
<speed>6.0</speed>
<temp>0.00</temp>
<bpm>0</bpm>
<rpm>0.00</rpm>
</extensions>
</trkpt>
<trkpt lat="63.818061829" lon="-19.239601135">
<ele>568.890625</ele>
<time>2012-07-26T12:23:39Z</time>
<speed>6.100000</speed>
<extensions>
<speed>6.1</speed>
<temp>0.00</temp>
<bpm>0</bpm>
<rpm>0.00</rpm>
</extensions>
</trkpt>
<trkpt lat="63.817939758" lon="-19.240175247">
<ele>568.546875</ele>
<time>2012-07-26T12:23:44Z</time>
<speed>6.090000</speed>
<extensions>
<speed>6.1</speed>
<temp>0.00</temp>
<bpm>0</bpm>
<rpm>0.00</rpm>
</extensions>
</trkpt>
<trkpt lat="63.817832947" lon="-19.240743637">
<ele>569.578125</ele>
<time>2012-07-26T12:23:49Z</time>
<speed>6.200000</speed>
<extensions>
<speed>6.2</speed>
<temp>0.00</temp>
<bpm>0</bpm>
<rpm>0.00</rpm>
</extensions>
</trkpt>
<trkpt lat="63.817729950" lon="-19.241292953">
<ele>570.453125</ele>
<time>2012-07-26T12:23:54Z</time>
<speed>6.170000</speed>
<extensions>
<speed>6.2</speed>
<temp>0.00</temp>
<bpm>0</bpm>
<rpm>0.00</rpm>
</extensions>
</trkpt>
<trkpt lat="63.817604065" lon="-19.241838455">
<ele>572.156250</ele>
<time>2012-07-26T12:23:59Z</time>
<speed>5.520000</speed>
<extensions>
<speed>5.5</speed>
<temp>0.00</temp>
<bpm>0</bpm>
<rpm>0.00</rpm>
</extensions>
</trkpt>
<trkpt lat="63.817523956" lon="-19.242301941">
<ele>572.687500</ele>
<time>2012-07-26T12:24:04Z</time>
<speed>4.590000</speed>
<extensions>
<speed>4.6</speed>
<temp>0.00</temp>
<bpm>0</bpm>
<rpm>0.00</rpm>
</extensions>
</trkpt>
<trkpt lat="63.817424774" lon="-19.242752075">
<ele>572.140625</ele>
<time>2012-07-26T12:24:09Z</time>
<speed>5.310000</speed>
<extensions>
<speed>5.3</speed>
<temp>0.00</temp>
<bpm>0</bpm>
<rpm>0.00</rpm>
</extensions>
</trkpt>
<trkpt lat="63.817317963" lon="-19.243227005">
<ele>571.765625</ele>
<time>2012-07-26T12:24:14Z</time>
<speed>5.360000</speed>
<extensions>
<speed>5.4</speed>
<temp>0.00</temp>
<bpm>0</bpm>
<rpm>0.00</rpm>
</extensions>
</trkpt>
<trkpt lat="63.817188263" lon="-19.243715286">
<ele>570.343750</ele>
<time>2012-07-26T12:24:19Z</time>
<speed>5.330000</speed>
<extensions>
<speed>5.3</speed>
<temp>0.00</temp>
<bpm>0</bpm>
<rpm>0.00</rpm>
</extensions>
</trkpt>
<trkpt lat="63.817039490" lon="-19.244174957">
<ele>569.062500</ele>
<time>2012-07-26T12:24:24Z</time>
<speed>5.420000</speed>
<extensions>
<speed>5.4</speed>
<temp>0.00</temp>
<bpm>0</bpm>
<rpm>0.00</rpm>
</extensions>
</trkpt>
<trkpt lat="63.816913605" lon="-19.244636536">
<ele>568.546875</ele>
<time>2012-07-26T12:24:29Z</time>
<speed>5.520000</speed>
<extensions>
<speed>5.5</speed>
<temp>0.00</temp>
<bpm>0</bpm>
<rpm>0.00</rpm>
</extensions>
</trkpt>
<trkpt lat="63.816780090" lon="-19.245126724">
<ele>565.468750</ele>
<time>2012-07-26T12:24:34Z</time>
<speed>5.320000</speed>
<extensions>
<speed>5.3</speed>
<temp>0.00</temp>
<bpm>0</bpm>
<rpm>0.00</rpm>
</extensions>
</trkpt>
<trkpt lat="63.816665649" lon="-19.245563507">
<ele>567.375000</ele>
<time>2012-07-26T12:24:39Z</time>
<speed>4.680000</speed>
<extensions>
<speed>4.7</speed>
<temp>0.00</temp>
<bpm>0</bpm>
<rpm>0.00</rpm>
</extensions>
</trkpt>
<trkpt lat="63.816570282" lon="-19.245941162">
<ele>568.031250</ele>
<time>2012-07-26T12:24:44Z</time>
<speed>4.560000</speed>
<extensions>
<speed>4.6</speed>
<temp>0.00</temp>
<bpm>0</bpm>
<rpm>0.00</rpm>
</extensions>
</trkpt>
<trkpt lat="63.816493988" lon="-19.246269226">
<ele>567.546875</ele>
<time>2012-07-26T12:24:49Z</time>
<speed>1.930000</speed>
<extensions>
<speed>1.9</speed>
<temp>0.00</temp>
<bpm>0</bpm>
<rpm>0.00</rpm>
</extensions>
</trkpt>
<trkpt lat="63.816486359" lon="-19.246309280">
<ele>559.921875</ele>
<time>2012-07-26T12:24:54Z</time>
<speed>0.010000</speed>
<extensions>
<speed>0.0</speed>
<temp>0.00</temp>
<bpm>0</bpm>
<rpm>0.00</rpm>
</extensions>
</trkpt>
<trkpt lat="63.816486359" lon="-19.246307373">
<ele>559.921875</ele>
<time>2012-07-26T12:24:59Z</time>
<speed>0.010000</speed>
<extensions>
<speed>0.0</speed>
<temp>0.00</temp>
<bpm>0</bpm>
<rpm>0.00</rpm>
</extensions>
</trkpt>
<trkpt lat="63.816486359" lon="-19.246307373">
<ele>559.843750</ele>
<time>2012-07-26T12:25:04Z</time>
<speed>0.010000</speed>
<extensions>
<speed>0.0</speed>
<temp>0.00</temp>
<bpm>0</bpm>
<rpm>0.00</rpm>
</extensions>
</trkpt>
<trkpt lat="63.816490173" lon="-19.246307373">
<ele>559.718750</ele>
<time>2012-07-26T12:25:09Z</time>
<extensions>
<speed>0.0</speed>
<temp>0.00</temp>
<bpm>0</bpm>
<rpm>0.00</rpm>
</extensions>
</trkpt>
<trkpt lat="63.816486359" lon="-19.246305466">
<ele>559.703125</ele>
<time>2012-07-26T12:25:14Z</time>
<speed>0.010000</speed>
<extensions>
<speed>0.0</speed>
<temp>0.00</temp>
<bpm>0</bpm>
<rpm>0.00</rpm>
</extensions>
</trkpt>
<trkpt lat="63.816486359" lon="-19.246305466">
<ele>559.671875</ele>
<time>2012-07-26T12:25:19Z</time>
<extensions>
<speed>0.0</speed>
<temp>0.00</temp>
<bpm>0</bpm>
<rpm>0.00</rpm>
</extensions>
</trkpt>
<trkpt lat="63.816486359" lon="-19.246305466">
<ele>559.640625</ele>
<time>2012-07-26T12:25:24Z</time>
<speed>0.020000</speed>
<extensions>
<speed>0.0</speed>
<temp>0.00</temp>
<bpm>0</bpm>
<rpm>0.00</rpm>
</extensions>
</trkpt>
<trkpt lat="63.816486359" lon="-19.246305466">
<ele>559.609375</ele>
<time>2012-07-26T12:25:29Z</time>
<speed>0.130000</speed>
<extensions>
<speed>0.1</speed>
<temp>0.00</temp>
<bpm>0</bpm>
<rpm>0.00</rpm>
</extensions>
</trkpt>
<trkpt lat="63.816486359" lon="-19.246297836">
<ele>559.640625</ele>
<time>2012-07-26T12:25:34Z</time>
<speed>0.060000</speed>
<extensions>
<speed>0.1</speed>
<temp>0.00</temp>
<bpm>0</bpm>
<rpm>0.00</rpm>
</extensions>
</trkpt>
<trkpt lat="63.816486359" lon="-19.246295929">
<ele>559.578125</ele>
<time>2012-07-26T12:25:39Z</time>
<extensions>
<speed>0.0</speed>
<temp>0.00</temp>
<bpm>0</bpm>
<rpm>0.00</rpm>
</extensions>
</trkpt>
<trkpt lat="63.816486359" lon="-19.246295929">
<ele>559.531250</ele>
<time>2012-07-26T12:25:44Z</time>
<extensions>
<speed>0.0</speed>
<temp>0.00</temp>
<bpm>0</bpm>
<rpm>0.00</rpm>
</extensions>
</trkpt>
<trkpt lat="63.816486359" lon="-19.246295929">
<ele>559.515625</ele>
<time>2012-07-26T12:25:49Z</time>
<speed>0.020000</speed>
<extensions>
<speed>0.0</speed>
<temp>0.00</temp>
<bpm>0</bpm>
<rpm>0.00</rpm>
</extensions>
</trkpt>
<trkpt lat="63.816486359" lon="-19.246295929">
<ele>559.500000</ele>
<time>2012-07-26T12:25:54Z</time>
<speed>0.020000</speed>
<extensions>
<speed>0.0</speed>
<temp>0.00</temp>
<bpm>0</bpm>
<rpm>0.00</rpm>
</extensions>
</trkpt>
<trkpt lat="63.816486359" lon="-19.246295929">
<ele>559.500000</ele>
<time>2012-07-26T12:25:59Z</time>
<speed>0.260000</speed>
<extensions>
<speed>0.3</speed>
<temp>0.00</temp>
<bpm>0</bpm>
<rpm>0.00</rpm>
</extensions>
</trkpt>
<trkpt lat="63.816478729" lon="-19.246322632">
<ele>559.375000</ele>
<time>2012-07-26T12:26:04Z</time>
<speed>1.180000</speed>
<extensions>
<speed>1.2</speed>
<temp>0.00</temp>
<bpm>0</bpm>
<rpm>0.00</rpm>
</extensions>
</trkpt>
<trkpt lat="63.816440582" lon="-19.246486664">
<ele>557.984375</ele>
<time>2012-07-26T12:26:09Z</time>
<speed>2.160000</speed>
<extensions>
<speed>2.2</speed>
<temp>0.00</temp>
<bpm>0</bpm>
<rpm>0.00</rpm>
</extensions>
</trkpt>
<trkpt lat="63.816387177" lon="-19.246723175">
<ele>558.375000</ele>
<time>2012-07-26T12:26:14Z</time>
<speed>2.680000</speed>
<extensions>
<speed>2.7</speed>
<temp>0.00</temp>
<bpm>0</bpm>
<rpm>0.00</rpm>
</extensions>
</trkpt>
<trkpt lat="63.816322327" lon="-19.246980667">
<ele>558.390625</ele>
<time>2012-07-26T12:26:19Z</time>
<speed>2.960000</speed>
<extensions>
<speed>3.0</speed>
<temp>0.00</temp>
<bpm>0</bpm>
<rpm>0.00</rpm>
</extensions>
</trkpt>
<trkpt lat="63.816253662" lon="-19.247266769">
<ele>557.968750</ele>
<time>2012-07-26T12:26:24Z</time>
<speed>3.280000</speed>
<extensions>
<speed>3.3</speed>
<temp>0.00</temp>
<bpm>0</bpm>
<rpm>0.00</rpm>
</extensions>
</trkpt>
<trkpt lat="63.816188812" lon="-19.247585297">
<ele>557.437500</ele>
<time>2012-07-26T12:26:29Z</time>
<speed>3.610000</speed>
<extensions>
<speed>3.6</speed>
<temp>0.00</temp>
<bpm>0</bpm>
<rpm>0.00</rpm>
</extensions>
</trkpt>
<trkpt lat="63.816104889" lon="-19.247941971">
<ele>556.062500</ele>
<time>2012-07-26T12:26:34Z</time>
<speed>4.140000</speed>
<extensions>
<speed>4.1</speed>
<temp>0.00</temp>
<bpm>0</bpm>
<rpm>0.00</rpm>
</extensions>
</trkpt>
<trkpt lat="63.816017151" lon="-19.248342514">
<ele>554.781250</ele>
<time>2012-07-26T12:26:39Z</time>
<speed>4.530000</speed>
<extensions>
<speed>4.5</speed>
<temp>0.00</temp>
<bpm>0</bpm>
<rpm>0.00</rpm>
</extensions>
</trkpt>
<trkpt lat="63.815898895" lon="-19.248781204">
<ele>553.671875</ele>
<time>2012-07-26T12:26:44Z</time>
<speed>5.130000</speed>
<extensions>
<speed>5.1</speed>
<temp>0.00</temp>
<bpm>0</bpm>
<rpm>0.00</rpm>
</extensions>
</trkpt>
<trkpt lat="63.815784454" lon="-19.249217987">
<ele>553.750000</ele>
<time>2012-07-26T12:26:49Z</time>
<speed>4.670000</speed>
<extensions>
<speed>4.7</speed>
<temp>0.00</temp>
<bpm>0</bpm>
<rpm>0.00</rpm>
</extensions>
</trkpt>
<trkpt lat="63.815666199" lon="-19.249652863">
<ele>553.703125</ele>
<time>2012-07-26T12:26:54Z</time>
<speed>4.740000</speed>
<extensions>
<speed>4.7</speed>
<temp>0.00</temp>
<bpm>0</bpm>
<rpm>0.00</rpm>
</extensions>
</trkpt>
<trkpt lat="63.815559387" lon="-19.250062943">
<ele>552.718750</ele>
<time>2012-07-26T12:26:59Z</time>
<speed>4.140000</speed>
<extensions>
<speed>4.1</speed>
<temp>0.00</temp>
<bpm>0</bpm>
<rpm>0.00</rpm>
</extensions>
</trkpt>
<trkpt lat="63.815509796" lon="-19.250331879">
<ele>550.578125</ele>
<time>2012-07-26T12:27:04Z</time>
<speed>2.180000</speed>
<extensions>
<speed>2.2</speed>
<temp>0.00</temp>
<bpm>0</bpm>
<rpm>0.00</rpm>
</extensions>
</trkpt>
<trkpt lat="63.815471649" lon="-19.250494003">
<ele>549.437500</ele>
<time>2012-07-26T12:27:09Z</time>
<speed>2.300000</speed>
<extensions>
<speed>2.3</speed>
<temp>0.00</temp>
<bpm>0</bpm>
<rpm>0.00</rpm>
</extensions>
</trkpt>
<trkpt lat="63.815414429" lon="-19.250715256">
<ele>549.359375</ele>
<time>2012-07-26T12:27:14Z</time>
<speed>2.950000</speed>
<extensions>
<speed>2.9</speed>
<temp>0.00</temp>
<bpm>0</bpm>
<rpm>0.00</rpm>
</extensions>
</trkpt>
<trkpt lat="63.815361023" lon="-19.251008987">
<ele>549.750000</ele>
<time>2012-07-26T12:27:19Z</time>
<speed>3.100000</speed>
<extensions>
<speed>3.1</speed>
<temp>0.00</temp>
<bpm>0</bpm>
<rpm>0.00</rpm>
</extensions>
</trkpt>
<trkpt lat="63.815299988" lon="-19.251222610">
<ele>551.125000</ele>
<time>2012-07-26T12:27:24Z</time>
<speed>2.860000</speed>
<extensions>
<speed>2.9</speed>
<temp>0.00</temp>
<bpm>0</bpm>
<rpm>0.00</rpm>
</extensions>
</trkpt>
<trkpt lat="63.815223694" lon="-19.251556396">
<ele>550.781250</ele>
<time>2012-07-26T12:27:29Z</time>
<speed>4.780000</speed>
<extensions>
<speed>4.8</speed>
<temp>0.00</temp>
<bpm>0</bpm>
<rpm>0.00</rpm>
</extensions>
</trkpt>
<trkpt lat="63.815113068" lon="-19.252025604">
<ele>551.765625</ele>
<time>2012-07-26T12:27:34Z</time>
<speed>5.610000</speed>
<extensions>
<speed>5.6</speed>
<temp>0.00</temp>
<bpm>0</bpm>
<rpm>0.00</rpm>
</extensions>
</trkpt>
<trkpt lat="63.815006256" lon="-19.252510071">
<ele>552.953125</ele>
<time>2012-07-26T12:27:39Z</time>
<speed>5.040000</speed>
<extensions>
<speed>5.0</speed>
<temp>0.00</temp>
<bpm>0</bpm>
<rpm>0.00</rpm>
</extensions>
</trkpt>
<trkpt lat="63.814914703" lon="-19.252943039">
<ele>554.921875</ele>
<time>2012-07-26T12:27:44Z</time>
<speed>4.240000</speed>
<extensions>
<speed>4.2</speed>
<temp>0.00</temp>
<bpm>0</bpm>
<rpm>0.00</rpm>
</extensions>
</trkpt>
<trkpt lat="63.814838409" lon="-19.253246307">
<ele>556.484375</ele>
<time>2012-07-26T12:27:49Z</time>
<speed>3.020000</speed>
<extensions>
<speed>3.0</speed>
<temp>0.00</temp>
<bpm>0</bpm>
<rpm>0.00</rpm>
</extensions>
</trkpt>
<trkpt lat="63.814781189" lon="-19.253536224">
<ele>556.953125</ele>
<time>2012-07-26T12:27:54Z</time>
<speed>3.460000</speed>
<extensions>
<speed>3.5</speed>
<temp>0.00</temp>
<bpm>0</bpm>
<rpm>0.00</rpm>
</extensions>
</trkpt>
<trkpt lat="63.814708710" lon="-19.253879547">
<ele>557.453125</ele>
<time>2012-07-26T12:27:59Z</time>
<speed>3.850000</speed>
<extensions>
<speed>3.8</speed>
<temp>0.00</temp>
<bpm>0</bpm>
<rpm>0.00</rpm>
</extensions>
</trkpt>
<trkpt lat="63.814628601" lon="-19.254234314">
<ele>557.578125</ele>
<time>2012-07-26T12:28:04Z</time>
<speed>3.940000</speed>
<extensions>
<speed>3.9</speed>
<temp>0.00</temp>
<bpm>0</bpm>
<rpm>0.00</rpm>
</extensions>
</trkpt>
<trkpt lat="63.814548492" lon="-19.254604340">
<ele>557.406250</ele>
<time>2012-07-26T12:28:09Z</time>
<speed>4.390000</speed>
<extensions>
<speed>4.4</speed>
<temp>0.00</temp>
<bpm>0</bpm>
<rpm>0.00</rpm>
</extensions>
</trkpt>
<trkpt lat="63.814453125" lon="-19.254999161">
<ele>557.500000</ele>
<time>2012-07-26T12:28:14Z</time>
<speed>4.170000</speed>
<extensions>
<speed>4.2</speed>
<temp>0.00</temp>
<bpm>0</bpm>
<rpm>0.00</rpm>
</extensions>
</trkpt>
<trkpt lat="63.814361572" lon="-19.255365372">
<ele>557.265625</ele>
<time>2012-07-26T12:28:19Z</time>
<speed>4.310000</speed>
<extensions>
<speed>4.3</speed>
<temp>0.00</temp>
<bpm>0</bpm>
<rpm>0.00</rpm>
</extensions>
</trkpt>
<trkpt lat="63.814258575" lon="-19.255790710">
<ele>556.562500</ele>
<time>2012-07-26T12:28:24Z</time>
<speed>5.110000</speed>
<extensions>
<speed>5.1</speed>
<temp>0.00</temp>
<bpm>0</bpm>
<rpm>0.00</rpm>
</extensions>
</trkpt>
<trkpt lat="63.814151764" lon="-19.256273270">
<ele>555.828125</ele>
<time>2012-07-26T12:28:29Z</time>
<speed>5.140000</speed>
<extensions>
<speed>5.1</speed>
<temp>0.00</temp>
<bpm>0</bpm>
<rpm>0.00</rpm>
</extensions>
</trkpt>
<trkpt lat="63.814060211" lon="-19.256736755">
<ele>555.500000</ele>
<time>2012-07-26T12:28:34Z</time>
<speed>4.930000</speed>
<extensions>
<speed>4.9</speed>
<temp>0.00</temp>
<bpm>0</bpm>
<rpm>0.00</rpm>
</extensions>
</trkpt>
<trkpt lat="63.813980103" lon="-19.257186890">
<ele>555.718750</ele>
<time>2012-07-26T12:28:39Z</time>
<speed>5.010000</speed>
<extensions>
<speed>5.0</speed>
<temp>0.00</temp>
<bpm>0</bpm>
<rpm>0.00</rpm>
</extensions>
</trkpt>
<trkpt lat="63.813896179" lon="-19.257629395">
<ele>555.515625</ele>
<time>2012-07-26T12:28:44Z</time>
<speed>4.270000</speed>
<extensions>
<speed>4.3</speed>
<temp>0.00</temp>
<bpm>0</bpm>
<rpm>0.00</rpm>
</extensions>
</trkpt>
<trkpt lat="63.813831329" lon="-19.258033752">
<ele>555.718750</ele>
<time>2012-07-26T12:28:49Z</time>
<speed>4.420000</speed>
<extensions>
<speed>4.4</speed>
<temp>0.00</temp>
<bpm>0</bpm>
<rpm>0.00</rpm>
</extensions>
</trkpt>
<trkpt lat="63.813774109" lon="-19.258512497">
<ele>555.546875</ele>
<time>2012-07-26T12:28:54Z</time>
<speed>5.150000</speed>
<extensions>
<speed>5.2</speed>
<temp>0.00</temp>
<bpm>0</bpm>
<rpm>0.00</rpm>
</extensions>
</trkpt>
<trkpt lat="63.813716888" lon="-19.259019852">
<ele>555.546875</ele>
<time>2012-07-26T12:28:59Z</time>
<speed>5.080000</speed>
<extensions>
<speed>5.1</speed>
<temp>0.00</temp>
<bpm>0</bpm>
<rpm>0.00</rpm>
</extensions>
</trkpt>
<trkpt lat="63.813678741" lon="-19.259469986">
<ele>556.406250</ele>
<time>2012-07-26T12:29:04Z</time>
<speed>4.060000</speed>
<extensions>
<speed>4.1</speed>
<temp>0.00</temp>
<bpm>0</bpm>
<rpm>0.00</rpm>
</extensions>
</trkpt>
<trkpt lat="63.813648224" lon="-19.259828568">
<ele>556.031250</ele>
<time>2012-07-26T12:29:09Z</time>
<speed>3.240000</speed>
<extensions>
<speed>3.2</speed>
<temp>0.00</temp>
<bpm>0</bpm>
<rpm>0.00</rpm>
</extensions>
</trkpt>
<trkpt lat="63.813632965" lon="-19.260118484">
<ele>556.093750</ele>
<time>2012-07-26T12:29:14Z</time>
<speed>2.360000</speed>
<extensions>
<speed>2.4</speed>
<temp>0.00</temp>
<bpm>0</bpm>
<rpm>0.00</rpm>
</extensions>
</trkpt>
<trkpt lat="63.813640594" lon="-19.260309219">
<ele>556.125000</ele>
<time>2012-07-26T12:29:19Z</time>
<speed>2.020000</speed>
<extensions>
<speed>2.0</speed>
<temp>0.00</temp>
<bpm>0</bpm>
<rpm>0.00</rpm>
</extensions>
</trkpt>
<trkpt lat="63.813640594" lon="-19.260568619">
<ele>556.171875</ele>
<time>2012-07-26T12:29:24Z</time>
<speed>2.830000</speed>
<extensions>
<speed>2.8</speed>
<temp>0.00</temp>
<bpm>0</bpm>
<rpm>0.00</rpm>
</extensions>
</trkpt>
<trkpt lat="63.813655853" lon="-19.260860443">
<ele>556.890625</ele>
<time>2012-07-26T12:29:29Z</time>
<speed>2.810000</speed>
<extensions>
<speed>2.8</speed>
<temp>0.00</temp>
<bpm>0</bpm>
<rpm>0.00</rpm>
</extensions>
</trkpt>
<trkpt lat="63.813667297" lon="-19.261192322">
<ele>557.593750</ele>
<time>2012-07-26T12:29:34Z</time>
<speed>3.810000</speed>
<extensions>
<speed>3.8</speed>
<temp>0.00</temp>
<bpm>0</bpm>
<rpm>0.00</rpm>
</extensions>
</trkpt>
<trkpt lat="63.813663483" lon="-19.261562347">
<ele>558.375000</ele>
<time>2012-07-26T12:29:39Z</time>
<speed>3.820000</speed>
<extensions>
<speed>3.8</speed>
<temp>0.00</temp>
<bpm>0</bpm>
<rpm>0.00</rpm>
</extensions>
</trkpt>
<trkpt lat="63.813644409" lon="-19.261951447">
<ele>559.171875</ele>
<time>2012-07-26T12:29:44Z</time>
<speed>4.330000</speed>
<extensions>
<speed>4.3</speed>
<temp>0.00</temp>
<bpm>0</bpm>
<rpm>0.00</rpm>
</extensions>
</trkpt>
<trkpt lat="63.813602448" lon="-19.262390137">
<ele>560.062500</ele>
<time>2012-07-26T12:29:49Z</time>
<speed>4.650000</speed>
<extensions>
<speed>4.6</speed>
<temp>0.00</temp>
<bpm>0</bpm>
<rpm>0.00</rpm>
</extensions>
</trkpt>
<trkpt lat="63.813533783" lon="-19.262796402">
<ele>560.687500</ele>
<time>2012-07-26T12:29:54Z</time>
<speed>4.630000</speed>
<extensions>
<speed>4.6</speed>
<temp>0.00</temp>
<bpm>0</bpm>
<rpm>0.00</rpm>
</extensions>
</trkpt>
<trkpt lat="63.813453674" lon="-19.263175964">
<ele>561.140625</ele>
<time>2012-07-26T12:29:59Z</time>
<speed>3.850000</speed>
<extensions>
<speed>3.8</speed>
<temp>0.00</temp>
<bpm>0</bpm>
<rpm>0.00</rpm>
</extensions>
</trkpt>
<trkpt lat="63.813392639" lon="-19.263490677">
<ele>561.671875</ele>
<time>2012-07-26T12:30:04Z</time>
<speed>3.540000</speed>
<extensions>
<speed>3.5</speed>
<temp>0.00</temp>
<bpm>0</bpm>
<rpm>0.00</rpm>
</extensions>
</trkpt>
<trkpt lat="63.813301086" lon="-19.263841629">
<ele>562.046875</ele>
<time>2012-07-26T12:30:09Z</time>
<speed>3.790000</speed>
<extensions>
<speed>3.8</speed>
<temp>0.00</temp>
<bpm>0</bpm>
<rpm>0.00</rpm>
</extensions>
</trkpt>
<trkpt lat="63.813217163" lon="-19.264228821">
<ele>562.359375</ele>
<time>2012-07-26T12:30:14Z</time>
<speed>4.440000</speed>
<extensions>
<speed>4.4</speed>
<temp>0.00</temp>
<bpm>0</bpm>
<rpm>0.00</rpm>
</extensions>
</trkpt>
<trkpt lat="63.813114166" lon="-19.264617920">
<ele>562.687500</ele>
<time>2012-07-26T12:30:19Z</time>
<speed>4.240000</speed>
<extensions>
<speed>4.2</speed>
<temp>0.00</temp>
<bpm>0</bpm>
<rpm>0.00</rpm>
</extensions>
</trkpt>
<trkpt lat="63.813030243" lon="-19.264945984">
<ele>563.125000</ele>
<time>2012-07-26T12:30:24Z</time>
<speed>4.070000</speed>
<extensions>
<speed>4.1</speed>
<temp>0.00</temp>
<bpm>0</bpm>
<rpm>0.00</rpm>
</extensions>
</trkpt>
<trkpt lat="63.812908173" lon="-19.265319824">
<ele>562.843750</ele>
<time>2012-07-26T12:30:29Z</time>
<speed>4.570000</speed>
<extensions>
<speed>4.6</speed>
<temp>0.00</temp>
<bpm>0</bpm>
<rpm>0.00</rpm>
</extensions>
</trkpt>
<trkpt lat="63.812808990" lon="-19.265720367">
<ele>562.687500</ele>
<time>2012-07-26T12:30:34Z</time>
<speed>4.590000</speed>
<extensions>
<speed>4.6</speed>
<temp>0.00</temp>
<bpm>0</bpm>
<rpm>0.00</rpm>
</extensions>
</trkpt>
<trkpt lat="63.812732697" lon="-19.266111374">
<ele>562.312500</ele>
<time>2012-07-26T12:30:39Z</time>
<speed>4.110000</speed>
<extensions>
<speed>4.1</speed>
<temp>0.00</temp>
<bpm>0</bpm>
<rpm>0.00</rpm>
</extensions>
</trkpt>
<trkpt lat="63.812618256" lon="-19.266536713">
<ele>561.687500</ele>
<time>2012-07-26T12:30:44Z</time>
<speed>5.050000</speed>
<extensions>
<speed>5.1</speed>
<temp>0.00</temp>
<bpm>0</bpm>
<rpm>0.00</rpm>
</extensions>
</trkpt>
<trkpt lat="63.812488556" lon="-19.266983032">
<ele>560.687500</ele>
<time>2012-07-26T12:30:49Z</time>
<speed>5.120000</speed>
<extensions>
<speed>5.1</speed>
<temp>0.00</temp>
<bpm>0</bpm>
<rpm>0.00</rpm>
</extensions>
</trkpt>
<trkpt lat="63.812362671" lon="-19.267423630">
<ele>559.578125</ele>
<time>2012-07-26T12:30:54Z</time>
<speed>5.490000</speed>
<extensions>
<speed>5.5</speed>
<temp>0.00</temp>
<bpm>0</bpm>
<rpm>0.00</rpm>
</extensions>
</trkpt>
<trkpt lat="63.812232971" lon="-19.267889023">
<ele>558.890625</ele>
<time>2012-07-26T12:30:59Z</time>
<speed>5.330000</speed>
<extensions>
<speed>5.3</speed>
<temp>0.00</temp>
<bpm>0</bpm>
<rpm>0.00</rpm>
</extensions>
</trkpt>
<trkpt lat="63.812103271" lon="-19.268323898">
<ele>557.562500</ele>
<time>2012-07-26T12:31:04Z</time>
<speed>5.040000</speed>
<extensions>
<speed>5.0</speed>
<temp>0.00</temp>
<bpm>0</bpm>
<rpm>0.00</rpm>
</extensions>
</trkpt>
<trkpt lat="63.812011719" lon="-19.268745422">
<ele>556.562500</ele>
<time>2012-07-26T12:31:09Z</time>
<speed>4.320000</speed>
<extensions>
<speed>4.3</speed>
<temp>0.00</temp>
<bpm>0</bpm>
<rpm>0.00</rpm>
</extensions>
</trkpt>
<trkpt lat="63.811916351" lon="-19.269113541">
<ele>555.703125</ele>
<time>2012-07-26T12:31:14Z</time>
<speed>3.920000</speed>
<extensions>
<speed>3.9</speed>
<temp>0.00</temp>
<bpm>0</bpm>
<rpm>0.00</rpm>
</extensions>
</trkpt>
<trkpt lat="63.811820984" lon="-19.269496918">
<ele>553.750000</ele>
<time>2012-07-26T12:31:19Z</time>
<speed>4.290000</speed>
<extensions>
<speed>4.3</speed>
<temp>0.00</temp>
<bpm>0</bpm>
<rpm>0.00</rpm>
</extensions>
</trkpt>
<trkpt lat="63.811691284" lon="-19.269884109">
<ele>552.875000</ele>
<time>2012-07-26T12:31:24Z</time>
<speed>4.800000</speed>
<extensions>
<speed>4.8</speed>
<temp>0.00</temp>
<bpm>0</bpm>
<rpm>0.00</rpm>
</extensions>
</trkpt>
<trkpt lat="63.811584473" lon="-19.270298004">
<ele>552.484375</ele>
<time>2012-07-26T12:31:29Z</time>
<speed>5.010000</speed>
<extensions>
<speed>5.0</speed>
<temp>0.00</temp>
<bpm>0</bpm>
<rpm>0.00</rpm>
</extensions>
</trkpt>
<trkpt lat="63.811481476" lon="-19.270709991">
<ele>550.546875</ele>
<time>2012-07-26T12:31:34Z</time>
<speed>4.930000</speed>
<extensions>
<speed>4.9</speed>
<temp>0.00</temp>
<bpm>0</bpm>
<rpm>0.00</rpm>
</extensions>
</trkpt>
<trkpt lat="63.811355591" lon="-19.271127701">
<ele>548.984375</ele>
<time>2012-07-26T12:31:39Z</time>
<speed>4.700000</speed>
<extensions>
<speed>4.7</speed>
<temp>0.00</temp>
<bpm>0</bpm>
<rpm>0.00</rpm>
</extensions>
</trkpt>
<trkpt lat="63.811252594" lon="-19.271503448">
<ele>548.312500</ele>
<time>2012-07-26T12:31:44Z</time>
<speed>4.240000</speed>
<extensions>
<speed>4.2</speed>
<temp>0.00</temp>
<bpm>0</bpm>
<rpm>0.00</rpm>
</extensions>
</trkpt>
<trkpt lat="63.811161041" lon="-19.271858215">
<ele>549.250000</ele>
<time>2012-07-26T12:31:49Z</time>
<speed>4.040000</speed>
<extensions>
<speed>4.0</speed>
<temp>0.00</temp>
<bpm>0</bpm>
<rpm>0.00</rpm>
</extensions>
</trkpt>
<trkpt lat="63.811084747" lon="-19.272148132">
<ele>554.046875</ele>
<time>2012-07-26T12:31:54Z</time>
<speed>3.210000</speed>
<extensions>
<speed>3.2</speed>
<temp>0.00</temp>
<bpm>0</bpm>
<rpm>0.00</rpm>
</extensions>
</trkpt>
<trkpt lat="63.811008453" lon="-19.272441864">
<ele>553.734375</ele>
<time>2012-07-26T12:31:59Z</time>
<speed>3.550000</speed>
<extensions>
<speed>3.5</speed>
<temp>0.00</temp>
<bpm>0</bpm>
<rpm>0.00</rpm>
</extensions>
</trkpt>
<trkpt lat="63.810943604" lon="-19.272752762">
<ele>552.125000</ele>
<time>2012-07-26T12:32:04Z</time>
<speed>3.580000</speed>
<extensions>
<speed>3.6</speed>
<temp>0.00</temp>
<bpm>0</bpm>
<rpm>0.00</rpm>
</extensions>
</trkpt>
<trkpt lat="63.810878754" lon="-19.273052216">
<ele>555.468750</ele>
<time>2012-07-26T12:32:09Z</time>
<speed>3.350000</speed>
<extensions>
<speed>3.4</speed>
<temp>0.00</temp>
<bpm>0</bpm>
<rpm>0.00</rpm>
</extensions>
</trkpt>
<trkpt lat="63.810829163" lon="-19.273351669">
<ele>556.796875</ele>
<time>2012-07-26T12:32:14Z</time>
<speed>3.650000</speed>
<extensions>
<speed>3.7</speed>
<temp>0.00</temp>
<bpm>0</bpm>
<rpm>0.00</rpm>
</extensions>
</trkpt>
<trkpt lat="63.810760498" lon="-19.273702621">
<ele>557.906250</ele>
<time>2012-07-26T12:32:19Z</time>
<speed>3.830000</speed>
<extensions>
<speed>3.8</speed>
<temp>0.00</temp>
<bpm>0</bpm>
<rpm>0.00</rpm>
</extensions>
</trkpt>
<trkpt lat="63.810695648" lon="-19.274051666">
<ele>558.875000</ele>
<time>2012-07-26T12:32:24Z</time>
<speed>3.750000</speed>
<extensions>
<speed>3.8</speed>
<temp>0.00</temp>
<bpm>0</bpm>
<rpm>0.00</rpm>
</extensions>
</trkpt>
<trkpt lat="63.810649872" lon="-19.274423599">
<ele>558.781250</ele>
<time>2012-07-26T12:32:29Z</time>
<speed>4.170000</speed>
<extensions>
<speed>4.2</speed>
<temp>0.00</temp>
<bpm>0</bpm>
<rpm>0.00</rpm>
</extensions>
</trkpt>
<trkpt lat="63.810607910" lon="-19.274797440">
<ele>560.453125</ele>
<time>2012-07-26T12:32:34Z</time>
<speed>4.000000</speed>
<extensions>
<speed>4.0</speed>
<temp>0.00</temp>
<bpm>0</bpm>
<rpm>0.00</rpm>
</extensions>
</trkpt>
<trkpt lat="63.810565948" lon="-19.275142670">
<ele>562.125000</ele>
<time>2012-07-26T12:32:39Z</time>
<speed>3.280000</speed>
<extensions>
<speed>3.3</speed>
<temp>0.00</temp>
<bpm>0</bpm>
<rpm>0.00</rpm>
</extensions>
</trkpt>
<trkpt lat="63.810543060" lon="-19.275444031">
<ele>562.453125</ele>
<time>2012-07-26T12:32:44Z</time>
<speed>3.110000</speed>
<extensions>
<speed>3.1</speed>
<temp>0.00</temp>
<bpm>0</bpm>
<rpm>0.00</rpm>
</extensions>
</trkpt>
<trkpt lat="63.810504913" lon="-19.275777817">
<ele>563.218750</ele>
<time>2012-07-26T12:32:49Z</time>
<speed>3.800000</speed>
<extensions>
<speed>3.8</speed>
<temp>0.00</temp>
<bpm>0</bpm>
<rpm>0.00</rpm>
</extensions>
</trkpt>
<trkpt lat="63.810459137" lon="-19.276182175">
<ele>563.546875</ele>
<time>2012-07-26T12:32:54Z</time>
<speed>4.190000</speed>
<extensions>
<speed>4.2</speed>
<temp>0.00</temp>
<bpm>0</bpm>
<rpm>0.00</rpm>
</extensions>
</trkpt>
<trkpt lat="63.810432434" lon="-19.276618958">
<ele>563.250000</ele>
<time>2012-07-26T12:32:59Z</time>
<speed>4.230000</speed>
<extensions>
<speed>4.2</speed>
<temp>0.00</temp>
<bpm>0</bpm>
<rpm>0.00</rpm>
</extensions>
</trkpt>
<trkpt lat="63.810420990" lon="-19.277046204">
<ele>563.015625</ele>
<time>2012-07-26T12:33:04Z</time>
<speed>4.400000</speed>
<extensions>
<speed>4.4</speed>
<temp>0.00</temp>
<bpm>0</bpm>
<rpm>0.00</rpm>
</extensions>
</trkpt>
<trkpt lat="63.810371399" lon="-19.277515411">
<ele>562.453125</ele>
<time>2012-07-26T12:33:09Z</time>
<speed>4.970000</speed>
<extensions>
<speed>5.0</speed>
<temp>0.00</temp>
<bpm>0</bpm>
<rpm>0.00</rpm>
</extensions>
</trkpt>
<trkpt lat="63.810310364" lon="-19.278064728">
<ele>562.000000</ele>
<time>2012-07-26T12:33:14Z</time>
<speed>6.070000</speed>
<extensions>
<speed>6.1</speed>
<temp>0.00</temp>
<bpm>0</bpm>
<rpm>0.00</rpm>
</extensions>
</trkpt>
<trkpt lat="63.810203552" lon="-19.278657913">
<ele>561.515625</ele>
<time>2012-07-26T12:33:19Z</time>
<speed>6.890000</speed>
<extensions>
<speed>6.9</speed>
<temp>0.00</temp>
<bpm>0</bpm>
<rpm>0.00</rpm>
</extensions>
</trkpt>
<trkpt lat="63.810050964" lon="-19.279283524">
<ele>560.734375</ele>
<time>2012-07-26T12:33:24Z</time>
<speed>7.510000</speed>
<extensions>
<speed>7.5</speed>
<temp>0.00</temp>
<bpm>0</bpm>
<rpm>0.00</rpm>
</extensions>
</trkpt>
<trkpt lat="63.809917450" lon="-19.279821396">
<ele>559.781250</ele>
<time>2012-07-26T12:33:29Z</time>
<speed>5.470000</speed>
<extensions>
<speed>5.5</speed>
<temp>0.00</temp>
<bpm>0</bpm>
<rpm>0.00</rpm>
</extensions>
</trkpt>
<trkpt lat="63.809680939" lon="-19.280023575">
<ele>558.875000</ele>
<time>2012-07-26T12:33:34Z</time>
<speed>5.940000</speed>
<extensions>
<speed>5.9</speed>
<temp>0.00</temp>
<bpm>0</bpm>
<rpm>0.00</rpm>
</extensions>
</trkpt>
<trkpt lat="63.809391022" lon="-19.279800415">
<ele>558.015625</ele>
<time>2012-07-26T12:33:39Z</time>
<speed>7.430000</speed>
<extensions>
<speed>7.4</speed>
<temp>0.00</temp>
<bpm>0</bpm>
<rpm>0.00</rpm>
</extensions>
</trkpt>
<trkpt lat="63.809135437" lon="-19.279132843">
<ele>556.812500</ele>
<time>2012-07-26T12:33:44Z</time>
<speed>9.010000</speed>
<extensions>
<speed>9.0</speed>
<temp>0.00</temp>
<bpm>0</bpm>
<rpm>0.00</rpm>
</extensions>
</trkpt>
<trkpt lat="63.809040070" lon="-19.278377533">
<ele>556.828125</ele>
<time>2012-07-26T12:33:49Z</time>
<speed>6.460000</speed>
<extensions>
<speed>6.5</speed>
<temp>0.00</temp>
<bpm>0</bpm>
<rpm>0.00</rpm>
</extensions>
</trkpt>
<trkpt lat="63.809001923" lon="-19.277793884">
<ele>555.875000</ele>
<time>2012-07-26T12:33:54Z</time>
<speed>5.460000</speed>
<extensions>
<speed>5.5</speed>
<temp>0.00</temp>
<bpm>0</bpm>
<rpm>0.00</rpm>
</extensions>
</trkpt>
<trkpt lat="63.808925629" lon="-19.277431488">
<ele>556.062500</ele>
<time>2012-07-26T12:33:59Z</time>
<speed>3.390000</speed>
<extensions>
<speed>3.4</speed>
<temp>0.00</temp>
<bpm>0</bpm>
<rpm>0.00</rpm>
</extensions>
</trkpt>
<trkpt lat="63.808822632" lon="-19.277210236">
<ele>555.531250</ele>
<time>2012-07-26T12:34:04Z</time>
<speed>2.380000</speed>
<extensions>
<speed>2.4</speed>
<temp>0.00</temp>
<bpm>0</bpm>
<rpm>0.00</rpm>
</extensions>
</trkpt>
<trkpt lat="63.808773041" lon="-19.277160645">
<ele>554.843750</ele>
<time>2012-07-26T12:34:09Z</time>
<speed>0.250000</speed>
<extensions>
<speed>0.2</speed>
<temp>0.00</temp>
<bpm>0</bpm>
<rpm>0.00</rpm>
</extensions>
</trkpt>
<trkpt lat="63.808761597" lon="-19.277185440">
<ele>552.000000</ele>
<time>2012-07-26T12:34:14Z</time>
<speed>0.450000</speed>
<extensions>
<speed>0.5</speed>
<temp>0.00</temp>
<bpm>0</bpm>
<rpm>0.00</rpm>
</extensions>
</trkpt>
<trkpt lat="63.808723450" lon="-19.277162552">
<ele>547.921875</ele>
<time>2012-07-26T12:34:19Z</time>
<speed>1.020000</speed>
<extensions>
<speed>1.0</speed>
<temp>0.00</temp>
<bpm>0</bpm>
<rpm>0.00</rpm>
</extensions>
</trkpt>
<trkpt lat="63.808685303" lon="-19.277069092">
<ele>546.515625</ele>
<time>2012-07-26T12:34:24Z</time>
<speed>1.580000</speed>
<extensions>
<speed>1.6</speed>
<temp>0.00</temp>
<bpm>0</bpm>
<rpm>0.00</rpm>
</extensions>
</trkpt>
<trkpt lat="63.808647156" lon="-19.277032852">
<ele>546.343750</ele>
<time>2012-07-26T12:34:29Z</time>
<speed>1.160000</speed>
<extensions>
<speed>1.2</speed>
<temp>0.00</temp>
<bpm>0</bpm>
<rpm>0.00</rpm>
</extensions>
</trkpt>
<trkpt lat="63.808620453" lon="-19.277013779">
<ele>544.468750</ele>
<time>2012-07-26T12:34:34Z</time>
<speed>0.510000</speed>
<extensions>
<speed>0.5</speed>
<temp>0.00</temp>
<bpm>0</bpm>
<rpm>0.00</rpm>
</extensions>
</trkpt>
<trkpt lat="63.808589935" lon="-19.277029037">
<ele>544.359375</ele>
<time>2012-07-26T12:34:39Z</time>
<speed>1.290000</speed>
<extensions>
<speed>1.3</speed>
<temp>0.00</temp>
<bpm>0</bpm>
<rpm>0.00</rpm>
</extensions>
</trkpt>
<trkpt lat="63.808559418" lon="-19.277067184">
<ele>544.671875</ele>
<time>2012-07-26T12:34:44Z</time>
<speed>0.390000</speed>
<extensions>
<speed>0.4</speed>
<temp>0.00</temp>
<bpm>0</bpm>
<rpm>0.00</rpm>
</extensions>
</trkpt>
<trkpt lat="63.808525085" lon="-19.277070999">
<ele>543.640625</ele>
<time>2012-07-26T12:34:49Z</time>
<speed>0.860000</speed>
<extensions>
<speed>0.9</speed>
<temp>0.00</temp>
<bpm>0</bpm>
<rpm>0.00</rpm>
</extensions>
</trkpt>
<trkpt lat="63.808483124" lon="-19.277070999">
<ele>543.281250</ele>
<time>2012-07-26T12:34:54Z</time>
<speed>0.700000</speed>
<extensions>
<speed>0.7</speed>
<temp>0.00</temp>
<bpm>0</bpm>
<rpm>0.00</rpm>
</extensions>
</trkpt>
<trkpt lat="63.808433533" lon="-19.277000427">
<ele>543.218750</ele>
<time>2012-07-26T12:34:59Z</time>
<speed>1.050000</speed>
<extensions>
<speed>1.0</speed>
<temp>0.00</temp>
<bpm>0</bpm>
<rpm>0.00</rpm>
</extensions>
</trkpt>
<trkpt lat="63.808391571" lon="-19.276926041">
<ele>540.421875</ele>
<time>2012-07-26T12:35:04Z</time>
<speed>1.110000</speed>
<extensions>
<speed>1.1</speed>
<temp>0.00</temp>
<bpm>0</bpm>
<rpm>0.00</rpm>
</extensions>
</trkpt>
<trkpt lat="63.808364868" lon="-19.276884079">
<ele>537.968750</ele>
<time>2012-07-26T12:35:09Z</time>
<speed>0.570000</speed>
<extensions>
<speed>0.6</speed>
<temp>0.00</temp>
<bpm>0</bpm>
<rpm>0.00</rpm>
</extensions>
</trkpt>
<trkpt lat="63.808296204" lon="-19.276809692">
<ele>537.015625</ele>
<time>2012-07-26T12:35:14Z</time>
<speed>2.140000</speed>
<extensions>
<speed>2.1</speed>
<temp>0.00</temp>
<bpm>0</bpm>
<rpm>0.00</rpm>
</extensions>
</trkpt>
<trkpt lat="63.808181763" lon="-19.276706696">
<ele>536.640625</ele>
<time>2012-07-26T12:35:19Z</time>
<speed>2.920000</speed>
<extensions>
<speed>2.9</speed>
<temp>0.00</temp>
<bpm>0</bpm>
<rpm>0.00</rpm>
</extensions>
</trkpt>
<trkpt lat="63.808044434" lon="-19.276576996">
<ele>536.109375</ele>
<time>2012-07-26T12:35:24Z</time>
<speed>3.350000</speed>
<extensions>
<speed>3.4</speed>
<temp>0.00</temp>
<bpm>0</bpm>
<rpm>0.00</rpm>
</extensions>
</trkpt>
<trkpt lat="63.807907104" lon="-19.276483536">
<ele>536.093750</ele>
<time>2012-07-26T12:35:29Z</time>
<speed>3.060000</speed>
<extensions>
<speed>3.1</speed>
<temp>0.00</temp>
<bpm>0</bpm>
<rpm>0.00</rpm>
</extensions>
</trkpt>
<trkpt lat="63.807765961" lon="-19.276399612">
<ele>534.687500</ele>
<time>2012-07-26T12:35:34Z</time>
<speed>3.240000</speed>
<extensions>
<speed>3.2</speed>
<temp>0.00</temp>
<bpm>0</bpm>
<rpm>0.00</rpm>
</extensions>
</trkpt>
<trkpt lat="63.807598114" lon="-19.276329041">
<ele>533.421875</ele>
<time>2012-07-26T12:35:39Z</time>
<speed>3.460000</speed>
<extensions>
<speed>3.5</speed>
<temp>0.00</temp>
<bpm>0</bpm>
<rpm>0.00</rpm>
</extensions>
</trkpt>
<trkpt lat="63.807453156" lon="-19.276258469">
<ele>533.296875</ele>
<time>2012-07-26T12:35:44Z</time>
<speed>2.970000</speed>
<extensions>
<speed>3.0</speed>
<temp>0.00</temp>
<bpm>0</bpm>
<rpm>0.00</rpm>
</extensions>
</trkpt>
<trkpt lat="63.807319641" lon="-19.276193619">
<ele>531.234375</ele>
<time>2012-07-26T12:35:49Z</time>
<speed>2.650000</speed>
<extensions>
<speed>2.6</speed>
<temp>0.00</temp>
<bpm>0</bpm>
<rpm>0.00</rpm>
</extensions>
</trkpt>
<trkpt lat="63.807197571" lon="-19.276151657">
<ele>530.531250</ele>
<time>2012-07-26T12:35:54Z</time>
<speed>3.480000</speed>
<extensions>
<speed>3.5</speed>
<temp>0.00</temp>
<bpm>0</bpm>
<rpm>0.00</rpm>
</extensions>
</trkpt>
<trkpt lat="63.807037354" lon="-19.276058197">
<ele>531.593750</ele>
<time>2012-07-26T12:35:59Z</time>
<speed>3.650000</speed>
<extensions>
<speed>3.7</speed>
<temp>0.00</temp>
<bpm>0</bpm>
<rpm>0.00</rpm>
</extensions>
</trkpt>
<trkpt lat="63.806884766" lon="-19.275962830">
<ele>532.500000</ele>
<time>2012-07-26T12:36:04Z</time>
<speed>3.200000</speed>
<extensions>
<speed>3.2</speed>
<temp>0.00</temp>
<bpm>0</bpm>
<rpm>0.00</rpm>
</extensions>
</trkpt>
<trkpt lat="63.806758881" lon="-19.275838852">
<ele>533.968750</ele>
<time>2012-07-26T12:36:09Z</time>
<speed>2.620000</speed>
<extensions>
<speed>2.6</speed>
<temp>0.00</temp>
<bpm>0</bpm>
<rpm>0.00</rpm>
</extensions>
</trkpt>
<trkpt lat="63.806663513" lon="-19.275691986">
<ele>535.718750</ele>
<time>2012-07-26T12:36:14Z</time>
<speed>2.340000</speed>
<extensions>
<speed>2.3</speed>
<temp>0.00</temp>
<bpm>0</bpm>
<rpm>0.00</rpm>
</extensions>
</trkpt>
<trkpt lat="63.806587219" lon="-19.275522232">
<ele>535.734375</ele>
<time>2012-07-26T12:36:19Z</time>
<speed>2.150000</speed>
<extensions>
<speed>2.1</speed>
<temp>0.00</temp>
<bpm>0</bpm>
<rpm>0.00</rpm>
</extensions>
</trkpt>
<trkpt lat="63.806518555" lon="-19.275403976">
<ele>535.718750</ele>
<time>2012-07-26T12:36:24Z</time>
<speed>1.550000</speed>
<extensions>
<speed>1.5</speed>
<temp>0.00</temp>
<bpm>0</bpm>
<rpm>0.00</rpm>
</extensions>
</trkpt>
<trkpt lat="63.806476593" lon="-19.275251389">
<ele>535.281250</ele>
<time>2012-07-26T12:36:29Z</time>
<speed>1.870000</speed>
<extensions>
<speed>1.9</speed>
<temp>0.00</temp>
<bpm>0</bpm>
<rpm>0.00</rpm>
</extensions>
</trkpt>
<trkpt lat="63.806438446" lon="-19.275110245">
<ele>535.250000</ele>
<time>2012-07-26T12:36:34Z</time>
<speed>1.360000</speed>
<extensions>
<speed>1.4</speed>
<temp>0.00</temp>
<bpm>0</bpm>
<rpm>0.00</rpm>
</extensions>
</trkpt>
<trkpt lat="63.806385040" lon="-19.275201797">
<ele>535.218750</ele>
<time>2012-07-26T12:36:39Z</time>
<speed>3.380000</speed>
<extensions>
<speed>3.4</speed>
<temp>0.00</temp>
<bpm>0</bpm>
<rpm>0.00</rpm>
</extensions>
</trkpt>
<trkpt lat="63.806320190" lon="-19.275388718">
<ele>535.421875</ele>
<time>2012-07-26T12:36:44Z</time>
<speed>2.580000</speed>
<extensions>
<speed>2.6</speed>
<temp>0.00</temp>
<bpm>0</bpm>
<rpm>0.00</rpm>
</extensions>
</trkpt>
<trkpt lat="63.806293488" lon="-19.275604248">
<ele>536.078125</ele>
<time>2012-07-26T12:36:49Z</time>
<speed>2.020000</speed>
<extensions>
<speed>2.0</speed>
<temp>0.00</temp>
<bpm>0</bpm>
<rpm>0.00</rpm>
</extensions>
</trkpt>
<trkpt lat="63.806251526" lon="-19.275775909">
<ele>536.750000</ele>
<time>2012-07-26T12:36:54Z</time>
<speed>1.690000</speed>
<extensions>
<speed>1.7</speed>
<temp>0.00</temp>
<bpm>0</bpm>
<rpm>0.00</rpm>
</extensions>
</trkpt>
<trkpt lat="63.806213379" lon="-19.275909424">
<ele>536.531250</ele>
<time>2012-07-26T12:36:59Z</time>
<speed>1.750000</speed>
<extensions>
<speed>1.8</speed>
<temp>0.00</temp>
<bpm>0</bpm>
<rpm>0.00</rpm>
</extensions>
</trkpt>
<trkpt lat="63.806190491" lon="-19.276117325">
<ele>538.046875</ele>
<time>2012-07-26T12:37:04Z</time>
<speed>2.230000</speed>
<extensions>
<speed>2.2</speed>
<temp>0.00</temp>
<bpm>0</bpm>
<rpm>0.00</rpm>
</extensions>
</trkpt>
<trkpt lat="63.806163788" lon="-19.276344299">
<ele>537.531250</ele>
<time>2012-07-26T12:37:09Z</time>
<speed>2.090000</speed>
<extensions>
<speed>2.1</speed>
<temp>0.00</temp>
<bpm>0</bpm>
<rpm>0.00</rpm>
</extensions>
</trkpt>
<trkpt lat="63.806144714" lon="-19.276515961">
<ele>538.421875</ele>
<time>2012-07-26T12:37:14Z</time>
<speed>1.890000</speed>
<extensions>
<speed>1.9</speed>
<temp>0.00</temp>
<bpm>0</bpm>
<rpm>0.00</rpm>
</extensions>
</trkpt>
<trkpt lat="63.806087494" lon="-19.276708603">
<ele>539.375000</ele>
<time>2012-07-26T12:37:19Z</time>
<speed>2.570000</speed>
<extensions>
<speed>2.6</speed>
<temp>0.00</temp>
<bpm>0</bpm>
<rpm>0.00</rpm>
</extensions>
</trkpt>
<trkpt lat="63.806060791" lon="-19.276865005">
<ele>539.171875</ele>
<time>2012-07-26T12:37:24Z</time>
<speed>0.440000</speed>
<extensions>
<speed>0.4</speed>
<temp>0.00</temp>
<bpm>0</bpm>
<rpm>0.00</rpm>
</extensions>
</trkpt>
<trkpt lat="63.806072235" lon="-19.276878357">
<ele>540.109375</ele>
<time>2012-07-26T12:37:29Z</time>
<speed>0.070000</speed>
<extensions>
<speed>0.1</speed>
<temp>0.00</temp>
<bpm>0</bpm>
<rpm>0.00</rpm>
</extensions>
</trkpt>
<trkpt lat="63.806068420" lon="-19.276891708">
<ele>540.171875</ele>
<time>2012-07-26T12:37:34Z</time>
<speed>0.220000</speed>
<extensions>
<speed>0.2</speed>
<temp>0.00</temp>
<bpm>0</bpm>
<rpm>0.00</rpm>
</extensions>
</trkpt>
<trkpt lat="63.806064606" lon="-19.276920319">
<ele>540.156250</ele>
<time>2012-07-26T12:37:39Z</time>
<speed>0.340000</speed>
<extensions>
<speed>0.3</speed>
<temp>0.00</temp>
<bpm>0</bpm>
<rpm>0.00</rpm>
</extensions>
</trkpt>
<trkpt lat="63.806060791" lon="-19.276950836">
<ele>540.093750</ele>
<time>2012-07-26T12:37:44Z</time>
<speed>0.290000</speed>
<extensions>
<speed>0.3</speed>
<temp>0.00</temp>
<bpm>0</bpm>
<rpm>0.00</rpm>
</extensions>
</trkpt>
<trkpt lat="63.806053162" lon="-19.276969910">
<ele>540.078125</ele>
<time>2012-07-26T12:37:49Z</time>
<speed>0.180000</speed>
<extensions>
<speed>0.2</speed>
<temp>0.00</temp>
<bpm>0</bpm>
<rpm>0.00</rpm>
</extensions>
</trkpt>
<trkpt lat="63.806049347" lon="-19.276968002">
<ele>540.093750</ele>
<time>2012-07-26T12:37:54Z</time>
<speed>0.220000</speed>
<extensions>
<speed>0.2</speed>
<temp>0.00</temp>
<bpm>0</bpm>
<rpm>0.00</rpm>
</extensions>
</trkpt>
<trkpt lat="63.806049347" lon="-19.276971817">
<ele>540.140625</ele>
<time>2012-07-26T12:37:59Z</time>
<speed>1.050000</speed>
<extensions>
<speed>1.0</speed>
<temp>0.00</temp>
<bpm>0</bpm>
<rpm>0.00</rpm>
</extensions>
</trkpt>
<trkpt lat="63.806045532" lon="-19.277057648">
<ele>540.031250</ele>
<time>2012-07-26T12:38:04Z</time>
<speed>0.850000</speed>
<extensions>
<speed>0.8</speed>
<temp>0.00</temp>
<bpm>0</bpm>
<rpm>0.00</rpm>
</extensions>
</trkpt>
<trkpt lat="63.806030273" lon="-19.277156830">
<ele>539.656250</ele>
<time>2012-07-26T12:38:09Z</time>
<speed>0.760000</speed>
<extensions>
<speed>0.8</speed>
<temp>0.00</temp>
<bpm>0</bpm>
<rpm>0.00</rpm>
</extensions>
</trkpt>
<trkpt lat="63.806034088" lon="-19.277246475">
<ele>539.390625</ele>
<time>2012-07-26T12:38:14Z</time>
<speed>0.810000</speed>
<extensions>
<speed>0.8</speed>
<temp>0.00</temp>
<bpm>0</bpm>
<rpm>0.00</rpm>
</extensions>
</trkpt>
<trkpt lat="63.806022644" lon="-19.277311325">
<ele>538.890625</ele>
<time>2012-07-26T12:38:19Z</time>
<speed>0.750000</speed>
<extensions>
<speed>0.8</speed>
<temp>0.00</temp>
<bpm>0</bpm>
<rpm>0.00</rpm>
</extensions>
</trkpt>
<trkpt lat="63.805999756" lon="-19.277366638">
<ele>538.312500</ele>
<time>2012-07-26T12:38:24Z</time>
<speed>0.830000</speed>
<extensions>
<speed>0.8</speed>
<temp>0.00</temp>
<bpm>0</bpm>
<rpm>0.00</rpm>
</extensions>
</trkpt>
<trkpt lat="63.805988312" lon="-19.277397156">
<ele>537.062500</ele>
<time>2012-07-26T12:38:29Z</time>
<speed>0.240000</speed>
<extensions>
<speed>0.2</speed>
<temp>0.00</temp>
<bpm>0</bpm>
<rpm>0.00</rpm>
</extensions>
</trkpt>
<trkpt lat="63.805984497" lon="-19.277379990">
<ele>536.812500</ele>
<time>2012-07-26T12:38:34Z</time>
<speed>0.150000</speed>
<extensions>
<speed>0.2</speed>
<temp>0.00</temp>
<bpm>0</bpm>
<rpm>0.00</rpm>
</extensions>
</trkpt>
<trkpt lat="63.805976868" lon="-19.277360916">
<ele>536.359375</ele>
<time>2012-07-26T12:38:39Z</time>
<speed>0.340000</speed>
<extensions>
<speed>0.3</speed>
<temp>0.00</temp>
<bpm>0</bpm>
<rpm>0.00</rpm>
</extensions>
</trkpt>
<trkpt lat="63.805957794" lon="-19.277366638">
<ele>536.484375</ele>
<time>2012-07-26T12:38:44Z</time>
<speed>0.470000</speed>
<extensions>
<speed>0.5</speed>
<temp>0.00</temp>
<bpm>0</bpm>
<rpm>0.00</rpm>
</extensions>
</trkpt>
<trkpt lat="63.805927277" lon="-19.277389526">
<ele>536.703125</ele>
<time>2012-07-26T12:38:49Z</time>
<speed>0.740000</speed>
<extensions>
<speed>0.7</speed>
<temp>0.00</temp>
<bpm>0</bpm>
<rpm>0.00</rpm>
</extensions>
</trkpt>
<trkpt lat="63.805927277" lon="-19.277433395">
<ele>536.968750</ele>
<time>2012-07-26T12:38:54Z</time>
<speed>0.570000</speed>
<extensions>
<speed>0.6</speed>
<temp>0.00</temp>
<bpm>0</bpm>
<rpm>0.00</rpm>
</extensions>
</trkpt>
<trkpt lat="63.805923462" lon="-19.277481079">
<ele>537.015625</ele>
<time>2012-07-26T12:38:59Z</time>
<speed>0.650000</speed>
<extensions>
<speed>0.6</speed>
<temp>0.00</temp>
<bpm>0</bpm>
<rpm>0.00</rpm>
</extensions>
</trkpt>
<trkpt lat="63.805908203" lon="-19.277528763">
<ele>537.062500</ele>
<time>2012-07-26T12:39:04Z</time>
<speed>0.610000</speed>
<extensions>
<speed>0.6</speed>
<temp>0.00</temp>
<bpm>0</bpm>
<rpm>0.00</rpm>
</extensions>
</trkpt>
<trkpt lat="63.805915833" lon="-19.277566910">
<ele>537.218750</ele>
<time>2012-07-26T12:39:09Z</time>
<speed>0.420000</speed>
<extensions>
<speed>0.4</speed>
<temp>0.00</temp>
<bpm>0</bpm>
<rpm>0.00</rpm>
</extensions>
</trkpt>
<trkpt lat="63.805915833" lon="-19.277528763">
<ele>537.093750</ele>
<time>2012-07-26T12:39:14Z</time>
<speed>0.270000</speed>
<extensions>
<speed>0.3</speed>
<temp>0.00</temp>
<bpm>0</bpm>
<rpm>0.00</rpm>
</extensions>
</trkpt>
<trkpt lat="63.805892944" lon="-19.277599335">
<ele>536.828125</ele>
<time>2012-07-26T12:39:19Z</time>
<speed>0.050000</speed>
<extensions>
<speed>0.1</speed>
<temp>0.00</temp>
<bpm>0</bpm>
<rpm>0.00</rpm>
</extensions>
</trkpt>
<trkpt lat="63.805896759" lon="-19.277597427">
<ele>536.718750</ele>
<time>2012-07-26T12:39:24Z</time>
<speed>0.040000</speed>
<extensions>
<speed>0.0</speed>
<temp>0.00</temp>
<bpm>0</bpm>
<rpm>0.00</rpm>
</extensions>
</trkpt>
<trkpt lat="63.805892944" lon="-19.277669907">
<ele>536.718750</ele>
<time>2012-07-26T12:39:29Z</time>
<speed>1.040000</speed>
<extensions>
<speed>1.0</speed>
<temp>0.00</temp>
<bpm>0</bpm>
<rpm>0.00</rpm>
</extensions>
</trkpt>
<trkpt lat="63.805877686" lon="-19.277742386">
<ele>536.875000</ele>
<time>2012-07-26T12:39:34Z</time>
<speed>0.970000</speed>
<extensions>
<speed>1.0</speed>
<temp>0.00</temp>
<bpm>0</bpm>
<rpm>0.00</rpm>
</extensions>
</trkpt>
<trkpt lat="63.805854797" lon="-19.277814865">
<ele>536.984375</ele>
<time>2012-07-26T12:39:39Z</time>
<speed>0.960000</speed>
<extensions>
<speed>1.0</speed>
<temp>0.00</temp>
<bpm>0</bpm>
<rpm>0.00</rpm>
</extensions>
</trkpt>
<trkpt lat="63.805847168" lon="-19.277921677">
<ele>537.343750</ele>
<time>2012-07-26T12:39:44Z</time>
<speed>0.940000</speed>
<extensions>
<speed>0.9</speed>
<temp>0.00</temp>
<bpm>0</bpm>
<rpm>0.00</rpm>
</extensions>
</trkpt>
<trkpt lat="63.805801392" lon="-19.278005600">
<ele>537.765625</ele>
<time>2012-07-26T12:39:49Z</time>
<speed>1.060000</speed>
<extensions>
<speed>1.1</speed>
<temp>0.00</temp>
<bpm>0</bpm>
<rpm>0.00</rpm>
</extensions>
</trkpt>
<trkpt lat="63.805774689" lon="-19.278022766">
<ele>538.187500</ele>
<time>2012-07-26T12:39:54Z</time>
<speed>0.690000</speed>
<extensions>
<speed>0.7</speed>
<temp>0.00</temp>
<bpm>0</bpm>
<rpm>0.00</rpm>
</extensions>
</trkpt>
<trkpt lat="63.805747986" lon="-19.278079987">
<ele>538.578125</ele>
<time>2012-07-26T12:39:59Z</time>
<speed>0.740000</speed>
<extensions>
<speed>0.7</speed>
<temp>0.00</temp>
<bpm>0</bpm>
<rpm>0.00</rpm>
</extensions>
</trkpt>
<trkpt lat="63.805732727" lon="-19.278079987">
<ele>539.171875</ele>
<time>2012-07-26T12:40:04Z</time>
<speed>0.200000</speed>
<extensions>
<speed>0.2</speed>
<temp>0.00</temp>
<bpm>0</bpm>
<rpm>0.00</rpm>
</extensions>
</trkpt>
<trkpt lat="63.805740356" lon="-19.278083801">
<ele>539.578125</ele>
<time>2012-07-26T12:40:09Z</time>
<speed>0.200000</speed>
<extensions>
<speed>0.2</speed>
<temp>0.00</temp>
<bpm>0</bpm>
<rpm>0.00</rpm>
</extensions>
</trkpt>
<trkpt lat="63.805747986" lon="-19.278083801">
<ele>539.984375</ele>
<time>2012-07-26T12:40:14Z</time>
<speed>0.110000</speed>
<extensions>
<speed>0.1</speed>
<temp>0.00</temp>
<bpm>0</bpm>
<rpm>0.00</rpm>
</extensions>
</trkpt>
<trkpt lat="63.805751801" lon="-19.278085709">
<ele>540.390625</ele>
<time>2012-07-26T12:40:19Z</time>
<speed>0.070000</speed>
<extensions>
<speed>0.1</speed>
<temp>0.00</temp>
<bpm>0</bpm>
<rpm>0.00</rpm>
</extensions>
</trkpt>
<trkpt lat="63.805751801" lon="-19.278078079">
<ele>540.812500</ele>
<time>2012-07-26T12:40:24Z</time>
<speed>0.050000</speed>
<extensions>
<speed>0.1</speed>
<temp>0.00</temp>
<bpm>0</bpm>
<rpm>0.00</rpm>
</extensions>
</trkpt>
<trkpt lat="63.805751801" lon="-19.278072357">
<ele>541.218750</ele>
<time>2012-07-26T12:40:29Z</time>
<speed>0.070000</speed>
<extensions>
<speed>0.1</speed>
<temp>0.00</temp>
<bpm>0</bpm>
<rpm>0.00</rpm>
</extensions>
</trkpt>
<trkpt lat="63.805747986" lon="-19.278072357">
<ele>541.609375</ele>
<time>2012-07-26T12:40:34Z</time>
<speed>0.190000</speed>
<extensions>
<speed>0.2</speed>
<temp>0.00</temp>
<bpm>0</bpm>
<rpm>0.00</rpm>
</extensions>
</trkpt>
<trkpt lat="63.805744171" lon="-19.278060913">
<ele>542.000000</ele>
<time>2012-07-26T12:40:39Z</time>
<speed>0.150000</speed>
<extensions>
<speed>0.2</speed>
<temp>0.00</temp>
<bpm>0</bpm>
<rpm>0.00</rpm>
</extensions>
</trkpt>
<trkpt lat="63.805728912" lon="-19.278053284">
<ele>541.937500</ele>
<time>2012-07-26T12:40:44Z</time>
<speed>0.370000</speed>
<extensions>
<speed>0.4</speed>
<temp>0.00</temp>
<bpm>0</bpm>
<rpm>0.00</rpm>
</extensions>
</trkpt>
<trkpt lat="63.805728912" lon="-19.278013229">
<ele>541.437500</ele>
<time>2012-07-26T12:40:49Z</time>
<speed>0.030000</speed>
<extensions>
<speed>0.0</speed>
<temp>0.00</temp>
<bpm>0</bpm>
<rpm>0.00</rpm>
</extensions>
</trkpt>
<trkpt lat="63.805725098" lon="-19.278017044">
<ele>541.125000</ele>
<time>2012-07-26T12:40:54Z</time>
<speed>0.030000</speed>
<extensions>
<speed>0.0</speed>
<temp>0.00</temp>
<bpm>0</bpm>
<rpm>0.00</rpm>
</extensions>
</trkpt>
<trkpt lat="63.805725098" lon="-19.278020859">
<ele>541.109375</ele>
<time>2012-07-26T12:40:59Z</time>
<speed>0.300000</speed>
<extensions>
<speed>0.3</speed>
<temp>0.00</temp>
<bpm>0</bpm>
<rpm>0.00</rpm>
</extensions>
</trkpt>
<trkpt lat="63.805747986" lon="-19.278062820">
<ele>541.187500</ele>
<time>2012-07-26T12:41:04Z</time>
<speed>0.450000</speed>
<extensions>
<speed>0.5</speed>
<temp>0.00</temp>
<bpm>0</bpm>
<rpm>0.00</rpm>
</extensions>
</trkpt>
<trkpt lat="63.805728912" lon="-19.278051376">
<ele>541.046875</ele>
<time>2012-07-26T12:41:09Z</time>
<speed>0.330000</speed>
<extensions>
<speed>0.3</speed>
<temp>0.00</temp>
<bpm>0</bpm>
<rpm>0.00</rpm>
</extensions>
</trkpt>
<trkpt lat="63.805740356" lon="-19.278039932">
<ele>540.656250</ele>
<time>2012-07-26T12:41:14Z</time>
<speed>0.200000</speed>
<extensions>
<speed>0.2</speed>
<temp>0.00</temp>
<bpm>0</bpm>
<rpm>0.00</rpm>
</extensions>
</trkpt>
<trkpt lat="63.805736542" lon="-19.278030396">
<ele>540.562500</ele>
<time>2012-07-26T12:41:19Z</time>
<speed>0.150000</speed>
<extensions>
<speed>0.2</speed>
<temp>0.00</temp>
<bpm>0</bpm>
<rpm>0.00</rpm>
</extensions>
</trkpt>
<trkpt lat="63.805683136" lon="-19.278091431">
<ele>540.500000</ele>
<time>2012-07-26T12:41:24Z</time>
<speed>1.720000</speed>
<extensions>
<speed>1.7</speed>
<temp>0.00</temp>
<bpm>0</bpm>
<rpm>0.00</rpm>
</extensions>
</trkpt>
<trkpt lat="63.805591583" lon="-19.278263092">
<ele>539.875000</ele>
<time>2012-07-26T12:41:29Z</time>
<speed>2.600000</speed>
<extensions>
<speed>2.6</speed>
<temp>0.00</temp>
<bpm>0</bpm>
<rpm>0.00</rpm>
</extensions>
</trkpt>
<trkpt lat="63.805496216" lon="-19.278415680">
<ele>539.484375</ele>
<time>2012-07-26T12:41:34Z</time>
<speed>2.550000</speed>
<extensions>
<speed>2.6</speed>
<temp>0.00</temp>
<bpm>0</bpm>
<rpm>0.00</rpm>
</extensions>
</trkpt>
<trkpt lat="63.805423737" lon="-19.278528214">
<ele>539.109375</ele>
<time>2012-07-26T12:41:39Z</time>
<speed>1.680000</speed>
<extensions>
<speed>1.7</speed>
<temp>0.00</temp>
<bpm>0</bpm>
<rpm>0.00</rpm>
</extensions>
</trkpt>
<trkpt lat="63.805351257" lon="-19.278636932">
<ele>538.531250</ele>
<time>2012-07-26T12:41:44Z</time>
<speed>1.950000</speed>
<extensions>
<speed>1.9</speed>
<temp>0.00</temp>
<bpm>0</bpm>
<rpm>0.00</rpm>
</extensions>
</trkpt>
<trkpt lat="63.805244446" lon="-19.278751373">
<ele>537.843750</ele>
<time>2012-07-26T12:41:49Z</time>
<speed>2.640000</speed>
<extensions>
<speed>2.6</speed>
<temp>0.00</temp>
<bpm>0</bpm>
<rpm>0.00</rpm>
</extensions>
</trkpt>
<trkpt lat="63.805171967" lon="-19.278793335">
<ele>537.328125</ele>
<time>2012-07-26T12:41:54Z</time>
<speed>1.350000</speed>
<extensions>
<speed>1.4</speed>
<temp>0.00</temp>
<bpm>0</bpm>
<rpm>0.00</rpm>
</extensions>
</trkpt>
<trkpt lat="63.805091858" lon="-19.278841019">
<ele>537.515625</ele>
<time>2012-07-26T12:41:59Z</time>
<speed>1.980000</speed>
<extensions>
<speed>2.0</speed>
<temp>0.00</temp>
<bpm>0</bpm>
<rpm>0.00</rpm>
</extensions>
</trkpt>
<trkpt lat="63.804996490" lon="-19.278917313">
<ele>537.328125</ele>
<time>2012-07-26T12:42:04Z</time>
<speed>2.170000</speed>
<extensions>
<speed>2.2</speed>
<temp>0.00</temp>
<bpm>0</bpm>
<rpm>0.00</rpm>
</extensions>
</trkpt>
<trkpt lat="63.804904938" lon="-19.279031754">
<ele>537.281250</ele>
<time>2012-07-26T12:42:09Z</time>
<speed>2.600000</speed>
<extensions>
<speed>2.6</speed>
<temp>0.00</temp>
<bpm>0</bpm>
<rpm>0.00</rpm>
</extensions>
</trkpt>
<trkpt lat="63.804801941" lon="-19.279144287">
<ele>537.687500</ele>
<time>2012-07-26T12:42:14Z</time>
<speed>2.890000</speed>
<extensions>
<speed>2.9</speed>
<temp>0.00</temp>
<bpm>0</bpm>
<rpm>0.00</rpm>
</extensions>
</trkpt>
<trkpt lat="63.804676056" lon="-19.279321671">
<ele>537.843750</ele>
<time>2012-07-26T12:42:19Z</time>
<speed>3.340000</speed>
<extensions>
<speed>3.3</speed>
<temp>0.00</temp>
<bpm>0</bpm>
<rpm>0.00</rpm>
</extensions>
</trkpt>
<trkpt lat="63.804553986" lon="-19.279544830">
<ele>538.265625</ele>
<time>2012-07-26T12:42:24Z</time>
<speed>3.490000</speed>
<extensions>
<speed>3.5</speed>
<temp>0.00</temp>
<bpm>0</bpm>
<rpm>0.00</rpm>
</extensions>
</trkpt>
<trkpt lat="63.804431915" lon="-19.279800415">
<ele>538.562500</ele>
<time>2012-07-26T12:42:29Z</time>
<speed>3.730000</speed>
<extensions>
<speed>3.7</speed>
<temp>0.00</temp>
<bpm>0</bpm>
<rpm>0.00</rpm>
</extensions>
</trkpt>
<trkpt lat="63.804271698" lon="-19.280094147">
<ele>539.171875</ele>
<time>2012-07-26T12:42:34Z</time>
<speed>4.410000</speed>
<extensions>
<speed>4.4</speed>
<temp>0.00</temp>
<bpm>0</bpm>
<rpm>0.00</rpm>
</extensions>
</trkpt>
<trkpt lat="63.804183960" lon="-19.280334473">
<ele>540.203125</ele>
<time>2012-07-26T12:42:39Z</time>
<speed>1.760000</speed>
<extensions>
<speed>1.8</speed>
<temp>0.00</temp>
<bpm>0</bpm>
<rpm>0.00</rpm>
</extensions>
</trkpt>
<trkpt lat="63.804149628" lon="-19.280487061">
<ele>540.046875</ele>
<time>2012-07-26T12:42:44Z</time>
<speed>1.470000</speed>
<extensions>
<speed>1.5</speed>
<temp>0.00</temp>
<bpm>0</bpm>
<rpm>0.00</rpm>
</extensions>
</trkpt>
<trkpt lat="63.804107666" lon="-19.280620575">
<ele>539.421875</ele>
<time>2012-07-26T12:42:49Z</time>
<speed>0.750000</speed>
<extensions>
<speed>0.8</speed>
<temp>0.00</temp>
<bpm>0</bpm>
<rpm>0.00</rpm>
</extensions>
</trkpt>
<trkpt lat="63.804084778" lon="-19.280723572">
<ele>542.062500</ele>
<time>2012-07-26T12:42:54Z</time>
<speed>1.190000</speed>
<extensions>
<speed>1.2</speed>
<temp>0.00</temp>
<bpm>0</bpm>
<rpm>0.00</rpm>
</extensions>
</trkpt>
<trkpt lat="63.804012299" lon="-19.280788422">
<ele>543.515625</ele>
<time>2012-07-26T12:42:59Z</time>
<speed>1.930000</speed>
<extensions>
<speed>1.9</speed>
<temp>0.00</temp>
<bpm>0</bpm>
<rpm>0.00</rpm>
</extensions>
</trkpt>
<trkpt lat="63.803924561" lon="-19.280887604">
<ele>544.921875</ele>
<time>2012-07-26T12:43:04Z</time>
<speed>1.210000</speed>
<extensions>
<speed>1.2</speed>
<temp>0.00</temp>
<bpm>0</bpm>
<rpm>0.00</rpm>
</extensions>
</trkpt>
<trkpt lat="63.803840637" lon="-19.280961990">
<ele>544.718750</ele>
<time>2012-07-26T12:43:09Z</time>
<speed>1.880000</speed>
<extensions>
<speed>1.9</speed>
<temp>0.00</temp>
<bpm>0</bpm>
<rpm>0.00</rpm>
</extensions>
</trkpt>
<trkpt lat="63.803779602" lon="-19.281089783">
<ele>545.328125</ele>
<time>2012-07-26T12:43:14Z</time>
<speed>2.100000</speed>
<extensions>
<speed>2.1</speed>
<temp>0.00</temp>
<bpm>0</bpm>
<rpm>0.00</rpm>
</extensions>
</trkpt>
<trkpt lat="63.803695679" lon="-19.281250000">
<ele>546.187500</ele>
<time>2012-07-26T12:43:19Z</time>
<speed>2.030000</speed>
<extensions>
<speed>2.0</speed>
<temp>0.00</temp>
<bpm>0</bpm>
<rpm>0.00</rpm>
</extensions>
</trkpt>
<trkpt lat="63.803615570" lon="-19.281423569">
<ele>546.453125</ele>
<time>2012-07-26T12:43:24Z</time>
<speed>2.490000</speed>
<extensions>
<speed>2.5</speed>
<temp>0.00</temp>
<bpm>0</bpm>
<rpm>0.00</rpm>
</extensions>
</trkpt>
<trkpt lat="63.803535461" lon="-19.281595230">
<ele>543.281250</ele>
<time>2012-07-26T12:43:29Z</time>
<speed>1.340000</speed>
<extensions>
<speed>1.3</speed>
<temp>0.00</temp>
<bpm>0</bpm>
<rpm>0.00</rpm>
</extensions>
</trkpt>
<trkpt lat="63.803527832" lon="-19.281555176">
<ele>543.625000</ele>
<time>2012-07-26T12:43:34Z</time>
<speed>0.020000</speed>
<extensions>
<speed>0.0</speed>
<temp>0.00</temp>
<bpm>0</bpm>
<rpm>0.00</rpm>
</extensions>
</trkpt>
<trkpt lat="63.803516388" lon="-19.281574249">
<ele>543.656250</ele>
<time>2012-07-26T12:43:39Z</time>
<speed>0.130000</speed>
<extensions>
<speed>0.1</speed>
<temp>0.00</temp>
<bpm>0</bpm>
<rpm>0.00</rpm>
</extensions>
</trkpt>
<trkpt lat="63.803512573" lon="-19.281581879">
<ele>543.656250</ele>
<time>2012-07-26T12:43:44Z</time>
<speed>0.010000</speed>
<extensions>
<speed>0.0</speed>
<temp>0.00</temp>
<bpm>0</bpm>
<rpm>0.00</rpm>
</extensions>
</trkpt>
<trkpt lat="63.803516388" lon="-19.281587601">
<ele>543.656250</ele>
<time>2012-07-26T12:43:49Z</time>
<speed>0.130000</speed>
<extensions>
<speed>0.1</speed>
<temp>0.00</temp>
<bpm>0</bpm>
<rpm>0.00</rpm>
</extensions>
</trkpt>
<trkpt lat="63.803516388" lon="-19.281579971">
<ele>543.578125</ele>
<time>2012-07-26T12:43:54Z</time>
<speed>0.080000</speed>
<extensions>
<speed>0.1</speed>
<temp>0.00</temp>
<bpm>0</bpm>
<rpm>0.00</rpm>
</extensions>
</trkpt>
<trkpt lat="63.803516388" lon="-19.281574249">
<ele>543.468750</ele>
<time>2012-07-26T12:43:59Z</time>
<speed>0.070000</speed>
<extensions>
<speed>0.1</speed>
<temp>0.00</temp>
<bpm>0</bpm>
<rpm>0.00</rpm>
</extensions>
</trkpt>
<trkpt lat="63.803516388" lon="-19.281566620">
<ele>543.421875</ele>
<time>2012-07-26T12:44:04Z</time>
<speed>0.090000</speed>
<extensions>
<speed>0.1</speed>
<temp>0.00</temp>
<bpm>0</bpm>
<rpm>0.00</rpm>
</extensions>
</trkpt>
<trkpt lat="63.803516388" lon="-19.281553268">
<ele>543.437500</ele>
<time>2012-07-26T12:44:09Z</time>
<speed>0.500000</speed>
<extensions>
<speed>0.5</speed>
<temp>0.00</temp>
<bpm>0</bpm>
<rpm>0.00</rpm>
</extensions>
</trkpt>
<trkpt lat="63.803524017" lon="-19.281501770">
<ele>544.500000</ele>
<time>2012-07-26T12:44:14Z</time>
<speed>0.090000</speed>
<extensions>
<speed>0.1</speed>
<temp>0.00</temp>
<bpm>0</bpm>
<rpm>0.00</rpm>
</extensions>
</trkpt>
<trkpt lat="63.803520203" lon="-19.281497955">
<ele>544.265625</ele>
<time>2012-07-26T12:44:19Z</time>
<speed>0.180000</speed>
<extensions>
<speed>0.2</speed>
<temp>0.00</temp>
<bpm>0</bpm>
<rpm>0.00</rpm>
</extensions>
</trkpt>
<trkpt lat="63.803512573" lon="-19.281507492">
<ele>544.156250</ele>
<time>2012-07-26T12:44:24Z</time>
<speed>0.150000</speed>
<extensions>
<speed>0.2</speed>
<temp>0.00</temp>
<bpm>0</bpm>
<rpm>0.00</rpm>
</extensions>
</trkpt>
<trkpt lat="63.803508759" lon="-19.281511307">
<ele>544.109375</ele>
<time>2012-07-26T12:44:29Z</time>
<speed>0.070000</speed>
<extensions>
<speed>0.1</speed>
<temp>0.00</temp>
<bpm>0</bpm>
<rpm>0.00</rpm>
</extensions>
</trkpt>
<trkpt lat="63.803508759" lon="-19.281520844">
<ele>544.093750</ele>
<time>2012-07-26T12:44:34Z</time>
<extensions>
<speed>0.0</speed>
<temp>0.00</temp>
<bpm>0</bpm>
<rpm>0.00</rpm>
</extensions>
</trkpt>
<trkpt lat="63.803508759" lon="-19.281513214">
<ele>544.125000</ele>
<time>2012-07-26T12:44:39Z</time>
<speed>0.140000</speed>
<extensions>
<speed>0.1</speed>
<temp>0.00</temp>
<bpm>0</bpm>
<rpm>0.00</rpm>
</extensions>
</trkpt>
<trkpt lat="63.803504944" lon="-19.281509399">
<ele>544.140625</ele>
<time>2012-07-26T12:44:44Z</time>
<speed>0.040000</speed>
<extensions>
<speed>0.0</speed>
<temp>0.00</temp>
<bpm>0</bpm>
<rpm>0.00</rpm>
</extensions>
</trkpt>
<trkpt lat="63.803508759" lon="-19.281513214">
<ele>544.156250</ele>
<time>2012-07-26T12:44:49Z</time>
<speed>0.220000</speed>
<extensions>
<speed>0.2</speed>
<temp>0.00</temp>
<bpm>0</bpm>
<rpm>0.00</rpm>
</extensions>
</trkpt>
<trkpt lat="63.803520203" lon="-19.281518936">
<ele>544.171875</ele>
<time>2012-07-26T12:44:54Z</time>
<speed>0.200000</speed>
<extensions>
<speed>0.2</speed>
<temp>0.00</temp>
<bpm>0</bpm>
<rpm>0.00</rpm>
</extensions>
</trkpt>
<trkpt lat="63.803520203" lon="-19.281520844">
<ele>544.218750</ele>
<time>2012-07-26T12:44:59Z</time>
<speed>0.040000</speed>
<extensions>
<speed>0.0</speed>
<temp>0.00</temp>
<bpm>0</bpm>
<rpm>0.00</rpm>
</extensions>
</trkpt>
<trkpt lat="63.803520203" lon="-19.281517029">
<ele>544.234375</ele>
<time>2012-07-26T12:45:04Z</time>
<extensions>
<speed>0.0</speed>
<temp>0.00</temp>
<bpm>0</bpm>
<rpm>0.00</rpm>
</extensions>
</trkpt>
<trkpt lat="63.803520203" lon="-19.281520844">
<ele>544.250000</ele>
<time>2012-07-26T12:45:09Z</time>
<speed>0.100000</speed>
<extensions>
<speed>0.1</speed>
<temp>0.00</temp>
<bpm>0</bpm>
<rpm>0.00</rpm>
</extensions>
</trkpt>
<trkpt lat="63.803527832" lon="-19.281528473">
<ele>544.265625</ele>
<time>2012-07-26T12:45:14Z</time>
<speed>0.170000</speed>
<extensions>
<speed>0.2</speed>
<temp>0.00</temp>
<bpm>0</bpm>
<rpm>0.00</rpm>
</extensions>
</trkpt>
<trkpt lat="63.803535461" lon="-19.281532288">
<ele>544.281250</ele>
<time>2012-07-26T12:45:19Z</time>
<speed>0.210000</speed>
<extensions>
<speed>0.2</speed>
<temp>0.00</temp>
<bpm>0</bpm>
<rpm>0.00</rpm>
</extensions>
</trkpt>
<trkpt lat="63.803543091" lon="-19.281530380">
<ele>544.296875</ele>
<time>2012-07-26T12:45:24Z</time>
<speed>0.040000</speed>
<extensions>
<speed>0.0</speed>
<temp>0.00</temp>
<bpm>0</bpm>
<rpm>0.00</rpm>
</extensions>
</trkpt>
<trkpt lat="63.803543091" lon="-19.281528473">
<ele>544.312500</ele>
<time>2012-07-26T12:45:29Z</time>
<speed>0.250000</speed>
<extensions>
<speed>0.2</speed>
<temp>0.00</temp>
<bpm>0</bpm>
<rpm>0.00</rpm>
</extensions>
</trkpt>
<trkpt lat="63.803535461" lon="-19.281522751">
<ele>544.312500</ele>
<time>2012-07-26T12:45:34Z</time>
<speed>0.080000</speed>
<extensions>
<speed>0.1</speed>
<temp>0.00</temp>
<bpm>0</bpm>
<rpm>0.00</rpm>
</extensions>
</trkpt>
<trkpt lat="63.803535461" lon="-19.281522751">
<ele>544.296875</ele>
<time>2012-07-26T12:45:39Z</time>
<speed>0.020000</speed>
<extensions>
<speed>0.0</speed>
<temp>0.00</temp>
<bpm>0</bpm>
<rpm>0.00</rpm>
</extensions>
</trkpt>
<trkpt lat="63.803539276" lon="-19.281520844">
<ele>544.312500</ele>
<time>2012-07-26T12:45:44Z</time>
<speed>0.020000</speed>
<extensions>
<speed>0.0</speed>
<temp>0.00</temp>
<bpm>0</bpm>
<rpm>0.00</rpm>
</extensions>
</trkpt>
<trkpt lat="63.803539276" lon="-19.281522751">
<ele>544.296875</ele>
<time>2012-07-26T12:45:49Z</time>
<extensions>
<speed>0.0</speed>
<temp>0.00</temp>
<bpm>0</bpm>
<rpm>0.00</rpm>
</extensions>
</trkpt>
<trkpt lat="63.803539276" lon="-19.281522751">
<ele>544.296875</ele>
<time>2012-07-26T12:45:54Z</time>
<speed>0.020000</speed>
<extensions>
<speed>0.0</speed>
<temp>0.00</temp>
<bpm>0</bpm>
<rpm>0.00</rpm>
</extensions>
</trkpt>
<trkpt lat="63.803539276" lon="-19.281526566">
<ele>544.296875</ele>
<time>2012-07-26T12:45:59Z</time>
<speed>0.010000</speed>
<extensions>
<speed>0.0</speed>
<temp>0.00</temp>
<bpm>0</bpm>
<rpm>0.00</rpm>
</extensions>
</trkpt>
<trkpt lat="63.803539276" lon="-19.281526566">
<ele>544.281250</ele>
<time>2012-07-26T12:46:04Z</time>
<speed>0.010000</speed>
<extensions>
<speed>0.0</speed>
<temp>0.00</temp>
<bpm>0</bpm>
<rpm>0.00</rpm>
</extensions>
</trkpt>
<trkpt lat="63.803539276" lon="-19.281528473">
<ele>544.296875</ele>
<time>2012-07-26T12:46:09Z</time>
<extensions>
<speed>0.0</speed>
<temp>0.00</temp>
<bpm>0</bpm>
<rpm>0.00</rpm>
</extensions>
</trkpt>
<trkpt lat="63.803539276" lon="-19.281528473">
<ele>544.296875</ele>
<time>2012-07-26T12:46:14Z</time>
<speed>0.010000</speed>
<extensions>
<speed>0.0</speed>
<temp>0.00</temp>
<bpm>0</bpm>
<rpm>0.00</rpm>
</extensions>
</trkpt>
<trkpt lat="63.803539276" lon="-19.281528473">
<ele>544.312500</ele>
<time>2012-07-26T12:46:19Z</time>
<speed>0.010000</speed>
<extensions>
<speed>0.0</speed>
<temp>0.00</temp>
<bpm>0</bpm>
<rpm>0.00</rpm>
</extensions>
</trkpt>
<trkpt lat="63.803539276" lon="-19.281528473">
<ele>544.312500</ele>
<time>2012-07-26T12:46:24Z</time>
<speed>0.010000</speed>
<extensions>
<speed>0.0</speed>
<temp>0.00</temp>
<bpm>0</bpm>
<rpm>0.00</rpm>
</extensions>
</trkpt>
<trkpt lat="63.803539276" lon="-19.281528473">
<ele>544.359375</ele>
<time>2012-07-26T12:46:29Z</time>
<speed>0.010000</speed>
<extensions>
<speed>0.0</speed>
<temp>0.00</temp>
<bpm>0</bpm>
<rpm>0.00</rpm>
</extensions>
</trkpt>
<trkpt lat="63.803539276" lon="-19.281528473">
<ele>544.406250</ele>
<time>2012-07-26T12:46:34Z</time>
<speed>0.070000</speed>
<extensions>
<speed>0.1</speed>
<temp>0.00</temp>
<bpm>0</bpm>
<rpm>0.00</rpm>
</extensions>
</trkpt>
<trkpt lat="63.803539276" lon="-19.281528473">
<ele>544.375000</ele>
<time>2012-07-26T12:46:39Z</time>
<speed>0.180000</speed>
<extensions>
<speed>0.2</speed>
<temp>0.00</temp>
<bpm>0</bpm>
<rpm>0.00</rpm>
</extensions>
</trkpt>
<trkpt lat="63.803520203" lon="-19.281579971">
<ele>542.875000</ele>
<time>2012-07-26T12:46:44Z</time>
<speed>0.480000</speed>
<extensions>
<speed>0.5</speed>
<temp>0.00</temp>
<bpm>0</bpm>
<rpm>0.00</rpm>
</extensions>
</trkpt>
<trkpt lat="63.803478241" lon="-19.281660080">
<ele>542.625000</ele>
<time>2012-07-26T12:46:49Z</time>
<speed>0.450000</speed>
<extensions>
<speed>0.5</speed>
<temp>0.00</temp>
<bpm>0</bpm>
<rpm>0.00</rpm>
</extensions>
</trkpt>
<trkpt lat="63.803443909" lon="-19.281692505">
<ele>543.234375</ele>
<time>2012-07-26T12:46:54Z</time>
<speed>0.380000</speed>
<extensions>
<speed>0.4</speed>
<temp>0.00</temp>
<bpm>0</bpm>
<rpm>0.00</rpm>
</extensions>
</trkpt>
<trkpt lat="63.803436279" lon="-19.281705856">
<ele>543.593750</ele>
<time>2012-07-26T12:46:59Z</time>
<speed>0.160000</speed>
<extensions>
<speed>0.2</speed>
<temp>0.00</temp>
<bpm>0</bpm>
<rpm>0.00</rpm>
</extensions>
</trkpt>
<trkpt lat="63.803436279" lon="-19.281690598">
<ele>543.078125</ele>
<time>2012-07-26T12:47:04Z</time>
<speed>0.140000</speed>
<extensions>
<speed>0.1</speed>
<temp>0.00</temp>
<bpm>0</bpm>
<rpm>0.00</rpm>
</extensions>
</trkpt>
<trkpt lat="63.803440094" lon="-19.281673431">
<ele>542.781250</ele>
<time>2012-07-26T12:47:09Z</time>
<speed>0.110000</speed>
<extensions>
<speed>0.1</speed>
<temp>0.00</temp>
<bpm>0</bpm>
<rpm>0.00</rpm>
</extensions>
</trkpt>
<trkpt lat="63.803436279" lon="-19.281669617">
<ele>542.578125</ele>
<time>2012-07-26T12:47:14Z</time>
<speed>0.470000</speed>
<extensions>
<speed>0.5</speed>
<temp>0.00</temp>
<bpm>0</bpm>
<rpm>0.00</rpm>
</extensions>
</trkpt>
<trkpt lat="63.803413391" lon="-19.281805038">
<ele>542.953125</ele>
<time>2012-07-26T12:47:19Z</time>
<speed>2.260000</speed>
<extensions>
<speed>2.3</speed>
<temp>0.00</temp>
<bpm>0</bpm>
<rpm>0.00</rpm>
</extensions>
</trkpt>
<trkpt lat="63.803390503" lon="-19.282060623">
<ele>542.734375</ele>
<time>2012-07-26T12:47:24Z</time>
<speed>2.790000</speed>
<extensions>
<speed>2.8</speed>
<temp>0.00</temp>
<bpm>0</bpm>
<rpm>0.00</rpm>
</extensions>
</trkpt>
<trkpt lat="63.803375244" lon="-19.282386780">
<ele>542.828125</ele>
<time>2012-07-26T12:47:29Z</time>
<speed>2.090000</speed>
<extensions>
<speed>2.1</speed>
<temp>0.00</temp>
<bpm>0</bpm>
<rpm>0.00</rpm>
</extensions>
</trkpt>
<trkpt lat="63.803382874" lon="-19.282642365">
<ele>545.015625</ele>
<time>2012-07-26T12:47:34Z</time>
<speed>2.940000</speed>
<extensions>
<speed>2.9</speed>
<temp>0.00</temp>
<bpm>0</bpm>
<rpm>0.00</rpm>
</extensions>
</trkpt>
<trkpt lat="63.803375244" lon="-19.282972336">
<ele>544.640625</ele>
<time>2012-07-26T12:47:39Z</time>
<speed>3.600000</speed>
<extensions>
<speed>3.6</speed>
<temp>0.00</temp>
<bpm>0</bpm>
<rpm>0.00</rpm>
</extensions>
</trkpt>
<trkpt lat="63.803379059" lon="-19.283349991">
<ele>544.078125</ele>
<time>2012-07-26T12:47:44Z</time>
<speed>3.710000</speed>
<extensions>
<speed>3.7</speed>
<temp>0.00</temp>
<bpm>0</bpm>
<rpm>0.00</rpm>
</extensions>
</trkpt>
<trkpt lat="63.803371429" lon="-19.283729553">
<ele>542.828125</ele>
<time>2012-07-26T12:47:49Z</time>
<speed>3.750000</speed>
<extensions>
<speed>3.8</speed>
<temp>0.00</temp>
<bpm>0</bpm>
<rpm>0.00</rpm>
</extensions>
</trkpt>
<trkpt lat="63.803352356" lon="-19.284111023">
<ele>543.468750</ele>
<time>2012-07-26T12:47:54Z</time>
<speed>3.730000</speed>
<extensions>
<speed>3.7</speed>
<temp>0.00</temp>
<bpm>0</bpm>
<rpm>0.00</rpm>
</extensions>
</trkpt>
<trkpt lat="63.803325653" lon="-19.284551620">
<ele>542.750000</ele>
<time>2012-07-26T12:47:59Z</time>
<speed>5.080000</speed>
<extensions>
<speed>5.1</speed>
<temp>0.00</temp>
<bpm>0</bpm>
<rpm>0.00</rpm>
</extensions>
</trkpt>
<trkpt lat="63.803295135" lon="-19.285240173">
<ele>540.796875</ele>
<time>2012-07-26T12:48:04Z</time>
<speed>8.320000</speed>
<extensions>
<speed>8.3</speed>
<temp>0.00</temp>
<bpm>0</bpm>
<rpm>0.00</rpm>
</extensions>
</trkpt>
<trkpt lat="63.803310394" lon="-19.286191940">
<ele>539.437500</ele>
<time>2012-07-26T12:48:09Z</time>
<speed>9.980000</speed>
<extensions>
<speed>10.0</speed>
<temp>0.00</temp>
<bpm>0</bpm>
<rpm>0.00</rpm>
</extensions>
</trkpt>
<trkpt lat="63.803287506" lon="-19.287034988">
<ele>538.765625</ele>
<time>2012-07-26T12:48:14Z</time>
<speed>7.020000</speed>
<extensions>
<speed>7.0</speed>
<temp>0.00</temp>
<bpm>0</bpm>
<rpm>0.00</rpm>
</extensions>
</trkpt>
<trkpt lat="63.803245544" lon="-19.287532806">
<ele>539.765625</ele>
<time>2012-07-26T12:48:19Z</time>
<speed>3.720000</speed>
<extensions>
<speed>3.7</speed>
<temp>0.00</temp>
<bpm>0</bpm>
<rpm>0.00</rpm>
</extensions>
</trkpt>
<trkpt lat="63.803230286" lon="-19.287841797">
<ele>540.750000</ele>
<time>2012-07-26T12:48:24Z</time>
<speed>3.030000</speed>
<extensions>
<speed>3.0</speed>
<temp>0.00</temp>
<bpm>0</bpm>
<rpm>0.00</rpm>
</extensions>
</trkpt>
<trkpt lat="63.803203583" lon="-19.288196564">
<ele>543.984375</ele>
<time>2012-07-26T12:48:29Z</time>
<speed>2.920000</speed>
<extensions>
<speed>2.9</speed>
<temp>0.00</temp>
<bpm>0</bpm>
<rpm>0.00</rpm>
</extensions>
</trkpt>
<trkpt lat="63.803199768" lon="-19.288478851">
<ele>545.453125</ele>
<time>2012-07-26T12:48:34Z</time>
<speed>3.100000</speed>
<extensions>
<speed>3.1</speed>
<temp>0.00</temp>
<bpm>0</bpm>
<rpm>0.00</rpm>
</extensions>
</trkpt>
<trkpt lat="63.803215027" lon="-19.288816452">
<ele>546.843750</ele>
<time>2012-07-26T12:48:39Z</time>
<speed>3.140000</speed>
<extensions>
<speed>3.1</speed>
<temp>0.00</temp>
<bpm>0</bpm>
<rpm>0.00</rpm>
</extensions>
</trkpt>
<trkpt lat="63.803230286" lon="-19.289058685">
<ele>549.093750</ele>
<time>2012-07-26T12:48:44Z</time>
<speed>2.450000</speed>
<extensions>
<speed>2.4</speed>
<temp>0.00</temp>
<bpm>0</bpm>
<rpm>0.00</rpm>
</extensions>
</trkpt>
<trkpt lat="63.803234100" lon="-19.289283752">
<ele>550.796875</ele>
<time>2012-07-26T12:48:49Z</time>
<speed>2.170000</speed>
<extensions>
<speed>2.2</speed>
<temp>0.00</temp>
<bpm>0</bpm>
<rpm>0.00</rpm>
</extensions>
</trkpt>
<trkpt lat="63.803253174" lon="-19.289510727">
<ele>552.265625</ele>
<time>2012-07-26T12:48:54Z</time>
<speed>2.180000</speed>
<extensions>
<speed>2.2</speed>
<temp>0.00</temp>
<bpm>0</bpm>
<rpm>0.00</rpm>
</extensions>
</trkpt>
<trkpt lat="63.803230286" lon="-19.289690018">
<ele>552.375000</ele>
<time>2012-07-26T12:48:59Z</time>
<speed>1.670000</speed>
<extensions>
<speed>1.7</speed>
<temp>0.00</temp>
<bpm>0</bpm>
<rpm>0.00</rpm>
</extensions>
</trkpt>
<trkpt lat="63.803215027" lon="-19.289817810">
<ele>553.578125</ele>
<time>2012-07-26T12:49:04Z</time>
<speed>1.510000</speed>
<extensions>
<speed>1.5</speed>
<temp>0.00</temp>
<bpm>0</bpm>
<rpm>0.00</rpm>
</extensions>
</trkpt>
<trkpt lat="63.803184509" lon="-19.289945602">
<ele>554.500000</ele>
<time>2012-07-26T12:49:09Z</time>
<speed>1.680000</speed>
<extensions>
<speed>1.7</speed>
<temp>0.00</temp>
<bpm>0</bpm>
<rpm>0.00</rpm>
</extensions>
</trkpt>
<trkpt lat="63.803150177" lon="-19.290079117">
<ele>556.093750</ele>
<time>2012-07-26T12:49:14Z</time>
<speed>1.660000</speed>
<extensions>
<speed>1.7</speed>
<temp>0.00</temp>
<bpm>0</bpm>
<rpm>0.00</rpm>
</extensions>
</trkpt>
<trkpt lat="63.803104401" lon="-19.290201187">
<ele>557.390625</ele>
<time>2012-07-26T12:49:19Z</time>
<speed>1.460000</speed>
<extensions>
<speed>1.5</speed>
<temp>0.00</temp>
<bpm>0</bpm>
<rpm>0.00</rpm>
</extensions>
</trkpt>
<trkpt lat="63.803050995" lon="-19.290298462">
<ele>558.140625</ele>
<time>2012-07-26T12:49:24Z</time>
<speed>1.430000</speed>
<extensions>
<speed>1.4</speed>
<temp>0.00</temp>
<bpm>0</bpm>
<rpm>0.00</rpm>
</extensions>
</trkpt>
<trkpt lat="63.802993774" lon="-19.290382385">
<ele>558.859375</ele>
<time>2012-07-26T12:49:29Z</time>
<speed>1.130000</speed>
<extensions>
<speed>1.1</speed>
<temp>0.00</temp>
<bpm>0</bpm>
<rpm>0.00</rpm>
</extensions>
</trkpt>
<trkpt lat="63.802951813" lon="-19.290458679">
<ele>559.343750</ele>
<time>2012-07-26T12:49:34Z</time>
<speed>1.170000</speed>
<extensions>
<speed>1.2</speed>
<temp>0.00</temp>
<bpm>0</bpm>
<rpm>0.00</rpm>
</extensions>
</trkpt>
<trkpt lat="63.802902222" lon="-19.290548325">
<ele>559.906250</ele>
<time>2012-07-26T12:49:39Z</time>
<speed>1.270000</speed>
<extensions>
<speed>1.3</speed>
<temp>0.00</temp>
<bpm>0</bpm>
<rpm>0.00</rpm>
</extensions>
</trkpt>
<trkpt lat="63.802845001" lon="-19.290678024">
<ele>560.640625</ele>
<time>2012-07-26T12:49:44Z</time>
<speed>2.300000</speed>
<extensions>
<speed>2.3</speed>
<temp>0.00</temp>
<bpm>0</bpm>
<rpm>0.00</rpm>
</extensions>
</trkpt>
<trkpt lat="63.802776337" lon="-19.290859222">
<ele>561.203125</ele>
<time>2012-07-26T12:49:49Z</time>
<speed>2.190000</speed>
<extensions>
<speed>2.2</speed>
<temp>0.00</temp>
<bpm>0</bpm>
<rpm>0.00</rpm>
</extensions>
</trkpt>
<trkpt lat="63.802734375" lon="-19.291025162">
<ele>561.750000</ele>
<time>2012-07-26T12:49:54Z</time>
<speed>1.790000</speed>
<extensions>
<speed>1.8</speed>
<temp>0.00</temp>
<bpm>0</bpm>
<rpm>0.00</rpm>
</extensions>
</trkpt>
<trkpt lat="63.802722931" lon="-19.291152954">
<ele>563.000000</ele>
<time>2012-07-26T12:49:59Z</time>
<speed>1.210000</speed>
<extensions>
<speed>1.2</speed>
<temp>0.00</temp>
<bpm>0</bpm>
<rpm>0.00</rpm>
</extensions>
</trkpt>
<trkpt lat="63.802726746" lon="-19.291225433">
<ele>562.546875</ele>
<time>2012-07-26T12:50:04Z</time>
<speed>0.250000</speed>
<extensions>
<speed>0.2</speed>
<temp>0.00</temp>
<bpm>0</bpm>
<rpm>0.00</rpm>
</extensions>
</trkpt>
<trkpt lat="63.802726746" lon="-19.291221619">
<ele>562.406250</ele>
<time>2012-07-26T12:50:09Z</time>
<speed>0.170000</speed>
<extensions>
<speed>0.2</speed>
<temp>0.00</temp>
<bpm>0</bpm>
<rpm>0.00</rpm>
</extensions>
</trkpt>
<trkpt lat="63.802726746" lon="-19.291221619">
<ele>562.453125</ele>
<time>2012-07-26T12:50:14Z</time>
<speed>0.120000</speed>
<extensions>
<speed>0.1</speed>
<temp>0.00</temp>
<bpm>0</bpm>
<rpm>0.00</rpm>
</extensions>
</trkpt>
<trkpt lat="63.802722931" lon="-19.291225433">
<ele>562.484375</ele>
<time>2012-07-26T12:50:19Z</time>
<speed>0.050000</speed>
<extensions>
<speed>0.1</speed>
<temp>0.00</temp>
<bpm>0</bpm>
<rpm>0.00</rpm>
</extensions>
</trkpt>
<trkpt lat="63.802726746" lon="-19.291215897">
<ele>562.437500</ele>
<time>2012-07-26T12:50:24Z</time>
<speed>0.210000</speed>
<extensions>
<speed>0.2</speed>
<temp>0.00</temp>
<bpm>0</bpm>
<rpm>0.00</rpm>
</extensions>
</trkpt>
<trkpt lat="63.802734375" lon="-19.291210175">
<ele>562.359375</ele>
<time>2012-07-26T12:50:29Z</time>
<speed>0.370000</speed>
<extensions>
<speed>0.4</speed>
<temp>0.00</temp>
<bpm>0</bpm>
<rpm>0.00</rpm>
</extensions>
</trkpt>
<trkpt lat="63.802749634" lon="-19.291191101">
<ele>562.203125</ele>
<time>2012-07-26T12:50:34Z</time>
<speed>0.080000</speed>
<extensions>
<speed>0.1</speed>
<temp>0.00</temp>
<bpm>0</bpm>
<rpm>0.00</rpm>
</extensions>
</trkpt>
<trkpt lat="63.802745819" lon="-19.291189194">
<ele>561.953125</ele>
<time>2012-07-26T12:50:39Z</time>
<speed>0.080000</speed>
<extensions>
<speed>0.1</speed>
<temp>0.00</temp>
<bpm>0</bpm>
<rpm>0.00</rpm>
</extensions>
</trkpt>
<trkpt lat="63.802738190" lon="-19.291177750">
<ele>561.609375</ele>
<time>2012-07-26T12:50:44Z</time>
<speed>0.390000</speed>
<extensions>
<speed>0.4</speed>
<temp>0.00</temp>
<bpm>0</bpm>
<rpm>0.00</rpm>
</extensions>
</trkpt>
<trkpt lat="63.802722931" lon="-19.291212082">
<ele>561.125000</ele>
<time>2012-07-26T12:50:49Z</time>
<speed>0.980000</speed>
<extensions>
<speed>1.0</speed>
<temp>0.00</temp>
<bpm>0</bpm>
<rpm>0.00</rpm>
</extensions>
</trkpt>
<trkpt lat="63.802711487" lon="-19.291393280">
<ele>559.812500</ele>
<time>2012-07-26T12:50:54Z</time>
<speed>2.260000</speed>
<extensions>
<speed>2.3</speed>
<temp>0.00</temp>
<bpm>0</bpm>
<rpm>0.00</rpm>
</extensions>
</trkpt>
<trkpt lat="63.802692413" lon="-19.291650772">
<ele>558.328125</ele>
<time>2012-07-26T12:50:59Z</time>
<speed>2.000000</speed>
<extensions>
<speed>2.0</speed>
<temp>0.00</temp>
<bpm>0</bpm>
<rpm>0.00</rpm>
</extensions>
</trkpt>
<trkpt lat="63.802680969" lon="-19.291900635">
<ele>556.703125</ele>
<time>2012-07-26T12:51:04Z</time>
<speed>2.460000</speed>
<extensions>
<speed>2.5</speed>
<temp>0.00</temp>
<bpm>0</bpm>
<rpm>0.00</rpm>
</extensions>
</trkpt>
<trkpt lat="63.802677155" lon="-19.292169571">
<ele>554.859375</ele>
<time>2012-07-26T12:51:09Z</time>
<speed>2.250000</speed>
<extensions>
<speed>2.3</speed>
<temp>0.00</temp>
<bpm>0</bpm>
<rpm>0.00</rpm>
</extensions>
</trkpt>
<trkpt lat="63.802650452" lon="-19.292499542">
<ele>552.859375</ele>
<time>2012-07-26T12:51:14Z</time>
<speed>2.910000</speed>
<extensions>
<speed>2.9</speed>
<temp>0.00</temp>
<bpm>0</bpm>
<rpm>0.00</rpm>
</extensions>
</trkpt>
<trkpt lat="63.802639008" lon="-19.292819977">
<ele>551.015625</ele>
<time>2012-07-26T12:51:19Z</time>
<speed>3.470000</speed>
<extensions>
<speed>3.5</speed>
<temp>0.00</temp>
<bpm>0</bpm>
<rpm>0.00</rpm>
</extensions>
</trkpt>
<trkpt lat="63.802608490" lon="-19.293186188">
<ele>549.515625</ele>
<time>2012-07-26T12:51:24Z</time>
<speed>3.380000</speed>
<extensions>
<speed>3.4</speed>
<temp>0.00</temp>
<bpm>0</bpm>
<rpm>0.00</rpm>
</extensions>
</trkpt>
<trkpt lat="63.802566528" lon="-19.293556213">
<ele>548.375000</ele>
<time>2012-07-26T12:51:29Z</time>
<speed>4.010000</speed>
<extensions>
<speed>4.0</speed>
<temp>0.00</temp>
<bpm>0</bpm>
<rpm>0.00</rpm>
</extensions>
</trkpt>
<trkpt lat="63.802505493" lon="-19.293968201">
<ele>546.812500</ele>
<time>2012-07-26T12:51:34Z</time>
<speed>3.730000</speed>
<extensions>
<speed>3.7</speed>
<temp>0.00</temp>
<bpm>0</bpm>
<rpm>0.00</rpm>
</extensions>
</trkpt>
<trkpt lat="63.802429199" lon="-19.294378281">
<ele>547.593750</ele>
<time>2012-07-26T12:51:39Z</time>
<speed>4.140000</speed>
<extensions>
<speed>4.1</speed>
<temp>0.00</temp>
<bpm>0</bpm>
<rpm>0.00</rpm>
</extensions>
</trkpt>
<trkpt lat="63.802352905" lon="-19.294778824">
<ele>547.750000</ele>
<time>2012-07-26T12:51:44Z</time>
<speed>4.120000</speed>
<extensions>
<speed>4.1</speed>
<temp>0.00</temp>
<bpm>0</bpm>
<rpm>0.00</rpm>
</extensions>
</trkpt>
<trkpt lat="63.802257538" lon="-19.295145035">
<ele>547.687500</ele>
<time>2012-07-26T12:51:49Z</time>
<speed>4.540000</speed>
<extensions>
<speed>4.5</speed>
<temp>0.00</temp>
<bpm>0</bpm>
<rpm>0.00</rpm>
</extensions>
</trkpt>
<trkpt lat="63.802150726" lon="-19.295558929">
<ele>548.203125</ele>
<time>2012-07-26T12:51:54Z</time>
<speed>4.640000</speed>
<extensions>
<speed>4.6</speed>
<temp>0.00</temp>
<bpm>0</bpm>
<rpm>0.00</rpm>
</extensions>
</trkpt>
<trkpt lat="63.802047729" lon="-19.295969009">
<ele>548.890625</ele>
<time>2012-07-26T12:51:59Z</time>
<speed>4.180000</speed>
<extensions>
<speed>4.2</speed>
<temp>0.00</temp>
<bpm>0</bpm>
<rpm>0.00</rpm>
</extensions>
</trkpt>
<trkpt lat="63.801979065" lon="-19.296308517">
<ele>554.625000</ele>
<time>2012-07-26T12:52:04Z</time>
<speed>3.330000</speed>
<extensions>
<speed>3.3</speed>
<temp>0.00</temp>
<bpm>0</bpm>
<rpm>0.00</rpm>
</extensions>
</trkpt>
<trkpt lat="63.801918030" lon="-19.296630859">
<ele>555.156250</ele>
<time>2012-07-26T12:52:09Z</time>
<speed>4.090000</speed>
<extensions>
<speed>4.1</speed>
<temp>0.00</temp>
<bpm>0</bpm>
<rpm>0.00</rpm>
</extensions>
</trkpt>
<trkpt lat="63.801864624" lon="-19.297052383">
<ele>556.812500</ele>
<time>2012-07-26T12:52:14Z</time>
<speed>4.190000</speed>
<extensions>
<speed>4.2</speed>
<temp>0.00</temp>
<bpm>0</bpm>
<rpm>0.00</rpm>
</extensions>
</trkpt>
<trkpt lat="63.801826477" lon="-19.297466278">
<ele>557.046875</ele>
<time>2012-07-26T12:52:19Z</time>
<speed>4.050000</speed>
<extensions>
<speed>4.0</speed>
<temp>0.00</temp>
<bpm>0</bpm>
<rpm>0.00</rpm>
</extensions>
</trkpt>
<trkpt lat="63.801792145" lon="-19.297842026">
<ele>556.453125</ele>
<time>2012-07-26T12:52:24Z</time>
<speed>3.940000</speed>
<extensions>
<speed>3.9</speed>
<temp>0.00</temp>
<bpm>0</bpm>
<rpm>0.00</rpm>
</extensions>
</trkpt>
<trkpt lat="63.801750183" lon="-19.298194885">
<ele>557.906250</ele>
<time>2012-07-26T12:52:29Z</time>
<speed>3.100000</speed>
<extensions>
<speed>3.1</speed>
<temp>0.00</temp>
<bpm>0</bpm>
<rpm>0.00</rpm>
</extensions>
</trkpt>
<trkpt lat="63.801677704" lon="-19.298574448">
<ele>557.312500</ele>
<time>2012-07-26T12:52:34Z</time>
<speed>4.200000</speed>
<extensions>
<speed>4.2</speed>
<temp>0.00</temp>
<bpm>0</bpm>
<rpm>0.00</rpm>
</extensions>
</trkpt>
<trkpt lat="63.801643372" lon="-19.298974991">
<ele>558.453125</ele>
<time>2012-07-26T12:52:39Z</time>
<speed>3.680000</speed>
<extensions>
<speed>3.7</speed>
<temp>0.00</temp>
<bpm>0</bpm>
<rpm>0.00</rpm>
</extensions>
</trkpt>
<trkpt lat="63.801651001" lon="-19.299337387">
<ele>557.906250</ele>
<time>2012-07-26T12:52:44Z</time>
<speed>3.360000</speed>
<extensions>
<speed>3.4</speed>
<temp>0.00</temp>
<bpm>0</bpm>
<rpm>0.00</rpm>
</extensions>
</trkpt>
<trkpt lat="63.801681519" lon="-19.299718857">
<ele>557.265625</ele>
<time>2012-07-26T12:52:49Z</time>
<speed>3.750000</speed>
<extensions>
<speed>3.8</speed>
<temp>0.00</temp>
<bpm>0</bpm>
<rpm>0.00</rpm>
</extensions>
</trkpt>
<trkpt lat="63.801757813" lon="-19.300106049">
<ele>558.734375</ele>
<time>2012-07-26T12:52:54Z</time>
<speed>4.180000</speed>
<extensions>
<speed>4.2</speed>
<temp>0.00</temp>
<bpm>0</bpm>
<rpm>0.00</rpm>
</extensions>
</trkpt>
<trkpt lat="63.801868439" lon="-19.300468445">
<ele>558.890625</ele>
<time>2012-07-26T12:52:59Z</time>
<speed>4.260000</speed>
<extensions>
<speed>4.3</speed>
<temp>0.00</temp>
<bpm>0</bpm>
<rpm>0.00</rpm>
</extensions>
</trkpt>
<trkpt lat="63.801994324" lon="-19.300811768">
<ele>559.140625</ele>
<time>2012-07-26T12:53:04Z</time>
<speed>4.340000</speed>
<extensions>
<speed>4.3</speed>
<temp>0.00</temp>
<bpm>0</bpm>
<rpm>0.00</rpm>
</extensions>
</trkpt>
<trkpt lat="63.802120209" lon="-19.301137924">
<ele>559.031250</ele>
<time>2012-07-26T12:53:09Z</time>
<speed>4.500000</speed>
<extensions>
<speed>4.5</speed>
<temp>0.00</temp>
<bpm>0</bpm>
<rpm>0.00</rpm>
</extensions>
</trkpt>
<trkpt lat="63.802284241" lon="-19.301410675">
<ele>558.296875</ele>
<time>2012-07-26T12:53:14Z</time>
<speed>4.850000</speed>
<extensions>
<speed>4.8</speed>
<temp>0.00</temp>
<bpm>0</bpm>
<rpm>0.00</rpm>
</extensions>
</trkpt>
<trkpt lat="63.802486420" lon="-19.301607132">
<ele>556.562500</ele>
<time>2012-07-26T12:53:19Z</time>
<speed>4.540000</speed>
<extensions>
<speed>4.5</speed>
<temp>0.00</temp>
<bpm>0</bpm>
<rpm>0.00</rpm>
</extensions>
</trkpt>
<trkpt lat="63.802654266" lon="-19.301868439">
<ele>555.328125</ele>
<time>2012-07-26T12:53:24Z</time>
<speed>4.560000</speed>
<extensions>
<speed>4.6</speed>
<temp>0.00</temp>
<bpm>0</bpm>
<rpm>0.00</rpm>
</extensions>
</trkpt>
<trkpt lat="63.802822113" lon="-19.302211761">
<ele>553.421875</ele>
<time>2012-07-26T12:53:29Z</time>
<speed>4.760000</speed>
<extensions>
<speed>4.8</speed>
<temp>0.00</temp>
<bpm>0</bpm>
<rpm>0.00</rpm>
</extensions>
</trkpt>
<trkpt lat="63.802982330" lon="-19.302459717">
<ele>552.593750</ele>
<time>2012-07-26T12:53:34Z</time>
<speed>3.670000</speed>
<extensions>
<speed>3.7</speed>
<temp>0.00</temp>
<bpm>0</bpm>
<rpm>0.00</rpm>
</extensions>
</trkpt>
<trkpt lat="63.803112030" lon="-19.302688599">
<ele>551.703125</ele>
<time>2012-07-26T12:53:39Z</time>
<speed>3.950000</speed>
<extensions>
<speed>4.0</speed>
<temp>0.00</temp>
<bpm>0</bpm>
<rpm>0.00</rpm>
</extensions>
</trkpt>
<trkpt lat="63.803249359" lon="-19.302896500">
<ele>549.796875</ele>
<time>2012-07-26T12:53:44Z</time>
<speed>3.810000</speed>
<extensions>
<speed>3.8</speed>
<temp>0.00</temp>
<bpm>0</bpm>
<rpm>0.00</rpm>
</extensions>
</trkpt>
<trkpt lat="63.803337097" lon="-19.303106308">
<ele>548.062500</ele>
<time>2012-07-26T12:53:49Z</time>
<speed>1.640000</speed>
<extensions>
<speed>1.6</speed>
<temp>0.00</temp>
<bpm>0</bpm>
<rpm>0.00</rpm>
</extensions>
</trkpt>
<trkpt lat="63.803382874" lon="-19.303239822">
<ele>546.671875</ele>
<time>2012-07-26T12:53:54Z</time>
<speed>1.970000</speed>
<extensions>
<speed>2.0</speed>
<temp>0.00</temp>
<bpm>0</bpm>
<rpm>0.00</rpm>
</extensions>
</trkpt>
<trkpt lat="63.803424835" lon="-19.303367615">
<ele>547.109375</ele>
<time>2012-07-26T12:53:59Z</time>
<speed>1.270000</speed>
<extensions>
<speed>1.3</speed>
<temp>0.00</temp>
<bpm>0</bpm>
<rpm>0.00</rpm>
</extensions>
</trkpt>
<trkpt lat="63.803466797" lon="-19.303514481">
<ele>547.906250</ele>
<time>2012-07-26T12:54:04Z</time>
<speed>1.730000</speed>
<extensions>
<speed>1.7</speed>
<temp>0.00</temp>
<bpm>0</bpm>
<rpm>0.00</rpm>
</extensions>
</trkpt>
<trkpt lat="63.803504944" lon="-19.303689957">
<ele>547.921875</ele>
<time>2012-07-26T12:54:09Z</time>
<speed>1.720000</speed>
<extensions>
<speed>1.7</speed>
<temp>0.00</temp>
<bpm>0</bpm>
<rpm>0.00</rpm>
</extensions>
</trkpt>
<trkpt lat="63.803546906" lon="-19.303882599">
<ele>547.171875</ele>
<time>2012-07-26T12:54:14Z</time>
<speed>2.060000</speed>
<extensions>
<speed>2.1</speed>
<temp>0.00</temp>
<bpm>0</bpm>
<rpm>0.00</rpm>
</extensions>
</trkpt>
<trkpt lat="63.803600311" lon="-19.304090500">
<ele>546.578125</ele>
<time>2012-07-26T12:54:19Z</time>
<speed>2.600000</speed>
<extensions>
<speed>2.6</speed>
<temp>0.00</temp>
<bpm>0</bpm>
<rpm>0.00</rpm>
</extensions>
</trkpt>
<trkpt lat="63.803672791" lon="-19.304384232">
<ele>547.109375</ele>
<time>2012-07-26T12:54:24Z</time>
<speed>3.020000</speed>
<extensions>
<speed>3.0</speed>
<temp>0.00</temp>
<bpm>0</bpm>
<rpm>0.00</rpm>
</extensions>
</trkpt>
<trkpt lat="63.803718567" lon="-19.304695129">
<ele>546.765625</ele>
<time>2012-07-26T12:54:29Z</time>
<speed>3.200000</speed>
<extensions>
<speed>3.2</speed>
<temp>0.00</temp>
<bpm>0</bpm>
<rpm>0.00</rpm>
</extensions>
</trkpt>
<trkpt lat="63.803752899" lon="-19.305034637">
<ele>547.187500</ele>
<time>2012-07-26T12:54:34Z</time>
<speed>3.350000</speed>
<extensions>
<speed>3.4</speed>
<temp>0.00</temp>
<bpm>0</bpm>
<rpm>0.00</rpm>
</extensions>
</trkpt>
<trkpt lat="63.803764343" lon="-19.305353165">
<ele>547.531250</ele>
<time>2012-07-26T12:54:39Z</time>
<speed>2.870000</speed>
<extensions>
<speed>2.9</speed>
<temp>0.00</temp>
<bpm>0</bpm>
<rpm>0.00</rpm>
</extensions>
</trkpt>
<trkpt lat="63.803779602" lon="-19.305681229">
<ele>547.875000</ele>
<time>2012-07-26T12:54:44Z</time>
<speed>3.100000</speed>
<extensions>
<speed>3.1</speed>
<temp>0.00</temp>
<bpm>0</bpm>
<rpm>0.00</rpm>
</extensions>
</trkpt>
<trkpt lat="63.803787231" lon="-19.305978775">
<ele>548.218750</ele>
<time>2012-07-26T12:54:49Z</time>
<speed>2.960000</speed>
<extensions>
<speed>3.0</speed>
<temp>0.00</temp>
<bpm>0</bpm>
<rpm>0.00</rpm>
</extensions>
</trkpt>
<trkpt lat="63.803771973" lon="-19.306322098">
<ele>548.187500</ele>
<time>2012-07-26T12:54:54Z</time>
<speed>3.970000</speed>
<extensions>
<speed>4.0</speed>
<temp>0.00</temp>
<bpm>0</bpm>
<rpm>0.00</rpm>
</extensions>
</trkpt>
<trkpt lat="63.803741455" lon="-19.306726456">
<ele>547.734375</ele>
<time>2012-07-26T12:54:59Z</time>
<speed>3.780000</speed>
<extensions>
<speed>3.8</speed>
<temp>0.00</temp>
<bpm>0</bpm>
<rpm>0.00</rpm>
</extensions>
</trkpt>
<trkpt lat="63.803691864" lon="-19.307077408">
<ele>547.765625</ele>
<time>2012-07-26T12:55:04Z</time>
<speed>3.310000</speed>
<extensions>
<speed>3.3</speed>
<temp>0.00</temp>
<bpm>0</bpm>
<rpm>0.00</rpm>
</extensions>
</trkpt>
<trkpt lat="63.803634644" lon="-19.307394028">
<ele>548.218750</ele>
<time>2012-07-26T12:55:09Z</time>
<speed>3.300000</speed>
<extensions>
<speed>3.3</speed>
<temp>0.00</temp>
<bpm>0</bpm>
<rpm>0.00</rpm>
</extensions>
</trkpt>
<trkpt lat="63.803573608" lon="-19.307765961">
<ele>548.359375</ele>
<time>2012-07-26T12:55:14Z</time>
<speed>4.290000</speed>
<extensions>
<speed>4.3</speed>
<temp>0.00</temp>
<bpm>0</bpm>
<rpm>0.00</rpm>
</extensions>
</trkpt>
<trkpt lat="63.803501129" lon="-19.308168411">
<ele>549.406250</ele>
<time>2012-07-26T12:55:19Z</time>
<speed>3.750000</speed>
<extensions>
<speed>3.8</speed>
<temp>0.00</temp>
<bpm>0</bpm>
<rpm>0.00</rpm>
</extensions>
</trkpt>
<trkpt lat="63.803443909" lon="-19.308507919">
<ele>549.656250</ele>
<time>2012-07-26T12:55:24Z</time>
<speed>3.460000</speed>
<extensions>
<speed>3.5</speed>
<temp>0.00</temp>
<bpm>0</bpm>
<rpm>0.00</rpm>
</extensions>
</trkpt>
<trkpt lat="63.803382874" lon="-19.308868408">
<ele>549.187500</ele>
<time>2012-07-26T12:55:29Z</time>
<speed>4.430000</speed>
<extensions>
<speed>4.4</speed>
<temp>0.00</temp>
<bpm>0</bpm>
<rpm>0.00</rpm>
</extensions>
</trkpt>
<trkpt lat="63.803314209" lon="-19.309259415">
<ele>550.375000</ele>
<time>2012-07-26T12:55:34Z</time>
<speed>3.990000</speed>
<extensions>
<speed>4.0</speed>
<temp>0.00</temp>
<bpm>0</bpm>
<rpm>0.00</rpm>
</extensions>
</trkpt>
<trkpt lat="63.803241730" lon="-19.309627533">
<ele>550.359375</ele>
<time>2012-07-26T12:55:39Z</time>
<speed>3.950000</speed>
<extensions>
<speed>4.0</speed>
<temp>0.00</temp>
<bpm>0</bpm>
<rpm>0.00</rpm>
</extensions>
</trkpt>
<trkpt lat="63.803173065" lon="-19.310003281">
<ele>550.625000</ele>
<time>2012-07-26T12:55:44Z</time>
<speed>3.530000</speed>
<extensions>
<speed>3.5</speed>
<temp>0.00</temp>
<bpm>0</bpm>
<rpm>0.00</rpm>
</extensions>
</trkpt>
<trkpt lat="63.803108215" lon="-19.310319901">
<ele>549.968750</ele>
<time>2012-07-26T12:55:49Z</time>
<speed>3.120000</speed>
<extensions>
<speed>3.1</speed>
<temp>0.00</temp>
<bpm>0</bpm>
<rpm>0.00</rpm>
</extensions>
</trkpt>
<trkpt lat="63.803050995" lon="-19.310630798">
<ele>549.609375</ele>
<time>2012-07-26T12:55:54Z</time>
<speed>4.010000</speed>
<extensions>
<speed>4.0</speed>
<temp>0.00</temp>
<bpm>0</bpm>
<rpm>0.00</rpm>
</extensions>
</trkpt>
<trkpt lat="63.802978516" lon="-19.311002731">
<ele>549.171875</ele>
<time>2012-07-26T12:55:59Z</time>
<speed>3.870000</speed>
<extensions>
<speed>3.9</speed>
<temp>0.00</temp>
<bpm>0</bpm>
<rpm>0.00</rpm>
</extensions>
</trkpt>
<trkpt lat="63.802902222" lon="-19.311323166">
<ele>550.250000</ele>
<time>2012-07-26T12:56:04Z</time>
<speed>2.940000</speed>
<extensions>
<speed>2.9</speed>
<temp>0.00</temp>
<bpm>0</bpm>
<rpm>0.00</rpm>
</extensions>
</trkpt>
<trkpt lat="63.802833557" lon="-19.311622620">
<ele>550.562500</ele>
<time>2012-07-26T12:56:09Z</time>
<speed>3.700000</speed>
<extensions>
<speed>3.7</speed>
<temp>0.00</temp>
<bpm>0</bpm>
<rpm>0.00</rpm>
</extensions>
</trkpt>
<trkpt lat="63.802742004" lon="-19.312011719">
<ele>553.281250</ele>
<time>2012-07-26T12:56:14Z</time>
<speed>3.670000</speed>
<extensions>
<speed>3.7</speed>
<temp>0.00</temp>
<bpm>0</bpm>
<rpm>0.00</rpm>
</extensions>
</trkpt>
<trkpt lat="63.802658081" lon="-19.312307358">
<ele>552.140625</ele>
<time>2012-07-26T12:56:19Z</time>
<speed>3.670000</speed>
<extensions>
<speed>3.7</speed>
<temp>0.00</temp>
<bpm>0</bpm>
<rpm>0.00</rpm>
</extensions>
</trkpt>
<trkpt lat="63.802585602" lon="-19.312635422">
<ele>550.953125</ele>
<time>2012-07-26T12:56:24Z</time>
<speed>3.740000</speed>
<extensions>
<speed>3.7</speed>
<temp>0.00</temp>
<bpm>0</bpm>
<rpm>0.00</rpm>
</extensions>
</trkpt>
<trkpt lat="63.802501678" lon="-19.313014984">
<ele>550.500000</ele>
<time>2012-07-26T12:56:29Z</time>
<speed>4.120000</speed>
<extensions>
<speed>4.1</speed>
<temp>0.00</temp>
<bpm>0</bpm>
<rpm>0.00</rpm>
</extensions>
</trkpt>
<trkpt lat="63.802433014" lon="-19.313371658">
<ele>548.890625</ele>
<time>2012-07-26T12:56:34Z</time>
<speed>3.410000</speed>
<extensions>
<speed>3.4</speed>
<temp>0.00</temp>
<bpm>0</bpm>
<rpm>0.00</rpm>
</extensions>
</trkpt>
<trkpt lat="63.802352905" lon="-19.313600540">
<ele>547.562500</ele>
<time>2012-07-26T12:56:39Z</time>
<speed>2.980000</speed>
<extensions>
<speed>3.0</speed>
<temp>0.00</temp>
<bpm>0</bpm>
<rpm>0.00</rpm>
</extensions>
</trkpt>
<trkpt lat="63.802284241" lon="-19.313911438">
<ele>548.343750</ele>
<time>2012-07-26T12:56:44Z</time>
<speed>3.560000</speed>
<extensions>
<speed>3.6</speed>
<temp>0.00</temp>
<bpm>0</bpm>
<rpm>0.00</rpm>
</extensions>
</trkpt>
<trkpt lat="63.802219391" lon="-19.314228058">
<ele>548.390625</ele>
<time>2012-07-26T12:56:49Z</time>
<speed>3.580000</speed>
<extensions>
<speed>3.6</speed>
<temp>0.00</temp>
<bpm>0</bpm>
<rpm>0.00</rpm>
</extensions>
</trkpt>
<trkpt lat="63.802150726" lon="-19.314559937">
<ele>548.437500</ele>
<time>2012-07-26T12:56:54Z</time>
<speed>3.550000</speed>
<extensions>
<speed>3.5</speed>
<temp>0.00</temp>
<bpm>0</bpm>
<rpm>0.00</rpm>
</extensions>
</trkpt>
<trkpt lat="63.802085876" lon="-19.314907074">
<ele>546.609375</ele>
<time>2012-07-26T12:56:59Z</time>
<speed>3.840000</speed>
<extensions>
<speed>3.8</speed>
<temp>0.00</temp>
<bpm>0</bpm>
<rpm>0.00</rpm>
</extensions>
</trkpt>
<trkpt lat="63.802013397" lon="-19.315275192">
<ele>545.015625</ele>
<time>2012-07-26T12:57:04Z</time>
<speed>3.440000</speed>
<extensions>
<speed>3.4</speed>
<temp>0.00</temp>
<bpm>0</bpm>
<rpm>0.00</rpm>
</extensions>
</trkpt>
<trkpt lat="63.801967621" lon="-19.315576553">
<ele>545.671875</ele>
<time>2012-07-26T12:57:09Z</time>
<speed>3.530000</speed>
<extensions>
<speed>3.5</speed>
<temp>0.00</temp>
<bpm>0</bpm>
<rpm>0.00</rpm>
</extensions>
</trkpt>
<trkpt lat="63.801887512" lon="-19.315916061">
<ele>547.015625</ele>
<time>2012-07-26T12:57:14Z</time>
<speed>3.820000</speed>
<extensions>
<speed>3.8</speed>
<temp>0.00</temp>
<bpm>0</bpm>
<rpm>0.00</rpm>
</extensions>
</trkpt>
<trkpt lat="63.801815033" lon="-19.316301346">
<ele>548.406250</ele>
<time>2012-07-26T12:57:19Z</time>
<speed>3.910000</speed>
<extensions>
<speed>3.9</speed>
<temp>0.00</temp>
<bpm>0</bpm>
<rpm>0.00</rpm>
</extensions>
</trkpt>
<trkpt lat="63.801746368" lon="-19.316692352">
<ele>549.875000</ele>
<time>2012-07-26T12:57:24Z</time>
<speed>4.110000</speed>
<extensions>
<speed>4.1</speed>
<temp>0.00</temp>
<bpm>0</bpm>
<rpm>0.00</rpm>
</extensions>
</trkpt>
<trkpt lat="63.801685333" lon="-19.317115784">
<ele>553.015625</ele>
<time>2012-07-26T12:57:29Z</time>
<speed>4.080000</speed>
<extensions>
<speed>4.1</speed>
<temp>0.00</temp>
<bpm>0</bpm>
<rpm>0.00</rpm>
</extensions>
</trkpt>
<trkpt lat="63.801620483" lon="-19.317523956">
<ele>553.406250</ele>
<time>2012-07-26T12:57:34Z</time>
<speed>4.360000</speed>
<extensions>
<speed>4.4</speed>
<temp>0.00</temp>
<bpm>0</bpm>
<rpm>0.00</rpm>
</extensions>
</trkpt>
<trkpt lat="63.801559448" lon="-19.317869186">
<ele>551.828125</ele>
<time>2012-07-26T12:57:39Z</time>
<speed>3.190000</speed>
<extensions>
<speed>3.2</speed>
<temp>0.00</temp>
<bpm>0</bpm>
<rpm>0.00</rpm>
</extensions>
</trkpt>
<trkpt lat="63.801521301" lon="-19.318212509">
<ele>552.546875</ele>
<time>2012-07-26T12:57:44Z</time>
<speed>3.880000</speed>
<extensions>
<speed>3.9</speed>
<temp>0.00</temp>
<bpm>0</bpm>
<rpm>0.00</rpm>
</extensions>
</trkpt>
<trkpt lat="63.801464081" lon="-19.318601608">
<ele>552.812500</ele>
<time>2012-07-26T12:57:49Z</time>
<speed>4.160000</speed>
<extensions>
<speed>4.2</speed>
<temp>0.00</temp>
<bpm>0</bpm>
<rpm>0.00</rpm>
</extensions>
</trkpt>
<trkpt lat="63.801410675" lon="-19.318941116">
<ele>551.328125</ele>
<time>2012-07-26T12:57:54Z</time>
<speed>3.220000</speed>
<extensions>
<speed>3.2</speed>
<temp>0.00</temp>
<bpm>0</bpm>
<rpm>0.00</rpm>
</extensions>
</trkpt>
<trkpt lat="63.801368713" lon="-19.319238663">
<ele>550.453125</ele>
<time>2012-07-26T12:57:59Z</time>
<speed>3.500000</speed>
<extensions>
<speed>3.5</speed>
<temp>0.00</temp>
<bpm>0</bpm>
<rpm>0.00</rpm>
</extensions>
</trkpt>
<trkpt lat="63.801322937" lon="-19.319562912">
<ele>548.312500</ele>
<time>2012-07-26T12:58:04Z</time>
<speed>3.670000</speed>
<extensions>
<speed>3.7</speed>
<temp>0.00</temp>
<bpm>0</bpm>
<rpm>0.00</rpm>
</extensions>
</trkpt>
<trkpt lat="63.801246643" lon="-19.319906235">
<ele>548.640625</ele>
<time>2012-07-26T12:58:09Z</time>
<speed>3.710000</speed>
<extensions>
<speed>3.7</speed>
<temp>0.00</temp>
<bpm>0</bpm>
<rpm>0.00</rpm>
</extensions>
</trkpt>
<trkpt lat="63.801212311" lon="-19.320249557">
<ele>547.140625</ele>
<time>2012-07-26T12:58:14Z</time>
<speed>2.930000</speed>
<extensions>
<speed>2.9</speed>
<temp>0.00</temp>
<bpm>0</bpm>
<rpm>0.00</rpm>
</extensions>
</trkpt>
<trkpt lat="63.801170349" lon="-19.320562363">
<ele>547.328125</ele>
<time>2012-07-26T12:58:19Z</time>
<speed>3.640000</speed>
<extensions>
<speed>3.6</speed>
<temp>0.00</temp>
<bpm>0</bpm>
<rpm>0.00</rpm>
</extensions>
</trkpt>
<trkpt lat="63.801143646" lon="-19.320878983">
<ele>547.593750</ele>
<time>2012-07-26T12:58:24Z</time>
<speed>3.480000</speed>
<extensions>
<speed>3.5</speed>
<temp>0.00</temp>
<bpm>0</bpm>
<rpm>0.00</rpm>
</extensions>
</trkpt>
<trkpt lat="63.801113129" lon="-19.321247101">
<ele>547.359375</ele>
<time>2012-07-26T12:58:29Z</time>
<speed>3.160000</speed>
<extensions>
<speed>3.2</speed>
<temp>0.00</temp>
<bpm>0</bpm>
<rpm>0.00</rpm>
</extensions>
</trkpt>
<trkpt lat="63.801094055" lon="-19.321578979">
<ele>546.406250</ele>
<time>2012-07-26T12:58:34Z</time>
<speed>3.590000</speed>
<extensions>
<speed>3.6</speed>
<temp>0.00</temp>
<bpm>0</bpm>
<rpm>0.00</rpm>
</extensions>
</trkpt>
<trkpt lat="63.801063538" lon="-19.321935654">
<ele>547.015625</ele>
<time>2012-07-26T12:58:39Z</time>
<speed>3.250000</speed>
<extensions>
<speed>3.2</speed>
<temp>0.00</temp>
<bpm>0</bpm>
<rpm>0.00</rpm>
</extensions>
</trkpt>
<trkpt lat="63.801044464" lon="-19.322216034">
<ele>546.718750</ele>
<time>2012-07-26T12:58:44Z</time>
<speed>2.390000</speed>
<extensions>
<speed>2.4</speed>
<temp>0.00</temp>
<bpm>0</bpm>
<rpm>0.00</rpm>
</extensions>
</trkpt>
<trkpt lat="63.801010132" lon="-19.322427750">
<ele>545.578125</ele>
<time>2012-07-26T12:58:49Z</time>
<speed>2.250000</speed>
<extensions>
<speed>2.3</speed>
<temp>0.00</temp>
<bpm>0</bpm>
<rpm>0.00</rpm>
</extensions>
</trkpt>
<trkpt lat="63.800956726" lon="-19.322637558">
<ele>545.218750</ele>
<time>2012-07-26T12:58:54Z</time>
<speed>2.340000</speed>
<extensions>
<speed>2.3</speed>
<temp>0.00</temp>
<bpm>0</bpm>
<rpm>0.00</rpm>
</extensions>
</trkpt>
<trkpt lat="63.800903320" lon="-19.322868347">
<ele>545.718750</ele>
<time>2012-07-26T12:58:59Z</time>
<speed>2.640000</speed>
<extensions>
<speed>2.6</speed>
<temp>0.00</temp>
<bpm>0</bpm>
<rpm>0.00</rpm>
</extensions>
</trkpt>
<trkpt lat="63.800807953" lon="-19.323089600">
<ele>543.937500</ele>
<time>2012-07-26T12:59:04Z</time>
<speed>3.090000</speed>
<extensions>
<speed>3.1</speed>
<temp>0.00</temp>
<bpm>0</bpm>
<rpm>0.00</rpm>
</extensions>
</trkpt>
<trkpt lat="63.800720215" lon="-19.323324203">
<ele>543.718750</ele>
<time>2012-07-26T12:59:09Z</time>
<speed>3.140000</speed>
<extensions>
<speed>3.1</speed>
<temp>0.00</temp>
<bpm>0</bpm>
<rpm>0.00</rpm>
</extensions>
</trkpt>
<trkpt lat="63.800651550" lon="-19.323595047">
<ele>543.671875</ele>
<time>2012-07-26T12:59:14Z</time>
<speed>3.160000</speed>
<extensions>
<speed>3.2</speed>
<temp>0.00</temp>
<bpm>0</bpm>
<rpm>0.00</rpm>
</extensions>
</trkpt>
<trkpt lat="63.800590515" lon="-19.323926926">
<ele>543.468750</ele>
<time>2012-07-26T12:59:19Z</time>
<speed>3.620000</speed>
<extensions>
<speed>3.6</speed>
<temp>0.00</temp>
<bpm>0</bpm>
<rpm>0.00</rpm>
</extensions>
</trkpt>
<trkpt lat="63.800552368" lon="-19.324283600">
<ele>543.203125</ele>
<time>2012-07-26T12:59:24Z</time>
<speed>3.490000</speed>
<extensions>
<speed>3.5</speed>
<temp>0.00</temp>
<bpm>0</bpm>
<rpm>0.00</rpm>
</extensions>
</trkpt>
<trkpt lat="63.800521851" lon="-19.324592590">
<ele>542.890625</ele>
<time>2012-07-26T12:59:29Z</time>
<speed>3.020000</speed>
<extensions>
<speed>3.0</speed>
<temp>0.00</temp>
<bpm>0</bpm>
<rpm>0.00</rpm>
</extensions>
</trkpt>
<trkpt lat="63.800495148" lon="-19.324892044">
<ele>543.296875</ele>
<time>2012-07-26T12:59:34Z</time>
<speed>2.800000</speed>
<extensions>
<speed>2.8</speed>
<temp>0.00</temp>
<bpm>0</bpm>
<rpm>0.00</rpm>
</extensions>
</trkpt>
<trkpt lat="63.800468445" lon="-19.325202942">
<ele>543.093750</ele>
<time>2012-07-26T12:59:39Z</time>
<speed>3.330000</speed>
<extensions>
<speed>3.3</speed>
<temp>0.00</temp>
<bpm>0</bpm>
<rpm>0.00</rpm>
</extensions>
</trkpt>
<trkpt lat="63.800411224" lon="-19.325525284">
<ele>542.578125</ele>
<time>2012-07-26T12:59:44Z</time>
<speed>3.850000</speed>
<extensions>
<speed>3.8</speed>
<temp>0.00</temp>
<bpm>0</bpm>
<rpm>0.00</rpm>
</extensions>
</trkpt>
<trkpt lat="63.800369263" lon="-19.325891495">
<ele>541.359375</ele>
<time>2012-07-26T12:59:49Z</time>
<speed>3.980000</speed>
<extensions>
<speed>4.0</speed>
<temp>0.00</temp>
<bpm>0</bpm>
<rpm>0.00</rpm>
</extensions>
</trkpt>
<trkpt lat="63.800315857" lon="-19.326297760">
<ele>540.296875</ele>
<time>2012-07-26T12:59:54Z</time>
<speed>4.210000</speed>
<extensions>
<speed>4.2</speed>
<temp>0.00</temp>
<bpm>0</bpm>
<rpm>0.00</rpm>
</extensions>
</trkpt>
<trkpt lat="63.800258636" lon="-19.326734543">
<ele>539.453125</ele>
<time>2012-07-26T12:59:59Z</time>
<speed>4.580000</speed>
<extensions>
<speed>4.6</speed>
<temp>0.00</temp>
<bpm>0</bpm>
<rpm>0.00</rpm>
</extensions>
</trkpt>
<trkpt lat="63.800193787" lon="-19.327163696">
<ele>539.015625</ele>
<time>2012-07-26T13:00:04Z</time>
<speed>4.020000</speed>
<extensions>
<speed>4.0</speed>
<temp>0.00</temp>
<bpm>0</bpm>
<rpm>0.00</rpm>
</extensions>
</trkpt>
<trkpt lat="63.800136566" lon="-19.327550888">
<ele>539.921875</ele>
<time>2012-07-26T13:00:09Z</time>
<speed>3.920000</speed>
<extensions>
<speed>3.9</speed>
<temp>0.00</temp>
<bpm>0</bpm>
<rpm>0.00</rpm>
</extensions>
</trkpt>
<trkpt lat="63.800071716" lon="-19.327962875">
<ele>540.296875</ele>
<time>2012-07-26T13:00:14Z</time>
<speed>4.510000</speed>
<extensions>
<speed>4.5</speed>
<temp>0.00</temp>
<bpm>0</bpm>
<rpm>0.00</rpm>
</extensions>
</trkpt>
<trkpt lat="63.800006866" lon="-19.328357697">
<ele>540.281250</ele>
<time>2012-07-26T13:00:19Z</time>
<speed>4.230000</speed>
<extensions>
<speed>4.2</speed>
<temp>0.00</temp>
<bpm>0</bpm>
<rpm>0.00</rpm>
</extensions>
</trkpt>
<trkpt lat="63.799934387" lon="-19.328823090">
<ele>540.578125</ele>
<time>2012-07-26T13:00:24Z</time>
<speed>3.990000</speed>
<extensions>
<speed>4.0</speed>
<temp>0.00</temp>
<bpm>0</bpm>
<rpm>0.00</rpm>
</extensions>
</trkpt>
<trkpt lat="63.799869537" lon="-19.329204559">
<ele>540.328125</ele>
<time>2012-07-26T13:00:29Z</time>
<speed>3.600000</speed>
<extensions>
<speed>3.6</speed>
<temp>0.00</temp>
<bpm>0</bpm>
<rpm>0.00</rpm>
</extensions>
</trkpt>
<trkpt lat="63.799819946" lon="-19.329526901">
<ele>540.406250</ele>
<time>2012-07-26T13:00:34Z</time>
<speed>3.090000</speed>
<extensions>
<speed>3.1</speed>
<temp>0.00</temp>
<bpm>0</bpm>
<rpm>0.00</rpm>
</extensions>
</trkpt>
<trkpt lat="63.799774170" lon="-19.329885483">
<ele>541.265625</ele>
<time>2012-07-26T13:00:39Z</time>
<speed>3.800000</speed>
<extensions>
<speed>3.8</speed>
<temp>0.00</temp>
<bpm>0</bpm>
<rpm>0.00</rpm>
</extensions>
</trkpt>
<trkpt lat="63.799736023" lon="-19.330297470">
<ele>539.968750</ele>
<time>2012-07-26T13:00:44Z</time>
<speed>4.110000</speed>
<extensions>
<speed>4.1</speed>
<temp>0.00</temp>
<bpm>0</bpm>
<rpm>0.00</rpm>
</extensions>
</trkpt>
<trkpt lat="63.799697876" lon="-19.330709457">
<ele>539.609375</ele>
<time>2012-07-26T13:00:49Z</time>
<speed>3.950000</speed>
<extensions>
<speed>4.0</speed>
<temp>0.00</temp>
<bpm>0</bpm>
<rpm>0.00</rpm>
</extensions>
</trkpt>
<trkpt lat="63.799652100" lon="-19.331066132">
<ele>539.140625</ele>
<time>2012-07-26T13:00:54Z</time>
<speed>3.110000</speed>
<extensions>
<speed>3.1</speed>
<temp>0.00</temp>
<bpm>0</bpm>
<rpm>0.00</rpm>
</extensions>
</trkpt>
<trkpt lat="63.799621582" lon="-19.331298828">
<ele>539.296875</ele>
<time>2012-07-26T13:00:59Z</time>
<speed>2.600000</speed>
<extensions>
<speed>2.6</speed>
<temp>0.00</temp>
<bpm>0</bpm>
<rpm>0.00</rpm>
</extensions>
</trkpt>
<trkpt lat="63.799587250" lon="-19.331548691">
<ele>539.656250</ele>
<time>2012-07-26T13:01:04Z</time>
<speed>2.930000</speed>
<extensions>
<speed>2.9</speed>
<temp>0.00</temp>
<bpm>0</bpm>
<rpm>0.00</rpm>
</extensions>
</trkpt>
<trkpt lat="63.799541473" lon="-19.331850052">
<ele>540.015625</ele>
<time>2012-07-26T13:01:09Z</time>
<speed>3.360000</speed>
<extensions>
<speed>3.4</speed>
<temp>0.00</temp>
<bpm>0</bpm>
<rpm>0.00</rpm>
</extensions>
</trkpt>
<trkpt lat="63.799499512" lon="-19.332191467">
<ele>539.734375</ele>
<time>2012-07-26T13:01:14Z</time>
<speed>3.520000</speed>
<extensions>
<speed>3.5</speed>
<temp>0.00</temp>
<bpm>0</bpm>
<rpm>0.00</rpm>
</extensions>
</trkpt>
<trkpt lat="63.799453735" lon="-19.332542419">
<ele>538.859375</ele>
<time>2012-07-26T13:01:19Z</time>
<speed>3.820000</speed>
<extensions>
<speed>3.8</speed>
<temp>0.00</temp>
<bpm>0</bpm>
<rpm>0.00</rpm>
</extensions>
</trkpt>
<trkpt lat="63.799407959" lon="-19.332832336">
<ele>538.296875</ele>
<time>2012-07-26T13:01:24Z</time>
<speed>1.910000</speed>
<extensions>
<speed>1.9</speed>
<temp>0.00</temp>
<bpm>0</bpm>
<rpm>0.00</rpm>
</extensions>
</trkpt>
<trkpt lat="63.799373627" lon="-19.333017349">
<ele>538.265625</ele>
<time>2012-07-26T13:01:29Z</time>
<speed>2.120000</speed>
<extensions>
<speed>2.1</speed>
<temp>0.00</temp>
<bpm>0</bpm>
<rpm>0.00</rpm>
</extensions>
</trkpt>
<trkpt lat="63.799343109" lon="-19.333255768">
<ele>539.968750</ele>
<time>2012-07-26T13:01:34Z</time>
<speed>2.100000</speed>
<extensions>
<speed>2.1</speed>
<temp>0.00</temp>
<bpm>0</bpm>
<rpm>0.00</rpm>
</extensions>
</trkpt>
<trkpt lat="63.799320221" lon="-19.333461761">
<ele>539.640625</ele>
<time>2012-07-26T13:01:39Z</time>
<speed>2.160000</speed>
<extensions>
<speed>2.2</speed>
<temp>0.00</temp>
<bpm>0</bpm>
<rpm>0.00</rpm>
</extensions>
</trkpt>
<trkpt lat="63.799293518" lon="-19.333644867">
<ele>538.968750</ele>
<time>2012-07-26T13:01:44Z</time>
<speed>1.590000</speed>
<extensions>
<speed>1.6</speed>
<temp>0.00</temp>
<bpm>0</bpm>
<rpm>0.00</rpm>
</extensions>
</trkpt>
<trkpt lat="63.799282074" lon="-19.333703995">
<ele>539.281250</ele>
<time>2012-07-26T13:01:49Z</time>
<speed>0.160000</speed>
<extensions>
<speed>0.2</speed>
<temp>0.00</temp>
<bpm>0</bpm>
<rpm>0.00</rpm>
</extensions>
</trkpt>
<trkpt lat="63.799285889" lon="-19.333692551">
<ele>539.156250</ele>
<time>2012-07-26T13:01:54Z</time>
<speed>0.240000</speed>
<extensions>
<speed>0.2</speed>
<temp>0.00</temp>
<bpm>0</bpm>
<rpm>0.00</rpm>
</extensions>
</trkpt>
<trkpt lat="63.799293518" lon="-19.333684921">
<ele>539.078125</ele>
<time>2012-07-26T13:01:59Z</time>
<speed>0.150000</speed>
<extensions>
<speed>0.2</speed>
<temp>0.00</temp>
<bpm>0</bpm>
<rpm>0.00</rpm>
</extensions>
</trkpt>
<trkpt lat="63.799293518" lon="-19.333679199">
<ele>539.031250</ele>
<time>2012-07-26T13:02:04Z</time>
<speed>0.150000</speed>
<extensions>
<speed>0.2</speed>
<temp>0.00</temp>
<bpm>0</bpm>
<rpm>0.00</rpm>
</extensions>
</trkpt>
<trkpt lat="63.799289703" lon="-19.333667755">
<ele>539.015625</ele>
<time>2012-07-26T13:02:09Z</time>
<speed>0.090000</speed>
<extensions>
<speed>0.1</speed>
<temp>0.00</temp>
<bpm>0</bpm>
<rpm>0.00</rpm>
</extensions>
</trkpt>
<trkpt lat="63.799293518" lon="-19.333660126">
<ele>539.015625</ele>
<time>2012-07-26T13:02:14Z</time>
<speed>0.270000</speed>
<extensions>
<speed>0.3</speed>
<temp>0.00</temp>
<bpm>0</bpm>
<rpm>0.00</rpm>
</extensions>
</trkpt>
<trkpt lat="63.799289703" lon="-19.333669662">
<ele>539.015625</ele>
<time>2012-07-26T13:02:19Z</time>
<speed>0.040000</speed>
<extensions>
<speed>0.0</speed>
<temp>0.00</temp>
<bpm>0</bpm>
<rpm>0.00</rpm>
</extensions>
</trkpt>
<trkpt lat="63.799289703" lon="-19.333671570">
<ele>539.062500</ele>
<time>2012-07-26T13:02:24Z</time>
<extensions>
<speed>0.0</speed>
<temp>0.00</temp>
<bpm>0</bpm>
<rpm>0.00</rpm>
</extensions>
</trkpt>
<trkpt lat="63.799289703" lon="-19.333673477">
<ele>539.078125</ele>
<time>2012-07-26T13:02:29Z</time>
<extensions>
<speed>0.0</speed>
<temp>0.00</temp>
<bpm>0</bpm>
<rpm>0.00</rpm>
</extensions>
</trkpt>
<trkpt lat="63.799289703" lon="-19.333673477">
<ele>539.093750</ele>
<time>2012-07-26T13:02:34Z</time>
<speed>0.010000</speed>
<extensions>
<speed>0.0</speed>
<temp>0.00</temp>
<bpm>0</bpm>
<rpm>0.00</rpm>
</extensions>
</trkpt>
<trkpt lat="63.799289703" lon="-19.333673477">
<ele>539.093750</ele>
<time>2012-07-26T13:02:39Z</time>
<extensions>
<speed>0.0</speed>
<temp>0.00</temp>
<bpm>0</bpm>
<rpm>0.00</rpm>
</extensions>
</trkpt>
<trkpt lat="63.799289703" lon="-19.333673477">
<ele>539.109375</ele>
<time>2012-07-26T13:02:44Z</time>
<speed>0.040000</speed>
<extensions>
<speed>0.0</speed>
<temp>0.00</temp>
<bpm>0</bpm>
<rpm>0.00</rpm>
</extensions>
</trkpt>
<trkpt lat="63.799289703" lon="-19.333673477">
<ele>539.109375</ele>
<time>2012-07-26T13:02:49Z</time>
<speed>0.010000</speed>
<extensions>
<speed>0.0</speed>
<temp>0.00</temp>
<bpm>0</bpm>
<rpm>0.00</rpm>
</extensions>
</trkpt>
<trkpt lat="63.799289703" lon="-19.333675385">
<ele>539.109375</ele>
<time>2012-07-26T13:02:54Z</time>
<speed>0.110000</speed>
<extensions>
<speed>0.1</speed>
<temp>0.00</temp>
<bpm>0</bpm>
<rpm>0.00</rpm>
</extensions>
</trkpt>
<trkpt lat="63.799293518" lon="-19.333700180">
<ele>538.953125</ele>
<time>2012-07-26T13:02:59Z</time>
<speed>0.280000</speed>
<extensions>
<speed>0.3</speed>
<temp>0.00</temp>
<bpm>0</bpm>
<rpm>0.00</rpm>
</extensions>
</trkpt>
<trkpt lat="63.799285889" lon="-19.333776474">
<ele>538.312500</ele>
<time>2012-07-26T13:03:04Z</time>
<speed>1.530000</speed>
<extensions>
<speed>1.5</speed>
<temp>0.00</temp>
<bpm>0</bpm>
<rpm>0.00</rpm>
</extensions>
</trkpt>
<trkpt lat="63.799232483" lon="-19.334085464">
<ele>537.312500</ele>
<time>2012-07-26T13:03:09Z</time>
<speed>2.800000</speed>
<extensions>
<speed>2.8</speed>
<temp>0.00</temp>
<bpm>0</bpm>
<rpm>0.00</rpm>
</extensions>
</trkpt>
<trkpt lat="63.799186707" lon="-19.334383011">
<ele>535.968750</ele>
<time>2012-07-26T13:03:14Z</time>
<speed>2.160000</speed>
<extensions>
<speed>2.2</speed>
<temp>0.00</temp>
<bpm>0</bpm>
<rpm>0.00</rpm>
</extensions>
</trkpt>
<trkpt lat="63.799148560" lon="-19.334680557">
<ele>535.593750</ele>
<time>2012-07-26T13:03:19Z</time>
<speed>2.850000</speed>
<extensions>
<speed>2.9</speed>
<temp>0.00</temp>
<bpm>0</bpm>
<rpm>0.00</rpm>
</extensions>
</trkpt>
<trkpt lat="63.799098969" lon="-19.335012436">
<ele>536.781250</ele>
<time>2012-07-26T13:03:24Z</time>
<speed>3.000000</speed>
<extensions>
<speed>3.0</speed>
<temp>0.00</temp>
<bpm>0</bpm>
<rpm>0.00</rpm>
</extensions>
</trkpt>
<trkpt lat="63.799053192" lon="-19.335315704">
<ele>536.921875</ele>
<time>2012-07-26T13:03:29Z</time>
<speed>2.760000</speed>
<extensions>
<speed>2.8</speed>
<temp>0.00</temp>
<bpm>0</bpm>
<rpm>0.00</rpm>
</extensions>
</trkpt>
<trkpt lat="63.799011230" lon="-19.335643768">
<ele>537.390625</ele>
<time>2012-07-26T13:03:34Z</time>
<speed>3.160000</speed>
<extensions>
<speed>3.2</speed>
<temp>0.00</temp>
<bpm>0</bpm>
<rpm>0.00</rpm>
</extensions>
</trkpt>
<trkpt lat="63.798965454" lon="-19.336015701">
<ele>538.468750</ele>
<time>2012-07-26T13:03:39Z</time>
<speed>3.630000</speed>
<extensions>
<speed>3.6</speed>
<temp>0.00</temp>
<bpm>0</bpm>
<rpm>0.00</rpm>
</extensions>
</trkpt>
<trkpt lat="63.798912048" lon="-19.336391449">
<ele>538.500000</ele>
<time>2012-07-26T13:03:44Z</time>
<speed>3.660000</speed>
<extensions>
<speed>3.7</speed>
<temp>0.00</temp>
<bpm>0</bpm>
<rpm>0.00</rpm>
</extensions>
</trkpt>
<trkpt lat="63.798858643" lon="-19.336748123">
<ele>538.453125</ele>
<time>2012-07-26T13:03:49Z</time>
<speed>3.500000</speed>
<extensions>
<speed>3.5</speed>
<temp>0.00</temp>
<bpm>0</bpm>
<rpm>0.00</rpm>
</extensions>
</trkpt>
<trkpt lat="63.798809052" lon="-19.337100983">
<ele>538.000000</ele>
<time>2012-07-26T13:03:54Z</time>
<speed>3.570000</speed>
<extensions>
<speed>3.6</speed>
<temp>0.00</temp>
<bpm>0</bpm>
<rpm>0.00</rpm>
</extensions>
</trkpt>
<trkpt lat="63.798755646" lon="-19.337467194">
<ele>537.546875</ele>
<time>2012-07-26T13:03:59Z</time>
<speed>3.700000</speed>
<extensions>
<speed>3.7</speed>
<temp>0.00</temp>
<bpm>0</bpm>
<rpm>0.00</rpm>
</extensions>
</trkpt>
<trkpt lat="63.798713684" lon="-19.337810516">
<ele>536.875000</ele>
<time>2012-07-26T13:04:04Z</time>
<speed>3.050000</speed>
<extensions>
<speed>3.0</speed>
<temp>0.00</temp>
<bpm>0</bpm>
<rpm>0.00</rpm>
</extensions>
</trkpt>
<trkpt lat="63.798675537" lon="-19.338113785">
<ele>537.015625</ele>
<time>2012-07-26T13:04:09Z</time>
<speed>2.110000</speed>
<extensions>
<speed>2.1</speed>
<temp>0.00</temp>
<bpm>0</bpm>
<rpm>0.00</rpm>
</extensions>
</trkpt>
<trkpt lat="63.798625946" lon="-19.338336945">
<ele>537.484375</ele>
<time>2012-07-26T13:04:14Z</time>
<speed>2.170000</speed>
<extensions>
<speed>2.2</speed>
<temp>0.00</temp>
<bpm>0</bpm>
<rpm>0.00</rpm>
</extensions>
</trkpt>
<trkpt lat="63.798553467" lon="-19.338499069">
<ele>537.593750</ele>
<time>2012-07-26T13:04:19Z</time>
<speed>0.240000</speed>
<extensions>
<speed>0.2</speed>
<temp>0.00</temp>
<bpm>0</bpm>
<rpm>0.00</rpm>
</extensions>
</trkpt>
<trkpt lat="63.798564911" lon="-19.338510513">
<ele>537.937500</ele>
<time>2012-07-26T13:04:24Z</time>
<speed>0.550000</speed>
<extensions>
<speed>0.6</speed>
<temp>0.00</temp>
<bpm>0</bpm>
<rpm>0.00</rpm>
</extensions>
</trkpt>
<trkpt lat="63.798568726" lon="-19.338562012">
<ele>537.734375</ele>
<time>2012-07-26T13:04:29Z</time>
<speed>0.440000</speed>
<extensions>
<speed>0.4</speed>
<temp>0.00</temp>
<bpm>0</bpm>
<rpm>0.00</rpm>
</extensions>
</trkpt>
<trkpt lat="63.798572540" lon="-19.338621140">
<ele>537.578125</ele>
<time>2012-07-26T13:04:34Z</time>
<speed>1.020000</speed>
<extensions>
<speed>1.0</speed>
<temp>0.00</temp>
<bpm>0</bpm>
<rpm>0.00</rpm>
</extensions>
</trkpt>
<trkpt lat="63.798568726" lon="-19.338792801">
<ele>537.640625</ele>
<time>2012-07-26T13:04:39Z</time>
<speed>2.250000</speed>
<extensions>
<speed>2.3</speed>
<temp>0.00</temp>
<bpm>0</bpm>
<rpm>0.00</rpm>
</extensions>
</trkpt>
<trkpt lat="63.798580170" lon="-19.339088440">
<ele>538.218750</ele>
<time>2012-07-26T13:04:44Z</time>
<speed>3.090000</speed>
<extensions>
<speed>3.1</speed>
<temp>0.00</temp>
<bpm>0</bpm>
<rpm>0.00</rpm>
</extensions>
</trkpt>
<trkpt lat="63.798549652" lon="-19.339384079">
<ele>538.468750</ele>
<time>2012-07-26T13:04:49Z</time>
<speed>2.690000</speed>
<extensions>
<speed>2.7</speed>
<temp>0.00</temp>
<bpm>0</bpm>
<rpm>0.00</rpm>
</extensions>
</trkpt>
<trkpt lat="63.798519135" lon="-19.339622498">
<ele>539.468750</ele>
<time>2012-07-26T13:04:54Z</time>
<speed>2.550000</speed>
<extensions>
<speed>2.6</speed>
<temp>0.00</temp>
<bpm>0</bpm>
<rpm>0.00</rpm>
</extensions>
</trkpt>
<trkpt lat="63.798480988" lon="-19.339885712">
<ele>540.109375</ele>
<time>2012-07-26T13:04:59Z</time>
<speed>3.010000</speed>
<extensions>
<speed>3.0</speed>
<temp>0.00</temp>
<bpm>0</bpm>
<rpm>0.00</rpm>
</extensions>
</trkpt>
<trkpt lat="63.798439026" lon="-19.340200424">
<ele>538.531250</ele>
<time>2012-07-26T13:05:04Z</time>
<speed>3.670000</speed>
<extensions>
<speed>3.7</speed>
<temp>0.00</temp>
<bpm>0</bpm>
<rpm>0.00</rpm>
</extensions>
</trkpt>
<trkpt lat="63.798400879" lon="-19.340551376">
<ele>538.062500</ele>
<time>2012-07-26T13:05:09Z</time>
<speed>3.650000</speed>
<extensions>
<speed>3.7</speed>
<temp>0.00</temp>
<bpm>0</bpm>
<rpm>0.00</rpm>
</extensions>
</trkpt>
<trkpt lat="63.798374176" lon="-19.340904236">
<ele>541.875000</ele>
<time>2012-07-26T13:05:14Z</time>
<speed>3.390000</speed>
<extensions>
<speed>3.4</speed>
<temp>0.00</temp>
<bpm>0</bpm>
<rpm>0.00</rpm>
</extensions>
</trkpt>
<trkpt lat="63.798332214" lon="-19.341199875">
<ele>538.250000</ele>
<time>2012-07-26T13:05:19Z</time>
<speed>3.690000</speed>
<extensions>
<speed>3.7</speed>
<temp>0.00</temp>
<bpm>0</bpm>
<rpm>0.00</rpm>
</extensions>
</trkpt>
<trkpt lat="63.798294067" lon="-19.341472626">
<ele>536.156250</ele>
<time>2012-07-26T13:05:24Z</time>
<speed>2.460000</speed>
<extensions>
<speed>2.5</speed>
<temp>0.00</temp>
<bpm>0</bpm>
<rpm>0.00</rpm>
</extensions>
</trkpt>
<trkpt lat="63.798255920" lon="-19.341724396">
<ele>533.328125</ele>
<time>2012-07-26T13:05:29Z</time>
<speed>2.920000</speed>
<extensions>
<speed>2.9</speed>
<temp>0.00</temp>
<bpm>0</bpm>
<rpm>0.00</rpm>
</extensions>
</trkpt>
<trkpt lat="63.798240662" lon="-19.342016220">
<ele>533.000000</ele>
<time>2012-07-26T13:05:34Z</time>
<speed>3.150000</speed>
<extensions>
<speed>3.2</speed>
<temp>0.00</temp>
<bpm>0</bpm>
<rpm>0.00</rpm>
</extensions>
</trkpt>
<trkpt lat="63.798233032" lon="-19.342321396">
<ele>536.171875</ele>
<time>2012-07-26T13:05:39Z</time>
<speed>2.930000</speed>
<extensions>
<speed>2.9</speed>
<temp>0.00</temp>
<bpm>0</bpm>
<rpm>0.00</rpm>
</extensions>
</trkpt>
<trkpt lat="63.798210144" lon="-19.342542648">
<ele>537.234375</ele>
<time>2012-07-26T13:05:44Z</time>
<speed>1.450000</speed>
<extensions>
<speed>1.4</speed>
<temp>0.00</temp>
<bpm>0</bpm>
<rpm>0.00</rpm>
</extensions>
</trkpt>
<trkpt lat="63.798252106" lon="-19.342735291">
<ele>537.906250</ele>
<time>2012-07-26T13:05:49Z</time>
<speed>2.390000</speed>
<extensions>
<speed>2.4</speed>
<temp>0.00</temp>
<bpm>0</bpm>
<rpm>0.00</rpm>
</extensions>
</trkpt>
<trkpt lat="63.798301697" lon="-19.342998505">
<ele>539.109375</ele>
<time>2012-07-26T13:05:54Z</time>
<speed>3.110000</speed>
<extensions>
<speed>3.1</speed>
<temp>0.00</temp>
<bpm>0</bpm>
<rpm>0.00</rpm>
</extensions>
</trkpt>
<trkpt lat="63.798351288" lon="-19.343282700">
<ele>541.187500</ele>
<time>2012-07-26T13:05:59Z</time>
<speed>3.150000</speed>
<extensions>
<speed>3.2</speed>
<temp>0.00</temp>
<bpm>0</bpm>
<rpm>0.00</rpm>
</extensions>
</trkpt>
<trkpt lat="63.798416138" lon="-19.343595505">
<ele>541.218750</ele>
<time>2012-07-26T13:06:04Z</time>
<speed>3.620000</speed>
<extensions>
<speed>3.6</speed>
<temp>0.00</temp>
<bpm>0</bpm>
<rpm>0.00</rpm>
</extensions>
</trkpt>
<trkpt lat="63.798488617" lon="-19.343864441">
<ele>534.515625</ele>
<time>2012-07-26T13:06:09Z</time>
<speed>3.210000</speed>
<extensions>
<speed>3.2</speed>
<temp>0.00</temp>
<bpm>0</bpm>
<rpm>0.00</rpm>
</extensions>
</trkpt>
<trkpt lat="63.798568726" lon="-19.344154358">
<ele>533.875000</ele>
<time>2012-07-26T13:06:14Z</time>
<speed>3.490000</speed>
<extensions>
<speed>3.5</speed>
<temp>0.00</temp>
<bpm>0</bpm>
<rpm>0.00</rpm>
</extensions>
</trkpt>
<trkpt lat="63.798645020" lon="-19.344451904">
<ele>534.015625</ele>
<time>2012-07-26T13:06:19Z</time>
<speed>3.870000</speed>
<extensions>
<speed>3.9</speed>
<temp>0.00</temp>
<bpm>0</bpm>
<rpm>0.00</rpm>
</extensions>
</trkpt>
<trkpt lat="63.798713684" lon="-19.344751358">
<ele>532.734375</ele>
<time>2012-07-26T13:06:24Z</time>
<speed>3.250000</speed>
<extensions>
<speed>3.2</speed>
<temp>0.00</temp>
<bpm>0</bpm>
<rpm>0.00</rpm>
</extensions>
</trkpt>
<trkpt lat="63.798767090" lon="-19.345022202">
<ele>533.453125</ele>
<time>2012-07-26T13:06:29Z</time>
<speed>3.290000</speed>
<extensions>
<speed>3.3</speed>
<temp>0.00</temp>
<bpm>0</bpm>
<rpm>0.00</rpm>
</extensions>
</trkpt>
<trkpt lat="63.798839569" lon="-19.345354080">
<ele>533.312500</ele>
<time>2012-07-26T13:06:34Z</time>
<speed>4.030000</speed>
<extensions>
<speed>4.0</speed>
<temp>0.00</temp>
<bpm>0</bpm>
<rpm>0.00</rpm>
</extensions>
</trkpt>
<trkpt lat="63.798912048" lon="-19.345682144">
<ele>534.109375</ele>
<time>2012-07-26T13:06:39Z</time>
<speed>3.500000</speed>
<extensions>
<speed>3.5</speed>
<temp>0.00</temp>
<bpm>0</bpm>
<rpm>0.00</rpm>
</extensions>
</trkpt>
<trkpt lat="63.798973083" lon="-19.345987320">
<ele>533.781250</ele>
<time>2012-07-26T13:06:44Z</time>
<speed>3.180000</speed>
<extensions>
<speed>3.2</speed>
<temp>0.00</temp>
<bpm>0</bpm>
<rpm>0.00</rpm>
</extensions>
</trkpt>
<trkpt lat="63.799022675" lon="-19.346275330">
<ele>533.343750</ele>
<time>2012-07-26T13:06:49Z</time>
<speed>2.940000</speed>
<extensions>
<speed>2.9</speed>
<temp>0.00</temp>
<bpm>0</bpm>
<rpm>0.00</rpm>
</extensions>
</trkpt>
<trkpt lat="63.799087524" lon="-19.346572876">
<ele>533.437500</ele>
<time>2012-07-26T13:06:54Z</time>
<speed>3.580000</speed>
<extensions>
<speed>3.6</speed>
<temp>0.00</temp>
<bpm>0</bpm>
<rpm>0.00</rpm>
</extensions>
</trkpt>
<trkpt lat="63.799152374" lon="-19.346881866">
<ele>534.218750</ele>
<time>2012-07-26T13:06:59Z</time>
<speed>3.610000</speed>
<extensions>
<speed>3.6</speed>
<temp>0.00</temp>
<bpm>0</bpm>
<rpm>0.00</rpm>
</extensions>
</trkpt>
<trkpt lat="63.799209595" lon="-19.347185135">
<ele>534.421875</ele>
<time>2012-07-26T13:07:04Z</time>
<speed>3.850000</speed>
<extensions>
<speed>3.8</speed>
<temp>0.00</temp>
<bpm>0</bpm>
<rpm>0.00</rpm>
</extensions>
</trkpt>
<trkpt lat="63.799278259" lon="-19.347558975">
<ele>533.500000</ele>
<time>2012-07-26T13:07:09Z</time>
<speed>4.340000</speed>
<extensions>
<speed>4.3</speed>
<temp>0.00</temp>
<bpm>0</bpm>
<rpm>0.00</rpm>
</extensions>
</trkpt>
<trkpt lat="63.799343109" lon="-19.348028183">
<ele>531.734375</ele>
<time>2012-07-26T13:07:14Z</time>
<speed>5.140000</speed>
<extensions>
<speed>5.1</speed>
<temp>0.00</temp>
<bpm>0</bpm>
<rpm>0.00</rpm>
</extensions>
</trkpt>
<trkpt lat="63.799442291" lon="-19.348512650">
<ele>528.703125</ele>
<time>2012-07-26T13:07:19Z</time>
<speed>5.850000</speed>
<extensions>
<speed>5.8</speed>
<temp>0.00</temp>
<bpm>0</bpm>
<rpm>0.00</rpm>
</extensions>
</trkpt>
<trkpt lat="63.799617767" lon="-19.349040985">
<ele>529.968750</ele>
<time>2012-07-26T13:07:24Z</time>
<speed>6.900000</speed>
<extensions>
<speed>6.9</speed>
<temp>0.00</temp>
<bpm>0</bpm>
<rpm>0.00</rpm>
</extensions>
</trkpt>
<trkpt lat="63.799747467" lon="-19.349685669">
<ele>528.218750</ele>
<time>2012-07-26T13:07:29Z</time>
<speed>6.770000</speed>
<extensions>
<speed>6.8</speed>
<temp>0.00</temp>
<bpm>0</bpm>
<rpm>0.00</rpm>
</extensions>
</trkpt>
<trkpt lat="63.799804688" lon="-19.350339890">
<ele>527.593750</ele>
<time>2012-07-26T13:07:34Z</time>
<speed>6.350000</speed>
<extensions>
<speed>6.4</speed>
<temp>0.00</temp>
<bpm>0</bpm>
<rpm>0.00</rpm>
</extensions>
</trkpt>
<trkpt lat="63.799751282" lon="-19.350868225">
<ele>526.171875</ele>
<time>2012-07-26T13:07:39Z</time>
<speed>5.160000</speed>
<extensions>
<speed>5.2</speed>
<temp>0.00</temp>
<bpm>0</bpm>
<rpm>0.00</rpm>
</extensions>
</trkpt>
<trkpt lat="63.799690247" lon="-19.351354599">
<ele>527.984375</ele>
<time>2012-07-26T13:07:44Z</time>
<speed>4.570000</speed>
<extensions>
<speed>4.6</speed>
<temp>0.00</temp>
<bpm>0</bpm>
<rpm>0.00</rpm>
</extensions>
</trkpt>
<trkpt lat="63.799617767" lon="-19.351758957">
<ele>529.875000</ele>
<time>2012-07-26T13:07:49Z</time>
<speed>4.040000</speed>
<extensions>
<speed>4.0</speed>
<temp>0.00</temp>
<bpm>0</bpm>
<rpm>0.00</rpm>
</extensions>
</trkpt>
<trkpt lat="63.799568176" lon="-19.352128983">
<ele>532.156250</ele>
<time>2012-07-26T13:07:54Z</time>
<speed>3.720000</speed>
<extensions>
<speed>3.7</speed>
<temp>0.00</temp>
<bpm>0</bpm>
<rpm>0.00</rpm>
</extensions>
</trkpt>
<trkpt lat="63.799556732" lon="-19.352476120">
<ele>532.890625</ele>
<time>2012-07-26T13:07:59Z</time>
<speed>3.630000</speed>
<extensions>
<speed>3.6</speed>
<temp>0.00</temp>
<bpm>0</bpm>
<rpm>0.00</rpm>
</extensions>
</trkpt>
<trkpt lat="63.799594879" lon="-19.352796555">
<ele>533.453125</ele>
<time>2012-07-26T13:08:04Z</time>
<speed>3.890000</speed>
<extensions>
<speed>3.9</speed>
<temp>0.00</temp>
<bpm>0</bpm>
<rpm>0.00</rpm>
</extensions>
</trkpt>
<trkpt lat="63.799682617" lon="-19.353147507">
<ele>532.359375</ele>
<time>2012-07-26T13:08:09Z</time>
<speed>4.000000</speed>
<extensions>
<speed>4.0</speed>
<temp>0.00</temp>
<bpm>0</bpm>
<rpm>0.00</rpm>
</extensions>
</trkpt>
<trkpt lat="63.799797058" lon="-19.353471756">
<ele>536.937500</ele>
<time>2012-07-26T13:08:14Z</time>
<speed>3.610000</speed>
<extensions>
<speed>3.6</speed>
<temp>0.00</temp>
<bpm>0</bpm>
<rpm>0.00</rpm>
</extensions>
</trkpt>
<trkpt lat="63.799888611" lon="-19.353670120">
<ele>537.671875</ele>
<time>2012-07-26T13:08:19Z</time>
<speed>2.320000</speed>
<extensions>
<speed>2.3</speed>
<temp>0.00</temp>
<bpm>0</bpm>
<rpm>0.00</rpm>
</extensions>
</trkpt>
<trkpt lat="63.799957275" lon="-19.353872299">
<ele>538.453125</ele>
<time>2012-07-26T13:08:24Z</time>
<speed>2.820000</speed>
<extensions>
<speed>2.8</speed>
<temp>0.00</temp>
<bpm>0</bpm>
<rpm>0.00</rpm>
</extensions>
</trkpt>
<trkpt lat="63.800014496" lon="-19.354095459">
<ele>537.609375</ele>
<time>2012-07-26T13:08:29Z</time>
<speed>3.010000</speed>
<extensions>
<speed>3.0</speed>
<temp>0.00</temp>
<bpm>0</bpm>
<rpm>0.00</rpm>
</extensions>
</trkpt>
<trkpt lat="63.800067902" lon="-19.354305267">
<ele>530.515625</ele>
<time>2012-07-26T13:08:34Z</time>
<speed>2.410000</speed>
<extensions>
<speed>2.4</speed>
<temp>0.00</temp>
<bpm>0</bpm>
<rpm>0.00</rpm>
</extensions>
</trkpt>
<trkpt lat="63.800128937" lon="-19.354478836">
<ele>530.187500</ele>
<time>2012-07-26T13:08:39Z</time>
<speed>2.590000</speed>
<extensions>
<speed>2.6</speed>
<temp>0.00</temp>
<bpm>0</bpm>
<rpm>0.00</rpm>
</extensions>
</trkpt>
<trkpt lat="63.800189972" lon="-19.354692459">
<ele>530.546875</ele>
<time>2012-07-26T13:08:44Z</time>
<speed>2.810000</speed>
<extensions>
<speed>2.8</speed>
<temp>0.00</temp>
<bpm>0</bpm>
<rpm>0.00</rpm>
</extensions>
</trkpt>
<trkpt lat="63.800235748" lon="-19.354944229">
<ele>531.234375</ele>
<time>2012-07-26T13:08:49Z</time>
<speed>2.820000</speed>
<extensions>
<speed>2.8</speed>
<temp>0.00</temp>
<bpm>0</bpm>
<rpm>0.00</rpm>
</extensions>
</trkpt>
<trkpt lat="63.800281525" lon="-19.355270386">
<ele>531.625000</ele>
<time>2012-07-26T13:08:54Z</time>
<speed>3.090000</speed>
<extensions>
<speed>3.1</speed>
<temp>0.00</temp>
<bpm>0</bpm>
<rpm>0.00</rpm>
</extensions>
</trkpt>
<trkpt lat="63.800281525" lon="-19.355497360">
<ele>531.281250</ele>
<time>2012-07-26T13:08:59Z</time>
<speed>2.440000</speed>
<extensions>
<speed>2.4</speed>
<temp>0.00</temp>
<bpm>0</bpm>
<rpm>0.00</rpm>
</extensions>
</trkpt>
<trkpt lat="63.800277710" lon="-19.355772018">
<ele>529.968750</ele>
<time>2012-07-26T13:09:04Z</time>
<speed>3.330000</speed>
<extensions>
<speed>3.3</speed>
<temp>0.00</temp>
<bpm>0</bpm>
<rpm>0.00</rpm>
</extensions>
</trkpt>
<trkpt lat="63.800281525" lon="-19.356109619">
<ele>531.640625</ele>
<time>2012-07-26T13:09:09Z</time>
<speed>3.040000</speed>
<extensions>
<speed>3.0</speed>
<temp>0.00</temp>
<bpm>0</bpm>
<rpm>0.00</rpm>
</extensions>
</trkpt>
<trkpt lat="63.800270081" lon="-19.356363297">
<ele>529.218750</ele>
<time>2012-07-26T13:09:14Z</time>
<speed>2.080000</speed>
<extensions>
<speed>2.1</speed>
<temp>0.00</temp>
<bpm>0</bpm>
<rpm>0.00</rpm>
</extensions>
</trkpt>
<trkpt lat="63.800205231" lon="-19.356616974">
<ele>527.640625</ele>
<time>2012-07-26T13:09:19Z</time>
<speed>3.350000</speed>
<extensions>
<speed>3.4</speed>
<temp>0.00</temp>
<bpm>0</bpm>
<rpm>0.00</rpm>
</extensions>
</trkpt>
<trkpt lat="63.800132751" lon="-19.356943130">
<ele>526.078125</ele>
<time>2012-07-26T13:09:24Z</time>
<speed>3.820000</speed>
<extensions>
<speed>3.8</speed>
<temp>0.00</temp>
<bpm>0</bpm>
<rpm>0.00</rpm>
</extensions>
</trkpt>
<trkpt lat="63.800071716" lon="-19.357252121">
<ele>524.359375</ele>
<time>2012-07-26T13:09:29Z</time>
<speed>3.180000</speed>
<extensions>
<speed>3.2</speed>
<temp>0.00</temp>
<bpm>0</bpm>
<rpm>0.00</rpm>
</extensions>
</trkpt>
<trkpt lat="63.800025940" lon="-19.357492447">
<ele>523.171875</ele>
<time>2012-07-26T13:09:34Z</time>
<speed>2.520000</speed>
<extensions>
<speed>2.5</speed>
<temp>0.00</temp>
<bpm>0</bpm>
<rpm>0.00</rpm>
</extensions>
</trkpt>
<trkpt lat="63.800052643" lon="-19.357719421">
<ele>522.046875</ele>
<time>2012-07-26T13:09:39Z</time>
<speed>2.050000</speed>
<extensions>
<speed>2.1</speed>
<temp>0.00</temp>
<bpm>0</bpm>
<rpm>0.00</rpm>
</extensions>
</trkpt>
<trkpt lat="63.800083160" lon="-19.357944489">
<ele>521.203125</ele>
<time>2012-07-26T13:09:44Z</time>
<speed>2.140000</speed>
<extensions>
<speed>2.1</speed>
<temp>0.00</temp>
<bpm>0</bpm>
<rpm>0.00</rpm>
</extensions>
</trkpt>
<trkpt lat="63.800151825" lon="-19.358074188">
<ele>521.171875</ele>
<time>2012-07-26T13:09:49Z</time>
<speed>2.500000</speed>
<extensions>
<speed>2.5</speed>
<temp>0.00</temp>
<bpm>0</bpm>
<rpm>0.00</rpm>
</extensions>
</trkpt>
<trkpt lat="63.800231934" lon="-19.358238220">
<ele>520.109375</ele>
<time>2012-07-26T13:09:54Z</time>
<speed>2.370000</speed>
<extensions>
<speed>2.4</speed>
<temp>0.00</temp>
<bpm>0</bpm>
<rpm>0.00</rpm>
</extensions>
</trkpt>
<trkpt lat="63.800270081" lon="-19.358425140">
<ele>520.843750</ele>
<time>2012-07-26T13:09:59Z</time>
<speed>2.580000</speed>
<extensions>
<speed>2.6</speed>
<temp>0.00</temp>
<bpm>0</bpm>
<rpm>0.00</rpm>
</extensions>
</trkpt>
<trkpt lat="63.800315857" lon="-19.358663559">
<ele>518.875000</ele>
<time>2012-07-26T13:10:04Z</time>
<speed>2.480000</speed>
<extensions>
<speed>2.5</speed>
<temp>0.00</temp>
<bpm>0</bpm>
<rpm>0.00</rpm>
</extensions>
</trkpt>
<trkpt lat="63.800331116" lon="-19.358854294">
<ele>513.843750</ele>
<time>2012-07-26T13:10:09Z</time>
<speed>2.090000</speed>
<extensions>
<speed>2.1</speed>
<temp>0.00</temp>
<bpm>0</bpm>
<rpm>0.00</rpm>
</extensions>
</trkpt>
<trkpt lat="63.800327301" lon="-19.359046936">
<ele>513.750000</ele>
<time>2012-07-26T13:10:14Z</time>
<speed>1.730000</speed>
<extensions>
<speed>1.7</speed>
<temp>0.00</temp>
<bpm>0</bpm>
<rpm>0.00</rpm>
</extensions>
</trkpt>
<trkpt lat="63.800327301" lon="-19.359306335">
<ele>517.843750</ele>
<time>2012-07-26T13:10:19Z</time>
<speed>3.130000</speed>
<extensions>
<speed>3.1</speed>
<temp>0.00</temp>
<bpm>0</bpm>
<rpm>0.00</rpm>
</extensions>
</trkpt>
<trkpt lat="63.800292969" lon="-19.359622955">
<ele>520.031250</ele>
<time>2012-07-26T13:10:24Z</time>
<speed>3.560000</speed>
<extensions>
<speed>3.6</speed>
<temp>0.00</temp>
<bpm>0</bpm>
<rpm>0.00</rpm>
</extensions>
</trkpt>
<trkpt lat="63.800235748" lon="-19.359983444">
<ele>520.718750</ele>
<time>2012-07-26T13:10:29Z</time>
<speed>3.870000</speed>
<extensions>
<speed>3.9</speed>
<temp>0.00</temp>
<bpm>0</bpm>
<rpm>0.00</rpm>
</extensions>
</trkpt>
<trkpt lat="63.800182343" lon="-19.360324860">
<ele>522.531250</ele>
<time>2012-07-26T13:10:34Z</time>
<speed>2.930000</speed>
<extensions>
<speed>2.9</speed>
<temp>0.00</temp>
<bpm>0</bpm>
<rpm>0.00</rpm>
</extensions>
</trkpt>
<trkpt lat="63.800121307" lon="-19.360628128">
<ele>523.421875</ele>
<time>2012-07-26T13:10:39Z</time>
<speed>3.730000</speed>
<extensions>
<speed>3.7</speed>
<temp>0.00</temp>
<bpm>0</bpm>
<rpm>0.00</rpm>
</extensions>
</trkpt>
<trkpt lat="63.800064087" lon="-19.360967636">
<ele>519.328125</ele>
<time>2012-07-26T13:10:44Z</time>
<speed>3.450000</speed>
<extensions>
<speed>3.5</speed>
<temp>0.00</temp>
<bpm>0</bpm>
<rpm>0.00</rpm>
</extensions>
</trkpt>
<trkpt lat="63.800025940" lon="-19.361251831">
<ele>516.812500</ele>
<time>2012-07-26T13:10:49Z</time>
<speed>3.510000</speed>
<extensions>
<speed>3.5</speed>
<temp>0.00</temp>
<bpm>0</bpm>
<rpm>0.00</rpm>
</extensions>
</trkpt>
<trkpt lat="63.799999237" lon="-19.361598969">
<ele>517.390625</ele>
<time>2012-07-26T13:10:54Z</time>
<speed>3.430000</speed>
<extensions>
<speed>3.4</speed>
<temp>0.00</temp>
<bpm>0</bpm>
<rpm>0.00</rpm>
</extensions>
</trkpt>
<trkpt lat="63.800006866" lon="-19.361940384">
<ele>522.609375</ele>
<time>2012-07-26T13:10:59Z</time>
<speed>3.390000</speed>
<extensions>
<speed>3.4</speed>
<temp>0.00</temp>
<bpm>0</bpm>
<rpm>0.00</rpm>
</extensions>
</trkpt>
<trkpt lat="63.799983978" lon="-19.362264633">
<ele>523.328125</ele>
<time>2012-07-26T13:11:04Z</time>
<speed>3.300000</speed>
<extensions>
<speed>3.3</speed>
<temp>0.00</temp>
<bpm>0</bpm>
<rpm>0.00</rpm>
</extensions>
</trkpt>
<trkpt lat="63.799968719" lon="-19.362510681">
<ele>522.812500</ele>
<time>2012-07-26T13:11:09Z</time>
<speed>1.700000</speed>
<extensions>
<speed>1.7</speed>
<temp>0.00</temp>
<bpm>0</bpm>
<rpm>0.00</rpm>
</extensions>
</trkpt>
<trkpt lat="63.799976349" lon="-19.362577438">
<ele>523.937500</ele>
<time>2012-07-26T13:11:14Z</time>
<speed>0.180000</speed>
<extensions>
<speed>0.2</speed>
<temp>0.00</temp>
<bpm>0</bpm>
<rpm>0.00</rpm>
</extensions>
</trkpt>
<trkpt lat="63.799972534" lon="-19.362586975">
<ele>524.031250</ele>
<time>2012-07-26T13:11:19Z</time>
<extensions>
<speed>0.0</speed>
<temp>0.00</temp>
<bpm>0</bpm>
<rpm>0.00</rpm>
</extensions>
</trkpt>
<trkpt lat="63.799972534" lon="-19.362585068">
<ele>523.906250</ele>
<time>2012-07-26T13:11:24Z</time>
<speed>0.010000</speed>
<extensions>
<speed>0.0</speed>
<temp>0.00</temp>
<bpm>0</bpm>
<rpm>0.00</rpm>
</extensions>
</trkpt>
<trkpt lat="63.799972534" lon="-19.362586975">
<ele>523.937500</ele>
<time>2012-07-26T13:11:29Z</time>
<speed>0.030000</speed>
<extensions>
<speed>0.0</speed>
<temp>0.00</temp>
<bpm>0</bpm>
<rpm>0.00</rpm>
</extensions>
</trkpt>
<trkpt lat="63.799972534" lon="-19.362588882">
<ele>523.984375</ele>
<time>2012-07-26T13:11:34Z</time>
<speed>0.030000</speed>
<extensions>
<speed>0.0</speed>
<temp>0.00</temp>
<bpm>0</bpm>
<rpm>0.00</rpm>
</extensions>
</trkpt>
<trkpt lat="63.799964905" lon="-19.362628937">
<ele>524.656250</ele>
<time>2012-07-26T13:11:39Z</time>
<speed>1.610000</speed>
<extensions>
<speed>1.6</speed>
<temp>0.00</temp>
<bpm>0</bpm>
<rpm>0.00</rpm>
</extensions>
</trkpt>
<trkpt lat="63.799945831" lon="-19.362897873">
<ele>527.937500</ele>
<time>2012-07-26T13:11:44Z</time>
<speed>3.130000</speed>
<extensions>
<speed>3.1</speed>
<temp>0.00</temp>
<bpm>0</bpm>
<rpm>0.00</rpm>
</extensions>
</trkpt>
<trkpt lat="63.799903870" lon="-19.363243103">
<ele>527.921875</ele>
<time>2012-07-26T13:11:49Z</time>
<speed>3.650000</speed>
<extensions>
<speed>3.7</speed>
<temp>0.00</temp>
<bpm>0</bpm>
<rpm>0.00</rpm>
</extensions>
</trkpt>
<trkpt lat="63.799865723" lon="-19.363595963">
<ele>527.828125</ele>
<time>2012-07-26T13:11:54Z</time>
<speed>3.470000</speed>
<extensions>
<speed>3.5</speed>
<temp>0.00</temp>
<bpm>0</bpm>
<rpm>0.00</rpm>
</extensions>
</trkpt>
<trkpt lat="63.799831390" lon="-19.363964081">
<ele>527.187500</ele>
<time>2012-07-26T13:11:59Z</time>
<speed>3.950000</speed>
<extensions>
<speed>4.0</speed>
<temp>0.00</temp>
<bpm>0</bpm>
<rpm>0.00</rpm>
</extensions>
</trkpt>
<trkpt lat="63.799800873" lon="-19.364362717">
<ele>527.125000</ele>
<time>2012-07-26T13:12:04Z</time>
<speed>3.800000</speed>
<extensions>
<speed>3.8</speed>
<temp>0.00</temp>
<bpm>0</bpm>
<rpm>0.00</rpm>
</extensions>
</trkpt>
<trkpt lat="63.799747467" lon="-19.364677429">
<ele>526.734375</ele>
<time>2012-07-26T13:12:09Z</time>
<speed>3.270000</speed>
<extensions>
<speed>3.3</speed>
<temp>0.00</temp>
<bpm>0</bpm>
<rpm>0.00</rpm>
</extensions>
</trkpt>
<trkpt lat="63.799716949" lon="-19.365030289">
<ele>525.875000</ele>
<time>2012-07-26T13:12:14Z</time>
<speed>3.770000</speed>
<extensions>
<speed>3.8</speed>
<temp>0.00</temp>
<bpm>0</bpm>
<rpm>0.00</rpm>
</extensions>
</trkpt>
<trkpt lat="63.799678802" lon="-19.365432739">
<ele>525.015625</ele>
<time>2012-07-26T13:12:19Z</time>
<speed>3.640000</speed>
<extensions>
<speed>3.6</speed>
<temp>0.00</temp>
<bpm>0</bpm>
<rpm>0.00</rpm>
</extensions>
</trkpt>
<trkpt lat="63.799652100" lon="-19.365777969">
<ele>524.000000</ele>
<time>2012-07-26T13:12:24Z</time>
<speed>3.730000</speed>
<extensions>
<speed>3.7</speed>
<temp>0.00</temp>
<bpm>0</bpm>
<rpm>0.00</rpm>
</extensions>
</trkpt>
<trkpt lat="63.799602509" lon="-19.366214752">
<ele>523.296875</ele>
<time>2012-07-26T13:12:29Z</time>
<speed>4.690000</speed>
<extensions>
<speed>4.7</speed>
<temp>0.00</temp>
<bpm>0</bpm>
<rpm>0.00</rpm>
</extensions>
</trkpt>
<trkpt lat="63.799518585" lon="-19.366666794">
<ele>521.765625</ele>
<time>2012-07-26T13:12:34Z</time>
<speed>4.060000</speed>
<extensions>
<speed>4.1</speed>
<temp>0.00</temp>
<bpm>0</bpm>
<rpm>0.00</rpm>
</extensions>
</trkpt>
<trkpt lat="63.799427032" lon="-19.367046356">
<ele>520.125000</ele>
<time>2012-07-26T13:12:39Z</time>
<speed>4.420000</speed>
<extensions>
<speed>4.4</speed>
<temp>0.00</temp>
<bpm>0</bpm>
<rpm>0.00</rpm>
</extensions>
</trkpt>
<trkpt lat="63.799320221" lon="-19.367401123">
<ele>524.046875</ele>
<time>2012-07-26T13:12:44Z</time>
<speed>3.630000</speed>
<extensions>
<speed>3.6</speed>
<temp>0.00</temp>
<bpm>0</bpm>
<rpm>0.00</rpm>
</extensions>
</trkpt>
<trkpt lat="63.799236298" lon="-19.367713928">
<ele>523.546875</ele>
<time>2012-07-26T13:12:49Z</time>
<speed>3.710000</speed>
<extensions>
<speed>3.7</speed>
<temp>0.00</temp>
<bpm>0</bpm>
<rpm>0.00</rpm>
</extensions>
</trkpt>
<trkpt lat="63.799140930" lon="-19.368024826">
<ele>524.875000</ele>
<time>2012-07-26T13:12:54Z</time>
<speed>3.980000</speed>
<extensions>
<speed>4.0</speed>
<temp>0.00</temp>
<bpm>0</bpm>
<rpm>0.00</rpm>
</extensions>
</trkpt>
<trkpt lat="63.799037933" lon="-19.368360519">
<ele>524.218750</ele>
<time>2012-07-26T13:12:59Z</time>
<speed>3.840000</speed>
<extensions>
<speed>3.8</speed>
<temp>0.00</temp>
<bpm>0</bpm>
<rpm>0.00</rpm>
</extensions>
</trkpt>
<trkpt lat="63.798942566" lon="-19.368646622">
<ele>523.343750</ele>
<time>2012-07-26T13:13:04Z</time>
<speed>3.580000</speed>
<extensions>
<speed>3.6</speed>
<temp>0.00</temp>
<bpm>0</bpm>
<rpm>0.00</rpm>
</extensions>
</trkpt>
<trkpt lat="63.798858643" lon="-19.368927002">
<ele>523.578125</ele>
<time>2012-07-26T13:13:09Z</time>
<speed>3.260000</speed>
<extensions>
<speed>3.3</speed>
<temp>0.00</temp>
<bpm>0</bpm>
<rpm>0.00</rpm>
</extensions>
</trkpt>
<trkpt lat="63.798767090" lon="-19.369194031">
<ele>521.656250</ele>
<time>2012-07-26T13:13:14Z</time>
<speed>3.250000</speed>
<extensions>
<speed>3.2</speed>
<temp>0.00</temp>
<bpm>0</bpm>
<rpm>0.00</rpm>
</extensions>
</trkpt>
<trkpt lat="63.798664093" lon="-19.369470596">
<ele>519.484375</ele>
<time>2012-07-26T13:13:19Z</time>
<speed>3.760000</speed>
<extensions>
<speed>3.8</speed>
<temp>0.00</temp>
<bpm>0</bpm>
<rpm>0.00</rpm>
</extensions>
</trkpt>
<trkpt lat="63.798557281" lon="-19.369768143">
<ele>523.453125</ele>
<time>2012-07-26T13:13:24Z</time>
<speed>3.870000</speed>
<extensions>
<speed>3.9</speed>
<temp>0.00</temp>
<bpm>0</bpm>
<rpm>0.00</rpm>
</extensions>
</trkpt>
<trkpt lat="63.798419952" lon="-19.370063782">
<ele>522.109375</ele>
<time>2012-07-26T13:13:29Z</time>
<speed>4.570000</speed>
<extensions>
<speed>4.6</speed>
<temp>0.00</temp>
<bpm>0</bpm>
<rpm>0.00</rpm>
</extensions>
</trkpt>
<trkpt lat="63.798252106" lon="-19.370382309">
<ele>520.406250</ele>
<time>2012-07-26T13:13:34Z</time>
<speed>4.970000</speed>
<extensions>
<speed>5.0</speed>
<temp>0.00</temp>
<bpm>0</bpm>
<rpm>0.00</rpm>
</extensions>
</trkpt>
<trkpt lat="63.798088074" lon="-19.370712280">
<ele>519.234375</ele>
<time>2012-07-26T13:13:39Z</time>
<speed>4.600000</speed>
<extensions>
<speed>4.6</speed>
<temp>0.00</temp>
<bpm>0</bpm>
<rpm>0.00</rpm>
</extensions>
</trkpt>
<trkpt lat="63.797946930" lon="-19.371030807">
<ele>517.265625</ele>
<time>2012-07-26T13:13:44Z</time>
<speed>4.250000</speed>
<extensions>
<speed>4.3</speed>
<temp>0.00</temp>
<bpm>0</bpm>
<rpm>0.00</rpm>
</extensions>
</trkpt>
<trkpt lat="63.797809601" lon="-19.371383667">
<ele>515.093750</ele>
<time>2012-07-26T13:13:49Z</time>
<speed>4.430000</speed>
<extensions>
<speed>4.4</speed>
<temp>0.00</temp>
<bpm>0</bpm>
<rpm>0.00</rpm>
</extensions>
</trkpt>
<trkpt lat="63.797683716" lon="-19.371740341">
<ele>514.390625</ele>
<time>2012-07-26T13:13:54Z</time>
<speed>4.390000</speed>
<extensions>
<speed>4.4</speed>
<temp>0.00</temp>
<bpm>0</bpm>
<rpm>0.00</rpm>
</extensions>
</trkpt>
<trkpt lat="63.797561646" lon="-19.372085571">
<ele>511.109375</ele>
<time>2012-07-26T13:13:59Z</time>
<speed>4.160000</speed>
<extensions>
<speed>4.2</speed>
<temp>0.00</temp>
<bpm>0</bpm>
<rpm>0.00</rpm>
</extensions>
</trkpt>
<trkpt lat="63.797424316" lon="-19.372396469">
<ele>508.765625</ele>
<time>2012-07-26T13:14:04Z</time>
<speed>4.200000</speed>
<extensions>
<speed>4.2</speed>
<temp>0.00</temp>
<bpm>0</bpm>
<rpm>0.00</rpm>
</extensions>
</trkpt>
<trkpt lat="63.797286987" lon="-19.372694016">
<ele>508.085938</ele>
<time>2012-07-26T13:14:09Z</time>
<speed>4.100000</speed>
<extensions>
<speed>4.1</speed>
<temp>0.00</temp>
<bpm>0</bpm>
<rpm>0.00</rpm>
</extensions>
</trkpt>
<trkpt lat="63.797153473" lon="-19.373001099">
<ele>508.429688</ele>
<time>2012-07-26T13:14:14Z</time>
<speed>4.320000</speed>
<extensions>
<speed>4.3</speed>
<temp>0.00</temp>
<bpm>0</bpm>
<rpm>0.00</rpm>
</extensions>
</trkpt>
<trkpt lat="63.797016144" lon="-19.373332977">
<ele>508.257813</ele>
<time>2012-07-26T13:14:19Z</time>
<speed>4.610000</speed>
<extensions>
<speed>4.6</speed>
<temp>0.00</temp>
<bpm>0</bpm>
<rpm>0.00</rpm>
</extensions>
</trkpt>
<trkpt lat="63.796894073" lon="-19.373676300">
<ele>509.109375</ele>
<time>2012-07-26T13:14:24Z</time>
<speed>4.080000</speed>
<extensions>
<speed>4.1</speed>
<temp>0.00</temp>
<bpm>0</bpm>
<rpm>0.00</rpm>
</extensions>
</trkpt>
<trkpt lat="63.796772003" lon="-19.374021530">
<ele>510.085938</ele>
<time>2012-07-26T13:14:29Z</time>
<speed>4.320000</speed>
<extensions>
<speed>4.3</speed>
<temp>0.00</temp>
<bpm>0</bpm>
<rpm>0.00</rpm>
</extensions>
</trkpt>
<trkpt lat="63.796665192" lon="-19.374336243">
<ele>511.773438</ele>
<time>2012-07-26T13:14:34Z</time>
<speed>3.890000</speed>
<extensions>
<speed>3.9</speed>
<temp>0.00</temp>
<bpm>0</bpm>
<rpm>0.00</rpm>
</extensions>
</trkpt>
<trkpt lat="63.796573639" lon="-19.374622345">
<ele>513.109375</ele>
<time>2012-07-26T13:14:39Z</time>
<speed>3.320000</speed>
<extensions>
<speed>3.3</speed>
<temp>0.00</temp>
<bpm>0</bpm>
<rpm>0.00</rpm>
</extensions>
</trkpt>
<trkpt lat="63.796463013" lon="-19.374898911">
<ele>513.812500</ele>
<time>2012-07-26T13:14:44Z</time>
<speed>3.700000</speed>
<extensions>
<speed>3.7</speed>
<temp>0.00</temp>
<bpm>0</bpm>
<rpm>0.00</rpm>
</extensions>
</trkpt>
<trkpt lat="63.796363831" lon="-19.375246048">
<ele>515.765625</ele>
<time>2012-07-26T13:14:49Z</time>
<speed>4.080000</speed>
<extensions>
<speed>4.1</speed>
<temp>0.00</temp>
<bpm>0</bpm>
<rpm>0.00</rpm>
</extensions>
</trkpt>
<trkpt lat="63.796321869" lon="-19.375534058">
<ele>516.250000</ele>
<time>2012-07-26T13:14:54Z</time>
<speed>2.260000</speed>
<extensions>
<speed>2.3</speed>
<temp>0.00</temp>
<bpm>0</bpm>
<rpm>0.00</rpm>
</extensions>
</trkpt>
<trkpt lat="63.796306610" lon="-19.375736237">
<ele>517.625000</ele>
<time>2012-07-26T13:14:59Z</time>
<speed>1.950000</speed>
<extensions>
<speed>1.9</speed>
<temp>0.00</temp>
<bpm>0</bpm>
<rpm>0.00</rpm>
</extensions>
</trkpt>
<trkpt lat="63.796321869" lon="-19.375946045">
<ele>519.984375</ele>
<time>2012-07-26T13:15:04Z</time>
<speed>2.320000</speed>
<extensions>
<speed>2.3</speed>
<temp>0.00</temp>
<bpm>0</bpm>
<rpm>0.00</rpm>
</extensions>
</trkpt>
<trkpt lat="63.796352386" lon="-19.376171112">
<ele>520.140625</ele>
<time>2012-07-26T13:15:09Z</time>
<speed>2.460000</speed>
<extensions>
<speed>2.5</speed>
<temp>0.00</temp>
<bpm>0</bpm>
<rpm>0.00</rpm>
</extensions>
</trkpt>
<trkpt lat="63.796363831" lon="-19.376440048">
<ele>520.937500</ele>
<time>2012-07-26T13:15:14Z</time>
<speed>2.410000</speed>
<extensions>
<speed>2.4</speed>
<temp>0.00</temp>
<bpm>0</bpm>
<rpm>0.00</rpm>
</extensions>
</trkpt>
<trkpt lat="63.796348572" lon="-19.376708984">
<ele>522.437500</ele>
<time>2012-07-26T13:15:19Z</time>
<speed>2.620000</speed>
<extensions>
<speed>2.6</speed>
<temp>0.00</temp>
<bpm>0</bpm>
<rpm>0.00</rpm>
</extensions>
</trkpt>
<trkpt lat="63.796295166" lon="-19.376958847">
<ele>522.609375</ele>
<time>2012-07-26T13:15:24Z</time>
<speed>2.880000</speed>
<extensions>
<speed>2.9</speed>
<temp>0.00</temp>
<bpm>0</bpm>
<rpm>0.00</rpm>
</extensions>
</trkpt>
<trkpt lat="63.796195984" lon="-19.377176285">
<ele>521.656250</ele>
<time>2012-07-26T13:15:29Z</time>
<speed>2.870000</speed>
<extensions>
<speed>2.9</speed>
<temp>0.00</temp>
<bpm>0</bpm>
<rpm>0.00</rpm>
</extensions>
</trkpt>
<trkpt lat="63.796100616" lon="-19.377443314">
<ele>519.390625</ele>
<time>2012-07-26T13:15:34Z</time>
<speed>3.430000</speed>
<extensions>
<speed>3.4</speed>
<temp>0.00</temp>
<bpm>0</bpm>
<rpm>0.00</rpm>
</extensions>
</trkpt>
<trkpt lat="63.796016693" lon="-19.377693176">
<ele>517.796875</ele>
<time>2012-07-26T13:15:39Z</time>
<speed>3.240000</speed>
<extensions>
<speed>3.2</speed>
<temp>0.00</temp>
<bpm>0</bpm>
<rpm>0.00</rpm>
</extensions>
</trkpt>
<trkpt lat="63.795978546" lon="-19.377986908">
<ele>518.718750</ele>
<time>2012-07-26T13:15:44Z</time>
<speed>2.740000</speed>
<extensions>
<speed>2.7</speed>
<temp>0.00</temp>
<bpm>0</bpm>
<rpm>0.00</rpm>
</extensions>
</trkpt>
<trkpt lat="63.796009064" lon="-19.378267288">
<ele>519.328125</ele>
<time>2012-07-26T13:15:49Z</time>
<speed>2.570000</speed>
<extensions>
<speed>2.6</speed>
<temp>0.00</temp>
<bpm>0</bpm>
<rpm>0.00</rpm>
</extensions>
</trkpt>
<trkpt lat="63.796062469" lon="-19.378456116">
<ele>520.484375</ele>
<time>2012-07-26T13:15:54Z</time>
<speed>2.220000</speed>
<extensions>
<speed>2.2</speed>
<temp>0.00</temp>
<bpm>0</bpm>
<rpm>0.00</rpm>
</extensions>
</trkpt>
<trkpt lat="63.796115875" lon="-19.378620148">
<ele>522.093750</ele>
<time>2012-07-26T13:15:59Z</time>
<speed>2.090000</speed>
<extensions>
<speed>2.1</speed>
<temp>0.00</temp>
<bpm>0</bpm>
<rpm>0.00</rpm>
</extensions>
</trkpt>
<trkpt lat="63.796150208" lon="-19.378810883">
<ele>521.765625</ele>
<time>2012-07-26T13:16:04Z</time>
<speed>2.080000</speed>
<extensions>
<speed>2.1</speed>
<temp>0.00</temp>
<bpm>0</bpm>
<rpm>0.00</rpm>
</extensions>
</trkpt>
<trkpt lat="63.796161652" lon="-19.379055023">
<ele>522.578125</ele>
<time>2012-07-26T13:16:09Z</time>
<speed>2.340000</speed>
<extensions>
<speed>2.3</speed>
<temp>0.00</temp>
<bpm>0</bpm>
<rpm>0.00</rpm>
</extensions>
</trkpt>
<trkpt lat="63.796134949" lon="-19.379264832">
<ele>522.453125</ele>
<time>2012-07-26T13:16:14Z</time>
<speed>2.370000</speed>
<extensions>
<speed>2.4</speed>
<temp>0.00</temp>
<bpm>0</bpm>
<rpm>0.00</rpm>
</extensions>
</trkpt>
<trkpt lat="63.796077728" lon="-19.379507065">
<ele>521.859375</ele>
<time>2012-07-26T13:16:19Z</time>
<speed>2.560000</speed>
<extensions>
<speed>2.6</speed>
<temp>0.00</temp>
<bpm>0</bpm>
<rpm>0.00</rpm>
</extensions>
</trkpt>
<trkpt lat="63.796012878" lon="-19.379707336">
<ele>520.406250</ele>
<time>2012-07-26T13:16:24Z</time>
<speed>1.960000</speed>
<extensions>
<speed>2.0</speed>
<temp>0.00</temp>
<bpm>0</bpm>
<rpm>0.00</rpm>
</extensions>
</trkpt>
<trkpt lat="63.795940399" lon="-19.379880905">
<ele>520.000000</ele>
<time>2012-07-26T13:16:29Z</time>
<speed>2.570000</speed>
<extensions>
<speed>2.6</speed>
<temp>0.00</temp>
<bpm>0</bpm>
<rpm>0.00</rpm>
</extensions>
</trkpt>
<trkpt lat="63.795856476" lon="-19.380062103">
<ele>518.750000</ele>
<time>2012-07-26T13:16:34Z</time>
<speed>2.450000</speed>
<extensions>
<speed>2.4</speed>
<temp>0.00</temp>
<bpm>0</bpm>
<rpm>0.00</rpm>
</extensions>
</trkpt>
<trkpt lat="63.795764923" lon="-19.380233765">
<ele>517.734375</ele>
<time>2012-07-26T13:16:39Z</time>
<speed>2.390000</speed>
<extensions>
<speed>2.4</speed>
<temp>0.00</temp>
<bpm>0</bpm>
<rpm>0.00</rpm>
</extensions>
</trkpt>
<trkpt lat="63.795684814" lon="-19.380403519">
<ele>518.234375</ele>
<time>2012-07-26T13:16:44Z</time>
<speed>2.010000</speed>
<extensions>
<speed>2.0</speed>
<temp>0.00</temp>
<bpm>0</bpm>
<rpm>0.00</rpm>
</extensions>
</trkpt>
<trkpt lat="63.795608521" lon="-19.380565643">
<ele>518.718750</ele>
<time>2012-07-26T13:16:49Z</time>
<speed>2.550000</speed>
<extensions>
<speed>2.6</speed>
<temp>0.00</temp>
<bpm>0</bpm>
<rpm>0.00</rpm>
</extensions>
</trkpt>
<trkpt lat="63.795528412" lon="-19.380731583">
<ele>519.750000</ele>
<time>2012-07-26T13:16:54Z</time>
<speed>2.460000</speed>
<extensions>
<speed>2.5</speed>
<temp>0.00</temp>
<bpm>0</bpm>
<rpm>0.00</rpm>
</extensions>
</trkpt>
<trkpt lat="63.795440674" lon="-19.380912781">
<ele>518.390625</ele>
<time>2012-07-26T13:16:59Z</time>
<speed>2.800000</speed>
<extensions>
<speed>2.8</speed>
<temp>0.00</temp>
<bpm>0</bpm>
<rpm>0.00</rpm>
</extensions>
</trkpt>
<trkpt lat="63.795364380" lon="-19.381116867">
<ele>518.453125</ele>
<time>2012-07-26T13:17:04Z</time>
<speed>2.330000</speed>
<extensions>
<speed>2.3</speed>
<temp>0.00</temp>
<bpm>0</bpm>
<rpm>0.00</rpm>
</extensions>
</trkpt>
<trkpt lat="63.795295715" lon="-19.381286621">
<ele>518.015625</ele>
<time>2012-07-26T13:17:09Z</time>
<speed>2.600000</speed>
<extensions>
<speed>2.6</speed>
<temp>0.00</temp>
<bpm>0</bpm>
<rpm>0.00</rpm>
</extensions>
</trkpt>
<trkpt lat="63.795246124" lon="-19.381546021">
<ele>518.953125</ele>
<time>2012-07-26T13:17:14Z</time>
<speed>2.330000</speed>
<extensions>
<speed>2.3</speed>
<temp>0.00</temp>
<bpm>0</bpm>
<rpm>0.00</rpm>
</extensions>
</trkpt>
<trkpt lat="63.795192719" lon="-19.381771088">
<ele>518.218750</ele>
<time>2012-07-26T13:17:19Z</time>
<speed>2.580000</speed>
<extensions>
<speed>2.6</speed>
<temp>0.00</temp>
<bpm>0</bpm>
<rpm>0.00</rpm>
</extensions>
</trkpt>
<trkpt lat="63.795146942" lon="-19.382024765">
<ele>517.765625</ele>
<time>2012-07-26T13:17:24Z</time>
<speed>2.720000</speed>
<extensions>
<speed>2.7</speed>
<temp>0.00</temp>
<bpm>0</bpm>
<rpm>0.00</rpm>
</extensions>
</trkpt>
<trkpt lat="63.795085907" lon="-19.382219315">
<ele>516.656250</ele>
<time>2012-07-26T13:17:29Z</time>
<speed>2.310000</speed>
<extensions>
<speed>2.3</speed>
<temp>0.00</temp>
<bpm>0</bpm>
<rpm>0.00</rpm>
</extensions>
</trkpt>
<trkpt lat="63.795009613" lon="-19.382444382">
<ele>517.312500</ele>
<time>2012-07-26T13:17:34Z</time>
<speed>3.020000</speed>
<extensions>
<speed>3.0</speed>
<temp>0.00</temp>
<bpm>0</bpm>
<rpm>0.00</rpm>
</extensions>
</trkpt>
<trkpt lat="63.794929504" lon="-19.382673264">
<ele>517.953125</ele>
<time>2012-07-26T13:17:39Z</time>
<speed>2.760000</speed>
<extensions>
<speed>2.8</speed>
<temp>0.00</temp>
<bpm>0</bpm>
<rpm>0.00</rpm>
</extensions>
</trkpt>
<trkpt lat="63.794845581" lon="-19.382884979">
<ele>519.500000</ele>
<time>2012-07-26T13:17:44Z</time>
<speed>2.910000</speed>
<extensions>
<speed>2.9</speed>
<temp>0.00</temp>
<bpm>0</bpm>
<rpm>0.00</rpm>
</extensions>
</trkpt>
<trkpt lat="63.794757843" lon="-19.383090973">
<ele>518.765625</ele>
<time>2012-07-26T13:17:49Z</time>
<speed>2.550000</speed>
<extensions>
<speed>2.6</speed>
<temp>0.00</temp>
<bpm>0</bpm>
<rpm>0.00</rpm>
</extensions>
</trkpt>
<trkpt lat="63.794708252" lon="-19.383300781">
<ele>518.406250</ele>
<time>2012-07-26T13:17:54Z</time>
<speed>2.240000</speed>
<extensions>
<speed>2.2</speed>
<temp>0.00</temp>
<bpm>0</bpm>
<rpm>0.00</rpm>
</extensions>
</trkpt>
<trkpt lat="63.794666290" lon="-19.383520126">
<ele>517.078125</ele>
<time>2012-07-26T13:17:59Z</time>
<speed>2.640000</speed>
<extensions>
<speed>2.6</speed>
<temp>0.00</temp>
<bpm>0</bpm>
<rpm>0.00</rpm>
</extensions>
</trkpt>
<trkpt lat="63.794624329" lon="-19.383800507">
<ele>517.453125</ele>
<time>2012-07-26T13:18:04Z</time>
<speed>2.710000</speed>
<extensions>
<speed>2.7</speed>
<temp>0.00</temp>
<bpm>0</bpm>
<rpm>0.00</rpm>
</extensions>
</trkpt>
<trkpt lat="63.794593811" lon="-19.384025574">
<ele>518.281250</ele>
<time>2012-07-26T13:18:09Z</time>
<speed>2.290000</speed>
<extensions>
<speed>2.3</speed>
<temp>0.00</temp>
<bpm>0</bpm>
<rpm>0.00</rpm>
</extensions>
</trkpt>
<trkpt lat="63.794551849" lon="-19.384290695">
<ele>518.515625</ele>
<time>2012-07-26T13:18:14Z</time>
<speed>3.120000</speed>
<extensions>
<speed>3.1</speed>
<temp>0.00</temp>
<bpm>0</bpm>
<rpm>0.00</rpm>
</extensions>
</trkpt>
<trkpt lat="63.794502258" lon="-19.384611130">
<ele>517.046875</ele>
<time>2012-07-26T13:18:19Z</time>
<speed>3.170000</speed>
<extensions>
<speed>3.2</speed>
<temp>0.00</temp>
<bpm>0</bpm>
<rpm>0.00</rpm>
</extensions>
</trkpt>
<trkpt lat="63.794460297" lon="-19.384881973">
<ele>517.078125</ele>
<time>2012-07-26T13:18:24Z</time>
<speed>2.560000</speed>
<extensions>
<speed>2.6</speed>
<temp>0.00</temp>
<bpm>0</bpm>
<rpm>0.00</rpm>
</extensions>
</trkpt>
<trkpt lat="63.794414520" lon="-19.385107040">
<ele>517.171875</ele>
<time>2012-07-26T13:18:29Z</time>
<speed>2.350000</speed>
<extensions>
<speed>2.4</speed>
<temp>0.00</temp>
<bpm>0</bpm>
<rpm>0.00</rpm>
</extensions>
</trkpt>
<trkpt lat="63.794387817" lon="-19.385326385">
<ele>516.937500</ele>
<time>2012-07-26T13:18:34Z</time>
<speed>2.200000</speed>
<extensions>
<speed>2.2</speed>
<temp>0.00</temp>
<bpm>0</bpm>
<rpm>0.00</rpm>
</extensions>
</trkpt>
<trkpt lat="63.794349670" lon="-19.385559082">
<ele>517.390625</ele>
<time>2012-07-26T13:18:39Z</time>
<speed>2.490000</speed>
<extensions>
<speed>2.5</speed>
<temp>0.00</temp>
<bpm>0</bpm>
<rpm>0.00</rpm>
</extensions>
</trkpt>
<trkpt lat="63.794300079" lon="-19.385807037">
<ele>519.921875</ele>
<time>2012-07-26T13:18:44Z</time>
<speed>2.420000</speed>
<extensions>
<speed>2.4</speed>
<temp>0.00</temp>
<bpm>0</bpm>
<rpm>0.00</rpm>
</extensions>
</trkpt>
<trkpt lat="63.794265747" lon="-19.385997772">
<ele>520.421875</ele>
<time>2012-07-26T13:18:49Z</time>
<speed>2.330000</speed>
<extensions>
<speed>2.3</speed>
<temp>0.00</temp>
<bpm>0</bpm>
<rpm>0.00</rpm>
</extensions>
</trkpt>
<trkpt lat="63.794223785" lon="-19.386240005">
<ele>520.937500</ele>
<time>2012-07-26T13:18:54Z</time>
<speed>2.870000</speed>
<extensions>
<speed>2.9</speed>
<temp>0.00</temp>
<bpm>0</bpm>
<rpm>0.00</rpm>
</extensions>
</trkpt>
<trkpt lat="63.794147491" lon="-19.386436462">
<ele>522.671875</ele>
<time>2012-07-26T13:18:59Z</time>
<speed>2.390000</speed>
<extensions>
<speed>2.4</speed>
<temp>0.00</temp>
<bpm>0</bpm>
<rpm>0.00</rpm>
</extensions>
</trkpt>
<trkpt lat="63.794075012" lon="-19.386600494">
<ele>521.796875</ele>
<time>2012-07-26T13:19:04Z</time>
<speed>2.320000</speed>
<extensions>
<speed>2.3</speed>
<temp>0.00</temp>
<bpm>0</bpm>
<rpm>0.00</rpm>
</extensions>
</trkpt>
<trkpt lat="63.794017792" lon="-19.386835098">
<ele>520.515625</ele>
<time>2012-07-26T13:19:09Z</time>
<speed>2.440000</speed>
<extensions>
<speed>2.4</speed>
<temp>0.00</temp>
<bpm>0</bpm>
<rpm>0.00</rpm>
</extensions>
</trkpt>
<trkpt lat="63.793979645" lon="-19.387046814">
<ele>519.640625</ele>
<time>2012-07-26T13:19:14Z</time>
<speed>2.180000</speed>
<extensions>
<speed>2.2</speed>
<temp>0.00</temp>
<bpm>0</bpm>
<rpm>0.00</rpm>
</extensions>
</trkpt>
<trkpt lat="63.793956757" lon="-19.387279510">
<ele>520.203125</ele>
<time>2012-07-26T13:19:19Z</time>
<speed>2.080000</speed>
<extensions>
<speed>2.1</speed>
<temp>0.00</temp>
<bpm>0</bpm>
<rpm>0.00</rpm>
</extensions>
</trkpt>
<trkpt lat="63.793910980" lon="-19.387483597">
<ele>518.921875</ele>
<time>2012-07-26T13:19:24Z</time>
<speed>2.490000</speed>
<extensions>
<speed>2.5</speed>
<temp>0.00</temp>
<bpm>0</bpm>
<rpm>0.00</rpm>
</extensions>
</trkpt>
<trkpt lat="63.793884277" lon="-19.387710571">
<ele>518.890625</ele>
<time>2012-07-26T13:19:29Z</time>
<speed>2.190000</speed>
<extensions>
<speed>2.2</speed>
<temp>0.00</temp>
<bpm>0</bpm>
<rpm>0.00</rpm>
</extensions>
</trkpt>
<trkpt lat="63.793865204" lon="-19.387939453">
<ele>518.312500</ele>
<time>2012-07-26T13:19:34Z</time>
<speed>2.380000</speed>
<extensions>
<speed>2.4</speed>
<temp>0.00</temp>
<bpm>0</bpm>
<rpm>0.00</rpm>
</extensions>
</trkpt>
<trkpt lat="63.793823242" lon="-19.388172150">
<ele>518.437500</ele>
<time>2012-07-26T13:19:39Z</time>
<speed>3.420000</speed>
<extensions>
<speed>3.4</speed>
<temp>0.00</temp>
<bpm>0</bpm>
<rpm>0.00</rpm>
</extensions>
</trkpt>
<trkpt lat="63.793796539" lon="-19.388402939">
<ele>517.593750</ele>
<time>2012-07-26T13:19:44Z</time>
<speed>2.340000</speed>
<extensions>
<speed>2.3</speed>
<temp>0.00</temp>
<bpm>0</bpm>
<rpm>0.00</rpm>
</extensions>
</trkpt>
<trkpt lat="63.793792725" lon="-19.388622284">
<ele>516.984375</ele>
<time>2012-07-26T13:19:49Z</time>
<speed>1.870000</speed>
<extensions>
<speed>1.9</speed>
<temp>0.00</temp>
<bpm>0</bpm>
<rpm>0.00</rpm>
</extensions>
</trkpt>
<trkpt lat="63.793781281" lon="-19.388805389">
<ele>517.031250</ele>
<time>2012-07-26T13:19:54Z</time>
<speed>1.940000</speed>
<extensions>
<speed>1.9</speed>
<temp>0.00</temp>
<bpm>0</bpm>
<rpm>0.00</rpm>
</extensions>
</trkpt>
<trkpt lat="63.793739319" lon="-19.388973236">
<ele>516.593750</ele>
<time>2012-07-26T13:19:59Z</time>
<speed>1.890000</speed>
<extensions>
<speed>1.9</speed>
<temp>0.00</temp>
<bpm>0</bpm>
<rpm>0.00</rpm>
</extensions>
</trkpt>
<trkpt lat="63.793678284" lon="-19.389158249">
<ele>514.984375</ele>
<time>2012-07-26T13:20:04Z</time>
<speed>2.360000</speed>
<extensions>
<speed>2.4</speed>
<temp>0.00</temp>
<bpm>0</bpm>
<rpm>0.00</rpm>
</extensions>
</trkpt>
<trkpt lat="63.793609619" lon="-19.389354706">
<ele>514.531250</ele>
<time>2012-07-26T13:20:09Z</time>
<speed>2.380000</speed>
<extensions>
<speed>2.4</speed>
<temp>0.00</temp>
<bpm>0</bpm>
<rpm>0.00</rpm>
</extensions>
</trkpt>
<trkpt lat="63.793556213" lon="-19.389532089">
<ele>514.578125</ele>
<time>2012-07-26T13:20:14Z</time>
<speed>2.230000</speed>
<extensions>
<speed>2.2</speed>
<temp>0.00</temp>
<bpm>0</bpm>
<rpm>0.00</rpm>
</extensions>
</trkpt>
<trkpt lat="63.793479919" lon="-19.389707565">
<ele>514.968750</ele>
<time>2012-07-26T13:20:19Z</time>
<speed>2.540000</speed>
<extensions>
<speed>2.5</speed>
<temp>0.00</temp>
<bpm>0</bpm>
<rpm>0.00</rpm>
</extensions>
</trkpt>
<trkpt lat="63.793434143" lon="-19.389936447">
<ele>519.406250</ele>
<time>2012-07-26T13:20:24Z</time>
<speed>2.490000</speed>
<extensions>
<speed>2.5</speed>
<temp>0.00</temp>
<bpm>0</bpm>
<rpm>0.00</rpm>
</extensions>
</trkpt>
<trkpt lat="63.793376923" lon="-19.390148163">
<ele>520.437500</ele>
<time>2012-07-26T13:20:29Z</time>
<speed>2.200000</speed>
<extensions>
<speed>2.2</speed>
<temp>0.00</temp>
<bpm>0</bpm>
<rpm>0.00</rpm>
</extensions>
</trkpt>
<trkpt lat="63.793281555" lon="-19.390338898">
<ele>518.625000</ele>
<time>2012-07-26T13:20:34Z</time>
<speed>2.890000</speed>
<extensions>
<speed>2.9</speed>
<temp>0.00</temp>
<bpm>0</bpm>
<rpm>0.00</rpm>
</extensions>
</trkpt>
<trkpt lat="63.793197632" lon="-19.390615463">
<ele>517.296875</ele>
<time>2012-07-26T13:20:39Z</time>
<speed>3.270000</speed>
<extensions>
<speed>3.3</speed>
<temp>0.00</temp>
<bpm>0</bpm>
<rpm>0.00</rpm>
</extensions>
</trkpt>
<trkpt lat="63.793167114" lon="-19.390937805">
<ele>515.671875</ele>
<time>2012-07-26T13:20:44Z</time>
<speed>3.430000</speed>
<extensions>
<speed>3.4</speed>
<temp>0.00</temp>
<bpm>0</bpm>
<rpm>0.00</rpm>
</extensions>
</trkpt>
<trkpt lat="63.793167114" lon="-19.391284943">
<ele>514.000000</ele>
<time>2012-07-26T13:20:49Z</time>
<speed>3.240000</speed>
<extensions>
<speed>3.2</speed>
<temp>0.00</temp>
<bpm>0</bpm>
<rpm>0.00</rpm>
</extensions>
</trkpt>
<trkpt lat="63.793178558" lon="-19.391559601">
<ele>514.171875</ele>
<time>2012-07-26T13:20:54Z</time>
<speed>2.770000</speed>
<extensions>
<speed>2.8</speed>
<temp>0.00</temp>
<bpm>0</bpm>
<rpm>0.00</rpm>
</extensions>
</trkpt>
<trkpt lat="63.793155670" lon="-19.391811371">
<ele>512.671875</ele>
<time>2012-07-26T13:20:59Z</time>
<speed>2.000000</speed>
<extensions>
<speed>2.0</speed>
<temp>0.00</temp>
<bpm>0</bpm>
<rpm>0.00</rpm>
</extensions>
</trkpt>
<trkpt lat="63.793098450" lon="-19.392059326">
<ele>512.453125</ele>
<time>2012-07-26T13:21:04Z</time>
<speed>3.280000</speed>
<extensions>
<speed>3.3</speed>
<temp>0.00</temp>
<bpm>0</bpm>
<rpm>0.00</rpm>
</extensions>
</trkpt>
<trkpt lat="63.792999268" lon="-19.392255783">
<ele>512.515625</ele>
<time>2012-07-26T13:21:09Z</time>
<speed>2.550000</speed>
<extensions>
<speed>2.6</speed>
<temp>0.00</temp>
<bpm>0</bpm>
<rpm>0.00</rpm>
</extensions>
</trkpt>
<trkpt lat="63.792896271" lon="-19.392360687">
<ele>513.656250</ele>
<time>2012-07-26T13:21:14Z</time>
<speed>2.590000</speed>
<extensions>
<speed>2.6</speed>
<temp>0.00</temp>
<bpm>0</bpm>
<rpm>0.00</rpm>
</extensions>
</trkpt>
<trkpt lat="63.792789459" lon="-19.392475128">
<ele>515.500000</ele>
<time>2012-07-26T13:21:19Z</time>
<speed>2.440000</speed>
<extensions>
<speed>2.4</speed>
<temp>0.00</temp>
<bpm>0</bpm>
<rpm>0.00</rpm>
</extensions>
</trkpt>
<trkpt lat="63.792728424" lon="-19.392641068">
<ele>516.078125</ele>
<time>2012-07-26T13:21:24Z</time>
<speed>2.360000</speed>
<extensions>
<speed>2.4</speed>
<temp>0.00</temp>
<bpm>0</bpm>
<rpm>0.00</rpm>
</extensions>
</trkpt>
<trkpt lat="63.792675018" lon="-19.392883301">
<ele>516.796875</ele>
<time>2012-07-26T13:21:29Z</time>
<speed>2.670000</speed>
<extensions>
<speed>2.7</speed>
<temp>0.00</temp>
<bpm>0</bpm>
<rpm>0.00</rpm>
</extensions>
</trkpt>
<trkpt lat="63.792613983" lon="-19.393100739">
<ele>516.546875</ele>
<time>2012-07-26T13:21:34Z</time>
<speed>2.770000</speed>
<extensions>
<speed>2.8</speed>
<temp>0.00</temp>
<bpm>0</bpm>
<rpm>0.00</rpm>
</extensions>
</trkpt>
<trkpt lat="63.792545319" lon="-19.393352509">
<ele>515.906250</ele>
<time>2012-07-26T13:21:39Z</time>
<speed>3.010000</speed>
<extensions>
<speed>3.0</speed>
<temp>0.00</temp>
<bpm>0</bpm>
<rpm>0.00</rpm>
</extensions>
</trkpt>
<trkpt lat="63.792495728" lon="-19.393585205">
<ele>516.062500</ele>
<time>2012-07-26T13:21:44Z</time>
<speed>2.850000</speed>
<extensions>
<speed>2.9</speed>
<temp>0.00</temp>
<bpm>0</bpm>
<rpm>0.00</rpm>
</extensions>
</trkpt>
<trkpt lat="63.792415619" lon="-19.393852234">
<ele>516.671875</ele>
<time>2012-07-26T13:21:49Z</time>
<speed>2.860000</speed>
<extensions>
<speed>2.9</speed>
<temp>0.00</temp>
<bpm>0</bpm>
<rpm>0.00</rpm>
</extensions>
</trkpt>
<trkpt lat="63.792335510" lon="-19.394107819">
<ele>516.625000</ele>
<time>2012-07-26T13:21:54Z</time>
<speed>2.860000</speed>
<extensions>
<speed>2.9</speed>
<temp>0.00</temp>
<bpm>0</bpm>
<rpm>0.00</rpm>
</extensions>
</trkpt>
<trkpt lat="63.792255402" lon="-19.394355774">
<ele>515.984375</ele>
<time>2012-07-26T13:21:59Z</time>
<speed>3.420000</speed>
<extensions>
<speed>3.4</speed>
<temp>0.00</temp>
<bpm>0</bpm>
<rpm>0.00</rpm>
</extensions>
</trkpt>
<trkpt lat="63.792175293" lon="-19.394588470">
<ele>517.234375</ele>
<time>2012-07-26T13:22:04Z</time>
<speed>2.320000</speed>
<extensions>
<speed>2.3</speed>
<temp>0.00</temp>
<bpm>0</bpm>
<rpm>0.00</rpm>
</extensions>
</trkpt>
<trkpt lat="63.792098999" lon="-19.394723892">
<ele>516.500000</ele>
<time>2012-07-26T13:22:09Z</time>
<speed>2.180000</speed>
<extensions>
<speed>2.2</speed>
<temp>0.00</temp>
<bpm>0</bpm>
<rpm>0.00</rpm>
</extensions>
</trkpt>
<trkpt lat="63.792003632" lon="-19.394781113">
<ele>516.171875</ele>
<time>2012-07-26T13:22:14Z</time>
<speed>2.010000</speed>
<extensions>
<speed>2.0</speed>
<temp>0.00</temp>
<bpm>0</bpm>
<rpm>0.00</rpm>
</extensions>
</trkpt>
<trkpt lat="63.791889191" lon="-19.394760132">
<ele>515.734375</ele>
<time>2012-07-26T13:22:19Z</time>
<speed>2.140000</speed>
<extensions>
<speed>2.1</speed>
<temp>0.00</temp>
<bpm>0</bpm>
<rpm>0.00</rpm>
</extensions>
</trkpt>
<trkpt lat="63.791751862" lon="-19.394701004">
<ele>515.453125</ele>
<time>2012-07-26T13:22:24Z</time>
<speed>3.400000</speed>
<extensions>
<speed>3.4</speed>
<temp>0.00</temp>
<bpm>0</bpm>
<rpm>0.00</rpm>
</extensions>
</trkpt>
<trkpt lat="63.791618347" lon="-19.394660950">
<ele>515.109375</ele>
<time>2012-07-26T13:22:29Z</time>
<speed>2.990000</speed>
<extensions>
<speed>3.0</speed>
<temp>0.00</temp>
<bpm>0</bpm>
<rpm>0.00</rpm>
</extensions>
</trkpt>
<trkpt lat="63.791481018" lon="-19.394720078">
<ele>512.828125</ele>
<time>2012-07-26T13:22:34Z</time>
<speed>2.930000</speed>
<extensions>
<speed>2.9</speed>
<temp>0.00</temp>
<bpm>0</bpm>
<rpm>0.00</rpm>
</extensions>
</trkpt>
<trkpt lat="63.791358948" lon="-19.394947052">
<ele>510.890625</ele>
<time>2012-07-26T13:22:39Z</time>
<speed>4.150000</speed>
<extensions>
<speed>4.1</speed>
<temp>0.00</temp>
<bpm>0</bpm>
<rpm>0.00</rpm>
</extensions>
</trkpt>
<trkpt lat="63.791252136" lon="-19.395246506">
<ele>507.101563</ele>
<time>2012-07-26T13:22:44Z</time>
<speed>3.160000</speed>
<extensions>
<speed>3.2</speed>
<temp>0.00</temp>
<bpm>0</bpm>
<rpm>0.00</rpm>
</extensions>
</trkpt>
<trkpt lat="63.791137695" lon="-19.395610809">
<ele>506.062500</ele>
<time>2012-07-26T13:22:49Z</time>
<speed>5.290000</speed>
<extensions>
<speed>5.3</speed>
<temp>0.00</temp>
<bpm>0</bpm>
<rpm>0.00</rpm>
</extensions>
</trkpt>
<trkpt lat="63.790931702" lon="-19.395818710">
<ele>504.546875</ele>
<time>2012-07-26T13:22:54Z</time>
<speed>4.700000</speed>
<extensions>
<speed>4.7</speed>
<temp>0.00</temp>
<bpm>0</bpm>
<rpm>0.00</rpm>
</extensions>
</trkpt>
<trkpt lat="63.790702820" lon="-19.396066666">
<ele>503.773438</ele>
<time>2012-07-26T13:22:59Z</time>
<speed>6.150000</speed>
<extensions>
<speed>6.1</speed>
<temp>0.00</temp>
<bpm>0</bpm>
<rpm>0.00</rpm>
</extensions>
</trkpt>
<trkpt lat="63.790500641" lon="-19.396451950">
<ele>501.382813</ele>
<time>2012-07-26T13:23:04Z</time>
<speed>5.530000</speed>
<extensions>
<speed>5.5</speed>
<temp>0.00</temp>
<bpm>0</bpm>
<rpm>0.00</rpm>
</extensions>
</trkpt>
<trkpt lat="63.790363312" lon="-19.396814346">
<ele>500.859375</ele>
<time>2012-07-26T13:23:09Z</time>
<speed>4.500000</speed>
<extensions>
<speed>4.5</speed>
<temp>0.00</temp>
<bpm>0</bpm>
<rpm>0.00</rpm>
</extensions>
</trkpt>
<trkpt lat="63.790203094" lon="-19.397155762">
<ele>499.148438</ele>
<time>2012-07-26T13:23:14Z</time>
<speed>5.480000</speed>
<extensions>
<speed>5.5</speed>
<temp>0.00</temp>
<bpm>0</bpm>
<rpm>0.00</rpm>
</extensions>
</trkpt>
<trkpt lat="63.790016174" lon="-19.397523880">
<ele>498.914063</ele>
<time>2012-07-26T13:23:19Z</time>
<speed>4.830000</speed>
<extensions>
<speed>4.8</speed>
<temp>0.00</temp>
<bpm>0</bpm>
<rpm>0.00</rpm>
</extensions>
</trkpt>
<trkpt lat="63.789878845" lon="-19.397823334">
<ele>500.289063</ele>
<time>2012-07-26T13:23:24Z</time>
<speed>3.030000</speed>
<extensions>
<speed>3.0</speed>
<temp>0.00</temp>
<bpm>0</bpm>
<rpm>0.00</rpm>
</extensions>
</trkpt>
<trkpt lat="63.789855957" lon="-19.397930145">
<ele>503.203125</ele>
<time>2012-07-26T13:23:29Z</time>
<speed>0.070000</speed>
<extensions>
<speed>0.1</speed>
<temp>0.00</temp>
<bpm>0</bpm>
<rpm>0.00</rpm>
</extensions>
</trkpt>
<trkpt lat="63.789855957" lon="-19.397930145">
<ele>503.757813</ele>
<time>2012-07-26T13:23:34Z</time>
<extensions>
<speed>0.0</speed>
<temp>0.00</temp>
<bpm>0</bpm>
<rpm>0.00</rpm>
</extensions>
</trkpt>
<trkpt lat="63.789855957" lon="-19.397932053">
<ele>503.742188</ele>
<time>2012-07-26T13:23:39Z</time>
<speed>0.140000</speed>
<extensions>
<speed>0.1</speed>
<temp>0.00</temp>
<bpm>0</bpm>
<rpm>0.00</rpm>
</extensions>
</trkpt>
<trkpt lat="63.789829254" lon="-19.398017883">
<ele>503.882813</ele>
<time>2012-07-26T13:23:44Z</time>
<speed>1.690000</speed>
<extensions>
<speed>1.7</speed>
<temp>0.00</temp>
<bpm>0</bpm>
<rpm>0.00</rpm>
</extensions>
</trkpt>
<trkpt lat="63.789798737" lon="-19.398174286">
<ele>503.375000</ele>
<time>2012-07-26T13:23:49Z</time>
<speed>1.770000</speed>
<extensions>
<speed>1.8</speed>
<temp>0.00</temp>
<bpm>0</bpm>
<rpm>0.00</rpm>
</extensions>
</trkpt>
<trkpt lat="63.789772034" lon="-19.398351669">
<ele>502.671875</ele>
<time>2012-07-26T13:23:54Z</time>
<speed>1.640000</speed>
<extensions>
<speed>1.6</speed>
<temp>0.00</temp>
<bpm>0</bpm>
<rpm>0.00</rpm>
</extensions>
</trkpt>
<trkpt lat="63.789756775" lon="-19.398576736">
<ele>502.554688</ele>
<time>2012-07-26T13:23:59Z</time>
<speed>2.600000</speed>
<extensions>
<speed>2.6</speed>
<temp>0.00</temp>
<bpm>0</bpm>
<rpm>0.00</rpm>
</extensions>
</trkpt>
<trkpt lat="63.789745331" lon="-19.398853302">
<ele>502.898438</ele>
<time>2012-07-26T13:24:04Z</time>
<speed>2.620000</speed>
<extensions>
<speed>2.6</speed>
<temp>0.00</temp>
<bpm>0</bpm>
<rpm>0.00</rpm>
</extensions>
</trkpt>
<trkpt lat="63.789749146" lon="-19.399105072">
<ele>502.109375</ele>
<time>2012-07-26T13:24:09Z</time>
<speed>2.600000</speed>
<extensions>
<speed>2.6</speed>
<temp>0.00</temp>
<bpm>0</bpm>
<rpm>0.00</rpm>
</extensions>
</trkpt>
<trkpt lat="63.789783478" lon="-19.399421692">
<ele>502.203125</ele>
<time>2012-07-26T13:24:14Z</time>
<speed>3.480000</speed>
<extensions>
<speed>3.5</speed>
<temp>0.00</temp>
<bpm>0</bpm>
<rpm>0.00</rpm>
</extensions>
</trkpt>
<trkpt lat="63.789836884" lon="-19.399877548">
<ele>501.062500</ele>
<time>2012-07-26T13:24:19Z</time>
<speed>4.350000</speed>
<extensions>
<speed>4.3</speed>
<temp>0.00</temp>
<bpm>0</bpm>
<rpm>0.00</rpm>
</extensions>
</trkpt>
<trkpt lat="63.789775848" lon="-19.400259018">
<ele>500.843750</ele>
<time>2012-07-26T13:24:24Z</time>
<speed>3.790000</speed>
<extensions>
<speed>3.8</speed>
<temp>0.00</temp>
<bpm>0</bpm>
<rpm>0.00</rpm>
</extensions>
</trkpt>
<trkpt lat="63.789669037" lon="-19.400585175">
<ele>499.445313</ele>
<time>2012-07-26T13:24:29Z</time>
<speed>3.980000</speed>
<extensions>
<speed>4.0</speed>
<temp>0.00</temp>
<bpm>0</bpm>
<rpm>0.00</rpm>
</extensions>
</trkpt>
<trkpt lat="63.789569855" lon="-19.400909424">
<ele>498.250000</ele>
<time>2012-07-26T13:24:34Z</time>
<speed>3.420000</speed>
<extensions>
<speed>3.4</speed>
<temp>0.00</temp>
<bpm>0</bpm>
<rpm>0.00</rpm>
</extensions>
</trkpt>
<trkpt lat="63.789482117" lon="-19.401212692">
<ele>498.703125</ele>
<time>2012-07-26T13:24:39Z</time>
<speed>3.490000</speed>
<extensions>
<speed>3.5</speed>
<temp>0.00</temp>
<bpm>0</bpm>
<rpm>0.00</rpm>
</extensions>
</trkpt>
<trkpt lat="63.789405823" lon="-19.401510239">
<ele>497.226563</ele>
<time>2012-07-26T13:24:44Z</time>
<speed>3.280000</speed>
<extensions>
<speed>3.3</speed>
<temp>0.00</temp>
<bpm>0</bpm>
<rpm>0.00</rpm>
</extensions>
</trkpt>
<trkpt lat="63.789314270" lon="-19.401821136">
<ele>496.289063</ele>
<time>2012-07-26T13:24:49Z</time>
<speed>3.320000</speed>
<extensions>
<speed>3.3</speed>
<temp>0.00</temp>
<bpm>0</bpm>
<rpm>0.00</rpm>
</extensions>
</trkpt>
<trkpt lat="63.789241791" lon="-19.402137756">
<ele>496.046875</ele>
<time>2012-07-26T13:24:54Z</time>
<speed>3.660000</speed>
<extensions>
<speed>3.7</speed>
<temp>0.00</temp>
<bpm>0</bpm>
<rpm>0.00</rpm>
</extensions>
</trkpt>
<trkpt lat="63.789157867" lon="-19.402463913">
<ele>496.632813</ele>
<time>2012-07-26T13:24:59Z</time>
<speed>3.740000</speed>
<extensions>
<speed>3.7</speed>
<temp>0.00</temp>
<bpm>0</bpm>
<rpm>0.00</rpm>
</extensions>
</trkpt>
<trkpt lat="63.789096832" lon="-19.402814865">
<ele>497.507813</ele>
<time>2012-07-26T13:25:04Z</time>
<speed>3.780000</speed>
<extensions>
<speed>3.8</speed>
<temp>0.00</temp>
<bpm>0</bpm>
<rpm>0.00</rpm>
</extensions>
</trkpt>
<trkpt lat="63.789058685" lon="-19.403133392">
<ele>498.468750</ele>
<time>2012-07-26T13:25:09Z</time>
<speed>3.150000</speed>
<extensions>
<speed>3.2</speed>
<temp>0.00</temp>
<bpm>0</bpm>
<rpm>0.00</rpm>
</extensions>
</trkpt>
<trkpt lat="63.789031982" lon="-19.403463364">
<ele>499.046875</ele>
<time>2012-07-26T13:25:14Z</time>
<speed>3.220000</speed>
<extensions>
<speed>3.2</speed>
<temp>0.00</temp>
<bpm>0</bpm>
<rpm>0.00</rpm>
</extensions>
</trkpt>
<trkpt lat="63.788997650" lon="-19.403738022">
<ele>498.101563</ele>
<time>2012-07-26T13:25:19Z</time>
<speed>2.890000</speed>
<extensions>
<speed>2.9</speed>
<temp>0.00</temp>
<bpm>0</bpm>
<rpm>0.00</rpm>
</extensions>
</trkpt>
<trkpt lat="63.788967133" lon="-19.404031754">
<ele>498.406250</ele>
<time>2012-07-26T13:25:24Z</time>
<speed>3.030000</speed>
<extensions>
<speed>3.0</speed>
<temp>0.00</temp>
<bpm>0</bpm>
<rpm>0.00</rpm>
</extensions>
</trkpt>
<trkpt lat="63.788940430" lon="-19.404302597">
<ele>500.960938</ele>
<time>2012-07-26T13:25:29Z</time>
<speed>2.630000</speed>
<extensions>
<speed>2.6</speed>
<temp>0.00</temp>
<bpm>0</bpm>
<rpm>0.00</rpm>
</extensions>
</trkpt>
<trkpt lat="63.788894653" lon="-19.404533386">
<ele>501.906250</ele>
<time>2012-07-26T13:25:34Z</time>
<speed>2.500000</speed>
<extensions>
<speed>2.5</speed>
<temp>0.00</temp>
<bpm>0</bpm>
<rpm>0.00</rpm>
</extensions>
</trkpt>
<trkpt lat="63.788845062" lon="-19.404785156">
<ele>501.984375</ele>
<time>2012-07-26T13:25:39Z</time>
<speed>2.930000</speed>
<extensions>
<speed>2.9</speed>
<temp>0.00</temp>
<bpm>0</bpm>
<rpm>0.00</rpm>
</extensions>
</trkpt>
<trkpt lat="63.788810730" lon="-19.405090332">
<ele>502.437500</ele>
<time>2012-07-26T13:25:44Z</time>
<speed>2.860000</speed>
<extensions>
<speed>2.9</speed>
<temp>0.00</temp>
<bpm>0</bpm>
<rpm>0.00</rpm>
</extensions>
</trkpt>
<trkpt lat="63.788791656" lon="-19.405355453">
<ele>503.156250</ele>
<time>2012-07-26T13:25:49Z</time>
<speed>2.800000</speed>
<extensions>
<speed>2.8</speed>
<temp>0.00</temp>
<bpm>0</bpm>
<rpm>0.00</rpm>
</extensions>
</trkpt>
<trkpt lat="63.788780212" lon="-19.405626297">
<ele>503.046875</ele>
<time>2012-07-26T13:25:54Z</time>
<speed>2.300000</speed>
<extensions>
<speed>2.3</speed>
<temp>0.00</temp>
<bpm>0</bpm>
<rpm>0.00</rpm>
</extensions>
</trkpt>
<trkpt lat="63.788757324" lon="-19.405889511">
<ele>503.375000</ele>
<time>2012-07-26T13:25:59Z</time>
<speed>2.370000</speed>
<extensions>
<speed>2.4</speed>
<temp>0.00</temp>
<bpm>0</bpm>
<rpm>0.00</rpm>
</extensions>
</trkpt>
<trkpt lat="63.788742065" lon="-19.406139374">
<ele>503.593750</ele>
<time>2012-07-26T13:26:04Z</time>
<speed>2.490000</speed>
<extensions>
<speed>2.5</speed>
<temp>0.00</temp>
<bpm>0</bpm>
<rpm>0.00</rpm>
</extensions>
</trkpt>
<trkpt lat="63.788711548" lon="-19.406421661">
<ele>502.890625</ele>
<time>2012-07-26T13:26:09Z</time>
<speed>2.760000</speed>
<extensions>
<speed>2.8</speed>
<temp>0.00</temp>
<bpm>0</bpm>
<rpm>0.00</rpm>
</extensions>
</trkpt>
<trkpt lat="63.788642883" lon="-19.406721115">
<ele>501.734375</ele>
<time>2012-07-26T13:26:14Z</time>
<speed>3.630000</speed>
<extensions>
<speed>3.6</speed>
<temp>0.00</temp>
<bpm>0</bpm>
<rpm>0.00</rpm>
</extensions>
</trkpt>
<trkpt lat="63.788558960" lon="-19.406913757">
<ele>500.187500</ele>
<time>2012-07-26T13:26:19Z</time>
<speed>2.020000</speed>
<extensions>
<speed>2.0</speed>
<temp>0.00</temp>
<bpm>0</bpm>
<rpm>0.00</rpm>
</extensions>
</trkpt>
<trkpt lat="63.788505554" lon="-19.407342911">
<ele>498.156250</ele>
<time>2012-07-26T13:26:24Z</time>
<speed>7.110000</speed>
<extensions>
<speed>7.1</speed>
<temp>0.00</temp>
<bpm>0</bpm>
<rpm>0.00</rpm>
</extensions>
</trkpt>
<trkpt lat="63.788341522" lon="-19.408082962">
<ele>498.414063</ele>
<time>2012-07-26T13:26:29Z</time>
<speed>7.960000</speed>
<extensions>
<speed>8.0</speed>
<temp>0.00</temp>
<bpm>0</bpm>
<rpm>0.00</rpm>
</extensions>
</trkpt>
<trkpt lat="63.788078308" lon="-19.408611298">
<ele>496.640625</ele>
<time>2012-07-26T13:26:34Z</time>
<speed>7.620000</speed>
<extensions>
<speed>7.6</speed>
<temp>0.00</temp>
<bpm>0</bpm>
<rpm>0.00</rpm>
</extensions>
</trkpt>
<trkpt lat="63.787815094" lon="-19.408885956">
<ele>497.398438</ele>
<time>2012-07-26T13:26:39Z</time>
<speed>5.630000</speed>
<extensions>
<speed>5.6</speed>
<temp>0.00</temp>
<bpm>0</bpm>
<rpm>0.00</rpm>
</extensions>
</trkpt>
<trkpt lat="63.787563324" lon="-19.409061432">
<ele>498.679688</ele>
<time>2012-07-26T13:26:44Z</time>
<speed>5.830000</speed>
<extensions>
<speed>5.8</speed>
<temp>0.00</temp>
<bpm>0</bpm>
<rpm>0.00</rpm>
</extensions>
</trkpt>
<trkpt lat="63.787349701" lon="-19.409231186">
<ele>500.546875</ele>
<time>2012-07-26T13:26:49Z</time>
<speed>3.760000</speed>
<extensions>
<speed>3.8</speed>
<temp>0.00</temp>
<bpm>0</bpm>
<rpm>0.00</rpm>
</extensions>
</trkpt>
<trkpt lat="63.787242889" lon="-19.409313202">
<ele>500.578125</ele>
<time>2012-07-26T13:26:54Z</time>
<speed>1.750000</speed>
<extensions>
<speed>1.8</speed>
<temp>0.00</temp>
<bpm>0</bpm>
<rpm>0.00</rpm>
</extensions>
</trkpt>
<trkpt lat="63.787158966" lon="-19.409393311">
<ele>501.546875</ele>
<time>2012-07-26T13:26:59Z</time>
<speed>3.330000</speed>
<extensions>
<speed>3.3</speed>
<temp>0.00</temp>
<bpm>0</bpm>
<rpm>0.00</rpm>
</extensions>
</trkpt>
<trkpt lat="63.787044525" lon="-19.409507751">
<ele>501.750000</ele>
<time>2012-07-26T13:27:04Z</time>
<speed>2.530000</speed>
<extensions>
<speed>2.5</speed>
<temp>0.00</temp>
<bpm>0</bpm>
<rpm>0.00</rpm>
</extensions>
</trkpt>
<trkpt lat="63.786968231" lon="-19.409601212">
<ele>500.828125</ele>
<time>2012-07-26T13:27:09Z</time>
<speed>1.700000</speed>
<extensions>
<speed>1.7</speed>
<temp>0.00</temp>
<bpm>0</bpm>
<rpm>0.00</rpm>
</extensions>
</trkpt>
<trkpt lat="63.786884308" lon="-19.409729004">
<ele>499.148438</ele>
<time>2012-07-26T13:27:14Z</time>
<speed>2.670000</speed>
<extensions>
<speed>2.7</speed>
<temp>0.00</temp>
<bpm>0</bpm>
<rpm>0.00</rpm>
</extensions>
</trkpt>
<trkpt lat="63.786788940" lon="-19.409957886">
<ele>497.468750</ele>
<time>2012-07-26T13:27:19Z</time>
<speed>3.610000</speed>
<extensions>
<speed>3.6</speed>
<temp>0.00</temp>
<bpm>0</bpm>
<rpm>0.00</rpm>
</extensions>
</trkpt>
<trkpt lat="63.786708832" lon="-19.410400391">
<ele>494.773438</ele>
<time>2012-07-26T13:27:24Z</time>
<speed>5.940000</speed>
<extensions>
<speed>5.9</speed>
<temp>0.00</temp>
<bpm>0</bpm>
<rpm>0.00</rpm>
</extensions>
</trkpt>
<trkpt lat="63.786773682" lon="-19.411104202">
<ele>492.593750</ele>
<time>2012-07-26T13:27:29Z</time>
<speed>7.560000</speed>
<extensions>
<speed>7.6</speed>
<temp>0.00</temp>
<bpm>0</bpm>
<rpm>0.00</rpm>
</extensions>
</trkpt>
<trkpt lat="63.786884308" lon="-19.411828995">
<ele>490.875000</ele>
<time>2012-07-26T13:27:34Z</time>
<speed>6.980000</speed>
<extensions>
<speed>7.0</speed>
<temp>0.00</temp>
<bpm>0</bpm>
<rpm>0.00</rpm>
</extensions>
</trkpt>
<trkpt lat="63.786945343" lon="-19.412513733">
<ele>489.804688</ele>
<time>2012-07-26T13:27:39Z</time>
<speed>6.290000</speed>
<extensions>
<speed>6.3</speed>
<temp>0.00</temp>
<bpm>0</bpm>
<rpm>0.00</rpm>
</extensions>
</trkpt>
<trkpt lat="63.787025452" lon="-19.413080215">
<ele>489.460938</ele>
<time>2012-07-26T13:27:44Z</time>
<speed>5.140000</speed>
<extensions>
<speed>5.1</speed>
<temp>0.00</temp>
<bpm>0</bpm>
<rpm>0.00</rpm>
</extensions>
</trkpt>
<trkpt lat="63.787147522" lon="-19.413473129">
<ele>488.460938</ele>
<time>2012-07-26T13:27:49Z</time>
<speed>4.400000</speed>
<extensions>
<speed>4.4</speed>
<temp>0.00</temp>
<bpm>0</bpm>
<rpm>0.00</rpm>
</extensions>
</trkpt>
<trkpt lat="63.787246704" lon="-19.413831711">
<ele>490.992188</ele>
<time>2012-07-26T13:27:54Z</time>
<speed>3.800000</speed>
<extensions>
<speed>3.8</speed>
<temp>0.00</temp>
<bpm>0</bpm>
<rpm>0.00</rpm>
</extensions>
</trkpt>
<trkpt lat="63.787319183" lon="-19.414134979">
<ele>489.382813</ele>
<time>2012-07-26T13:27:59Z</time>
<speed>3.030000</speed>
<extensions>
<speed>3.0</speed>
<temp>0.00</temp>
<bpm>0</bpm>
<rpm>0.00</rpm>
</extensions>
</trkpt>
<trkpt lat="63.787319183" lon="-19.414451599">
<ele>488.703125</ele>
<time>2012-07-26T13:28:04Z</time>
<speed>3.510000</speed>
<extensions>
<speed>3.5</speed>
<temp>0.00</temp>
<bpm>0</bpm>
<rpm>0.00</rpm>
</extensions>
</trkpt>
<trkpt lat="63.787239075" lon="-19.414775848">
<ele>489.445313</ele>
<time>2012-07-26T13:28:09Z</time>
<speed>3.600000</speed>
<extensions>
<speed>3.6</speed>
<temp>0.00</temp>
<bpm>0</bpm>
<rpm>0.00</rpm>
</extensions>
</trkpt>
<trkpt lat="63.787128448" lon="-19.415126801">
<ele>489.679688</ele>
<time>2012-07-26T13:28:14Z</time>
<speed>4.820000</speed>
<extensions>
<speed>4.8</speed>
<temp>0.00</temp>
<bpm>0</bpm>
<rpm>0.00</rpm>
</extensions>
</trkpt>
<trkpt lat="63.786998749" lon="-19.415519714">
<ele>491.492188</ele>
<time>2012-07-26T13:28:19Z</time>
<speed>4.850000</speed>
<extensions>
<speed>4.8</speed>
<temp>0.00</temp>
<bpm>0</bpm>
<rpm>0.00</rpm>
</extensions>
</trkpt>
<trkpt lat="63.786903381" lon="-19.415943146">
<ele>493.632813</ele>
<time>2012-07-26T13:28:24Z</time>
<speed>4.860000</speed>
<extensions>
<speed>4.9</speed>
<temp>0.00</temp>
<bpm>0</bpm>
<rpm>0.00</rpm>
</extensions>
</trkpt>
<trkpt lat="63.786785126" lon="-19.416343689">
<ele>493.000000</ele>
<time>2012-07-26T13:28:29Z</time>
<speed>4.080000</speed>
<extensions>
<speed>4.1</speed>
<temp>0.00</temp>
<bpm>0</bpm>
<rpm>0.00</rpm>
</extensions>
</trkpt>
<trkpt lat="63.786727905" lon="-19.416667938">
<ele>493.539063</ele>
<time>2012-07-26T13:28:34Z</time>
<speed>2.930000</speed>
<extensions>
<speed>2.9</speed>
<temp>0.00</temp>
<bpm>0</bpm>
<rpm>0.00</rpm>
</extensions>
</trkpt>
<trkpt lat="63.786693573" lon="-19.416986465">
<ele>495.132813</ele>
<time>2012-07-26T13:28:39Z</time>
<speed>3.330000</speed>
<extensions>
<speed>3.3</speed>
<temp>0.00</temp>
<bpm>0</bpm>
<rpm>0.00</rpm>
</extensions>
</trkpt>
<trkpt lat="63.786647797" lon="-19.417346954">
<ele>497.312500</ele>
<time>2012-07-26T13:28:44Z</time>
<speed>4.320000</speed>
<extensions>
<speed>4.3</speed>
<temp>0.00</temp>
<bpm>0</bpm>
<rpm>0.00</rpm>
</extensions>
</trkpt>
<trkpt lat="63.786579132" lon="-19.417707443">
<ele>497.695313</ele>
<time>2012-07-26T13:28:49Z</time>
<speed>2.840000</speed>
<extensions>
<speed>2.8</speed>
<temp>0.00</temp>
<bpm>0</bpm>
<rpm>0.00</rpm>
</extensions>
</trkpt>
<trkpt lat="63.786495209" lon="-19.417901993">
<ele>495.882813</ele>
<time>2012-07-26T13:28:54Z</time>
<speed>1.910000</speed>
<extensions>
<speed>1.9</speed>
<temp>0.00</temp>
<bpm>0</bpm>
<rpm>0.00</rpm>
</extensions>
</trkpt>
<trkpt lat="63.786437988" lon="-19.418107986">
<ele>493.992188</ele>
<time>2012-07-26T13:28:59Z</time>
<speed>2.880000</speed>
<extensions>
<speed>2.9</speed>
<temp>0.00</temp>
<bpm>0</bpm>
<rpm>0.00</rpm>
</extensions>
</trkpt>
<trkpt lat="63.786365509" lon="-19.418384552">
<ele>494.929688</ele>
<time>2012-07-26T13:29:04Z</time>
<speed>3.420000</speed>
<extensions>
<speed>3.4</speed>
<temp>0.00</temp>
<bpm>0</bpm>
<rpm>0.00</rpm>
</extensions>
</trkpt>
<trkpt lat="63.786281586" lon="-19.418672562">
<ele>496.531250</ele>
<time>2012-07-26T13:29:09Z</time>
<speed>3.560000</speed>
<extensions>
<speed>3.6</speed>
<temp>0.00</temp>
<bpm>0</bpm>
<rpm>0.00</rpm>
</extensions>
</trkpt>
<trkpt lat="63.786193848" lon="-19.418949127">
<ele>498.312500</ele>
<time>2012-07-26T13:29:14Z</time>
<speed>3.420000</speed>
<extensions>
<speed>3.4</speed>
<temp>0.00</temp>
<bpm>0</bpm>
<rpm>0.00</rpm>
</extensions>
</trkpt>
<trkpt lat="63.786106110" lon="-19.419225693">
<ele>499.484375</ele>
<time>2012-07-26T13:29:19Z</time>
<speed>3.420000</speed>
<extensions>
<speed>3.4</speed>
<temp>0.00</temp>
<bpm>0</bpm>
<rpm>0.00</rpm>
</extensions>
</trkpt>
<trkpt lat="63.786018372" lon="-19.419548035">
<ele>498.203125</ele>
<time>2012-07-26T13:29:24Z</time>
<speed>3.740000</speed>
<extensions>
<speed>3.7</speed>
<temp>0.00</temp>
<bpm>0</bpm>
<rpm>0.00</rpm>
</extensions>
</trkpt>
<trkpt lat="63.785934448" lon="-19.419910431">
<ele>495.851563</ele>
<time>2012-07-26T13:29:29Z</time>
<speed>4.400000</speed>
<extensions>
<speed>4.4</speed>
<temp>0.00</temp>
<bpm>0</bpm>
<rpm>0.00</rpm>
</extensions>
</trkpt>
<trkpt lat="63.785823822" lon="-19.420347214">
<ele>495.687500</ele>
<time>2012-07-26T13:29:34Z</time>
<speed>5.020000</speed>
<extensions>
<speed>5.0</speed>
<temp>0.00</temp>
<bpm>0</bpm>
<rpm>0.00</rpm>
</extensions>
</trkpt>
<trkpt lat="63.785758972" lon="-19.420795441">
<ele>497.609375</ele>
<time>2012-07-26T13:29:39Z</time>
<speed>4.300000</speed>
<extensions>
<speed>4.3</speed>
<temp>0.00</temp>
<bpm>0</bpm>
<rpm>0.00</rpm>
</extensions>
</trkpt>
<trkpt lat="63.785663605" lon="-19.421157837">
<ele>495.718750</ele>
<time>2012-07-26T13:29:44Z</time>
<speed>3.640000</speed>
<extensions>
<speed>3.6</speed>
<temp>0.00</temp>
<bpm>0</bpm>
<rpm>0.00</rpm>
</extensions>
</trkpt>
<trkpt lat="63.785572052" lon="-19.421508789">
<ele>494.242188</ele>
<time>2012-07-26T13:29:49Z</time>
<speed>4.430000</speed>
<extensions>
<speed>4.4</speed>
<temp>0.00</temp>
<bpm>0</bpm>
<rpm>0.00</rpm>
</extensions>
</trkpt>
<trkpt lat="63.785469055" lon="-19.421932220">
<ele>493.320313</ele>
<time>2012-07-26T13:29:54Z</time>
<speed>4.730000</speed>
<extensions>
<speed>4.7</speed>
<temp>0.00</temp>
<bpm>0</bpm>
<rpm>0.00</rpm>
</extensions>
</trkpt>
<trkpt lat="63.785369873" lon="-19.422321320">
<ele>492.906250</ele>
<time>2012-07-26T13:29:59Z</time>
<speed>4.220000</speed>
<extensions>
<speed>4.2</speed>
<temp>0.00</temp>
<bpm>0</bpm>
<rpm>0.00</rpm>
</extensions>
</trkpt>
<trkpt lat="63.785278320" lon="-19.422698975">
<ele>491.882813</ele>
<time>2012-07-26T13:30:04Z</time>
<speed>4.710000</speed>
<extensions>
<speed>4.7</speed>
<temp>0.00</temp>
<bpm>0</bpm>
<rpm>0.00</rpm>
</extensions>
</trkpt>
<trkpt lat="63.785194397" lon="-19.423126221">
<ele>490.437500</ele>
<time>2012-07-26T13:30:09Z</time>
<speed>4.680000</speed>
<extensions>
<speed>4.7</speed>
<temp>0.00</temp>
<bpm>0</bpm>
<rpm>0.00</rpm>
</extensions>
</trkpt>
<trkpt lat="63.785110474" lon="-19.423589706">
<ele>491.070313</ele>
<time>2012-07-26T13:30:14Z</time>
<speed>4.860000</speed>
<extensions>
<speed>4.9</speed>
<temp>0.00</temp>
<bpm>0</bpm>
<rpm>0.00</rpm>
</extensions>
</trkpt>
<trkpt lat="63.785007477" lon="-19.424034119">
<ele>489.734375</ele>
<time>2012-07-26T13:30:19Z</time>
<speed>5.110000</speed>
<extensions>
<speed>5.1</speed>
<temp>0.00</temp>
<bpm>0</bpm>
<rpm>0.00</rpm>
</extensions>
</trkpt>
<trkpt lat="63.784873962" lon="-19.424535751">
<ele>486.578125</ele>
<time>2012-07-26T13:30:24Z</time>
<speed>6.610000</speed>
<extensions>
<speed>6.6</speed>
<temp>0.00</temp>
<bpm>0</bpm>
<rpm>0.00</rpm>
</extensions>
</trkpt>
<trkpt lat="63.784648895" lon="-19.425123215">
<ele>485.046875</ele>
<time>2012-07-26T13:30:29Z</time>
<speed>7.410000</speed>
<extensions>
<speed>7.4</speed>
<temp>0.00</temp>
<bpm>0</bpm>
<rpm>0.00</rpm>
</extensions>
</trkpt>
<trkpt lat="63.784431458" lon="-19.425527573">
<ele>484.140625</ele>
<time>2012-07-26T13:30:34Z</time>
<speed>5.250000</speed>
<extensions>
<speed>5.2</speed>
<temp>0.00</temp>
<bpm>0</bpm>
<rpm>0.00</rpm>
</extensions>
</trkpt>
<trkpt lat="63.784259796" lon="-19.425857544">
<ele>482.906250</ele>
<time>2012-07-26T13:30:39Z</time>
<speed>4.470000</speed>
<extensions>
<speed>4.5</speed>
<temp>0.00</temp>
<bpm>0</bpm>
<rpm>0.00</rpm>
</extensions>
</trkpt>
<trkpt lat="63.784118652" lon="-19.426124573">
<ele>480.109375</ele>
<time>2012-07-26T13:30:44Z</time>
<speed>4.220000</speed>
<extensions>
<speed>4.2</speed>
<temp>0.00</temp>
<bpm>0</bpm>
<rpm>0.00</rpm>
</extensions>
</trkpt>
<trkpt lat="63.783916473" lon="-19.426525116">
<ele>475.710938</ele>
<time>2012-07-26T13:30:49Z</time>
<speed>7.180000</speed>
<extensions>
<speed>7.2</speed>
<temp>0.00</temp>
<bpm>0</bpm>
<rpm>0.00</rpm>
</extensions>
</trkpt>
<trkpt lat="63.783695221" lon="-19.426977158">
<ele>473.484375</ele>
<time>2012-07-26T13:30:54Z</time>
<speed>6.120000</speed>
<extensions>
<speed>6.1</speed>
<temp>0.00</temp>
<bpm>0</bpm>
<rpm>0.00</rpm>
</extensions>
</trkpt>
<trkpt lat="63.783481598" lon="-19.427244186">
<ele>472.523438</ele>
<time>2012-07-26T13:30:59Z</time>
<speed>4.290000</speed>
<extensions>
<speed>4.3</speed>
<temp>0.00</temp>
<bpm>0</bpm>
<rpm>0.00</rpm>
</extensions>
</trkpt>
<trkpt lat="63.783298492" lon="-19.427152634">
<ele>471.867188</ele>
<time>2012-07-26T13:31:04Z</time>
<speed>4.590000</speed>
<extensions>
<speed>4.6</speed>
<temp>0.00</temp>
<bpm>0</bpm>
<rpm>0.00</rpm>
</extensions>
</trkpt>
<trkpt lat="63.783039093" lon="-19.426893234">
<ele>469.289063</ele>
<time>2012-07-26T13:31:09Z</time>
<speed>7.390000</speed>
<extensions>
<speed>7.4</speed>
<temp>0.00</temp>
<bpm>0</bpm>
<rpm>0.00</rpm>
</extensions>
</trkpt>
<trkpt lat="63.782760620" lon="-19.426631927">
<ele>465.812500</ele>
<time>2012-07-26T13:31:14Z</time>
<speed>5.560000</speed>
<extensions>
<speed>5.6</speed>
<temp>0.00</temp>
<bpm>0</bpm>
<rpm>0.00</rpm>
</extensions>
</trkpt>
<trkpt lat="63.782630920" lon="-19.426450729">
<ele>462.679688</ele>
<time>2012-07-26T13:31:19Z</time>
<speed>2.150000</speed>
<extensions>
<speed>2.1</speed>
<temp>0.00</temp>
<bpm>0</bpm>
<rpm>0.00</rpm>
</extensions>
</trkpt>
<trkpt lat="63.782611847" lon="-19.426122665">
<ele>455.117188</ele>
<time>2012-07-26T13:31:24Z</time>
<speed>3.700000</speed>
<extensions>
<speed>3.7</speed>
<temp>0.00</temp>
<bpm>0</bpm>
<rpm>0.00</rpm>
</extensions>
</trkpt>
<trkpt lat="63.782688141" lon="-19.425779343">
<ele>451.789063</ele>
<time>2012-07-26T13:31:29Z</time>
<speed>3.810000</speed>
<extensions>
<speed>3.8</speed>
<temp>0.00</temp>
<bpm>0</bpm>
<rpm>0.00</rpm>
</extensions>
</trkpt>
<trkpt lat="63.782779694" lon="-19.425449371">
<ele>449.757813</ele>
<time>2012-07-26T13:31:34Z</time>
<speed>3.840000</speed>
<extensions>
<speed>3.8</speed>
<temp>0.00</temp>
<bpm>0</bpm>
<rpm>0.00</rpm>
</extensions>
</trkpt>
<trkpt lat="63.782791138" lon="-19.425052643">
<ele>448.015625</ele>
<time>2012-07-26T13:31:39Z</time>
<speed>3.310000</speed>
<extensions>
<speed>3.3</speed>
<temp>0.00</temp>
<bpm>0</bpm>
<rpm>0.00</rpm>
</extensions>
</trkpt>
<trkpt lat="63.782817841" lon="-19.424701691">
<ele>446.554688</ele>
<time>2012-07-26T13:31:44Z</time>
<speed>3.720000</speed>
<extensions>
<speed>3.7</speed>
<temp>0.00</temp>
<bpm>0</bpm>
<rpm>0.00</rpm>
</extensions>
</trkpt>
<trkpt lat="63.782894135" lon="-19.424329758">
<ele>444.218750</ele>
<time>2012-07-26T13:31:49Z</time>
<speed>4.320000</speed>
<extensions>
<speed>4.3</speed>
<temp>0.00</temp>
<bpm>0</bpm>
<rpm>0.00</rpm>
</extensions>
</trkpt>
<trkpt lat="63.783020020" lon="-19.423948288">
<ele>442.531250</ele>
<time>2012-07-26T13:31:54Z</time>
<speed>4.770000</speed>
<extensions>
<speed>4.8</speed>
<temp>0.00</temp>
<bpm>0</bpm>
<rpm>0.00</rpm>
</extensions>
</trkpt>
<trkpt lat="63.783107758" lon="-19.423458099">
<ele>440.609375</ele>
<time>2012-07-26T13:31:59Z</time>
<speed>5.940000</speed>
<extensions>
<speed>5.9</speed>
<temp>0.00</temp>
<bpm>0</bpm>
<rpm>0.00</rpm>
</extensions>
</trkpt>
<trkpt lat="63.783035278" lon="-19.422853470">
<ele>438.835938</ele>
<time>2012-07-26T13:32:04Z</time>
<speed>6.590000</speed>
<extensions>
<speed>6.6</speed>
<temp>0.00</temp>
<bpm>0</bpm>
<rpm>0.00</rpm>
</extensions>
</trkpt>
<trkpt lat="63.782985687" lon="-19.422279358">
<ele>436.687500</ele>
<time>2012-07-26T13:32:09Z</time>
<speed>4.990000</speed>
<extensions>
<speed>5.0</speed>
<temp>0.00</temp>
<bpm>0</bpm>
<rpm>0.00</rpm>
</extensions>
</trkpt>
<trkpt lat="63.782920837" lon="-19.421941757">
<ele>435.601563</ele>
<time>2012-07-26T13:32:14Z</time>
<speed>2.250000</speed>
<extensions>
<speed>2.3</speed>
<temp>0.00</temp>
<bpm>0</bpm>
<rpm>0.00</rpm>
</extensions>
</trkpt>
<trkpt lat="63.782840729" lon="-19.421850204">
<ele>435.359375</ele>
<time>2012-07-26T13:32:19Z</time>
<speed>1.890000</speed>
<extensions>
<speed>1.9</speed>
<temp>0.00</temp>
<bpm>0</bpm>
<rpm>0.00</rpm>
</extensions>
</trkpt>
<trkpt lat="63.782752991" lon="-19.421823502">
<ele>435.781250</ele>
<time>2012-07-26T13:32:24Z</time>
<speed>1.780000</speed>
<extensions>
<speed>1.8</speed>
<temp>0.00</temp>
<bpm>0</bpm>
<rpm>0.00</rpm>
</extensions>
</trkpt>
<trkpt lat="63.782661438" lon="-19.421781540">
<ele>435.679688</ele>
<time>2012-07-26T13:32:29Z</time>
<speed>2.820000</speed>
<extensions>
<speed>2.8</speed>
<temp>0.00</temp>
<bpm>0</bpm>
<rpm>0.00</rpm>
</extensions>
</trkpt>
<trkpt lat="63.782546997" lon="-19.421743393">
<ele>435.921875</ele>
<time>2012-07-26T13:32:34Z</time>
<speed>2.350000</speed>
<extensions>
<speed>2.4</speed>
<temp>0.00</temp>
<bpm>0</bpm>
<rpm>0.00</rpm>
</extensions>
</trkpt>
<trkpt lat="63.782436371" lon="-19.421676636">
<ele>436.265625</ele>
<time>2012-07-26T13:32:39Z</time>
<speed>2.720000</speed>
<extensions>
<speed>2.7</speed>
<temp>0.00</temp>
<bpm>0</bpm>
<rpm>0.00</rpm>
</extensions>
</trkpt>
<trkpt lat="63.782352448" lon="-19.421644211">
<ele>437.500000</ele>
<time>2012-07-26T13:32:44Z</time>
<speed>2.400000</speed>
<extensions>
<speed>2.4</speed>
<temp>0.00</temp>
<bpm>0</bpm>
<rpm>0.00</rpm>
</extensions>
</trkpt>
<trkpt lat="63.782238007" lon="-19.421579361">
<ele>438.148438</ele>
<time>2012-07-26T13:32:49Z</time>
<speed>2.260000</speed>
<extensions>
<speed>2.3</speed>
<temp>0.00</temp>
<bpm>0</bpm>
<rpm>0.00</rpm>
</extensions>
</trkpt>
<trkpt lat="63.782115936" lon="-19.421541214">
<ele>438.992188</ele>
<time>2012-07-26T13:32:54Z</time>
<speed>2.920000</speed>
<extensions>
<speed>2.9</speed>
<temp>0.00</temp>
<bpm>0</bpm>
<rpm>0.00</rpm>
</extensions>
</trkpt>
<trkpt lat="63.781959534" lon="-19.421466827">
<ele>438.773438</ele>
<time>2012-07-26T13:32:59Z</time>
<speed>3.000000</speed>
<extensions>
<speed>3.0</speed>
<temp>0.00</temp>
<bpm>0</bpm>
<rpm>0.00</rpm>
</extensions>
</trkpt>
<trkpt lat="63.781822205" lon="-19.421379089">
<ele>438.578125</ele>
<time>2012-07-26T13:33:04Z</time>
<speed>3.180000</speed>
<extensions>
<speed>3.2</speed>
<temp>0.00</temp>
<bpm>0</bpm>
<rpm>0.00</rpm>
</extensions>
</trkpt>
<trkpt lat="63.781715393" lon="-19.421274185">
<ele>438.023438</ele>
<time>2012-07-26T13:33:09Z</time>
<speed>2.100000</speed>
<extensions>
<speed>2.1</speed>
<temp>0.00</temp>
<bpm>0</bpm>
<rpm>0.00</rpm>
</extensions>
</trkpt>
<trkpt lat="63.781631470" lon="-19.421134949">
<ele>438.687500</ele>
<time>2012-07-26T13:33:14Z</time>
<speed>3.380000</speed>
<extensions>
<speed>3.4</speed>
<temp>0.00</temp>
<bpm>0</bpm>
<rpm>0.00</rpm>
</extensions>
</trkpt>
<trkpt lat="63.781547546" lon="-19.420997620">
<ele>436.062500</ele>
<time>2012-07-26T13:33:19Z</time>
<speed>2.140000</speed>
<extensions>
<speed>2.1</speed>
<temp>0.00</temp>
<bpm>0</bpm>
<rpm>0.00</rpm>
</extensions>
</trkpt>
<trkpt lat="63.781471252" lon="-19.420829773">
<ele>434.601563</ele>
<time>2012-07-26T13:33:24Z</time>
<speed>2.840000</speed>
<extensions>
<speed>2.8</speed>
<temp>0.00</temp>
<bpm>0</bpm>
<rpm>0.00</rpm>
</extensions>
</trkpt>
<trkpt lat="63.781364441" lon="-19.420572281">
<ele>432.429688</ele>
<time>2012-07-26T13:33:29Z</time>
<speed>4.490000</speed>
<extensions>
<speed>4.5</speed>
<temp>0.00</temp>
<bpm>0</bpm>
<rpm>0.00</rpm>
</extensions>
</trkpt>
<trkpt lat="63.781196594" lon="-19.420169830">
<ele>428.515625</ele>
<time>2012-07-26T13:33:34Z</time>
<speed>6.460000</speed>
<extensions>
<speed>6.5</speed>
<temp>0.00</temp>
<bpm>0</bpm>
<rpm>0.00</rpm>
</extensions>
</trkpt>
<trkpt lat="63.781066895" lon="-19.419656754">
<ele>425.429688</ele>
<time>2012-07-26T13:33:39Z</time>
<speed>6.180000</speed>
<extensions>
<speed>6.2</speed>
<temp>0.00</temp>
<bpm>0</bpm>
<rpm>0.00</rpm>
</extensions>
</trkpt>
<trkpt lat="63.780956268" lon="-19.419162750">
<ele>427.007813</ele>
<time>2012-07-26T13:33:44Z</time>
<speed>4.990000</speed>
<extensions>
<speed>5.0</speed>
<temp>0.00</temp>
<bpm>0</bpm>
<rpm>0.00</rpm>
</extensions>
</trkpt>
<trkpt lat="63.780994415" lon="-19.418680191">
<ele>428.085938</ele>
<time>2012-07-26T13:33:49Z</time>
<speed>3.370000</speed>
<extensions>
<speed>3.4</speed>
<temp>0.00</temp>
<bpm>0</bpm>
<rpm>0.00</rpm>
</extensions>
</trkpt>
<trkpt lat="63.780986786" lon="-19.418386459">
<ele>431.093750</ele>
<time>2012-07-26T13:33:54Z</time>
<speed>2.600000</speed>
<extensions>
<speed>2.6</speed>
<temp>0.00</temp>
<bpm>0</bpm>
<rpm>0.00</rpm>
</extensions>
</trkpt>
<trkpt lat="63.780906677" lon="-19.418197632">
<ele>432.875000</ele>
<time>2012-07-26T13:33:59Z</time>
<speed>2.430000</speed>
<extensions>
<speed>2.4</speed>
<temp>0.00</temp>
<bpm>0</bpm>
<rpm>0.00</rpm>
</extensions>
</trkpt>
<trkpt lat="63.780807495" lon="-19.418048859">
<ele>434.742188</ele>
<time>2012-07-26T13:34:04Z</time>
<speed>2.570000</speed>
<extensions>
<speed>2.6</speed>
<temp>0.00</temp>
<bpm>0</bpm>
<rpm>0.00</rpm>
</extensions>
</trkpt>
<trkpt lat="63.780715942" lon="-19.417913437">
<ele>436.296875</ele>
<time>2012-07-26T13:34:09Z</time>
<speed>2.790000</speed>
<extensions>
<speed>2.8</speed>
<temp>0.00</temp>
<bpm>0</bpm>
<rpm>0.00</rpm>
</extensions>
</trkpt>
<trkpt lat="63.780586243" lon="-19.417833328">
<ele>436.265625</ele>
<time>2012-07-26T13:34:14Z</time>
<speed>1.990000</speed>
<extensions>
<speed>2.0</speed>
<temp>0.00</temp>
<bpm>0</bpm>
<rpm>0.00</rpm>
</extensions>
</trkpt>
<trkpt lat="63.780517578" lon="-19.417844772">
<ele>437.257813</ele>
<time>2012-07-26T13:34:19Z</time>
<speed>1.380000</speed>
<extensions>
<speed>1.4</speed>
<temp>0.00</temp>
<bpm>0</bpm>
<rpm>0.00</rpm>
</extensions>
</trkpt>
<trkpt lat="63.780467987" lon="-19.417942047">
<ele>438.718750</ele>
<time>2012-07-26T13:34:24Z</time>
<speed>1.590000</speed>
<extensions>
<speed>1.6</speed>
<temp>0.00</temp>
<bpm>0</bpm>
<rpm>0.00</rpm>
</extensions>
</trkpt>
<trkpt lat="63.780422211" lon="-19.418048859">
<ele>439.867188</ele>
<time>2012-07-26T13:34:29Z</time>
<speed>1.270000</speed>
<extensions>
<speed>1.3</speed>
<temp>0.00</temp>
<bpm>0</bpm>
<rpm>0.00</rpm>
</extensions>
</trkpt>
<trkpt lat="63.780380249" lon="-19.418180466">
<ele>442.984375</ele>
<time>2012-07-26T13:34:34Z</time>
<speed>1.800000</speed>
<extensions>
<speed>1.8</speed>
<temp>0.00</temp>
<bpm>0</bpm>
<rpm>0.00</rpm>
</extensions>
</trkpt>
<trkpt lat="63.780338287" lon="-19.418304443">
<ele>442.984375</ele>
<time>2012-07-26T13:34:39Z</time>
<speed>1.730000</speed>
<extensions>
<speed>1.7</speed>
<temp>0.00</temp>
<bpm>0</bpm>
<rpm>0.00</rpm>
</extensions>
</trkpt>
<trkpt lat="63.780273438" lon="-19.418411255">
<ele>442.835938</ele>
<time>2012-07-26T13:34:44Z</time>
<speed>1.780000</speed>
<extensions>
<speed>1.8</speed>
<temp>0.00</temp>
<bpm>0</bpm>
<rpm>0.00</rpm>
</extensions>
</trkpt>
<trkpt lat="63.780212402" lon="-19.418540955">
<ele>442.640625</ele>
<time>2012-07-26T13:34:49Z</time>
<speed>2.300000</speed>
<extensions>
<speed>2.3</speed>
<temp>0.00</temp>
<bpm>0</bpm>
<rpm>0.00</rpm>
</extensions>
</trkpt>
<trkpt lat="63.780170441" lon="-19.418565750">
<ele>441.867188</ele>
<time>2012-07-26T13:34:54Z</time>
<speed>0.410000</speed>
<extensions>
<speed>0.4</speed>
<temp>0.00</temp>
<bpm>0</bpm>
<rpm>0.00</rpm>
</extensions>
</trkpt>
<trkpt lat="63.780170441" lon="-19.418579102">
<ele>441.835938</ele>
<time>2012-07-26T13:34:59Z</time>
<speed>0.020000</speed>
<extensions>
<speed>0.0</speed>
<temp>0.00</temp>
<bpm>0</bpm>
<rpm>0.00</rpm>
</extensions>
</trkpt>
<trkpt lat="63.780170441" lon="-19.418584824">
<ele>441.859375</ele>
<time>2012-07-26T13:35:04Z</time>
<speed>0.690000</speed>
<extensions>
<speed>0.7</speed>
<temp>0.00</temp>
<bpm>0</bpm>
<rpm>0.00</rpm>
</extensions>
</trkpt>
<trkpt lat="63.780143738" lon="-19.418628693">
<ele>442.125000</ele>
<time>2012-07-26T13:35:09Z</time>
<speed>0.720000</speed>
<extensions>
<speed>0.7</speed>
<temp>0.00</temp>
<bpm>0</bpm>
<rpm>0.00</rpm>
</extensions>
</trkpt>
<trkpt lat="63.780109406" lon="-19.418670654">
<ele>442.375000</ele>
<time>2012-07-26T13:35:14Z</time>
<speed>0.900000</speed>
<extensions>
<speed>0.9</speed>
<temp>0.00</temp>
<bpm>0</bpm>
<rpm>0.00</rpm>
</extensions>
</trkpt>
<trkpt lat="63.780078888" lon="-19.418708801">
<ele>442.546875</ele>
<time>2012-07-26T13:35:19Z</time>
<speed>0.760000</speed>
<extensions>
<speed>0.8</speed>
<temp>0.00</temp>
<bpm>0</bpm>
<rpm>0.00</rpm>
</extensions>
</trkpt>
<trkpt lat="63.780044556" lon="-19.418743134">
<ele>442.796875</ele>
<time>2012-07-26T13:35:24Z</time>
<speed>0.650000</speed>
<extensions>
<speed>0.6</speed>
<temp>0.00</temp>
<bpm>0</bpm>
<rpm>0.00</rpm>
</extensions>
</trkpt>
<trkpt lat="63.780014038" lon="-19.418771744">
<ele>443.265625</ele>
<time>2012-07-26T13:35:29Z</time>
<speed>0.700000</speed>
<extensions>
<speed>0.7</speed>
<temp>0.00</temp>
<bpm>0</bpm>
<rpm>0.00</rpm>
</extensions>
</trkpt>
<trkpt lat="63.779975891" lon="-19.418804169">
<ele>443.890625</ele>
<time>2012-07-26T13:35:34Z</time>
<speed>0.830000</speed>
<extensions>
<speed>0.8</speed>
<temp>0.00</temp>
<bpm>0</bpm>
<rpm>0.00</rpm>
</extensions>
</trkpt>
<trkpt lat="63.779945374" lon="-19.418827057">
<ele>444.445313</ele>
<time>2012-07-26T13:35:39Z</time>
<speed>0.530000</speed>
<extensions>
<speed>0.5</speed>
<temp>0.00</temp>
<bpm>0</bpm>
<rpm>0.00</rpm>
</extensions>
</trkpt>
<trkpt lat="63.779922485" lon="-19.418836594">
<ele>445.007813</ele>
<time>2012-07-26T13:35:44Z</time>
<speed>0.520000</speed>
<extensions>
<speed>0.5</speed>
<temp>0.00</temp>
<bpm>0</bpm>
<rpm>0.00</rpm>
</extensions>
</trkpt>
<trkpt lat="63.779891968" lon="-19.418836594">
<ele>445.625000</ele>
<time>2012-07-26T13:35:49Z</time>
<speed>0.670000</speed>
<extensions>
<speed>0.7</speed>
<temp>0.00</temp>
<bpm>0</bpm>
<rpm>0.00</rpm>
</extensions>
</trkpt>
<trkpt lat="63.779865265" lon="-19.418842316">
<ele>446.257813</ele>
<time>2012-07-26T13:35:54Z</time>
<speed>0.770000</speed>
<extensions>
<speed>0.8</speed>
<temp>0.00</temp>
<bpm>0</bpm>
<rpm>0.00</rpm>
</extensions>
</trkpt>
<trkpt lat="63.779823303" lon="-19.418848038">
<ele>446.875000</ele>
<time>2012-07-26T13:35:59Z</time>
<speed>1.020000</speed>
<extensions>
<speed>1.0</speed>
<temp>0.00</temp>
<bpm>0</bpm>
<rpm>0.00</rpm>
</extensions>
</trkpt>
<trkpt lat="63.779766083" lon="-19.418842316">
<ele>446.906250</ele>
<time>2012-07-26T13:36:04Z</time>
<speed>0.920000</speed>
<extensions>
<speed>0.9</speed>
<temp>0.00</temp>
<bpm>0</bpm>
<rpm>0.00</rpm>
</extensions>
</trkpt>
<trkpt lat="63.779724121" lon="-19.418844223">
<ele>447.539063</ele>
<time>2012-07-26T13:36:09Z</time>
<speed>0.970000</speed>
<extensions>
<speed>1.0</speed>
<temp>0.00</temp>
<bpm>0</bpm>
<rpm>0.00</rpm>
</extensions>
</trkpt>
<trkpt lat="63.779674530" lon="-19.418857574">
<ele>449.367188</ele>
<time>2012-07-26T13:36:14Z</time>
<speed>1.390000</speed>
<extensions>
<speed>1.4</speed>
<temp>0.00</temp>
<bpm>0</bpm>
<rpm>0.00</rpm>
</extensions>
</trkpt>
<trkpt lat="63.779636383" lon="-19.418882370">
<ele>450.398438</ele>
<time>2012-07-26T13:36:19Z</time>
<speed>1.150000</speed>
<extensions>
<speed>1.1</speed>
<temp>0.00</temp>
<bpm>0</bpm>
<rpm>0.00</rpm>
</extensions>
</trkpt>
<trkpt lat="63.779594421" lon="-19.418922424">
<ele>450.492188</ele>
<time>2012-07-26T13:36:24Z</time>
<speed>0.870000</speed>
<extensions>
<speed>0.9</speed>
<temp>0.00</temp>
<bpm>0</bpm>
<rpm>0.00</rpm>
</extensions>
</trkpt>
<trkpt lat="63.779537201" lon="-19.418951035">
<ele>452.078125</ele>
<time>2012-07-26T13:36:29Z</time>
<speed>1.150000</speed>
<extensions>
<speed>1.1</speed>
<temp>0.00</temp>
<bpm>0</bpm>
<rpm>0.00</rpm>
</extensions>
</trkpt>
<trkpt lat="63.779472351" lon="-19.418992996">
<ele>450.882813</ele>
<time>2012-07-26T13:36:34Z</time>
<speed>1.240000</speed>
<extensions>
<speed>1.2</speed>
<temp>0.00</temp>
<bpm>0</bpm>
<rpm>0.00</rpm>
</extensions>
</trkpt>
<trkpt lat="63.779434204" lon="-19.419050217">
<ele>451.875000</ele>
<time>2012-07-26T13:36:39Z</time>
<speed>1.080000</speed>
<extensions>
<speed>1.1</speed>
<temp>0.00</temp>
<bpm>0</bpm>
<rpm>0.00</rpm>
</extensions>
</trkpt>
<trkpt lat="63.779388428" lon="-19.419084549">
<ele>452.257813</ele>
<time>2012-07-26T13:36:44Z</time>
<speed>0.860000</speed>
<extensions>
<speed>0.9</speed>
<temp>0.00</temp>
<bpm>0</bpm>
<rpm>0.00</rpm>
</extensions>
</trkpt>
<trkpt lat="63.779361725" lon="-19.419137955">
<ele>452.742188</ele>
<time>2012-07-26T13:36:49Z</time>
<speed>0.990000</speed>
<extensions>
<speed>1.0</speed>
<temp>0.00</temp>
<bpm>0</bpm>
<rpm>0.00</rpm>
</extensions>
</trkpt>
<trkpt lat="63.779308319" lon="-19.419187546">
<ele>453.335938</ele>
<time>2012-07-26T13:36:54Z</time>
<speed>1.180000</speed>
<extensions>
<speed>1.2</speed>
<temp>0.00</temp>
<bpm>0</bpm>
<rpm>0.00</rpm>
</extensions>
</trkpt>
<trkpt lat="63.779254913" lon="-19.419244766">
<ele>452.296875</ele>
<time>2012-07-26T13:36:59Z</time>
<speed>1.330000</speed>
<extensions>
<speed>1.3</speed>
<temp>0.00</temp>
<bpm>0</bpm>
<rpm>0.00</rpm>
</extensions>
</trkpt>
<trkpt lat="63.779193878" lon="-19.419298172">
<ele>452.250000</ele>
<time>2012-07-26T13:37:04Z</time>
<speed>1.200000</speed>
<extensions>
<speed>1.2</speed>
<temp>0.00</temp>
<bpm>0</bpm>
<rpm>0.00</rpm>
</extensions>
</trkpt>
<trkpt lat="63.779151917" lon="-19.419359207">
<ele>451.726563</ele>
<time>2012-07-26T13:37:09Z</time>
<speed>0.880000</speed>
<extensions>
<speed>0.9</speed>
<temp>0.00</temp>
<bpm>0</bpm>
<rpm>0.00</rpm>
</extensions>
</trkpt>
<trkpt lat="63.779129028" lon="-19.419406891">
<ele>451.078125</ele>
<time>2012-07-26T13:37:14Z</time>
<speed>0.820000</speed>
<extensions>
<speed>0.8</speed>
<temp>0.00</temp>
<bpm>0</bpm>
<rpm>0.00</rpm>
</extensions>
</trkpt>
<trkpt lat="63.779087067" lon="-19.419456482">
<ele>452.109375</ele>
<time>2012-07-26T13:37:19Z</time>
<speed>0.950000</speed>
<extensions>
<speed>1.0</speed>
<temp>0.00</temp>
<bpm>0</bpm>
<rpm>0.00</rpm>
</extensions>
</trkpt>
<trkpt lat="63.779037476" lon="-19.419521332">
<ele>453.171875</ele>
<time>2012-07-26T13:37:24Z</time>
<speed>1.200000</speed>
<extensions>
<speed>1.2</speed>
<temp>0.00</temp>
<bpm>0</bpm>
<rpm>0.00</rpm>
</extensions>
</trkpt>
<trkpt lat="63.778987885" lon="-19.419612885">
<ele>452.562500</ele>
<time>2012-07-26T13:37:29Z</time>
<speed>1.290000</speed>
<extensions>
<speed>1.3</speed>
<temp>0.00</temp>
<bpm>0</bpm>
<rpm>0.00</rpm>
</extensions>
</trkpt>
<trkpt lat="63.778949738" lon="-19.419679642">
<ele>452.304688</ele>
<time>2012-07-26T13:37:34Z</time>
<speed>0.500000</speed>
<extensions>
<speed>0.5</speed>
<temp>0.00</temp>
<bpm>0</bpm>
<rpm>0.00</rpm>
</extensions>
</trkpt>
<trkpt lat="63.778907776" lon="-19.419754028">
<ele>452.671875</ele>
<time>2012-07-26T13:37:39Z</time>
<speed>0.960000</speed>
<extensions>
<speed>1.0</speed>
<temp>0.00</temp>
<bpm>0</bpm>
<rpm>0.00</rpm>
</extensions>
</trkpt>
<trkpt lat="63.778862000" lon="-19.419794083">
<ele>452.281250</ele>
<time>2012-07-26T13:37:44Z</time>
<speed>1.110000</speed>
<extensions>
<speed>1.1</speed>
<temp>0.00</temp>
<bpm>0</bpm>
<rpm>0.00</rpm>
</extensions>
</trkpt>
<trkpt lat="63.778823853" lon="-19.419780731">
<ele>452.304688</ele>
<time>2012-07-26T13:37:49Z</time>
<speed>0.090000</speed>
<extensions>
<speed>0.1</speed>
<temp>0.00</temp>
<bpm>0</bpm>
<rpm>0.00</rpm>
</extensions>
</trkpt>
<trkpt lat="63.778789520" lon="-19.419788361">
<ele>451.992188</ele>
<time>2012-07-26T13:37:54Z</time>
<speed>0.870000</speed>
<extensions>
<speed>0.9</speed>
<temp>0.00</temp>
<bpm>0</bpm>
<rpm>0.00</rpm>
</extensions>
</trkpt>
<trkpt lat="63.778736115" lon="-19.419765472">
<ele>451.937500</ele>
<time>2012-07-26T13:37:59Z</time>
<speed>1.190000</speed>
<extensions>
<speed>1.2</speed>
<temp>0.00</temp>
<bpm>0</bpm>
<rpm>0.00</rpm>
</extensions>
</trkpt>
<trkpt lat="63.778671265" lon="-19.419742584">
<ele>452.546875</ele>
<time>2012-07-26T13:38:04Z</time>
<speed>1.640000</speed>
<extensions>
<speed>1.6</speed>
<temp>0.00</temp>
<bpm>0</bpm>
<rpm>0.00</rpm>
</extensions>
</trkpt>
<trkpt lat="63.778629303" lon="-19.419734955">
<ele>453.164063</ele>
<time>2012-07-26T13:38:09Z</time>
<speed>0.180000</speed>
<extensions>
<speed>0.2</speed>
<temp>0.00</temp>
<bpm>0</bpm>
<rpm>0.00</rpm>
</extensions>
</trkpt>
<trkpt lat="63.778629303" lon="-19.419754028">
<ele>454.335938</ele>
<time>2012-07-26T13:38:14Z</time>
<speed>0.030000</speed>
<extensions>
<speed>0.0</speed>
<temp>0.00</temp>
<bpm>0</bpm>
<rpm>0.00</rpm>
</extensions>
</trkpt>
<trkpt lat="63.778629303" lon="-19.419755936">
<ele>454.335938</ele>
<time>2012-07-26T13:38:19Z</time>
<extensions>
<speed>0.0</speed>
<temp>0.00</temp>
<bpm>0</bpm>
<rpm>0.00</rpm>
</extensions>
</trkpt>
<trkpt lat="63.778629303" lon="-19.419754028">
<ele>454.312500</ele>
<time>2012-07-26T13:38:24Z</time>
<speed>0.190000</speed>
<extensions>
<speed>0.2</speed>
<temp>0.00</temp>
<bpm>0</bpm>
<rpm>0.00</rpm>
</extensions>
</trkpt>
<trkpt lat="63.778591156" lon="-19.419731140">
<ele>454.421875</ele>
<time>2012-07-26T13:38:29Z</time>
<speed>1.080000</speed>
<extensions>
<speed>1.1</speed>
<temp>0.00</temp>
<bpm>0</bpm>
<rpm>0.00</rpm>
</extensions>
</trkpt>
<trkpt lat="63.778541565" lon="-19.419675827">
<ele>453.804688</ele>
<time>2012-07-26T13:38:34Z</time>
<speed>0.990000</speed>
<extensions>
<speed>1.0</speed>
<temp>0.00</temp>
<bpm>0</bpm>
<rpm>0.00</rpm>
</extensions>
</trkpt>
<trkpt lat="63.778495789" lon="-19.419607162">
<ele>453.039063</ele>
<time>2012-07-26T13:38:39Z</time>
<speed>1.150000</speed>
<extensions>
<speed>1.1</speed>
<temp>0.00</temp>
<bpm>0</bpm>
<rpm>0.00</rpm>
</extensions>
</trkpt>
<trkpt lat="63.778453827" lon="-19.419527054">
<ele>452.718750</ele>
<time>2012-07-26T13:38:44Z</time>
<speed>1.070000</speed>
<extensions>
<speed>1.1</speed>
<temp>0.00</temp>
<bpm>0</bpm>
<rpm>0.00</rpm>
</extensions>
</trkpt>
<trkpt lat="63.778411865" lon="-19.419477463">
<ele>452.429688</ele>
<time>2012-07-26T13:38:49Z</time>
<speed>0.750000</speed>
<extensions>
<speed>0.8</speed>
<temp>0.00</temp>
<bpm>0</bpm>
<rpm>0.00</rpm>
</extensions>
</trkpt>
<trkpt lat="63.778404236" lon="-19.419464111">
<ele>452.320313</ele>
<time>2012-07-26T13:38:54Z</time>
<speed>0.230000</speed>
<extensions>
<speed>0.2</speed>
<temp>0.00</temp>
<bpm>0</bpm>
<rpm>0.00</rpm>
</extensions>
</trkpt>
<trkpt lat="63.778350830" lon="-19.419460297">
<ele>452.242188</ele>
<time>2012-07-26T13:38:59Z</time>
<speed>2.030000</speed>
<extensions>
<speed>2.0</speed>
<temp>0.00</temp>
<bpm>0</bpm>
<rpm>0.00</rpm>
</extensions>
</trkpt>
<trkpt lat="63.778251648" lon="-19.419425964">
<ele>453.656250</ele>
<time>2012-07-26T13:39:04Z</time>
<speed>2.540000</speed>
<extensions>
<speed>2.5</speed>
<temp>0.00</temp>
<bpm>0</bpm>
<rpm>0.00</rpm>
</extensions>
</trkpt>
<trkpt lat="63.778152466" lon="-19.419479370">
<ele>456.585938</ele>
<time>2012-07-26T13:39:09Z</time>
<speed>2.260000</speed>
<extensions>
<speed>2.3</speed>
<temp>0.00</temp>
<bpm>0</bpm>
<rpm>0.00</rpm>
</extensions>
</trkpt>
<trkpt lat="63.778041840" lon="-19.419626236">
<ele>456.976563</ele>
<time>2012-07-26T13:39:14Z</time>
<speed>2.560000</speed>
<extensions>
<speed>2.6</speed>
<temp>0.00</temp>
<bpm>0</bpm>
<rpm>0.00</rpm>
</extensions>
</trkpt>
<trkpt lat="63.777919769" lon="-19.419792175">
<ele>456.562500</ele>
<time>2012-07-26T13:39:19Z</time>
<speed>2.800000</speed>
<extensions>
<speed>2.8</speed>
<temp>0.00</temp>
<bpm>0</bpm>
<rpm>0.00</rpm>
</extensions>
</trkpt>
<trkpt lat="63.777805328" lon="-19.419929504">
<ele>454.820313</ele>
<time>2012-07-26T13:39:24Z</time>
<speed>2.600000</speed>
<extensions>
<speed>2.6</speed>
<temp>0.00</temp>
<bpm>0</bpm>
<rpm>0.00</rpm>
</extensions>
</trkpt>
<trkpt lat="63.777717590" lon="-19.420028687">
<ele>457.125000</ele>
<time>2012-07-26T13:39:29Z</time>
<speed>1.290000</speed>
<extensions>
<speed>1.3</speed>
<temp>0.00</temp>
<bpm>0</bpm>
<rpm>0.00</rpm>
</extensions>
</trkpt>
<trkpt lat="63.777660370" lon="-19.420108795">
<ele>458.414063</ele>
<time>2012-07-26T13:39:34Z</time>
<speed>1.570000</speed>
<extensions>
<speed>1.6</speed>
<temp>0.00</temp>
<bpm>0</bpm>
<rpm>0.00</rpm>
</extensions>
</trkpt>
<trkpt lat="63.777618408" lon="-19.420156479">
<ele>458.781250</ele>
<time>2012-07-26T13:39:39Z</time>
<speed>0.230000</speed>
<extensions>
<speed>0.2</speed>
<temp>0.00</temp>
<bpm>0</bpm>
<rpm>0.00</rpm>
</extensions>
</trkpt>
<trkpt lat="63.777599335" lon="-19.420173645">
<ele>458.210938</ele>
<time>2012-07-26T13:39:44Z</time>
<speed>0.940000</speed>
<extensions>
<speed>0.9</speed>
<temp>0.00</temp>
<bpm>0</bpm>
<rpm>0.00</rpm>
</extensions>
</trkpt>
<trkpt lat="63.777568817" lon="-19.420232773">
<ele>459.796875</ele>
<time>2012-07-26T13:39:49Z</time>
<speed>0.510000</speed>
<extensions>
<speed>0.5</speed>
<temp>0.00</temp>
<bpm>0</bpm>
<rpm>0.00</rpm>
</extensions>
</trkpt>
<trkpt lat="63.777553558" lon="-19.420280457">
<ele>460.085938</ele>
<time>2012-07-26T13:39:54Z</time>
<speed>0.460000</speed>
<extensions>
<speed>0.5</speed>
<temp>0.00</temp>
<bpm>0</bpm>
<rpm>0.00</rpm>
</extensions>
</trkpt>
<trkpt lat="63.777515411" lon="-19.420309067">
<ele>461.492188</ele>
<time>2012-07-26T13:39:59Z</time>
<speed>0.870000</speed>
<extensions>
<speed>0.9</speed>
<temp>0.00</temp>
<bpm>0</bpm>
<rpm>0.00</rpm>
</extensions>
</trkpt>
<trkpt lat="63.777458191" lon="-19.420364380">
<ele>462.000000</ele>
<time>2012-07-26T13:40:04Z</time>
<speed>1.290000</speed>
<extensions>
<speed>1.3</speed>
<temp>0.00</temp>
<bpm>0</bpm>
<rpm>0.00</rpm>
</extensions>
</trkpt>
<trkpt lat="63.777416229" lon="-19.420438766">
<ele>462.585938</ele>
<time>2012-07-26T13:40:09Z</time>
<speed>1.020000</speed>
<extensions>
<speed>1.0</speed>
<temp>0.00</temp>
<bpm>0</bpm>
<rpm>0.00</rpm>
</extensions>
</trkpt>
<trkpt lat="63.777370453" lon="-19.420473099">
<ele>464.039063</ele>
<time>2012-07-26T13:40:14Z</time>
<speed>0.580000</speed>
<extensions>
<speed>0.6</speed>
<temp>0.00</temp>
<bpm>0</bpm>
<rpm>0.00</rpm>
</extensions>
</trkpt>
<trkpt lat="63.777328491" lon="-19.420501709">
<ele>464.406250</ele>
<time>2012-07-26T13:40:19Z</time>
<speed>0.840000</speed>
<extensions>
<speed>0.8</speed>
<temp>0.00</temp>
<bpm>0</bpm>
<rpm>0.00</rpm>
</extensions>
</trkpt>
<trkpt lat="63.777271271" lon="-19.420505524">
<ele>463.968750</ele>
<time>2012-07-26T13:40:24Z</time>
<speed>1.040000</speed>
<extensions>
<speed>1.0</speed>
<temp>0.00</temp>
<bpm>0</bpm>
<rpm>0.00</rpm>
</extensions>
</trkpt>
<trkpt lat="63.777214050" lon="-19.420532227">
<ele>463.859375</ele>
<time>2012-07-26T13:40:29Z</time>
<speed>1.160000</speed>
<extensions>
<speed>1.2</speed>
<temp>0.00</temp>
<bpm>0</bpm>
<rpm>0.00</rpm>
</extensions>
</trkpt>
<trkpt lat="63.777202606" lon="-19.420557022">
<ele>463.148438</ele>
<time>2012-07-26T13:40:34Z</time>
<speed>0.550000</speed>
<extensions>
<speed>0.6</speed>
<temp>0.00</temp>
<bpm>0</bpm>
<rpm>0.00</rpm>
</extensions>
</trkpt>
<trkpt lat="63.777160645" lon="-19.420585632">
<ele>463.367188</ele>
<time>2012-07-26T13:40:39Z</time>
<speed>1.050000</speed>
<extensions>
<speed>1.0</speed>
<temp>0.00</temp>
<bpm>0</bpm>
<rpm>0.00</rpm>
</extensions>
</trkpt>
<trkpt lat="63.777137756" lon="-19.420574188">
<ele>464.898438</ele>
<time>2012-07-26T13:40:44Z</time>
<speed>0.170000</speed>
<extensions>
<speed>0.2</speed>
<temp>0.00</temp>
<bpm>0</bpm>
<rpm>0.00</rpm>
</extensions>
</trkpt>
<trkpt lat="63.777069092" lon="-19.420597076">
<ele>465.007813</ele>
<time>2012-07-26T13:40:49Z</time>
<speed>2.190000</speed>
<extensions>
<speed>2.2</speed>
<temp>0.00</temp>
<bpm>0</bpm>
<rpm>0.00</rpm>
</extensions>
</trkpt>
<trkpt lat="63.776962280" lon="-19.420593262">
<ele>465.015625</ele>
<time>2012-07-26T13:40:54Z</time>
<speed>2.310000</speed>
<extensions>
<speed>2.3</speed>
<temp>0.00</temp>
<bpm>0</bpm>
<rpm>0.00</rpm>
</extensions>
</trkpt>
<trkpt lat="63.776866913" lon="-19.420606613">
<ele>466.578125</ele>
<time>2012-07-26T13:40:59Z</time>
<speed>2.310000</speed>
<extensions>
<speed>2.3</speed>
<temp>0.00</temp>
<bpm>0</bpm>
<rpm>0.00</rpm>
</extensions>
</trkpt>
<trkpt lat="63.776763916" lon="-19.420568466">
<ele>466.414063</ele>
<time>2012-07-26T13:41:04Z</time>
<speed>2.360000</speed>
<extensions>
<speed>2.4</speed>
<temp>0.00</temp>
<bpm>0</bpm>
<rpm>0.00</rpm>
</extensions>
</trkpt>
<trkpt lat="63.776668549" lon="-19.420524597">
<ele>466.968750</ele>
<time>2012-07-26T13:41:09Z</time>
<speed>1.890000</speed>
<extensions>
<speed>1.9</speed>
<temp>0.00</temp>
<bpm>0</bpm>
<rpm>0.00</rpm>
</extensions>
</trkpt>
<trkpt lat="63.776569366" lon="-19.420488358">
<ele>467.593750</ele>
<time>2012-07-26T13:41:14Z</time>
<speed>2.000000</speed>
<extensions>
<speed>2.0</speed>
<temp>0.00</temp>
<bpm>0</bpm>
<rpm>0.00</rpm>
</extensions>
</trkpt>
<trkpt lat="63.776462555" lon="-19.420473099">
<ele>469.984375</ele>
<time>2012-07-26T13:41:19Z</time>
<speed>2.060000</speed>
<extensions>
<speed>2.1</speed>
<temp>0.00</temp>
<bpm>0</bpm>
<rpm>0.00</rpm>
</extensions>
</trkpt>
<trkpt lat="63.776378632" lon="-19.420471191">
<ele>470.851563</ele>
<time>2012-07-26T13:41:24Z</time>
<speed>1.830000</speed>
<extensions>
<speed>1.8</speed>
<temp>0.00</temp>
<bpm>0</bpm>
<rpm>0.00</rpm>
</extensions>
</trkpt>
<trkpt lat="63.776313782" lon="-19.420526505">
<ele>470.976563</ele>
<time>2012-07-26T13:41:29Z</time>
<speed>0.660000</speed>
<extensions>
<speed>0.7</speed>
<temp>0.00</temp>
<bpm>0</bpm>
<rpm>0.00</rpm>
</extensions>
</trkpt>
<trkpt lat="63.776329041" lon="-19.420566559">
<ele>472.757813</ele>
<time>2012-07-26T13:41:34Z</time>
<speed>0.010000</speed>
<extensions>
<speed>0.0</speed>
<temp>0.00</temp>
<bpm>0</bpm>
<rpm>0.00</rpm>
</extensions>
</trkpt>
<trkpt lat="63.776313782" lon="-19.420589447">
<ele>475.468750</ele>
<time>2012-07-26T13:41:39Z</time>
<speed>0.690000</speed>
<extensions>
<speed>0.7</speed>
<temp>0.00</temp>
<bpm>0</bpm>
<rpm>0.00</rpm>
</extensions>
</trkpt>
<trkpt lat="63.776275635" lon="-19.420610428">
<ele>476.031250</ele>
<time>2012-07-26T13:41:44Z</time>
<speed>0.580000</speed>
<extensions>
<speed>0.6</speed>
<temp>0.00</temp>
<bpm>0</bpm>
<rpm>0.00</rpm>
</extensions>
</trkpt>
<trkpt lat="63.776241302" lon="-19.420631409">
<ele>476.648438</ele>
<time>2012-07-26T13:41:49Z</time>
<speed>1.350000</speed>
<extensions>
<speed>1.4</speed>
<temp>0.00</temp>
<bpm>0</bpm>
<rpm>0.00</rpm>
</extensions>
</trkpt>
<trkpt lat="63.776218414" lon="-19.420627594">
<ele>476.828125</ele>
<time>2012-07-26T13:41:54Z</time>
<speed>0.010000</speed>
<extensions>
<speed>0.0</speed>
<temp>0.00</temp>
<bpm>0</bpm>
<rpm>0.00</rpm>
</extensions>
</trkpt>
<trkpt lat="63.776218414" lon="-19.420625687">
<ele>476.750000</ele>
<time>2012-07-26T13:41:59Z</time>
<speed>0.200000</speed>
<extensions>
<speed>0.2</speed>
<temp>0.00</temp>
<bpm>0</bpm>
<rpm>0.00</rpm>
</extensions>
</trkpt>
<trkpt lat="63.776199341" lon="-19.420623779">
<ele>476.640625</ele>
<time>2012-07-26T13:42:04Z</time>
<speed>0.950000</speed>
<extensions>
<speed>1.0</speed>
<temp>0.00</temp>
<bpm>0</bpm>
<rpm>0.00</rpm>
</extensions>
</trkpt>
<trkpt lat="63.776153564" lon="-19.420644760">
<ele>476.812500</ele>
<time>2012-07-26T13:42:09Z</time>
<speed>1.020000</speed>
<extensions>
<speed>1.0</speed>
<temp>0.00</temp>
<bpm>0</bpm>
<rpm>0.00</rpm>
</extensions>
</trkpt>
<trkpt lat="63.776096344" lon="-19.420690536">
<ele>476.421875</ele>
<time>2012-07-26T13:42:14Z</time>
<speed>0.940000</speed>
<extensions>
<speed>0.9</speed>
<temp>0.00</temp>
<bpm>0</bpm>
<rpm>0.00</rpm>
</extensions>
</trkpt>
<trkpt lat="63.776050568" lon="-19.420743942">
<ele>476.453125</ele>
<time>2012-07-26T13:42:19Z</time>
<speed>0.880000</speed>
<extensions>
<speed>0.9</speed>
<temp>0.00</temp>
<bpm>0</bpm>
<rpm>0.00</rpm>
</extensions>
</trkpt>
<trkpt lat="63.776008606" lon="-19.420770645">
<ele>476.140625</ele>
<time>2012-07-26T13:42:24Z</time>
<speed>0.420000</speed>
<extensions>
<speed>0.4</speed>
<temp>0.00</temp>
<bpm>0</bpm>
<rpm>0.00</rpm>
</extensions>
</trkpt>
<trkpt lat="63.775966644" lon="-19.420787811">
<ele>476.203125</ele>
<time>2012-07-26T13:42:29Z</time>
<speed>0.870000</speed>
<extensions>
<speed>0.9</speed>
<temp>0.00</temp>
<bpm>0</bpm>
<rpm>0.00</rpm>
</extensions>
</trkpt>
<trkpt lat="63.775947571" lon="-19.420822144">
<ele>477.367188</ele>
<time>2012-07-26T13:42:34Z</time>
<speed>0.250000</speed>
<extensions>
<speed>0.2</speed>
<temp>0.00</temp>
<bpm>0</bpm>
<rpm>0.00</rpm>
</extensions>
</trkpt>
<trkpt lat="63.775932312" lon="-19.420825958">
<ele>478.007813</ele>
<time>2012-07-26T13:42:39Z</time>
<speed>0.460000</speed>
<extensions>
<speed>0.5</speed>
<temp>0.00</temp>
<bpm>0</bpm>
<rpm>0.00</rpm>
</extensions>
</trkpt>
<trkpt lat="63.775932312" lon="-19.420867920">
<ele>478.390625</ele>
<time>2012-07-26T13:42:44Z</time>
<speed>0.420000</speed>
<extensions>
<speed>0.4</speed>
<temp>0.00</temp>
<bpm>0</bpm>
<rpm>0.00</rpm>
</extensions>
</trkpt>
<trkpt lat="63.775917053" lon="-19.420906067">
<ele>478.929688</ele>
<time>2012-07-26T13:42:49Z</time>
<speed>0.390000</speed>
<extensions>
<speed>0.4</speed>
<temp>0.00</temp>
<bpm>0</bpm>
<rpm>0.00</rpm>
</extensions>
</trkpt>
<trkpt lat="63.775905609" lon="-19.420972824">
<ele>479.335938</ele>
<time>2012-07-26T13:42:54Z</time>
<speed>0.720000</speed>
<extensions>
<speed>0.7</speed>
<temp>0.00</temp>
<bpm>0</bpm>
<rpm>0.00</rpm>
</extensions>
</trkpt>
<trkpt lat="63.775882721" lon="-19.421039581">
<ele>479.906250</ele>
<time>2012-07-26T13:42:59Z</time>
<speed>0.880000</speed>
<extensions>
<speed>0.9</speed>
<temp>0.00</temp>
<bpm>0</bpm>
<rpm>0.00</rpm>
</extensions>
</trkpt>
<trkpt lat="63.775882721" lon="-19.421033859">
<ele>480.578125</ele>
<time>2012-07-26T13:43:04Z</time>
<speed>0.080000</speed>
<extensions>
<speed>0.1</speed>
<temp>0.00</temp>
<bpm>0</bpm>
<rpm>0.00</rpm>
</extensions>
</trkpt>
<trkpt lat="63.775882721" lon="-19.421033859">
<ele>480.554688</ele>
<time>2012-07-26T13:43:09Z</time>
<extensions>
<speed>0.0</speed>
<temp>0.00</temp>
<bpm>0</bpm>
<rpm>0.00</rpm>
</extensions>
</trkpt>
<trkpt lat="63.775882721" lon="-19.421031952">
<ele>480.539063</ele>
<time>2012-07-26T13:43:14Z</time>
<speed>0.010000</speed>
<extensions>
<speed>0.0</speed>
<temp>0.00</temp>
<bpm>0</bpm>
<rpm>0.00</rpm>
</extensions>
</trkpt>
<trkpt lat="63.775882721" lon="-19.421031952">
<ele>480.500000</ele>
<time>2012-07-26T13:43:19Z</time>
<extensions>
<speed>0.0</speed>
<temp>0.00</temp>
<bpm>0</bpm>
<rpm>0.00</rpm>
</extensions>
</trkpt>
<trkpt lat="63.775882721" lon="-19.421031952">
<ele>480.507813</ele>
<time>2012-07-26T13:43:24Z</time>
<speed>0.100000</speed>
<extensions>
<speed>0.1</speed>
<temp>0.00</temp>
<bpm>0</bpm>
<rpm>0.00</rpm>
</extensions>
</trkpt>
<trkpt lat="63.775882721" lon="-19.421033859">
<ele>480.515625</ele>
<time>2012-07-26T13:43:29Z</time>
<speed>0.010000</speed>
<extensions>
<speed>0.0</speed>
<temp>0.00</temp>
<bpm>0</bpm>
<rpm>0.00</rpm>
</extensions>
</trkpt>
<trkpt lat="63.775878906" lon="-19.421039581">
<ele>480.570313</ele>
<time>2012-07-26T13:43:34Z</time>
<speed>0.430000</speed>
<extensions>
<speed>0.4</speed>
<temp>0.00</temp>
<bpm>0</bpm>
<rpm>0.00</rpm>
</extensions>
</trkpt>
<trkpt lat="63.775863647" lon="-19.421087265">
<ele>481.234375</ele>
<time>2012-07-26T13:43:39Z</time>
<speed>0.380000</speed>
<extensions>
<speed>0.4</speed>
<temp>0.00</temp>
<bpm>0</bpm>
<rpm>0.00</rpm>
</extensions>
</trkpt>
<trkpt lat="63.775852203" lon="-19.421184540">
<ele>481.867188</ele>
<time>2012-07-26T13:43:44Z</time>
<speed>0.720000</speed>
<extensions>
<speed>0.7</speed>
<temp>0.00</temp>
<bpm>0</bpm>
<rpm>0.00</rpm>
</extensions>
</trkpt>
<trkpt lat="63.775848389" lon="-19.421262741">
<ele>482.507813</ele>
<time>2012-07-26T13:43:49Z</time>
<speed>0.650000</speed>
<extensions>
<speed>0.6</speed>
<temp>0.00</temp>
<bpm>0</bpm>
<rpm>0.00</rpm>
</extensions>
</trkpt>
<trkpt lat="63.775848389" lon="-19.421333313">
<ele>483.250000</ele>
<time>2012-07-26T13:43:54Z</time>
<speed>0.470000</speed>
<extensions>
<speed>0.5</speed>
<temp>0.00</temp>
<bpm>0</bpm>
<rpm>0.00</rpm>
</extensions>
</trkpt>
<trkpt lat="63.775821686" lon="-19.421384811">
<ele>483.929688</ele>
<time>2012-07-26T13:43:59Z</time>
<speed>0.500000</speed>
<extensions>
<speed>0.5</speed>
<temp>0.00</temp>
<bpm>0</bpm>
<rpm>0.00</rpm>
</extensions>
</trkpt>
<trkpt lat="63.775810242" lon="-19.421447754">
<ele>484.007813</ele>
<time>2012-07-26T13:44:04Z</time>
<speed>0.570000</speed>
<extensions>
<speed>0.6</speed>
<temp>0.00</temp>
<bpm>0</bpm>
<rpm>0.00</rpm>
</extensions>
</trkpt>
<trkpt lat="63.775787354" lon="-19.421531677">
<ele>483.546875</ele>
<time>2012-07-26T13:44:09Z</time>
<speed>1.000000</speed>
<extensions>
<speed>1.0</speed>
<temp>0.00</temp>
<bpm>0</bpm>
<rpm>0.00</rpm>
</extensions>
</trkpt>
<trkpt lat="63.775764465" lon="-19.421619415">
<ele>483.093750</ele>
<time>2012-07-26T13:44:14Z</time>
<speed>0.410000</speed>
<extensions>
<speed>0.4</speed>
<temp>0.00</temp>
<bpm>0</bpm>
<rpm>0.00</rpm>
</extensions>
</trkpt>
<trkpt lat="63.775749207" lon="-19.421682358">
<ele>482.890625</ele>
<time>2012-07-26T13:44:19Z</time>
<speed>0.760000</speed>
<extensions>
<speed>0.8</speed>
<temp>0.00</temp>
<bpm>0</bpm>
<rpm>0.00</rpm>
</extensions>
</trkpt>
<trkpt lat="63.775718689" lon="-19.421722412">
<ele>482.750000</ele>
<time>2012-07-26T13:44:24Z</time>
<speed>0.670000</speed>
<extensions>
<speed>0.7</speed>
<temp>0.00</temp>
<bpm>0</bpm>
<rpm>0.00</rpm>
</extensions>
</trkpt>
<trkpt lat="63.775699615" lon="-19.421815872">
<ele>482.664063</ele>
<time>2012-07-26T13:44:29Z</time>
<speed>0.950000</speed>
<extensions>
<speed>1.0</speed>
<temp>0.00</temp>
<bpm>0</bpm>
<rpm>0.00</rpm>
</extensions>
</trkpt>
<trkpt lat="63.775684357" lon="-19.421855927">
<ele>483.031250</ele>
<time>2012-07-26T13:44:34Z</time>
<speed>0.520000</speed>
<extensions>
<speed>0.5</speed>
<temp>0.00</temp>
<bpm>0</bpm>
<rpm>0.00</rpm>
</extensions>
</trkpt>
<trkpt lat="63.775669098" lon="-19.421916962">
<ele>483.515625</ele>
<time>2012-07-26T13:44:39Z</time>
<speed>0.590000</speed>
<extensions>
<speed>0.6</speed>
<temp>0.00</temp>
<bpm>0</bpm>
<rpm>0.00</rpm>
</extensions>
</trkpt>
<trkpt lat="63.775646210" lon="-19.421981812">
<ele>483.671875</ele>
<time>2012-07-26T13:44:44Z</time>
<speed>0.930000</speed>
<extensions>
<speed>0.9</speed>
<temp>0.00</temp>
<bpm>0</bpm>
<rpm>0.00</rpm>
</extensions>
</trkpt>
<trkpt lat="63.775630951" lon="-19.422060013">
<ele>483.554688</ele>
<time>2012-07-26T13:44:49Z</time>
<speed>0.670000</speed>
<extensions>
<speed>0.7</speed>
<temp>0.00</temp>
<bpm>0</bpm>
<rpm>0.00</rpm>
</extensions>
</trkpt>
<trkpt lat="63.775619507" lon="-19.422124863">
<ele>484.351563</ele>
<time>2012-07-26T13:44:54Z</time>
<speed>0.510000</speed>
<extensions>
<speed>0.5</speed>
<temp>0.00</temp>
<bpm>0</bpm>
<rpm>0.00</rpm>
</extensions>
</trkpt>
<trkpt lat="63.775615692" lon="-19.422159195">
<ele>484.570313</ele>
<time>2012-07-26T13:44:59Z</time>
<speed>0.070000</speed>
<extensions>
<speed>0.1</speed>
<temp>0.00</temp>
<bpm>0</bpm>
<rpm>0.00</rpm>
</extensions>
</trkpt>
<trkpt lat="63.775604248" lon="-19.422176361">
<ele>484.875000</ele>
<time>2012-07-26T13:45:04Z</time>
<speed>0.240000</speed>
<extensions>
<speed>0.2</speed>
<temp>0.00</temp>
<bpm>0</bpm>
<rpm>0.00</rpm>
</extensions>
</trkpt>
<trkpt lat="63.775600433" lon="-19.422243118">
<ele>486.210938</ele>
<time>2012-07-26T13:45:09Z</time>
<speed>0.490000</speed>
<extensions>
<speed>0.5</speed>
<temp>0.00</temp>
<bpm>0</bpm>
<rpm>0.00</rpm>
</extensions>
</trkpt>
<trkpt lat="63.775585175" lon="-19.422307968">
<ele>487.070313</ele>
<time>2012-07-26T13:45:14Z</time>
<speed>0.680000</speed>
<extensions>
<speed>0.7</speed>
<temp>0.00</temp>
<bpm>0</bpm>
<rpm>0.00</rpm>
</extensions>
</trkpt>
<trkpt lat="63.775573730" lon="-19.422386169">
<ele>487.726563</ele>
<time>2012-07-26T13:45:19Z</time>
<speed>0.750000</speed>
<extensions>
<speed>0.8</speed>
<temp>0.00</temp>
<bpm>0</bpm>
<rpm>0.00</rpm>
</extensions>
</trkpt>
<trkpt lat="63.775562286" lon="-19.422454834">
<ele>488.054688</ele>
<time>2012-07-26T13:45:24Z</time>
<speed>0.550000</speed>
<extensions>
<speed>0.6</speed>
<temp>0.00</temp>
<bpm>0</bpm>
<rpm>0.00</rpm>
</extensions>
</trkpt>
<trkpt lat="63.775543213" lon="-19.422531128">
<ele>488.414063</ele>
<time>2012-07-26T13:45:29Z</time>
<speed>0.810000</speed>
<extensions>
<speed>0.8</speed>
<temp>0.00</temp>
<bpm>0</bpm>
<rpm>0.00</rpm>
</extensions>
</trkpt>
<trkpt lat="63.775524139" lon="-19.422622681">
<ele>488.164063</ele>
<time>2012-07-26T13:45:34Z</time>
<speed>0.540000</speed>
<extensions>
<speed>0.5</speed>
<temp>0.00</temp>
<bpm>0</bpm>
<rpm>0.00</rpm>
</extensions>
</trkpt>
<trkpt lat="63.775516510" lon="-19.422679901">
<ele>487.507813</ele>
<time>2012-07-26T13:45:39Z</time>
<speed>0.170000</speed>
<extensions>
<speed>0.2</speed>
<temp>0.00</temp>
<bpm>0</bpm>
<rpm>0.00</rpm>
</extensions>
</trkpt>
<trkpt lat="63.775497437" lon="-19.422718048">
<ele>486.835938</ele>
<time>2012-07-26T13:45:44Z</time>
<speed>0.570000</speed>
<extensions>
<speed>0.6</speed>
<temp>0.00</temp>
<bpm>0</bpm>
<rpm>0.00</rpm>
</extensions>
</trkpt>
<trkpt lat="63.775482178" lon="-19.422801971">
<ele>486.609375</ele>
<time>2012-07-26T13:45:49Z</time>
<speed>1.030000</speed>
<extensions>
<speed>1.0</speed>
<temp>0.00</temp>
<bpm>0</bpm>
<rpm>0.00</rpm>
</extensions>
</trkpt>
<trkpt lat="63.775466919" lon="-19.422882080">
<ele>486.117188</ele>
<time>2012-07-26T13:45:54Z</time>
<speed>0.650000</speed>
<extensions>
<speed>0.6</speed>
<temp>0.00</temp>
<bpm>0</bpm>
<rpm>0.00</rpm>
</extensions>
</trkpt>
<trkpt lat="63.775447845" lon="-19.422962189">
<ele>485.546875</ele>
<time>2012-07-26T13:45:59Z</time>
<speed>0.710000</speed>
<extensions>
<speed>0.7</speed>
<temp>0.00</temp>
<bpm>0</bpm>
<rpm>0.00</rpm>
</extensions>
</trkpt>
<trkpt lat="63.775432587" lon="-19.423040390">
<ele>485.015625</ele>
<time>2012-07-26T13:46:04Z</time>
<speed>1.030000</speed>
<extensions>
<speed>1.0</speed>
<temp>0.00</temp>
<bpm>0</bpm>
<rpm>0.00</rpm>
</extensions>
</trkpt>
<trkpt lat="63.775398254" lon="-19.423126221">
<ele>484.445313</ele>
<time>2012-07-26T13:46:09Z</time>
<speed>0.810000</speed>
<extensions>
<speed>0.8</speed>
<temp>0.00</temp>
<bpm>0</bpm>
<rpm>0.00</rpm>
</extensions>
</trkpt>
<trkpt lat="63.775394440" lon="-19.423171997">
<ele>483.500000</ele>
<time>2012-07-26T13:46:14Z</time>
<speed>0.400000</speed>
<extensions>
<speed>0.4</speed>
<temp>0.00</temp>
<bpm>0</bpm>
<rpm>0.00</rpm>
</extensions>
</trkpt>
<trkpt lat="63.775363922" lon="-19.423236847">
<ele>482.960938</ele>
<time>2012-07-26T13:46:19Z</time>
<speed>0.930000</speed>
<extensions>
<speed>0.9</speed>
<temp>0.00</temp>
<bpm>0</bpm>
<rpm>0.00</rpm>
</extensions>
</trkpt>
<trkpt lat="63.775325775" lon="-19.423290253">
<ele>481.882813</ele>
<time>2012-07-26T13:46:24Z</time>
<speed>0.750000</speed>
<extensions>
<speed>0.8</speed>
<temp>0.00</temp>
<bpm>0</bpm>
<rpm>0.00</rpm>
</extensions>
</trkpt>
<trkpt lat="63.775302887" lon="-19.423347473">
<ele>480.914063</ele>
<time>2012-07-26T13:46:29Z</time>
<speed>0.640000</speed>
<extensions>
<speed>0.6</speed>
<temp>0.00</temp>
<bpm>0</bpm>
<rpm>0.00</rpm>
</extensions>
</trkpt>
<trkpt lat="63.775279999" lon="-19.423395157">
<ele>479.804688</ele>
<time>2012-07-26T13:46:34Z</time>
<speed>0.680000</speed>
<extensions>
<speed>0.7</speed>
<temp>0.00</temp>
<bpm>0</bpm>
<rpm>0.00</rpm>
</extensions>
</trkpt>
<trkpt lat="63.775264740" lon="-19.423452377">
<ele>480.843750</ele>
<time>2012-07-26T13:46:39Z</time>
<speed>0.520000</speed>
<extensions>
<speed>0.5</speed>
<temp>0.00</temp>
<bpm>0</bpm>
<rpm>0.00</rpm>
</extensions>
</trkpt>
<trkpt lat="63.775230408" lon="-19.423494339">
<ele>480.289063</ele>
<time>2012-07-26T13:46:44Z</time>
<speed>1.000000</speed>
<extensions>
<speed>1.0</speed>
<temp>0.00</temp>
<bpm>0</bpm>
<rpm>0.00</rpm>
</extensions>
</trkpt>
<trkpt lat="63.775177002" lon="-19.423515320">
<ele>480.265625</ele>
<time>2012-07-26T13:46:49Z</time>
<speed>1.350000</speed>
<extensions>
<speed>1.4</speed>
<temp>0.00</temp>
<bpm>0</bpm>
<rpm>0.00</rpm>
</extensions>
</trkpt>
<trkpt lat="63.775123596" lon="-19.423532486">
<ele>480.343750</ele>
<time>2012-07-26T13:46:54Z</time>
<speed>0.760000</speed>
<extensions>
<speed>0.8</speed>
<temp>0.00</temp>
<bpm>0</bpm>
<rpm>0.00</rpm>
</extensions>
</trkpt>
<trkpt lat="63.775089264" lon="-19.423589706">
<ele>481.445313</ele>
<time>2012-07-26T13:46:59Z</time>
<speed>0.350000</speed>
<extensions>
<speed>0.3</speed>
<temp>0.00</temp>
<bpm>0</bpm>
<rpm>0.00</rpm>
</extensions>
</trkpt>
<trkpt lat="63.775093079" lon="-19.423570633">
<ele>482.000000</ele>
<time>2012-07-26T13:47:04Z</time>
<speed>0.130000</speed>
<extensions>
<speed>0.1</speed>
<temp>0.00</temp>
<bpm>0</bpm>
<rpm>0.00</rpm>
</extensions>
</trkpt>
<trkpt lat="63.775081635" lon="-19.423564911">
<ele>481.273438</ele>
<time>2012-07-26T13:47:09Z</time>
<speed>0.540000</speed>
<extensions>
<speed>0.5</speed>
<temp>0.00</temp>
<bpm>0</bpm>
<rpm>0.00</rpm>
</extensions>
</trkpt>
<trkpt lat="63.775047302" lon="-19.423582077">
<ele>481.203125</ele>
<time>2012-07-26T13:47:14Z</time>
<speed>0.700000</speed>
<extensions>
<speed>0.7</speed>
<temp>0.00</temp>
<bpm>0</bpm>
<rpm>0.00</rpm>
</extensions>
</trkpt>
<trkpt lat="63.775001526" lon="-19.423614502">
<ele>481.218750</ele>
<time>2012-07-26T13:47:19Z</time>
<speed>0.690000</speed>
<extensions>
<speed>0.7</speed>
<temp>0.00</temp>
<bpm>0</bpm>
<rpm>0.00</rpm>
</extensions>
</trkpt>
<trkpt lat="63.774993896" lon="-19.423625946">
<ele>480.921875</ele>
<time>2012-07-26T13:47:24Z</time>
<speed>0.250000</speed>
<extensions>
<speed>0.2</speed>
<temp>0.00</temp>
<bpm>0</bpm>
<rpm>0.00</rpm>
</extensions>
</trkpt>
<trkpt lat="63.774990082" lon="-19.423639297">
<ele>481.125000</ele>
<time>2012-07-26T13:47:29Z</time>
<speed>0.070000</speed>
<extensions>
<speed>0.1</speed>
<temp>0.00</temp>
<bpm>0</bpm>
<rpm>0.00</rpm>
</extensions>
</trkpt>
<trkpt lat="63.774990082" lon="-19.423616409">
<ele>481.250000</ele>
<time>2012-07-26T13:47:34Z</time>
<speed>0.210000</speed>
<extensions>
<speed>0.2</speed>
<temp>0.00</temp>
<bpm>0</bpm>
<rpm>0.00</rpm>
</extensions>
</trkpt>
<trkpt lat="63.774986267" lon="-19.423608780">
<ele>481.320313</ele>
<time>2012-07-26T13:47:39Z</time>
<speed>0.280000</speed>
<extensions>
<speed>0.3</speed>
<temp>0.00</temp>
<bpm>0</bpm>
<rpm>0.00</rpm>
</extensions>
</trkpt>
<trkpt lat="63.774940491" lon="-19.423622131">
<ele>482.000000</ele>
<time>2012-07-26T13:47:44Z</time>
<speed>0.880000</speed>
<extensions>
<speed>0.9</speed>
<temp>0.00</temp>
<bpm>0</bpm>
<rpm>0.00</rpm>
</extensions>
</trkpt>
<trkpt lat="63.774925232" lon="-19.423667908">
<ele>483.812500</ele>
<time>2012-07-26T13:47:49Z</time>
<speed>0.910000</speed>
<extensions>
<speed>0.9</speed>
<temp>0.00</temp>
<bpm>0</bpm>
<rpm>0.00</rpm>
</extensions>
</trkpt>
<trkpt lat="63.774929047" lon="-19.423692703">
<ele>485.695313</ele>
<time>2012-07-26T13:47:54Z</time>
<speed>0.750000</speed>
<extensions>
<speed>0.8</speed>
<temp>0.00</temp>
<bpm>0</bpm>
<rpm>0.00</rpm>
</extensions>
</trkpt>
<trkpt lat="63.774890900" lon="-19.423690796">
<ele>486.414063</ele>
<time>2012-07-26T13:47:59Z</time>
<speed>0.830000</speed>
<extensions>
<speed>0.8</speed>
<temp>0.00</temp>
<bpm>0</bpm>
<rpm>0.00</rpm>
</extensions>
</trkpt>
<trkpt lat="63.774856567" lon="-19.423700333">
<ele>487.281250</ele>
<time>2012-07-26T13:48:04Z</time>
<speed>0.780000</speed>
<extensions>
<speed>0.8</speed>
<temp>0.00</temp>
<bpm>0</bpm>
<rpm>0.00</rpm>
</extensions>
</trkpt>
<trkpt lat="63.774822235" lon="-19.423671722">
<ele>488.164063</ele>
<time>2012-07-26T13:48:09Z</time>
<speed>0.860000</speed>
<extensions>
<speed>0.9</speed>
<temp>0.00</temp>
<bpm>0</bpm>
<rpm>0.00</rpm>
</extensions>
</trkpt>
<trkpt lat="63.774795532" lon="-19.423679352">
<ele>489.429688</ele>
<time>2012-07-26T13:48:14Z</time>
<speed>0.830000</speed>
<extensions>
<speed>0.8</speed>
<temp>0.00</temp>
<bpm>0</bpm>
<rpm>0.00</rpm>
</extensions>
</trkpt>
<trkpt lat="63.774765015" lon="-19.423685074">
<ele>490.554688</ele>
<time>2012-07-26T13:48:19Z</time>
<speed>0.870000</speed>
<extensions>
<speed>0.9</speed>
<temp>0.00</temp>
<bpm>0</bpm>
<rpm>0.00</rpm>
</extensions>
</trkpt>
<trkpt lat="63.774723053" lon="-19.423692703">
<ele>491.218750</ele>
<time>2012-07-26T13:48:24Z</time>
<speed>1.110000</speed>
<extensions>
<speed>1.1</speed>
<temp>0.00</temp>
<bpm>0</bpm>
<rpm>0.00</rpm>
</extensions>
</trkpt>
<trkpt lat="63.774688721" lon="-19.423692703">
<ele>492.742188</ele>
<time>2012-07-26T13:48:29Z</time>
<speed>0.870000</speed>
<extensions>
<speed>0.9</speed>
<temp>0.00</temp>
<bpm>0</bpm>
<rpm>0.00</rpm>
</extensions>
</trkpt>
<trkpt lat="63.774639130" lon="-19.423666000">
<ele>494.421875</ele>
<time>2012-07-26T13:48:34Z</time>
<speed>0.790000</speed>
<extensions>
<speed>0.8</speed>
<temp>0.00</temp>
<bpm>0</bpm>
<rpm>0.00</rpm>
</extensions>
</trkpt>
<trkpt lat="63.774589539" lon="-19.423675537">
<ele>496.125000</ele>
<time>2012-07-26T13:48:39Z</time>
<speed>0.890000</speed>
<extensions>
<speed>0.9</speed>
<temp>0.00</temp>
<bpm>0</bpm>
<rpm>0.00</rpm>
</extensions>
</trkpt>
<trkpt lat="63.774536133" lon="-19.423666000">
<ele>497.320313</ele>
<time>2012-07-26T13:48:44Z</time>
<speed>0.860000</speed>
<extensions>
<speed>0.9</speed>
<temp>0.00</temp>
<bpm>0</bpm>
<rpm>0.00</rpm>
</extensions>
</trkpt>
<trkpt lat="63.774509430" lon="-19.423652649">
<ele>497.734375</ele>
<time>2012-07-26T13:48:49Z</time>
<speed>0.570000</speed>
<extensions>
<speed>0.6</speed>
<temp>0.00</temp>
<bpm>0</bpm>
<rpm>0.00</rpm>
</extensions>
</trkpt>
<trkpt lat="63.774471283" lon="-19.423629761">
<ele>498.460938</ele>
<time>2012-07-26T13:48:54Z</time>
<speed>0.790000</speed>
<extensions>
<speed>0.8</speed>
<temp>0.00</temp>
<bpm>0</bpm>
<rpm>0.00</rpm>
</extensions>
</trkpt>
<trkpt lat="63.774421692" lon="-19.423633575">
<ele>498.617188</ele>
<time>2012-07-26T13:48:59Z</time>
<speed>0.740000</speed>
<extensions>
<speed>0.7</speed>
<temp>0.00</temp>
<bpm>0</bpm>
<rpm>0.00</rpm>
</extensions>
</trkpt>
<trkpt lat="63.774379730" lon="-19.423625946">
<ele>499.218750</ele>
<time>2012-07-26T13:49:04Z</time>
<speed>0.990000</speed>
<extensions>
<speed>1.0</speed>
<temp>0.00</temp>
<bpm>0</bpm>
<rpm>0.00</rpm>
</extensions>
</trkpt>
<trkpt lat="63.774333954" lon="-19.423625946">
<ele>499.781250</ele>
<time>2012-07-26T13:49:09Z</time>
<speed>0.680000</speed>
<extensions>
<speed>0.7</speed>
<temp>0.00</temp>
<bpm>0</bpm>
<rpm>0.00</rpm>
</extensions>
</trkpt>
<trkpt lat="63.774299622" lon="-19.423595428">
<ele>500.062500</ele>
<time>2012-07-26T13:49:14Z</time>
<speed>0.840000</speed>
<extensions>
<speed>0.8</speed>
<temp>0.00</temp>
<bpm>0</bpm>
<rpm>0.00</rpm>
</extensions>
</trkpt>
<trkpt lat="63.774257660" lon="-19.423597336">
<ele>500.312500</ele>
<time>2012-07-26T13:49:19Z</time>
<speed>0.790000</speed>
<extensions>
<speed>0.8</speed>
<temp>0.00</temp>
<bpm>0</bpm>
<rpm>0.00</rpm>
</extensions>
</trkpt>
<trkpt lat="63.774200439" lon="-19.423557281">
<ele>500.789063</ele>
<time>2012-07-26T13:49:24Z</time>
<speed>1.260000</speed>
<extensions>
<speed>1.3</speed>
<temp>0.00</temp>
<bpm>0</bpm>
<rpm>0.00</rpm>
</extensions>
</trkpt>
<trkpt lat="63.774154663" lon="-19.423505783">
<ele>501.242188</ele>
<time>2012-07-26T13:49:29Z</time>
<speed>0.900000</speed>
<extensions>
<speed>0.9</speed>
<temp>0.00</temp>
<bpm>0</bpm>
<rpm>0.00</rpm>
</extensions>
</trkpt>
<trkpt lat="63.774173737" lon="-19.423475266">
<ele>501.882813</ele>
<time>2012-07-26T13:49:34Z</time>
<speed>0.240000</speed>
<extensions>
<speed>0.2</speed>
<temp>0.00</temp>
<bpm>0</bpm>
<rpm>0.00</rpm>
</extensions>
</trkpt>
<trkpt lat="63.774162292" lon="-19.423484802">
<ele>502.406250</ele>
<time>2012-07-26T13:49:39Z</time>
<speed>0.530000</speed>
<extensions>
<speed>0.5</speed>
<temp>0.00</temp>
<bpm>0</bpm>
<rpm>0.00</rpm>
</extensions>
</trkpt>
<trkpt lat="63.774116516" lon="-19.423454285">
<ele>502.539063</ele>
<time>2012-07-26T13:49:44Z</time>
<speed>0.880000</speed>
<extensions>
<speed>0.9</speed>
<temp>0.00</temp>
<bpm>0</bpm>
<rpm>0.00</rpm>
</extensions>
</trkpt>
<trkpt lat="63.774074554" lon="-19.423418045">
<ele>502.828125</ele>
<time>2012-07-26T13:49:49Z</time>
<speed>0.860000</speed>
<extensions>
<speed>0.9</speed>
<temp>0.00</temp>
<bpm>0</bpm>
<rpm>0.00</rpm>
</extensions>
</trkpt>
<trkpt lat="63.774036407" lon="-19.423427582">
<ele>503.046875</ele>
<time>2012-07-26T13:49:54Z</time>
<speed>0.690000</speed>
<extensions>
<speed>0.7</speed>
<temp>0.00</temp>
<bpm>0</bpm>
<rpm>0.00</rpm>
</extensions>
</trkpt>
<trkpt lat="63.773986816" lon="-19.423444748">
<ele>504.875000</ele>
<time>2012-07-26T13:49:59Z</time>
<speed>1.020000</speed>
<extensions>
<speed>1.0</speed>
<temp>0.00</temp>
<bpm>0</bpm>
<rpm>0.00</rpm>
</extensions>
</trkpt>
<trkpt lat="63.773933411" lon="-19.423421860">
<ele>505.773438</ele>
<time>2012-07-26T13:50:04Z</time>
<speed>0.670000</speed>
<extensions>
<speed>0.7</speed>
<temp>0.00</temp>
<bpm>0</bpm>
<rpm>0.00</rpm>
</extensions>
</trkpt>
<trkpt lat="63.773895264" lon="-19.423431396">
<ele>505.781250</ele>
<time>2012-07-26T13:50:09Z</time>
<speed>0.840000</speed>
<extensions>
<speed>0.8</speed>
<temp>0.00</temp>
<bpm>0</bpm>
<rpm>0.00</rpm>
</extensions>
</trkpt>
<trkpt lat="63.773849487" lon="-19.423393250">
<ele>506.406250</ele>
<time>2012-07-26T13:50:14Z</time>
<speed>1.020000</speed>
<extensions>
<speed>1.0</speed>
<temp>0.00</temp>
<bpm>0</bpm>
<rpm>0.00</rpm>
</extensions>
</trkpt>
<trkpt lat="63.773788452" lon="-19.423385620">
<ele>507.117188</ele>
<time>2012-07-26T13:50:19Z</time>
<speed>1.010000</speed>
<extensions>
<speed>1.0</speed>
<temp>0.00</temp>
<bpm>0</bpm>
<rpm>0.00</rpm>
</extensions>
</trkpt>
<trkpt lat="63.773750305" lon="-19.423385620">
<ele>506.773438</ele>
<time>2012-07-26T13:50:24Z</time>
<speed>0.720000</speed>
<extensions>
<speed>0.7</speed>
<temp>0.00</temp>
<bpm>0</bpm>
<rpm>0.00</rpm>
</extensions>
</trkpt>
<trkpt lat="63.773735046" lon="-19.423406601">
<ele>506.812500</ele>
<time>2012-07-26T13:50:29Z</time>
<speed>0.940000</speed>
<extensions>
<speed>0.9</speed>
<temp>0.00</temp>
<bpm>0</bpm>
<rpm>0.00</rpm>
</extensions>
</trkpt>
<trkpt lat="63.773704529" lon="-19.423452377">
<ele>507.085938</ele>
<time>2012-07-26T13:50:34Z</time>
<speed>0.950000</speed>
<extensions>
<speed>1.0</speed>
<temp>0.00</temp>
<bpm>0</bpm>
<rpm>0.00</rpm>
</extensions>
</trkpt>
<trkpt lat="63.773715973" lon="-19.423442841">
<ele>507.296875</ele>
<time>2012-07-26T13:50:39Z</time>
<speed>0.030000</speed>
<extensions>
<speed>0.0</speed>
<temp>0.00</temp>
<bpm>0</bpm>
<rpm>0.00</rpm>
</extensions>
</trkpt>
<trkpt lat="63.773712158" lon="-19.423446655">
<ele>506.968750</ele>
<time>2012-07-26T13:50:44Z</time>
<speed>0.130000</speed>
<extensions>
<speed>0.1</speed>
<temp>0.00</temp>
<bpm>0</bpm>
<rpm>0.00</rpm>
</extensions>
</trkpt>
<trkpt lat="63.773700714" lon="-19.423486710">
<ele>507.289063</ele>
<time>2012-07-26T13:50:49Z</time>
<speed>0.660000</speed>
<extensions>
<speed>0.7</speed>
<temp>0.00</temp>
<bpm>0</bpm>
<rpm>0.00</rpm>
</extensions>
</trkpt>
<trkpt lat="63.773677826" lon="-19.423540115">
<ele>507.851563</ele>
<time>2012-07-26T13:50:54Z</time>
<speed>0.920000</speed>
<extensions>
<speed>0.9</speed>
<temp>0.00</temp>
<bpm>0</bpm>
<rpm>0.00</rpm>
</extensions>
</trkpt>
<trkpt lat="63.773654938" lon="-19.423591614">
<ele>508.015625</ele>
<time>2012-07-26T13:50:59Z</time>
<speed>0.880000</speed>
<extensions>
<speed>0.9</speed>
<temp>0.00</temp>
<bpm>0</bpm>
<rpm>0.00</rpm>
</extensions>
</trkpt>
<trkpt lat="63.773632050" lon="-19.423667908">
<ele>508.109375</ele>
<time>2012-07-26T13:51:04Z</time>
<speed>0.800000</speed>
<extensions>
<speed>0.8</speed>
<temp>0.00</temp>
<bpm>0</bpm>
<rpm>0.00</rpm>
</extensions>
</trkpt>
<trkpt lat="63.773605347" lon="-19.423744202">
<ele>508.320313</ele>
<time>2012-07-26T13:51:09Z</time>
<speed>0.690000</speed>
<extensions>
<speed>0.7</speed>
<temp>0.00</temp>
<bpm>0</bpm>
<rpm>0.00</rpm>
</extensions>
</trkpt>
<trkpt lat="63.773582458" lon="-19.423805237">
<ele>508.593750</ele>
<time>2012-07-26T13:51:14Z</time>
<speed>0.740000</speed>
<extensions>
<speed>0.7</speed>
<temp>0.00</temp>
<bpm>0</bpm>
<rpm>0.00</rpm>
</extensions>
</trkpt>
<trkpt lat="63.773567200" lon="-19.423852921">
<ele>509.257813</ele>
<time>2012-07-26T13:51:19Z</time>
<speed>0.550000</speed>
<extensions>
<speed>0.6</speed>
<temp>0.00</temp>
<bpm>0</bpm>
<rpm>0.00</rpm>
</extensions>
</trkpt>
<trkpt lat="63.773563385" lon="-19.423898697">
<ele>509.382813</ele>
<time>2012-07-26T13:51:24Z</time>
<speed>0.670000</speed>
<extensions>
<speed>0.7</speed>
<temp>0.00</temp>
<bpm>0</bpm>
<rpm>0.00</rpm>
</extensions>
</trkpt>
<trkpt lat="63.773551941" lon="-19.423959732">
<ele>509.929688</ele>
<time>2012-07-26T13:51:29Z</time>
<speed>0.660000</speed>
<extensions>
<speed>0.7</speed>
<temp>0.00</temp>
<bpm>0</bpm>
<rpm>0.00</rpm>
</extensions>
</trkpt>
<trkpt lat="63.773536682" lon="-19.424030304">
<ele>510.328125</ele>
<time>2012-07-26T13:51:34Z</time>
<speed>1.010000</speed>
<extensions>
<speed>1.0</speed>
<temp>0.00</temp>
<bpm>0</bpm>
<rpm>0.00</rpm>
</extensions>
</trkpt>
<trkpt lat="63.773525238" lon="-19.424081802">
<ele>510.781250</ele>
<time>2012-07-26T13:51:39Z</time>
<speed>0.710000</speed>
<extensions>
<speed>0.7</speed>
<temp>0.00</temp>
<bpm>0</bpm>
<rpm>0.00</rpm>
</extensions>
</trkpt>
<trkpt lat="63.773513794" lon="-19.424148560">
<ele>511.773438</ele>
<time>2012-07-26T13:51:44Z</time>
<speed>0.530000</speed>
<extensions>
<speed>0.5</speed>
<temp>0.00</temp>
<bpm>0</bpm>
<rpm>0.00</rpm>
</extensions>
</trkpt>
<trkpt lat="63.773506165" lon="-19.424234390">
<ele>512.593750</ele>
<time>2012-07-26T13:51:49Z</time>
<speed>0.650000</speed>
<extensions>
<speed>0.6</speed>
<temp>0.00</temp>
<bpm>0</bpm>
<rpm>0.00</rpm>
</extensions>
</trkpt>
<trkpt lat="63.773506165" lon="-19.424299240">
<ele>513.093750</ele>
<time>2012-07-26T13:51:54Z</time>
<speed>0.540000</speed>
<extensions>
<speed>0.5</speed>
<temp>0.00</temp>
<bpm>0</bpm>
<rpm>0.00</rpm>
</extensions>
</trkpt>
<trkpt lat="63.773498535" lon="-19.424348831">
<ele>513.406250</ele>
<time>2012-07-26T13:51:59Z</time>
<speed>0.580000</speed>
<extensions>
<speed>0.6</speed>
<temp>0.00</temp>
<bpm>0</bpm>
<rpm>0.00</rpm>
</extensions>
</trkpt>
<trkpt lat="63.773483276" lon="-19.424407959">
<ele>514.031250</ele>
<time>2012-07-26T13:52:04Z</time>
<speed>0.760000</speed>
<extensions>
<speed>0.8</speed>
<temp>0.00</temp>
<bpm>0</bpm>
<rpm>0.00</rpm>
</extensions>
</trkpt>
<trkpt lat="63.773498535" lon="-19.424501419">
<ele>515.171875</ele>
<time>2012-07-26T13:52:09Z</time>
<speed>0.240000</speed>
<extensions>
<speed>0.2</speed>
<temp>0.00</temp>
<bpm>0</bpm>
<rpm>0.00</rpm>
</extensions>
</trkpt>
<trkpt lat="63.773494720" lon="-19.424533844">
<ele>516.296875</ele>
<time>2012-07-26T13:52:14Z</time>
<speed>0.080000</speed>
<extensions>
<speed>0.1</speed>
<temp>0.00</temp>
<bpm>0</bpm>
<rpm>0.00</rpm>
</extensions>
</trkpt>
<trkpt lat="63.773490906" lon="-19.424533844">
<ele>515.734375</ele>
<time>2012-07-26T13:52:19Z</time>
<speed>0.060000</speed>
<extensions>
<speed>0.1</speed>
<temp>0.00</temp>
<bpm>0</bpm>
<rpm>0.00</rpm>
</extensions>
</trkpt>
<trkpt lat="63.773490906" lon="-19.424533844">
<ele>515.468750</ele>
<time>2012-07-26T13:52:24Z</time>
<speed>0.210000</speed>
<extensions>
<speed>0.2</speed>
<temp>0.00</temp>
<bpm>0</bpm>
<rpm>0.00</rpm>
</extensions>
</trkpt>
<trkpt lat="63.773487091" lon="-19.424535751">
<ele>515.078125</ele>
<time>2012-07-26T13:52:29Z</time>
<speed>0.020000</speed>
<extensions>
<speed>0.0</speed>
<temp>0.00</temp>
<bpm>0</bpm>
<rpm>0.00</rpm>
</extensions>
</trkpt>
<trkpt lat="63.773487091" lon="-19.424537659">
<ele>515.031250</ele>
<time>2012-07-26T13:52:34Z</time>
<extensions>
<speed>0.0</speed>
<temp>0.00</temp>
<bpm>0</bpm>
<rpm>0.00</rpm>
</extensions>
</trkpt>
<trkpt lat="63.773487091" lon="-19.424539566">
<ele>515.062500</ele>
<time>2012-07-26T13:52:39Z</time>
<speed>0.010000</speed>
<extensions>
<speed>0.0</speed>
<temp>0.00</temp>
<bpm>0</bpm>
<rpm>0.00</rpm>
</extensions>
</trkpt>
<trkpt lat="63.773487091" lon="-19.424541473">
<ele>515.140625</ele>
<time>2012-07-26T13:52:44Z</time>
<speed>0.030000</speed>
<extensions>
<speed>0.0</speed>
<temp>0.00</temp>
<bpm>0</bpm>
<rpm>0.00</rpm>
</extensions>
</trkpt>
<trkpt lat="63.773490906" lon="-19.424545288">
<ele>515.312500</ele>
<time>2012-07-26T13:52:49Z</time>
<speed>0.050000</speed>
<extensions>
<speed>0.1</speed>
<temp>0.00</temp>
<bpm>0</bpm>
<rpm>0.00</rpm>
</extensions>
</trkpt>
<trkpt lat="63.773490906" lon="-19.424549103">
<ele>515.703125</ele>
<time>2012-07-26T13:52:54Z</time>
<speed>0.090000</speed>
<extensions>
<speed>0.1</speed>
<temp>0.00</temp>
<bpm>0</bpm>
<rpm>0.00</rpm>
</extensions>
</trkpt>
<trkpt lat="63.773490906" lon="-19.424562454">
<ele>516.171875</ele>
<time>2012-07-26T13:52:59Z</time>
<speed>0.300000</speed>
<extensions>
<speed>0.3</speed>
<temp>0.00</temp>
<bpm>0</bpm>
<rpm>0.00</rpm>
</extensions>
</trkpt>
<trkpt lat="63.773487091" lon="-19.424657822">
<ele>518.218750</ele>
<time>2012-07-26T13:53:04Z</time>
<speed>0.860000</speed>
<extensions>
<speed>0.9</speed>
<temp>0.00</temp>
<bpm>0</bpm>
<rpm>0.00</rpm>
</extensions>
</trkpt>
<trkpt lat="63.773479462" lon="-19.424751282">
<ele>519.093750</ele>
<time>2012-07-26T13:53:09Z</time>
<speed>0.900000</speed>
<extensions>
<speed>0.9</speed>
<temp>0.00</temp>
<bpm>0</bpm>
<rpm>0.00</rpm>
</extensions>
</trkpt>
<trkpt lat="63.773479462" lon="-19.424850464">
<ele>519.578125</ele>
<time>2012-07-26T13:53:14Z</time>
<speed>0.980000</speed>
<extensions>
<speed>1.0</speed>
<temp>0.00</temp>
<bpm>0</bpm>
<rpm>0.00</rpm>
</extensions>
</trkpt>
<trkpt lat="63.773475647" lon="-19.424947739">
<ele>520.312500</ele>
<time>2012-07-26T13:53:19Z</time>
<speed>0.950000</speed>
<extensions>
<speed>1.0</speed>
<temp>0.00</temp>
<bpm>0</bpm>
<rpm>0.00</rpm>
</extensions>
</trkpt>
<trkpt lat="63.773490906" lon="-19.425039291">
<ele>523.921875</ele>
<time>2012-07-26T13:53:24Z</time>
<speed>0.810000</speed>
<extensions>
<speed>0.8</speed>
<temp>0.00</temp>
<bpm>0</bpm>
<rpm>0.00</rpm>
</extensions>
</trkpt>
<trkpt lat="63.773471832" lon="-19.425121307">
<ele>525.718750</ele>
<time>2012-07-26T13:53:29Z</time>
<speed>0.730000</speed>
<extensions>
<speed>0.7</speed>
<temp>0.00</temp>
<bpm>0</bpm>
<rpm>0.00</rpm>
</extensions>
</trkpt>
<trkpt lat="63.773448944" lon="-19.425201416">
<ele>527.000000</ele>
<time>2012-07-26T13:53:34Z</time>
<speed>0.820000</speed>
<extensions>
<speed>0.8</speed>
<temp>0.00</temp>
<bpm>0</bpm>
<rpm>0.00</rpm>
</extensions>
</trkpt>
<trkpt lat="63.773422241" lon="-19.425256729">
<ele>526.968750</ele>
<time>2012-07-26T13:53:39Z</time>
<speed>1.010000</speed>
<extensions>
<speed>1.0</speed>
<temp>0.00</temp>
<bpm>0</bpm>
<rpm>0.00</rpm>
</extensions>
</trkpt>
<trkpt lat="63.773403168" lon="-19.425334930">
<ele>529.812500</ele>
<time>2012-07-26T13:53:44Z</time>
<speed>0.880000</speed>
<extensions>
<speed>0.9</speed>
<temp>0.00</temp>
<bpm>0</bpm>
<rpm>0.00</rpm>
</extensions>
</trkpt>
<trkpt lat="63.773368835" lon="-19.425340652">
<ele>530.031250</ele>
<time>2012-07-26T13:53:49Z</time>
<speed>0.050000</speed>
<extensions>
<speed>0.1</speed>
<temp>0.00</temp>
<bpm>0</bpm>
<rpm>0.00</rpm>
</extensions>
</trkpt>
<trkpt lat="63.773357391" lon="-19.425317764">
<ele>529.906250</ele>
<time>2012-07-26T13:53:54Z</time>
<speed>0.040000</speed>
<extensions>
<speed>0.0</speed>
<temp>0.00</temp>
<bpm>0</bpm>
<rpm>0.00</rpm>
</extensions>
</trkpt>
<trkpt lat="63.773353577" lon="-19.425317764">
<ele>529.953125</ele>
<time>2012-07-26T13:53:59Z</time>
<speed>0.260000</speed>
<extensions>
<speed>0.3</speed>
<temp>0.00</temp>
<bpm>0</bpm>
<rpm>0.00</rpm>
</extensions>
</trkpt>
<trkpt lat="63.773319244" lon="-19.425317764">
<ele>530.812500</ele>
<time>2012-07-26T13:54:04Z</time>
<speed>1.040000</speed>
<extensions>
<speed>1.0</speed>
<temp>0.00</temp>
<bpm>0</bpm>
<rpm>0.00</rpm>
</extensions>
</trkpt>
<trkpt lat="63.773288727" lon="-19.425310135">
<ele>534.234375</ele>
<time>2012-07-26T13:54:09Z</time>
<speed>1.500000</speed>
<extensions>
<speed>1.5</speed>
<temp>0.00</temp>
<bpm>0</bpm>
<rpm>0.00</rpm>
</extensions>
</trkpt>
<trkpt lat="63.773246765" lon="-19.425281525">
<ele>535.937500</ele>
<time>2012-07-26T13:54:14Z</time>
<speed>0.950000</speed>
<extensions>
<speed>1.0</speed>
<temp>0.00</temp>
<bpm>0</bpm>
<rpm>0.00</rpm>
</extensions>
</trkpt>
<trkpt lat="63.773204803" lon="-19.425289154">
<ele>537.781250</ele>
<time>2012-07-26T13:54:19Z</time>
<speed>0.910000</speed>
<extensions>
<speed>0.9</speed>
<temp>0.00</temp>
<bpm>0</bpm>
<rpm>0.00</rpm>
</extensions>
</trkpt>
<trkpt lat="63.773159027" lon="-19.425268173">
<ele>538.140625</ele>
<time>2012-07-26T13:54:24Z</time>
<speed>1.030000</speed>
<extensions>
<speed>1.0</speed>
<temp>0.00</temp>
<bpm>0</bpm>
<rpm>0.00</rpm>
</extensions>
</trkpt>
<trkpt lat="63.773109436" lon="-19.425251007">
<ele>537.718750</ele>
<time>2012-07-26T13:54:29Z</time>
<speed>1.050000</speed>
<extensions>
<speed>1.0</speed>
<temp>0.00</temp>
<bpm>0</bpm>
<rpm>0.00</rpm>
</extensions>
</trkpt>
<trkpt lat="63.773094177" lon="-19.425237656">
<ele>539.500000</ele>
<time>2012-07-26T13:54:34Z</time>
<speed>0.560000</speed>
<extensions>
<speed>0.6</speed>
<temp>0.00</temp>
<bpm>0</bpm>
<rpm>0.00</rpm>
</extensions>
</trkpt>
<trkpt lat="63.773052216" lon="-19.425218582">
<ele>540.968750</ele>
<time>2012-07-26T13:54:39Z</time>
<speed>0.730000</speed>
<extensions>
<speed>0.7</speed>
<temp>0.00</temp>
<bpm>0</bpm>
<rpm>0.00</rpm>
</extensions>
</trkpt>
<trkpt lat="63.772998810" lon="-19.425182343">
<ele>539.796875</ele>
<time>2012-07-26T13:54:44Z</time>
<speed>1.010000</speed>
<extensions>
<speed>1.0</speed>
<temp>0.00</temp>
<bpm>0</bpm>
<rpm>0.00</rpm>
</extensions>
</trkpt>
<trkpt lat="63.772949219" lon="-19.425132751">
<ele>538.343750</ele>
<time>2012-07-26T13:54:49Z</time>
<speed>1.300000</speed>
<extensions>
<speed>1.3</speed>
<temp>0.00</temp>
<bpm>0</bpm>
<rpm>0.00</rpm>
</extensions>
</trkpt>
<trkpt lat="63.772911072" lon="-19.425092697">
<ele>539.187500</ele>
<time>2012-07-26T13:54:54Z</time>
<speed>1.050000</speed>
<extensions>
<speed>1.0</speed>
<temp>0.00</temp>
<bpm>0</bpm>
<rpm>0.00</rpm>
</extensions>
</trkpt>
<trkpt lat="63.772876740" lon="-19.425090790">
<ele>538.265625</ele>
<time>2012-07-26T13:54:59Z</time>
<speed>0.130000</speed>
<extensions>
<speed>0.1</speed>
<temp>0.00</temp>
<bpm>0</bpm>
<rpm>0.00</rpm>
</extensions>
</trkpt>
<trkpt lat="63.772884369" lon="-19.425092697">
<ele>538.312500</ele>
<time>2012-07-26T13:55:04Z</time>
<speed>0.030000</speed>
<extensions>
<speed>0.0</speed>
<temp>0.00</temp>
<bpm>0</bpm>
<rpm>0.00</rpm>
</extensions>
</trkpt>
<trkpt lat="63.772876740" lon="-19.425090790">
<ele>538.453125</ele>
<time>2012-07-26T13:55:09Z</time>
<speed>0.870000</speed>
<extensions>
<speed>0.9</speed>
<temp>0.00</temp>
<bpm>0</bpm>
<rpm>0.00</rpm>
</extensions>
</trkpt>
<trkpt lat="63.772834778" lon="-19.425088882">
<ele>539.093750</ele>
<time>2012-07-26T13:55:14Z</time>
<speed>0.950000</speed>
<extensions>
<speed>1.0</speed>
<temp>0.00</temp>
<bpm>0</bpm>
<rpm>0.00</rpm>
</extensions>
</trkpt>
<trkpt lat="63.772785187" lon="-19.425104141">
<ele>541.515625</ele>
<time>2012-07-26T13:55:19Z</time>
<speed>0.980000</speed>
<extensions>
<speed>1.0</speed>
<temp>0.00</temp>
<bpm>0</bpm>
<rpm>0.00</rpm>
</extensions>
</trkpt>
<trkpt lat="63.772743225" lon="-19.425088882">
<ele>543.125000</ele>
<time>2012-07-26T13:55:24Z</time>
<speed>0.790000</speed>
<extensions>
<speed>0.8</speed>
<temp>0.00</temp>
<bpm>0</bpm>
<rpm>0.00</rpm>
</extensions>
</trkpt>
<trkpt lat="63.772697449" lon="-19.425067902">
<ele>544.203125</ele>
<time>2012-07-26T13:55:29Z</time>
<speed>0.970000</speed>
<extensions>
<speed>1.0</speed>
<temp>0.00</temp>
<bpm>0</bpm>
<rpm>0.00</rpm>
</extensions>
</trkpt>
<trkpt lat="63.772647858" lon="-19.425054550">
<ele>545.265625</ele>
<time>2012-07-26T13:55:34Z</time>
<speed>0.910000</speed>
<extensions>
<speed>0.9</speed>
<temp>0.00</temp>
<bpm>0</bpm>
<rpm>0.00</rpm>
</extensions>
</trkpt>
<trkpt lat="63.772609711" lon="-19.425003052">
<ele>546.109375</ele>
<time>2012-07-26T13:55:39Z</time>
<speed>1.100000</speed>
<extensions>
<speed>1.1</speed>
<temp>0.00</temp>
<bpm>0</bpm>
<rpm>0.00</rpm>
</extensions>
</trkpt>
<trkpt lat="63.772556305" lon="-19.424943924">
<ele>544.250000</ele>
<time>2012-07-26T13:55:44Z</time>
<speed>1.260000</speed>
<extensions>
<speed>1.3</speed>
<temp>0.00</temp>
<bpm>0</bpm>
<rpm>0.00</rpm>
</extensions>
</trkpt>
<trkpt lat="63.772521973" lon="-19.424934387">
<ele>545.546875</ele>
<time>2012-07-26T13:55:49Z</time>
<speed>0.980000</speed>
<extensions>
<speed>1.0</speed>
<temp>0.00</temp>
<bpm>0</bpm>
<rpm>0.00</rpm>
</extensions>
</trkpt>
<trkpt lat="63.772483826" lon="-19.424951553">
<ele>546.156250</ele>
<time>2012-07-26T13:55:54Z</time>
<speed>0.790000</speed>
<extensions>
<speed>0.8</speed>
<temp>0.00</temp>
<bpm>0</bpm>
<rpm>0.00</rpm>
</extensions>
</trkpt>
<trkpt lat="63.772438049" lon="-19.424974442">
<ele>546.531250</ele>
<time>2012-07-26T13:55:59Z</time>
<speed>0.900000</speed>
<extensions>
<speed>0.9</speed>
<temp>0.00</temp>
<bpm>0</bpm>
<rpm>0.00</rpm>
</extensions>
</trkpt>
<trkpt lat="63.772426605" lon="-19.424974442">
<ele>546.109375</ele>
<time>2012-07-26T13:56:04Z</time>
<speed>0.180000</speed>
<extensions>
<speed>0.2</speed>
<temp>0.00</temp>
<bpm>0</bpm>
<rpm>0.00</rpm>
</extensions>
</trkpt>
<trkpt lat="63.772426605" lon="-19.424959183">
<ele>546.921875</ele>
<time>2012-07-26T13:56:09Z</time>
<speed>0.060000</speed>
<extensions>
<speed>0.1</speed>
<temp>0.00</temp>
<bpm>0</bpm>
<rpm>0.00</rpm>
</extensions>
</trkpt>
<trkpt lat="63.772426605" lon="-19.424959183">
<ele>546.765625</ele>
<time>2012-07-26T13:56:14Z</time>
<speed>2.940000</speed>
<extensions>
<speed>2.9</speed>
<temp>0.00</temp>
<bpm>0</bpm>
<rpm>0.00</rpm>
</extensions>
</trkpt>
<trkpt lat="63.772388458" lon="-19.424943924">
<ele>547.703125</ele>
<time>2012-07-26T13:56:19Z</time>
<speed>0.850000</speed>
<extensions>
<speed>0.8</speed>
<temp>0.00</temp>
<bpm>0</bpm>
<rpm>0.00</rpm>
</extensions>
</trkpt>
<trkpt lat="63.772342682" lon="-19.424934387">
<ele>548.437500</ele>
<time>2012-07-26T13:56:24Z</time>
<speed>0.870000</speed>
<extensions>
<speed>0.9</speed>
<temp>0.00</temp>
<bpm>0</bpm>
<rpm>0.00</rpm>
</extensions>
</trkpt>
<trkpt lat="63.772289276" lon="-19.424936295">
<ele>549.703125</ele>
<time>2012-07-26T13:56:29Z</time>
<speed>1.130000</speed>
<extensions>
<speed>1.1</speed>
<temp>0.00</temp>
<bpm>0</bpm>
<rpm>0.00</rpm>
</extensions>
</trkpt>
<trkpt lat="63.772243500" lon="-19.424880981">
<ele>548.609375</ele>
<time>2012-07-26T13:56:34Z</time>
<speed>1.020000</speed>
<extensions>
<speed>1.0</speed>
<temp>0.00</temp>
<bpm>0</bpm>
<rpm>0.00</rpm>
</extensions>
</trkpt>
<trkpt lat="63.772205353" lon="-19.424867630">
<ele>548.359375</ele>
<time>2012-07-26T13:56:39Z</time>
<speed>0.720000</speed>
<extensions>
<speed>0.7</speed>
<temp>0.00</temp>
<bpm>0</bpm>
<rpm>0.00</rpm>
</extensions>
</trkpt>
<trkpt lat="63.772178650" lon="-19.424890518">
<ele>548.453125</ele>
<time>2012-07-26T13:56:44Z</time>
<speed>1.170000</speed>
<extensions>
<speed>1.2</speed>
<temp>0.00</temp>
<bpm>0</bpm>
<rpm>0.00</rpm>
</extensions>
</trkpt>
<trkpt lat="63.772148132" lon="-19.424921036">
<ele>548.109375</ele>
<time>2012-07-26T13:56:49Z</time>
<speed>1.090000</speed>
<extensions>
<speed>1.1</speed>
<temp>0.00</temp>
<bpm>0</bpm>
<rpm>0.00</rpm>
</extensions>
</trkpt>
<trkpt lat="63.772094727" lon="-19.424942017">
<ele>549.796875</ele>
<time>2012-07-26T13:56:54Z</time>
<speed>1.110000</speed>
<extensions>
<speed>1.1</speed>
<temp>0.00</temp>
<bpm>0</bpm>
<rpm>0.00</rpm>
</extensions>
</trkpt>
<trkpt lat="63.772071838" lon="-19.424968719">
<ele>551.625000</ele>
<time>2012-07-26T13:56:59Z</time>
<speed>0.440000</speed>
<extensions>
<speed>0.4</speed>
<temp>0.00</temp>
<bpm>0</bpm>
<rpm>0.00</rpm>
</extensions>
</trkpt>
<trkpt lat="63.772087097" lon="-19.424947739">
<ele>552.187500</ele>
<time>2012-07-26T13:57:04Z</time>
<speed>0.130000</speed>
<extensions>
<speed>0.1</speed>
<temp>0.00</temp>
<bpm>0</bpm>
<rpm>0.00</rpm>
</extensions>
</trkpt>
<trkpt lat="63.772090912" lon="-19.424945831">
<ele>552.156250</ele>
<time>2012-07-26T13:57:09Z</time>
<speed>0.010000</speed>
<extensions>
<speed>0.0</speed>
<temp>0.00</temp>
<bpm>0</bpm>
<rpm>0.00</rpm>
</extensions>
</trkpt>
<trkpt lat="63.772090912" lon="-19.424945831">
<ele>552.093750</ele>
<time>2012-07-26T13:57:14Z</time>
<speed>0.580000</speed>
<extensions>
<speed>0.6</speed>
<temp>0.00</temp>
<bpm>0</bpm>
<rpm>0.00</rpm>
</extensions>
</trkpt>
<trkpt lat="63.772052765" lon="-19.424953461">
<ele>553.296875</ele>
<time>2012-07-26T13:57:19Z</time>
<speed>0.850000</speed>
<extensions>
<speed>0.8</speed>
<temp>0.00</temp>
<bpm>0</bpm>
<rpm>0.00</rpm>
</extensions>
</trkpt>
<trkpt lat="63.772003174" lon="-19.424982071">
<ele>553.593750</ele>
<time>2012-07-26T13:57:24Z</time>
<speed>1.200000</speed>
<extensions>
<speed>1.2</speed>
<temp>0.00</temp>
<bpm>0</bpm>
<rpm>0.00</rpm>
</extensions>
</trkpt>
<trkpt lat="63.771938324" lon="-19.425001144">
<ele>554.328125</ele>
<time>2012-07-26T13:57:29Z</time>
<speed>0.720000</speed>
<extensions>
<speed>0.7</speed>
<temp>0.00</temp>
<bpm>0</bpm>
<rpm>0.00</rpm>
</extensions>
</trkpt>
<trkpt lat="63.771892548" lon="-19.425006866">
<ele>555.484375</ele>
<time>2012-07-26T13:57:34Z</time>
<speed>1.230000</speed>
<extensions>
<speed>1.2</speed>
<temp>0.00</temp>
<bpm>0</bpm>
<rpm>0.00</rpm>
</extensions>
</trkpt>
<trkpt lat="63.771839142" lon="-19.424985886">
<ele>555.593750</ele>
<time>2012-07-26T13:57:39Z</time>
<speed>0.870000</speed>
<extensions>
<speed>0.9</speed>
<temp>0.00</temp>
<bpm>0</bpm>
<rpm>0.00</rpm>
</extensions>
</trkpt>
<trkpt lat="63.771793365" lon="-19.424962997">
<ele>558.343750</ele>
<time>2012-07-26T13:57:44Z</time>
<speed>1.300000</speed>
<extensions>
<speed>1.3</speed>
<temp>0.00</temp>
<bpm>0</bpm>
<rpm>0.00</rpm>
</extensions>
</trkpt>
<trkpt lat="63.771739960" lon="-19.424930573">
<ele>559.281250</ele>
<time>2012-07-26T13:57:49Z</time>
<speed>1.350000</speed>
<extensions>
<speed>1.4</speed>
<temp>0.00</temp>
<bpm>0</bpm>
<rpm>0.00</rpm>
</extensions>
</trkpt>
<trkpt lat="63.771682739" lon="-19.424903870">
<ele>558.937500</ele>
<time>2012-07-26T13:57:54Z</time>
<speed>1.450000</speed>
<extensions>
<speed>1.4</speed>
<temp>0.00</temp>
<bpm>0</bpm>
<rpm>0.00</rpm>
</extensions>
</trkpt>
<trkpt lat="63.771625519" lon="-19.424888611">
<ele>558.968750</ele>
<time>2012-07-26T13:57:59Z</time>
<speed>0.930000</speed>
<extensions>
<speed>0.9</speed>
<temp>0.00</temp>
<bpm>0</bpm>
<rpm>0.00</rpm>
</extensions>
</trkpt>
<trkpt lat="63.771572113" lon="-19.424860001">
<ele>560.078125</ele>
<time>2012-07-26T13:58:04Z</time>
<speed>1.210000</speed>
<extensions>
<speed>1.2</speed>
<temp>0.00</temp>
<bpm>0</bpm>
<rpm>0.00</rpm>
</extensions>
</trkpt>
<trkpt lat="63.771522522" lon="-19.424886703">
<ele>559.703125</ele>
<time>2012-07-26T13:58:09Z</time>
<speed>0.890000</speed>
<extensions>
<speed>0.9</speed>
<temp>0.00</temp>
<bpm>0</bpm>
<rpm>0.00</rpm>
</extensions>
</trkpt>
<trkpt lat="63.771484375" lon="-19.424877167">
<ele>559.640625</ele>
<time>2012-07-26T13:58:14Z</time>
<speed>0.870000</speed>
<extensions>
<speed>0.9</speed>
<temp>0.00</temp>
<bpm>0</bpm>
<rpm>0.00</rpm>
</extensions>
</trkpt>
<trkpt lat="63.771465302" lon="-19.424913406">
<ele>560.625000</ele>
<time>2012-07-26T13:58:19Z</time>
<speed>0.040000</speed>
<extensions>
<speed>0.0</speed>
<temp>0.00</temp>
<bpm>0</bpm>
<rpm>0.00</rpm>
</extensions>
</trkpt>
<trkpt lat="63.771465302" lon="-19.424917221">
<ele>560.750000</ele>
<time>2012-07-26T13:58:24Z</time>
<speed>0.250000</speed>
<extensions>
<speed>0.2</speed>
<temp>0.00</temp>
<bpm>0</bpm>
<rpm>0.00</rpm>
</extensions>
</trkpt>
<trkpt lat="63.771446228" lon="-19.424924850">
<ele>560.890625</ele>
<time>2012-07-26T13:58:29Z</time>
<speed>0.980000</speed>
<extensions>
<speed>1.0</speed>
<temp>0.00</temp>
<bpm>0</bpm>
<rpm>0.00</rpm>
</extensions>
</trkpt>
<trkpt lat="63.771396637" lon="-19.424915314">
<ele>559.906250</ele>
<time>2012-07-26T13:58:34Z</time>
<speed>1.220000</speed>
<extensions>
<speed>1.2</speed>
<temp>0.00</temp>
<bpm>0</bpm>
<rpm>0.00</rpm>
</extensions>
</trkpt>
<trkpt lat="63.771347046" lon="-19.424953461">
<ele>559.750000</ele>
<time>2012-07-26T13:58:39Z</time>
<speed>1.410000</speed>
<extensions>
<speed>1.4</speed>
<temp>0.00</temp>
<bpm>0</bpm>
<rpm>0.00</rpm>
</extensions>
</trkpt>
<trkpt lat="63.771308899" lon="-19.424957275">
<ele>559.640625</ele>
<time>2012-07-26T13:58:44Z</time>
<speed>0.870000</speed>
<extensions>
<speed>0.9</speed>
<temp>0.00</temp>
<bpm>0</bpm>
<rpm>0.00</rpm>
</extensions>
</trkpt>
<trkpt lat="63.771232605" lon="-19.424924850">
<ele>559.578125</ele>
<time>2012-07-26T13:58:49Z</time>
<speed>1.410000</speed>
<extensions>
<speed>1.4</speed>
<temp>0.00</temp>
<bpm>0</bpm>
<rpm>0.00</rpm>
</extensions>
</trkpt>
<trkpt lat="63.771186829" lon="-19.424921036">
<ele>559.812500</ele>
<time>2012-07-26T13:58:54Z</time>
<speed>1.330000</speed>
<extensions>
<speed>1.3</speed>
<temp>0.00</temp>
<bpm>0</bpm>
<rpm>0.00</rpm>
</extensions>
</trkpt>
<trkpt lat="63.771141052" lon="-19.424911499">
<ele>560.687500</ele>
<time>2012-07-26T13:58:59Z</time>
<speed>1.390000</speed>
<extensions>
<speed>1.4</speed>
<temp>0.00</temp>
<bpm>0</bpm>
<rpm>0.00</rpm>
</extensions>
</trkpt>
<trkpt lat="63.771080017" lon="-19.424856186">
<ele>560.375000</ele>
<time>2012-07-26T13:59:04Z</time>
<speed>1.200000</speed>
<extensions>
<speed>1.2</speed>
<temp>0.00</temp>
<bpm>0</bpm>
<rpm>0.00</rpm>
</extensions>
</trkpt>
<trkpt lat="63.771030426" lon="-19.424879074">
<ele>561.625000</ele>
<time>2012-07-26T13:59:09Z</time>
<speed>1.010000</speed>
<extensions>
<speed>1.0</speed>
<temp>0.00</temp>
<bpm>0</bpm>
<rpm>0.00</rpm>
</extensions>
</trkpt>
<trkpt lat="63.770988464" lon="-19.424863815">
<ele>563.984375</ele>
<time>2012-07-26T13:59:14Z</time>
<speed>1.650000</speed>
<extensions>
<speed>1.7</speed>
<temp>0.00</temp>
<bpm>0</bpm>
<rpm>0.00</rpm>
</extensions>
</trkpt>
<trkpt lat="63.770942688" lon="-19.424839020">
<ele>565.921875</ele>
<time>2012-07-26T13:59:19Z</time>
<speed>1.170000</speed>
<extensions>
<speed>1.2</speed>
<temp>0.00</temp>
<bpm>0</bpm>
<rpm>0.00</rpm>
</extensions>
</trkpt>
<trkpt lat="63.770893097" lon="-19.424819946">
<ele>566.296875</ele>
<time>2012-07-26T13:59:24Z</time>
<speed>0.800000</speed>
<extensions>
<speed>0.8</speed>
<temp>0.00</temp>
<bpm>0</bpm>
<rpm>0.00</rpm>
</extensions>
</trkpt>
<trkpt lat="63.770843506" lon="-19.424842834">
<ele>567.265625</ele>
<time>2012-07-26T13:59:29Z</time>
<speed>0.460000</speed>
<extensions>
<speed>0.5</speed>
<temp>0.00</temp>
<bpm>0</bpm>
<rpm>0.00</rpm>
</extensions>
</trkpt>
<trkpt lat="63.770832062" lon="-19.424827576">
<ele>567.890625</ele>
<time>2012-07-26T13:59:34Z</time>
<speed>0.090000</speed>
<extensions>
<speed>0.1</speed>
<temp>0.00</temp>
<bpm>0</bpm>
<rpm>0.00</rpm>
</extensions>
</trkpt>
<trkpt lat="63.770809174" lon="-19.424854279">
<ele>569.828125</ele>
<time>2012-07-26T13:59:39Z</time>
<speed>1.710000</speed>
<extensions>
<speed>1.7</speed>
<temp>0.00</temp>
<bpm>0</bpm>
<rpm>0.00</rpm>
</extensions>
</trkpt>
<trkpt lat="63.770740509" lon="-19.424884796">
<ele>571.515625</ele>
<time>2012-07-26T13:59:44Z</time>
<speed>1.930000</speed>
<extensions>
<speed>1.9</speed>
<temp>0.00</temp>
<bpm>0</bpm>
<rpm>0.00</rpm>
</extensions>
</trkpt>
<trkpt lat="63.770660400" lon="-19.424936295">
<ele>571.593750</ele>
<time>2012-07-26T13:59:49Z</time>
<speed>1.910000</speed>
<extensions>
<speed>1.9</speed>
<temp>0.00</temp>
<bpm>0</bpm>
<rpm>0.00</rpm>
</extensions>
</trkpt>
<trkpt lat="63.770584106" lon="-19.425058365">
<ele>572.281250</ele>
<time>2012-07-26T13:59:54Z</time>
<speed>2.100000</speed>
<extensions>
<speed>2.1</speed>
<temp>0.00</temp>
<bpm>0</bpm>
<rpm>0.00</rpm>
</extensions>
</trkpt>
<trkpt lat="63.770500183" lon="-19.425184250">
<ele>573.109375</ele>
<time>2012-07-26T13:59:59Z</time>
<speed>2.290000</speed>
<extensions>
<speed>2.3</speed>
<temp>0.00</temp>
<bpm>0</bpm>
<rpm>0.00</rpm>
</extensions>
</trkpt>
<trkpt lat="63.770427704" lon="-19.425310135">
<ele>573.640625</ele>
<time>2012-07-26T14:00:04Z</time>
<speed>2.070000</speed>
<extensions>
<speed>2.1</speed>
<temp>0.00</temp>
<bpm>0</bpm>
<rpm>0.00</rpm>
</extensions>
</trkpt>
<trkpt lat="63.770355225" lon="-19.425420761">
<ele>573.875000</ele>
<time>2012-07-26T14:00:09Z</time>
<speed>2.160000</speed>
<extensions>
<speed>2.2</speed>
<temp>0.00</temp>
<bpm>0</bpm>
<rpm>0.00</rpm>
</extensions>
</trkpt>
<trkpt lat="63.770263672" lon="-19.425533295">
<ele>574.531250</ele>
<time>2012-07-26T14:00:14Z</time>
<speed>2.490000</speed>
<extensions>
<speed>2.5</speed>
<temp>0.00</temp>
<bpm>0</bpm>
<rpm>0.00</rpm>
</extensions>
</trkpt>
<trkpt lat="63.770172119" lon="-19.425664902">
<ele>575.156250</ele>
<time>2012-07-26T14:00:19Z</time>
<speed>2.270000</speed>
<extensions>
<speed>2.3</speed>
<temp>0.00</temp>
<bpm>0</bpm>
<rpm>0.00</rpm>
</extensions>
</trkpt>
<trkpt lat="63.770092010" lon="-19.425783157">
<ele>575.578125</ele>
<time>2012-07-26T14:00:24Z</time>
<speed>2.070000</speed>
<extensions>
<speed>2.1</speed>
<temp>0.00</temp>
<bpm>0</bpm>
<rpm>0.00</rpm>
</extensions>
</trkpt>
<trkpt lat="63.769992828" lon="-19.425891876">
<ele>575.718750</ele>
<time>2012-07-26T14:00:29Z</time>
<speed>2.360000</speed>
<extensions>
<speed>2.4</speed>
<temp>0.00</temp>
<bpm>0</bpm>
<rpm>0.00</rpm>
</extensions>
</trkpt>
<trkpt lat="63.769905090" lon="-19.425983429">
<ele>576.593750</ele>
<time>2012-07-26T14:00:34Z</time>
<speed>2.090000</speed>
<extensions>
<speed>2.1</speed>
<temp>0.00</temp>
<bpm>0</bpm>
<rpm>0.00</rpm>
</extensions>
</trkpt>
<trkpt lat="63.769821167" lon="-19.426113129">
<ele>576.765625</ele>
<time>2012-07-26T14:00:39Z</time>
<speed>2.410000</speed>
<extensions>
<speed>2.4</speed>
<temp>0.00</temp>
<bpm>0</bpm>
<rpm>0.00</rpm>
</extensions>
</trkpt>
<trkpt lat="63.769741058" lon="-19.426218033">
<ele>577.031250</ele>
<time>2012-07-26T14:00:44Z</time>
<speed>1.920000</speed>
<extensions>
<speed>1.9</speed>
<temp>0.00</temp>
<bpm>0</bpm>
<rpm>0.00</rpm>
</extensions>
</trkpt>
<trkpt lat="63.769672394" lon="-19.426292419">
<ele>577.000000</ele>
<time>2012-07-26T14:00:49Z</time>
<speed>1.910000</speed>
<extensions>
<speed>1.9</speed>
<temp>0.00</temp>
<bpm>0</bpm>
<rpm>0.00</rpm>
</extensions>
</trkpt>
<trkpt lat="63.769596100" lon="-19.426385880">
<ele>576.765625</ele>
<time>2012-07-26T14:00:54Z</time>
<speed>1.640000</speed>
<extensions>
<speed>1.6</speed>
<temp>0.00</temp>
<bpm>0</bpm>
<rpm>0.00</rpm>
</extensions>
</trkpt>
<trkpt lat="63.769535065" lon="-19.426454544">
<ele>577.296875</ele>
<time>2012-07-26T14:00:59Z</time>
<speed>1.720000</speed>
<extensions>
<speed>1.7</speed>
<temp>0.00</temp>
<bpm>0</bpm>
<rpm>0.00</rpm>
</extensions>
</trkpt>
<trkpt lat="63.769470215" lon="-19.426538467">
<ele>577.734375</ele>
<time>2012-07-26T14:01:04Z</time>
<speed>1.860000</speed>
<extensions>
<speed>1.9</speed>
<temp>0.00</temp>
<bpm>0</bpm>
<rpm>0.00</rpm>
</extensions>
</trkpt>
<trkpt lat="63.769401550" lon="-19.426677704">
<ele>577.843750</ele>
<time>2012-07-26T14:01:09Z</time>
<speed>2.370000</speed>
<extensions>
<speed>2.4</speed>
<temp>0.00</temp>
<bpm>0</bpm>
<rpm>0.00</rpm>
</extensions>
</trkpt>
<trkpt lat="63.769329071" lon="-19.426811218">
<ele>578.343750</ele>
<time>2012-07-26T14:01:14Z</time>
<speed>0.380000</speed>
<extensions>
<speed>0.4</speed>
<temp>0.00</temp>
<bpm>0</bpm>
<rpm>0.00</rpm>
</extensions>
</trkpt>
<trkpt lat="63.769325256" lon="-19.426801682">
<ele>578.421875</ele>
<time>2012-07-26T14:01:19Z</time>
<speed>0.170000</speed>
<extensions>
<speed>0.2</speed>
<temp>0.00</temp>
<bpm>0</bpm>
<rpm>0.00</rpm>
</extensions>
</trkpt>
<trkpt lat="63.769321442" lon="-19.426801682">
<ele>578.437500</ele>
<time>2012-07-26T14:01:24Z</time>
<speed>0.090000</speed>
<extensions>
<speed>0.1</speed>
<temp>0.00</temp>
<bpm>0</bpm>
<rpm>0.00</rpm>
</extensions>
</trkpt>
<trkpt lat="63.769329071" lon="-19.426801682">
<ele>578.390625</ele>
<time>2012-07-26T14:01:29Z</time>
<speed>0.090000</speed>
<extensions>
<speed>0.1</speed>
<temp>0.00</temp>
<bpm>0</bpm>
<rpm>0.00</rpm>
</extensions>
</trkpt>
<trkpt lat="63.769329071" lon="-19.426805496">
<ele>578.359375</ele>
<time>2012-07-26T14:01:34Z</time>
<speed>0.280000</speed>
<extensions>
<speed>0.3</speed>
<temp>0.00</temp>
<bpm>0</bpm>
<rpm>0.00</rpm>
</extensions>
</trkpt>
<trkpt lat="63.769283295" lon="-19.426847458">
<ele>578.531250</ele>
<time>2012-07-26T14:01:39Z</time>
<speed>2.100000</speed>
<extensions>
<speed>2.1</speed>
<temp>0.00</temp>
<bpm>0</bpm>
<rpm>0.00</rpm>
</extensions>
</trkpt>
<trkpt lat="63.769199371" lon="-19.426952362">
<ele>579.609375</ele>
<time>2012-07-26T14:01:44Z</time>
<speed>2.200000</speed>
<extensions>
<speed>2.2</speed>
<temp>0.00</temp>
<bpm>0</bpm>
<rpm>0.00</rpm>
</extensions>
</trkpt>
<trkpt lat="63.769100189" lon="-19.427097321">
<ele>578.875000</ele>
<time>2012-07-26T14:01:49Z</time>
<speed>2.560000</speed>
<extensions>
<speed>2.6</speed>
<temp>0.00</temp>
<bpm>0</bpm>
<rpm>0.00</rpm>
</extensions>
</trkpt>
<trkpt lat="63.769008636" lon="-19.427248001">
<ele>578.453125</ele>
<time>2012-07-26T14:01:54Z</time>
<speed>2.800000</speed>
<extensions>
<speed>2.8</speed>
<temp>0.00</temp>
<bpm>0</bpm>
<rpm>0.00</rpm>
</extensions>
</trkpt>
<trkpt lat="63.768905640" lon="-19.427450180">
<ele>577.312500</ele>
<time>2012-07-26T14:01:59Z</time>
<speed>3.710000</speed>
<extensions>
<speed>3.7</speed>
<temp>0.00</temp>
<bpm>0</bpm>
<rpm>0.00</rpm>
</extensions>
</trkpt>
<trkpt lat="63.768764496" lon="-19.427715302">
<ele>576.093750</ele>
<time>2012-07-26T14:02:04Z</time>
<speed>4.170000</speed>
<extensions>
<speed>4.2</speed>
<temp>0.00</temp>
<bpm>0</bpm>
<rpm>0.00</rpm>
</extensions>
</trkpt>
<trkpt lat="63.768619537" lon="-19.427989960">
<ele>576.234375</ele>
<time>2012-07-26T14:02:09Z</time>
<speed>4.270000</speed>
<extensions>
<speed>4.3</speed>
<temp>0.00</temp>
<bpm>0</bpm>
<rpm>0.00</rpm>
</extensions>
</trkpt>
<trkpt lat="63.768489838" lon="-19.428258896">
<ele>576.531250</ele>
<time>2012-07-26T14:02:14Z</time>
<speed>4.270000</speed>
<extensions>
<speed>4.3</speed>
<temp>0.00</temp>
<bpm>0</bpm>
<rpm>0.00</rpm>
</extensions>
</trkpt>
<trkpt lat="63.768341064" lon="-19.428541183">
<ele>576.609375</ele>
<time>2012-07-26T14:02:19Z</time>
<speed>4.020000</speed>
<extensions>
<speed>4.0</speed>
<temp>0.00</temp>
<bpm>0</bpm>
<rpm>0.00</rpm>
</extensions>
</trkpt>
<trkpt lat="63.768211365" lon="-19.428781509">
<ele>577.687500</ele>
<time>2012-07-26T14:02:24Z</time>
<speed>3.470000</speed>
<extensions>
<speed>3.5</speed>
<temp>0.00</temp>
<bpm>0</bpm>
<rpm>0.00</rpm>
</extensions>
</trkpt>
<trkpt lat="63.768104553" lon="-19.429014206">
<ele>578.125000</ele>
<time>2012-07-26T14:02:29Z</time>
<speed>3.400000</speed>
<extensions>
<speed>3.4</speed>
<temp>0.00</temp>
<bpm>0</bpm>
<rpm>0.00</rpm>
</extensions>
</trkpt>
<trkpt lat="63.767990112" lon="-19.429321289">
<ele>577.906250</ele>
<time>2012-07-26T14:02:34Z</time>
<speed>4.450000</speed>
<extensions>
<speed>4.5</speed>
<temp>0.00</temp>
<bpm>0</bpm>
<rpm>0.00</rpm>
</extensions>
</trkpt>
<trkpt lat="63.767856598" lon="-19.429771423">
<ele>574.484375</ele>
<time>2012-07-26T14:02:39Z</time>
<speed>5.830000</speed>
<extensions>
<speed>5.8</speed>
<temp>0.00</temp>
<bpm>0</bpm>
<rpm>0.00</rpm>
</extensions>
</trkpt>
<trkpt lat="63.767688751" lon="-19.430295944">
<ele>571.562500</ele>
<time>2012-07-26T14:02:44Z</time>
<speed>7.400000</speed>
<extensions>
<speed>7.4</speed>
<temp>0.00</temp>
<bpm>0</bpm>
<rpm>0.00</rpm>
</extensions>
</trkpt>
<trkpt lat="63.767478943" lon="-19.430971146">
<ele>569.390625</ele>
<time>2012-07-26T14:02:49Z</time>
<speed>7.350000</speed>
<extensions>
<speed>7.3</speed>
<temp>0.00</temp>
<bpm>0</bpm>
<rpm>0.00</rpm>
</extensions>
</trkpt>
<trkpt lat="63.767364502" lon="-19.431650162">
<ele>567.562500</ele>
<time>2012-07-26T14:02:54Z</time>
<speed>6.990000</speed>
<extensions>
<speed>7.0</speed>
<temp>0.00</temp>
<bpm>0</bpm>
<rpm>0.00</rpm>
</extensions>
</trkpt>
<trkpt lat="63.767322540" lon="-19.432413101">
<ele>564.656250</ele>
<time>2012-07-26T14:02:59Z</time>
<speed>7.710000</speed>
<extensions>
<speed>7.7</speed>
<temp>0.00</temp>
<bpm>0</bpm>
<rpm>0.00</rpm>
</extensions>
</trkpt>
<trkpt lat="63.767200470" lon="-19.433166504">
<ele>558.453125</ele>
<time>2012-07-26T14:03:04Z</time>
<speed>9.870000</speed>
<extensions>
<speed>9.9</speed>
<temp>0.00</temp>
<bpm>0</bpm>
<rpm>0.00</rpm>
</extensions>
</trkpt>
<trkpt lat="63.766834259" lon="-19.433973312">
<ele>553.531250</ele>
<time>2012-07-26T14:03:09Z</time>
<speed>11.410000</speed>
<extensions>
<speed>11.4</speed>
<temp>0.00</temp>
<bpm>0</bpm>
<rpm>0.00</rpm>
</extensions>
</trkpt>
<trkpt lat="63.766582489" lon="-19.434623718">
<ele>550.250000</ele>
<time>2012-07-26T14:03:14Z</time>
<speed>6.120000</speed>
<extensions>
<speed>6.1</speed>
<temp>0.00</temp>
<bpm>0</bpm>
<rpm>0.00</rpm>
</extensions>
</trkpt>
<trkpt lat="63.766433716" lon="-19.435016632">
<ele>546.859375</ele>
<time>2012-07-26T14:03:19Z</time>
<speed>4.600000</speed>
<extensions>
<speed>4.6</speed>
<temp>0.00</temp>
<bpm>0</bpm>
<rpm>0.00</rpm>
</extensions>
</trkpt>
<trkpt lat="63.766273499" lon="-19.435428619">
<ele>543.640625</ele>
<time>2012-07-26T14:03:24Z</time>
<speed>6.540000</speed>
<extensions>
<speed>6.5</speed>
<temp>0.00</temp>
<bpm>0</bpm>
<rpm>0.00</rpm>
</extensions>
</trkpt>
<trkpt lat="63.766075134" lon="-19.435979843">
<ele>539.000000</ele>
<time>2012-07-26T14:03:29Z</time>
<speed>7.710000</speed>
<extensions>
<speed>7.7</speed>
<temp>0.00</temp>
<bpm>0</bpm>
<rpm>0.00</rpm>
</extensions>
</trkpt>
<trkpt lat="63.765869141" lon="-19.436557770">
<ele>533.296875</ele>
<time>2012-07-26T14:03:34Z</time>
<speed>8.520000</speed>
<extensions>
<speed>8.5</speed>
<temp>0.00</temp>
<bpm>0</bpm>
<rpm>0.00</rpm>
</extensions>
</trkpt>
<trkpt lat="63.765575409" lon="-19.437273026">
<ele>530.312500</ele>
<time>2012-07-26T14:03:39Z</time>
<speed>10.260000</speed>
<extensions>
<speed>10.3</speed>
<temp>0.00</temp>
<bpm>0</bpm>
<rpm>0.00</rpm>
</extensions>
</trkpt>
<trkpt lat="63.765224457" lon="-19.438062668">
<ele>527.000000</ele>
<time>2012-07-26T14:03:44Z</time>
<speed>11.250000</speed>
<extensions>
<speed>11.3</speed>
<temp>0.00</temp>
<bpm>0</bpm>
<rpm>0.00</rpm>
</extensions>
</trkpt>
<trkpt lat="63.764846802" lon="-19.438760757">
<ele>526.203125</ele>
<time>2012-07-26T14:03:49Z</time>
<speed>10.960000</speed>
<extensions>
<speed>11.0</speed>
<temp>0.00</temp>
<bpm>0</bpm>
<rpm>0.00</rpm>
</extensions>
</trkpt>
<trkpt lat="63.764476776" lon="-19.439373016">
<ele>526.390625</ele>
<time>2012-07-26T14:03:54Z</time>
<speed>9.790000</speed>
<extensions>
<speed>9.8</speed>
<temp>0.00</temp>
<bpm>0</bpm>
<rpm>0.00</rpm>
</extensions>
</trkpt>
<trkpt lat="63.764137268" lon="-19.439908981">
<ele>527.140625</ele>
<time>2012-07-26T14:03:59Z</time>
<speed>9.319999</speed>
<extensions>
<speed>9.3</speed>
<temp>0.00</temp>
<bpm>0</bpm>
<rpm>0.00</rpm>
</extensions>
</trkpt>
<trkpt lat="63.763805389" lon="-19.440454483">
<ele>527.453125</ele>
<time>2012-07-26T14:04:04Z</time>
<speed>8.600000</speed>
<extensions>
<speed>8.6</speed>
<temp>0.00</temp>
<bpm>0</bpm>
<rpm>0.00</rpm>
</extensions>
</trkpt>
<trkpt lat="63.763500214" lon="-19.440788269">
<ele>529.093750</ele>
<time>2012-07-26T14:04:09Z</time>
<speed>6.850000</speed>
<extensions>
<speed>6.8</speed>
<temp>0.00</temp>
<bpm>0</bpm>
<rpm>0.00</rpm>
</extensions>
</trkpt>
<trkpt lat="63.763195038" lon="-19.440826416">
<ele>530.906250</ele>
<time>2012-07-26T14:04:14Z</time>
<speed>6.780000</speed>
<extensions>
<speed>6.8</speed>
<temp>0.00</temp>
<bpm>0</bpm>
<rpm>0.00</rpm>
</extensions>
</trkpt>
<trkpt lat="63.762916565" lon="-19.440769196">
<ele>531.515625</ele>
<time>2012-07-26T14:04:19Z</time>
<speed>5.620000</speed>
<extensions>
<speed>5.6</speed>
<temp>0.00</temp>
<bpm>0</bpm>
<rpm>0.00</rpm>
</extensions>
</trkpt>
<trkpt lat="63.762680054" lon="-19.440622330">
<ele>530.156250</ele>
<time>2012-07-26T14:04:24Z</time>
<speed>4.840000</speed>
<extensions>
<speed>4.8</speed>
<temp>0.00</temp>
<bpm>0</bpm>
<rpm>0.00</rpm>
</extensions>
</trkpt>
<trkpt lat="63.762458801" lon="-19.440425873">
<ele>529.968750</ele>
<time>2012-07-26T14:04:29Z</time>
<speed>5.590000</speed>
<extensions>
<speed>5.6</speed>
<temp>0.00</temp>
<bpm>0</bpm>
<rpm>0.00</rpm>
</extensions>
</trkpt>
<trkpt lat="63.762222290" lon="-19.440172195">
<ele>529.921875</ele>
<time>2012-07-26T14:04:34Z</time>
<speed>5.670000</speed>
<extensions>
<speed>5.7</speed>
<temp>0.00</temp>
<bpm>0</bpm>
<rpm>0.00</rpm>
</extensions>
</trkpt>
<trkpt lat="63.761981964" lon="-19.439958572">
<ele>529.062500</ele>
<time>2012-07-26T14:04:39Z</time>
<speed>5.830000</speed>
<extensions>
<speed>5.8</speed>
<temp>0.00</temp>
<bpm>0</bpm>
<rpm>0.00</rpm>
</extensions>
</trkpt>
<trkpt lat="63.761730194" lon="-19.439773560">
<ele>528.515625</ele>
<time>2012-07-26T14:04:44Z</time>
<speed>6.350000</speed>
<extensions>
<speed>6.4</speed>
<temp>0.00</temp>
<bpm>0</bpm>
<rpm>0.00</rpm>
</extensions>
</trkpt>
<trkpt lat="63.761463165" lon="-19.439598083">
<ele>529.046875</ele>
<time>2012-07-26T14:04:49Z</time>
<speed>6.230000</speed>
<extensions>
<speed>6.2</speed>
<temp>0.00</temp>
<bpm>0</bpm>
<rpm>0.00</rpm>
</extensions>
</trkpt>
<trkpt lat="63.761184692" lon="-19.439405441">
<ele>528.765625</ele>
<time>2012-07-26T14:04:54Z</time>
<speed>6.390000</speed>
<extensions>
<speed>6.4</speed>
<temp>0.00</temp>
<bpm>0</bpm>
<rpm>0.00</rpm>
</extensions>
</trkpt>
<trkpt lat="63.760917664" lon="-19.439214706">
<ele>528.500000</ele>
<time>2012-07-26T14:04:59Z</time>
<speed>6.020000</speed>
<extensions>
<speed>6.0</speed>
<temp>0.00</temp>
<bpm>0</bpm>
<rpm>0.00</rpm>
</extensions>
</trkpt>
<trkpt lat="63.760662079" lon="-19.439041138">
<ele>527.265625</ele>
<time>2012-07-26T14:05:04Z</time>
<speed>5.580000</speed>
<extensions>
<speed>5.6</speed>
<temp>0.00</temp>
<bpm>0</bpm>
<rpm>0.00</rpm>
</extensions>
</trkpt>
<trkpt lat="63.760421753" lon="-19.438995361">
<ele>527.156250</ele>
<time>2012-07-26T14:05:09Z</time>
<speed>5.640000</speed>
<extensions>
<speed>5.6</speed>
<temp>0.00</temp>
<bpm>0</bpm>
<rpm>0.00</rpm>
</extensions>
</trkpt>
<trkpt lat="63.760223389" lon="-19.439126968">
<ele>529.093750</ele>
<time>2012-07-26T14:05:14Z</time>
<speed>4.190000</speed>
<extensions>
<speed>4.2</speed>
<temp>0.00</temp>
<bpm>0</bpm>
<rpm>0.00</rpm>
</extensions>
</trkpt>
<trkpt lat="63.760055542" lon="-19.439374924">
<ele>529.578125</ele>
<time>2012-07-26T14:05:19Z</time>
<speed>4.910000</speed>
<extensions>
<speed>4.9</speed>
<temp>0.00</temp>
<bpm>0</bpm>
<rpm>0.00</rpm>
</extensions>
</trkpt>
<trkpt lat="63.759872437" lon="-19.439641953">
<ele>530.421875</ele>
<time>2012-07-26T14:05:24Z</time>
<speed>5.340000</speed>
<extensions>
<speed>5.3</speed>
<temp>0.00</temp>
<bpm>0</bpm>
<rpm>0.00</rpm>
</extensions>
</trkpt>
<trkpt lat="63.759677887" lon="-19.439947128">
<ele>530.593750</ele>
<time>2012-07-26T14:05:29Z</time>
<speed>5.040000</speed>
<extensions>
<speed>5.0</speed>
<temp>0.00</temp>
<bpm>0</bpm>
<rpm>0.00</rpm>
</extensions>
</trkpt>
<trkpt lat="63.759506226" lon="-19.440254211">
<ele>530.546875</ele>
<time>2012-07-26T14:05:34Z</time>
<speed>5.040000</speed>
<extensions>
<speed>5.0</speed>
<temp>0.00</temp>
<bpm>0</bpm>
<rpm>0.00</rpm>
</extensions>
</trkpt>
<trkpt lat="63.759334564" lon="-19.440599442">
<ele>530.687500</ele>
<time>2012-07-26T14:05:39Z</time>
<speed>5.230000</speed>
<extensions>
<speed>5.2</speed>
<temp>0.00</temp>
<bpm>0</bpm>
<rpm>0.00</rpm>
</extensions>
</trkpt>
<trkpt lat="63.759181976" lon="-19.440994263">
<ele>530.828125</ele>
<time>2012-07-26T14:05:44Z</time>
<speed>5.210000</speed>
<extensions>
<speed>5.2</speed>
<temp>0.00</temp>
<bpm>0</bpm>
<rpm>0.00</rpm>
</extensions>
</trkpt>
<trkpt lat="63.759029388" lon="-19.441394806">
<ele>530.921875</ele>
<time>2012-07-26T14:05:49Z</time>
<speed>5.070000</speed>
<extensions>
<speed>5.1</speed>
<temp>0.00</temp>
<bpm>0</bpm>
<rpm>0.00</rpm>
</extensions>
</trkpt>
<trkpt lat="63.758892059" lon="-19.441789627">
<ele>531.125000</ele>
<time>2012-07-26T14:05:54Z</time>
<speed>5.050000</speed>
<extensions>
<speed>5.1</speed>
<temp>0.00</temp>
<bpm>0</bpm>
<rpm>0.00</rpm>
</extensions>
</trkpt>
<trkpt lat="63.758743286" lon="-19.442214966">
<ele>530.875000</ele>
<time>2012-07-26T14:05:59Z</time>
<speed>5.490000</speed>
<extensions>
<speed>5.5</speed>
<temp>0.00</temp>
<bpm>0</bpm>
<rpm>0.00</rpm>
</extensions>
</trkpt>
<trkpt lat="63.758598328" lon="-19.442667007">
<ele>531.250000</ele>
<time>2012-07-26T14:06:04Z</time>
<speed>5.360000</speed>
<extensions>
<speed>5.4</speed>
<temp>0.00</temp>
<bpm>0</bpm>
<rpm>0.00</rpm>
</extensions>
</trkpt>
<trkpt lat="63.758476257" lon="-19.443080902">
<ele>531.312500</ele>
<time>2012-07-26T14:06:09Z</time>
<speed>4.910000</speed>
<extensions>
<speed>4.9</speed>
<temp>0.00</temp>
<bpm>0</bpm>
<rpm>0.00</rpm>
</extensions>
</trkpt>
<trkpt lat="63.758358002" lon="-19.443534851">
<ele>531.187500</ele>
<time>2012-07-26T14:06:14Z</time>
<speed>5.090000</speed>
<extensions>
<speed>5.1</speed>
<temp>0.00</temp>
<bpm>0</bpm>
<rpm>0.00</rpm>
</extensions>
</trkpt>
<trkpt lat="63.758235931" lon="-19.443965912">
<ele>531.890625</ele>
<time>2012-07-26T14:06:19Z</time>
<speed>5.140000</speed>
<extensions>
<speed>5.1</speed>
<temp>0.00</temp>
<bpm>0</bpm>
<rpm>0.00</rpm>
</extensions>
</trkpt>
<trkpt lat="63.758090973" lon="-19.444402695">
<ele>531.437500</ele>
<time>2012-07-26T14:06:24Z</time>
<speed>5.660000</speed>
<extensions>
<speed>5.7</speed>
<temp>0.00</temp>
<bpm>0</bpm>
<rpm>0.00</rpm>
</extensions>
</trkpt>
<trkpt lat="63.757942200" lon="-19.444833755">
<ele>531.390625</ele>
<time>2012-07-26T14:06:29Z</time>
<speed>4.980000</speed>
<extensions>
<speed>5.0</speed>
<temp>0.00</temp>
<bpm>0</bpm>
<rpm>0.00</rpm>
</extensions>
</trkpt>
<trkpt lat="63.757812500" lon="-19.445213318">
<ele>531.593750</ele>
<time>2012-07-26T14:06:34Z</time>
<speed>4.640000</speed>
<extensions>
<speed>4.6</speed>
<temp>0.00</temp>
<bpm>0</bpm>
<rpm>0.00</rpm>
</extensions>
</trkpt>
<trkpt lat="63.757667542" lon="-19.445606232">
<ele>531.812500</ele>
<time>2012-07-26T14:06:39Z</time>
<speed>5.240000</speed>
<extensions>
<speed>5.2</speed>
<temp>0.00</temp>
<bpm>0</bpm>
<rpm>0.00</rpm>
</extensions>
</trkpt>
<trkpt lat="63.757507324" lon="-19.446039200">
<ele>531.859375</ele>
<time>2012-07-26T14:06:44Z</time>
<speed>5.650000</speed>
<extensions>
<speed>5.7</speed>
<temp>0.00</temp>
<bpm>0</bpm>
<rpm>0.00</rpm>
</extensions>
</trkpt>
<trkpt lat="63.757350922" lon="-19.446500778">
<ele>531.406250</ele>
<time>2012-07-26T14:06:49Z</time>
<speed>5.530000</speed>
<extensions>
<speed>5.5</speed>
<temp>0.00</temp>
<bpm>0</bpm>
<rpm>0.00</rpm>
</extensions>
</trkpt>
<trkpt lat="63.757202148" lon="-19.446886063">
<ele>530.359375</ele>
<time>2012-07-26T14:06:54Z</time>
<speed>4.650000</speed>
<extensions>
<speed>4.6</speed>
<temp>0.00</temp>
<bpm>0</bpm>
<rpm>0.00</rpm>
</extensions>
</trkpt>
<trkpt lat="63.757076263" lon="-19.447244644">
<ele>529.656250</ele>
<time>2012-07-26T14:06:59Z</time>
<speed>4.420000</speed>
<extensions>
<speed>4.4</speed>
<temp>0.00</temp>
<bpm>0</bpm>
<rpm>0.00</rpm>
</extensions>
</trkpt>
<trkpt lat="63.756954193" lon="-19.447618484">
<ele>530.281250</ele>
<time>2012-07-26T14:07:04Z</time>
<speed>4.750000</speed>
<extensions>
<speed>4.8</speed>
<temp>0.00</temp>
<bpm>0</bpm>
<rpm>0.00</rpm>
</extensions>
</trkpt>
<trkpt lat="63.756820679" lon="-19.448001862">
<ele>530.312500</ele>
<time>2012-07-26T14:07:09Z</time>
<speed>4.350000</speed>
<extensions>
<speed>4.3</speed>
<temp>0.00</temp>
<bpm>0</bpm>
<rpm>0.00</rpm>
</extensions>
</trkpt>
<trkpt lat="63.756702423" lon="-19.448303223">
<ele>531.359375</ele>
<time>2012-07-26T14:07:14Z</time>
<speed>4.290000</speed>
<extensions>
<speed>4.3</speed>
<temp>0.00</temp>
<bpm>0</bpm>
<rpm>0.00</rpm>
</extensions>
</trkpt>
<trkpt lat="63.756542206" lon="-19.448596954">
<ele>532.000000</ele>
<time>2012-07-26T14:07:19Z</time>
<speed>4.520000</speed>
<extensions>
<speed>4.5</speed>
<temp>0.00</temp>
<bpm>0</bpm>
<rpm>0.00</rpm>
</extensions>
</trkpt>
<trkpt lat="63.756450653" lon="-19.448671341">
<ele>533.656250</ele>
<time>2012-07-26T14:07:24Z</time>
<speed>0.400000</speed>
<extensions>
<speed>0.4</speed>
<temp>0.00</temp>
<bpm>0</bpm>
<rpm>0.00</rpm>
</extensions>
</trkpt>
<trkpt lat="63.756458282" lon="-19.448680878">
<ele>534.687500</ele>
<time>2012-07-26T14:07:29Z</time>
<speed>0.260000</speed>
<extensions>
<speed>0.3</speed>
<temp>0.00</temp>
<bpm>0</bpm>
<rpm>0.00</rpm>
</extensions>
</trkpt>
<trkpt lat="63.756462097" lon="-19.448673248">
<ele>535.125000</ele>
<time>2012-07-26T14:07:34Z</time>
<speed>0.060000</speed>
<extensions>
<speed>0.1</speed>
<temp>0.00</temp>
<bpm>0</bpm>
<rpm>0.00</rpm>
</extensions>
</trkpt>
<trkpt lat="63.756465912" lon="-19.448677063">
<ele>535.312500</ele>
<time>2012-07-26T14:07:39Z</time>
<speed>0.060000</speed>
<extensions>
<speed>0.1</speed>
<temp>0.00</temp>
<bpm>0</bpm>
<rpm>0.00</rpm>
</extensions>
</trkpt>
<trkpt lat="63.756465912" lon="-19.448677063">
<ele>535.390625</ele>
<time>2012-07-26T14:07:44Z</time>
<speed>0.010000</speed>
<extensions>
<speed>0.0</speed>
<temp>0.00</temp>
<bpm>0</bpm>
<rpm>0.00</rpm>
</extensions>
</trkpt>
<trkpt lat="63.756454468" lon="-19.448682785">
<ele>535.500000</ele>
<time>2012-07-26T14:07:49Z</time>
<speed>0.800000</speed>
<extensions>
<speed>0.8</speed>
<temp>0.00</temp>
<bpm>0</bpm>
<rpm>0.00</rpm>
</extensions>
</trkpt>
<trkpt lat="63.756416321" lon="-19.448738098">
<ele>534.765625</ele>
<time>2012-07-26T14:07:54Z</time>
<speed>0.900000</speed>
<extensions>
<speed>0.9</speed>
<temp>0.00</temp>
<bpm>0</bpm>
<rpm>0.00</rpm>
</extensions>
</trkpt>
<trkpt lat="63.756385803" lon="-19.448791504">
<ele>535.890625</ele>
<time>2012-07-26T14:07:59Z</time>
<speed>0.640000</speed>
<extensions>
<speed>0.6</speed>
<temp>0.00</temp>
<bpm>0</bpm>
<rpm>0.00</rpm>
</extensions>
</trkpt>
<trkpt lat="63.756359100" lon="-19.448841095">
<ele>536.703125</ele>
<time>2012-07-26T14:08:04Z</time>
<speed>0.920000</speed>
<extensions>
<speed>0.9</speed>
<temp>0.00</temp>
<bpm>0</bpm>
<rpm>0.00</rpm>
</extensions>
</trkpt>
<trkpt lat="63.756313324" lon="-19.448898315">
<ele>536.984375</ele>
<time>2012-07-26T14:08:09Z</time>
<speed>0.820000</speed>
<extensions>
<speed>0.8</speed>
<temp>0.00</temp>
<bpm>0</bpm>
<rpm>0.00</rpm>
</extensions>
</trkpt>
<trkpt lat="63.756275177" lon="-19.448980331">
<ele>537.734375</ele>
<time>2012-07-26T14:08:14Z</time>
<speed>0.910000</speed>
<extensions>
<speed>0.9</speed>
<temp>0.00</temp>
<bpm>0</bpm>
<rpm>0.00</rpm>
</extensions>
</trkpt>
<trkpt lat="63.756233215" lon="-19.449026108">
<ele>538.234375</ele>
<time>2012-07-26T14:08:19Z</time>
<speed>1.120000</speed>
<extensions>
<speed>1.1</speed>
<temp>0.00</temp>
<bpm>0</bpm>
<rpm>0.00</rpm>
</extensions>
</trkpt>
<trkpt lat="63.756179810" lon="-19.449050903">
<ele>537.437500</ele>
<time>2012-07-26T14:08:24Z</time>
<speed>0.910000</speed>
<extensions>
<speed>0.9</speed>
<temp>0.00</temp>
<bpm>0</bpm>
<rpm>0.00</rpm>
</extensions>
</trkpt>
<trkpt lat="63.756141663" lon="-19.449102402">
<ele>538.781250</ele>
<time>2012-07-26T14:08:29Z</time>
<speed>0.880000</speed>
<extensions>
<speed>0.9</speed>
<temp>0.00</temp>
<bpm>0</bpm>
<rpm>0.00</rpm>
</extensions>
</trkpt>
<trkpt lat="63.756099701" lon="-19.449125290">
<ele>539.140625</ele>
<time>2012-07-26T14:08:34Z</time>
<speed>0.800000</speed>
<extensions>
<speed>0.8</speed>
<temp>0.00</temp>
<bpm>0</bpm>
<rpm>0.00</rpm>
</extensions>
</trkpt>
<trkpt lat="63.756069183" lon="-19.449155807">
<ele>538.921875</ele>
<time>2012-07-26T14:08:39Z</time>
<speed>0.720000</speed>
<extensions>
<speed>0.7</speed>
<temp>0.00</temp>
<bpm>0</bpm>
<rpm>0.00</rpm>
</extensions>
</trkpt>
<trkpt lat="63.756042480" lon="-19.449201584">
<ele>540.671875</ele>
<time>2012-07-26T14:08:44Z</time>
<speed>0.200000</speed>
<extensions>
<speed>0.2</speed>
<temp>0.00</temp>
<bpm>0</bpm>
<rpm>0.00</rpm>
</extensions>
</trkpt>
<trkpt lat="63.756031036" lon="-19.449211121">
<ele>542.109375</ele>
<time>2012-07-26T14:08:49Z</time>
<speed>0.650000</speed>
<extensions>
<speed>0.6</speed>
<temp>0.00</temp>
<bpm>0</bpm>
<rpm>0.00</rpm>
</extensions>
</trkpt>
<trkpt lat="63.756015778" lon="-19.449264526">
<ele>544.703125</ele>
<time>2012-07-26T14:08:54Z</time>
<speed>0.830000</speed>
<extensions>
<speed>0.8</speed>
<temp>0.00</temp>
<bpm>0</bpm>
<rpm>0.00</rpm>
</extensions>
</trkpt>
<trkpt lat="63.755992889" lon="-19.449306488">
<ele>545.656250</ele>
<time>2012-07-26T14:08:59Z</time>
<speed>0.760000</speed>
<extensions>
<speed>0.8</speed>
<temp>0.00</temp>
<bpm>0</bpm>
<rpm>0.00</rpm>
</extensions>
</trkpt>
<trkpt lat="63.755958557" lon="-19.449344635">
<ele>546.437500</ele>
<time>2012-07-26T14:09:04Z</time>
<speed>0.780000</speed>
<extensions>
<speed>0.8</speed>
<temp>0.00</temp>
<bpm>0</bpm>
<rpm>0.00</rpm>
</extensions>
</trkpt>
<trkpt lat="63.755939484" lon="-19.449398041">
<ele>549.265625</ele>
<time>2012-07-26T14:09:09Z</time>
<speed>0.740000</speed>
<extensions>
<speed>0.7</speed>
<temp>0.00</temp>
<bpm>0</bpm>
<rpm>0.00</rpm>
</extensions>
</trkpt>
<trkpt lat="63.755908966" lon="-19.449438095">
<ele>549.812500</ele>
<time>2012-07-26T14:09:14Z</time>
<speed>0.450000</speed>
<extensions>
<speed>0.5</speed>
<temp>0.00</temp>
<bpm>0</bpm>
<rpm>0.00</rpm>
</extensions>
</trkpt>
<trkpt lat="63.755912781" lon="-19.449428558">
<ele>552.109375</ele>
<time>2012-07-26T14:09:19Z</time>
<speed>0.040000</speed>
<extensions>
<speed>0.0</speed>
<temp>0.00</temp>
<bpm>0</bpm>
<rpm>0.00</rpm>
</extensions>
</trkpt>
<trkpt lat="63.755912781" lon="-19.449428558">
<ele>552.296875</ele>
<time>2012-07-26T14:09:24Z</time>
<speed>0.580000</speed>
<extensions>
<speed>0.6</speed>
<temp>0.00</temp>
<bpm>0</bpm>
<rpm>0.00</rpm>
</extensions>
</trkpt>
<trkpt lat="63.755886078" lon="-19.449493408">
<ele>552.390625</ele>
<time>2012-07-26T14:09:29Z</time>
<speed>0.840000</speed>
<extensions>
<speed>0.8</speed>
<temp>0.00</temp>
<bpm>0</bpm>
<rpm>0.00</rpm>
</extensions>
</trkpt>
<trkpt lat="63.755851746" lon="-19.449541092">
<ele>553.375000</ele>
<time>2012-07-26T14:09:34Z</time>
<speed>0.830000</speed>
<extensions>
<speed>0.8</speed>
<temp>0.00</temp>
<bpm>0</bpm>
<rpm>0.00</rpm>
</extensions>
</trkpt>
<trkpt lat="63.755821228" lon="-19.449598312">
<ele>552.656250</ele>
<time>2012-07-26T14:09:39Z</time>
<speed>0.850000</speed>
<extensions>
<speed>0.8</speed>
<temp>0.00</temp>
<bpm>0</bpm>
<rpm>0.00</rpm>
</extensions>
</trkpt>
<trkpt lat="63.755786896" lon="-19.449626923">
<ele>552.609375</ele>
<time>2012-07-26T14:09:44Z</time>
<speed>0.880000</speed>
<extensions>
<speed>0.9</speed>
<temp>0.00</temp>
<bpm>0</bpm>
<rpm>0.00</rpm>
</extensions>
</trkpt>
<trkpt lat="63.755744934" lon="-19.449659348">
<ele>552.781250</ele>
<time>2012-07-26T14:09:49Z</time>
<speed>0.820000</speed>
<extensions>
<speed>0.8</speed>
<temp>0.00</temp>
<bpm>0</bpm>
<rpm>0.00</rpm>
</extensions>
</trkpt>
<trkpt lat="63.755714417" lon="-19.449714661">
<ele>552.984375</ele>
<time>2012-07-26T14:09:54Z</time>
<speed>0.800000</speed>
<extensions>
<speed>0.8</speed>
<temp>0.00</temp>
<bpm>0</bpm>
<rpm>0.00</rpm>
</extensions>
</trkpt>
<trkpt lat="63.755687714" lon="-19.449756622">
<ele>553.750000</ele>
<time>2012-07-26T14:09:59Z</time>
<speed>0.930000</speed>
<extensions>
<speed>0.9</speed>
<temp>0.00</temp>
<bpm>0</bpm>
<rpm>0.00</rpm>
</extensions>
</trkpt>
<trkpt lat="63.755661011" lon="-19.449811935">
<ele>555.656250</ele>
<time>2012-07-26T14:10:04Z</time>
<speed>0.970000</speed>
<extensions>
<speed>1.0</speed>
<temp>0.00</temp>
<bpm>0</bpm>
<rpm>0.00</rpm>
</extensions>
</trkpt>
<trkpt lat="63.755622864" lon="-19.449842453">
<ele>556.593750</ele>
<time>2012-07-26T14:10:09Z</time>
<speed>1.010000</speed>
<extensions>
<speed>1.0</speed>
<temp>0.00</temp>
<bpm>0</bpm>
<rpm>0.00</rpm>
</extensions>
</trkpt>
<trkpt lat="63.755580902" lon="-19.449855804">
<ele>556.937500</ele>
<time>2012-07-26T14:10:14Z</time>
<speed>1.190000</speed>
<extensions>
<speed>1.2</speed>
<temp>0.00</temp>
<bpm>0</bpm>
<rpm>0.00</rpm>
</extensions>
</trkpt>
<trkpt lat="63.755538940" lon="-19.449890137">
<ele>557.171875</ele>
<time>2012-07-26T14:10:19Z</time>
<speed>0.970000</speed>
<extensions>
<speed>1.0</speed>
<temp>0.00</temp>
<bpm>0</bpm>
<rpm>0.00</rpm>
</extensions>
</trkpt>
<trkpt lat="63.755500793" lon="-19.449905396">
<ele>558.109375</ele>
<time>2012-07-26T14:10:24Z</time>
<speed>1.100000</speed>
<extensions>
<speed>1.1</speed>
<temp>0.00</temp>
<bpm>0</bpm>
<rpm>0.00</rpm>
</extensions>
</trkpt>
<trkpt lat="63.755458832" lon="-19.449901581">
<ele>559.062500</ele>
<time>2012-07-26T14:10:29Z</time>
<speed>1.060000</speed>
<extensions>
<speed>1.1</speed>
<temp>0.00</temp>
<bpm>0</bpm>
<rpm>0.00</rpm>
</extensions>
</trkpt>
<trkpt lat="63.755416870" lon="-19.449913025">
<ele>558.796875</ele>
<time>2012-07-26T14:10:34Z</time>
<speed>0.760000</speed>
<extensions>
<speed>0.8</speed>
<temp>0.00</temp>
<bpm>0</bpm>
<rpm>0.00</rpm>
</extensions>
</trkpt>
<trkpt lat="63.755382538" lon="-19.449924469">
<ele>560.203125</ele>
<time>2012-07-26T14:10:39Z</time>
<speed>0.880000</speed>
<extensions>
<speed>0.9</speed>
<temp>0.00</temp>
<bpm>0</bpm>
<rpm>0.00</rpm>
</extensions>
</trkpt>
<trkpt lat="63.755344391" lon="-19.449937820">
<ele>561.828125</ele>
<time>2012-07-26T14:10:44Z</time>
<speed>0.980000</speed>
<extensions>
<speed>1.0</speed>
<temp>0.00</temp>
<bpm>0</bpm>
<rpm>0.00</rpm>
</extensions>
</trkpt>
<trkpt lat="63.755279541" lon="-19.449953079">
<ele>562.796875</ele>
<time>2012-07-26T14:10:49Z</time>
<speed>0.850000</speed>
<extensions>
<speed>0.8</speed>
<temp>0.00</temp>
<bpm>0</bpm>
<rpm>0.00</rpm>
</extensions>
</trkpt>
<trkpt lat="63.755241394" lon="-19.449960709">
<ele>563.468750</ele>
<time>2012-07-26T14:10:54Z</time>
<speed>1.100000</speed>
<extensions>
<speed>1.1</speed>
<temp>0.00</temp>
<bpm>0</bpm>
<rpm>0.00</rpm>
</extensions>
</trkpt>
<trkpt lat="63.755199432" lon="-19.449989319">
<ele>564.656250</ele>
<time>2012-07-26T14:10:59Z</time>
<speed>1.050000</speed>
<extensions>
<speed>1.0</speed>
<temp>0.00</temp>
<bpm>0</bpm>
<rpm>0.00</rpm>
</extensions>
</trkpt>
<trkpt lat="63.755161285" lon="-19.450025558">
<ele>565.796875</ele>
<time>2012-07-26T14:11:04Z</time>
<speed>1.160000</speed>
<extensions>
<speed>1.2</speed>
<temp>0.00</temp>
<bpm>0</bpm>
<rpm>0.00</rpm>
</extensions>
</trkpt>
<trkpt lat="63.755115509" lon="-19.450059891">
<ele>566.671875</ele>
<time>2012-07-26T14:11:09Z</time>
<speed>1.190000</speed>
<extensions>
<speed>1.2</speed>
<temp>0.00</temp>
<bpm>0</bpm>
<rpm>0.00</rpm>
</extensions>
</trkpt>
<trkpt lat="63.755084991" lon="-19.450065613">
<ele>567.734375</ele>
<time>2012-07-26T14:11:14Z</time>
<speed>0.160000</speed>
<extensions>
<speed>0.2</speed>
<temp>0.00</temp>
<bpm>0</bpm>
<rpm>0.00</rpm>
</extensions>
</trkpt>
<trkpt lat="63.755035400" lon="-19.450090408">
<ele>568.484375</ele>
<time>2012-07-26T14:11:19Z</time>
<speed>2.680000</speed>
<extensions>
<speed>2.7</speed>
<temp>0.00</temp>
<bpm>0</bpm>
<rpm>0.00</rpm>
</extensions>
</trkpt>
<trkpt lat="63.754920959" lon="-19.450143814">
<ele>566.718750</ele>
<time>2012-07-26T14:11:24Z</time>
<speed>2.630000</speed>
<extensions>
<speed>2.6</speed>
<temp>0.00</temp>
<bpm>0</bpm>
<rpm>0.00</rpm>
</extensions>
</trkpt>
<trkpt lat="63.754798889" lon="-19.450223923">
<ele>568.468750</ele>
<time>2012-07-26T14:11:29Z</time>
<speed>2.600000</speed>
<extensions>
<speed>2.6</speed>
<temp>0.00</temp>
<bpm>0</bpm>
<rpm>0.00</rpm>
</extensions>
</trkpt>
<trkpt lat="63.754703522" lon="-19.450294495">
<ele>568.734375</ele>
<time>2012-07-26T14:11:34Z</time>
<speed>2.260000</speed>
<extensions>
<speed>2.3</speed>
<temp>0.00</temp>
<bpm>0</bpm>
<rpm>0.00</rpm>
</extensions>
</trkpt>
<trkpt lat="63.754604340" lon="-19.450357437">
<ele>568.953125</ele>
<time>2012-07-26T14:11:39Z</time>
<speed>2.020000</speed>
<extensions>
<speed>2.0</speed>
<temp>0.00</temp>
<bpm>0</bpm>
<rpm>0.00</rpm>
</extensions>
</trkpt>
<trkpt lat="63.754539490" lon="-19.450420380">
<ele>569.046875</ele>
<time>2012-07-26T14:11:44Z</time>
<speed>1.960000</speed>
<extensions>
<speed>2.0</speed>
<temp>0.00</temp>
<bpm>0</bpm>
<rpm>0.00</rpm>
</extensions>
</trkpt>
<trkpt lat="63.754459381" lon="-19.450513840">
<ele>569.125000</ele>
<time>2012-07-26T14:11:49Z</time>
<speed>1.870000</speed>
<extensions>
<speed>1.9</speed>
<temp>0.00</temp>
<bpm>0</bpm>
<rpm>0.00</rpm>
</extensions>
</trkpt>
<trkpt lat="63.754375458" lon="-19.450601578">
<ele>567.250000</ele>
<time>2012-07-26T14:11:54Z</time>
<speed>1.810000</speed>
<extensions>
<speed>1.8</speed>
<temp>0.00</temp>
<bpm>0</bpm>
<rpm>0.00</rpm>
</extensions>
</trkpt>
<trkpt lat="63.754291534" lon="-19.450695038">
<ele>567.531250</ele>
<time>2012-07-26T14:11:59Z</time>
<speed>1.830000</speed>
<extensions>
<speed>1.8</speed>
<temp>0.00</temp>
<bpm>0</bpm>
<rpm>0.00</rpm>
</extensions>
</trkpt>
<trkpt lat="63.754199982" lon="-19.450794220">
<ele>565.796875</ele>
<time>2012-07-26T14:12:04Z</time>
<speed>2.180000</speed>
<extensions>
<speed>2.2</speed>
<temp>0.00</temp>
<bpm>0</bpm>
<rpm>0.00</rpm>
</extensions>
</trkpt>
<trkpt lat="63.754112244" lon="-19.450893402">
<ele>565.156250</ele>
<time>2012-07-26T14:12:09Z</time>
<speed>2.230000</speed>
<extensions>
<speed>2.2</speed>
<temp>0.00</temp>
<bpm>0</bpm>
<rpm>0.00</rpm>
</extensions>
</trkpt>
<trkpt lat="63.754020691" lon="-19.450990677">
<ele>564.859375</ele>
<time>2012-07-26T14:12:14Z</time>
<speed>2.390000</speed>
<extensions>
<speed>2.4</speed>
<temp>0.00</temp>
<bpm>0</bpm>
<rpm>0.00</rpm>
</extensions>
</trkpt>
<trkpt lat="63.753921509" lon="-19.451095581">
<ele>565.265625</ele>
<time>2012-07-26T14:12:19Z</time>
<speed>2.480000</speed>
<extensions>
<speed>2.5</speed>
<temp>0.00</temp>
<bpm>0</bpm>
<rpm>0.00</rpm>
</extensions>
</trkpt>
<trkpt lat="63.753814697" lon="-19.451206207">
<ele>565.406250</ele>
<time>2012-07-26T14:12:24Z</time>
<speed>3.000000</speed>
<extensions>
<speed>3.0</speed>
<temp>0.00</temp>
<bpm>0</bpm>
<rpm>0.00</rpm>
</extensions>
</trkpt>
<trkpt lat="63.753696442" lon="-19.451353073">
<ele>565.687500</ele>
<time>2012-07-26T14:12:29Z</time>
<speed>3.050000</speed>
<extensions>
<speed>3.0</speed>
<temp>0.00</temp>
<bpm>0</bpm>
<rpm>0.00</rpm>
</extensions>
</trkpt>
<trkpt lat="63.753562927" lon="-19.451541901">
<ele>566.015625</ele>
<time>2012-07-26T14:12:34Z</time>
<speed>4.010000</speed>
<extensions>
<speed>4.0</speed>
<temp>0.00</temp>
<bpm>0</bpm>
<rpm>0.00</rpm>
</extensions>
</trkpt>
<trkpt lat="63.753391266" lon="-19.451782227">
<ele>565.109375</ele>
<time>2012-07-26T14:12:39Z</time>
<speed>4.410000</speed>
<extensions>
<speed>4.4</speed>
<temp>0.00</temp>
<bpm>0</bpm>
<rpm>0.00</rpm>
</extensions>
</trkpt>
<trkpt lat="63.753234863" lon="-19.452028275">
<ele>564.546875</ele>
<time>2012-07-26T14:12:44Z</time>
<speed>3.580000</speed>
<extensions>
<speed>3.6</speed>
<temp>0.00</temp>
<bpm>0</bpm>
<rpm>0.00</rpm>
</extensions>
</trkpt>
<trkpt lat="63.753131866" lon="-19.452207565">
<ele>563.437500</ele>
<time>2012-07-26T14:12:49Z</time>
<speed>1.810000</speed>
<extensions>
<speed>1.8</speed>
<temp>0.00</temp>
<bpm>0</bpm>
<rpm>0.00</rpm>
</extensions>
</trkpt>
<trkpt lat="63.753116608" lon="-19.452276230">
<ele>563.328125</ele>
<time>2012-07-26T14:12:54Z</time>
<speed>0.010000</speed>
<extensions>
<speed>0.0</speed>
<temp>0.00</temp>
<bpm>0</bpm>
<rpm>0.00</rpm>
</extensions>
</trkpt>
<trkpt lat="63.753120422" lon="-19.452278137">
<ele>564.281250</ele>
<time>2012-07-26T14:12:59Z</time>
<speed>0.210000</speed>
<extensions>
<speed>0.2</speed>
<temp>0.00</temp>
<bpm>0</bpm>
<rpm>0.00</rpm>
</extensions>
</trkpt>
<trkpt lat="63.753120422" lon="-19.452287674">
<ele>564.484375</ele>
<time>2012-07-26T14:13:04Z</time>
<speed>0.030000</speed>
<extensions>
<speed>0.0</speed>
<temp>0.00</temp>
<bpm>0</bpm>
<rpm>0.00</rpm>
</extensions>
</trkpt>
<trkpt lat="63.753108978" lon="-19.452293396">
<ele>564.218750</ele>
<time>2012-07-26T14:13:09Z</time>
<speed>0.040000</speed>
<extensions>
<speed>0.0</speed>
<temp>0.00</temp>
<bpm>0</bpm>
<rpm>0.00</rpm>
</extensions>
</trkpt>
<trkpt lat="63.753105164" lon="-19.452291489">
<ele>564.187500</ele>
<time>2012-07-26T14:13:14Z</time>
<speed>0.010000</speed>
<extensions>
<speed>0.0</speed>
<temp>0.00</temp>
<bpm>0</bpm>
<rpm>0.00</rpm>
</extensions>
</trkpt>
<trkpt lat="63.753105164" lon="-19.452285767">
<ele>564.062500</ele>
<time>2012-07-26T14:13:19Z</time>
<speed>0.020000</speed>
<extensions>
<speed>0.0</speed>
<temp>0.00</temp>
<bpm>0</bpm>
<rpm>0.00</rpm>
</extensions>
</trkpt>
<trkpt lat="63.753093719" lon="-19.452276230">
<ele>564.078125</ele>
<time>2012-07-26T14:13:24Z</time>
<speed>0.160000</speed>
<extensions>
<speed>0.2</speed>
<temp>0.00</temp>
<bpm>0</bpm>
<rpm>0.00</rpm>
</extensions>
</trkpt>
<trkpt lat="63.753074646" lon="-19.452272415">
<ele>564.031250</ele>
<time>2012-07-26T14:13:29Z</time>
<speed>0.430000</speed>
<extensions>
<speed>0.4</speed>
<temp>0.00</temp>
<bpm>0</bpm>
<rpm>0.00</rpm>
</extensions>
</trkpt>
<trkpt lat="63.753059387" lon="-19.452243805">
<ele>563.984375</ele>
<time>2012-07-26T14:13:34Z</time>
<speed>0.430000</speed>
<extensions>
<speed>0.4</speed>
<temp>0.00</temp>
<bpm>0</bpm>
<rpm>0.00</rpm>
</extensions>
</trkpt>
<trkpt lat="63.753047943" lon="-19.452220917">
<ele>563.937500</ele>
<time>2012-07-26T14:13:39Z</time>
<speed>0.480000</speed>
<extensions>
<speed>0.5</speed>
<temp>0.00</temp>
<bpm>0</bpm>
<rpm>0.00</rpm>
</extensions>
</trkpt>
<trkpt lat="63.753032684" lon="-19.452177048">
<ele>563.875000</ele>
<time>2012-07-26T14:13:44Z</time>
<speed>0.630000</speed>
<extensions>
<speed>0.6</speed>
<temp>0.00</temp>
<bpm>0</bpm>
<rpm>0.00</rpm>
</extensions>
</trkpt>
<trkpt lat="63.753017426" lon="-19.452116013">
<ele>563.812500</ele>
<time>2012-07-26T14:13:49Z</time>
<speed>0.600000</speed>
<extensions>
<speed>0.6</speed>
<temp>0.00</temp>
<bpm>0</bpm>
<rpm>0.00</rpm>
</extensions>
</trkpt>
<trkpt lat="63.753005981" lon="-19.452066422">
<ele>563.750000</ele>
<time>2012-07-26T14:13:54Z</time>
<speed>0.540000</speed>
<extensions>
<speed>0.5</speed>
<temp>0.00</temp>
<bpm>0</bpm>
<rpm>0.00</rpm>
</extensions>
</trkpt>
<trkpt lat="63.752994537" lon="-19.452024460">
<ele>563.656250</ele>
<time>2012-07-26T14:13:59Z</time>
<speed>0.340000</speed>
<extensions>
<speed>0.3</speed>
<temp>0.00</temp>
<bpm>0</bpm>
<rpm>0.00</rpm>
</extensions>
</trkpt>
<trkpt lat="63.753276825" lon="-19.452350616">
<ele>575.703125</ele>
<time>2012-07-26T14:14:22Z</time>
<speed>4.070000</speed>
<extensions>
<speed>4.1</speed>
<temp>0.00</temp>
<bpm>0</bpm>
<rpm>0.00</rpm>
</extensions>
</trkpt>
<trkpt lat="63.753253937" lon="-19.452180862">
<ele>565.390625</ele>
<time>2012-07-26T14:14:27Z</time>
<speed>4.780000</speed>
<extensions>
<speed>4.8</speed>
<temp>0.00</temp>
<bpm>0</bpm>
<rpm>0.00</rpm>
</extensions>
</trkpt>
<trkpt lat="63.753173828" lon="-19.452236176">
<ele>561.265625</ele>
<time>2012-07-26T14:14:32Z</time>
<speed>1.030000</speed>
<extensions>
<speed>1.0</speed>
<temp>0.00</temp>
<bpm>0</bpm>
<rpm>0.00</rpm>
</extensions>
</trkpt>
<trkpt lat="63.753089905" lon="-19.452325821">
<ele>560.140625</ele>
<time>2012-07-26T14:14:37Z</time>
<speed>1.800000</speed>
<extensions>
<speed>1.8</speed>
<temp>0.00</temp>
<bpm>0</bpm>
<rpm>0.00</rpm>
</extensions>
</trkpt>
<trkpt lat="63.753025055" lon="-19.452432632">
<ele>562.296875</ele>
<time>2012-07-26T14:14:42Z</time>
<speed>2.240000</speed>
<extensions>
<speed>2.2</speed>
<temp>0.00</temp>
<bpm>0</bpm>
<rpm>0.00</rpm>
</extensions>
</trkpt>
<trkpt lat="63.752944946" lon="-19.452560425">
<ele>561.187500</ele>
<time>2012-07-26T14:14:47Z</time>
<speed>1.990000</speed>
<extensions>
<speed>2.0</speed>
<temp>0.00</temp>
<bpm>0</bpm>
<rpm>0.00</rpm>
</extensions>
</trkpt>
<trkpt lat="63.752864838" lon="-19.452665329">
<ele>561.093750</ele>
<time>2012-07-26T14:14:52Z</time>
<speed>2.700000</speed>
<extensions>
<speed>2.7</speed>
<temp>0.00</temp>
<bpm>0</bpm>
<rpm>0.00</rpm>
</extensions>
</trkpt>
<trkpt lat="63.752780914" lon="-19.452804565">
<ele>561.375000</ele>
<time>2012-07-26T14:14:57Z</time>
<speed>2.430000</speed>
<extensions>
<speed>2.4</speed>
<temp>0.00</temp>
<bpm>0</bpm>
<rpm>0.00</rpm>
</extensions>
</trkpt>
<trkpt lat="63.752696991" lon="-19.452953339">
<ele>562.359375</ele>
<time>2012-07-26T14:15:02Z</time>
<speed>2.270000</speed>
<extensions>
<speed>2.3</speed>
<temp>0.00</temp>
<bpm>0</bpm>
<rpm>0.00</rpm>
</extensions>
</trkpt>
<trkpt lat="63.752605438" lon="-19.453067780">
<ele>562.640625</ele>
<time>2012-07-26T14:15:07Z</time>
<speed>2.400000</speed>
<extensions>
<speed>2.4</speed>
<temp>0.00</temp>
<bpm>0</bpm>
<rpm>0.00</rpm>
</extensions>
</trkpt>
<trkpt lat="63.752517700" lon="-19.453197479">
<ele>563.156250</ele>
<time>2012-07-26T14:15:12Z</time>
<speed>2.770000</speed>
<extensions>
<speed>2.8</speed>
<temp>0.00</temp>
<bpm>0</bpm>
<rpm>0.00</rpm>
</extensions>
</trkpt>
<trkpt lat="63.752403259" lon="-19.453348160">
<ele>563.750000</ele>
<time>2012-07-26T14:15:17Z</time>
<speed>2.870000</speed>
<extensions>
<speed>2.9</speed>
<temp>0.00</temp>
<bpm>0</bpm>
<rpm>0.00</rpm>
</extensions>
</trkpt>
<trkpt lat="63.752288818" lon="-19.453525543">
<ele>563.859375</ele>
<time>2012-07-26T14:15:22Z</time>
<speed>3.080000</speed>
<extensions>
<speed>3.1</speed>
<temp>0.00</temp>
<bpm>0</bpm>
<rpm>0.00</rpm>
</extensions>
</trkpt>
<trkpt lat="63.752185822" lon="-19.453722000">
<ele>563.890625</ele>
<time>2012-07-26T14:15:27Z</time>
<speed>3.340000</speed>
<extensions>
<speed>3.3</speed>
<temp>0.00</temp>
<bpm>0</bpm>
<rpm>0.00</rpm>
</extensions>
</trkpt>
<trkpt lat="63.752071381" lon="-19.453945160">
<ele>564.078125</ele>
<time>2012-07-26T14:15:32Z</time>
<speed>3.810000</speed>
<extensions>
<speed>3.8</speed>
<temp>0.00</temp>
<bpm>0</bpm>
<rpm>0.00</rpm>
</extensions>
</trkpt>
<trkpt lat="63.751930237" lon="-19.454231262">
<ele>563.921875</ele>
<time>2012-07-26T14:15:37Z</time>
<speed>4.410000</speed>
<extensions>
<speed>4.4</speed>
<temp>0.00</temp>
<bpm>0</bpm>
<rpm>0.00</rpm>
</extensions>
</trkpt>
<trkpt lat="63.751792908" lon="-19.454496384">
<ele>564.500000</ele>
<time>2012-07-26T14:15:42Z</time>
<speed>4.210000</speed>
<extensions>
<speed>4.2</speed>
<temp>0.00</temp>
<bpm>0</bpm>
<rpm>0.00</rpm>
</extensions>
</trkpt>
<trkpt lat="63.751640320" lon="-19.454780579">
<ele>564.953125</ele>
<time>2012-07-26T14:15:47Z</time>
<speed>4.240000</speed>
<extensions>
<speed>4.2</speed>
<temp>0.00</temp>
<bpm>0</bpm>
<rpm>0.00</rpm>
</extensions>
</trkpt>
<trkpt lat="63.751491547" lon="-19.455093384">
<ele>564.125000</ele>
<time>2012-07-26T14:15:52Z</time>
<speed>4.430000</speed>
<extensions>
<speed>4.4</speed>
<temp>0.00</temp>
<bpm>0</bpm>
<rpm>0.00</rpm>
</extensions>
</trkpt>
<trkpt lat="63.751342773" lon="-19.455411911">
<ele>562.375000</ele>
<time>2012-07-26T14:15:57Z</time>
<speed>4.610000</speed>
<extensions>
<speed>4.6</speed>
<temp>0.00</temp>
<bpm>0</bpm>
<rpm>0.00</rpm>
</extensions>
</trkpt>
<trkpt lat="63.751182556" lon="-19.455720901">
<ele>561.031250</ele>
<time>2012-07-26T14:16:02Z</time>
<speed>4.910000</speed>
<extensions>
<speed>4.9</speed>
<temp>0.00</temp>
<bpm>0</bpm>
<rpm>0.00</rpm>
</extensions>
</trkpt>
<trkpt lat="63.751029968" lon="-19.456005096">
<ele>559.437500</ele>
<time>2012-07-26T14:16:07Z</time>
<speed>4.330000</speed>
<extensions>
<speed>4.3</speed>
<temp>0.00</temp>
<bpm>0</bpm>
<rpm>0.00</rpm>
</extensions>
</trkpt>
<trkpt lat="63.750865936" lon="-19.456388474">
<ele>557.031250</ele>
<time>2012-07-26T14:16:12Z</time>
<speed>6.490000</speed>
<extensions>
<speed>6.5</speed>
<temp>0.00</temp>
<bpm>0</bpm>
<rpm>0.00</rpm>
</extensions>
</trkpt>
<trkpt lat="63.750663757" lon="-19.456998825">
<ele>554.609375</ele>
<time>2012-07-26T14:16:17Z</time>
<speed>8.170000</speed>
<extensions>
<speed>8.2</speed>
<temp>0.00</temp>
<bpm>0</bpm>
<rpm>0.00</rpm>
</extensions>
</trkpt>
<trkpt lat="63.750480652" lon="-19.457693100">
<ele>552.406250</ele>
<time>2012-07-26T14:16:22Z</time>
<speed>8.290000</speed>
<extensions>
<speed>8.3</speed>
<temp>0.00</temp>
<bpm>0</bpm>
<rpm>0.00</rpm>
</extensions>
</trkpt>
<trkpt lat="63.750308990" lon="-19.458484650">
<ele>550.671875</ele>
<time>2012-07-26T14:16:27Z</time>
<speed>7.900000</speed>
<extensions>
<speed>7.9</speed>
<temp>0.00</temp>
<bpm>0</bpm>
<rpm>0.00</rpm>
</extensions>
</trkpt>
<trkpt lat="63.750194550" lon="-19.459114075">
<ele>551.359375</ele>
<time>2012-07-26T14:16:32Z</time>
<speed>5.330000</speed>
<extensions>
<speed>5.3</speed>
<temp>0.00</temp>
<bpm>0</bpm>
<rpm>0.00</rpm>
</extensions>
</trkpt>
<trkpt lat="63.750080109" lon="-19.459579468">
<ele>549.750000</ele>
<time>2012-07-26T14:16:37Z</time>
<speed>5.130000</speed>
<extensions>
<speed>5.1</speed>
<temp>0.00</temp>
<bpm>0</bpm>
<rpm>0.00</rpm>
</extensions>
</trkpt>
<trkpt lat="63.749958038" lon="-19.460107803">
<ele>542.531250</ele>
<time>2012-07-26T14:16:42Z</time>
<speed>7.280000</speed>
<extensions>
<speed>7.3</speed>
<temp>0.00</temp>
<bpm>0</bpm>
<rpm>0.00</rpm>
</extensions>
</trkpt>
<trkpt lat="63.749786377" lon="-19.460805893">
<ele>540.296875</ele>
<time>2012-07-26T14:16:47Z</time>
<speed>7.810000</speed>
<extensions>
<speed>7.8</speed>
<temp>0.00</temp>
<bpm>0</bpm>
<rpm>0.00</rpm>
</extensions>
</trkpt>
<trkpt lat="63.749645233" lon="-19.461458206">
<ele>541.609375</ele>
<time>2012-07-26T14:16:52Z</time>
<speed>6.430000</speed>
<extensions>
<speed>6.4</speed>
<temp>0.00</temp>
<bpm>0</bpm>
<rpm>0.00</rpm>
</extensions>
</trkpt>
<trkpt lat="63.749572754" lon="-19.461929321">
<ele>546.078125</ele>
<time>2012-07-26T14:16:57Z</time>
<speed>4.180000</speed>
<extensions>
<speed>4.2</speed>
<temp>0.00</temp>
<bpm>0</bpm>
<rpm>0.00</rpm>
</extensions>
</trkpt>
<trkpt lat="63.749507904" lon="-19.462341309">
<ele>546.390625</ele>
<time>2012-07-26T14:17:02Z</time>
<speed>4.100000</speed>
<extensions>
<speed>4.1</speed>
<temp>0.00</temp>
<bpm>0</bpm>
<rpm>0.00</rpm>
</extensions>
</trkpt>
<trkpt lat="63.749454498" lon="-19.462659836">
<ele>547.578125</ele>
<time>2012-07-26T14:17:07Z</time>
<speed>3.420000</speed>
<extensions>
<speed>3.4</speed>
<temp>0.00</temp>
<bpm>0</bpm>
<rpm>0.00</rpm>
</extensions>
</trkpt>
<trkpt lat="63.749401093" lon="-19.462911606">
<ele>547.250000</ele>
<time>2012-07-26T14:17:12Z</time>
<speed>2.570000</speed>
<extensions>
<speed>2.6</speed>
<temp>0.00</temp>
<bpm>0</bpm>
<rpm>0.00</rpm>
</extensions>
</trkpt>
<trkpt lat="63.749362946" lon="-19.463132858">
<ele>547.343750</ele>
<time>2012-07-26T14:17:17Z</time>
<speed>2.360000</speed>
<extensions>
<speed>2.4</speed>
<temp>0.00</temp>
<bpm>0</bpm>
<rpm>0.00</rpm>
</extensions>
</trkpt>
<trkpt lat="63.749359131" lon="-19.463190079">
<ele>548.437500</ele>
<time>2012-07-26T14:17:22Z</time>
<speed>0.120000</speed>
<extensions>
<speed>0.1</speed>
<temp>0.00</temp>
<bpm>0</bpm>
<rpm>0.00</rpm>
</extensions>
</trkpt>
<trkpt lat="63.749359131" lon="-19.463188171">
<ele>548.671875</ele>
<time>2012-07-26T14:17:27Z</time>
<speed>0.040000</speed>
<extensions>
<speed>0.0</speed>
<temp>0.00</temp>
<bpm>0</bpm>
<rpm>0.00</rpm>
</extensions>
</trkpt>
<trkpt lat="63.749359131" lon="-19.463190079">
<ele>548.781250</ele>
<time>2012-07-26T14:17:32Z</time>
<speed>0.130000</speed>
<extensions>
<speed>0.1</speed>
<temp>0.00</temp>
<bpm>0</bpm>
<rpm>0.00</rpm>
</extensions>
</trkpt>
<trkpt lat="63.749359131" lon="-19.463205338">
<ele>548.906250</ele>
<time>2012-07-26T14:17:37Z</time>
<speed>0.250000</speed>
<extensions>
<speed>0.2</speed>
<temp>0.00</temp>
<bpm>0</bpm>
<rpm>0.00</rpm>
</extensions>
</trkpt>
<trkpt lat="63.749351501" lon="-19.463220596">
<ele>549.015625</ele>
<time>2012-07-26T14:17:42Z</time>
<speed>0.170000</speed>
<extensions>
<speed>0.2</speed>
<temp>0.00</temp>
<bpm>0</bpm>
<rpm>0.00</rpm>
</extensions>
</trkpt>
<trkpt lat="63.749351501" lon="-19.463237762">
<ele>549.078125</ele>
<time>2012-07-26T14:17:47Z</time>
<speed>0.130000</speed>
<extensions>
<speed>0.1</speed>
<temp>0.00</temp>
<bpm>0</bpm>
<rpm>0.00</rpm>
</extensions>
</trkpt>
<trkpt lat="63.749347687" lon="-19.463253021">
<ele>549.218750</ele>
<time>2012-07-26T14:17:52Z</time>
<speed>0.190000</speed>
<extensions>
<speed>0.2</speed>
<temp>0.00</temp>
<bpm>0</bpm>
<rpm>0.00</rpm>
</extensions>
</trkpt>
<trkpt lat="63.749343872" lon="-19.463256836">
<ele>549.296875</ele>
<time>2012-07-26T14:17:57Z</time>
<speed>0.300000</speed>
<extensions>
<speed>0.3</speed>
<temp>0.00</temp>
<bpm>0</bpm>
<rpm>0.00</rpm>
</extensions>
</trkpt>
<trkpt lat="63.749279022" lon="-19.463314056">
<ele>548.750000</ele>
<time>2012-07-26T14:18:02Z</time>
<speed>3.010000</speed>
<extensions>
<speed>3.0</speed>
<temp>0.00</temp>
<bpm>0</bpm>
<rpm>0.00</rpm>
</extensions>
</trkpt>
<trkpt lat="63.749187469" lon="-19.463449478">
<ele>548.781250</ele>
<time>2012-07-26T14:18:07Z</time>
<speed>2.910000</speed>
<extensions>
<speed>2.9</speed>
<temp>0.00</temp>
<bpm>0</bpm>
<rpm>0.00</rpm>
</extensions>
</trkpt>
<trkpt lat="63.749050140" lon="-19.463575363">
<ele>547.234375</ele>
<time>2012-07-26T14:18:12Z</time>
<speed>3.110000</speed>
<extensions>
<speed>3.1</speed>
<temp>0.00</temp>
<bpm>0</bpm>
<rpm>0.00</rpm>
</extensions>
</trkpt>
<trkpt lat="63.748924255" lon="-19.463733673">
<ele>546.750000</ele>
<time>2012-07-26T14:18:17Z</time>
<speed>3.480000</speed>
<extensions>
<speed>3.5</speed>
<temp>0.00</temp>
<bpm>0</bpm>
<rpm>0.00</rpm>
</extensions>
</trkpt>
<trkpt lat="63.748790741" lon="-19.463998795">
<ele>543.750000</ele>
<time>2012-07-26T14:18:22Z</time>
<speed>4.420000</speed>
<extensions>
<speed>4.4</speed>
<temp>0.00</temp>
<bpm>0</bpm>
<rpm>0.00</rpm>
</extensions>
</trkpt>
<trkpt lat="63.748634338" lon="-19.464307785">
<ele>540.609375</ele>
<time>2012-07-26T14:18:27Z</time>
<speed>4.050000</speed>
<extensions>
<speed>4.0</speed>
<temp>0.00</temp>
<bpm>0</bpm>
<rpm>0.00</rpm>
</extensions>
</trkpt>
<trkpt lat="63.748519897" lon="-19.464630127">
<ele>537.187500</ele>
<time>2012-07-26T14:18:32Z</time>
<speed>3.680000</speed>
<extensions>
<speed>3.7</speed>
<temp>0.00</temp>
<bpm>0</bpm>
<rpm>0.00</rpm>
</extensions>
</trkpt>
<trkpt lat="63.748443604" lon="-19.464899063">
<ele>534.718750</ele>
<time>2012-07-26T14:18:37Z</time>
<speed>3.110000</speed>
<extensions>
<speed>3.1</speed>
<temp>0.00</temp>
<bpm>0</bpm>
<rpm>0.00</rpm>
</extensions>
</trkpt>
<trkpt lat="63.748348236" lon="-19.465234756">
<ele>531.250000</ele>
<time>2012-07-26T14:18:42Z</time>
<speed>4.530000</speed>
<extensions>
<speed>4.5</speed>
<temp>0.00</temp>
<bpm>0</bpm>
<rpm>0.00</rpm>
</extensions>
</trkpt>
<trkpt lat="63.748233795" lon="-19.465656281">
<ele>527.265625</ele>
<time>2012-07-26T14:18:47Z</time>
<speed>5.050000</speed>
<extensions>
<speed>5.1</speed>
<temp>0.00</temp>
<bpm>0</bpm>
<rpm>0.00</rpm>
</extensions>
</trkpt>
<trkpt lat="63.748107910" lon="-19.466007233">
<ele>524.156250</ele>
<time>2012-07-26T14:18:52Z</time>
<speed>3.930000</speed>
<extensions>
<speed>3.9</speed>
<temp>0.00</temp>
<bpm>0</bpm>
<rpm>0.00</rpm>
</extensions>
</trkpt>
<trkpt lat="63.747966766" lon="-19.466171265">
<ele>522.781250</ele>
<time>2012-07-26T14:18:57Z</time>
<speed>4.000000</speed>
<extensions>
<speed>4.0</speed>
<temp>0.00</temp>
<bpm>0</bpm>
<rpm>0.00</rpm>
</extensions>
</trkpt>
<trkpt lat="63.747798920" lon="-19.466190338">
<ele>520.859375</ele>
<time>2012-07-26T14:19:02Z</time>
<speed>4.390000</speed>
<extensions>
<speed>4.4</speed>
<temp>0.00</temp>
<bpm>0</bpm>
<rpm>0.00</rpm>
</extensions>
</trkpt>
<trkpt lat="63.747634888" lon="-19.466144562">
<ele>519.843750</ele>
<time>2012-07-26T14:19:07Z</time>
<speed>3.350000</speed>
<extensions>
<speed>3.4</speed>
<temp>0.00</temp>
<bpm>0</bpm>
<rpm>0.00</rpm>
</extensions>
</trkpt>
<trkpt lat="63.747444153" lon="-19.466066360">
<ele>518.156250</ele>
<time>2012-07-26T14:19:12Z</time>
<speed>5.020000</speed>
<extensions>
<speed>5.0</speed>
<temp>0.00</temp>
<bpm>0</bpm>
<rpm>0.00</rpm>
</extensions>
</trkpt>
<trkpt lat="63.747276306" lon="-19.466163635">
<ele>520.750000</ele>
<time>2012-07-26T14:19:17Z</time>
<speed>2.970000</speed>
<extensions>
<speed>3.0</speed>
<temp>0.00</temp>
<bpm>0</bpm>
<rpm>0.00</rpm>
</extensions>
</trkpt>
<trkpt lat="63.747138977" lon="-19.466314316">
<ele>523.031250</ele>
<time>2012-07-26T14:19:22Z</time>
<speed>4.190000</speed>
<extensions>
<speed>4.2</speed>
<temp>0.00</temp>
<bpm>0</bpm>
<rpm>0.00</rpm>
</extensions>
</trkpt>
<trkpt lat="63.746940613" lon="-19.466342926">
<ele>521.140625</ele>
<time>2012-07-26T14:19:27Z</time>
<speed>4.620000</speed>
<extensions>
<speed>4.6</speed>
<temp>0.00</temp>
<bpm>0</bpm>
<rpm>0.00</rpm>
</extensions>
</trkpt>
<trkpt lat="63.746707916" lon="-19.466028214">
<ele>516.828125</ele>
<time>2012-07-26T14:19:32Z</time>
<speed>6.340000</speed>
<extensions>
<speed>6.3</speed>
<temp>0.00</temp>
<bpm>0</bpm>
<rpm>0.00</rpm>
</extensions>
</trkpt>
<trkpt lat="63.746467590" lon="-19.465698242">
<ele>515.500000</ele>
<time>2012-07-26T14:19:37Z</time>
<speed>5.970000</speed>
<extensions>
<speed>6.0</speed>
<temp>0.00</temp>
<bpm>0</bpm>
<rpm>0.00</rpm>
</extensions>
</trkpt>
<trkpt lat="63.746234894" lon="-19.465810776">
<ele>514.281250</ele>
<time>2012-07-26T14:19:42Z</time>
<speed>3.910000</speed>
<extensions>
<speed>3.9</speed>
<temp>0.00</temp>
<bpm>0</bpm>
<rpm>0.00</rpm>
</extensions>
</trkpt>
<trkpt lat="63.746093750" lon="-19.465782166">
<ele>515.031250</ele>
<time>2012-07-26T14:19:47Z</time>
<speed>3.170000</speed>
<extensions>
<speed>3.2</speed>
<temp>0.00</temp>
<bpm>0</bpm>
<rpm>0.00</rpm>
</extensions>
</trkpt>
<trkpt lat="63.745960236" lon="-19.465732574">
<ele>516.609375</ele>
<time>2012-07-26T14:19:52Z</time>
<speed>3.020000</speed>
<extensions>
<speed>3.0</speed>
<temp>0.00</temp>
<bpm>0</bpm>
<rpm>0.00</rpm>
</extensions>
</trkpt>
<trkpt lat="63.745838165" lon="-19.465715408">
<ele>518.765625</ele>
<time>2012-07-26T14:19:57Z</time>
<speed>3.050000</speed>
<extensions>
<speed>3.0</speed>
<temp>0.00</temp>
<bpm>0</bpm>
<rpm>0.00</rpm>
</extensions>
</trkpt>
<trkpt lat="63.745689392" lon="-19.465721130">
<ele>517.250000</ele>
<time>2012-07-26T14:20:02Z</time>
<speed>3.270000</speed>
<extensions>
<speed>3.3</speed>
<temp>0.00</temp>
<bpm>0</bpm>
<rpm>0.00</rpm>
</extensions>
</trkpt>
<trkpt lat="63.745513916" lon="-19.465724945">
<ele>516.187500</ele>
<time>2012-07-26T14:20:07Z</time>
<speed>4.020000</speed>
<extensions>
<speed>4.0</speed>
<temp>0.00</temp>
<bpm>0</bpm>
<rpm>0.00</rpm>
</extensions>
</trkpt>
<trkpt lat="63.745338440" lon="-19.465637207">
<ele>514.765625</ele>
<time>2012-07-26T14:20:12Z</time>
<speed>3.110000</speed>
<extensions>
<speed>3.1</speed>
<temp>0.00</temp>
<bpm>0</bpm>
<rpm>0.00</rpm>
</extensions>
</trkpt>
<trkpt lat="63.745208740" lon="-19.465478897">
<ele>509.007813</ele>
<time>2012-07-26T14:20:17Z</time>
<speed>2.210000</speed>
<extensions>
<speed>2.2</speed>
<temp>0.00</temp>
<bpm>0</bpm>
<rpm>0.00</rpm>
</extensions>
</trkpt>
<trkpt lat="63.745159149" lon="-19.465389252">
<ele>506.757813</ele>
<time>2012-07-26T14:20:22Z</time>
<speed>0.480000</speed>
<extensions>
<speed>0.5</speed>
<temp>0.00</temp>
<bpm>0</bpm>
<rpm>0.00</rpm>
</extensions>
</trkpt>
<trkpt lat="63.745128632" lon="-19.465408325">
<ele>506.554688</ele>
<time>2012-07-26T14:20:27Z</time>
<speed>0.480000</speed>
<extensions>
<speed>0.5</speed>
<temp>0.00</temp>
<bpm>0</bpm>
<rpm>0.00</rpm>
</extensions>
</trkpt>
<trkpt lat="63.745109558" lon="-19.465415955">
<ele>506.703125</ele>
<time>2012-07-26T14:20:32Z</time>
<speed>0.470000</speed>
<extensions>
<speed>0.5</speed>
<temp>0.00</temp>
<bpm>0</bpm>
<rpm>0.00</rpm>
</extensions>
</trkpt>
<trkpt lat="63.745082855" lon="-19.465402603">
<ele>506.843750</ele>
<time>2012-07-26T14:20:37Z</time>
<speed>0.370000</speed>
<extensions>
<speed>0.4</speed>
<temp>0.00</temp>
<bpm>0</bpm>
<rpm>0.00</rpm>
</extensions>
</trkpt>
<trkpt lat="63.745071411" lon="-19.465389252">
<ele>506.992188</ele>
<time>2012-07-26T14:20:42Z</time>
<speed>0.320000</speed>
<extensions>
<speed>0.3</speed>
<temp>0.00</temp>
<bpm>0</bpm>
<rpm>0.00</rpm>
</extensions>
</trkpt>
<trkpt lat="63.745059967" lon="-19.465377808">
<ele>507.093750</ele>
<time>2012-07-26T14:20:47Z</time>
<speed>0.350000</speed>
<extensions>
<speed>0.3</speed>
<temp>0.00</temp>
<bpm>0</bpm>
<rpm>0.00</rpm>
</extensions>
</trkpt>
<trkpt lat="63.745048523" lon="-19.465385437">
<ele>507.179688</ele>
<time>2012-07-26T14:20:52Z</time>
<speed>0.130000</speed>
<extensions>
<speed>0.1</speed>
<temp>0.00</temp>
<bpm>0</bpm>
<rpm>0.00</rpm>
</extensions>
</trkpt>
<trkpt lat="63.745044708" lon="-19.465391159">
<ele>507.195313</ele>
<time>2012-07-26T14:20:57Z</time>
<speed>0.100000</speed>
<extensions>
<speed>0.1</speed>
<temp>0.00</temp>
<bpm>0</bpm>
<rpm>0.00</rpm>
</extensions>
</trkpt>
<trkpt lat="63.745048523" lon="-19.465398788">
<ele>507.171875</ele>
<time>2012-07-26T14:21:02Z</time>
<speed>0.140000</speed>
<extensions>
<speed>0.1</speed>
<temp>0.00</temp>
<bpm>0</bpm>
<rpm>0.00</rpm>
</extensions>
</trkpt>
<trkpt lat="63.745052338" lon="-19.465408325">
<ele>507.148438</ele>
<time>2012-07-26T14:21:07Z</time>
<speed>0.180000</speed>
<extensions>
<speed>0.2</speed>
<temp>0.00</temp>
<bpm>0</bpm>
<rpm>0.00</rpm>
</extensions>
</trkpt>
<trkpt lat="63.745059967" lon="-19.465412140">
<ele>507.101563</ele>
<time>2012-07-26T14:21:12Z</time>
<speed>0.280000</speed>
<extensions>
<speed>0.3</speed>
<temp>0.00</temp>
<bpm>0</bpm>
<rpm>0.00</rpm>
</extensions>
</trkpt>
<trkpt lat="63.745075226" lon="-19.465431213">
<ele>507.023438</ele>
<time>2012-07-26T14:21:17Z</time>
<speed>0.490000</speed>
<extensions>
<speed>0.5</speed>
<temp>0.00</temp>
<bpm>0</bpm>
<rpm>0.00</rpm>
</extensions>
</trkpt>
<trkpt lat="63.745094299" lon="-19.465469360">
<ele>506.898438</ele>
<time>2012-07-26T14:21:22Z</time>
<speed>0.630000</speed>
<extensions>
<speed>0.6</speed>
<temp>0.00</temp>
<bpm>0</bpm>
<rpm>0.00</rpm>
</extensions>
</trkpt>
<trkpt lat="63.745121002" lon="-19.465490341">
<ele>506.687500</ele>
<time>2012-07-26T14:21:27Z</time>
<speed>0.710000</speed>
<extensions>
<speed>0.7</speed>
<temp>0.00</temp>
<bpm>0</bpm>
<rpm>0.00</rpm>
</extensions>
</trkpt>
<trkpt lat="63.745101929" lon="-19.465387344">
<ele>507.218750</ele>
<time>2012-07-26T14:21:32Z</time>
<speed>2.960000</speed>
<extensions>
<speed>3.0</speed>
<temp>0.00</temp>
<bpm>0</bpm>
<rpm>0.00</rpm>
</extensions>
</trkpt>
<trkpt lat="63.744968414" lon="-19.465003967">
<ele>505.109375</ele>
<time>2012-07-26T14:21:37Z</time>
<speed>3.630000</speed>
<extensions>
<speed>3.6</speed>
<temp>0.00</temp>
<bpm>0</bpm>
<rpm>0.00</rpm>
</extensions>
</trkpt>
<trkpt lat="63.744934082" lon="-19.464635849">
<ele>504.843750</ele>
<time>2012-07-26T14:21:42Z</time>
<speed>3.690000</speed>
<extensions>
<speed>3.7</speed>
<temp>0.00</temp>
<bpm>0</bpm>
<rpm>0.00</rpm>
</extensions>
</trkpt>
<trkpt lat="63.744888306" lon="-19.464290619">
<ele>503.085938</ele>
<time>2012-07-26T14:21:47Z</time>
<speed>3.310000</speed>
<extensions>
<speed>3.3</speed>
<temp>0.00</temp>
<bpm>0</bpm>
<rpm>0.00</rpm>
</extensions>
</trkpt>
<trkpt lat="63.744895935" lon="-19.463941574">
<ele>504.023438</ele>
<time>2012-07-26T14:21:52Z</time>
<speed>2.890000</speed>
<extensions>
<speed>2.9</speed>
<temp>0.00</temp>
<bpm>0</bpm>
<rpm>0.00</rpm>
</extensions>
</trkpt>
<trkpt lat="63.744873047" lon="-19.463672638">
<ele>503.218750</ele>
<time>2012-07-26T14:21:57Z</time>
<speed>2.450000</speed>
<extensions>
<speed>2.4</speed>
<temp>0.00</temp>
<bpm>0</bpm>
<rpm>0.00</rpm>
</extensions>
</trkpt>
<trkpt lat="63.744857788" lon="-19.463403702">
<ele>500.835938</ele>
<time>2012-07-26T14:22:02Z</time>
<speed>2.850000</speed>
<extensions>
<speed>2.9</speed>
<temp>0.00</temp>
<bpm>0</bpm>
<rpm>0.00</rpm>
</extensions>
</trkpt>
<trkpt lat="63.744857788" lon="-19.463094711">
<ele>501.359375</ele>
<time>2012-07-26T14:22:07Z</time>
<speed>2.710000</speed>
<extensions>
<speed>2.7</speed>
<temp>0.00</temp>
<bpm>0</bpm>
<rpm>0.00</rpm>
</extensions>
</trkpt>
<trkpt lat="63.744850159" lon="-19.462816238">
<ele>502.234375</ele>
<time>2012-07-26T14:22:12Z</time>
<speed>2.810000</speed>
<extensions>
<speed>2.8</speed>
<temp>0.00</temp>
<bpm>0</bpm>
<rpm>0.00</rpm>
</extensions>
</trkpt>
<trkpt lat="63.744846344" lon="-19.462570190">
<ele>503.226563</ele>
<time>2012-07-26T14:22:17Z</time>
<speed>2.410000</speed>
<extensions>
<speed>2.4</speed>
<temp>0.00</temp>
<bpm>0</bpm>
<rpm>0.00</rpm>
</extensions>
</trkpt>
<trkpt lat="63.744815826" lon="-19.462320328">
<ele>504.679688</ele>
<time>2012-07-26T14:22:22Z</time>
<speed>2.750000</speed>
<extensions>
<speed>2.7</speed>
<temp>0.00</temp>
<bpm>0</bpm>
<rpm>0.00</rpm>
</extensions>
</trkpt>
<trkpt lat="63.744804382" lon="-19.462110519">
<ele>504.187500</ele>
<time>2012-07-26T14:22:27Z</time>
<speed>2.000000</speed>
<extensions>
<speed>2.0</speed>
<temp>0.00</temp>
<bpm>0</bpm>
<rpm>0.00</rpm>
</extensions>
</trkpt>
<trkpt lat="63.744800568" lon="-19.461906433">
<ele>503.945313</ele>
<time>2012-07-26T14:22:32Z</time>
<speed>1.790000</speed>
<extensions>
<speed>1.8</speed>
<temp>0.00</temp>
<bpm>0</bpm>
<rpm>0.00</rpm>
</extensions>
</trkpt>
<trkpt lat="63.744838715" lon="-19.461606979">
<ele>502.742188</ele>
<time>2012-07-26T14:22:37Z</time>
<speed>3.020000</speed>
<extensions>
<speed>3.0</speed>
<temp>0.00</temp>
<bpm>0</bpm>
<rpm>0.00</rpm>
</extensions>
</trkpt>
<trkpt lat="63.744888306" lon="-19.461187363">
<ele>501.460938</ele>
<time>2012-07-26T14:22:42Z</time>
<speed>4.080000</speed>
<extensions>
<speed>4.1</speed>
<temp>0.00</temp>
<bpm>0</bpm>
<rpm>0.00</rpm>
</extensions>
</trkpt>
<trkpt lat="63.744937897" lon="-19.460699081">
<ele>502.148438</ele>
<time>2012-07-26T14:22:47Z</time>
<speed>5.310000</speed>
<extensions>
<speed>5.3</speed>
<temp>0.00</temp>
<bpm>0</bpm>
<rpm>0.00</rpm>
</extensions>
</trkpt>
<trkpt lat="63.744945526" lon="-19.460153580">
<ele>502.843750</ele>
<time>2012-07-26T14:22:52Z</time>
<speed>5.390000</speed>
<extensions>
<speed>5.4</speed>
<temp>0.00</temp>
<bpm>0</bpm>
<rpm>0.00</rpm>
</extensions>
</trkpt>
<trkpt lat="63.744972229" lon="-19.459543228">
<ele>503.492188</ele>
<time>2012-07-26T14:22:57Z</time>
<speed>5.560000</speed>
<extensions>
<speed>5.6</speed>
<temp>0.00</temp>
<bpm>0</bpm>
<rpm>0.00</rpm>
</extensions>
</trkpt>
<trkpt lat="63.744945526" lon="-19.458839417">
<ele>503.843750</ele>
<time>2012-07-26T14:23:02Z</time>
<speed>5.750000</speed>
<extensions>
<speed>5.8</speed>
<temp>0.00</temp>
<bpm>0</bpm>
<rpm>0.00</rpm>
</extensions>
</trkpt>
<trkpt lat="63.744812012" lon="-19.458541870">
<ele>505.484375</ele>
<time>2012-07-26T14:23:07Z</time>
<speed>3.170000</speed>
<extensions>
<speed>3.2</speed>
<temp>0.00</temp>
<bpm>0</bpm>
<rpm>0.00</rpm>
</extensions>
</trkpt>
<trkpt lat="63.744712830" lon="-19.458293915">
<ele>506.460938</ele>
<time>2012-07-26T14:23:12Z</time>
<speed>3.840000</speed>
<extensions>
<speed>3.8</speed>
<temp>0.00</temp>
<bpm>0</bpm>
<rpm>0.00</rpm>
</extensions>
</trkpt>
<trkpt lat="63.744647980" lon="-19.457973480">
<ele>503.445313</ele>
<time>2012-07-26T14:23:17Z</time>
<speed>3.720000</speed>
<extensions>
<speed>3.7</speed>
<temp>0.00</temp>
<bpm>0</bpm>
<rpm>0.00</rpm>
</extensions>
</trkpt>
<trkpt lat="63.744621277" lon="-19.457603455">
<ele>501.101563</ele>
<time>2012-07-26T14:23:22Z</time>
<speed>4.470000</speed>
<extensions>
<speed>4.5</speed>
<temp>0.00</temp>
<bpm>0</bpm>
<rpm>0.00</rpm>
</extensions>
</trkpt>
<trkpt lat="63.744495392" lon="-19.457220078">
<ele>502.101563</ele>
<time>2012-07-26T14:23:27Z</time>
<speed>4.560000</speed>
<extensions>
<speed>4.6</speed>
<temp>0.00</temp>
<bpm>0</bpm>
<rpm>0.00</rpm>
</extensions>
</trkpt>
<trkpt lat="63.744369507" lon="-19.456773758">
<ele>503.015625</ele>
<time>2012-07-26T14:23:32Z</time>
<speed>5.930000</speed>
<extensions>
<speed>5.9</speed>
<temp>0.00</temp>
<bpm>0</bpm>
<rpm>0.00</rpm>
</extensions>
</trkpt>
<trkpt lat="63.744232178" lon="-19.456142426">
<ele>494.546875</ele>
<time>2012-07-26T14:23:37Z</time>
<speed>5.940000</speed>
<extensions>
<speed>5.9</speed>
<temp>0.00</temp>
<bpm>0</bpm>
<rpm>0.00</rpm>
</extensions>
</trkpt>
<trkpt lat="63.744174957" lon="-19.455720901">
<ele>489.375000</ele>
<time>2012-07-26T14:23:42Z</time>
<speed>3.180000</speed>
<extensions>
<speed>3.2</speed>
<temp>0.00</temp>
<bpm>0</bpm>
<rpm>0.00</rpm>
</extensions>
</trkpt>
<trkpt lat="63.744094849" lon="-19.455436707">
<ele>489.046875</ele>
<time>2012-07-26T14:23:47Z</time>
<speed>4.600000</speed>
<extensions>
<speed>4.6</speed>
<temp>0.00</temp>
<bpm>0</bpm>
<rpm>0.00</rpm>
</extensions>
</trkpt>
<trkpt lat="63.743877411" lon="-19.454948425">
<ele>487.179688</ele>
<time>2012-07-26T14:23:52Z</time>
<speed>8.080000</speed>
<extensions>
<speed>8.1</speed>
<temp>0.00</temp>
<bpm>0</bpm>
<rpm>0.00</rpm>
</extensions>
</trkpt>
<trkpt lat="63.743602753" lon="-19.454427719">
<ele>482.562500</ele>
<time>2012-07-26T14:23:57Z</time>
<speed>8.410000</speed>
<extensions>
<speed>8.4</speed>
<temp>0.00</temp>
<bpm>0</bpm>
<rpm>0.00</rpm>
</extensions>
</trkpt>
<trkpt lat="63.743282318" lon="-19.453929901">
<ele>479.250000</ele>
<time>2012-07-26T14:24:02Z</time>
<speed>8.620000</speed>
<extensions>
<speed>8.6</speed>
<temp>0.00</temp>
<bpm>0</bpm>
<rpm>0.00</rpm>
</extensions>
</trkpt>
<trkpt lat="63.742965698" lon="-19.453519821">
<ele>474.085938</ele>
<time>2012-07-26T14:24:07Z</time>
<speed>6.400000</speed>
<extensions>
<speed>6.4</speed>
<temp>0.00</temp>
<bpm>0</bpm>
<rpm>0.00</rpm>
</extensions>
</trkpt>
<trkpt lat="63.742801666" lon="-19.453365326">
<ele>470.109375</ele>
<time>2012-07-26T14:24:12Z</time>
<speed>3.050000</speed>
<extensions>
<speed>3.0</speed>
<temp>0.00</temp>
<bpm>0</bpm>
<rpm>0.00</rpm>
</extensions>
</trkpt>
<trkpt lat="63.742595673" lon="-19.453229904">
<ele>467.765625</ele>
<time>2012-07-26T14:24:17Z</time>
<speed>6.310000</speed>
<extensions>
<speed>6.3</speed>
<temp>0.00</temp>
<bpm>0</bpm>
<rpm>0.00</rpm>
</extensions>
</trkpt>
<trkpt lat="63.742259979" lon="-19.452972412">
<ele>463.617188</ele>
<time>2012-07-26T14:24:22Z</time>
<speed>7.540000</speed>
<extensions>
<speed>7.5</speed>
<temp>0.00</temp>
<bpm>0</bpm>
<rpm>0.00</rpm>
</extensions>
</trkpt>
<trkpt lat="63.741966248" lon="-19.452760696">
<ele>460.992188</ele>
<time>2012-07-26T14:24:27Z</time>
<speed>6.360000</speed>
<extensions>
<speed>6.4</speed>
<temp>0.00</temp>
<bpm>0</bpm>
<rpm>0.00</rpm>
</extensions>
</trkpt>
<trkpt lat="63.741767883" lon="-19.452924728">
<ele>457.281250</ele>
<time>2012-07-26T14:24:32Z</time>
<speed>4.400000</speed>
<extensions>
<speed>4.4</speed>
<temp>0.00</temp>
<bpm>0</bpm>
<rpm>0.00</rpm>
</extensions>
</trkpt>
<trkpt lat="63.741615295" lon="-19.453125000">
<ele>453.968750</ele>
<time>2012-07-26T14:24:37Z</time>
<speed>3.740000</speed>
<extensions>
<speed>3.7</speed>
<temp>0.00</temp>
<bpm>0</bpm>
<rpm>0.00</rpm>
</extensions>
</trkpt>
<trkpt lat="63.741477966" lon="-19.453283310">
<ele>452.039063</ele>
<time>2012-07-26T14:24:42Z</time>
<speed>3.740000</speed>
<extensions>
<speed>3.7</speed>
<temp>0.00</temp>
<bpm>0</bpm>
<rpm>0.00</rpm>
</extensions>
</trkpt>
<trkpt lat="63.741310120" lon="-19.453430176">
<ele>448.507813</ele>
<time>2012-07-26T14:24:47Z</time>
<speed>4.480000</speed>
<extensions>
<speed>4.5</speed>
<temp>0.00</temp>
<bpm>0</bpm>
<rpm>0.00</rpm>
</extensions>
</trkpt>
<trkpt lat="63.741046906" lon="-19.453702927">
<ele>444.617188</ele>
<time>2012-07-26T14:24:52Z</time>
<speed>8.440000</speed>
<extensions>
<speed>8.4</speed>
<temp>0.00</temp>
<bpm>0</bpm>
<rpm>0.00</rpm>
</extensions>
</trkpt>
<trkpt lat="63.740734100" lon="-19.454040527">
<ele>445.007813</ele>
<time>2012-07-26T14:24:57Z</time>
<speed>5.470000</speed>
<extensions>
<speed>5.5</speed>
<temp>0.00</temp>
<bpm>0</bpm>
<rpm>0.00</rpm>
</extensions>
</trkpt>
<trkpt lat="63.740486145" lon="-19.453992844">
<ele>442.882813</ele>
<time>2012-07-26T14:25:02Z</time>
<speed>5.070000</speed>
<extensions>
<speed>5.1</speed>
<temp>0.00</temp>
<bpm>0</bpm>
<rpm>0.00</rpm>
</extensions>
</trkpt>
<trkpt lat="63.740242004" lon="-19.453674316">
<ele>441.070313</ele>
<time>2012-07-26T14:25:07Z</time>
<speed>5.410000</speed>
<extensions>
<speed>5.4</speed>
<temp>0.00</temp>
<bpm>0</bpm>
<rpm>0.00</rpm>
</extensions>
</trkpt>
<trkpt lat="63.740112305" lon="-19.453342438">
<ele>440.203125</ele>
<time>2012-07-26T14:25:12Z</time>
<speed>2.750000</speed>
<extensions>
<speed>2.7</speed>
<temp>0.00</temp>
<bpm>0</bpm>
<rpm>0.00</rpm>
</extensions>
</trkpt>
<trkpt lat="63.740009308" lon="-19.453081131">
<ele>437.484375</ele>
<time>2012-07-26T14:25:17Z</time>
<speed>4.160000</speed>
<extensions>
<speed>4.2</speed>
<temp>0.00</temp>
<bpm>0</bpm>
<rpm>0.00</rpm>
</extensions>
</trkpt>
<trkpt lat="63.739826202" lon="-19.452646255">
<ele>432.843750</ele>
<time>2012-07-26T14:25:22Z</time>
<speed>6.280000</speed>
<extensions>
<speed>6.3</speed>
<temp>0.00</temp>
<bpm>0</bpm>
<rpm>0.00</rpm>
</extensions>
</trkpt>
<trkpt lat="63.739604950" lon="-19.452354431">
<ele>429.023438</ele>
<time>2012-07-26T14:25:27Z</time>
<speed>5.870000</speed>
<extensions>
<speed>5.9</speed>
<temp>0.00</temp>
<bpm>0</bpm>
<rpm>0.00</rpm>
</extensions>
</trkpt>
<trkpt lat="63.739322662" lon="-19.452142715">
<ele>423.882813</ele>
<time>2012-07-26T14:25:32Z</time>
<speed>8.070000</speed>
<extensions>
<speed>8.1</speed>
<temp>0.00</temp>
<bpm>0</bpm>
<rpm>0.00</rpm>
</extensions>
</trkpt>
<trkpt lat="63.738998413" lon="-19.451791763">
<ele>421.570313</ele>
<time>2012-07-26T14:25:37Z</time>
<speed>8.330000</speed>
<extensions>
<speed>8.3</speed>
<temp>0.00</temp>
<bpm>0</bpm>
<rpm>0.00</rpm>
</extensions>
</trkpt>
<trkpt lat="63.738708496" lon="-19.451400757">
<ele>421.203125</ele>
<time>2012-07-26T14:25:42Z</time>
<speed>5.420000</speed>
<extensions>
<speed>5.4</speed>
<temp>0.00</temp>
<bpm>0</bpm>
<rpm>0.00</rpm>
</extensions>
</trkpt>
<trkpt lat="63.738555908" lon="-19.451248169">
<ele>420.531250</ele>
<time>2012-07-26T14:25:47Z</time>
<speed>3.590000</speed>
<extensions>
<speed>3.6</speed>
<temp>0.00</temp>
<bpm>0</bpm>
<rpm>0.00</rpm>
</extensions>
</trkpt>
<trkpt lat="63.738388062" lon="-19.451145172">
<ele>419.593750</ele>
<time>2012-07-26T14:25:52Z</time>
<speed>3.760000</speed>
<extensions>
<speed>3.8</speed>
<temp>0.00</temp>
<bpm>0</bpm>
<rpm>0.00</rpm>
</extensions>
</trkpt>
<trkpt lat="63.738239288" lon="-19.451128006">
<ele>418.976563</ele>
<time>2012-07-26T14:25:57Z</time>
<speed>3.370000</speed>
<extensions>
<speed>3.4</speed>
<temp>0.00</temp>
<bpm>0</bpm>
<rpm>0.00</rpm>
</extensions>
</trkpt>
<trkpt lat="63.738094330" lon="-19.451143265">
<ele>417.679688</ele>
<time>2012-07-26T14:26:02Z</time>
<speed>3.180000</speed>
<extensions>
<speed>3.2</speed>
<temp>0.00</temp>
<bpm>0</bpm>
<rpm>0.00</rpm>
</extensions>
</trkpt>
<trkpt lat="63.738002777" lon="-19.451154709">
<ele>417.265625</ele>
<time>2012-07-26T14:26:07Z</time>
<speed>0.460000</speed>
<extensions>
<speed>0.5</speed>
<temp>0.00</temp>
<bpm>0</bpm>
<rpm>0.00</rpm>
</extensions>
</trkpt>
<trkpt lat="63.737998962" lon="-19.451185226">
<ele>417.015625</ele>
<time>2012-07-26T14:26:12Z</time>
<speed>0.170000</speed>
<extensions>
<speed>0.2</speed>
<temp>0.00</temp>
<bpm>0</bpm>
<rpm>0.00</rpm>
</extensions>
</trkpt>
<trkpt lat="63.737991333" lon="-19.451196671">
<ele>416.929688</ele>
<time>2012-07-26T14:26:17Z</time>
<speed>0.060000</speed>
<extensions>
<speed>0.1</speed>
<temp>0.00</temp>
<bpm>0</bpm>
<rpm>0.00</rpm>
</extensions>
</trkpt>
<trkpt lat="63.737987518" lon="-19.451200485">
<ele>416.898438</ele>
<time>2012-07-26T14:26:22Z</time>
<speed>0.050000</speed>
<extensions>
<speed>0.1</speed>
<temp>0.00</temp>
<bpm>0</bpm>
<rpm>0.00</rpm>
</extensions>
</trkpt>
<trkpt lat="63.737983704" lon="-19.451200485">
<ele>416.921875</ele>
<time>2012-07-26T14:26:27Z</time>
<speed>0.060000</speed>
<extensions>
<speed>0.1</speed>
<temp>0.00</temp>
<bpm>0</bpm>
<rpm>0.00</rpm>
</extensions>
</trkpt>
<trkpt lat="63.737979889" lon="-19.451198578">
<ele>416.960938</ele>
<time>2012-07-26T14:26:32Z</time>
<speed>0.060000</speed>
<extensions>
<speed>0.1</speed>
<temp>0.00</temp>
<bpm>0</bpm>
<rpm>0.00</rpm>
</extensions>
</trkpt>
<trkpt lat="63.737976074" lon="-19.451196671">
<ele>417.007813</ele>
<time>2012-07-26T14:26:37Z</time>
<speed>0.140000</speed>
<extensions>
<speed>0.1</speed>
<temp>0.00</temp>
<bpm>0</bpm>
<rpm>0.00</rpm>
</extensions>
</trkpt>
<trkpt lat="63.737976074" lon="-19.451194763">
<ele>417.039063</ele>
<time>2012-07-26T14:26:42Z</time>
<speed>0.020000</speed>
<extensions>
<speed>0.0</speed>
<temp>0.00</temp>
<bpm>0</bpm>
<rpm>0.00</rpm>
</extensions>
</trkpt>
<trkpt lat="63.737976074" lon="-19.451192856">
<ele>417.031250</ele>
<time>2012-07-26T14:26:47Z</time>
<speed>0.130000</speed>
<extensions>
<speed>0.1</speed>
<temp>0.00</temp>
<bpm>0</bpm>
<rpm>0.00</rpm>
</extensions>
</trkpt>
<trkpt lat="63.737972260" lon="-19.451175690">
<ele>416.914063</ele>
<time>2012-07-26T14:26:52Z</time>
<speed>0.060000</speed>
<extensions>
<speed>0.1</speed>
<temp>0.00</temp>
<bpm>0</bpm>
<rpm>0.00</rpm>
</extensions>
</trkpt>
<trkpt lat="63.737972260" lon="-19.451171875">
<ele>416.789063</ele>
<time>2012-07-26T14:26:57Z</time>
<speed>0.050000</speed>
<extensions>
<speed>0.1</speed>
<temp>0.00</temp>
<bpm>0</bpm>
<rpm>0.00</rpm>
</extensions>
</trkpt>
<trkpt lat="63.737972260" lon="-19.451164246">
<ele>416.710938</ele>
<time>2012-07-26T14:27:02Z</time>
<speed>0.140000</speed>
<extensions>
<speed>0.1</speed>
<temp>0.00</temp>
<bpm>0</bpm>
<rpm>0.00</rpm>
</extensions>
</trkpt>
<trkpt lat="63.737972260" lon="-19.451152802">
<ele>416.679688</ele>
<time>2012-07-26T14:27:07Z</time>
<speed>0.140000</speed>
<extensions>
<speed>0.1</speed>
<temp>0.00</temp>
<bpm>0</bpm>
<rpm>0.00</rpm>
</extensions>
</trkpt>
<trkpt lat="63.737976074" lon="-19.451139450">
<ele>416.664063</ele>
<time>2012-07-26T14:27:12Z</time>
<speed>0.100000</speed>
<extensions>
<speed>0.1</speed>
<temp>0.00</temp>
<bpm>0</bpm>
<rpm>0.00</rpm>
</extensions>
</trkpt>
<trkpt lat="63.737926483" lon="-19.451131821">
<ele>415.421875</ele>
<time>2012-07-26T14:27:17Z</time>
<speed>2.210000</speed>
<extensions>
<speed>2.2</speed>
<temp>0.00</temp>
<bpm>0</bpm>
<rpm>0.00</rpm>
</extensions>
</trkpt>
<trkpt lat="63.737792969" lon="-19.451042175">
<ele>412.273438</ele>
<time>2012-07-26T14:27:22Z</time>
<speed>3.380000</speed>
<extensions>
<speed>3.4</speed>
<temp>0.00</temp>
<bpm>0</bpm>
<rpm>0.00</rpm>
</extensions>
</trkpt>
<trkpt lat="63.737636566" lon="-19.450891495">
<ele>409.273438</ele>
<time>2012-07-26T14:27:27Z</time>
<speed>3.950000</speed>
<extensions>
<speed>4.0</speed>
<temp>0.00</temp>
<bpm>0</bpm>
<rpm>0.00</rpm>
</extensions>
</trkpt>
<trkpt lat="63.737453461" lon="-19.450706482">
<ele>405.648438</ele>
<time>2012-07-26T14:27:32Z</time>
<speed>4.470000</speed>
<extensions>
<speed>4.5</speed>
<temp>0.00</temp>
<bpm>0</bpm>
<rpm>0.00</rpm>
</extensions>
</trkpt>
<trkpt lat="63.737289429" lon="-19.450710297">
<ele>403.078125</ele>
<time>2012-07-26T14:27:37Z</time>
<speed>4.050000</speed>
<extensions>
<speed>4.0</speed>
<temp>0.00</temp>
<bpm>0</bpm>
<rpm>0.00</rpm>
</extensions>
</trkpt>
<trkpt lat="63.737102509" lon="-19.451063156">
<ele>402.625000</ele>
<time>2012-07-26T14:27:42Z</time>
<speed>5.650000</speed>
<extensions>
<speed>5.7</speed>
<temp>0.00</temp>
<bpm>0</bpm>
<rpm>0.00</rpm>
</extensions>
</trkpt>
<trkpt lat="63.736980438" lon="-19.451456070">
<ele>400.062500</ele>
<time>2012-07-26T14:27:47Z</time>
<speed>3.170000</speed>
<extensions>
<speed>3.2</speed>
<temp>0.00</temp>
<bpm>0</bpm>
<rpm>0.00</rpm>
</extensions>
</trkpt>
<trkpt lat="63.736949921" lon="-19.451702118">
<ele>399.789063</ele>
<time>2012-07-26T14:27:52Z</time>
<speed>2.420000</speed>
<extensions>
<speed>2.4</speed>
<temp>0.00</temp>
<bpm>0</bpm>
<rpm>0.00</rpm>
</extensions>
</trkpt>
<trkpt lat="63.736938477" lon="-19.451931000">
<ele>399.078125</ele>
<time>2012-07-26T14:27:57Z</time>
<speed>1.600000</speed>
<extensions>
<speed>1.6</speed>
<temp>0.00</temp>
<bpm>0</bpm>
<rpm>0.00</rpm>
</extensions>
</trkpt>
<trkpt lat="63.736934662" lon="-19.452068329">
<ele>399.070313</ele>
<time>2012-07-26T14:28:02Z</time>
<speed>0.770000</speed>
<extensions>
<speed>0.8</speed>
<temp>0.00</temp>
<bpm>0</bpm>
<rpm>0.00</rpm>
</extensions>
</trkpt>
<trkpt lat="63.736934662" lon="-19.452064514">
<ele>399.023438</ele>
<time>2012-07-26T14:28:07Z</time>
<speed>0.100000</speed>
<extensions>
<speed>0.1</speed>
<temp>0.00</temp>
<bpm>0</bpm>
<rpm>0.00</rpm>
</extensions>
</trkpt>
<trkpt lat="63.736942291" lon="-19.452054977">
<ele>399.054688</ele>
<time>2012-07-26T14:28:12Z</time>
<speed>0.100000</speed>
<extensions>
<speed>0.1</speed>
<temp>0.00</temp>
<bpm>0</bpm>
<rpm>0.00</rpm>
</extensions>
</trkpt>
<trkpt lat="63.736942291" lon="-19.452054977">
<ele>398.984375</ele>
<time>2012-07-26T14:28:17Z</time>
<speed>0.040000</speed>
<extensions>
<speed>0.0</speed>
<temp>0.00</temp>
<bpm>0</bpm>
<rpm>0.00</rpm>
</extensions>
</trkpt>
<trkpt lat="63.736930847" lon="-19.452054977">
<ele>399.031250</ele>
<time>2012-07-26T14:28:22Z</time>
<speed>0.210000</speed>
<extensions>
<speed>0.2</speed>
<temp>0.00</temp>
<bpm>0</bpm>
<rpm>0.00</rpm>
</extensions>
</trkpt>
<trkpt lat="63.736915588" lon="-19.452188492">
<ele>399.023438</ele>
<time>2012-07-26T14:28:27Z</time>
<speed>2.880000</speed>
<extensions>
<speed>2.9</speed>
<temp>0.00</temp>
<bpm>0</bpm>
<rpm>0.00</rpm>
</extensions>
</trkpt>
<trkpt lat="63.736915588" lon="-19.452508926">
<ele>399.093750</ele>
<time>2012-07-26T14:28:32Z</time>
<speed>3.030000</speed>
<extensions>
<speed>3.0</speed>
<temp>0.00</temp>
<bpm>0</bpm>
<rpm>0.00</rpm>
</extensions>
</trkpt>
<trkpt lat="63.736930847" lon="-19.452816010">
<ele>397.898438</ele>
<time>2012-07-26T14:28:37Z</time>
<speed>3.650000</speed>
<extensions>
<speed>3.7</speed>
<temp>0.00</temp>
<bpm>0</bpm>
<rpm>0.00</rpm>
</extensions>
</trkpt>
<trkpt lat="63.736923218" lon="-19.453212738">
<ele>395.492188</ele>
<time>2012-07-26T14:28:42Z</time>
<speed>4.660000</speed>
<extensions>
<speed>4.7</speed>
<temp>0.00</temp>
<bpm>0</bpm>
<rpm>0.00</rpm>
</extensions>
</trkpt>
<trkpt lat="63.736831665" lon="-19.453792572">
<ele>390.789063</ele>
<time>2012-07-26T14:28:47Z</time>
<speed>6.510000</speed>
<extensions>
<speed>6.5</speed>
<temp>0.00</temp>
<bpm>0</bpm>
<rpm>0.00</rpm>
</extensions>
</trkpt>
<trkpt lat="63.736663818" lon="-19.454330444">
<ele>387.046875</ele>
<time>2012-07-26T14:28:52Z</time>
<speed>6.430000</speed>
<extensions>
<speed>6.4</speed>
<temp>0.00</temp>
<bpm>0</bpm>
<rpm>0.00</rpm>
</extensions>
</trkpt>
<trkpt lat="63.736450195" lon="-19.454637527">
<ele>382.515625</ele>
<time>2012-07-26T14:28:57Z</time>
<speed>4.820000</speed>
<extensions>
<speed>4.8</speed>
<temp>0.00</temp>
<bpm>0</bpm>
<rpm>0.00</rpm>
</extensions>
</trkpt>
<trkpt lat="63.736289978" lon="-19.454885483">
<ele>379.695313</ele>
<time>2012-07-26T14:29:02Z</time>
<speed>4.130000</speed>
<extensions>
<speed>4.1</speed>
<temp>0.00</temp>
<bpm>0</bpm>
<rpm>0.00</rpm>
</extensions>
</trkpt>
<trkpt lat="63.736118317" lon="-19.455059052">
<ele>376.453125</ele>
<time>2012-07-26T14:29:07Z</time>
<speed>4.320000</speed>
<extensions>
<speed>4.3</speed>
<temp>0.00</temp>
<bpm>0</bpm>
<rpm>0.00</rpm>
</extensions>
</trkpt>
<trkpt lat="63.735954285" lon="-19.455238342">
<ele>373.015625</ele>
<time>2012-07-26T14:29:12Z</time>
<speed>4.210000</speed>
<extensions>
<speed>4.2</speed>
<temp>0.00</temp>
<bpm>0</bpm>
<rpm>0.00</rpm>
</extensions>
</trkpt>
<trkpt lat="63.735828400" lon="-19.455398560">
<ele>370.640625</ele>
<time>2012-07-26T14:29:17Z</time>
<speed>1.860000</speed>
<extensions>
<speed>1.9</speed>
<temp>0.00</temp>
<bpm>0</bpm>
<rpm>0.00</rpm>
</extensions>
</trkpt>
<trkpt lat="63.735813141" lon="-19.455427170">
<ele>369.960938</ele>
<time>2012-07-26T14:29:22Z</time>
<speed>0.130000</speed>
<extensions>
<speed>0.1</speed>
<temp>0.00</temp>
<bpm>0</bpm>
<rpm>0.00</rpm>
</extensions>
</trkpt>
<trkpt lat="63.735813141" lon="-19.455427170">
<ele>369.820313</ele>
<time>2012-07-26T14:29:27Z</time>
<speed>0.190000</speed>
<extensions>
<speed>0.2</speed>
<temp>0.00</temp>
<bpm>0</bpm>
<rpm>0.00</rpm>
</extensions>
</trkpt>
<trkpt lat="63.735816956" lon="-19.455432892">
<ele>369.789063</ele>
<time>2012-07-26T14:29:32Z</time>
<speed>0.070000</speed>
<extensions>
<speed>0.1</speed>
<temp>0.00</temp>
<bpm>0</bpm>
<rpm>0.00</rpm>
</extensions>
</trkpt>
<trkpt lat="63.735816956" lon="-19.455436707">
<ele>369.796875</ele>
<time>2012-07-26T14:29:37Z</time>
<speed>0.060000</speed>
<extensions>
<speed>0.1</speed>
<temp>0.00</temp>
<bpm>0</bpm>
<rpm>0.00</rpm>
</extensions>
</trkpt>
<trkpt lat="63.735809326" lon="-19.455448151">
<ele>369.804688</ele>
<time>2012-07-26T14:29:42Z</time>
<speed>0.800000</speed>
<extensions>
<speed>0.8</speed>
<temp>0.00</temp>
<bpm>0</bpm>
<rpm>0.00</rpm>
</extensions>
</trkpt>
<trkpt lat="63.735694885" lon="-19.455543518">
<ele>369.484375</ele>
<time>2012-07-26T14:29:47Z</time>
<speed>3.300000</speed>
<extensions>
<speed>3.3</speed>
<temp>0.00</temp>
<bpm>0</bpm>
<rpm>0.00</rpm>
</extensions>
</trkpt>
<trkpt lat="63.735538483" lon="-19.455730438">
<ele>368.148438</ele>
<time>2012-07-26T14:29:52Z</time>
<speed>4.160000</speed>
<extensions>
<speed>4.2</speed>
<temp>0.00</temp>
<bpm>0</bpm>
<rpm>0.00</rpm>
</extensions>
</trkpt>
<trkpt lat="63.735404968" lon="-19.456005096">
<ele>368.171875</ele>
<time>2012-07-26T14:29:57Z</time>
<speed>4.040000</speed>
<extensions>
<speed>4.0</speed>
<temp>0.00</temp>
<bpm>0</bpm>
<rpm>0.00</rpm>
</extensions>
</trkpt>
<trkpt lat="63.735301971" lon="-19.456293106">
<ele>366.429688</ele>
<time>2012-07-26T14:30:02Z</time>
<speed>3.190000</speed>
<extensions>
<speed>3.2</speed>
<temp>0.00</temp>
<bpm>0</bpm>
<rpm>0.00</rpm>
</extensions>
</trkpt>
<trkpt lat="63.735237122" lon="-19.456598282">
<ele>361.000000</ele>
<time>2012-07-26T14:30:07Z</time>
<speed>2.880000</speed>
<extensions>
<speed>2.9</speed>
<temp>0.00</temp>
<bpm>0</bpm>
<rpm>0.00</rpm>
</extensions>
</trkpt>
<trkpt lat="63.735218048" lon="-19.456617355">
<ele>359.390625</ele>
<time>2012-07-26T14:30:12Z</time>
<speed>0.090000</speed>
<extensions>
<speed>0.1</speed>
<temp>0.00</temp>
<bpm>0</bpm>
<rpm>0.00</rpm>
</extensions>
</trkpt>
<trkpt lat="63.735218048" lon="-19.456617355">
<ele>359.015625</ele>
<time>2012-07-26T14:30:17Z</time>
<speed>0.140000</speed>
<extensions>
<speed>0.1</speed>
<temp>0.00</temp>
<bpm>0</bpm>
<rpm>0.00</rpm>
</extensions>
</trkpt>
<trkpt lat="63.735195160" lon="-19.456708908">
<ele>357.843750</ele>
<time>2012-07-26T14:30:22Z</time>
<speed>2.160000</speed>
<extensions>
<speed>2.2</speed>
<temp>0.00</temp>
<bpm>0</bpm>
<rpm>0.00</rpm>
</extensions>
</trkpt>
<trkpt lat="63.735141754" lon="-19.456996918">
<ele>355.914063</ele>
<time>2012-07-26T14:30:27Z</time>
<speed>3.140000</speed>
<extensions>
<speed>3.1</speed>
<temp>0.00</temp>
<bpm>0</bpm>
<rpm>0.00</rpm>
</extensions>
</trkpt>
<trkpt lat="63.735095978" lon="-19.457305908">
<ele>356.335938</ele>
<time>2012-07-26T14:30:32Z</time>
<speed>2.960000</speed>
<extensions>
<speed>3.0</speed>
<temp>0.00</temp>
<bpm>0</bpm>
<rpm>0.00</rpm>
</extensions>
</trkpt>
<trkpt lat="63.735034943" lon="-19.457508087">
<ele>354.765625</ele>
<time>2012-07-26T14:30:37Z</time>
<speed>2.200000</speed>
<extensions>
<speed>2.2</speed>
<temp>0.00</temp>
<bpm>0</bpm>
<rpm>0.00</rpm>
</extensions>
</trkpt>
<trkpt lat="63.734931946" lon="-19.457643509">
<ele>352.593750</ele>
<time>2012-07-26T14:30:42Z</time>
<speed>2.930000</speed>
<extensions>
<speed>2.9</speed>
<temp>0.00</temp>
<bpm>0</bpm>
<rpm>0.00</rpm>
</extensions>
</trkpt>
<trkpt lat="63.734802246" lon="-19.457744598">
<ele>351.023438</ele>
<time>2012-07-26T14:30:47Z</time>
<speed>3.450000</speed>
<extensions>
<speed>3.5</speed>
<temp>0.00</temp>
<bpm>0</bpm>
<rpm>0.00</rpm>
</extensions>
</trkpt>
<trkpt lat="63.734630585" lon="-19.457960129">
<ele>347.570313</ele>
<time>2012-07-26T14:30:52Z</time>
<speed>4.830000</speed>
<extensions>
<speed>4.8</speed>
<temp>0.00</temp>
<bpm>0</bpm>
<rpm>0.00</rpm>
</extensions>
</trkpt>
<trkpt lat="63.734451294" lon="-19.458164215">
<ele>344.468750</ele>
<time>2012-07-26T14:30:57Z</time>
<speed>3.720000</speed>
<extensions>
<speed>3.7</speed>
<temp>0.00</temp>
<bpm>0</bpm>
<rpm>0.00</rpm>
</extensions>
</trkpt>
<trkpt lat="63.734275818" lon="-19.458332062">
<ele>342.601563</ele>
<time>2012-07-26T14:31:02Z</time>
<speed>3.840000</speed>
<extensions>
<speed>3.8</speed>
<temp>0.00</temp>
<bpm>0</bpm>
<rpm>0.00</rpm>
</extensions>
</trkpt>
<trkpt lat="63.734119415" lon="-19.458604813">
<ele>338.593750</ele>
<time>2012-07-26T14:31:07Z</time>
<speed>3.610000</speed>
<extensions>
<speed>3.6</speed>
<temp>0.00</temp>
<bpm>0</bpm>
<rpm>0.00</rpm>
</extensions>
</trkpt>
<trkpt lat="63.734008789" lon="-19.458887100">
<ele>338.062500</ele>
<time>2012-07-26T14:31:12Z</time>
<speed>3.360000</speed>
<extensions>
<speed>3.4</speed>
<temp>0.00</temp>
<bpm>0</bpm>
<rpm>0.00</rpm>
</extensions>
</trkpt>
<trkpt lat="63.733905792" lon="-19.459135056">
<ele>337.343750</ele>
<time>2012-07-26T14:31:17Z</time>
<speed>3.980000</speed>
<extensions>
<speed>4.0</speed>
<temp>0.00</temp>
<bpm>0</bpm>
<rpm>0.00</rpm>
</extensions>
</trkpt>
<trkpt lat="63.733749390" lon="-19.459386826">
<ele>334.453125</ele>
<time>2012-07-26T14:31:22Z</time>
<speed>3.670000</speed>
<extensions>
<speed>3.7</speed>
<temp>0.00</temp>
<bpm>0</bpm>
<rpm>0.00</rpm>
</extensions>
</trkpt>
<trkpt lat="63.733615875" lon="-19.459665298">
<ele>330.835938</ele>
<time>2012-07-26T14:31:27Z</time>
<speed>3.970000</speed>
<extensions>
<speed>4.0</speed>
<temp>0.00</temp>
<bpm>0</bpm>
<rpm>0.00</rpm>
</extensions>
</trkpt>
<trkpt lat="63.733501434" lon="-19.460016251">
<ele>326.335938</ele>
<time>2012-07-26T14:31:32Z</time>
<speed>4.240000</speed>
<extensions>
<speed>4.2</speed>
<temp>0.00</temp>
<bpm>0</bpm>
<rpm>0.00</rpm>
</extensions>
</trkpt>
<trkpt lat="63.733367920" lon="-19.460338593">
<ele>324.554688</ele>
<time>2012-07-26T14:31:37Z</time>
<speed>4.560000</speed>
<extensions>
<speed>4.6</speed>
<temp>0.00</temp>
<bpm>0</bpm>
<rpm>0.00</rpm>
</extensions>
</trkpt>
<trkpt lat="63.733211517" lon="-19.460519791">
<ele>324.578125</ele>
<time>2012-07-26T14:31:42Z</time>
<speed>4.240000</speed>
<extensions>
<speed>4.2</speed>
<temp>0.00</temp>
<bpm>0</bpm>
<rpm>0.00</rpm>
</extensions>
</trkpt>
<trkpt lat="63.733028412" lon="-19.460668564">
<ele>321.679688</ele>
<time>2012-07-26T14:31:47Z</time>
<speed>3.850000</speed>
<extensions>
<speed>3.8</speed>
<temp>0.00</temp>
<bpm>0</bpm>
<rpm>0.00</rpm>
</extensions>
</trkpt>
<trkpt lat="63.732879639" lon="-19.460838318">
<ele>320.375000</ele>
<time>2012-07-26T14:31:52Z</time>
<speed>4.220000</speed>
<extensions>
<speed>4.2</speed>
<temp>0.00</temp>
<bpm>0</bpm>
<rpm>0.00</rpm>
</extensions>
</trkpt>
<trkpt lat="63.732707977" lon="-19.461114883">
<ele>320.757813</ele>
<time>2012-07-26T14:31:57Z</time>
<speed>5.210000</speed>
<extensions>
<speed>5.2</speed>
<temp>0.00</temp>
<bpm>0</bpm>
<rpm>0.00</rpm>
</extensions>
</trkpt>
<trkpt lat="63.732490540" lon="-19.461317062">
<ele>320.281250</ele>
<time>2012-07-26T14:32:02Z</time>
<speed>5.600000</speed>
<extensions>
<speed>5.6</speed>
<temp>0.00</temp>
<bpm>0</bpm>
<rpm>0.00</rpm>
</extensions>
</trkpt>
<trkpt lat="63.732242584" lon="-19.461431503">
<ele>318.515625</ele>
<time>2012-07-26T14:32:07Z</time>
<speed>5.240000</speed>
<extensions>
<speed>5.2</speed>
<temp>0.00</temp>
<bpm>0</bpm>
<rpm>0.00</rpm>
</extensions>
</trkpt>
<trkpt lat="63.732040405" lon="-19.461711884">
<ele>317.789063</ele>
<time>2012-07-26T14:32:12Z</time>
<speed>4.820000</speed>
<extensions>
<speed>4.8</speed>
<temp>0.00</temp>
<bpm>0</bpm>
<rpm>0.00</rpm>
</extensions>
</trkpt>
<trkpt lat="63.731884003" lon="-19.462030411">
<ele>315.375000</ele>
<time>2012-07-26T14:32:17Z</time>
<speed>4.560000</speed>
<extensions>
<speed>4.6</speed>
<temp>0.00</temp>
<bpm>0</bpm>
<rpm>0.00</rpm>
</extensions>
</trkpt>
<trkpt lat="63.731754303" lon="-19.462337494">
<ele>314.031250</ele>
<time>2012-07-26T14:32:22Z</time>
<speed>3.570000</speed>
<extensions>
<speed>3.6</speed>
<temp>0.00</temp>
<bpm>0</bpm>
<rpm>0.00</rpm>
</extensions>
</trkpt>
<trkpt lat="63.731647491" lon="-19.462568283">
<ele>312.304688</ele>
<time>2012-07-26T14:32:27Z</time>
<speed>3.430000</speed>
<extensions>
<speed>3.4</speed>
<temp>0.00</temp>
<bpm>0</bpm>
<rpm>0.00</rpm>
</extensions>
</trkpt>
<trkpt lat="63.731540680" lon="-19.462835312">
<ele>311.703125</ele>
<time>2012-07-26T14:32:32Z</time>
<speed>3.460000</speed>
<extensions>
<speed>3.5</speed>
<temp>0.00</temp>
<bpm>0</bpm>
<rpm>0.00</rpm>
</extensions>
</trkpt>
<trkpt lat="63.731475830" lon="-19.463117599">
<ele>311.398438</ele>
<time>2012-07-26T14:32:37Z</time>
<speed>3.150000</speed>
<extensions>
<speed>3.2</speed>
<temp>0.00</temp>
<bpm>0</bpm>
<rpm>0.00</rpm>
</extensions>
</trkpt>
<trkpt lat="63.731433868" lon="-19.463388443">
<ele>310.078125</ele>
<time>2012-07-26T14:32:42Z</time>
<speed>2.370000</speed>
<extensions>
<speed>2.4</speed>
<temp>0.00</temp>
<bpm>0</bpm>
<rpm>0.00</rpm>
</extensions>
</trkpt>
<trkpt lat="63.731407166" lon="-19.463697433">
<ele>308.390625</ele>
<time>2012-07-26T14:32:47Z</time>
<speed>3.700000</speed>
<extensions>
<speed>3.7</speed>
<temp>0.00</temp>
<bpm>0</bpm>
<rpm>0.00</rpm>
</extensions>
</trkpt>
<trkpt lat="63.731372833" lon="-19.464193344">
<ele>305.281250</ele>
<time>2012-07-26T14:32:52Z</time>
<speed>5.720000</speed>
<extensions>
<speed>5.7</speed>
<temp>0.00</temp>
<bpm>0</bpm>
<rpm>0.00</rpm>
</extensions>
</trkpt>
<trkpt lat="63.731338501" lon="-19.464830399">
<ele>302.281250</ele>
<time>2012-07-26T14:32:57Z</time>
<speed>7.510000</speed>
<extensions>
<speed>7.5</speed>
<temp>0.00</temp>
<bpm>0</bpm>
<rpm>0.00</rpm>
</extensions>
</trkpt>
<trkpt lat="63.731285095" lon="-19.465635300">
<ele>298.726563</ele>
<time>2012-07-26T14:33:02Z</time>
<speed>8.160000</speed>
<extensions>
<speed>8.2</speed>
<temp>0.00</temp>
<bpm>0</bpm>
<rpm>0.00</rpm>
</extensions>
</trkpt>
<trkpt lat="63.731212616" lon="-19.466470718">
<ele>295.562500</ele>
<time>2012-07-26T14:33:07Z</time>
<speed>7.660000</speed>
<extensions>
<speed>7.7</speed>
<temp>0.00</temp>
<bpm>0</bpm>
<rpm>0.00</rpm>
</extensions>
</trkpt>
<trkpt lat="63.731121063" lon="-19.467071533">
<ele>293.078125</ele>
<time>2012-07-26T14:33:12Z</time>
<speed>4.550000</speed>
<extensions>
<speed>4.5</speed>
<temp>0.00</temp>
<bpm>0</bpm>
<rpm>0.00</rpm>
</extensions>
</trkpt>
<trkpt lat="63.731048584" lon="-19.467361450">
<ele>292.718750</ele>
<time>2012-07-26T14:33:17Z</time>
<speed>2.610000</speed>
<extensions>
<speed>2.6</speed>
<temp>0.00</temp>
<bpm>0</bpm>
<rpm>0.00</rpm>
</extensions>
</trkpt>
<trkpt lat="63.730972290" lon="-19.467639923">
<ele>293.390625</ele>
<time>2012-07-26T14:33:22Z</time>
<speed>3.370000</speed>
<extensions>
<speed>3.4</speed>
<temp>0.00</temp>
<bpm>0</bpm>
<rpm>0.00</rpm>
</extensions>
</trkpt>
<trkpt lat="63.730884552" lon="-19.467880249">
<ele>290.835938</ele>
<time>2012-07-26T14:33:27Z</time>
<speed>3.360000</speed>
<extensions>
<speed>3.4</speed>
<temp>0.00</temp>
<bpm>0</bpm>
<rpm>0.00</rpm>
</extensions>
</trkpt>
<trkpt lat="63.730781555" lon="-19.468132019">
<ele>287.695313</ele>
<time>2012-07-26T14:33:32Z</time>
<speed>3.520000</speed>
<extensions>
<speed>3.5</speed>
<temp>0.00</temp>
<bpm>0</bpm>
<rpm>0.00</rpm>
</extensions>
</trkpt>
<trkpt lat="63.730640411" lon="-19.468406677">
<ele>286.734375</ele>
<time>2012-07-26T14:33:37Z</time>
<speed>3.800000</speed>
<extensions>
<speed>3.8</speed>
<temp>0.00</temp>
<bpm>0</bpm>
<rpm>0.00</rpm>
</extensions>
</trkpt>
<trkpt lat="63.730480194" lon="-19.468559265">
<ele>285.226563</ele>
<time>2012-07-26T14:33:42Z</time>
<speed>4.280000</speed>
<extensions>
<speed>4.3</speed>
<temp>0.00</temp>
<bpm>0</bpm>
<rpm>0.00</rpm>
</extensions>
</trkpt>
<trkpt lat="63.730293274" lon="-19.468666077">
<ele>282.968750</ele>
<time>2012-07-26T14:33:47Z</time>
<speed>5.200000</speed>
<extensions>
<speed>5.2</speed>
<temp>0.00</temp>
<bpm>0</bpm>
<rpm>0.00</rpm>
</extensions>
</trkpt>
<trkpt lat="63.730049133" lon="-19.468872070">
<ele>282.351563</ele>
<time>2012-07-26T14:33:52Z</time>
<speed>6.240000</speed>
<extensions>
<speed>6.2</speed>
<temp>0.00</temp>
<bpm>0</bpm>
<rpm>0.00</rpm>
</extensions>
</trkpt>
<trkpt lat="63.729797363" lon="-19.469284058">
<ele>284.789063</ele>
<time>2012-07-26T14:33:57Z</time>
<speed>6.740000</speed>
<extensions>
<speed>6.7</speed>
<temp>0.00</temp>
<bpm>0</bpm>
<rpm>0.00</rpm>
</extensions>
</trkpt>
<trkpt lat="63.729640961" lon="-19.469848633">
<ele>283.234375</ele>
<time>2012-07-26T14:34:02Z</time>
<speed>6.090000</speed>
<extensions>
<speed>6.1</speed>
<temp>0.00</temp>
<bpm>0</bpm>
<rpm>0.00</rpm>
</extensions>
</trkpt>
<trkpt lat="63.729549408" lon="-19.470388412">
<ele>282.273438</ele>
<time>2012-07-26T14:34:07Z</time>
<speed>5.310000</speed>
<extensions>
<speed>5.3</speed>
<temp>0.00</temp>
<bpm>0</bpm>
<rpm>0.00</rpm>
</extensions>
</trkpt>
<trkpt lat="63.729442596" lon="-19.470813751">
<ele>281.929688</ele>
<time>2012-07-26T14:34:12Z</time>
<speed>4.350000</speed>
<extensions>
<speed>4.3</speed>
<temp>0.00</temp>
<bpm>0</bpm>
<rpm>0.00</rpm>
</extensions>
</trkpt>
<trkpt lat="63.729381561" lon="-19.471149445">
<ele>280.367188</ele>
<time>2012-07-26T14:34:17Z</time>
<speed>2.550000</speed>
<extensions>
<speed>2.6</speed>
<temp>0.00</temp>
<bpm>0</bpm>
<rpm>0.00</rpm>
</extensions>
</trkpt>
<trkpt lat="63.729366302" lon="-19.471261978">
<ele>281.140625</ele>
<time>2012-07-26T14:34:22Z</time>
<speed>0.230000</speed>
<extensions>
<speed>0.2</speed>
<temp>0.00</temp>
<bpm>0</bpm>
<rpm>0.00</rpm>
</extensions>
</trkpt>
<trkpt lat="63.729362488" lon="-19.471258163">
<ele>281.593750</ele>
<time>2012-07-26T14:34:27Z</time>
<speed>0.070000</speed>
<extensions>
<speed>0.1</speed>
<temp>0.00</temp>
<bpm>0</bpm>
<rpm>0.00</rpm>
</extensions>
</trkpt>
<trkpt lat="63.729354858" lon="-19.471261978">
<ele>281.617188</ele>
<time>2012-07-26T14:34:32Z</time>
<speed>0.530000</speed>
<extensions>
<speed>0.5</speed>
<temp>0.00</temp>
<bpm>0</bpm>
<rpm>0.00</rpm>
</extensions>
</trkpt>
<trkpt lat="63.729324341" lon="-19.471263885">
<ele>281.695313</ele>
<time>2012-07-26T14:34:37Z</time>
<speed>1.150000</speed>
<extensions>
<speed>1.1</speed>
<temp>0.00</temp>
<bpm>0</bpm>
<rpm>0.00</rpm>
</extensions>
</trkpt>
<trkpt lat="63.729301453" lon="-19.471382141">
<ele>282.375000</ele>
<time>2012-07-26T14:34:42Z</time>
<speed>1.100000</speed>
<extensions>
<speed>1.1</speed>
<temp>0.00</temp>
<bpm>0</bpm>
<rpm>0.00</rpm>
</extensions>
</trkpt>
<trkpt lat="63.729297638" lon="-19.471490860">
<ele>281.859375</ele>
<time>2012-07-26T14:34:47Z</time>
<speed>0.610000</speed>
<extensions>
<speed>0.6</speed>
<temp>0.00</temp>
<bpm>0</bpm>
<rpm>0.00</rpm>
</extensions>
</trkpt>
<trkpt lat="63.729301453" lon="-19.471590042">
<ele>281.898438</ele>
<time>2012-07-26T14:34:52Z</time>
<speed>1.460000</speed>
<extensions>
<speed>1.5</speed>
<temp>0.00</temp>
<bpm>0</bpm>
<rpm>0.00</rpm>
</extensions>
</trkpt>
<trkpt lat="63.729316711" lon="-19.471681595">
<ele>281.304688</ele>
<time>2012-07-26T14:34:57Z</time>
<speed>0.170000</speed>
<extensions>
<speed>0.2</speed>
<temp>0.00</temp>
<bpm>0</bpm>
<rpm>0.00</rpm>
</extensions>
</trkpt>
<trkpt lat="63.729286194" lon="-19.471607208">
<ele>281.070313</ele>
<time>2012-07-26T14:35:02Z</time>
<speed>0.350000</speed>
<extensions>
<speed>0.3</speed>
<temp>0.00</temp>
<bpm>0</bpm>
<rpm>0.00</rpm>
</extensions>
</trkpt>
<trkpt lat="63.729297638" lon="-19.471605301">
<ele>283.273438</ele>
<time>2012-07-26T14:35:07Z</time>
<speed>0.120000</speed>
<extensions>
<speed>0.1</speed>
<temp>0.00</temp>
<bpm>0</bpm>
<rpm>0.00</rpm>
</extensions>
</trkpt>
<trkpt lat="63.729301453" lon="-19.471595764">
<ele>283.117188</ele>
<time>2012-07-26T14:35:12Z</time>
<speed>0.230000</speed>
<extensions>
<speed>0.2</speed>
<temp>0.00</temp>
<bpm>0</bpm>
<rpm>0.00</rpm>
</extensions>
</trkpt>
<trkpt lat="63.729293823" lon="-19.471588135">
<ele>283.023438</ele>
<time>2012-07-26T14:35:17Z</time>
<speed>0.090000</speed>
<extensions>
<speed>0.1</speed>
<temp>0.00</temp>
<bpm>0</bpm>
<rpm>0.00</rpm>
</extensions>
</trkpt>
<trkpt lat="63.729278564" lon="-19.471624374">
<ele>283.351563</ele>
<time>2012-07-26T14:35:22Z</time>
<speed>0.300000</speed>
<extensions>
<speed>0.3</speed>
<temp>0.00</temp>
<bpm>0</bpm>
<rpm>0.00</rpm>
</extensions>
</trkpt>
<trkpt lat="63.729270935" lon="-19.471639633">
<ele>283.507813</ele>
<time>2012-07-26T14:35:27Z</time>
<speed>0.290000</speed>
<extensions>
<speed>0.3</speed>
<temp>0.00</temp>
<bpm>0</bpm>
<rpm>0.00</rpm>
</extensions>
</trkpt>
<trkpt lat="63.729278564" lon="-19.471647263">
<ele>283.531250</ele>
<time>2012-07-26T14:35:32Z</time>
<speed>0.170000</speed>
<extensions>
<speed>0.2</speed>
<temp>0.00</temp>
<bpm>0</bpm>
<rpm>0.00</rpm>
</extensions>
</trkpt>
<trkpt lat="63.729293823" lon="-19.471651077">
<ele>284.132813</ele>
<time>2012-07-26T14:35:37Z</time>
<speed>0.530000</speed>
<extensions>
<speed>0.5</speed>
<temp>0.00</temp>
<bpm>0</bpm>
<rpm>0.00</rpm>
</extensions>
</trkpt>
<trkpt lat="63.729301453" lon="-19.471641541">
<ele>283.492188</ele>
<time>2012-07-26T14:35:42Z</time>
<speed>0.460000</speed>
<extensions>
<speed>0.5</speed>
<temp>0.00</temp>
<bpm>0</bpm>
<rpm>0.00</rpm>
</extensions>
</trkpt>
<trkpt lat="63.729278564" lon="-19.471736908">
<ele>282.984375</ele>
<time>2012-07-26T14:35:47Z</time>
<speed>0.680000</speed>
<extensions>
<speed>0.7</speed>
<temp>0.00</temp>
<bpm>0</bpm>
<rpm>0.00</rpm>
</extensions>
</trkpt>
<trkpt lat="63.729278564" lon="-19.471717834">
<ele>283.773438</ele>
<time>2012-07-26T14:35:52Z</time>
<speed>0.050000</speed>
<extensions>
<speed>0.1</speed>
<temp>0.00</temp>
<bpm>0</bpm>
<rpm>0.00</rpm>
</extensions>
</trkpt>
<trkpt lat="63.729274750" lon="-19.471714020">
<ele>284.031250</ele>
<time>2012-07-26T14:35:57Z</time>
<speed>0.050000</speed>
<extensions>
<speed>0.1</speed>
<temp>0.00</temp>
<bpm>0</bpm>
<rpm>0.00</rpm>
</extensions>
</trkpt>
<trkpt lat="63.729278564" lon="-19.471714020">
<ele>283.929688</ele>
<time>2012-07-26T14:36:02Z</time>
<extensions>
<speed>0.0</speed>
<temp>0.00</temp>
<bpm>0</bpm>
<rpm>0.00</rpm>
</extensions>
</trkpt>
<trkpt lat="63.729278564" lon="-19.471715927">
<ele>283.875000</ele>
<time>2012-07-26T14:36:07Z</time>
<speed>0.010000</speed>
<extensions>
<speed>0.0</speed>
<temp>0.00</temp>
<bpm>0</bpm>
<rpm>0.00</rpm>
</extensions>
</trkpt>
<trkpt lat="63.729278564" lon="-19.471719742">
<ele>283.882813</ele>
<time>2012-07-26T14:36:12Z</time>
<speed>0.110000</speed>
<extensions>
<speed>0.1</speed>
<temp>0.00</temp>
<bpm>0</bpm>
<rpm>0.00</rpm>
</extensions>
</trkpt>
<trkpt lat="63.729278564" lon="-19.471719742">
<ele>283.875000</ele>
<time>2012-07-26T14:36:17Z</time>
<speed>0.040000</speed>
<extensions>
<speed>0.0</speed>
<temp>0.00</temp>
<bpm>0</bpm>
<rpm>0.00</rpm>
</extensions>
</trkpt>
<trkpt lat="63.729278564" lon="-19.471719742">
<ele>283.859375</ele>
<time>2012-07-26T14:36:22Z</time>
<speed>0.140000</speed>
<extensions>
<speed>0.1</speed>
<temp>0.00</temp>
<bpm>0</bpm>
<rpm>0.00</rpm>
</extensions>
</trkpt>
<trkpt lat="63.729278564" lon="-19.471721649">
<ele>283.859375</ele>
<time>2012-07-26T14:36:27Z</time>
<speed>0.030000</speed>
<extensions>
<speed>0.0</speed>
<temp>0.00</temp>
<bpm>0</bpm>
<rpm>0.00</rpm>
</extensions>
</trkpt>
<trkpt lat="63.729278564" lon="-19.471723557">
<ele>283.835938</ele>
<time>2012-07-26T14:36:32Z</time>
<speed>0.030000</speed>
<extensions>
<speed>0.0</speed>
<temp>0.00</temp>
<bpm>0</bpm>
<rpm>0.00</rpm>
</extensions>
</trkpt>
<trkpt lat="63.729278564" lon="-19.471725464">
<ele>283.820313</ele>
<time>2012-07-26T14:36:37Z</time>
<extensions>
<speed>0.0</speed>
<temp>0.00</temp>
<bpm>0</bpm>
<rpm>0.00</rpm>
</extensions>
</trkpt>
<trkpt lat="63.729278564" lon="-19.471725464">
<ele>283.820313</ele>
<time>2012-07-26T14:36:42Z</time>
<extensions>
<speed>0.0</speed>
<temp>0.00</temp>
<bpm>0</bpm>
<rpm>0.00</rpm>
</extensions>
</trkpt>
<trkpt lat="63.729278564" lon="-19.471727371">
<ele>283.820313</ele>
<time>2012-07-26T14:36:47Z</time>
<speed>0.110000</speed>
<extensions>
<speed>0.1</speed>
<temp>0.00</temp>
<bpm>0</bpm>
<rpm>0.00</rpm>
</extensions>
</trkpt>
<trkpt lat="63.729274750" lon="-19.471733093">
<ele>283.828125</ele>
<time>2012-07-26T14:36:52Z</time>
<speed>0.050000</speed>
<extensions>
<speed>0.1</speed>
<temp>0.00</temp>
<bpm>0</bpm>
<rpm>0.00</rpm>
</extensions>
</trkpt>
<trkpt lat="63.729270935" lon="-19.471736908">
<ele>283.820313</ele>
<time>2012-07-26T14:36:57Z</time>
<speed>0.070000</speed>
<extensions>
<speed>0.1</speed>
<temp>0.00</temp>
<bpm>0</bpm>
<rpm>0.00</rpm>
</extensions>
</trkpt>
<trkpt lat="63.729270935" lon="-19.471742630">
<ele>283.820313</ele>
<time>2012-07-26T14:37:02Z</time>
<speed>0.070000</speed>
<extensions>
<speed>0.1</speed>
<temp>0.00</temp>
<bpm>0</bpm>
<rpm>0.00</rpm>
</extensions>
</trkpt>
<trkpt lat="63.729267120" lon="-19.471748352">
<ele>283.812500</ele>
<time>2012-07-26T14:37:07Z</time>
<speed>0.060000</speed>
<extensions>
<speed>0.1</speed>
<temp>0.00</temp>
<bpm>0</bpm>
<rpm>0.00</rpm>
</extensions>
</trkpt>
<trkpt lat="63.729267120" lon="-19.471754074">
<ele>283.804688</ele>
<time>2012-07-26T14:37:12Z</time>
<speed>0.080000</speed>
<extensions>
<speed>0.1</speed>
<temp>0.00</temp>
<bpm>0</bpm>
<rpm>0.00</rpm>
</extensions>
</trkpt>
<trkpt lat="63.729267120" lon="-19.471763611">
<ele>283.796875</ele>
<time>2012-07-26T14:37:17Z</time>
<speed>0.120000</speed>
<extensions>
<speed>0.1</speed>
<temp>0.00</temp>
<bpm>0</bpm>
<rpm>0.00</rpm>
</extensions>
</trkpt>
<trkpt lat="63.729278564" lon="-19.471769333">
<ele>283.914063</ele>
<time>2012-07-26T14:37:22Z</time>
<speed>0.450000</speed>
<extensions>
<speed>0.5</speed>
<temp>0.00</temp>
<bpm>0</bpm>
<rpm>0.00</rpm>
</extensions>
</trkpt>
<trkpt lat="63.729282379" lon="-19.471754074">
<ele>283.937500</ele>
<time>2012-07-26T14:37:27Z</time>
<speed>0.190000</speed>
<extensions>
<speed>0.2</speed>
<temp>0.00</temp>
<bpm>0</bpm>
<rpm>0.00</rpm>
</extensions>
</trkpt>
<trkpt lat="63.729309082" lon="-19.471704483">
<ele>283.937500</ele>
<time>2012-07-26T14:37:32Z</time>
<speed>0.410000</speed>
<extensions>
<speed>0.4</speed>
<temp>0.00</temp>
<bpm>0</bpm>
<rpm>0.00</rpm>
</extensions>
</trkpt>
<trkpt lat="63.729328156" lon="-19.471704483">
<ele>283.921875</ele>
<time>2012-07-26T14:37:37Z</time>
<speed>0.390000</speed>
<extensions>
<speed>0.4</speed>
<temp>0.00</temp>
<bpm>0</bpm>
<rpm>0.00</rpm>
</extensions>
</trkpt>
<trkpt lat="63.729320526" lon="-19.471668243">
<ele>283.960938</ele>
<time>2012-07-26T14:37:42Z</time>
<speed>0.390000</speed>
<extensions>
<speed>0.4</speed>
<temp>0.00</temp>
<bpm>0</bpm>
<rpm>0.00</rpm>
</extensions>
</trkpt>
<trkpt lat="63.729343414" lon="-19.471652985">
<ele>283.992188</ele>
<time>2012-07-26T14:37:47Z</time>
<speed>0.240000</speed>
<extensions>
<speed>0.2</speed>
<temp>0.00</temp>
<bpm>0</bpm>
<rpm>0.00</rpm>
</extensions>
</trkpt>
<trkpt lat="63.729354858" lon="-19.471628189">
<ele>284.007813</ele>
<time>2012-07-26T14:37:52Z</time>
<speed>0.410000</speed>
<extensions>
<speed>0.4</speed>
<temp>0.00</temp>
<bpm>0</bpm>
<rpm>0.00</rpm>
</extensions>
</trkpt>
<trkpt lat="63.729324341" lon="-19.471647263">
<ele>284.023438</ele>
<time>2012-07-26T14:37:57Z</time>
<speed>0.040000</speed>
<extensions>
<speed>0.0</speed>
<temp>0.00</temp>
<bpm>0</bpm>
<rpm>0.00</rpm>
</extensions>
</trkpt>
<trkpt lat="63.729328156" lon="-19.471656799">
<ele>284.039063</ele>
<time>2012-07-26T14:38:02Z</time>
<speed>0.140000</speed>
<extensions>
<speed>0.1</speed>
<temp>0.00</temp>
<bpm>0</bpm>
<rpm>0.00</rpm>
</extensions>
</trkpt>
<trkpt lat="63.729324341" lon="-19.471666336">
<ele>284.039063</ele>
<time>2012-07-26T14:38:07Z</time>
<speed>0.050000</speed>
<extensions>
<speed>0.1</speed>
<temp>0.00</temp>
<bpm>0</bpm>
<rpm>0.00</rpm>
</extensions>
</trkpt>
<trkpt lat="63.729324341" lon="-19.471668243">
<ele>284.023438</ele>
<time>2012-07-26T14:38:12Z</time>
<speed>0.070000</speed>
<extensions>
<speed>0.1</speed>
<temp>0.00</temp>
<bpm>0</bpm>
<rpm>0.00</rpm>
</extensions>
</trkpt>
<trkpt lat="63.729320526" lon="-19.471672058">
<ele>284.031250</ele>
<time>2012-07-26T14:38:17Z</time>
<speed>0.110000</speed>
<extensions>
<speed>0.1</speed>
<temp>0.00</temp>
<bpm>0</bpm>
<rpm>0.00</rpm>
</extensions>
</trkpt>
<trkpt lat="63.729316711" lon="-19.471675873">
<ele>284.070313</ele>
<time>2012-07-26T14:38:22Z</time>
<speed>0.100000</speed>
<extensions>
<speed>0.1</speed>
<temp>0.00</temp>
<bpm>0</bpm>
<rpm>0.00</rpm>
</extensions>
</trkpt>
<trkpt lat="63.729312897" lon="-19.471681595">
<ele>284.148438</ele>
<time>2012-07-26T14:38:27Z</time>
<speed>0.160000</speed>
<extensions>
<speed>0.2</speed>
<temp>0.00</temp>
<bpm>0</bpm>
<rpm>0.00</rpm>
</extensions>
</trkpt>
<trkpt lat="63.729305267" lon="-19.471687317">
<ele>284.257813</ele>
<time>2012-07-26T14:38:32Z</time>
<speed>0.150000</speed>
<extensions>
<speed>0.2</speed>
<temp>0.00</temp>
<bpm>0</bpm>
<rpm>0.00</rpm>
</extensions>
</trkpt>
<trkpt lat="63.729297638" lon="-19.471693039">
<ele>284.359375</ele>
<time>2012-07-26T14:38:37Z</time>
<speed>0.120000</speed>
<extensions>
<speed>0.1</speed>
<temp>0.00</temp>
<bpm>0</bpm>
<rpm>0.00</rpm>
</extensions>
</trkpt>
<trkpt lat="63.729293823" lon="-19.471693039">
<ele>284.593750</ele>
<time>2012-07-26T14:38:42Z</time>
<speed>0.020000</speed>
<extensions>
<speed>0.0</speed>
<temp>0.00</temp>
<bpm>0</bpm>
<rpm>0.00</rpm>
</extensions>
</trkpt>
<trkpt lat="63.729293823" lon="-19.471683502">
<ele>284.789063</ele>
<time>2012-07-26T14:38:47Z</time>
<speed>0.090000</speed>
<extensions>
<speed>0.1</speed>
<temp>0.00</temp>
<bpm>0</bpm>
<rpm>0.00</rpm>
</extensions>
</trkpt>
<trkpt lat="63.729293823" lon="-19.471683502">
<ele>284.914063</ele>
<time>2012-07-26T14:38:52Z</time>
<extensions>
<speed>0.0</speed>
<temp>0.00</temp>
<bpm>0</bpm>
<rpm>0.00</rpm>
</extensions>
</trkpt>
<trkpt lat="63.729293823" lon="-19.471683502">
<ele>284.953125</ele>
<time>2012-07-26T14:38:57Z</time>
<speed>0.010000</speed>
<extensions>
<speed>0.0</speed>
<temp>0.00</temp>
<bpm>0</bpm>
<rpm>0.00</rpm>
</extensions>
</trkpt>
<trkpt lat="63.729293823" lon="-19.471683502">
<ele>284.960938</ele>
<time>2012-07-26T14:39:02Z</time>
<extensions>
<speed>0.0</speed>
<temp>0.00</temp>
<bpm>0</bpm>
<rpm>0.00</rpm>
</extensions>
</trkpt>
<trkpt lat="63.729293823" lon="-19.471683502">
<ele>284.968750</ele>
<time>2012-07-26T14:39:07Z</time>
<extensions>
<speed>0.0</speed>
<temp>0.00</temp>
<bpm>0</bpm>
<rpm>0.00</rpm>
</extensions>
</trkpt>
<trkpt lat="63.729293823" lon="-19.471683502">
<ele>284.968750</ele>
<time>2012-07-26T14:39:12Z</time>
<speed>0.010000</speed>
<extensions>
<speed>0.0</speed>
<temp>0.00</temp>
<bpm>0</bpm>
<rpm>0.00</rpm>
</extensions>
</trkpt>
<trkpt lat="63.729293823" lon="-19.471681595">
<ele>284.960938</ele>
<time>2012-07-26T14:39:17Z</time>
<extensions>
<speed>0.0</speed>
<temp>0.00</temp>
<bpm>0</bpm>
<rpm>0.00</rpm>
</extensions>
</trkpt>
<trkpt lat="63.729293823" lon="-19.471681595">
<ele>284.960938</ele>
<time>2012-07-26T14:39:22Z</time>
<speed>0.010000</speed>
<extensions>
<speed>0.0</speed>
<temp>0.00</temp>
<bpm>0</bpm>
<rpm>0.00</rpm>
</extensions>
</trkpt>
<trkpt lat="63.729293823" lon="-19.471681595">
<ele>284.976563</ele>
<time>2012-07-26T14:39:27Z</time>
<extensions>
<speed>0.0</speed>
<temp>0.00</temp>
<bpm>0</bpm>
<rpm>0.00</rpm>
</extensions>
</trkpt>
<trkpt lat="63.729293823" lon="-19.471681595">
<ele>284.976563</ele>
<time>2012-07-26T14:39:32Z</time>
<extensions>
<speed>0.0</speed>
<temp>0.00</temp>
<bpm>0</bpm>
<rpm>0.00</rpm>
</extensions>
</trkpt>
<trkpt lat="63.729293823" lon="-19.471681595">
<ele>284.937500</ele>
<time>2012-07-26T14:39:37Z</time>
<extensions>
<speed>0.0</speed>
<temp>0.00</temp>
<bpm>0</bpm>
<rpm>0.00</rpm>
</extensions>
</trkpt>
<trkpt lat="63.729293823" lon="-19.471681595">
<ele>284.929688</ele>
<time>2012-07-26T14:39:42Z</time>
<extensions>
<speed>0.0</speed>
<temp>0.00</temp>
<bpm>0</bpm>
<rpm>0.00</rpm>
</extensions>
</trkpt>
<trkpt lat="63.729293823" lon="-19.471681595">
<ele>284.914063</ele>
<time>2012-07-26T14:39:47Z</time>
<extensions>
<speed>0.0</speed>
<temp>0.00</temp>
<bpm>0</bpm>
<rpm>0.00</rpm>
</extensions>
</trkpt>
<trkpt lat="63.729293823" lon="-19.471679688">
<ele>284.906250</ele>
<time>2012-07-26T14:39:52Z</time>
<speed>0.030000</speed>
<extensions>
<speed>0.0</speed>
<temp>0.00</temp>
<bpm>0</bpm>
<rpm>0.00</rpm>
</extensions>
</trkpt>
<trkpt lat="63.729293823" lon="-19.471679688">
<ele>284.960938</ele>
<time>2012-07-26T14:39:57Z</time>
<extensions>
<speed>0.0</speed>
<temp>0.00</temp>
<bpm>0</bpm>
<rpm>0.00</rpm>
</extensions>
</trkpt>
<trkpt lat="63.729293823" lon="-19.471679688">
<ele>284.984375</ele>
<time>2012-07-26T14:40:02Z</time>
<extensions>
<speed>0.0</speed>
<temp>0.00</temp>
<bpm>0</bpm>
<rpm>0.00</rpm>
</extensions>
</trkpt>
<trkpt lat="63.729293823" lon="-19.471679688">
<ele>284.984375</ele>
<time>2012-07-26T14:40:07Z</time>
<extensions>
<speed>0.0</speed>
<temp>0.00</temp>
<bpm>0</bpm>
<rpm>0.00</rpm>
</extensions>
</trkpt>
<trkpt lat="63.729293823" lon="-19.471679688">
<ele>284.992188</ele>
<time>2012-07-26T14:40:12Z</time>
<speed>0.010000</speed>
<extensions>
<speed>0.0</speed>
<temp>0.00</temp>
<bpm>0</bpm>
<rpm>0.00</rpm>
</extensions>
</trkpt>
<trkpt lat="63.729293823" lon="-19.471679688">
<ele>285.007813</ele>
<time>2012-07-26T14:40:17Z</time>
<extensions>
<speed>0.0</speed>
<temp>0.00</temp>
<bpm>0</bpm>
<rpm>0.00</rpm>
</extensions>
</trkpt>
<trkpt lat="63.729293823" lon="-19.471679688">
<ele>285.015625</ele>
<time>2012-07-26T14:40:22Z</time>
<extensions>
<speed>0.0</speed>
<temp>0.00</temp>
<bpm>0</bpm>
<rpm>0.00</rpm>
</extensions>
</trkpt>
<trkpt lat="63.729293823" lon="-19.471677780">
<ele>285.023438</ele>
<time>2012-07-26T14:40:27Z</time>
<speed>0.010000</speed>
<extensions>
<speed>0.0</speed>
<temp>0.00</temp>
<bpm>0</bpm>
<rpm>0.00</rpm>
</extensions>
</trkpt>
<trkpt lat="63.729290009" lon="-19.471677780">
<ele>285.015625</ele>
<time>2012-07-26T14:40:32Z</time>
<speed>0.020000</speed>
<extensions>
<speed>0.0</speed>
<temp>0.00</temp>
<bpm>0</bpm>
<rpm>0.00</rpm>
</extensions>
</trkpt>
<trkpt lat="63.729290009" lon="-19.471677780">
<ele>285.007813</ele>
<time>2012-07-26T14:40:37Z</time>
<extensions>
<speed>0.0</speed>
<temp>0.00</temp>
<bpm>0</bpm>
<rpm>0.00</rpm>
</extensions>
</trkpt>
<trkpt lat="63.729290009" lon="-19.471677780">
<ele>285.007813</ele>
<time>2012-07-26T14:40:42Z</time>
<extensions>
<speed>0.0</speed>
<temp>0.00</temp>
<bpm>0</bpm>
<rpm>0.00</rpm>
</extensions>
</trkpt>
<trkpt lat="63.729290009" lon="-19.471677780">
<ele>285.007813</ele>
<time>2012-07-26T14:40:47Z</time>
<extensions>
<speed>0.0</speed>
<temp>0.00</temp>
<bpm>0</bpm>
<rpm>0.00</rpm>
</extensions>
</trkpt>
<trkpt lat="63.729290009" lon="-19.471677780">
<ele>285.000000</ele>
<time>2012-07-26T14:40:52Z</time>
<extensions>
<speed>0.0</speed>
<temp>0.00</temp>
<bpm>0</bpm>
<rpm>0.00</rpm>
</extensions>
</trkpt>
<trkpt lat="63.729290009" lon="-19.471677780">
<ele>284.992188</ele>
<time>2012-07-26T14:40:57Z</time>
<extensions>
<speed>0.0</speed>
<temp>0.00</temp>
<bpm>0</bpm>
<rpm>0.00</rpm>
</extensions>
</trkpt>
<trkpt lat="63.729290009" lon="-19.471675873">
<ele>284.992188</ele>
<time>2012-07-26T14:41:02Z</time>
<speed>0.010000</speed>
<extensions>
<speed>0.0</speed>
<temp>0.00</temp>
<bpm>0</bpm>
<rpm>0.00</rpm>
</extensions>
</trkpt>
<trkpt lat="63.729290009" lon="-19.471677780">
<ele>284.984375</ele>
<time>2012-07-26T14:41:07Z</time>
<speed>0.010000</speed>
<extensions>
<speed>0.0</speed>
<temp>0.00</temp>
<bpm>0</bpm>
<rpm>0.00</rpm>
</extensions>
</trkpt>
<trkpt lat="63.729290009" lon="-19.471677780">
<ele>284.984375</ele>
<time>2012-07-26T14:41:12Z</time>
<extensions>
<speed>0.0</speed>
<temp>0.00</temp>
<bpm>0</bpm>
<rpm>0.00</rpm>
</extensions>
</trkpt>
<trkpt lat="63.729290009" lon="-19.471675873">
<ele>284.968750</ele>
<time>2012-07-26T14:41:17Z</time>
<extensions>
<speed>0.0</speed>
<temp>0.00</temp>
<bpm>0</bpm>
<rpm>0.00</rpm>
</extensions>
</trkpt>
<trkpt lat="63.729290009" lon="-19.471677780">
<ele>284.968750</ele>
<time>2012-07-26T14:41:22Z</time>
<speed>0.010000</speed>
<extensions>
<speed>0.0</speed>
<temp>0.00</temp>
<bpm>0</bpm>
<rpm>0.00</rpm>
</extensions>
</trkpt>
<trkpt lat="63.729290009" lon="-19.471675873">
<ele>284.960938</ele>
<time>2012-07-26T14:41:27Z</time>
<extensions>
<speed>0.0</speed>
<temp>0.00</temp>
<bpm>0</bpm>
<rpm>0.00</rpm>
</extensions>
</trkpt>
<trkpt lat="63.729290009" lon="-19.471675873">
<ele>284.953125</ele>
<time>2012-07-26T14:41:32Z</time>
<extensions>
<speed>0.0</speed>
<temp>0.00</temp>
<bpm>0</bpm>
<rpm>0.00</rpm>
</extensions>
</trkpt>
<trkpt lat="63.729290009" lon="-19.471675873">
<ele>284.953125</ele>
<time>2012-07-26T14:41:37Z</time>
<speed>0.010000</speed>
<extensions>
<speed>0.0</speed>
<temp>0.00</temp>
<bpm>0</bpm>
<rpm>0.00</rpm>
</extensions>
</trkpt>
<trkpt lat="63.729290009" lon="-19.471675873">
<ele>284.945313</ele>
<time>2012-07-26T14:41:42Z</time>
<speed>0.050000</speed>
<extensions>
<speed>0.1</speed>
<temp>0.00</temp>
<bpm>0</bpm>
<rpm>0.00</rpm>
</extensions>
</trkpt>
<trkpt lat="63.729290009" lon="-19.471675873">
<ele>284.945313</ele>
<time>2012-07-26T14:41:47Z</time>
<extensions>
<speed>0.0</speed>
<temp>0.00</temp>
<bpm>0</bpm>
<rpm>0.00</rpm>
</extensions>
</trkpt>
<trkpt lat="63.729290009" lon="-19.471675873">
<ele>284.945313</ele>
<time>2012-07-26T14:41:52Z</time>
<extensions>
<speed>0.0</speed>
<temp>0.00</temp>
<bpm>0</bpm>
<rpm>0.00</rpm>
</extensions>
</trkpt>
<trkpt lat="63.729290009" lon="-19.471675873">
<ele>284.945313</ele>
<time>2012-07-26T14:41:57Z</time>
<extensions>
<speed>0.0</speed>
<temp>0.00</temp>
<bpm>0</bpm>
<rpm>0.00</rpm>
</extensions>
</trkpt>
<trkpt lat="63.729293823" lon="-19.471675873">
<ele>284.953125</ele>
<time>2012-07-26T14:42:02Z</time>
<extensions>
<speed>0.0</speed>
<temp>0.00</temp>
<bpm>0</bpm>
<rpm>0.00</rpm>
</extensions>
</trkpt>
<trkpt lat="63.729293823" lon="-19.471675873">
<ele>284.960938</ele>
<time>2012-07-26T14:42:07Z</time>
<extensions>
<speed>0.0</speed>
<temp>0.00</temp>
<bpm>0</bpm>
<rpm>0.00</rpm>
</extensions>
</trkpt>
<trkpt lat="63.729293823" lon="-19.471675873">
<ele>284.953125</ele>
<time>2012-07-26T14:42:12Z</time>
<speed>0.010000</speed>
<extensions>
<speed>0.0</speed>
<temp>0.00</temp>
<bpm>0</bpm>
<rpm>0.00</rpm>
</extensions>
</trkpt>
<trkpt lat="63.729293823" lon="-19.471675873">
<ele>284.960938</ele>
<time>2012-07-26T14:42:17Z</time>
<extensions>
<speed>0.0</speed>
<temp>0.00</temp>
<bpm>0</bpm>
<rpm>0.00</rpm>
</extensions>
</trkpt>
<trkpt lat="63.729293823" lon="-19.471675873">
<ele>284.968750</ele>
<time>2012-07-26T14:42:22Z</time>
<extensions>
<speed>0.0</speed>
<temp>0.00</temp>
<bpm>0</bpm>
<rpm>0.00</rpm>
</extensions>
</trkpt>
<trkpt lat="63.729293823" lon="-19.471675873">
<ele>284.976563</ele>
<time>2012-07-26T14:42:27Z</time>
<extensions>
<speed>0.0</speed>
<temp>0.00</temp>
<bpm>0</bpm>
<rpm>0.00</rpm>
</extensions>
</trkpt>
<trkpt lat="63.729293823" lon="-19.471675873">
<ele>284.976563</ele>
<time>2012-07-26T14:42:32Z</time>
<extensions>
<speed>0.0</speed>
<temp>0.00</temp>
<bpm>0</bpm>
<rpm>0.00</rpm>
</extensions>
</trkpt>
<trkpt lat="63.729293823" lon="-19.471675873">
<ele>284.984375</ele>
<time>2012-07-26T14:42:37Z</time>
<extensions>
<speed>0.0</speed>
<temp>0.00</temp>
<bpm>0</bpm>
<rpm>0.00</rpm>
</extensions>
</trkpt>
<trkpt lat="63.729293823" lon="-19.471675873">
<ele>284.992188</ele>
<time>2012-07-26T14:42:42Z</time>
<extensions>
<speed>0.0</speed>
<temp>0.00</temp>
<bpm>0</bpm>
<rpm>0.00</rpm>
</extensions>
</trkpt>
<trkpt lat="63.729293823" lon="-19.471675873">
<ele>285.000000</ele>
<time>2012-07-26T14:42:47Z</time>
<extensions>
<speed>0.0</speed>
<temp>0.00</temp>
<bpm>0</bpm>
<rpm>0.00</rpm>
</extensions>
</trkpt>
<trkpt lat="63.729293823" lon="-19.471675873">
<ele>285.000000</ele>
<time>2012-07-26T14:42:52Z</time>
<extensions>
<speed>0.0</speed>
<temp>0.00</temp>
<bpm>0</bpm>
<rpm>0.00</rpm>
</extensions>
</trkpt>
<trkpt lat="63.729293823" lon="-19.471675873">
<ele>285.007813</ele>
<time>2012-07-26T14:42:57Z</time>
<extensions>
<speed>0.0</speed>
<temp>0.00</temp>
<bpm>0</bpm>
<rpm>0.00</rpm>
</extensions>
</trkpt>
<trkpt lat="63.729293823" lon="-19.471673965">
<ele>285.015625</ele>
<time>2012-07-26T14:43:02Z</time>
<extensions>
<speed>0.0</speed>
<temp>0.00</temp>
<bpm>0</bpm>
<rpm>0.00</rpm>
</extensions>
</trkpt>
<trkpt lat="63.729293823" lon="-19.471673965">
<ele>285.023438</ele>
<time>2012-07-26T14:43:07Z</time>
<extensions>
<speed>0.0</speed>
<temp>0.00</temp>
<bpm>0</bpm>
<rpm>0.00</rpm>
</extensions>
</trkpt>
<trkpt lat="63.729293823" lon="-19.471673965">
<ele>285.039063</ele>
<time>2012-07-26T14:43:12Z</time>
<speed>0.010000</speed>
<extensions>
<speed>0.0</speed>
<temp>0.00</temp>
<bpm>0</bpm>
<rpm>0.00</rpm>
</extensions>
</trkpt>
<trkpt lat="63.729293823" lon="-19.471673965">
<ele>285.046875</ele>
<time>2012-07-26T14:43:17Z</time>
<extensions>
<speed>0.0</speed>
<temp>0.00</temp>
<bpm>0</bpm>
<rpm>0.00</rpm>
</extensions>
</trkpt>
<trkpt lat="63.729293823" lon="-19.471673965">
<ele>285.054688</ele>
<time>2012-07-26T14:43:22Z</time>
<extensions>
<speed>0.0</speed>
<temp>0.00</temp>
<bpm>0</bpm>
<rpm>0.00</rpm>
</extensions>
</trkpt>
<trkpt lat="63.729293823" lon="-19.471673965">
<ele>285.062500</ele>
<time>2012-07-26T14:43:27Z</time>
<extensions>
<speed>0.0</speed>
<temp>0.00</temp>
<bpm>0</bpm>
<rpm>0.00</rpm>
</extensions>
</trkpt>
<trkpt lat="63.729293823" lon="-19.471673965">
<ele>285.070313</ele>
<time>2012-07-26T14:43:32Z</time>
<extensions>
<speed>0.0</speed>
<temp>0.00</temp>
<bpm>0</bpm>
<rpm>0.00</rpm>
</extensions>
</trkpt>
<trkpt lat="63.729293823" lon="-19.471673965">
<ele>285.085938</ele>
<time>2012-07-26T14:43:37Z</time>
<speed>0.010000</speed>
<extensions>
<speed>0.0</speed>
<temp>0.00</temp>
<bpm>0</bpm>
<rpm>0.00</rpm>
</extensions>
</trkpt>
<trkpt lat="63.729293823" lon="-19.471673965">
<ele>285.085938</ele>
<time>2012-07-26T14:43:42Z</time>
<extensions>
<speed>0.0</speed>
<temp>0.00</temp>
<bpm>0</bpm>
<rpm>0.00</rpm>
</extensions>
</trkpt>
<trkpt lat="63.729293823" lon="-19.471673965">
<ele>285.085938</ele>
<time>2012-07-26T14:43:47Z</time>
<extensions>
<speed>0.0</speed>
<temp>0.00</temp>
<bpm>0</bpm>
<rpm>0.00</rpm>
</extensions>
</trkpt>
<trkpt lat="63.729293823" lon="-19.471673965">
<ele>285.093750</ele>
<time>2012-07-26T14:43:52Z</time>
<speed>0.010000</speed>
<extensions>
<speed>0.0</speed>
<temp>0.00</temp>
<bpm>0</bpm>
<rpm>0.00</rpm>
</extensions>
</trkpt>
<trkpt lat="63.729293823" lon="-19.471673965">
<ele>285.085938</ele>
<time>2012-07-26T14:43:57Z</time>
<extensions>
<speed>0.0</speed>
<temp>0.00</temp>
<bpm>0</bpm>
<rpm>0.00</rpm>
</extensions>
</trkpt>
<trkpt lat="63.729293823" lon="-19.471673965">
<ele>285.078125</ele>
<time>2012-07-26T14:44:02Z</time>
<extensions>
<speed>0.0</speed>
<temp>0.00</temp>
<bpm>0</bpm>
<rpm>0.00</rpm>
</extensions>
</trkpt>
<trkpt lat="63.729290009" lon="-19.471673965">
<ele>285.078125</ele>
<time>2012-07-26T14:44:07Z</time>
<speed>0.010000</speed>
<extensions>
<speed>0.0</speed>
<temp>0.00</temp>
<bpm>0</bpm>
<rpm>0.00</rpm>
</extensions>
</trkpt>
<trkpt lat="63.729290009" lon="-19.471673965">
<ele>285.070313</ele>
<time>2012-07-26T14:44:12Z</time>
<speed>0.010000</speed>
<extensions>
<speed>0.0</speed>
<temp>0.00</temp>
<bpm>0</bpm>
<rpm>0.00</rpm>
</extensions>
</trkpt>
<trkpt lat="63.729290009" lon="-19.471673965">
<ele>285.070313</ele>
<time>2012-07-26T14:44:17Z</time>
<extensions>
<speed>0.0</speed>
<temp>0.00</temp>
<bpm>0</bpm>
<rpm>0.00</rpm>
</extensions>
</trkpt>
<trkpt lat="63.729290009" lon="-19.471673965">
<ele>285.062500</ele>
<time>2012-07-26T14:44:22Z</time>
<speed>0.010000</speed>
<extensions>
<speed>0.0</speed>
<temp>0.00</temp>
<bpm>0</bpm>
<rpm>0.00</rpm>
</extensions>
</trkpt>
<trkpt lat="63.729290009" lon="-19.471673965">
<ele>285.062500</ele>
<time>2012-07-26T14:44:27Z</time>
<extensions>
<speed>0.0</speed>
<temp>0.00</temp>
<bpm>0</bpm>
<rpm>0.00</rpm>
</extensions>
</trkpt>
<trkpt lat="63.729290009" lon="-19.471675873">
<ele>285.046875</ele>
<time>2012-07-26T14:44:32Z</time>
<extensions>
<speed>0.0</speed>
<temp>0.00</temp>
<bpm>0</bpm>
<rpm>0.00</rpm>
</extensions>
</trkpt>
<trkpt lat="63.729290009" lon="-19.471675873">
<ele>285.039063</ele>
<time>2012-07-26T14:44:37Z</time>
<extensions>
<speed>0.0</speed>
<temp>0.00</temp>
<bpm>0</bpm>
<rpm>0.00</rpm>
</extensions>
</trkpt>
<trkpt lat="63.729290009" lon="-19.471675873">
<ele>285.039063</ele>
<time>2012-07-26T14:44:42Z</time>
<speed>0.010000</speed>
<extensions>
<speed>0.0</speed>
<temp>0.00</temp>
<bpm>0</bpm>
<rpm>0.00</rpm>
</extensions>
</trkpt>
<trkpt lat="63.729290009" lon="-19.471675873">
<ele>285.039063</ele>
<time>2012-07-26T14:44:47Z</time>
<extensions>
<speed>0.0</speed>
<temp>0.00</temp>
<bpm>0</bpm>
<rpm>0.00</rpm>
</extensions>
</trkpt>
<trkpt lat="63.729290009" lon="-19.471675873">
<ele>285.039063</ele>
<time>2012-07-26T14:44:52Z</time>
<extensions>
<speed>0.0</speed>
<temp>0.00</temp>
<bpm>0</bpm>
<rpm>0.00</rpm>
</extensions>
</trkpt>
<trkpt lat="63.729290009" lon="-19.471675873">
<ele>285.031250</ele>
<time>2012-07-26T14:44:57Z</time>
<extensions>
<speed>0.0</speed>
<temp>0.00</temp>
<bpm>0</bpm>
<rpm>0.00</rpm>
</extensions>
</trkpt>
<trkpt lat="63.729290009" lon="-19.471675873">
<ele>285.023438</ele>
<time>2012-07-26T14:45:02Z</time>
<extensions>
<speed>0.0</speed>
<temp>0.00</temp>
<bpm>0</bpm>
<rpm>0.00</rpm>
</extensions>
</trkpt>
<trkpt lat="63.729290009" lon="-19.471675873">
<ele>285.015625</ele>
<time>2012-07-26T14:45:07Z</time>
<extensions>
<speed>0.0</speed>
<temp>0.00</temp>
<bpm>0</bpm>
<rpm>0.00</rpm>
</extensions>
</trkpt>
<trkpt lat="63.729290009" lon="-19.471675873">
<ele>285.015625</ele>
<time>2012-07-26T14:45:12Z</time>
<extensions>
<speed>0.0</speed>
<temp>0.00</temp>
<bpm>0</bpm>
<rpm>0.00</rpm>
</extensions>
</trkpt>
<trkpt lat="63.729290009" lon="-19.471677780">
<ele>285.023438</ele>
<time>2012-07-26T14:45:17Z</time>
<extensions>
<speed>0.0</speed>
<temp>0.00</temp>
<bpm>0</bpm>
<rpm>0.00</rpm>
</extensions>
</trkpt>
<trkpt lat="63.729290009" lon="-19.471677780">
<ele>285.031250</ele>
<time>2012-07-26T14:45:22Z</time>
<extensions>
<speed>0.0</speed>
<temp>0.00</temp>
<bpm>0</bpm>
<rpm>0.00</rpm>
</extensions>
</trkpt>
<trkpt lat="63.729290009" lon="-19.471677780">
<ele>285.023438</ele>
<time>2012-07-26T14:45:27Z</time>
<extensions>
<speed>0.0</speed>
<temp>0.00</temp>
<bpm>0</bpm>
<rpm>0.00</rpm>
</extensions>
</trkpt>
<trkpt lat="63.729290009" lon="-19.471677780">
<ele>285.023438</ele>
<time>2012-07-26T14:45:32Z</time>
<extensions>
<speed>0.0</speed>
<temp>0.00</temp>
<bpm>0</bpm>
<rpm>0.00</rpm>
</extensions>
</trkpt>
<trkpt lat="63.729290009" lon="-19.471677780">
<ele>285.015625</ele>
<time>2012-07-26T14:45:37Z</time>
<extensions>
<speed>0.0</speed>
<temp>0.00</temp>
<bpm>0</bpm>
<rpm>0.00</rpm>
</extensions>
</trkpt>
<trkpt lat="63.729290009" lon="-19.471677780">
<ele>285.015625</ele>
<time>2012-07-26T14:45:42Z</time>
<extensions>
<speed>0.0</speed>
<temp>0.00</temp>
<bpm>0</bpm>
<rpm>0.00</rpm>
</extensions>
</trkpt>
<trkpt lat="63.729290009" lon="-19.471677780">
<ele>285.015625</ele>
<time>2012-07-26T14:45:47Z</time>
<extensions>
<speed>0.0</speed>
<temp>0.00</temp>
<bpm>0</bpm>
<rpm>0.00</rpm>
</extensions>
</trkpt>
<trkpt lat="63.729290009" lon="-19.471677780">
<ele>285.015625</ele>
<time>2012-07-26T14:45:52Z</time>
<extensions>
<speed>0.0</speed>
<temp>0.00</temp>
<bpm>0</bpm>
<rpm>0.00</rpm>
</extensions>
</trkpt>
<trkpt lat="63.729290009" lon="-19.471679688">
<ele>285.015625</ele>
<time>2012-07-26T14:45:57Z</time>
<extensions>
<speed>0.0</speed>
<temp>0.00</temp>
<bpm>0</bpm>
<rpm>0.00</rpm>
</extensions>
</trkpt>
<trkpt lat="63.729290009" lon="-19.471679688">
<ele>285.015625</ele>
<time>2012-07-26T14:46:02Z</time>
<extensions>
<speed>0.0</speed>
<temp>0.00</temp>
<bpm>0</bpm>
<rpm>0.00</rpm>
</extensions>
</trkpt>
<trkpt lat="63.729290009" lon="-19.471679688">
<ele>285.015625</ele>
<time>2012-07-26T14:46:07Z</time>
<extensions>
<speed>0.0</speed>
<temp>0.00</temp>
<bpm>0</bpm>
<rpm>0.00</rpm>
</extensions>
</trkpt>
<trkpt lat="63.729290009" lon="-19.471679688">
<ele>285.015625</ele>
<time>2012-07-26T14:46:12Z</time>
<extensions>
<speed>0.0</speed>
<temp>0.00</temp>
<bpm>0</bpm>
<rpm>0.00</rpm>
</extensions>
</trkpt>
<trkpt lat="63.729290009" lon="-19.471677780">
<ele>285.007813</ele>
<time>2012-07-26T14:46:17Z</time>
<extensions>
<speed>0.0</speed>
<temp>0.00</temp>
<bpm>0</bpm>
<rpm>0.00</rpm>
</extensions>
</trkpt>
<trkpt lat="63.729290009" lon="-19.471677780">
<ele>285.007813</ele>
<time>2012-07-26T14:46:22Z</time>
<extensions>
<speed>0.0</speed>
<temp>0.00</temp>
<bpm>0</bpm>
<rpm>0.00</rpm>
</extensions>
</trkpt>
<trkpt lat="63.729290009" lon="-19.471677780">
<ele>285.007813</ele>
<time>2012-07-26T14:46:27Z</time>
<extensions>
<speed>0.0</speed>
<temp>0.00</temp>
<bpm>0</bpm>
<rpm>0.00</rpm>
</extensions>
</trkpt>
<trkpt lat="63.729290009" lon="-19.471677780">
<ele>285.007813</ele>
<time>2012-07-26T14:46:32Z</time>
<extensions>
<speed>0.0</speed>
<temp>0.00</temp>
<bpm>0</bpm>
<rpm>0.00</rpm>
</extensions>
</trkpt>
<trkpt lat="63.729290009" lon="-19.471677780">
<ele>285.015625</ele>
<time>2012-07-26T14:46:37Z</time>
<extensions>
<speed>0.0</speed>
<temp>0.00</temp>
<bpm>0</bpm>
<rpm>0.00</rpm>
</extensions>
</trkpt>
<trkpt lat="63.729290009" lon="-19.471677780">
<ele>285.023438</ele>
<time>2012-07-26T14:46:42Z</time>
<extensions>
<speed>0.0</speed>
<temp>0.00</temp>
<bpm>0</bpm>
<rpm>0.00</rpm>
</extensions>
</trkpt>
<trkpt lat="63.729290009" lon="-19.471677780">
<ele>285.023438</ele>
<time>2012-07-26T14:46:47Z</time>
<extensions>
<speed>0.0</speed>
<temp>0.00</temp>
<bpm>0</bpm>
<rpm>0.00</rpm>
</extensions>
</trkpt>
<trkpt lat="63.729290009" lon="-19.471677780">
<ele>285.015625</ele>
<time>2012-07-26T14:46:52Z</time>
<extensions>
<speed>0.0</speed>
<temp>0.00</temp>
<bpm>0</bpm>
<rpm>0.00</rpm>
</extensions>
</trkpt>
<trkpt lat="63.729290009" lon="-19.471677780">
<ele>285.015625</ele>
<time>2012-07-26T14:46:57Z</time>
<extensions>
<speed>0.0</speed>
<temp>0.00</temp>
<bpm>0</bpm>
<rpm>0.00</rpm>
</extensions>
</trkpt>
<trkpt lat="63.729290009" lon="-19.471677780">
<ele>285.015625</ele>
<time>2012-07-26T14:47:02Z</time>
<extensions>
<speed>0.0</speed>
<temp>0.00</temp>
<bpm>0</bpm>
<rpm>0.00</rpm>
</extensions>
</trkpt>
<trkpt lat="63.729290009" lon="-19.471677780">
<ele>285.015625</ele>
<time>2012-07-26T14:47:07Z</time>
<extensions>
<speed>0.0</speed>
<temp>0.00</temp>
<bpm>0</bpm>
<rpm>0.00</rpm>
</extensions>
</trkpt>
<trkpt lat="63.729290009" lon="-19.471677780">
<ele>285.023438</ele>
<time>2012-07-26T14:47:12Z</time>
<extensions>
<speed>0.0</speed>
<temp>0.00</temp>
<bpm>0</bpm>
<rpm>0.00</rpm>
</extensions>
</trkpt>
<trkpt lat="63.729290009" lon="-19.471677780">
<ele>285.023438</ele>
<time>2012-07-26T14:47:17Z</time>
<extensions>
<speed>0.0</speed>
<temp>0.00</temp>
<bpm>0</bpm>
<rpm>0.00</rpm>
</extensions>
</trkpt>
<trkpt lat="63.729290009" lon="-19.471677780">
<ele>285.046875</ele>
<time>2012-07-26T14:47:22Z</time>
<extensions>
<speed>0.0</speed>
<temp>0.00</temp>
<bpm>0</bpm>
<rpm>0.00</rpm>
</extensions>
</trkpt>
<trkpt lat="63.729290009" lon="-19.471677780">
<ele>285.085938</ele>
<time>2012-07-26T14:47:27Z</time>
<extensions>
<speed>0.0</speed>
<temp>0.00</temp>
<bpm>0</bpm>
<rpm>0.00</rpm>
</extensions>
</trkpt>
<trkpt lat="63.729290009" lon="-19.471677780">
<ele>285.093750</ele>
<time>2012-07-26T14:47:32Z</time>
<extensions>
<speed>0.0</speed>
<temp>0.00</temp>
<bpm>0</bpm>
<rpm>0.00</rpm>
</extensions>
</trkpt>
<trkpt lat="63.729290009" lon="-19.471675873">
<ele>285.085938</ele>
<time>2012-07-26T14:47:37Z</time>
<extensions>
<speed>0.0</speed>
<temp>0.00</temp>
<bpm>0</bpm>
<rpm>0.00</rpm>
</extensions>
</trkpt>
<trkpt lat="63.729290009" lon="-19.471675873">
<ele>285.085938</ele>
<time>2012-07-26T14:47:42Z</time>
<extensions>
<speed>0.0</speed>
<temp>0.00</temp>
<bpm>0</bpm>
<rpm>0.00</rpm>
</extensions>
</trkpt>
<trkpt lat="63.729290009" lon="-19.471675873">
<ele>285.046875</ele>
<time>2012-07-26T14:47:47Z</time>
<extensions>
<speed>0.0</speed>
<temp>0.00</temp>
<bpm>0</bpm>
<rpm>0.00</rpm>
</extensions>
</trkpt>
<trkpt lat="63.729290009" lon="-19.471675873">
<ele>285.093750</ele>
<time>2012-07-26T14:47:52Z</time>
<extensions>
<speed>0.0</speed>
<temp>0.00</temp>
<bpm>0</bpm>
<rpm>0.00</rpm>
</extensions>
</trkpt>
<trkpt lat="63.729290009" lon="-19.471675873">
<ele>285.078125</ele>
<time>2012-07-26T14:47:57Z</time>
<speed>0.010000</speed>
<extensions>
<speed>0.0</speed>
<temp>0.00</temp>
<bpm>0</bpm>
<rpm>0.00</rpm>
</extensions>
</trkpt>
<trkpt lat="63.729290009" lon="-19.471675873">
<ele>285.062500</ele>
<time>2012-07-26T14:48:02Z</time>
<extensions>
<speed>0.0</speed>
<temp>0.00</temp>
<bpm>0</bpm>
<rpm>0.00</rpm>
</extensions>
</trkpt>
<trkpt lat="63.729290009" lon="-19.471673965">
<ele>285.000000</ele>
<time>2012-07-26T14:48:07Z</time>
<speed>0.010000</speed>
<extensions>
<speed>0.0</speed>
<temp>0.00</temp>
<bpm>0</bpm>
<rpm>0.00</rpm>
</extensions>
</trkpt>
<trkpt lat="63.729290009" lon="-19.471673965">
<ele>284.929688</ele>
<time>2012-07-26T14:48:12Z</time>
<speed>0.010000</speed>
<extensions>
<speed>0.0</speed>
<temp>0.00</temp>
<bpm>0</bpm>
<rpm>0.00</rpm>
</extensions>
</trkpt>
<trkpt lat="63.729286194" lon="-19.471672058">
<ele>284.781250</ele>
<time>2012-07-26T14:48:17Z</time>
<speed>0.010000</speed>
<extensions>
<speed>0.0</speed>
<temp>0.00</temp>
<bpm>0</bpm>
<rpm>0.00</rpm>
</extensions>
</trkpt>
<trkpt lat="63.729286194" lon="-19.471672058">
<ele>284.585938</ele>
<time>2012-07-26T14:48:22Z</time>
<speed>0.020000</speed>
<extensions>
<speed>0.0</speed>
<temp>0.00</temp>
<bpm>0</bpm>
<rpm>0.00</rpm>
</extensions>
</trkpt>
<trkpt lat="63.729286194" lon="-19.471672058">
<ele>284.320313</ele>
<time>2012-07-26T14:48:27Z</time>
<speed>0.020000</speed>
<extensions>
<speed>0.0</speed>
<temp>0.00</temp>
<bpm>0</bpm>
<rpm>0.00</rpm>
</extensions>
</trkpt>
<trkpt lat="63.729286194" lon="-19.471672058">
<ele>284.007813</ele>
<time>2012-07-26T14:48:32Z</time>
<speed>0.010000</speed>
<extensions>
<speed>0.0</speed>
<temp>0.00</temp>
<bpm>0</bpm>
<rpm>0.00</rpm>
</extensions>
</trkpt>
<trkpt lat="63.729286194" lon="-19.471673965">
<ele>283.718750</ele>
<time>2012-07-26T14:48:37Z</time>
<speed>0.010000</speed>
<extensions>
<speed>0.0</speed>
<temp>0.00</temp>
<bpm>0</bpm>
<rpm>0.00</rpm>
</extensions>
</trkpt>
<trkpt lat="63.729286194" lon="-19.471673965">
<ele>283.437500</ele>
<time>2012-07-26T14:48:42Z</time>
<speed>0.010000</speed>
<extensions>
<speed>0.0</speed>
<temp>0.00</temp>
<bpm>0</bpm>
<rpm>0.00</rpm>
</extensions>
</trkpt>
<trkpt lat="63.729282379" lon="-19.471673965">
<ele>283.195313</ele>
<time>2012-07-26T14:48:47Z</time>
<speed>0.030000</speed>
<extensions>
<speed>0.0</speed>
<temp>0.00</temp>
<bpm>0</bpm>
<rpm>0.00</rpm>
</extensions>
</trkpt>
<trkpt lat="63.729282379" lon="-19.471664429">
<ele>283.078125</ele>
<time>2012-07-26T14:48:52Z</time>
<speed>0.270000</speed>
<extensions>
<speed>0.3</speed>
<temp>0.00</temp>
<bpm>0</bpm>
<rpm>0.00</rpm>
</extensions>
</trkpt>
<trkpt lat="63.729282379" lon="-19.471664429">
<ele>283.007813</ele>
<time>2012-07-26T14:48:57Z</time>
<speed>0.050000</speed>
<extensions>
<speed>0.1</speed>
<temp>0.00</temp>
<bpm>0</bpm>
<rpm>0.00</rpm>
</extensions>
</trkpt>
<trkpt lat="63.729274750" lon="-19.471656799">
<ele>283.039063</ele>
<time>2012-07-26T14:49:02Z</time>
<speed>0.110000</speed>
<extensions>
<speed>0.1</speed>
<temp>0.00</temp>
<bpm>0</bpm>
<rpm>0.00</rpm>
</extensions>
</trkpt>
<trkpt lat="63.729270935" lon="-19.471647263">
<ele>282.906250</ele>
<time>2012-07-26T14:49:07Z</time>
<speed>0.120000</speed>
<extensions>
<speed>0.1</speed>
<temp>0.00</temp>
<bpm>0</bpm>
<rpm>0.00</rpm>
</extensions>
</trkpt>
<trkpt lat="63.729274750" lon="-19.471618652">
<ele>282.773438</ele>
<time>2012-07-26T14:49:12Z</time>
<speed>0.360000</speed>
<extensions>
<speed>0.4</speed>
<temp>0.00</temp>
<bpm>0</bpm>
<rpm>0.00</rpm>
</extensions>
</trkpt>
<trkpt lat="63.729278564" lon="-19.471607208">
<ele>282.562500</ele>
<time>2012-07-26T14:49:17Z</time>
<speed>0.100000</speed>
<extensions>
<speed>0.1</speed>
<temp>0.00</temp>
<bpm>0</bpm>
<rpm>0.00</rpm>
</extensions>
</trkpt>
<trkpt lat="63.729282379" lon="-19.471607208">
<ele>282.562500</ele>
<time>2012-07-26T14:49:22Z</time>
<speed>0.040000</speed>
<extensions>
<speed>0.0</speed>
<temp>0.00</temp>
<bpm>0</bpm>
<rpm>0.00</rpm>
</extensions>
</trkpt>
<trkpt lat="63.729282379" lon="-19.471618652">
<ele>282.453125</ele>
<time>2012-07-26T14:49:27Z</time>
<speed>0.450000</speed>
<extensions>
<speed>0.5</speed>
<temp>0.00</temp>
<bpm>0</bpm>
<rpm>0.00</rpm>
</extensions>
</trkpt>
<trkpt lat="63.729274750" lon="-19.471616745">
<ele>282.406250</ele>
<time>2012-07-26T14:49:32Z</time>
<speed>0.410000</speed>
<extensions>
<speed>0.4</speed>
<temp>0.00</temp>
<bpm>0</bpm>
<rpm>0.00</rpm>
</extensions>
</trkpt>
<trkpt lat="63.729286194" lon="-19.471654892">
<ele>282.726563</ele>
<time>2012-07-26T14:49:37Z</time>
<speed>0.050000</speed>
<extensions>
<speed>0.1</speed>
<temp>0.00</temp>
<bpm>0</bpm>
<rpm>0.00</rpm>
</extensions>
</trkpt>
<trkpt lat="63.729286194" lon="-19.471654892">
<ele>282.734375</ele>
<time>2012-07-26T14:49:42Z</time>
<speed>0.040000</speed>
<extensions>
<speed>0.0</speed>
<temp>0.00</temp>
<bpm>0</bpm>
<rpm>0.00</rpm>
</extensions>
</trkpt>
<trkpt lat="63.729282379" lon="-19.471654892">
<ele>282.726563</ele>
<time>2012-07-26T14:49:47Z</time>
<speed>0.130000</speed>
<extensions>
<speed>0.1</speed>
<temp>0.00</temp>
<bpm>0</bpm>
<rpm>0.00</rpm>
</extensions>
</trkpt>
<trkpt lat="63.729286194" lon="-19.471677780">
<ele>283.062500</ele>
<time>2012-07-26T14:49:52Z</time>
<speed>0.030000</speed>
<extensions>
<speed>0.0</speed>
<temp>0.00</temp>
<bpm>0</bpm>
<rpm>0.00</rpm>
</extensions>
</trkpt>
<trkpt lat="63.729286194" lon="-19.471679688">
<ele>283.085938</ele>
<time>2012-07-26T14:49:57Z</time>
<speed>0.010000</speed>
<extensions>
<speed>0.0</speed>
<temp>0.00</temp>
<bpm>0</bpm>
<rpm>0.00</rpm>
</extensions>
</trkpt>
<trkpt lat="63.729286194" lon="-19.471681595">
<ele>283.101563</ele>
<time>2012-07-26T14:50:02Z</time>
<extensions>
<speed>0.0</speed>
<temp>0.00</temp>
<bpm>0</bpm>
<rpm>0.00</rpm>
</extensions>
</trkpt>
<trkpt lat="63.729286194" lon="-19.471683502">
<ele>283.031250</ele>
<time>2012-07-26T14:50:07Z</time>
<speed>0.060000</speed>
<extensions>
<speed>0.1</speed>
<temp>0.00</temp>
<bpm>0</bpm>
<rpm>0.00</rpm>
</extensions>
</trkpt>
<trkpt lat="63.729274750" lon="-19.471700668">
<ele>281.718750</ele>
<time>2012-07-26T14:50:12Z</time>
<speed>0.590000</speed>
<extensions>
<speed>0.6</speed>
<temp>0.00</temp>
<bpm>0</bpm>
<rpm>0.00</rpm>
</extensions>
</trkpt>
<trkpt lat="63.729267120" lon="-19.471725464">
<ele>281.281250</ele>
<time>2012-07-26T14:50:17Z</time>
<speed>1.270000</speed>
<extensions>
<speed>1.3</speed>
<temp>0.00</temp>
<bpm>0</bpm>
<rpm>0.00</rpm>
</extensions>
</trkpt>
<trkpt lat="63.729263306" lon="-19.471736908">
<ele>281.250000</ele>
<time>2012-07-26T14:50:22Z</time>
<speed>0.020000</speed>
<extensions>
<speed>0.0</speed>
<temp>0.00</temp>
<bpm>0</bpm>
<rpm>0.00</rpm>
</extensions>
</trkpt>
<trkpt lat="63.729263306" lon="-19.471736908">
<ele>281.132813</ele>
<time>2012-07-26T14:50:27Z</time>
<extensions>
<speed>0.0</speed>
<temp>0.00</temp>
<bpm>0</bpm>
<rpm>0.00</rpm>
</extensions>
</trkpt>
<trkpt lat="63.729263306" lon="-19.471735001">
<ele>281.093750</ele>
<time>2012-07-26T14:50:32Z</time>
<speed>0.050000</speed>
<extensions>
<speed>0.1</speed>
<temp>0.00</temp>
<bpm>0</bpm>
<rpm>0.00</rpm>
</extensions>
</trkpt>
<trkpt lat="63.729263306" lon="-19.471735001">
<ele>281.070313</ele>
<time>2012-07-26T14:50:37Z</time>
<extensions>
<speed>0.0</speed>
<temp>0.00</temp>
<bpm>0</bpm>
<rpm>0.00</rpm>
</extensions>
</trkpt>
<trkpt lat="63.729286194" lon="-19.471715927">
<ele>280.953125</ele>
<time>2012-07-26T14:50:42Z</time>
<speed>0.890000</speed>
<extensions>
<speed>0.9</speed>
<temp>0.00</temp>
<bpm>0</bpm>
<rpm>0.00</rpm>
</extensions>
</trkpt>
<trkpt lat="63.729312897" lon="-19.471649170">
<ele>281.453125</ele>
<time>2012-07-26T14:50:47Z</time>
<speed>0.890000</speed>
<extensions>
<speed>0.9</speed>
<temp>0.00</temp>
<bpm>0</bpm>
<rpm>0.00</rpm>
</extensions>
</trkpt>
<trkpt lat="63.729293823" lon="-19.471633911">
<ele>281.179688</ele>
<time>2012-07-26T14:50:52Z</time>
<speed>0.270000</speed>
<extensions>
<speed>0.3</speed>
<temp>0.00</temp>
<bpm>0</bpm>
<rpm>0.00</rpm>
</extensions>
</trkpt>
<trkpt lat="63.729305267" lon="-19.471616745">
<ele>282.023438</ele>
<time>2012-07-26T14:50:57Z</time>
<speed>0.030000</speed>
<extensions>
<speed>0.0</speed>
<temp>0.00</temp>
<bpm>0</bpm>
<rpm>0.00</rpm>
</extensions>
</trkpt>
<trkpt lat="63.729297638" lon="-19.471614838">
<ele>281.992188</ele>
<time>2012-07-26T14:51:02Z</time>
<speed>0.160000</speed>
<extensions>
<speed>0.2</speed>
<temp>0.00</temp>
<bpm>0</bpm>
<rpm>0.00</rpm>
</extensions>
</trkpt>
<trkpt lat="63.729301453" lon="-19.471618652">
<ele>281.992188</ele>
<time>2012-07-26T14:51:07Z</time>
<speed>0.220000</speed>
<extensions>
<speed>0.2</speed>
<temp>0.00</temp>
<bpm>0</bpm>
<rpm>0.00</rpm>
</extensions>
</trkpt>
<trkpt lat="63.729312897" lon="-19.471666336">
<ele>282.148438</ele>
<time>2012-07-26T14:51:12Z</time>
<speed>0.670000</speed>
<extensions>
<speed>0.7</speed>
<temp>0.00</temp>
<bpm>0</bpm>
<rpm>0.00</rpm>
</extensions>
</trkpt>
<trkpt lat="63.729305267" lon="-19.471681595">
<ele>282.640625</ele>
<time>2012-07-26T14:51:17Z</time>
<speed>0.040000</speed>
<extensions>
<speed>0.0</speed>
<temp>0.00</temp>
<bpm>0</bpm>
<rpm>0.00</rpm>
</extensions>
</trkpt>
<trkpt lat="63.729305267" lon="-19.471681595">
<ele>282.570313</ele>
<time>2012-07-26T14:51:22Z</time>
<speed>0.020000</speed>
<extensions>
<speed>0.0</speed>
<temp>0.00</temp>
<bpm>0</bpm>
<rpm>0.00</rpm>
</extensions>
</trkpt>
<trkpt lat="63.729305267" lon="-19.471689224">
<ele>282.523438</ele>
<time>2012-07-26T14:51:27Z</time>
<speed>0.180000</speed>
<extensions>
<speed>0.2</speed>
<temp>0.00</temp>
<bpm>0</bpm>
<rpm>0.00</rpm>
</extensions>
</trkpt>
<trkpt lat="63.729297638" lon="-19.471679688">
<ele>282.515625</ele>
<time>2012-07-26T14:51:32Z</time>
<speed>0.080000</speed>
<extensions>
<speed>0.1</speed>
<temp>0.00</temp>
<bpm>0</bpm>
<rpm>0.00</rpm>
</extensions>
</trkpt>
<trkpt lat="63.729297638" lon="-19.471687317">
<ele>282.437500</ele>
<time>2012-07-26T14:51:37Z</time>
<speed>0.030000</speed>
<extensions>
<speed>0.0</speed>
<temp>0.00</temp>
<bpm>0</bpm>
<rpm>0.00</rpm>
</extensions>
</trkpt>
<trkpt lat="63.729293823" lon="-19.471687317">
<ele>282.250000</ele>
<time>2012-07-26T14:51:42Z</time>
<extensions>
<speed>0.0</speed>
<temp>0.00</temp>
<bpm>0</bpm>
<rpm>0.00</rpm>
</extensions>
</trkpt>
<trkpt lat="63.729297638" lon="-19.471689224">
<ele>281.515625</ele>
<time>2012-07-26T14:51:47Z</time>
<speed>0.010000</speed>
<extensions>
<speed>0.0</speed>
<temp>0.00</temp>
<bpm>0</bpm>
<rpm>0.00</rpm>
</extensions>
</trkpt>
<trkpt lat="63.729293823" lon="-19.471689224">
<ele>281.484375</ele>
<time>2012-07-26T14:51:52Z</time>
<extensions>
<speed>0.0</speed>
<temp>0.00</temp>
<bpm>0</bpm>
<rpm>0.00</rpm>
</extensions>
</trkpt>
<trkpt lat="63.729293823" lon="-19.471689224">
<ele>281.484375</ele>
<time>2012-07-26T14:51:57Z</time>
<speed>0.010000</speed>
<extensions>
<speed>0.0</speed>
<temp>0.00</temp>
<bpm>0</bpm>
<rpm>0.00</rpm>
</extensions>
</trkpt>
<trkpt lat="63.729293823" lon="-19.471689224">
<ele>281.476563</ele>
<time>2012-07-26T14:52:02Z</time>
<speed>0.010000</speed>
<extensions>
<speed>0.0</speed>
<temp>0.00</temp>
<bpm>0</bpm>
<rpm>0.00</rpm>
</extensions>
</trkpt>
<trkpt lat="63.729293823" lon="-19.471689224">
<ele>281.484375</ele>
<time>2012-07-26T14:52:07Z</time>
<speed>0.170000</speed>
<extensions>
<speed>0.2</speed>
<temp>0.00</temp>
<bpm>0</bpm>
<rpm>0.00</rpm>
</extensions>
</trkpt>
<trkpt lat="63.729259491" lon="-19.471870422">
<ele>281.320313</ele>
<time>2012-07-26T14:52:12Z</time>
<speed>2.480000</speed>
<extensions>
<speed>2.5</speed>
<temp>0.00</temp>
<bpm>0</bpm>
<rpm>0.00</rpm>
</extensions>
</trkpt>
<trkpt lat="63.729202271" lon="-19.472110748">
<ele>281.000000</ele>
<time>2012-07-26T14:52:17Z</time>
<speed>3.210000</speed>
<extensions>
<speed>3.2</speed>
<temp>0.00</temp>
<bpm>0</bpm>
<rpm>0.00</rpm>
</extensions>
</trkpt>
<trkpt lat="63.729114532" lon="-19.472446442">
<ele>280.671875</ele>
<time>2012-07-26T14:52:22Z</time>
<speed>3.520000</speed>
<extensions>
<speed>3.5</speed>
<temp>0.00</temp>
<bpm>0</bpm>
<rpm>0.00</rpm>
</extensions>
</trkpt>
<trkpt lat="63.729042053" lon="-19.472700119">
<ele>279.671875</ele>
<time>2012-07-26T14:52:27Z</time>
<speed>2.750000</speed>
<extensions>
<speed>2.7</speed>
<temp>0.00</temp>
<bpm>0</bpm>
<rpm>0.00</rpm>
</extensions>
</trkpt>
<trkpt lat="63.728961945" lon="-19.472970963">
<ele>279.882813</ele>
<time>2012-07-26T14:52:32Z</time>
<speed>3.160000</speed>
<extensions>
<speed>3.2</speed>
<temp>0.00</temp>
<bpm>0</bpm>
<rpm>0.00</rpm>
</extensions>
</trkpt>
<trkpt lat="63.728893280" lon="-19.473258972">
<ele>282.578125</ele>
<time>2012-07-26T14:52:37Z</time>
<speed>3.140000</speed>
<extensions>
<speed>3.1</speed>
<temp>0.00</temp>
<bpm>0</bpm>
<rpm>0.00</rpm>
</extensions>
</trkpt>
<trkpt lat="63.728824615" lon="-19.473503113">
<ele>284.414063</ele>
<time>2012-07-26T14:52:42Z</time>
<speed>2.350000</speed>
<extensions>
<speed>2.4</speed>
<temp>0.00</temp>
<bpm>0</bpm>
<rpm>0.00</rpm>
</extensions>
</trkpt>
<trkpt lat="63.728740692" lon="-19.473749161">
<ele>285.625000</ele>
<time>2012-07-26T14:52:47Z</time>
<speed>3.290000</speed>
<extensions>
<speed>3.3</speed>
<temp>0.00</temp>
<bpm>0</bpm>
<rpm>0.00</rpm>
</extensions>
</trkpt>
<trkpt lat="63.728641510" lon="-19.474016190">
<ele>286.226563</ele>
<time>2012-07-26T14:52:52Z</time>
<speed>3.550000</speed>
<extensions>
<speed>3.5</speed>
<temp>0.00</temp>
<bpm>0</bpm>
<rpm>0.00</rpm>
</extensions>
</trkpt>
<trkpt lat="63.728553772" lon="-19.474267960">
<ele>285.898438</ele>
<time>2012-07-26T14:52:57Z</time>
<speed>2.810000</speed>
<extensions>
<speed>2.8</speed>
<temp>0.00</temp>
<bpm>0</bpm>
<rpm>0.00</rpm>
</extensions>
</trkpt>
<trkpt lat="63.728473663" lon="-19.474483490">
<ele>286.164063</ele>
<time>2012-07-26T14:53:02Z</time>
<speed>3.150000</speed>
<extensions>
<speed>3.2</speed>
<temp>0.00</temp>
<bpm>0</bpm>
<rpm>0.00</rpm>
</extensions>
</trkpt>
<trkpt lat="63.728408813" lon="-19.474637985">
<ele>286.281250</ele>
<time>2012-07-26T14:53:07Z</time>
<speed>1.340000</speed>
<extensions>
<speed>1.3</speed>
<temp>0.00</temp>
<bpm>0</bpm>
<rpm>0.00</rpm>
</extensions>
</trkpt>
<trkpt lat="63.728343964" lon="-19.474819183">
<ele>284.820313</ele>
<time>2012-07-26T14:53:12Z</time>
<speed>2.730000</speed>
<extensions>
<speed>2.7</speed>
<temp>0.00</temp>
<bpm>0</bpm>
<rpm>0.00</rpm>
</extensions>
</trkpt>
<trkpt lat="63.728263855" lon="-19.475070953">
<ele>284.265625</ele>
<time>2012-07-26T14:53:17Z</time>
<speed>2.750000</speed>
<extensions>
<speed>2.7</speed>
<temp>0.00</temp>
<bpm>0</bpm>
<rpm>0.00</rpm>
</extensions>
</trkpt>
<trkpt lat="63.728195190" lon="-19.475286484">
<ele>284.328125</ele>
<time>2012-07-26T14:53:22Z</time>
<speed>2.860000</speed>
<extensions>
<speed>2.9</speed>
<temp>0.00</temp>
<bpm>0</bpm>
<rpm>0.00</rpm>
</extensions>
</trkpt>
<trkpt lat="63.728096008" lon="-19.475542068">
<ele>284.718750</ele>
<time>2012-07-26T14:53:27Z</time>
<speed>2.860000</speed>
<extensions>
<speed>2.9</speed>
<temp>0.00</temp>
<bpm>0</bpm>
<rpm>0.00</rpm>
</extensions>
</trkpt>
<trkpt lat="63.728015900" lon="-19.475740433">
<ele>283.718750</ele>
<time>2012-07-26T14:53:32Z</time>
<speed>2.690000</speed>
<extensions>
<speed>2.7</speed>
<temp>0.00</temp>
<bpm>0</bpm>
<rpm>0.00</rpm>
</extensions>
</trkpt>
<trkpt lat="63.727928162" lon="-19.475938797">
<ele>283.304688</ele>
<time>2012-07-26T14:53:37Z</time>
<speed>2.650000</speed>
<extensions>
<speed>2.6</speed>
<temp>0.00</temp>
<bpm>0</bpm>
<rpm>0.00</rpm>
</extensions>
</trkpt>
<trkpt lat="63.727859497" lon="-19.476150513">
<ele>282.320313</ele>
<time>2012-07-26T14:53:42Z</time>
<speed>2.420000</speed>
<extensions>
<speed>2.4</speed>
<temp>0.00</temp>
<bpm>0</bpm>
<rpm>0.00</rpm>
</extensions>
</trkpt>
<trkpt lat="63.727809906" lon="-19.476278305">
<ele>281.664063</ele>
<time>2012-07-26T14:53:47Z</time>
<speed>2.070000</speed>
<extensions>
<speed>2.1</speed>
<temp>0.00</temp>
<bpm>0</bpm>
<rpm>0.00</rpm>
</extensions>
</trkpt>
<trkpt lat="63.727741241" lon="-19.476467133">
<ele>281.695313</ele>
<time>2012-07-26T14:53:52Z</time>
<speed>2.650000</speed>
<extensions>
<speed>2.6</speed>
<temp>0.00</temp>
<bpm>0</bpm>
<rpm>0.00</rpm>
</extensions>
</trkpt>
<trkpt lat="63.727649689" lon="-19.476709366">
<ele>281.468750</ele>
<time>2012-07-26T14:53:57Z</time>
<speed>3.000000</speed>
<extensions>
<speed>3.0</speed>
<temp>0.00</temp>
<bpm>0</bpm>
<rpm>0.00</rpm>
</extensions>
</trkpt>
<trkpt lat="63.727577209" lon="-19.476961136">
<ele>281.101563</ele>
<time>2012-07-26T14:54:02Z</time>
<speed>2.910000</speed>
<extensions>
<speed>2.9</speed>
<temp>0.00</temp>
<bpm>0</bpm>
<rpm>0.00</rpm>
</extensions>
</trkpt>
<trkpt lat="63.727493286" lon="-19.477153778">
<ele>279.531250</ele>
<time>2012-07-26T14:54:07Z</time>
<speed>2.760000</speed>
<extensions>
<speed>2.8</speed>
<temp>0.00</temp>
<bpm>0</bpm>
<rpm>0.00</rpm>
</extensions>
</trkpt>
<trkpt lat="63.727416992" lon="-19.477367401">
<ele>278.578125</ele>
<time>2012-07-26T14:54:12Z</time>
<speed>2.750000</speed>
<extensions>
<speed>2.7</speed>
<temp>0.00</temp>
<bpm>0</bpm>
<rpm>0.00</rpm>
</extensions>
</trkpt>
<trkpt lat="63.727329254" lon="-19.477603912">
<ele>278.453125</ele>
<time>2012-07-26T14:54:17Z</time>
<speed>3.080000</speed>
<extensions>
<speed>3.1</speed>
<temp>0.00</temp>
<bpm>0</bpm>
<rpm>0.00</rpm>
</extensions>
</trkpt>
<trkpt lat="63.727237701" lon="-19.477903366">
<ele>278.523438</ele>
<time>2012-07-26T14:54:22Z</time>
<speed>3.890000</speed>
<extensions>
<speed>3.9</speed>
<temp>0.00</temp>
<bpm>0</bpm>
<rpm>0.00</rpm>
</extensions>
</trkpt>
<trkpt lat="63.727169037" lon="-19.478229523">
<ele>278.414063</ele>
<time>2012-07-26T14:54:27Z</time>
<speed>3.340000</speed>
<extensions>
<speed>3.3</speed>
<temp>0.00</temp>
<bpm>0</bpm>
<rpm>0.00</rpm>
</extensions>
</trkpt>
<trkpt lat="63.727104187" lon="-19.478561401">
<ele>279.804688</ele>
<time>2012-07-26T14:54:32Z</time>
<speed>3.630000</speed>
<extensions>
<speed>3.6</speed>
<temp>0.00</temp>
<bpm>0</bpm>
<rpm>0.00</rpm>
</extensions>
</trkpt>
<trkpt lat="63.727046967" lon="-19.478899002">
<ele>279.500000</ele>
<time>2012-07-26T14:54:37Z</time>
<speed>3.810000</speed>
<extensions>
<speed>3.8</speed>
<temp>0.00</temp>
<bpm>0</bpm>
<rpm>0.00</rpm>
</extensions>
</trkpt>
<trkpt lat="63.726989746" lon="-19.479282379">
<ele>278.304688</ele>
<time>2012-07-26T14:54:42Z</time>
<speed>3.870000</speed>
<extensions>
<speed>3.9</speed>
<temp>0.00</temp>
<bpm>0</bpm>
<rpm>0.00</rpm>
</extensions>
</trkpt>
<trkpt lat="63.726924896" lon="-19.479619980">
<ele>277.929688</ele>
<time>2012-07-26T14:54:47Z</time>
<speed>3.200000</speed>
<extensions>
<speed>3.2</speed>
<temp>0.00</temp>
<bpm>0</bpm>
<rpm>0.00</rpm>
</extensions>
</trkpt>
<trkpt lat="63.726867676" lon="-19.479944229">
<ele>278.101563</ele>
<time>2012-07-26T14:54:52Z</time>
<speed>3.560000</speed>
<extensions>
<speed>3.6</speed>
<temp>0.00</temp>
<bpm>0</bpm>
<rpm>0.00</rpm>
</extensions>
</trkpt>
<trkpt lat="63.726829529" lon="-19.480297089">
<ele>278.570313</ele>
<time>2012-07-26T14:54:57Z</time>
<speed>2.880000</speed>
<extensions>
<speed>2.9</speed>
<temp>0.00</temp>
<bpm>0</bpm>
<rpm>0.00</rpm>
</extensions>
</trkpt>
<trkpt lat="63.726776123" lon="-19.480554581">
<ele>279.007813</ele>
<time>2012-07-26T14:55:02Z</time>
<speed>3.030000</speed>
<extensions>
<speed>3.0</speed>
<temp>0.00</temp>
<bpm>0</bpm>
<rpm>0.00</rpm>
</extensions>
</trkpt>
<trkpt lat="63.726726532" lon="-19.480873108">
<ele>277.937500</ele>
<time>2012-07-26T14:55:07Z</time>
<speed>3.450000</speed>
<extensions>
<speed>3.5</speed>
<temp>0.00</temp>
<bpm>0</bpm>
<rpm>0.00</rpm>
</extensions>
</trkpt>
<trkpt lat="63.726673126" lon="-19.481218338">
<ele>277.265625</ele>
<time>2012-07-26T14:55:12Z</time>
<speed>3.640000</speed>
<extensions>
<speed>3.6</speed>
<temp>0.00</temp>
<bpm>0</bpm>
<rpm>0.00</rpm>
</extensions>
</trkpt>
<trkpt lat="63.726623535" lon="-19.481559753">
<ele>276.843750</ele>
<time>2012-07-26T14:55:17Z</time>
<speed>3.660000</speed>
<extensions>
<speed>3.7</speed>
<temp>0.00</temp>
<bpm>0</bpm>
<rpm>0.00</rpm>
</extensions>
</trkpt>
<trkpt lat="63.726570129" lon="-19.481880188">
<ele>276.531250</ele>
<time>2012-07-26T14:55:22Z</time>
<speed>3.830000</speed>
<extensions>
<speed>3.8</speed>
<temp>0.00</temp>
<bpm>0</bpm>
<rpm>0.00</rpm>
</extensions>
</trkpt>
<trkpt lat="63.726509094" lon="-19.482242584">
<ele>277.281250</ele>
<time>2012-07-26T14:55:27Z</time>
<speed>3.720000</speed>
<extensions>
<speed>3.7</speed>
<temp>0.00</temp>
<bpm>0</bpm>
<rpm>0.00</rpm>
</extensions>
</trkpt>
<trkpt lat="63.726451874" lon="-19.482606888">
<ele>276.148438</ele>
<time>2012-07-26T14:55:32Z</time>
<speed>3.740000</speed>
<extensions>
<speed>3.7</speed>
<temp>0.00</temp>
<bpm>0</bpm>
<rpm>0.00</rpm>
</extensions>
</trkpt>
<trkpt lat="63.726398468" lon="-19.482929230">
<ele>275.718750</ele>
<time>2012-07-26T14:55:37Z</time>
<speed>3.190000</speed>
<extensions>
<speed>3.2</speed>
<temp>0.00</temp>
<bpm>0</bpm>
<rpm>0.00</rpm>
</extensions>
</trkpt>
<trkpt lat="63.726348877" lon="-19.483247757">
<ele>275.554688</ele>
<time>2012-07-26T14:55:42Z</time>
<speed>3.320000</speed>
<extensions>
<speed>3.3</speed>
<temp>0.00</temp>
<bpm>0</bpm>
<rpm>0.00</rpm>
</extensions>
</trkpt>
<trkpt lat="63.726306915" lon="-19.483562469">
<ele>275.484375</ele>
<time>2012-07-26T14:55:47Z</time>
<speed>3.340000</speed>
<extensions>
<speed>3.3</speed>
<temp>0.00</temp>
<bpm>0</bpm>
<rpm>0.00</rpm>
</extensions>
</trkpt>
<trkpt lat="63.726242065" lon="-19.483907700">
<ele>274.453125</ele>
<time>2012-07-26T14:55:52Z</time>
<speed>3.460000</speed>
<extensions>
<speed>3.5</speed>
<temp>0.00</temp>
<bpm>0</bpm>
<rpm>0.00</rpm>
</extensions>
</trkpt>
<trkpt lat="63.726200104" lon="-19.484195709">
<ele>275.320313</ele>
<time>2012-07-26T14:55:57Z</time>
<speed>2.580000</speed>
<extensions>
<speed>2.6</speed>
<temp>0.00</temp>
<bpm>0</bpm>
<rpm>0.00</rpm>
</extensions>
</trkpt>
<trkpt lat="63.726146698" lon="-19.484474182">
<ele>275.140625</ele>
<time>2012-07-26T14:56:02Z</time>
<speed>3.210000</speed>
<extensions>
<speed>3.2</speed>
<temp>0.00</temp>
<bpm>0</bpm>
<rpm>0.00</rpm>
</extensions>
</trkpt>
<trkpt lat="63.726093292" lon="-19.484756470">
<ele>275.468750</ele>
<time>2012-07-26T14:56:07Z</time>
<speed>3.330000</speed>
<extensions>
<speed>3.3</speed>
<temp>0.00</temp>
<bpm>0</bpm>
<rpm>0.00</rpm>
</extensions>
</trkpt>
<trkpt lat="63.726043701" lon="-19.485073090">
<ele>275.507813</ele>
<time>2012-07-26T14:56:12Z</time>
<speed>3.180000</speed>
<extensions>
<speed>3.2</speed>
<temp>0.00</temp>
<bpm>0</bpm>
<rpm>0.00</rpm>
</extensions>
</trkpt>
<trkpt lat="63.726001740" lon="-19.485372543">
<ele>276.593750</ele>
<time>2012-07-26T14:56:17Z</time>
<speed>3.320000</speed>
<extensions>
<speed>3.3</speed>
<temp>0.00</temp>
<bpm>0</bpm>
<rpm>0.00</rpm>
</extensions>
</trkpt>
<trkpt lat="63.725948334" lon="-19.485645294">
<ele>277.320313</ele>
<time>2012-07-26T14:56:22Z</time>
<speed>2.940000</speed>
<extensions>
<speed>2.9</speed>
<temp>0.00</temp>
<bpm>0</bpm>
<rpm>0.00</rpm>
</extensions>
</trkpt>
<trkpt lat="63.725910187" lon="-19.485954285">
<ele>277.929688</ele>
<time>2012-07-26T14:56:27Z</time>
<speed>3.280000</speed>
<extensions>
<speed>3.3</speed>
<temp>0.00</temp>
<bpm>0</bpm>
<rpm>0.00</rpm>
</extensions>
</trkpt>
<trkpt lat="63.725860596" lon="-19.486274719">
<ele>277.742188</ele>
<time>2012-07-26T14:56:32Z</time>
<speed>3.200000</speed>
<extensions>
<speed>3.2</speed>
<temp>0.00</temp>
<bpm>0</bpm>
<rpm>0.00</rpm>
</extensions>
</trkpt>
<trkpt lat="63.725822449" lon="-19.486650467">
<ele>275.148438</ele>
<time>2012-07-26T14:56:37Z</time>
<speed>3.460000</speed>
<extensions>
<speed>3.5</speed>
<temp>0.00</temp>
<bpm>0</bpm>
<rpm>0.00</rpm>
</extensions>
</trkpt>
<trkpt lat="63.725795746" lon="-19.486921310">
<ele>275.609375</ele>
<time>2012-07-26T14:56:42Z</time>
<speed>2.520000</speed>
<extensions>
<speed>2.5</speed>
<temp>0.00</temp>
<bpm>0</bpm>
<rpm>0.00</rpm>
</extensions>
</trkpt>
<trkpt lat="63.725791931" lon="-19.487245560">
<ele>276.117188</ele>
<time>2012-07-26T14:56:47Z</time>
<speed>3.330000</speed>
<extensions>
<speed>3.3</speed>
<temp>0.00</temp>
<bpm>0</bpm>
<rpm>0.00</rpm>
</extensions>
</trkpt>
<trkpt lat="63.725799561" lon="-19.487535477">
<ele>277.015625</ele>
<time>2012-07-26T14:56:52Z</time>
<speed>3.140000</speed>
<extensions>
<speed>3.1</speed>
<temp>0.00</temp>
<bpm>0</bpm>
<rpm>0.00</rpm>
</extensions>
</trkpt>
<trkpt lat="63.725841522" lon="-19.487871170">
<ele>277.882813</ele>
<time>2012-07-26T14:56:57Z</time>
<speed>3.970000</speed>
<extensions>
<speed>4.0</speed>
<temp>0.00</temp>
<bpm>0</bpm>
<rpm>0.00</rpm>
</extensions>
</trkpt>
<trkpt lat="63.725799561" lon="-19.488298416">
<ele>277.570313</ele>
<time>2012-07-26T14:57:02Z</time>
<speed>4.720000</speed>
<extensions>
<speed>4.7</speed>
<temp>0.00</temp>
<bpm>0</bpm>
<rpm>0.00</rpm>
</extensions>
</trkpt>
<trkpt lat="63.725688934" lon="-19.488800049">
<ele>276.531250</ele>
<time>2012-07-26T14:57:07Z</time>
<speed>6.330000</speed>
<extensions>
<speed>6.3</speed>
<temp>0.00</temp>
<bpm>0</bpm>
<rpm>0.00</rpm>
</extensions>
</trkpt>
<trkpt lat="63.725528717" lon="-19.489295959">
<ele>276.250000</ele>
<time>2012-07-26T14:57:12Z</time>
<speed>5.650000</speed>
<extensions>
<speed>5.7</speed>
<temp>0.00</temp>
<bpm>0</bpm>
<rpm>0.00</rpm>
</extensions>
</trkpt>
<trkpt lat="63.725387573" lon="-19.489706039">
<ele>276.335938</ele>
<time>2012-07-26T14:57:17Z</time>
<speed>4.550000</speed>
<extensions>
<speed>4.5</speed>
<temp>0.00</temp>
<bpm>0</bpm>
<rpm>0.00</rpm>
</extensions>
</trkpt>
<trkpt lat="63.725265503" lon="-19.489976883">
<ele>276.078125</ele>
<time>2012-07-26T14:57:22Z</time>
<speed>3.760000</speed>
<extensions>
<speed>3.8</speed>
<temp>0.00</temp>
<bpm>0</bpm>
<rpm>0.00</rpm>
</extensions>
</trkpt>
<trkpt lat="63.725139618" lon="-19.490209579">
<ele>276.296875</ele>
<time>2012-07-26T14:57:27Z</time>
<speed>3.500000</speed>
<extensions>
<speed>3.5</speed>
<temp>0.00</temp>
<bpm>0</bpm>
<rpm>0.00</rpm>
</extensions>
</trkpt>
<trkpt lat="63.725009918" lon="-19.490476608">
<ele>276.187500</ele>
<time>2012-07-26T14:57:32Z</time>
<speed>3.770000</speed>
<extensions>
<speed>3.8</speed>
<temp>0.00</temp>
<bpm>0</bpm>
<rpm>0.00</rpm>
</extensions>
</trkpt>
<trkpt lat="63.724891663" lon="-19.490730286">
<ele>277.039063</ele>
<time>2012-07-26T14:57:37Z</time>
<speed>3.560000</speed>
<extensions>
<speed>3.6</speed>
<temp>0.00</temp>
<bpm>0</bpm>
<rpm>0.00</rpm>
</extensions>
</trkpt>
<trkpt lat="63.724773407" lon="-19.490999222">
<ele>277.632813</ele>
<time>2012-07-26T14:57:42Z</time>
<speed>4.140000</speed>
<extensions>
<speed>4.1</speed>
<temp>0.00</temp>
<bpm>0</bpm>
<rpm>0.00</rpm>
</extensions>
</trkpt>
<trkpt lat="63.724658966" lon="-19.491270065">
<ele>279.578125</ele>
<time>2012-07-26T14:57:47Z</time>
<speed>3.850000</speed>
<extensions>
<speed>3.8</speed>
<temp>0.00</temp>
<bpm>0</bpm>
<rpm>0.00</rpm>
</extensions>
</trkpt>
<trkpt lat="63.724533081" lon="-19.491596222">
<ele>278.187500</ele>
<time>2012-07-26T14:57:52Z</time>
<speed>4.350000</speed>
<extensions>
<speed>4.3</speed>
<temp>0.00</temp>
<bpm>0</bpm>
<rpm>0.00</rpm>
</extensions>
</trkpt>
<trkpt lat="63.724430084" lon="-19.491899490">
<ele>278.015625</ele>
<time>2012-07-26T14:57:57Z</time>
<speed>3.400000</speed>
<extensions>
<speed>3.4</speed>
<temp>0.00</temp>
<bpm>0</bpm>
<rpm>0.00</rpm>
</extensions>
</trkpt>
<trkpt lat="63.724365234" lon="-19.492158890">
<ele>276.757813</ele>
<time>2012-07-26T14:58:02Z</time>
<speed>3.030000</speed>
<extensions>
<speed>3.0</speed>
<temp>0.00</temp>
<bpm>0</bpm>
<rpm>0.00</rpm>
</extensions>
</trkpt>
<trkpt lat="63.724300385" lon="-19.492395401">
<ele>275.820313</ele>
<time>2012-07-26T14:58:07Z</time>
<speed>2.810000</speed>
<extensions>
<speed>2.8</speed>
<temp>0.00</temp>
<bpm>0</bpm>
<rpm>0.00</rpm>
</extensions>
</trkpt>
<trkpt lat="63.724235535" lon="-19.492616653">
<ele>275.304688</ele>
<time>2012-07-26T14:58:12Z</time>
<speed>2.490000</speed>
<extensions>
<speed>2.5</speed>
<temp>0.00</temp>
<bpm>0</bpm>
<rpm>0.00</rpm>
</extensions>
</trkpt>
<trkpt lat="63.724155426" lon="-19.492782593">
<ele>274.187500</ele>
<time>2012-07-26T14:58:17Z</time>
<speed>2.700000</speed>
<extensions>
<speed>2.7</speed>
<temp>0.00</temp>
<bpm>0</bpm>
<rpm>0.00</rpm>
</extensions>
</trkpt>
<trkpt lat="63.724052429" lon="-19.492986679">
<ele>272.562500</ele>
<time>2012-07-26T14:58:22Z</time>
<speed>3.530000</speed>
<extensions>
<speed>3.5</speed>
<temp>0.00</temp>
<bpm>0</bpm>
<rpm>0.00</rpm>
</extensions>
</trkpt>
<trkpt lat="63.723911285" lon="-19.493247986">
<ele>273.335938</ele>
<time>2012-07-26T14:58:27Z</time>
<speed>4.480000</speed>
<extensions>
<speed>4.5</speed>
<temp>0.00</temp>
<bpm>0</bpm>
<rpm>0.00</rpm>
</extensions>
</trkpt>
<trkpt lat="63.723751068" lon="-19.493564606">
<ele>273.234375</ele>
<time>2012-07-26T14:58:32Z</time>
<speed>4.910000</speed>
<extensions>
<speed>4.9</speed>
<temp>0.00</temp>
<bpm>0</bpm>
<rpm>0.00</rpm>
</extensions>
</trkpt>
<trkpt lat="63.723594666" lon="-19.493919373">
<ele>272.578125</ele>
<time>2012-07-26T14:58:37Z</time>
<speed>4.850000</speed>
<extensions>
<speed>4.8</speed>
<temp>0.00</temp>
<bpm>0</bpm>
<rpm>0.00</rpm>
</extensions>
</trkpt>
<trkpt lat="63.723434448" lon="-19.494247437">
<ele>273.140625</ele>
<time>2012-07-26T14:58:42Z</time>
<speed>4.480000</speed>
<extensions>
<speed>4.5</speed>
<temp>0.00</temp>
<bpm>0</bpm>
<rpm>0.00</rpm>
</extensions>
</trkpt>
<trkpt lat="63.723289490" lon="-19.494533539">
<ele>272.085938</ele>
<time>2012-07-26T14:58:47Z</time>
<speed>4.090000</speed>
<extensions>
<speed>4.1</speed>
<temp>0.00</temp>
<bpm>0</bpm>
<rpm>0.00</rpm>
</extensions>
</trkpt>
<trkpt lat="63.723171234" lon="-19.494789124">
<ele>270.039063</ele>
<time>2012-07-26T14:58:52Z</time>
<speed>3.200000</speed>
<extensions>
<speed>3.2</speed>
<temp>0.00</temp>
<bpm>0</bpm>
<rpm>0.00</rpm>
</extensions>
</trkpt>
<trkpt lat="63.723068237" lon="-19.494983673">
<ele>268.437500</ele>
<time>2012-07-26T14:58:57Z</time>
<speed>2.640000</speed>
<extensions>
<speed>2.6</speed>
<temp>0.00</temp>
<bpm>0</bpm>
<rpm>0.00</rpm>
</extensions>
</trkpt>
<trkpt lat="63.722972870" lon="-19.495241165">
<ele>269.484375</ele>
<time>2012-07-26T14:59:02Z</time>
<speed>3.700000</speed>
<extensions>
<speed>3.7</speed>
<temp>0.00</temp>
<bpm>0</bpm>
<rpm>0.00</rpm>
</extensions>
</trkpt>
<trkpt lat="63.722854614" lon="-19.495481491">
<ele>270.523438</ele>
<time>2012-07-26T14:59:07Z</time>
<speed>3.700000</speed>
<extensions>
<speed>3.7</speed>
<temp>0.00</temp>
<bpm>0</bpm>
<rpm>0.00</rpm>
</extensions>
</trkpt>
<trkpt lat="63.722724915" lon="-19.495727539">
<ele>273.101563</ele>
<time>2012-07-26T14:59:12Z</time>
<speed>3.850000</speed>
<extensions>
<speed>3.8</speed>
<temp>0.00</temp>
<bpm>0</bpm>
<rpm>0.00</rpm>
</extensions>
</trkpt>
<trkpt lat="63.722599030" lon="-19.495962143">
<ele>274.671875</ele>
<time>2012-07-26T14:59:17Z</time>
<speed>3.650000</speed>
<extensions>
<speed>3.7</speed>
<temp>0.00</temp>
<bpm>0</bpm>
<rpm>0.00</rpm>
</extensions>
</trkpt>
<trkpt lat="63.722492218" lon="-19.496141434">
<ele>275.890625</ele>
<time>2012-07-26T14:59:22Z</time>
<speed>3.140000</speed>
<extensions>
<speed>3.1</speed>
<temp>0.00</temp>
<bpm>0</bpm>
<rpm>0.00</rpm>
</extensions>
</trkpt>
<trkpt lat="63.722370148" lon="-19.496337891">
<ele>273.093750</ele>
<time>2012-07-26T14:59:27Z</time>
<speed>3.230000</speed>
<extensions>
<speed>3.2</speed>
<temp>0.00</temp>
<bpm>0</bpm>
<rpm>0.00</rpm>
</extensions>
</trkpt>
<trkpt lat="63.722259521" lon="-19.496553421">
<ele>271.757813</ele>
<time>2012-07-26T14:59:32Z</time>
<speed>3.260000</speed>
<extensions>
<speed>3.3</speed>
<temp>0.00</temp>
<bpm>0</bpm>
<rpm>0.00</rpm>
</extensions>
</trkpt>
<trkpt lat="63.722156525" lon="-19.496812820">
<ele>271.281250</ele>
<time>2012-07-26T14:59:37Z</time>
<speed>3.580000</speed>
<extensions>
<speed>3.6</speed>
<temp>0.00</temp>
<bpm>0</bpm>
<rpm>0.00</rpm>
</extensions>
</trkpt>
<trkpt lat="63.722042084" lon="-19.497100830">
<ele>270.265625</ele>
<time>2012-07-26T14:59:42Z</time>
<speed>3.850000</speed>
<extensions>
<speed>3.8</speed>
<temp>0.00</temp>
<bpm>0</bpm>
<rpm>0.00</rpm>
</extensions>
</trkpt>
<trkpt lat="63.721923828" lon="-19.497377396">
<ele>270.921875</ele>
<time>2012-07-26T14:59:47Z</time>
<speed>3.770000</speed>
<extensions>
<speed>3.8</speed>
<temp>0.00</temp>
<bpm>0</bpm>
<rpm>0.00</rpm>
</extensions>
</trkpt>
<trkpt lat="63.721805573" lon="-19.497625351">
<ele>270.226563</ele>
<time>2012-07-26T14:59:52Z</time>
<speed>4.160000</speed>
<extensions>
<speed>4.2</speed>
<temp>0.00</temp>
<bpm>0</bpm>
<rpm>0.00</rpm>
</extensions>
</trkpt>
<trkpt lat="63.721645355" lon="-19.497940063">
<ele>269.867188</ele>
<time>2012-07-26T14:59:57Z</time>
<speed>5.070000</speed>
<extensions>
<speed>5.1</speed>
<temp>0.00</temp>
<bpm>0</bpm>
<rpm>0.00</rpm>
</extensions>
</trkpt>
<trkpt lat="63.721485138" lon="-19.498323441">
<ele>270.890625</ele>
<time>2012-07-26T15:00:02Z</time>
<speed>5.190000</speed>
<extensions>
<speed>5.2</speed>
<temp>0.00</temp>
<bpm>0</bpm>
<rpm>0.00</rpm>
</extensions>
</trkpt>
<trkpt lat="63.721366882" lon="-19.498762131">
<ele>268.648438</ele>
<time>2012-07-26T15:00:07Z</time>
<speed>5.050000</speed>
<extensions>
<speed>5.1</speed>
<temp>0.00</temp>
<bpm>0</bpm>
<rpm>0.00</rpm>
</extensions>
</trkpt>
<trkpt lat="63.721279144" lon="-19.499183655">
<ele>265.281250</ele>
<time>2012-07-26T15:00:12Z</time>
<speed>4.960000</speed>
<extensions>
<speed>5.0</speed>
<temp>0.00</temp>
<bpm>0</bpm>
<rpm>0.00</rpm>
</extensions>
</trkpt>
<trkpt lat="63.721191406" lon="-19.499608994">
<ele>262.101563</ele>
<time>2012-07-26T15:00:17Z</time>
<speed>3.650000</speed>
<extensions>
<speed>3.7</speed>
<temp>0.00</temp>
<bpm>0</bpm>
<rpm>0.00</rpm>
</extensions>
</trkpt>
<trkpt lat="63.721111298" lon="-19.499959946">
<ele>259.171875</ele>
<time>2012-07-26T15:00:22Z</time>
<speed>4.270000</speed>
<extensions>
<speed>4.3</speed>
<temp>0.00</temp>
<bpm>0</bpm>
<rpm>0.00</rpm>
</extensions>
</trkpt>
<trkpt lat="63.720989227" lon="-19.500400543">
<ele>255.398438</ele>
<time>2012-07-26T15:00:27Z</time>
<speed>6.600000</speed>
<extensions>
<speed>6.6</speed>
<temp>0.00</temp>
<bpm>0</bpm>
<rpm>0.00</rpm>
</extensions>
</trkpt>
<trkpt lat="63.720798492" lon="-19.501129150">
<ele>249.191406</ele>
<time>2012-07-26T15:00:32Z</time>
<speed>9.460000</speed>
<extensions>
<speed>9.5</speed>
<temp>0.00</temp>
<bpm>0</bpm>
<rpm>0.00</rpm>
</extensions>
</trkpt>
<trkpt lat="63.720523834" lon="-19.501731873">
<ele>245.503906</ele>
<time>2012-07-26T15:00:37Z</time>
<speed>8.750000</speed>
<extensions>
<speed>8.8</speed>
<temp>0.00</temp>
<bpm>0</bpm>
<rpm>0.00</rpm>
</extensions>
</trkpt>
<trkpt lat="63.720180511" lon="-19.502126694">
<ele>244.875000</ele>
<time>2012-07-26T15:00:42Z</time>
<speed>7.830000</speed>
<extensions>
<speed>7.8</speed>
<temp>0.00</temp>
<bpm>0</bpm>
<rpm>0.00</rpm>
</extensions>
</trkpt>
<trkpt lat="63.719921112" lon="-19.502300262">
<ele>247.949219</ele>
<time>2012-07-26T15:00:47Z</time>
<speed>4.160000</speed>
<extensions>
<speed>4.2</speed>
<temp>0.00</temp>
<bpm>0</bpm>
<rpm>0.00</rpm>
</extensions>
</trkpt>
<trkpt lat="63.719772339" lon="-19.502338409">
<ele>248.457031</ele>
<time>2012-07-26T15:00:52Z</time>
<speed>2.610000</speed>
<extensions>
<speed>2.6</speed>
<temp>0.00</temp>
<bpm>0</bpm>
<rpm>0.00</rpm>
</extensions>
</trkpt>
<trkpt lat="63.719665527" lon="-19.502374649">
<ele>249.972656</ele>
<time>2012-07-26T15:00:57Z</time>
<speed>2.430000</speed>
<extensions>
<speed>2.4</speed>
<temp>0.00</temp>
<bpm>0</bpm>
<rpm>0.00</rpm>
</extensions>
</trkpt>
<trkpt lat="63.719566345" lon="-19.502420425">
<ele>250.046875</ele>
<time>2012-07-26T15:01:02Z</time>
<speed>2.720000</speed>
<extensions>
<speed>2.7</speed>
<temp>0.00</temp>
<bpm>0</bpm>
<rpm>0.00</rpm>
</extensions>
</trkpt>
<trkpt lat="63.719432831" lon="-19.502521515">
<ele>249.519531</ele>
<time>2012-07-26T15:01:07Z</time>
<speed>3.660000</speed>
<extensions>
<speed>3.7</speed>
<temp>0.00</temp>
<bpm>0</bpm>
<rpm>0.00</rpm>
</extensions>
</trkpt>
<trkpt lat="63.719261169" lon="-19.502708435">
<ele>249.210938</ele>
<time>2012-07-26T15:01:12Z</time>
<speed>4.470000</speed>
<extensions>
<speed>4.5</speed>
<temp>0.00</temp>
<bpm>0</bpm>
<rpm>0.00</rpm>
</extensions>
</trkpt>
<trkpt lat="63.719051361" lon="-19.502935410">
<ele>247.531250</ele>
<time>2012-07-26T15:01:17Z</time>
<speed>6.060000</speed>
<extensions>
<speed>6.1</speed>
<temp>0.00</temp>
<bpm>0</bpm>
<rpm>0.00</rpm>
</extensions>
</trkpt>
<trkpt lat="63.718807220" lon="-19.503107071">
<ele>245.699219</ele>
<time>2012-07-26T15:01:22Z</time>
<speed>5.820000</speed>
<extensions>
<speed>5.8</speed>
<temp>0.00</temp>
<bpm>0</bpm>
<rpm>0.00</rpm>
</extensions>
</trkpt>
<trkpt lat="63.718521118" lon="-19.503152847">
<ele>246.203125</ele>
<time>2012-07-26T15:01:27Z</time>
<speed>7.490000</speed>
<extensions>
<speed>7.5</speed>
<temp>0.00</temp>
<bpm>0</bpm>
<rpm>0.00</rpm>
</extensions>
</trkpt>
<trkpt lat="63.718151093" lon="-19.503231049">
<ele>240.582031</ele>
<time>2012-07-26T15:01:32Z</time>
<speed>8.100000</speed>
<extensions>
<speed>8.1</speed>
<temp>0.00</temp>
<bpm>0</bpm>
<rpm>0.00</rpm>
</extensions>
</trkpt>
<trkpt lat="63.717796326" lon="-19.503444672">
<ele>238.171875</ele>
<time>2012-07-26T15:01:37Z</time>
<speed>8.190000</speed>
<extensions>
<speed>8.2</speed>
<temp>0.00</temp>
<bpm>0</bpm>
<rpm>0.00</rpm>
</extensions>
</trkpt>
<trkpt lat="63.717460632" lon="-19.503641129">
<ele>235.453125</ele>
<time>2012-07-26T15:01:42Z</time>
<speed>7.070000</speed>
<extensions>
<speed>7.1</speed>
<temp>0.00</temp>
<bpm>0</bpm>
<rpm>0.00</rpm>
</extensions>
</trkpt>
<trkpt lat="63.717193604" lon="-19.503780365">
<ele>237.773438</ele>
<time>2012-07-26T15:01:47Z</time>
<speed>5.160000</speed>
<extensions>
<speed>5.2</speed>
<temp>0.00</temp>
<bpm>0</bpm>
<rpm>0.00</rpm>
</extensions>
</trkpt>
<trkpt lat="63.716999054" lon="-19.503892899">
<ele>239.785156</ele>
<time>2012-07-26T15:01:52Z</time>
<speed>4.360000</speed>
<extensions>
<speed>4.4</speed>
<temp>0.00</temp>
<bpm>0</bpm>
<rpm>0.00</rpm>
</extensions>
</trkpt>
<trkpt lat="63.716804504" lon="-19.503992081">
<ele>239.429688</ele>
<time>2012-07-26T15:01:57Z</time>
<speed>4.650000</speed>
<extensions>
<speed>4.6</speed>
<temp>0.00</temp>
<bpm>0</bpm>
<rpm>0.00</rpm>
</extensions>
</trkpt>
<trkpt lat="63.716609955" lon="-19.504165649">
<ele>237.953125</ele>
<time>2012-07-26T15:02:02Z</time>
<speed>5.020000</speed>
<extensions>
<speed>5.0</speed>
<temp>0.00</temp>
<bpm>0</bpm>
<rpm>0.00</rpm>
</extensions>
</trkpt>
<trkpt lat="63.716381073" lon="-19.504453659">
<ele>236.890625</ele>
<time>2012-07-26T15:02:07Z</time>
<speed>5.800000</speed>
<extensions>
<speed>5.8</speed>
<temp>0.00</temp>
<bpm>0</bpm>
<rpm>0.00</rpm>
</extensions>
</trkpt>
<trkpt lat="63.716190338" lon="-19.504760742">
<ele>237.500000</ele>
<time>2012-07-26T15:02:12Z</time>
<speed>3.290000</speed>
<extensions>
<speed>3.3</speed>
<temp>0.00</temp>
<bpm>0</bpm>
<rpm>0.00</rpm>
</extensions>
</trkpt>
<trkpt lat="63.716091156" lon="-19.504899979">
<ele>239.402344</ele>
<time>2012-07-26T15:02:17Z</time>
<speed>2.140000</speed>
<extensions>
<speed>2.1</speed>
<temp>0.00</temp>
<bpm>0</bpm>
<rpm>0.00</rpm>
</extensions>
</trkpt>
<trkpt lat="63.716018677" lon="-19.505043030">
<ele>237.632813</ele>
<time>2012-07-26T15:02:22Z</time>
<speed>2.190000</speed>
<extensions>
<speed>2.2</speed>
<temp>0.00</temp>
<bpm>0</bpm>
<rpm>0.00</rpm>
</extensions>
</trkpt>
<trkpt lat="63.715991974" lon="-19.505102158">
<ele>236.097656</ele>
<time>2012-07-26T15:02:27Z</time>
<speed>0.120000</speed>
<extensions>
<speed>0.1</speed>
<temp>0.00</temp>
<bpm>0</bpm>
<rpm>0.00</rpm>
</extensions>
</trkpt>
<trkpt lat="63.715995789" lon="-19.505107880">
<ele>234.750000</ele>
<time>2012-07-26T15:02:32Z</time>
<speed>0.070000</speed>
<extensions>
<speed>0.1</speed>
<temp>0.00</temp>
<bpm>0</bpm>
<rpm>0.00</rpm>
</extensions>
</trkpt>
<trkpt lat="63.715995789" lon="-19.505102158">
<ele>234.593750</ele>
<time>2012-07-26T15:02:37Z</time>
<speed>0.070000</speed>
<extensions>
<speed>0.1</speed>
<temp>0.00</temp>
<bpm>0</bpm>
<rpm>0.00</rpm>
</extensions>
</trkpt>
<trkpt lat="63.715995789" lon="-19.505096436">
<ele>234.523438</ele>
<time>2012-07-26T15:02:42Z</time>
<speed>0.050000</speed>
<extensions>
<speed>0.1</speed>
<temp>0.00</temp>
<bpm>0</bpm>
<rpm>0.00</rpm>
</extensions>
</trkpt>
<trkpt lat="63.715995789" lon="-19.505096436">
<ele>234.503906</ele>
<time>2012-07-26T15:02:47Z</time>
<extensions>
<speed>0.0</speed>
<temp>0.00</temp>
<bpm>0</bpm>
<rpm>0.00</rpm>
</extensions>
</trkpt>
<trkpt lat="63.715995789" lon="-19.505096436">
<ele>234.496094</ele>
<time>2012-07-26T15:02:52Z</time>
<extensions>
<speed>0.0</speed>
<temp>0.00</temp>
<bpm>0</bpm>
<rpm>0.00</rpm>
</extensions>
</trkpt>
<trkpt lat="63.715995789" lon="-19.505094528">
<ele>234.472656</ele>
<time>2012-07-26T15:02:57Z</time>
<extensions>
<speed>0.0</speed>
<temp>0.00</temp>
<bpm>0</bpm>
<rpm>0.00</rpm>
</extensions>
</trkpt>
<trkpt lat="63.715995789" lon="-19.505094528">
<ele>234.457031</ele>
<time>2012-07-26T15:03:02Z</time>
<extensions>
<speed>0.0</speed>
<temp>0.00</temp>
<bpm>0</bpm>
<rpm>0.00</rpm>
</extensions>
</trkpt>
<trkpt lat="63.715995789" lon="-19.505094528">
<ele>234.441406</ele>
<time>2012-07-26T15:03:07Z</time>
<extensions>
<speed>0.0</speed>
<temp>0.00</temp>
<bpm>0</bpm>
<rpm>0.00</rpm>
</extensions>
</trkpt>
<trkpt lat="63.715995789" lon="-19.505092621">
<ele>234.402344</ele>
<time>2012-07-26T15:03:12Z</time>
<speed>0.010000</speed>
<extensions>
<speed>0.0</speed>
<temp>0.00</temp>
<bpm>0</bpm>
<rpm>0.00</rpm>
</extensions>
</trkpt>
<trkpt lat="63.715995789" lon="-19.505092621">
<ele>234.402344</ele>
<time>2012-07-26T15:03:17Z</time>
<extensions>
<speed>0.0</speed>
<temp>0.00</temp>
<bpm>0</bpm>
<rpm>0.00</rpm>
</extensions>
</trkpt>
<trkpt lat="63.715995789" lon="-19.505090714">
<ele>234.394531</ele>
<time>2012-07-26T15:03:22Z</time>
<extensions>
<speed>0.0</speed>
<temp>0.00</temp>
<bpm>0</bpm>
<rpm>0.00</rpm>
</extensions>
</trkpt>
<trkpt lat="63.715995789" lon="-19.505090714">
<ele>234.394531</ele>
<time>2012-07-26T15:03:27Z</time>
<speed>0.010000</speed>
<extensions>
<speed>0.0</speed>
<temp>0.00</temp>
<bpm>0</bpm>
<rpm>0.00</rpm>
</extensions>
</trkpt>
<trkpt lat="63.715995789" lon="-19.505090714">
<ele>234.390625</ele>
<time>2012-07-26T15:03:32Z</time>
<speed>0.020000</speed>
<extensions>
<speed>0.0</speed>
<temp>0.00</temp>
<bpm>0</bpm>
<rpm>0.00</rpm>
</extensions>
</trkpt>
<trkpt lat="63.715995789" lon="-19.505090714">
<ele>234.390625</ele>
<time>2012-07-26T15:03:37Z</time>
<extensions>
<speed>0.0</speed>
<temp>0.00</temp>
<bpm>0</bpm>
<rpm>0.00</rpm>
</extensions>
</trkpt>
<trkpt lat="63.715995789" lon="-19.505090714">
<ele>234.390625</ele>
<time>2012-07-26T15:03:42Z</time>
<speed>0.010000</speed>
<extensions>
<speed>0.0</speed>
<temp>0.00</temp>
<bpm>0</bpm>
<rpm>0.00</rpm>
</extensions>
</trkpt>
<trkpt lat="63.715995789" lon="-19.505090714">
<ele>234.378906</ele>
<time>2012-07-26T15:03:47Z</time>
<speed>0.030000</speed>
<extensions>
<speed>0.0</speed>
<temp>0.00</temp>
<bpm>0</bpm>
<rpm>0.00</rpm>
</extensions>
</trkpt>
<trkpt lat="63.715995789" lon="-19.505090714">
<ele>234.378906</ele>
<time>2012-07-26T15:03:52Z</time>
<speed>0.090000</speed>
<extensions>
<speed>0.1</speed>
<temp>0.00</temp>
<bpm>0</bpm>
<rpm>0.00</rpm>
</extensions>
</trkpt>
<trkpt lat="63.715999603" lon="-19.505094528">
<ele>234.386719</ele>
<time>2012-07-26T15:03:57Z</time>
<speed>0.060000</speed>
<extensions>
<speed>0.1</speed>
<temp>0.00</temp>
<bpm>0</bpm>
<rpm>0.00</rpm>
</extensions>
</trkpt>
<trkpt lat="63.716003418" lon="-19.505090714">
<ele>234.414063</ele>
<time>2012-07-26T15:04:02Z</time>
<speed>0.050000</speed>
<extensions>
<speed>0.1</speed>
<temp>0.00</temp>
<bpm>0</bpm>
<rpm>0.00</rpm>
</extensions>
</trkpt>
<trkpt lat="63.715999603" lon="-19.505084991">
<ele>234.464844</ele>
<time>2012-07-26T15:04:07Z</time>
<speed>0.040000</speed>
<extensions>
<speed>0.0</speed>
<temp>0.00</temp>
<bpm>0</bpm>
<rpm>0.00</rpm>
</extensions>
</trkpt>
<trkpt lat="63.715999603" lon="-19.505083084">
<ele>234.480469</ele>
<time>2012-07-26T15:04:12Z</time>
<speed>0.040000</speed>
<extensions>
<speed>0.0</speed>
<temp>0.00</temp>
<bpm>0</bpm>
<rpm>0.00</rpm>
</extensions>
</trkpt>
<trkpt lat="63.715999603" lon="-19.505083084">
<ele>234.492188</ele>
<time>2012-07-26T15:04:17Z</time>
<extensions>
<speed>0.0</speed>
<temp>0.00</temp>
<bpm>0</bpm>
<rpm>0.00</rpm>
</extensions>
</trkpt>
<trkpt lat="63.715999603" lon="-19.505083084">
<ele>234.460938</ele>
<time>2012-07-26T15:04:22Z</time>
<speed>0.010000</speed>
<extensions>
<speed>0.0</speed>
<temp>0.00</temp>
<bpm>0</bpm>
<rpm>0.00</rpm>
</extensions>
</trkpt>
<trkpt lat="63.715999603" lon="-19.505083084">
<ele>234.460938</ele>
<time>2012-07-26T15:04:27Z</time>
<speed>0.080000</speed>
<extensions>
<speed>0.1</speed>
<temp>0.00</temp>
<bpm>0</bpm>
<rpm>0.00</rpm>
</extensions>
</trkpt>
<trkpt lat="63.715999603" lon="-19.505083084">
<ele>234.468750</ele>
<time>2012-07-26T15:04:32Z</time>
<speed>0.010000</speed>
<extensions>
<speed>0.0</speed>
<temp>0.00</temp>
<bpm>0</bpm>
<rpm>0.00</rpm>
</extensions>
</trkpt>
<trkpt lat="63.715999603" lon="-19.505081177">
<ele>234.445313</ele>
<time>2012-07-26T15:04:37Z</time>
<speed>0.020000</speed>
<extensions>
<speed>0.0</speed>
<temp>0.00</temp>
<bpm>0</bpm>
<rpm>0.00</rpm>
</extensions>
</trkpt>
<trkpt lat="63.715999603" lon="-19.505081177">
<ele>234.449219</ele>
<time>2012-07-26T15:04:42Z</time>
<speed>0.010000</speed>
<extensions>
<speed>0.0</speed>
<temp>0.00</temp>
<bpm>0</bpm>
<rpm>0.00</rpm>
</extensions>
</trkpt>
<trkpt lat="63.715999603" lon="-19.505081177">
<ele>234.445313</ele>
<time>2012-07-26T15:04:47Z</time>
<extensions>
<speed>0.0</speed>
<temp>0.00</temp>
<bpm>0</bpm>
<rpm>0.00</rpm>
</extensions>
</trkpt>
<trkpt lat="63.715999603" lon="-19.505081177">
<ele>234.449219</ele>
<time>2012-07-26T15:04:52Z</time>
<speed>0.010000</speed>
<extensions>
<speed>0.0</speed>
<temp>0.00</temp>
<bpm>0</bpm>
<rpm>0.00</rpm>
</extensions>
</trkpt>
<trkpt lat="63.715999603" lon="-19.505081177">
<ele>234.445313</ele>
<time>2012-07-26T15:04:57Z</time>
<extensions>
<speed>0.0</speed>
<temp>0.00</temp>
<bpm>0</bpm>
<rpm>0.00</rpm>
</extensions>
</trkpt>
<trkpt lat="63.715999603" lon="-19.505081177">
<ele>234.445313</ele>
<time>2012-07-26T15:05:02Z</time>
<speed>0.030000</speed>
<extensions>
<speed>0.0</speed>
<temp>0.00</temp>
<bpm>0</bpm>
<rpm>0.00</rpm>
</extensions>
</trkpt>
<trkpt lat="63.715999603" lon="-19.505081177">
<ele>234.445313</ele>
<time>2012-07-26T15:05:07Z</time>
<speed>0.020000</speed>
<extensions>
<speed>0.0</speed>
<temp>0.00</temp>
<bpm>0</bpm>
<rpm>0.00</rpm>
</extensions>
</trkpt>
<trkpt lat="63.715999603" lon="-19.505079269">
<ele>234.433594</ele>
<time>2012-07-26T15:05:12Z</time>
<speed>0.010000</speed>
<extensions>
<speed>0.0</speed>
<temp>0.00</temp>
<bpm>0</bpm>
<rpm>0.00</rpm>
</extensions>
</trkpt>
<trkpt lat="63.715999603" lon="-19.505079269">
<ele>234.445313</ele>
<time>2012-07-26T15:05:17Z</time>
<speed>0.090000</speed>
<extensions>
<speed>0.1</speed>
<temp>0.00</temp>
<bpm>0</bpm>
<rpm>0.00</rpm>
</extensions>
</trkpt>
<trkpt lat="63.715999603" lon="-19.505079269">
<ele>234.433594</ele>
<time>2012-07-26T15:05:22Z</time>
<speed>0.010000</speed>
<extensions>
<speed>0.0</speed>
<temp>0.00</temp>
<bpm>0</bpm>
<rpm>0.00</rpm>
</extensions>
</trkpt>
<trkpt lat="63.715999603" lon="-19.505079269">
<ele>234.433594</ele>
<time>2012-07-26T15:05:27Z</time>
<speed>0.100000</speed>
<extensions>
<speed>0.1</speed>
<temp>0.00</temp>
<bpm>0</bpm>
<rpm>0.00</rpm>
</extensions>
</trkpt>
<trkpt lat="63.715999603" lon="-19.505079269">
<ele>234.441406</ele>
<time>2012-07-26T15:05:32Z</time>
<extensions>
<speed>0.0</speed>
<temp>0.00</temp>
<bpm>0</bpm>
<rpm>0.00</rpm>
</extensions>
</trkpt>
<trkpt lat="63.715999603" lon="-19.505079269">
<ele>234.449219</ele>
<time>2012-07-26T15:05:37Z</time>
<speed>0.210000</speed>
<extensions>
<speed>0.2</speed>
<temp>0.00</temp>
<bpm>0</bpm>
<rpm>0.00</rpm>
</extensions>
</trkpt>
<trkpt lat="63.715999603" lon="-19.505079269">
<ele>234.464844</ele>
<time>2012-07-26T15:05:42Z</time>
<speed>0.010000</speed>
<extensions>
<speed>0.0</speed>
<temp>0.00</temp>
<bpm>0</bpm>
<rpm>0.00</rpm>
</extensions>
</trkpt>
<trkpt lat="63.715999603" lon="-19.505079269">
<ele>234.457031</ele>
<time>2012-07-26T15:05:47Z</time>
<speed>0.010000</speed>
<extensions>
<speed>0.0</speed>
<temp>0.00</temp>
<bpm>0</bpm>
<rpm>0.00</rpm>
</extensions>
</trkpt>
<trkpt lat="63.715999603" lon="-19.505079269">
<ele>234.464844</ele>
<time>2012-07-26T15:05:52Z</time>
<speed>0.100000</speed>
<extensions>
<speed>0.1</speed>
<temp>0.00</temp>
<bpm>0</bpm>
<rpm>0.00</rpm>
</extensions>
</trkpt>
<trkpt lat="63.715999603" lon="-19.505079269">
<ele>234.457031</ele>
<time>2012-07-26T15:05:57Z</time>
<speed>0.010000</speed>
<extensions>
<speed>0.0</speed>
<temp>0.00</temp>
<bpm>0</bpm>
<rpm>0.00</rpm>
</extensions>
</trkpt>
<trkpt lat="63.715999603" lon="-19.505079269">
<ele>234.453125</ele>
<time>2012-07-26T15:06:02Z</time>
<extensions>
<speed>0.0</speed>
<temp>0.00</temp>
<bpm>0</bpm>
<rpm>0.00</rpm>
</extensions>
</trkpt>
<trkpt lat="63.715999603" lon="-19.505079269">
<ele>234.453125</ele>
<time>2012-07-26T15:06:07Z</time>
<speed>0.230000</speed>
<extensions>
<speed>0.2</speed>
<temp>0.00</temp>
<bpm>0</bpm>
<rpm>0.00</rpm>
</extensions>
</trkpt>
<trkpt lat="63.716003418" lon="-19.505081177">
<ele>234.472656</ele>
<time>2012-07-26T15:06:12Z</time>
<speed>0.040000</speed>
<extensions>
<speed>0.0</speed>
<temp>0.00</temp>
<bpm>0</bpm>
<rpm>0.00</rpm>
</extensions>
</trkpt>
<trkpt lat="63.716003418" lon="-19.505081177">
<ele>234.472656</ele>
<time>2012-07-26T15:06:17Z</time>
<extensions>
<speed>0.0</speed>
<temp>0.00</temp>
<bpm>0</bpm>
<rpm>0.00</rpm>
</extensions>
</trkpt>
<trkpt lat="63.716003418" lon="-19.505081177">
<ele>234.472656</ele>
<time>2012-07-26T15:06:22Z</time>
<extensions>
<speed>0.0</speed>
<temp>0.00</temp>
<bpm>0</bpm>
<rpm>0.00</rpm>
</extensions>
</trkpt>
<trkpt lat="63.716003418" lon="-19.505083084">
<ele>234.468750</ele>
<time>2012-07-26T15:06:27Z</time>
<speed>0.010000</speed>
<extensions>
<speed>0.0</speed>
<temp>0.00</temp>
<bpm>0</bpm>
<rpm>0.00</rpm>
</extensions>
</trkpt>
<trkpt lat="63.716003418" lon="-19.505083084">
<ele>234.457031</ele>
<time>2012-07-26T15:06:32Z</time>
<speed>0.030000</speed>
<extensions>
<speed>0.0</speed>
<temp>0.00</temp>
<bpm>0</bpm>
<rpm>0.00</rpm>
</extensions>
</trkpt>
<trkpt lat="63.716003418" lon="-19.505083084">
<ele>234.460938</ele>
<time>2012-07-26T15:06:37Z</time>
<extensions>
<speed>0.0</speed>
<temp>0.00</temp>
<bpm>0</bpm>
<rpm>0.00</rpm>
</extensions>
</trkpt>
<trkpt lat="63.716003418" lon="-19.505083084">
<ele>234.496094</ele>
<time>2012-07-26T15:06:42Z</time>
<speed>0.010000</speed>
<extensions>
<speed>0.0</speed>
<temp>0.00</temp>
<bpm>0</bpm>
<rpm>0.00</rpm>
</extensions>
</trkpt>
<trkpt lat="63.715995789" lon="-19.505094528">
<ele>234.484375</ele>
<time>2012-07-26T15:06:47Z</time>
<speed>1.620000</speed>
<extensions>
<speed>1.6</speed>
<temp>0.00</temp>
<bpm>0</bpm>
<rpm>0.00</rpm>
</extensions>
</trkpt>
<trkpt lat="63.715999603" lon="-19.505102158">
<ele>235.636719</ele>
<time>2012-07-26T15:06:52Z</time>
<speed>0.100000</speed>
<extensions>
<speed>0.1</speed>
<temp>0.00</temp>
<bpm>0</bpm>
<rpm>0.00</rpm>
</extensions>
</trkpt>
<trkpt lat="63.715999603" lon="-19.505096436">
<ele>235.710938</ele>
<time>2012-07-26T15:06:57Z</time>
<extensions>
<speed>0.0</speed>
<temp>0.00</temp>
<bpm>0</bpm>
<rpm>0.00</rpm>
</extensions>
</trkpt>
<trkpt lat="63.715999603" lon="-19.505098343">
<ele>235.710938</ele>
<time>2012-07-26T15:07:02Z</time>
<speed>0.010000</speed>
<extensions>
<speed>0.0</speed>
<temp>0.00</temp>
<bpm>0</bpm>
<rpm>0.00</rpm>
</extensions>
</trkpt>
<trkpt lat="63.715999603" lon="-19.505098343">
<ele>235.722656</ele>
<time>2012-07-26T15:07:07Z</time>
<extensions>
<speed>0.0</speed>
<temp>0.00</temp>
<bpm>0</bpm>
<rpm>0.00</rpm>
</extensions>
</trkpt>
<trkpt lat="63.715999603" lon="-19.505098343">
<ele>235.710938</ele>
<time>2012-07-26T15:07:12Z</time>
<speed>0.010000</speed>
<extensions>
<speed>0.0</speed>
<temp>0.00</temp>
<bpm>0</bpm>
<rpm>0.00</rpm>
</extensions>
</trkpt>
<trkpt lat="63.715999603" lon="-19.505098343">
<ele>235.695313</ele>
<time>2012-07-26T15:07:17Z</time>
<extensions>
<speed>0.0</speed>
<temp>0.00</temp>
<bpm>0</bpm>
<rpm>0.00</rpm>
</extensions>
</trkpt>
<trkpt lat="63.715999603" lon="-19.505098343">
<ele>235.679688</ele>
<time>2012-07-26T15:07:22Z</time>
<speed>0.020000</speed>
<extensions>
<speed>0.0</speed>
<temp>0.00</temp>
<bpm>0</bpm>
<rpm>0.00</rpm>
</extensions>
</trkpt>
<trkpt lat="63.715999603" lon="-19.505098343">
<ele>235.687500</ele>
<time>2012-07-26T15:07:27Z</time>
<extensions>
<speed>0.0</speed>
<temp>0.00</temp>
<bpm>0</bpm>
<rpm>0.00</rpm>
</extensions>
</trkpt>
<trkpt lat="63.715999603" lon="-19.505098343">
<ele>235.679688</ele>
<time>2012-07-26T15:07:32Z</time>
<extensions>
<speed>0.0</speed>
<temp>0.00</temp>
<bpm>0</bpm>
<rpm>0.00</rpm>
</extensions>
</trkpt>
<trkpt lat="63.715999603" lon="-19.505098343">
<ele>235.671875</ele>
<time>2012-07-26T15:07:37Z</time>
<extensions>
<speed>0.0</speed>
<temp>0.00</temp>
<bpm>0</bpm>
<rpm>0.00</rpm>
</extensions>
</trkpt>
<trkpt lat="63.715999603" lon="-19.505098343">
<ele>235.648438</ele>
<time>2012-07-26T15:07:42Z</time>
<speed>0.030000</speed>
<extensions>
<speed>0.0</speed>
<temp>0.00</temp>
<bpm>0</bpm>
<rpm>0.00</rpm>
</extensions>
</trkpt>
<trkpt lat="63.715999603" lon="-19.505098343">
<ele>235.640625</ele>
<time>2012-07-26T15:07:47Z</time>
<speed>0.010000</speed>
<extensions>
<speed>0.0</speed>
<temp>0.00</temp>
<bpm>0</bpm>
<rpm>0.00</rpm>
</extensions>
</trkpt>
<trkpt lat="63.715999603" lon="-19.505098343">
<ele>235.625000</ele>
<time>2012-07-26T15:07:52Z</time>
<speed>0.010000</speed>
<extensions>
<speed>0.0</speed>
<temp>0.00</temp>
<bpm>0</bpm>
<rpm>0.00</rpm>
</extensions>
</trkpt>
<trkpt lat="63.715999603" lon="-19.505098343">
<ele>235.636719</ele>
<time>2012-07-26T15:07:57Z</time>
<speed>0.020000</speed>
<extensions>
<speed>0.0</speed>
<temp>0.00</temp>
<bpm>0</bpm>
<rpm>0.00</rpm>
</extensions>
</trkpt>
<trkpt lat="63.715999603" lon="-19.505098343">
<ele>235.632813</ele>
<time>2012-07-26T15:08:02Z</time>
<speed>0.070000</speed>
<extensions>
<speed>0.1</speed>
<temp>0.00</temp>
<bpm>0</bpm>
<rpm>0.00</rpm>
</extensions>
</trkpt>
<trkpt lat="63.715976715" lon="-19.505170822">
<ele>235.238281</ele>
<time>2012-07-26T15:08:07Z</time>
<speed>2.160000</speed>
<extensions>
<speed>2.2</speed>
<temp>0.00</temp>
<bpm>0</bpm>
<rpm>0.00</rpm>
</extensions>
</trkpt>
<trkpt lat="63.715888977" lon="-19.505342484">
<ele>234.632813</ele>
<time>2012-07-26T15:08:12Z</time>
<speed>2.440000</speed>
<extensions>
<speed>2.4</speed>
<temp>0.00</temp>
<bpm>0</bpm>
<rpm>0.00</rpm>
</extensions>
</trkpt>
<trkpt lat="63.715801239" lon="-19.505483627">
<ele>235.167969</ele>
<time>2012-07-26T15:08:17Z</time>
<speed>2.240000</speed>
<extensions>
<speed>2.2</speed>
<temp>0.00</temp>
<bpm>0</bpm>
<rpm>0.00</rpm>
</extensions>
</trkpt>
<trkpt lat="63.715694427" lon="-19.505645752">
<ele>235.250000</ele>
<time>2012-07-26T15:08:22Z</time>
<speed>2.900000</speed>
<extensions>
<speed>2.9</speed>
<temp>0.00</temp>
<bpm>0</bpm>
<rpm>0.00</rpm>
</extensions>
</trkpt>
<trkpt lat="63.715591431" lon="-19.505844116">
<ele>235.511719</ele>
<time>2012-07-26T15:08:27Z</time>
<speed>2.900000</speed>
<extensions>
<speed>2.9</speed>
<temp>0.00</temp>
<bpm>0</bpm>
<rpm>0.00</rpm>
</extensions>
</trkpt>
<trkpt lat="63.715496063" lon="-19.506071091">
<ele>235.335938</ele>
<time>2012-07-26T15:08:32Z</time>
<speed>3.120000</speed>
<extensions>
<speed>3.1</speed>
<temp>0.00</temp>
<bpm>0</bpm>
<rpm>0.00</rpm>
</extensions>
</trkpt>
<trkpt lat="63.715396881" lon="-19.506372452">
<ele>235.605469</ele>
<time>2012-07-26T15:08:37Z</time>
<speed>3.570000</speed>
<extensions>
<speed>3.6</speed>
<temp>0.00</temp>
<bpm>0</bpm>
<rpm>0.00</rpm>
</extensions>
</trkpt>
<trkpt lat="63.715305328" lon="-19.506649017">
<ele>235.332031</ele>
<time>2012-07-26T15:08:42Z</time>
<speed>3.100000</speed>
<extensions>
<speed>3.1</speed>
<temp>0.00</temp>
<bpm>0</bpm>
<rpm>0.00</rpm>
</extensions>
</trkpt>
<trkpt lat="63.715232849" lon="-19.506887436">
<ele>235.488281</ele>
<time>2012-07-26T15:08:47Z</time>
<speed>2.430000</speed>
<extensions>
<speed>2.4</speed>
<temp>0.00</temp>
<bpm>0</bpm>
<rpm>0.00</rpm>
</extensions>
</trkpt>
<trkpt lat="63.715187073" lon="-19.507188797">
<ele>235.164063</ele>
<time>2012-07-26T15:08:52Z</time>
<speed>3.520000</speed>
<extensions>
<speed>3.5</speed>
<temp>0.00</temp>
<bpm>0</bpm>
<rpm>0.00</rpm>
</extensions>
</trkpt>
<trkpt lat="63.715095520" lon="-19.507472992">
<ele>233.816406</ele>
<time>2012-07-26T15:08:57Z</time>
<speed>3.220000</speed>
<extensions>
<speed>3.2</speed>
<temp>0.00</temp>
<bpm>0</bpm>
<rpm>0.00</rpm>
</extensions>
</trkpt>
<trkpt lat="63.714973450" lon="-19.507761002">
<ele>231.929688</ele>
<time>2012-07-26T15:09:02Z</time>
<speed>3.980000</speed>
<extensions>
<speed>4.0</speed>
<temp>0.00</temp>
<bpm>0</bpm>
<rpm>0.00</rpm>
</extensions>
</trkpt>
<trkpt lat="63.714851379" lon="-19.508069992">
<ele>234.398438</ele>
<time>2012-07-26T15:09:07Z</time>
<speed>2.510000</speed>
<extensions>
<speed>2.5</speed>
<temp>0.00</temp>
<bpm>0</bpm>
<rpm>0.00</rpm>
</extensions>
</trkpt>
<trkpt lat="63.714733124" lon="-19.508247375">
<ele>233.222656</ele>
<time>2012-07-26T15:09:12Z</time>
<speed>3.140000</speed>
<extensions>
<speed>3.1</speed>
<temp>0.00</temp>
<bpm>0</bpm>
<rpm>0.00</rpm>
</extensions>
</trkpt>
<trkpt lat="63.714618683" lon="-19.508432388">
<ele>229.781250</ele>
<time>2012-07-26T15:09:17Z</time>
<speed>2.690000</speed>
<extensions>
<speed>2.7</speed>
<temp>0.00</temp>
<bpm>0</bpm>
<rpm>0.00</rpm>
</extensions>
</trkpt>
<trkpt lat="63.714530945" lon="-19.508712769">
<ele>230.460938</ele>
<time>2012-07-26T15:09:22Z</time>
<speed>3.130000</speed>
<extensions>
<speed>3.1</speed>
<temp>0.00</temp>
<bpm>0</bpm>
<rpm>0.00</rpm>
</extensions>
</trkpt>
<trkpt lat="63.714454651" lon="-19.509044647">
<ele>231.734375</ele>
<time>2012-07-26T15:09:27Z</time>
<speed>3.600000</speed>
<extensions>
<speed>3.6</speed>
<temp>0.00</temp>
<bpm>0</bpm>
<rpm>0.00</rpm>
</extensions>
</trkpt>
<trkpt lat="63.714370728" lon="-19.509353638">
<ele>231.007813</ele>
<time>2012-07-26T15:09:32Z</time>
<speed>3.090000</speed>
<extensions>
<speed>3.1</speed>
<temp>0.00</temp>
<bpm>0</bpm>
<rpm>0.00</rpm>
</extensions>
</trkpt>
<trkpt lat="63.714286804" lon="-19.509656906">
<ele>228.828125</ele>
<time>2012-07-26T15:09:37Z</time>
<speed>3.190000</speed>
<extensions>
<speed>3.2</speed>
<temp>0.00</temp>
<bpm>0</bpm>
<rpm>0.00</rpm>
</extensions>
</trkpt>
<trkpt lat="63.714191437" lon="-19.509931564">
<ele>224.203125</ele>
<time>2012-07-26T15:09:42Z</time>
<speed>3.110000</speed>
<extensions>
<speed>3.1</speed>
<temp>0.00</temp>
<bpm>0</bpm>
<rpm>0.00</rpm>
</extensions>
</trkpt>
<trkpt lat="63.714092255" lon="-19.510251999">
<ele>221.613281</ele>
<time>2012-07-26T15:09:47Z</time>
<speed>3.290000</speed>
<extensions>
<speed>3.3</speed>
<temp>0.00</temp>
<bpm>0</bpm>
<rpm>0.00</rpm>
</extensions>
</trkpt>
<trkpt lat="63.714004517" lon="-19.510597229">
<ele>220.226563</ele>
<time>2012-07-26T15:09:52Z</time>
<speed>3.190000</speed>
<extensions>
<speed>3.2</speed>
<temp>0.00</temp>
<bpm>0</bpm>
<rpm>0.00</rpm>
</extensions>
</trkpt>
<trkpt lat="63.713897705" lon="-19.510898590">
<ele>219.531250</ele>
<time>2012-07-26T15:09:57Z</time>
<speed>2.660000</speed>
<extensions>
<speed>2.7</speed>
<temp>0.00</temp>
<bpm>0</bpm>
<rpm>0.00</rpm>
</extensions>
</trkpt>
<trkpt lat="63.713836670" lon="-19.511220932">
<ele>225.117188</ele>
<time>2012-07-26T15:10:02Z</time>
<speed>2.780000</speed>
<extensions>
<speed>2.8</speed>
<temp>0.00</temp>
<bpm>0</bpm>
<rpm>0.00</rpm>
</extensions>
</trkpt>
<trkpt lat="63.713756561" lon="-19.511518478">
<ele>225.667969</ele>
<time>2012-07-26T15:10:07Z</time>
<speed>3.400000</speed>
<extensions>
<speed>3.4</speed>
<temp>0.00</temp>
<bpm>0</bpm>
<rpm>0.00</rpm>
</extensions>
</trkpt>
<trkpt lat="63.713695526" lon="-19.511810303">
<ele>226.234375</ele>
<time>2012-07-26T15:10:12Z</time>
<speed>2.900000</speed>
<extensions>
<speed>2.9</speed>
<temp>0.00</temp>
<bpm>0</bpm>
<rpm>0.00</rpm>
</extensions>
</trkpt>
<trkpt lat="63.713623047" lon="-19.512102127">
<ele>229.625000</ele>
<time>2012-07-26T15:10:17Z</time>
<speed>3.250000</speed>
<extensions>
<speed>3.2</speed>
<temp>0.00</temp>
<bpm>0</bpm>
<rpm>0.00</rpm>
</extensions>
</trkpt>
<trkpt lat="63.713539124" lon="-19.512393951">
<ele>230.921875</ele>
<time>2012-07-26T15:10:22Z</time>
<speed>3.190000</speed>
<extensions>
<speed>3.2</speed>
<temp>0.00</temp>
<bpm>0</bpm>
<rpm>0.00</rpm>
</extensions>
</trkpt>
<trkpt lat="63.713451385" lon="-19.512678146">
<ele>230.992188</ele>
<time>2012-07-26T15:10:27Z</time>
<speed>3.120000</speed>
<extensions>
<speed>3.1</speed>
<temp>0.00</temp>
<bpm>0</bpm>
<rpm>0.00</rpm>
</extensions>
</trkpt>
<trkpt lat="63.713363647" lon="-19.512933731">
<ele>232.433594</ele>
<time>2012-07-26T15:10:32Z</time>
<speed>3.250000</speed>
<extensions>
<speed>3.2</speed>
<temp>0.00</temp>
<bpm>0</bpm>
<rpm>0.00</rpm>
</extensions>
</trkpt>
<trkpt lat="63.713260651" lon="-19.513164520">
<ele>233.617188</ele>
<time>2012-07-26T15:10:37Z</time>
<speed>3.120000</speed>
<extensions>
<speed>3.1</speed>
<temp>0.00</temp>
<bpm>0</bpm>
<rpm>0.00</rpm>
</extensions>
</trkpt>
<trkpt lat="63.713161469" lon="-19.513416290">
<ele>233.410156</ele>
<time>2012-07-26T15:10:42Z</time>
<speed>3.700000</speed>
<extensions>
<speed>3.7</speed>
<temp>0.00</temp>
<bpm>0</bpm>
<rpm>0.00</rpm>
</extensions>
</trkpt>
<trkpt lat="63.713043213" lon="-19.513645172">
<ele>234.125000</ele>
<time>2012-07-26T15:10:47Z</time>
<speed>3.380000</speed>
<extensions>
<speed>3.4</speed>
<temp>0.00</temp>
<bpm>0</bpm>
<rpm>0.00</rpm>
</extensions>
</trkpt>
<trkpt lat="63.712924957" lon="-19.513906479">
<ele>232.378906</ele>
<time>2012-07-26T15:10:52Z</time>
<speed>3.600000</speed>
<extensions>
<speed>3.6</speed>
<temp>0.00</temp>
<bpm>0</bpm>
<rpm>0.00</rpm>
</extensions>
</trkpt>
<trkpt lat="63.712810516" lon="-19.514133453">
<ele>232.546875</ele>
<time>2012-07-26T15:10:57Z</time>
<speed>3.590000</speed>
<extensions>
<speed>3.6</speed>
<temp>0.00</temp>
<bpm>0</bpm>
<rpm>0.00</rpm>
</extensions>
</trkpt>
<trkpt lat="63.712711334" lon="-19.514385223">
<ele>230.535156</ele>
<time>2012-07-26T15:11:02Z</time>
<speed>3.300000</speed>
<extensions>
<speed>3.3</speed>
<temp>0.00</temp>
<bpm>0</bpm>
<rpm>0.00</rpm>
</extensions>
</trkpt>
<trkpt lat="63.712627411" lon="-19.514591217">
<ele>229.968750</ele>
<time>2012-07-26T15:11:07Z</time>
<speed>2.600000</speed>
<extensions>
<speed>2.6</speed>
<temp>0.00</temp>
<bpm>0</bpm>
<rpm>0.00</rpm>
</extensions>
</trkpt>
<trkpt lat="63.712505341" lon="-19.514766693">
<ele>231.398438</ele>
<time>2012-07-26T15:11:12Z</time>
<speed>3.700000</speed>
<extensions>
<speed>3.7</speed>
<temp>0.00</temp>
<bpm>0</bpm>
<rpm>0.00</rpm>
</extensions>
</trkpt>
<trkpt lat="63.712314606" lon="-19.514827728">
<ele>232.117188</ele>
<time>2012-07-26T15:11:17Z</time>
<speed>4.760000</speed>
<extensions>
<speed>4.8</speed>
<temp>0.00</temp>
<bpm>0</bpm>
<rpm>0.00</rpm>
</extensions>
</trkpt>
<trkpt lat="63.712135315" lon="-19.514921188">
<ele>233.644531</ele>
<time>2012-07-26T15:11:22Z</time>
<speed>3.520000</speed>
<extensions>
<speed>3.5</speed>
<temp>0.00</temp>
<bpm>0</bpm>
<rpm>0.00</rpm>
</extensions>
</trkpt>
<trkpt lat="63.711994171" lon="-19.515052795">
<ele>237.406250</ele>
<time>2012-07-26T15:11:27Z</time>
<speed>3.250000</speed>
<extensions>
<speed>3.2</speed>
<temp>0.00</temp>
<bpm>0</bpm>
<rpm>0.00</rpm>
</extensions>
</trkpt>
<trkpt lat="63.711883545" lon="-19.515172958">
<ele>238.839844</ele>
<time>2012-07-26T15:11:32Z</time>
<speed>2.630000</speed>
<extensions>
<speed>2.6</speed>
<temp>0.00</temp>
<bpm>0</bpm>
<rpm>0.00</rpm>
</extensions>
</trkpt>
<trkpt lat="63.711769104" lon="-19.515352249">
<ele>235.726563</ele>
<time>2012-07-26T15:11:37Z</time>
<speed>3.050000</speed>
<extensions>
<speed>3.0</speed>
<temp>0.00</temp>
<bpm>0</bpm>
<rpm>0.00</rpm>
</extensions>
</trkpt>
<trkpt lat="63.711692810" lon="-19.515436172">
<ele>234.781250</ele>
<time>2012-07-26T15:11:42Z</time>
<speed>1.460000</speed>
<extensions>
<speed>1.5</speed>
<temp>0.00</temp>
<bpm>0</bpm>
<rpm>0.00</rpm>
</extensions>
</trkpt>
<trkpt lat="63.711620331" lon="-19.515508652">
<ele>231.750000</ele>
<time>2012-07-26T15:11:47Z</time>
<speed>1.860000</speed>
<extensions>
<speed>1.9</speed>
<temp>0.00</temp>
<bpm>0</bpm>
<rpm>0.00</rpm>
</extensions>
</trkpt>
<trkpt lat="63.711524963" lon="-19.515575409">
<ele>231.085938</ele>
<time>2012-07-26T15:11:52Z</time>
<speed>2.320000</speed>
<extensions>
<speed>2.3</speed>
<temp>0.00</temp>
<bpm>0</bpm>
<rpm>0.00</rpm>
</extensions>
</trkpt>
<trkpt lat="63.711406708" lon="-19.515621185">
<ele>230.152344</ele>
<time>2012-07-26T15:11:57Z</time>
<speed>2.910000</speed>
<extensions>
<speed>2.9</speed>
<temp>0.00</temp>
<bpm>0</bpm>
<rpm>0.00</rpm>
</extensions>
</trkpt>
<trkpt lat="63.711280823" lon="-19.515649796">
<ele>230.769531</ele>
<time>2012-07-26T15:12:02Z</time>
<speed>2.920000</speed>
<extensions>
<speed>2.9</speed>
<temp>0.00</temp>
<bpm>0</bpm>
<rpm>0.00</rpm>
</extensions>
</trkpt>
<trkpt lat="63.711128235" lon="-19.515695572">
<ele>230.414063</ele>
<time>2012-07-26T15:12:07Z</time>
<speed>3.470000</speed>
<extensions>
<speed>3.5</speed>
<temp>0.00</temp>
<bpm>0</bpm>
<rpm>0.00</rpm>
</extensions>
</trkpt>
<trkpt lat="63.710979462" lon="-19.515737534">
<ele>230.367188</ele>
<time>2012-07-26T15:12:12Z</time>
<speed>2.930000</speed>
<extensions>
<speed>2.9</speed>
<temp>0.00</temp>
<bpm>0</bpm>
<rpm>0.00</rpm>
</extensions>
</trkpt>
<trkpt lat="63.710834503" lon="-19.515787125">
<ele>230.328125</ele>
<time>2012-07-26T15:12:17Z</time>
<speed>3.460000</speed>
<extensions>
<speed>3.5</speed>
<temp>0.00</temp>
<bpm>0</bpm>
<rpm>0.00</rpm>
</extensions>
</trkpt>
<trkpt lat="63.710666656" lon="-19.515832901">
<ele>228.542969</ele>
<time>2012-07-26T15:12:22Z</time>
<speed>4.020000</speed>
<extensions>
<speed>4.0</speed>
<temp>0.00</temp>
<bpm>0</bpm>
<rpm>0.00</rpm>
</extensions>
</trkpt>
<trkpt lat="63.710510254" lon="-19.515876770">
<ele>229.585938</ele>
<time>2012-07-26T15:12:27Z</time>
<speed>3.020000</speed>
<extensions>
<speed>3.0</speed>
<temp>0.00</temp>
<bpm>0</bpm>
<rpm>0.00</rpm>
</extensions>
</trkpt>
<trkpt lat="63.710357666" lon="-19.515977859">
<ele>227.273438</ele>
<time>2012-07-26T15:12:32Z</time>
<speed>3.340000</speed>
<extensions>
<speed>3.3</speed>
<temp>0.00</temp>
<bpm>0</bpm>
<rpm>0.00</rpm>
</extensions>
</trkpt>
<trkpt lat="63.710239410" lon="-19.516098022">
<ele>228.089844</ele>
<time>2012-07-26T15:12:37Z</time>
<speed>2.530000</speed>
<extensions>
<speed>2.5</speed>
<temp>0.00</temp>
<bpm>0</bpm>
<rpm>0.00</rpm>
</extensions>
</trkpt>
<trkpt lat="63.710144043" lon="-19.516191483">
<ele>227.429688</ele>
<time>2012-07-26T15:12:42Z</time>
<speed>1.890000</speed>
<extensions>
<speed>1.9</speed>
<temp>0.00</temp>
<bpm>0</bpm>
<rpm>0.00</rpm>
</extensions>
</trkpt>
<trkpt lat="63.710071564" lon="-19.516302109">
<ele>226.976563</ele>
<time>2012-07-26T15:12:47Z</time>
<speed>2.030000</speed>
<extensions>
<speed>2.0</speed>
<temp>0.00</temp>
<bpm>0</bpm>
<rpm>0.00</rpm>
</extensions>
</trkpt>
<trkpt lat="63.709995270" lon="-19.516466141">
<ele>226.996094</ele>
<time>2012-07-26T15:12:52Z</time>
<speed>2.520000</speed>
<extensions>
<speed>2.5</speed>
<temp>0.00</temp>
<bpm>0</bpm>
<rpm>0.00</rpm>
</extensions>
</trkpt>
<trkpt lat="63.709918976" lon="-19.516647339">
<ele>226.796875</ele>
<time>2012-07-26T15:12:57Z</time>
<speed>2.750000</speed>
<extensions>
<speed>2.7</speed>
<temp>0.00</temp>
<bpm>0</bpm>
<rpm>0.00</rpm>
</extensions>
</trkpt>
<trkpt lat="63.709842682" lon="-19.516870499">
<ele>226.375000</ele>
<time>2012-07-26T15:13:02Z</time>
<speed>2.540000</speed>
<extensions>
<speed>2.5</speed>
<temp>0.00</temp>
<bpm>0</bpm>
<rpm>0.00</rpm>
</extensions>
</trkpt>
<trkpt lat="63.709777832" lon="-19.517087936">
<ele>225.519531</ele>
<time>2012-07-26T15:13:07Z</time>
<speed>3.080000</speed>
<extensions>
<speed>3.1</speed>
<temp>0.00</temp>
<bpm>0</bpm>
<rpm>0.00</rpm>
</extensions>
</trkpt>
<trkpt lat="63.709693909" lon="-19.517332077">
<ele>224.640625</ele>
<time>2012-07-26T15:13:12Z</time>
<speed>2.960000</speed>
<extensions>
<speed>3.0</speed>
<temp>0.00</temp>
<bpm>0</bpm>
<rpm>0.00</rpm>
</extensions>
</trkpt>
<trkpt lat="63.709602356" lon="-19.517515182">
<ele>225.246094</ele>
<time>2012-07-26T15:13:17Z</time>
<speed>2.680000</speed>
<extensions>
<speed>2.7</speed>
<temp>0.00</temp>
<bpm>0</bpm>
<rpm>0.00</rpm>
</extensions>
</trkpt>
<trkpt lat="63.709518433" lon="-19.517675400">
<ele>223.625000</ele>
<time>2012-07-26T15:13:22Z</time>
<speed>2.060000</speed>
<extensions>
<speed>2.1</speed>
<temp>0.00</temp>
<bpm>0</bpm>
<rpm>0.00</rpm>
</extensions>
</trkpt>
<trkpt lat="63.709407806" lon="-19.517816544">
<ele>224.085938</ele>
<time>2012-07-26T15:13:27Z</time>
<speed>2.080000</speed>
<extensions>
<speed>2.1</speed>
<temp>0.00</temp>
<bpm>0</bpm>
<rpm>0.00</rpm>
</extensions>
</trkpt>
<trkpt lat="63.709312439" lon="-19.517955780">
<ele>223.714844</ele>
<time>2012-07-26T15:13:32Z</time>
<speed>2.540000</speed>
<extensions>
<speed>2.5</speed>
<temp>0.00</temp>
<bpm>0</bpm>
<rpm>0.00</rpm>
</extensions>
</trkpt>
<trkpt lat="63.709186554" lon="-19.518123627">
<ele>223.441406</ele>
<time>2012-07-26T15:13:37Z</time>
<speed>3.470000</speed>
<extensions>
<speed>3.5</speed>
<temp>0.00</temp>
<bpm>0</bpm>
<rpm>0.00</rpm>
</extensions>
</trkpt>
<trkpt lat="63.709037781" lon="-19.518310547">
<ele>223.718750</ele>
<time>2012-07-26T15:13:42Z</time>
<speed>3.660000</speed>
<extensions>
<speed>3.7</speed>
<temp>0.00</temp>
<bpm>0</bpm>
<rpm>0.00</rpm>
</extensions>
</trkpt>
<trkpt lat="63.708896637" lon="-19.518510818">
<ele>224.019531</ele>
<time>2012-07-26T15:13:47Z</time>
<speed>2.940000</speed>
<extensions>
<speed>2.9</speed>
<temp>0.00</temp>
<bpm>0</bpm>
<rpm>0.00</rpm>
</extensions>
</trkpt>
<trkpt lat="63.708831787" lon="-19.518718719">
<ele>223.578125</ele>
<time>2012-07-26T15:13:52Z</time>
<speed>3.270000</speed>
<extensions>
<speed>3.3</speed>
<temp>0.00</temp>
<bpm>0</bpm>
<rpm>0.00</rpm>
</extensions>
</trkpt>
<trkpt lat="63.708751678" lon="-19.519018173">
<ele>221.562500</ele>
<time>2012-07-26T15:13:57Z</time>
<speed>3.750000</speed>
<extensions>
<speed>3.8</speed>
<temp>0.00</temp>
<bpm>0</bpm>
<rpm>0.00</rpm>
</extensions>
</trkpt>
<trkpt lat="63.708683014" lon="-19.519371033">
<ele>220.535156</ele>
<time>2012-07-26T15:14:02Z</time>
<speed>4.060000</speed>
<extensions>
<speed>4.1</speed>
<temp>0.00</temp>
<bpm>0</bpm>
<rpm>0.00</rpm>
</extensions>
</trkpt>
<trkpt lat="63.708587646" lon="-19.519718170">
<ele>220.933594</ele>
<time>2012-07-26T15:14:07Z</time>
<speed>4.130000</speed>
<extensions>
<speed>4.1</speed>
<temp>0.00</temp>
<bpm>0</bpm>
<rpm>0.00</rpm>
</extensions>
</trkpt>
<trkpt lat="63.708507538" lon="-19.520019531">
<ele>220.722656</ele>
<time>2012-07-26T15:14:12Z</time>
<speed>3.600000</speed>
<extensions>
<speed>3.6</speed>
<temp>0.00</temp>
<bpm>0</bpm>
<rpm>0.00</rpm>
</extensions>
</trkpt>
<trkpt lat="63.708446503" lon="-19.520315170">
<ele>221.917969</ele>
<time>2012-07-26T15:14:17Z</time>
<speed>2.500000</speed>
<extensions>
<speed>2.5</speed>
<temp>0.00</temp>
<bpm>0</bpm>
<rpm>0.00</rpm>
</extensions>
</trkpt>
<trkpt lat="63.708354950" lon="-19.520563126">
<ele>222.265625</ele>
<time>2012-07-26T15:14:22Z</time>
<speed>3.500000</speed>
<extensions>
<speed>3.5</speed>
<temp>0.00</temp>
<bpm>0</bpm>
<rpm>0.00</rpm>
</extensions>
</trkpt>
<trkpt lat="63.708282471" lon="-19.520919800">
<ele>223.042969</ele>
<time>2012-07-26T15:14:27Z</time>
<speed>3.820000</speed>
<extensions>
<speed>3.8</speed>
<temp>0.00</temp>
<bpm>0</bpm>
<rpm>0.00</rpm>
</extensions>
</trkpt>
<trkpt lat="63.708221436" lon="-19.521230698">
<ele>222.699219</ele>
<time>2012-07-26T15:14:32Z</time>
<speed>2.890000</speed>
<extensions>
<speed>2.9</speed>
<temp>0.00</temp>
<bpm>0</bpm>
<rpm>0.00</rpm>
</extensions>
</trkpt>
<trkpt lat="63.708183289" lon="-19.521434784">
<ele>223.449219</ele>
<time>2012-07-26T15:14:37Z</time>
<speed>2.240000</speed>
<extensions>
<speed>2.2</speed>
<temp>0.00</temp>
<bpm>0</bpm>
<rpm>0.00</rpm>
</extensions>
</trkpt>
<trkpt lat="63.708164215" lon="-19.521648407">
<ele>225.113281</ele>
<time>2012-07-26T15:14:42Z</time>
<speed>1.940000</speed>
<extensions>
<speed>1.9</speed>
<temp>0.00</temp>
<bpm>0</bpm>
<rpm>0.00</rpm>
</extensions>
</trkpt>
<trkpt lat="63.708106995" lon="-19.521800995">
<ele>224.429688</ele>
<time>2012-07-26T15:14:47Z</time>
<speed>1.950000</speed>
<extensions>
<speed>1.9</speed>
<temp>0.00</temp>
<bpm>0</bpm>
<rpm>0.00</rpm>
</extensions>
</trkpt>
<trkpt lat="63.708076477" lon="-19.521997452">
<ele>221.871094</ele>
<time>2012-07-26T15:14:52Z</time>
<speed>1.300000</speed>
<extensions>
<speed>1.3</speed>
<temp>0.00</temp>
<bpm>0</bpm>
<rpm>0.00</rpm>
</extensions>
</trkpt>
<trkpt lat="63.708034515" lon="-19.522142410">
<ele>220.910156</ele>
<time>2012-07-26T15:14:57Z</time>
<speed>1.700000</speed>
<extensions>
<speed>1.7</speed>
<temp>0.00</temp>
<bpm>0</bpm>
<rpm>0.00</rpm>
</extensions>
</trkpt>
<trkpt lat="63.708011627" lon="-19.522302628">
<ele>220.914063</ele>
<time>2012-07-26T15:15:02Z</time>
<speed>1.670000</speed>
<extensions>
<speed>1.7</speed>
<temp>0.00</temp>
<bpm>0</bpm>
<rpm>0.00</rpm>
</extensions>
</trkpt>
<trkpt lat="63.707988739" lon="-19.522314072">
<ele>221.695313</ele>
<time>2012-07-26T15:15:07Z</time>
<speed>0.140000</speed>
<extensions>
<speed>0.1</speed>
<temp>0.00</temp>
<bpm>0</bpm>
<rpm>0.00</rpm>
</extensions>
</trkpt>
<trkpt lat="63.707981110" lon="-19.522365570">
<ele>221.734375</ele>
<time>2012-07-26T15:15:12Z</time>
<speed>1.050000</speed>
<extensions>
<speed>1.0</speed>
<temp>0.00</temp>
<bpm>0</bpm>
<rpm>0.00</rpm>
</extensions>
</trkpt>
<trkpt lat="63.707969666" lon="-19.522459030">
<ele>220.699219</ele>
<time>2012-07-26T15:15:17Z</time>
<speed>0.430000</speed>
<extensions>
<speed>0.4</speed>
<temp>0.00</temp>
<bpm>0</bpm>
<rpm>0.00</rpm>
</extensions>
</trkpt>
<trkpt lat="63.707962036" lon="-19.522474289">
<ele>221.105469</ele>
<time>2012-07-26T15:15:22Z</time>
<speed>0.070000</speed>
<extensions>
<speed>0.1</speed>
<temp>0.00</temp>
<bpm>0</bpm>
<rpm>0.00</rpm>
</extensions>
</trkpt>
<trkpt lat="63.707962036" lon="-19.522472382">
<ele>221.167969</ele>
<time>2012-07-26T15:15:27Z</time>
<speed>0.010000</speed>
<extensions>
<speed>0.0</speed>
<temp>0.00</temp>
<bpm>0</bpm>
<rpm>0.00</rpm>
</extensions>
</trkpt>
<trkpt lat="63.707962036" lon="-19.522470474">
<ele>221.238281</ele>
<time>2012-07-26T15:15:32Z</time>
<speed>0.500000</speed>
<extensions>
<speed>0.5</speed>
<temp>0.00</temp>
<bpm>0</bpm>
<rpm>0.00</rpm>
</extensions>
</trkpt>
<trkpt lat="63.707931519" lon="-19.522529602">
<ele>221.828125</ele>
<time>2012-07-26T15:15:37Z</time>
<speed>0.750000</speed>
<extensions>
<speed>0.8</speed>
<temp>0.00</temp>
<bpm>0</bpm>
<rpm>0.00</rpm>
</extensions>
</trkpt>
<trkpt lat="63.707920074" lon="-19.522609711">
<ele>221.656250</ele>
<time>2012-07-26T15:15:42Z</time>
<speed>1.000000</speed>
<extensions>
<speed>1.0</speed>
<temp>0.00</temp>
<bpm>0</bpm>
<rpm>0.00</rpm>
</extensions>
</trkpt>
<trkpt lat="63.707908630" lon="-19.522693634">
<ele>222.136719</ele>
<time>2012-07-26T15:15:47Z</time>
<speed>1.000000</speed>
<extensions>
<speed>1.0</speed>
<temp>0.00</temp>
<bpm>0</bpm>
<rpm>0.00</rpm>
</extensions>
</trkpt>
<trkpt lat="63.707889557" lon="-19.522768021">
<ele>221.929688</ele>
<time>2012-07-26T15:15:52Z</time>
<speed>0.920000</speed>
<extensions>
<speed>0.9</speed>
<temp>0.00</temp>
<bpm>0</bpm>
<rpm>0.00</rpm>
</extensions>
</trkpt>
<trkpt lat="63.707881927" lon="-19.522840500">
<ele>221.691406</ele>
<time>2012-07-26T15:15:57Z</time>
<speed>0.630000</speed>
<extensions>
<speed>0.6</speed>
<temp>0.00</temp>
<bpm>0</bpm>
<rpm>0.00</rpm>
</extensions>
</trkpt>
<trkpt lat="63.707870483" lon="-19.522928238">
<ele>221.796875</ele>
<time>2012-07-26T15:16:02Z</time>
<speed>0.730000</speed>
<extensions>
<speed>0.7</speed>
<temp>0.00</temp>
<bpm>0</bpm>
<rpm>0.00</rpm>
</extensions>
</trkpt>
<trkpt lat="63.707851410" lon="-19.523000717">
<ele>222.207031</ele>
<time>2012-07-26T15:16:07Z</time>
<speed>0.670000</speed>
<extensions>
<speed>0.7</speed>
<temp>0.00</temp>
<bpm>0</bpm>
<rpm>0.00</rpm>
</extensions>
</trkpt>
<trkpt lat="63.707836151" lon="-19.523078918">
<ele>222.914063</ele>
<time>2012-07-26T15:16:12Z</time>
<speed>0.530000</speed>
<extensions>
<speed>0.5</speed>
<temp>0.00</temp>
<bpm>0</bpm>
<rpm>0.00</rpm>
</extensions>
</trkpt>
<trkpt lat="63.707820892" lon="-19.523130417">
<ele>223.863281</ele>
<time>2012-07-26T15:16:17Z</time>
<speed>0.540000</speed>
<extensions>
<speed>0.5</speed>
<temp>0.00</temp>
<bpm>0</bpm>
<rpm>0.00</rpm>
</extensions>
</trkpt>
<trkpt lat="63.707828522" lon="-19.523126602">
<ele>224.964844</ele>
<time>2012-07-26T15:16:22Z</time>
<speed>0.140000</speed>
<extensions>
<speed>0.1</speed>
<temp>0.00</temp>
<bpm>0</bpm>
<rpm>0.00</rpm>
</extensions>
</trkpt>
<trkpt lat="63.707828522" lon="-19.523134232">
<ele>225.542969</ele>
<time>2012-07-26T15:16:27Z</time>
<speed>0.380000</speed>
<extensions>
<speed>0.4</speed>
<temp>0.00</temp>
<bpm>0</bpm>
<rpm>0.00</rpm>
</extensions>
</trkpt>
<trkpt lat="63.707824707" lon="-19.523206711">
<ele>226.207031</ele>
<time>2012-07-26T15:16:32Z</time>
<speed>0.820000</speed>
<extensions>
<speed>0.8</speed>
<temp>0.00</temp>
<bpm>0</bpm>
<rpm>0.00</rpm>
</extensions>
</trkpt>
<trkpt lat="63.707798004" lon="-19.523286819">
<ele>226.851563</ele>
<time>2012-07-26T15:16:37Z</time>
<speed>1.040000</speed>
<extensions>
<speed>1.0</speed>
<temp>0.00</temp>
<bpm>0</bpm>
<rpm>0.00</rpm>
</extensions>
</trkpt>
<trkpt lat="63.707775116" lon="-19.523376465">
<ele>227.578125</ele>
<time>2012-07-26T15:16:42Z</time>
<speed>0.830000</speed>
<extensions>
<speed>0.8</speed>
<temp>0.00</temp>
<bpm>0</bpm>
<rpm>0.00</rpm>
</extensions>
</trkpt>
<trkpt lat="63.707752228" lon="-19.523456573">
<ele>228.441406</ele>
<time>2012-07-26T15:16:47Z</time>
<speed>0.870000</speed>
<extensions>
<speed>0.9</speed>
<temp>0.00</temp>
<bpm>0</bpm>
<rpm>0.00</rpm>
</extensions>
</trkpt>
<trkpt lat="63.707733154" lon="-19.523536682">
<ele>229.316406</ele>
<time>2012-07-26T15:16:52Z</time>
<speed>0.720000</speed>
<extensions>
<speed>0.7</speed>
<temp>0.00</temp>
<bpm>0</bpm>
<rpm>0.00</rpm>
</extensions>
</trkpt>
<trkpt lat="63.707714081" lon="-19.523607254">
<ele>230.234375</ele>
<time>2012-07-26T15:16:57Z</time>
<speed>0.720000</speed>
<extensions>
<speed>0.7</speed>
<temp>0.00</temp>
<bpm>0</bpm>
<rpm>0.00</rpm>
</extensions>
</trkpt>
<trkpt lat="63.707698822" lon="-19.523687363">
<ele>231.417969</ele>
<time>2012-07-26T15:17:02Z</time>
<speed>0.640000</speed>
<extensions>
<speed>0.6</speed>
<temp>0.00</temp>
<bpm>0</bpm>
<rpm>0.00</rpm>
</extensions>
</trkpt>
<trkpt lat="63.707660675" lon="-19.523761749">
<ele>232.382813</ele>
<time>2012-07-26T15:17:07Z</time>
<speed>1.290000</speed>
<extensions>
<speed>1.3</speed>
<temp>0.00</temp>
<bpm>0</bpm>
<rpm>0.00</rpm>
</extensions>
</trkpt>
<trkpt lat="63.707630157" lon="-19.523870468">
<ele>232.160156</ele>
<time>2012-07-26T15:17:12Z</time>
<speed>1.500000</speed>
<extensions>
<speed>1.5</speed>
<temp>0.00</temp>
<bpm>0</bpm>
<rpm>0.00</rpm>
</extensions>
</trkpt>
<trkpt lat="63.707599640" lon="-19.523971558">
<ele>232.996094</ele>
<time>2012-07-26T15:17:17Z</time>
<speed>1.130000</speed>
<extensions>
<speed>1.1</speed>
<temp>0.00</temp>
<bpm>0</bpm>
<rpm>0.00</rpm>
</extensions>
</trkpt>
<trkpt lat="63.707576752" lon="-19.524036407">
<ele>233.011719</ele>
<time>2012-07-26T15:17:22Z</time>
<speed>0.910000</speed>
<extensions>
<speed>0.9</speed>
<temp>0.00</temp>
<bpm>0</bpm>
<rpm>0.00</rpm>
</extensions>
</trkpt>
<trkpt lat="63.707542419" lon="-19.524112701">
<ele>233.539063</ele>
<time>2012-07-26T15:17:27Z</time>
<speed>0.430000</speed>
<extensions>
<speed>0.4</speed>
<temp>0.00</temp>
<bpm>0</bpm>
<rpm>0.00</rpm>
</extensions>
</trkpt>
<trkpt lat="63.707523346" lon="-19.524147034">
<ele>234.542969</ele>
<time>2012-07-26T15:17:32Z</time>
<speed>0.160000</speed>
<extensions>
<speed>0.2</speed>
<temp>0.00</temp>
<bpm>0</bpm>
<rpm>0.00</rpm>
</extensions>
</trkpt>
<trkpt lat="63.707523346" lon="-19.524148941">
<ele>234.394531</ele>
<time>2012-07-26T15:17:37Z</time>
<speed>0.100000</speed>
<extensions>
<speed>0.1</speed>
<temp>0.00</temp>
<bpm>0</bpm>
<rpm>0.00</rpm>
</extensions>
</trkpt>
<trkpt lat="63.707496643" lon="-19.524255753">
<ele>235.246094</ele>
<time>2012-07-26T15:17:42Z</time>
<speed>1.380000</speed>
<extensions>
<speed>1.4</speed>
<temp>0.00</temp>
<bpm>0</bpm>
<rpm>0.00</rpm>
</extensions>
</trkpt>
<trkpt lat="63.707450867" lon="-19.524381638">
<ele>235.925781</ele>
<time>2012-07-26T15:17:47Z</time>
<speed>1.810000</speed>
<extensions>
<speed>1.8</speed>
<temp>0.00</temp>
<bpm>0</bpm>
<rpm>0.00</rpm>
</extensions>
</trkpt>
<trkpt lat="63.707382202" lon="-19.524494171">
<ele>236.128906</ele>
<time>2012-07-26T15:17:52Z</time>
<speed>2.020000</speed>
<extensions>
<speed>2.0</speed>
<temp>0.00</temp>
<bpm>0</bpm>
<rpm>0.00</rpm>
</extensions>
</trkpt>
<trkpt lat="63.707317352" lon="-19.524629593">
<ele>236.707031</ele>
<time>2012-07-26T15:17:57Z</time>
<speed>1.720000</speed>
<extensions>
<speed>1.7</speed>
<temp>0.00</temp>
<bpm>0</bpm>
<rpm>0.00</rpm>
</extensions>
</trkpt>
<trkpt lat="63.707260132" lon="-19.524820328">
<ele>237.648438</ele>
<time>2012-07-26T15:18:02Z</time>
<speed>2.420000</speed>
<extensions>
<speed>2.4</speed>
<temp>0.00</temp>
<bpm>0</bpm>
<rpm>0.00</rpm>
</extensions>
</trkpt>
<trkpt lat="63.707187653" lon="-19.525032043">
<ele>237.625000</ele>
<time>2012-07-26T15:18:07Z</time>
<speed>2.870000</speed>
<extensions>
<speed>2.9</speed>
<temp>0.00</temp>
<bpm>0</bpm>
<rpm>0.00</rpm>
</extensions>
</trkpt>
<trkpt lat="63.707115173" lon="-19.525287628">
<ele>238.195313</ele>
<time>2012-07-26T15:18:12Z</time>
<speed>3.030000</speed>
<extensions>
<speed>3.0</speed>
<temp>0.00</temp>
<bpm>0</bpm>
<rpm>0.00</rpm>
</extensions>
</trkpt>
<trkpt lat="63.707027435" lon="-19.525541306">
<ele>238.902344</ele>
<time>2012-07-26T15:18:17Z</time>
<speed>2.910000</speed>
<extensions>
<speed>2.9</speed>
<temp>0.00</temp>
<bpm>0</bpm>
<rpm>0.00</rpm>
</extensions>
</trkpt>
<trkpt lat="63.706935883" lon="-19.525749207">
<ele>240.246094</ele>
<time>2012-07-26T15:18:22Z</time>
<speed>2.900000</speed>
<extensions>
<speed>2.9</speed>
<temp>0.00</temp>
<bpm>0</bpm>
<rpm>0.00</rpm>
</extensions>
</trkpt>
<trkpt lat="63.706851959" lon="-19.525960922">
<ele>240.503906</ele>
<time>2012-07-26T15:18:27Z</time>
<speed>2.830000</speed>
<extensions>
<speed>2.8</speed>
<temp>0.00</temp>
<bpm>0</bpm>
<rpm>0.00</rpm>
</extensions>
</trkpt>
<trkpt lat="63.706760406" lon="-19.526208878">
<ele>239.054688</ele>
<time>2012-07-26T15:18:32Z</time>
<speed>3.410000</speed>
<extensions>
<speed>3.4</speed>
<temp>0.00</temp>
<bpm>0</bpm>
<rpm>0.00</rpm>
</extensions>
</trkpt>
<trkpt lat="63.706657410" lon="-19.526494980">
<ele>238.960938</ele>
<time>2012-07-26T15:18:37Z</time>
<speed>4.110000</speed>
<extensions>
<speed>4.1</speed>
<temp>0.00</temp>
<bpm>0</bpm>
<rpm>0.00</rpm>
</extensions>
</trkpt>
<trkpt lat="63.706535339" lon="-19.526828766">
<ele>237.035156</ele>
<time>2012-07-26T15:18:42Z</time>
<speed>4.350000</speed>
<extensions>
<speed>4.3</speed>
<temp>0.00</temp>
<bpm>0</bpm>
<rpm>0.00</rpm>
</extensions>
</trkpt>
<trkpt lat="63.706428528" lon="-19.527179718">
<ele>237.839844</ele>
<time>2012-07-26T15:18:47Z</time>
<speed>4.000000</speed>
<extensions>
<speed>4.0</speed>
<temp>0.00</temp>
<bpm>0</bpm>
<rpm>0.00</rpm>
</extensions>
</trkpt>
<trkpt lat="63.706336975" lon="-19.527492523">
<ele>237.164063</ele>
<time>2012-07-26T15:18:52Z</time>
<speed>3.590000</speed>
<extensions>
<speed>3.6</speed>
<temp>0.00</temp>
<bpm>0</bpm>
<rpm>0.00</rpm>
</extensions>
</trkpt>
<trkpt lat="63.706264496" lon="-19.527772903">
<ele>238.089844</ele>
<time>2012-07-26T15:18:57Z</time>
<speed>3.260000</speed>
<extensions>
<speed>3.3</speed>
<temp>0.00</temp>
<bpm>0</bpm>
<rpm>0.00</rpm>
</extensions>
</trkpt>
<trkpt lat="63.706188202" lon="-19.528095245">
<ele>236.714844</ele>
<time>2012-07-26T15:19:02Z</time>
<speed>3.550000</speed>
<extensions>
<speed>3.5</speed>
<temp>0.00</temp>
<bpm>0</bpm>
<rpm>0.00</rpm>
</extensions>
</trkpt>
<trkpt lat="63.706134796" lon="-19.528398514">
<ele>235.226563</ele>
<time>2012-07-26T15:19:07Z</time>
<speed>3.230000</speed>
<extensions>
<speed>3.2</speed>
<temp>0.00</temp>
<bpm>0</bpm>
<rpm>0.00</rpm>
</extensions>
</trkpt>
<trkpt lat="63.706092834" lon="-19.528705597">
<ele>233.457031</ele>
<time>2012-07-26T15:19:12Z</time>
<speed>3.500000</speed>
<extensions>
<speed>3.5</speed>
<temp>0.00</temp>
<bpm>0</bpm>
<rpm>0.00</rpm>
</extensions>
</trkpt>
<trkpt lat="63.706043243" lon="-19.529048920">
<ele>233.160156</ele>
<time>2012-07-26T15:19:17Z</time>
<speed>2.680000</speed>
<extensions>
<speed>2.7</speed>
<temp>0.00</temp>
<bpm>0</bpm>
<rpm>0.00</rpm>
</extensions>
</trkpt>
<trkpt lat="63.706008911" lon="-19.529338837">
<ele>233.113281</ele>
<time>2012-07-26T15:19:22Z</time>
<speed>3.140000</speed>
<extensions>
<speed>3.1</speed>
<temp>0.00</temp>
<bpm>0</bpm>
<rpm>0.00</rpm>
</extensions>
</trkpt>
<trkpt lat="63.705944061" lon="-19.529710770">
<ele>230.339844</ele>
<time>2012-07-26T15:19:27Z</time>
<speed>3.860000</speed>
<extensions>
<speed>3.9</speed>
<temp>0.00</temp>
<bpm>0</bpm>
<rpm>0.00</rpm>
</extensions>
</trkpt>
<trkpt lat="63.705898285" lon="-19.530073166">
<ele>228.265625</ele>
<time>2012-07-26T15:19:32Z</time>
<speed>3.940000</speed>
<extensions>
<speed>3.9</speed>
<temp>0.00</temp>
<bpm>0</bpm>
<rpm>0.00</rpm>
</extensions>
</trkpt>
<trkpt lat="63.705841064" lon="-19.530435562">
<ele>228.234375</ele>
<time>2012-07-26T15:19:37Z</time>
<speed>3.740000</speed>
<extensions>
<speed>3.7</speed>
<temp>0.00</temp>
<bpm>0</bpm>
<rpm>0.00</rpm>
</extensions>
</trkpt>
<trkpt lat="63.705795288" lon="-19.530790329">
<ele>228.632813</ele>
<time>2012-07-26T15:19:42Z</time>
<speed>3.690000</speed>
<extensions>
<speed>3.7</speed>
<temp>0.00</temp>
<bpm>0</bpm>
<rpm>0.00</rpm>
</extensions>
</trkpt>
<trkpt lat="63.705741882" lon="-19.531185150">
<ele>228.718750</ele>
<time>2012-07-26T15:19:47Z</time>
<speed>3.730000</speed>
<extensions>
<speed>3.7</speed>
<temp>0.00</temp>
<bpm>0</bpm>
<rpm>0.00</rpm>
</extensions>
</trkpt>
<trkpt lat="63.705692291" lon="-19.531600952">
<ele>229.191406</ele>
<time>2012-07-26T15:19:52Z</time>
<speed>4.080000</speed>
<extensions>
<speed>4.1</speed>
<temp>0.00</temp>
<bpm>0</bpm>
<rpm>0.00</rpm>
</extensions>
</trkpt>
<trkpt lat="63.705635071" lon="-19.531970978">
<ele>227.882813</ele>
<time>2012-07-26T15:19:57Z</time>
<speed>4.120000</speed>
<extensions>
<speed>4.1</speed>
<temp>0.00</temp>
<bpm>0</bpm>
<rpm>0.00</rpm>
</extensions>
</trkpt>
<trkpt lat="63.705554962" lon="-19.532299042">
<ele>226.894531</ele>
<time>2012-07-26T15:20:02Z</time>
<speed>3.390000</speed>
<extensions>
<speed>3.4</speed>
<temp>0.00</temp>
<bpm>0</bpm>
<rpm>0.00</rpm>
</extensions>
</trkpt>
<trkpt lat="63.705467224" lon="-19.532604218">
<ele>225.488281</ele>
<time>2012-07-26T15:20:07Z</time>
<speed>3.630000</speed>
<extensions>
<speed>3.6</speed>
<temp>0.00</temp>
<bpm>0</bpm>
<rpm>0.00</rpm>
</extensions>
</trkpt>
<trkpt lat="63.705379486" lon="-19.532936096">
<ele>225.414063</ele>
<time>2012-07-26T15:20:12Z</time>
<speed>3.750000</speed>
<extensions>
<speed>3.8</speed>
<temp>0.00</temp>
<bpm>0</bpm>
<rpm>0.00</rpm>
</extensions>
</trkpt>
<trkpt lat="63.705307007" lon="-19.533235550">
<ele>222.601563</ele>
<time>2012-07-26T15:20:17Z</time>
<speed>2.440000</speed>
<extensions>
<speed>2.4</speed>
<temp>0.00</temp>
<bpm>0</bpm>
<rpm>0.00</rpm>
</extensions>
</trkpt>
<trkpt lat="63.705261230" lon="-19.533424377">
<ele>223.195313</ele>
<time>2012-07-26T15:20:22Z</time>
<speed>2.150000</speed>
<extensions>
<speed>2.1</speed>
<temp>0.00</temp>
<bpm>0</bpm>
<rpm>0.00</rpm>
</extensions>
</trkpt>
<trkpt lat="63.705238342" lon="-19.533615112">
<ele>226.363281</ele>
<time>2012-07-26T15:20:27Z</time>
<speed>1.190000</speed>
<extensions>
<speed>1.2</speed>
<temp>0.00</temp>
<bpm>0</bpm>
<rpm>0.00</rpm>
</extensions>
</trkpt>
<trkpt lat="63.705238342" lon="-19.533613205">
<ele>227.562500</ele>
<time>2012-07-26T15:20:32Z</time>
<speed>0.130000</speed>
<extensions>
<speed>0.1</speed>
<temp>0.00</temp>
<bpm>0</bpm>
<rpm>0.00</rpm>
</extensions>
</trkpt>
<trkpt lat="63.705242157" lon="-19.533605576">
<ele>227.593750</ele>
<time>2012-07-26T15:20:37Z</time>
<speed>0.060000</speed>
<extensions>
<speed>0.1</speed>
<temp>0.00</temp>
<bpm>0</bpm>
<rpm>0.00</rpm>
</extensions>
</trkpt>
<trkpt lat="63.705242157" lon="-19.533605576">
<ele>227.621094</ele>
<time>2012-07-26T15:20:42Z</time>
<speed>0.050000</speed>
<extensions>
<speed>0.1</speed>
<temp>0.00</temp>
<bpm>0</bpm>
<rpm>0.00</rpm>
</extensions>
</trkpt>
<trkpt lat="63.705238342" lon="-19.533599854">
<ele>227.769531</ele>
<time>2012-07-26T15:20:47Z</time>
<speed>0.120000</speed>
<extensions>
<speed>0.1</speed>
<temp>0.00</temp>
<bpm>0</bpm>
<rpm>0.00</rpm>
</extensions>
</trkpt>
<trkpt lat="63.705242157" lon="-19.533592224">
<ele>227.808594</ele>
<time>2012-07-26T15:20:52Z</time>
<speed>0.140000</speed>
<extensions>
<speed>0.1</speed>
<temp>0.00</temp>
<bpm>0</bpm>
<rpm>0.00</rpm>
</extensions>
</trkpt>
<trkpt lat="63.705242157" lon="-19.533590317">
<ele>227.769531</ele>
<time>2012-07-26T15:20:57Z</time>
<speed>0.080000</speed>
<extensions>
<speed>0.1</speed>
<temp>0.00</temp>
<bpm>0</bpm>
<rpm>0.00</rpm>
</extensions>
</trkpt>
<trkpt lat="63.705242157" lon="-19.533597946">
<ele>227.726563</ele>
<time>2012-07-26T15:21:02Z</time>
<speed>0.060000</speed>
<extensions>
<speed>0.1</speed>
<temp>0.00</temp>
<bpm>0</bpm>
<rpm>0.00</rpm>
</extensions>
</trkpt>
<trkpt lat="63.705245972" lon="-19.533605576">
<ele>227.710938</ele>
<time>2012-07-26T15:21:07Z</time>
<speed>0.180000</speed>
<extensions>
<speed>0.2</speed>
<temp>0.00</temp>
<bpm>0</bpm>
<rpm>0.00</rpm>
</extensions>
</trkpt>
<trkpt lat="63.705245972" lon="-19.533613205">
<ele>227.664063</ele>
<time>2012-07-26T15:21:12Z</time>
<speed>0.020000</speed>
<extensions>
<speed>0.0</speed>
<temp>0.00</temp>
<bpm>0</bpm>
<rpm>0.00</rpm>
</extensions>
</trkpt>
<trkpt lat="63.705245972" lon="-19.533615112">
<ele>227.613281</ele>
<time>2012-07-26T15:21:17Z</time>
<speed>0.020000</speed>
<extensions>
<speed>0.0</speed>
<temp>0.00</temp>
<bpm>0</bpm>
<rpm>0.00</rpm>
</extensions>
</trkpt>
<trkpt lat="63.705245972" lon="-19.533615112">
<ele>227.613281</ele>
<time>2012-07-26T15:21:22Z</time>
<extensions>
<speed>0.0</speed>
<temp>0.00</temp>
<bpm>0</bpm>
<rpm>0.00</rpm>
</extensions>
</trkpt>
<trkpt lat="63.705245972" lon="-19.533615112">
<ele>227.605469</ele>
<time>2012-07-26T15:21:27Z</time>
<speed>0.020000</speed>
<extensions>
<speed>0.0</speed>
<temp>0.00</temp>
<bpm>0</bpm>
<rpm>0.00</rpm>
</extensions>
</trkpt>
<trkpt lat="63.705245972" lon="-19.533615112">
<ele>227.609375</ele>
<time>2012-07-26T15:21:32Z</time>
<speed>0.040000</speed>
<extensions>
<speed>0.0</speed>
<temp>0.00</temp>
<bpm>0</bpm>
<rpm>0.00</rpm>
</extensions>
</trkpt>
<trkpt lat="63.705223083" lon="-19.533689499">
<ele>227.609375</ele>
<time>2012-07-26T15:21:37Z</time>
<speed>2.700000</speed>
<extensions>
<speed>2.7</speed>
<temp>0.00</temp>
<bpm>0</bpm>
<rpm>0.00</rpm>
</extensions>
</trkpt>
<trkpt lat="63.705142975" lon="-19.534036636">
<ele>226.554688</ele>
<time>2012-07-26T15:21:42Z</time>
<speed>3.130000</speed>
<extensions>
<speed>3.1</speed>
<temp>0.00</temp>
<bpm>0</bpm>
<rpm>0.00</rpm>
</extensions>
</trkpt>
<trkpt lat="63.705055237" lon="-19.534397125">
<ele>226.343750</ele>
<time>2012-07-26T15:21:47Z</time>
<speed>3.150000</speed>
<extensions>
<speed>3.2</speed>
<temp>0.00</temp>
<bpm>0</bpm>
<rpm>0.00</rpm>
</extensions>
</trkpt>
<trkpt lat="63.704963684" lon="-19.534709930">
<ele>227.097656</ele>
<time>2012-07-26T15:21:52Z</time>
<speed>3.290000</speed>
<extensions>
<speed>3.3</speed>
<temp>0.00</temp>
<bpm>0</bpm>
<rpm>0.00</rpm>
</extensions>
</trkpt>
<trkpt lat="63.704860687" lon="-19.535018921">
<ele>228.230469</ele>
<time>2012-07-26T15:21:57Z</time>
<speed>3.810000</speed>
<extensions>
<speed>3.8</speed>
<temp>0.00</temp>
<bpm>0</bpm>
<rpm>0.00</rpm>
</extensions>
</trkpt>
<trkpt lat="63.704757690" lon="-19.535316467">
<ele>228.710938</ele>
<time>2012-07-26T15:22:02Z</time>
<speed>3.070000</speed>
<extensions>
<speed>3.1</speed>
<temp>0.00</temp>
<bpm>0</bpm>
<rpm>0.00</rpm>
</extensions>
</trkpt>
<trkpt lat="63.704669952" lon="-19.535509109">
<ele>229.289063</ele>
<time>2012-07-26T15:22:07Z</time>
<speed>3.010000</speed>
<extensions>
<speed>3.0</speed>
<temp>0.00</temp>
<bpm>0</bpm>
<rpm>0.00</rpm>
</extensions>
</trkpt>
<trkpt lat="63.704574585" lon="-19.535779953">
<ele>231.031250</ele>
<time>2012-07-26T15:22:12Z</time>
<speed>3.680000</speed>
<extensions>
<speed>3.7</speed>
<temp>0.00</temp>
<bpm>0</bpm>
<rpm>0.00</rpm>
</extensions>
</trkpt>
<trkpt lat="63.704452515" lon="-19.536083221">
<ele>231.371094</ele>
<time>2012-07-26T15:22:17Z</time>
<speed>3.540000</speed>
<extensions>
<speed>3.5</speed>
<temp>0.00</temp>
<bpm>0</bpm>
<rpm>0.00</rpm>
</extensions>
</trkpt>
<trkpt lat="63.704368591" lon="-19.536304474">
<ele>232.777344</ele>
<time>2012-07-26T15:22:22Z</time>
<speed>2.620000</speed>
<extensions>
<speed>2.6</speed>
<temp>0.00</temp>
<bpm>0</bpm>
<rpm>0.00</rpm>
</extensions>
</trkpt>
<trkpt lat="63.704292297" lon="-19.536464691">
<ele>230.671875</ele>
<time>2012-07-26T15:22:27Z</time>
<speed>2.630000</speed>
<extensions>
<speed>2.6</speed>
<temp>0.00</temp>
<bpm>0</bpm>
<rpm>0.00</rpm>
</extensions>
</trkpt>
<trkpt lat="63.704193115" lon="-19.536653519">
<ele>230.203125</ele>
<time>2012-07-26T15:22:32Z</time>
<speed>3.070000</speed>
<extensions>
<speed>3.1</speed>
<temp>0.00</temp>
<bpm>0</bpm>
<rpm>0.00</rpm>
</extensions>
</trkpt>
<trkpt lat="63.704086304" lon="-19.536853790">
<ele>229.566406</ele>
<time>2012-07-26T15:22:37Z</time>
<speed>3.240000</speed>
<extensions>
<speed>3.2</speed>
<temp>0.00</temp>
<bpm>0</bpm>
<rpm>0.00</rpm>
</extensions>
</trkpt>
<trkpt lat="63.703998566" lon="-19.537042618">
<ele>230.535156</ele>
<time>2012-07-26T15:22:42Z</time>
<speed>2.310000</speed>
<extensions>
<speed>2.3</speed>
<temp>0.00</temp>
<bpm>0</bpm>
<rpm>0.00</rpm>
</extensions>
</trkpt>
<trkpt lat="63.703903198" lon="-19.537223816">
<ele>229.695313</ele>
<time>2012-07-26T15:22:47Z</time>
<speed>3.290000</speed>
<extensions>
<speed>3.3</speed>
<temp>0.00</temp>
<bpm>0</bpm>
<rpm>0.00</rpm>
</extensions>
</trkpt>
<trkpt lat="63.703781128" lon="-19.537485123">
<ele>230.902344</ele>
<time>2012-07-26T15:22:52Z</time>
<speed>3.830000</speed>
<extensions>
<speed>3.8</speed>
<temp>0.00</temp>
<bpm>0</bpm>
<rpm>0.00</rpm>
</extensions>
</trkpt>
<trkpt lat="63.703655243" lon="-19.537797928">
<ele>231.464844</ele>
<time>2012-07-26T15:22:57Z</time>
<speed>3.960000</speed>
<extensions>
<speed>4.0</speed>
<temp>0.00</temp>
<bpm>0</bpm>
<rpm>0.00</rpm>
</extensions>
</trkpt>
<trkpt lat="63.703556061" lon="-19.538055420">
<ele>231.636719</ele>
<time>2012-07-26T15:23:02Z</time>
<speed>2.850000</speed>
<extensions>
<speed>2.9</speed>
<temp>0.00</temp>
<bpm>0</bpm>
<rpm>0.00</rpm>
</extensions>
</trkpt>
<trkpt lat="63.703472137" lon="-19.538242340">
<ele>231.023438</ele>
<time>2012-07-26T15:23:07Z</time>
<speed>2.570000</speed>
<extensions>
<speed>2.6</speed>
<temp>0.00</temp>
<bpm>0</bpm>
<rpm>0.00</rpm>
</extensions>
</trkpt>
<trkpt lat="63.703384399" lon="-19.538433075">
<ele>229.503906</ele>
<time>2012-07-26T15:23:12Z</time>
<speed>2.800000</speed>
<extensions>
<speed>2.8</speed>
<temp>0.00</temp>
<bpm>0</bpm>
<rpm>0.00</rpm>
</extensions>
</trkpt>
<trkpt lat="63.703285217" lon="-19.538660049">
<ele>228.812500</ele>
<time>2012-07-26T15:23:17Z</time>
<speed>2.720000</speed>
<extensions>
<speed>2.7</speed>
<temp>0.00</temp>
<bpm>0</bpm>
<rpm>0.00</rpm>
</extensions>
</trkpt>
<trkpt lat="63.703193665" lon="-19.538866043">
<ele>226.968750</ele>
<time>2012-07-26T15:23:22Z</time>
<speed>2.720000</speed>
<extensions>
<speed>2.7</speed>
<temp>0.00</temp>
<bpm>0</bpm>
<rpm>0.00</rpm>
</extensions>
</trkpt>
<trkpt lat="63.703098297" lon="-19.539106369">
<ele>227.238281</ele>
<time>2012-07-26T15:23:27Z</time>
<speed>3.480000</speed>
<extensions>
<speed>3.5</speed>
<temp>0.00</temp>
<bpm>0</bpm>
<rpm>0.00</rpm>
</extensions>
</trkpt>
<trkpt lat="63.702999115" lon="-19.539358139">
<ele>227.847656</ele>
<time>2012-07-26T15:23:32Z</time>
<speed>2.990000</speed>
<extensions>
<speed>3.0</speed>
<temp>0.00</temp>
<bpm>0</bpm>
<rpm>0.00</rpm>
</extensions>
</trkpt>
<trkpt lat="63.702884674" lon="-19.539667130">
<ele>227.042969</ele>
<time>2012-07-26T15:23:37Z</time>
<speed>4.060000</speed>
<extensions>
<speed>4.1</speed>
<temp>0.00</temp>
<bpm>0</bpm>
<rpm>0.00</rpm>
</extensions>
</trkpt>
<trkpt lat="63.702785492" lon="-19.539960861">
<ele>228.746094</ele>
<time>2012-07-26T15:23:42Z</time>
<speed>3.340000</speed>
<extensions>
<speed>3.3</speed>
<temp>0.00</temp>
<bpm>0</bpm>
<rpm>0.00</rpm>
</extensions>
</trkpt>
<trkpt lat="63.702701569" lon="-19.540208817">
<ele>228.691406</ele>
<time>2012-07-26T15:23:47Z</time>
<speed>2.330000</speed>
<extensions>
<speed>2.3</speed>
<temp>0.00</temp>
<bpm>0</bpm>
<rpm>0.00</rpm>
</extensions>
</trkpt>
<trkpt lat="63.702625275" lon="-19.540382385">
<ele>228.304688</ele>
<time>2012-07-26T15:23:52Z</time>
<speed>2.830000</speed>
<extensions>
<speed>2.8</speed>
<temp>0.00</temp>
<bpm>0</bpm>
<rpm>0.00</rpm>
</extensions>
</trkpt>
<trkpt lat="63.702537537" lon="-19.540597916">
<ele>228.527344</ele>
<time>2012-07-26T15:23:57Z</time>
<speed>3.110000</speed>
<extensions>
<speed>3.1</speed>
<temp>0.00</temp>
<bpm>0</bpm>
<rpm>0.00</rpm>
</extensions>
</trkpt>
<trkpt lat="63.702461243" lon="-19.540838242">
<ele>227.406250</ele>
<time>2012-07-26T15:24:02Z</time>
<speed>2.850000</speed>
<extensions>
<speed>2.9</speed>
<temp>0.00</temp>
<bpm>0</bpm>
<rpm>0.00</rpm>
</extensions>
</trkpt>
<trkpt lat="63.702388763" lon="-19.541074753">
<ele>227.210938</ele>
<time>2012-07-26T15:24:07Z</time>
<speed>2.930000</speed>
<extensions>
<speed>2.9</speed>
<temp>0.00</temp>
<bpm>0</bpm>
<rpm>0.00</rpm>
</extensions>
</trkpt>
<trkpt lat="63.702323914" lon="-19.541316986">
<ele>226.808594</ele>
<time>2012-07-26T15:24:12Z</time>
<speed>2.820000</speed>
<extensions>
<speed>2.8</speed>
<temp>0.00</temp>
<bpm>0</bpm>
<rpm>0.00</rpm>
</extensions>
</trkpt>
<trkpt lat="63.702247620" lon="-19.541563034">
<ele>225.933594</ele>
<time>2012-07-26T15:24:17Z</time>
<speed>2.960000</speed>
<extensions>
<speed>3.0</speed>
<temp>0.00</temp>
<bpm>0</bpm>
<rpm>0.00</rpm>
</extensions>
</trkpt>
<trkpt lat="63.702171326" lon="-19.541748047">
<ele>227.191406</ele>
<time>2012-07-26T15:24:22Z</time>
<speed>1.830000</speed>
<extensions>
<speed>1.8</speed>
<temp>0.00</temp>
<bpm>0</bpm>
<rpm>0.00</rpm>
</extensions>
</trkpt>
<trkpt lat="63.702106476" lon="-19.541921616">
<ele>226.914063</ele>
<time>2012-07-26T15:24:27Z</time>
<speed>2.760000</speed>
<extensions>
<speed>2.8</speed>
<temp>0.00</temp>
<bpm>0</bpm>
<rpm>0.00</rpm>
</extensions>
</trkpt>
<trkpt lat="63.702041626" lon="-19.542140961">
<ele>225.839844</ele>
<time>2012-07-26T15:24:32Z</time>
<speed>2.840000</speed>
<extensions>
<speed>2.8</speed>
<temp>0.00</temp>
<bpm>0</bpm>
<rpm>0.00</rpm>
</extensions>
</trkpt>
<trkpt lat="63.701965332" lon="-19.542381287">
<ele>224.839844</ele>
<time>2012-07-26T15:24:37Z</time>
<speed>3.090000</speed>
<extensions>
<speed>3.1</speed>
<temp>0.00</temp>
<bpm>0</bpm>
<rpm>0.00</rpm>
</extensions>
</trkpt>
<trkpt lat="63.701889038" lon="-19.542652130">
<ele>224.617188</ele>
<time>2012-07-26T15:24:42Z</time>
<speed>3.020000</speed>
<extensions>
<speed>3.0</speed>
<temp>0.00</temp>
<bpm>0</bpm>
<rpm>0.00</rpm>
</extensions>
</trkpt>
<trkpt lat="63.701801300" lon="-19.542936325">
<ele>224.882813</ele>
<time>2012-07-26T15:24:47Z</time>
<speed>3.420000</speed>
<extensions>
<speed>3.4</speed>
<temp>0.00</temp>
<bpm>0</bpm>
<rpm>0.00</rpm>
</extensions>
</trkpt>
<trkpt lat="63.701728821" lon="-19.543201447">
<ele>226.414063</ele>
<time>2012-07-26T15:24:52Z</time>
<speed>2.440000</speed>
<extensions>
<speed>2.4</speed>
<temp>0.00</temp>
<bpm>0</bpm>
<rpm>0.00</rpm>
</extensions>
</trkpt>
<trkpt lat="63.701686859" lon="-19.543333054">
<ele>226.917969</ele>
<time>2012-07-26T15:24:57Z</time>
<speed>0.920000</speed>
<extensions>
<speed>0.9</speed>
<temp>0.00</temp>
<bpm>0</bpm>
<rpm>0.00</rpm>
</extensions>
</trkpt>
<trkpt lat="63.701683044" lon="-19.543333054">
<ele>225.531250</ele>
<time>2012-07-26T15:25:02Z</time>
<speed>0.120000</speed>
<extensions>
<speed>0.1</speed>
<temp>0.00</temp>
<bpm>0</bpm>
<rpm>0.00</rpm>
</extensions>
</trkpt>
<trkpt lat="63.701683044" lon="-19.543321609">
<ele>225.402344</ele>
<time>2012-07-26T15:25:07Z</time>
<speed>0.770000</speed>
<extensions>
<speed>0.8</speed>
<temp>0.00</temp>
<bpm>0</bpm>
<rpm>0.00</rpm>
</extensions>
</trkpt>
<trkpt lat="63.701648712" lon="-19.543449402">
<ele>224.859375</ele>
<time>2012-07-26T15:25:12Z</time>
<speed>2.060000</speed>
<extensions>
<speed>2.1</speed>
<temp>0.00</temp>
<bpm>0</bpm>
<rpm>0.00</rpm>
</extensions>
</trkpt>
<trkpt lat="63.701583862" lon="-19.543661118">
<ele>224.011719</ele>
<time>2012-07-26T15:25:17Z</time>
<speed>2.530000</speed>
<extensions>
<speed>2.5</speed>
<temp>0.00</temp>
<bpm>0</bpm>
<rpm>0.00</rpm>
</extensions>
</trkpt>
<trkpt lat="63.701526642" lon="-19.543876648">
<ele>222.117188</ele>
<time>2012-07-26T15:25:22Z</time>
<speed>2.370000</speed>
<extensions>
<speed>2.4</speed>
<temp>0.00</temp>
<bpm>0</bpm>
<rpm>0.00</rpm>
</extensions>
</trkpt>
<trkpt lat="63.701461792" lon="-19.544090271">
<ele>221.964844</ele>
<time>2012-07-26T15:25:27Z</time>
<speed>2.720000</speed>
<extensions>
<speed>2.7</speed>
<temp>0.00</temp>
<bpm>0</bpm>
<rpm>0.00</rpm>
</extensions>
</trkpt>
<trkpt lat="63.701389313" lon="-19.544322968">
<ele>221.371094</ele>
<time>2012-07-26T15:25:32Z</time>
<speed>2.690000</speed>
<extensions>
<speed>2.7</speed>
<temp>0.00</temp>
<bpm>0</bpm>
<rpm>0.00</rpm>
</extensions>
</trkpt>
<trkpt lat="63.701320648" lon="-19.544586182">
<ele>220.824219</ele>
<time>2012-07-26T15:25:37Z</time>
<speed>3.100000</speed>
<extensions>
<speed>3.1</speed>
<temp>0.00</temp>
<bpm>0</bpm>
<rpm>0.00</rpm>
</extensions>
</trkpt>
<trkpt lat="63.701236725" lon="-19.544874191">
<ele>221.050781</ele>
<time>2012-07-26T15:25:42Z</time>
<speed>3.130000</speed>
<extensions>
<speed>3.1</speed>
<temp>0.00</temp>
<bpm>0</bpm>
<rpm>0.00</rpm>
</extensions>
</trkpt>
<trkpt lat="63.701148987" lon="-19.545164108">
<ele>221.363281</ele>
<time>2012-07-26T15:25:47Z</time>
<speed>3.560000</speed>
<extensions>
<speed>3.6</speed>
<temp>0.00</temp>
<bpm>0</bpm>
<rpm>0.00</rpm>
</extensions>
</trkpt>
<trkpt lat="63.701068878" lon="-19.545459747">
<ele>221.335938</ele>
<time>2012-07-26T15:25:52Z</time>
<speed>3.110000</speed>
<extensions>
<speed>3.1</speed>
<temp>0.00</temp>
<bpm>0</bpm>
<rpm>0.00</rpm>
</extensions>
</trkpt>
<trkpt lat="63.700981140" lon="-19.545766830">
<ele>221.109375</ele>
<time>2012-07-26T15:25:57Z</time>
<speed>3.770000</speed>
<extensions>
<speed>3.8</speed>
<temp>0.00</temp>
<bpm>0</bpm>
<rpm>0.00</rpm>
</extensions>
</trkpt>
<trkpt lat="63.700878143" lon="-19.546094894">
<ele>219.902344</ele>
<time>2012-07-26T15:26:02Z</time>
<speed>3.730000</speed>
<extensions>
<speed>3.7</speed>
<temp>0.00</temp>
<bpm>0</bpm>
<rpm>0.00</rpm>
</extensions>
</trkpt>
<trkpt lat="63.700778961" lon="-19.546428680">
<ele>219.496094</ele>
<time>2012-07-26T15:26:07Z</time>
<speed>3.930000</speed>
<extensions>
<speed>3.9</speed>
<temp>0.00</temp>
<bpm>0</bpm>
<rpm>0.00</rpm>
</extensions>
</trkpt>
<trkpt lat="63.700683594" lon="-19.546731949">
<ele>219.996094</ele>
<time>2012-07-26T15:26:12Z</time>
<speed>3.400000</speed>
<extensions>
<speed>3.4</speed>
<temp>0.00</temp>
<bpm>0</bpm>
<rpm>0.00</rpm>
</extensions>
</trkpt>
<trkpt lat="63.700576782" lon="-19.546995163">
<ele>220.085938</ele>
<time>2012-07-26T15:26:17Z</time>
<speed>3.180000</speed>
<extensions>
<speed>3.2</speed>
<temp>0.00</temp>
<bpm>0</bpm>
<rpm>0.00</rpm>
</extensions>
</trkpt>
<trkpt lat="63.700489044" lon="-19.547231674">
<ele>220.503906</ele>
<time>2012-07-26T15:26:22Z</time>
<speed>2.550000</speed>
<extensions>
<speed>2.6</speed>
<temp>0.00</temp>
<bpm>0</bpm>
<rpm>0.00</rpm>
</extensions>
</trkpt>
<trkpt lat="63.700393677" lon="-19.547472000">
<ele>221.410156</ele>
<time>2012-07-26T15:26:27Z</time>
<speed>3.350000</speed>
<extensions>
<speed>3.4</speed>
<temp>0.00</temp>
<bpm>0</bpm>
<rpm>0.00</rpm>
</extensions>
</trkpt>
<trkpt lat="63.700271606" lon="-19.547731400">
<ele>221.031250</ele>
<time>2012-07-26T15:26:32Z</time>
<speed>3.540000</speed>
<extensions>
<speed>3.5</speed>
<temp>0.00</temp>
<bpm>0</bpm>
<rpm>0.00</rpm>
</extensions>
</trkpt>
<trkpt lat="63.700153351" lon="-19.547966003">
<ele>220.324219</ele>
<time>2012-07-26T15:26:37Z</time>
<speed>3.620000</speed>
<extensions>
<speed>3.6</speed>
<temp>0.00</temp>
<bpm>0</bpm>
<rpm>0.00</rpm>
</extensions>
</trkpt>
<trkpt lat="63.700035095" lon="-19.548234940">
<ele>220.164063</ele>
<time>2012-07-26T15:26:42Z</time>
<speed>3.660000</speed>
<extensions>
<speed>3.7</speed>
<temp>0.00</temp>
<bpm>0</bpm>
<rpm>0.00</rpm>
</extensions>
</trkpt>
<trkpt lat="63.699920654" lon="-19.548501968">
<ele>219.367188</ele>
<time>2012-07-26T15:26:47Z</time>
<speed>3.600000</speed>
<extensions>
<speed>3.6</speed>
<temp>0.00</temp>
<bpm>0</bpm>
<rpm>0.00</rpm>
</extensions>
</trkpt>
<trkpt lat="63.699844360" lon="-19.548698425">
<ele>218.589844</ele>
<time>2012-07-26T15:26:52Z</time>
<speed>1.060000</speed>
<extensions>
<speed>1.1</speed>
<temp>0.00</temp>
<bpm>0</bpm>
<rpm>0.00</rpm>
</extensions>
</trkpt>
<trkpt lat="63.699821472" lon="-19.548816681">
<ele>217.347656</ele>
<time>2012-07-26T15:26:57Z</time>
<speed>1.630000</speed>
<extensions>
<speed>1.6</speed>
<temp>0.00</temp>
<bpm>0</bpm>
<rpm>0.00</rpm>
</extensions>
</trkpt>
<trkpt lat="63.699752808" lon="-19.549083710">
<ele>216.003906</ele>
<time>2012-07-26T15:27:02Z</time>
<speed>3.110000</speed>
<extensions>
<speed>3.1</speed>
<temp>0.00</temp>
<bpm>0</bpm>
<rpm>0.00</rpm>
</extensions>
</trkpt>
<trkpt lat="63.699657440" lon="-19.549463272">
<ele>213.609375</ele>
<time>2012-07-26T15:27:07Z</time>
<speed>4.810000</speed>
<extensions>
<speed>4.8</speed>
<temp>0.00</temp>
<bpm>0</bpm>
<rpm>0.00</rpm>
</extensions>
</trkpt>
<trkpt lat="63.699577332" lon="-19.549926758">
<ele>213.394531</ele>
<time>2012-07-26T15:27:12Z</time>
<speed>4.340000</speed>
<extensions>
<speed>4.3</speed>
<temp>0.00</temp>
<bpm>0</bpm>
<rpm>0.00</rpm>
</extensions>
</trkpt>
<trkpt lat="63.699508667" lon="-19.550308228">
<ele>212.878906</ele>
<time>2012-07-26T15:27:17Z</time>
<speed>3.440000</speed>
<extensions>
<speed>3.4</speed>
<temp>0.00</temp>
<bpm>0</bpm>
<rpm>0.00</rpm>
</extensions>
</trkpt>
<trkpt lat="63.699424744" lon="-19.550701141">
<ele>212.632813</ele>
<time>2012-07-26T15:27:22Z</time>
<speed>4.320000</speed>
<extensions>
<speed>4.3</speed>
<temp>0.00</temp>
<bpm>0</bpm>
<rpm>0.00</rpm>
</extensions>
</trkpt>
<trkpt lat="63.699378967" lon="-19.550985336">
<ele>211.335938</ele>
<time>2012-07-26T15:27:27Z</time>
<speed>2.710000</speed>
<extensions>
<speed>2.7</speed>
<temp>0.00</temp>
<bpm>0</bpm>
<rpm>0.00</rpm>
</extensions>
</trkpt>
<trkpt lat="63.699321747" lon="-19.551248550">
<ele>211.515625</ele>
<time>2012-07-26T15:27:32Z</time>
<speed>2.960000</speed>
<extensions>
<speed>3.0</speed>
<temp>0.00</temp>
<bpm>0</bpm>
<rpm>0.00</rpm>
</extensions>
</trkpt>
<trkpt lat="63.699245453" lon="-19.551521301">
<ele>210.511719</ele>
<time>2012-07-26T15:27:37Z</time>
<speed>3.380000</speed>
<extensions>
<speed>3.4</speed>
<temp>0.00</temp>
<bpm>0</bpm>
<rpm>0.00</rpm>
</extensions>
</trkpt>
<trkpt lat="63.699169159" lon="-19.551837921">
<ele>211.808594</ele>
<time>2012-07-26T15:27:42Z</time>
<speed>3.130000</speed>
<extensions>
<speed>3.1</speed>
<temp>0.00</temp>
<bpm>0</bpm>
<rpm>0.00</rpm>
</extensions>
</trkpt>
<trkpt lat="63.699104309" lon="-19.552118301">
<ele>211.886719</ele>
<time>2012-07-26T15:27:47Z</time>
<speed>3.060000</speed>
<extensions>
<speed>3.1</speed>
<temp>0.00</temp>
<bpm>0</bpm>
<rpm>0.00</rpm>
</extensions>
</trkpt>
<trkpt lat="63.699020386" lon="-19.552381516">
<ele>211.183594</ele>
<time>2012-07-26T15:27:52Z</time>
<speed>3.510000</speed>
<extensions>
<speed>3.5</speed>
<temp>0.00</temp>
<bpm>0</bpm>
<rpm>0.00</rpm>
</extensions>
</trkpt>
<trkpt lat="63.698925018" lon="-19.552646637">
<ele>211.226563</ele>
<time>2012-07-26T15:27:57Z</time>
<speed>3.520000</speed>
<extensions>
<speed>3.5</speed>
<temp>0.00</temp>
<bpm>0</bpm>
<rpm>0.00</rpm>
</extensions>
</trkpt>
<trkpt lat="63.698806763" lon="-19.552923203">
<ele>212.160156</ele>
<time>2012-07-26T15:28:02Z</time>
<speed>3.680000</speed>
<extensions>
<speed>3.7</speed>
<temp>0.00</temp>
<bpm>0</bpm>
<rpm>0.00</rpm>
</extensions>
</trkpt>
<trkpt lat="63.698730469" lon="-19.553079605">
<ele>212.808594</ele>
<time>2012-07-26T15:28:07Z</time>
<speed>1.110000</speed>
<extensions>
<speed>1.1</speed>
<temp>0.00</temp>
<bpm>0</bpm>
<rpm>0.00</rpm>
</extensions>
</trkpt>
<trkpt lat="63.698726654" lon="-19.553068161">
<ele>212.226563</ele>
<time>2012-07-26T15:28:12Z</time>
<speed>0.040000</speed>
<extensions>
<speed>0.0</speed>
<temp>0.00</temp>
<bpm>0</bpm>
<rpm>0.00</rpm>
</extensions>
</trkpt>
<trkpt lat="63.698726654" lon="-19.553068161">
<ele>212.277344</ele>
<time>2012-07-26T15:28:17Z</time>
<speed>0.020000</speed>
<extensions>
<speed>0.0</speed>
<temp>0.00</temp>
<bpm>0</bpm>
<rpm>0.00</rpm>
</extensions>
</trkpt>
<trkpt lat="63.698730469" lon="-19.553068161">
<ele>212.199219</ele>
<time>2012-07-26T15:28:22Z</time>
<speed>0.030000</speed>
<extensions>
<speed>0.0</speed>
<temp>0.00</temp>
<bpm>0</bpm>
<rpm>0.00</rpm>
</extensions>
</trkpt>
<trkpt lat="63.698734283" lon="-19.553064346">
<ele>212.011719</ele>
<time>2012-07-26T15:28:27Z</time>
<speed>0.050000</speed>
<extensions>
<speed>0.1</speed>
<temp>0.00</temp>
<bpm>0</bpm>
<rpm>0.00</rpm>
</extensions>
</trkpt>
<trkpt lat="63.698738098" lon="-19.553058624">
<ele>211.933594</ele>
<time>2012-07-26T15:28:32Z</time>
<speed>0.190000</speed>
<extensions>
<speed>0.2</speed>
<temp>0.00</temp>
<bpm>0</bpm>
<rpm>0.00</rpm>
</extensions>
</trkpt>
<trkpt lat="63.698741913" lon="-19.553052902">
<ele>211.898438</ele>
<time>2012-07-26T15:28:37Z</time>
<speed>0.180000</speed>
<extensions>
<speed>0.2</speed>
<temp>0.00</temp>
<bpm>0</bpm>
<rpm>0.00</rpm>
</extensions>
</trkpt>
<trkpt lat="63.698753357" lon="-19.553043365">
<ele>211.882813</ele>
<time>2012-07-26T15:28:42Z</time>
<speed>0.310000</speed>
<extensions>
<speed>0.3</speed>
<temp>0.00</temp>
<bpm>0</bpm>
<rpm>0.00</rpm>
</extensions>
</trkpt>
<trkpt lat="63.698764801" lon="-19.553035736">
<ele>211.839844</ele>
<time>2012-07-26T15:28:47Z</time>
<speed>0.300000</speed>
<extensions>
<speed>0.3</speed>
<temp>0.00</temp>
<bpm>0</bpm>
<rpm>0.00</rpm>
</extensions>
</trkpt>
<trkpt lat="63.698772430" lon="-19.553028107">
<ele>211.785156</ele>
<time>2012-07-26T15:28:52Z</time>
<speed>0.250000</speed>
<extensions>
<speed>0.2</speed>
<temp>0.00</temp>
<bpm>0</bpm>
<rpm>0.00</rpm>
</extensions>
</trkpt>
<trkpt lat="63.698783875" lon="-19.553024292">
<ele>211.714844</ele>
<time>2012-07-26T15:28:57Z</time>
<speed>0.200000</speed>
<extensions>
<speed>0.2</speed>
<temp>0.00</temp>
<bpm>0</bpm>
<rpm>0.00</rpm>
</extensions>
</trkpt>
<trkpt lat="63.698795319" lon="-19.553018570">
<ele>211.632813</ele>
<time>2012-07-26T15:29:02Z</time>
<speed>0.320000</speed>
<extensions>
<speed>0.3</speed>
<temp>0.00</temp>
<bpm>0</bpm>
<rpm>0.00</rpm>
</extensions>
</trkpt>
<trkpt lat="63.698802948" lon="-19.553014755">
<ele>211.585938</ele>
<time>2012-07-26T15:29:07Z</time>
<speed>0.110000</speed>
<extensions>
<speed>0.1</speed>
<temp>0.00</temp>
<bpm>0</bpm>
<rpm>0.00</rpm>
</extensions>
</trkpt>
<trkpt lat="63.698810577" lon="-19.553016663">
<ele>211.566406</ele>
<time>2012-07-26T15:29:12Z</time>
<speed>0.180000</speed>
<extensions>
<speed>0.2</speed>
<temp>0.00</temp>
<bpm>0</bpm>
<rpm>0.00</rpm>
</extensions>
</trkpt>
<trkpt lat="63.698814392" lon="-19.553012848">
<ele>211.500000</ele>
<time>2012-07-26T15:29:17Z</time>
<speed>0.030000</speed>
<extensions>
<speed>0.0</speed>
<temp>0.00</temp>
<bpm>0</bpm>
<rpm>0.00</rpm>
</extensions>
</trkpt>
<trkpt lat="63.698818207" lon="-19.553010941">
<ele>211.449219</ele>
<time>2012-07-26T15:29:22Z</time>
<speed>0.170000</speed>
<extensions>
<speed>0.2</speed>
<temp>0.00</temp>
<bpm>0</bpm>
<rpm>0.00</rpm>
</extensions>
</trkpt>
<trkpt lat="63.698825836" lon="-19.553005219">
<ele>211.453125</ele>
<time>2012-07-26T15:29:27Z</time>
<speed>0.200000</speed>
<extensions>
<speed>0.2</speed>
<temp>0.00</temp>
<bpm>0</bpm>
<rpm>0.00</rpm>
</extensions>
</trkpt>
<trkpt lat="63.698833466" lon="-19.552999496">
<ele>211.488281</ele>
<time>2012-07-26T15:29:32Z</time>
<speed>0.090000</speed>
<extensions>
<speed>0.1</speed>
<temp>0.00</temp>
<bpm>0</bpm>
<rpm>0.00</rpm>
</extensions>
</trkpt>
<trkpt lat="63.698829651" lon="-19.552991867">
<ele>211.582031</ele>
<time>2012-07-26T15:29:37Z</time>
<speed>0.290000</speed>
<extensions>
<speed>0.3</speed>
<temp>0.00</temp>
<bpm>0</bpm>
<rpm>0.00</rpm>
</extensions>
</trkpt>
<trkpt lat="63.698822021" lon="-19.552970886">
<ele>211.562500</ele>
<time>2012-07-26T15:29:42Z</time>
<speed>0.190000</speed>
<extensions>
<speed>0.2</speed>
<temp>0.00</temp>
<bpm>0</bpm>
<rpm>0.00</rpm>
</extensions>
</trkpt>
<trkpt lat="63.698818207" lon="-19.552955627">
<ele>211.523438</ele>
<time>2012-07-26T15:29:47Z</time>
<speed>0.180000</speed>
<extensions>
<speed>0.2</speed>
<temp>0.00</temp>
<bpm>0</bpm>
<rpm>0.00</rpm>
</extensions>
</trkpt>
<trkpt lat="63.698806763" lon="-19.552944183">
<ele>211.445313</ele>
<time>2012-07-26T15:29:52Z</time>
<speed>0.210000</speed>
<extensions>
<speed>0.2</speed>
<temp>0.00</temp>
<bpm>0</bpm>
<rpm>0.00</rpm>
</extensions>
</trkpt>
<trkpt lat="63.698802948" lon="-19.552928925">
<ele>211.398438</ele>
<time>2012-07-26T15:29:57Z</time>
<speed>0.170000</speed>
<extensions>
<speed>0.2</speed>
<temp>0.00</temp>
<bpm>0</bpm>
<rpm>0.00</rpm>
</extensions>
</trkpt>
<trkpt lat="63.698799133" lon="-19.552917480">
<ele>211.304688</ele>
<time>2012-07-26T15:30:02Z</time>
<speed>0.150000</speed>
<extensions>
<speed>0.2</speed>
<temp>0.00</temp>
<bpm>0</bpm>
<rpm>0.00</rpm>
</extensions>
</trkpt>
<trkpt lat="63.698791504" lon="-19.552917480">
<ele>211.144531</ele>
<time>2012-07-26T15:30:07Z</time>
<speed>0.100000</speed>
<extensions>
<speed>0.1</speed>
<temp>0.00</temp>
<bpm>0</bpm>
<rpm>0.00</rpm>
</extensions>
</trkpt>
<trkpt lat="63.698787689" lon="-19.552913666">
<ele>210.933594</ele>
<time>2012-07-26T15:30:12Z</time>
<speed>0.170000</speed>
<extensions>
<speed>0.2</speed>
<temp>0.00</temp>
<bpm>0</bpm>
<rpm>0.00</rpm>
</extensions>
</trkpt>
<trkpt lat="63.698780060" lon="-19.552909851">
<ele>210.699219</ele>
<time>2012-07-26T15:30:17Z</time>
<speed>0.120000</speed>
<extensions>
<speed>0.1</speed>
<temp>0.00</temp>
<bpm>0</bpm>
<rpm>0.00</rpm>
</extensions>
</trkpt>
<trkpt lat="63.698776245" lon="-19.552906036">
<ele>210.523438</ele>
<time>2012-07-26T15:30:22Z</time>
<speed>0.330000</speed>
<extensions>
<speed>0.3</speed>
<temp>0.00</temp>
<bpm>0</bpm>
<rpm>0.00</rpm>
</extensions>
</trkpt>
<trkpt lat="63.698764801" lon="-19.552923203">
<ele>210.000000</ele>
<time>2012-07-26T15:30:27Z</time>
<speed>0.180000</speed>
<extensions>
<speed>0.2</speed>
<temp>0.00</temp>
<bpm>0</bpm>
<rpm>0.00</rpm>
</extensions>
</trkpt>
<trkpt lat="63.698764801" lon="-19.552921295">
<ele>209.644531</ele>
<time>2012-07-26T15:30:32Z</time>
<speed>0.110000</speed>
<extensions>
<speed>0.1</speed>
<temp>0.00</temp>
<bpm>0</bpm>
<rpm>0.00</rpm>
</extensions>
</trkpt>
<trkpt lat="63.698760986" lon="-19.552923203">
<ele>209.105469</ele>
<time>2012-07-26T15:30:37Z</time>
<speed>0.010000</speed>
<extensions>
<speed>0.0</speed>
<temp>0.00</temp>
<bpm>0</bpm>
<rpm>0.00</rpm>
</extensions>
</trkpt>
<trkpt lat="63.698760986" lon="-19.552923203">
<ele>208.960938</ele>
<time>2012-07-26T15:30:42Z</time>
<speed>0.190000</speed>
<extensions>
<speed>0.2</speed>
<temp>0.00</temp>
<bpm>0</bpm>
<rpm>0.00</rpm>
</extensions>
</trkpt>
<trkpt lat="63.698757172" lon="-19.552928925">
<ele>208.917969</ele>
<time>2012-07-26T15:30:47Z</time>
<extensions>
<speed>0.0</speed>
<temp>0.00</temp>
<bpm>0</bpm>
<rpm>0.00</rpm>
</extensions>
</trkpt>
<trkpt lat="63.698757172" lon="-19.552928925">
<ele>208.925781</ele>
<time>2012-07-26T15:30:52Z</time>
<speed>0.030000</speed>
<extensions>
<speed>0.0</speed>
<temp>0.00</temp>
<bpm>0</bpm>
<rpm>0.00</rpm>
</extensions>
</trkpt>
<trkpt lat="63.698757172" lon="-19.552930832">
<ele>208.890625</ele>
<time>2012-07-26T15:30:57Z</time>
<speed>0.110000</speed>
<extensions>
<speed>0.1</speed>
<temp>0.00</temp>
<bpm>0</bpm>
<rpm>0.00</rpm>
</extensions>
</trkpt>
<trkpt lat="63.698760986" lon="-19.552982330">
<ele>208.878906</ele>
<time>2012-07-26T15:31:02Z</time>
<speed>1.150000</speed>
<extensions>
<speed>1.1</speed>
<temp>0.00</temp>
<bpm>0</bpm>
<rpm>0.00</rpm>
</extensions>
</trkpt>
<trkpt lat="63.698787689" lon="-19.553224564">
<ele>209.101563</ele>
<time>2012-07-26T15:31:07Z</time>
<speed>2.500000</speed>
<extensions>
<speed>2.5</speed>
<temp>0.00</temp>
<bpm>0</bpm>
<rpm>0.00</rpm>
</extensions>
</trkpt>
<trkpt lat="63.698814392" lon="-19.553447723">
<ele>210.320313</ele>
<time>2012-07-26T15:31:12Z</time>
<speed>1.410000</speed>
<extensions>
<speed>1.4</speed>
<temp>0.00</temp>
<bpm>0</bpm>
<rpm>0.00</rpm>
</extensions>
</trkpt>
<trkpt lat="63.698837280" lon="-19.553655624">
<ele>210.687500</ele>
<time>2012-07-26T15:31:17Z</time>
<speed>2.860000</speed>
<extensions>
<speed>2.9</speed>
<temp>0.00</temp>
<bpm>0</bpm>
<rpm>0.00</rpm>
</extensions>
</trkpt>
<trkpt lat="63.698871613" lon="-19.554056168">
<ele>209.878906</ele>
<time>2012-07-26T15:31:22Z</time>
<speed>4.270000</speed>
<extensions>
<speed>4.3</speed>
<temp>0.00</temp>
<bpm>0</bpm>
<rpm>0.00</rpm>
</extensions>
</trkpt>
<trkpt lat="63.698822021" lon="-19.554416656">
<ele>209.968750</ele>
<time>2012-07-26T15:31:27Z</time>
<speed>3.110000</speed>
<extensions>
<speed>3.1</speed>
<temp>0.00</temp>
<bpm>0</bpm>
<rpm>0.00</rpm>
</extensions>
</trkpt>
<trkpt lat="63.698783875" lon="-19.554674149">
<ele>209.812500</ele>
<time>2012-07-26T15:31:32Z</time>
<speed>2.900000</speed>
<extensions>
<speed>2.9</speed>
<temp>0.00</temp>
<bpm>0</bpm>
<rpm>0.00</rpm>
</extensions>
</trkpt>
<trkpt lat="63.698757172" lon="-19.554994583">
<ele>209.562500</ele>
<time>2012-07-26T15:31:37Z</time>
<speed>3.210000</speed>
<extensions>
<speed>3.2</speed>
<temp>0.00</temp>
<bpm>0</bpm>
<rpm>0.00</rpm>
</extensions>
</trkpt>
<trkpt lat="63.698738098" lon="-19.555290222">
<ele>210.371094</ele>
<time>2012-07-26T15:31:42Z</time>
<speed>2.730000</speed>
<extensions>
<speed>2.7</speed>
<temp>0.00</temp>
<bpm>0</bpm>
<rpm>0.00</rpm>
</extensions>
</trkpt>
<trkpt lat="63.698719025" lon="-19.555574417">
<ele>209.906250</ele>
<time>2012-07-26T15:31:47Z</time>
<speed>3.150000</speed>
<extensions>
<speed>3.2</speed>
<temp>0.00</temp>
<bpm>0</bpm>
<rpm>0.00</rpm>
</extensions>
</trkpt>
<trkpt lat="63.698665619" lon="-19.555820465">
<ele>211.050781</ele>
<time>2012-07-26T15:31:52Z</time>
<speed>3.340000</speed>
<extensions>
<speed>3.3</speed>
<temp>0.00</temp>
<bpm>0</bpm>
<rpm>0.00</rpm>
</extensions>
</trkpt>
<trkpt lat="63.698551178" lon="-19.556097031">
<ele>208.792969</ele>
<time>2012-07-26T15:31:57Z</time>
<speed>4.190000</speed>
<extensions>
<speed>4.2</speed>
<temp>0.00</temp>
<bpm>0</bpm>
<rpm>0.00</rpm>
</extensions>
</trkpt>
<trkpt lat="63.698467255" lon="-19.556425095">
<ele>206.574219</ele>
<time>2012-07-26T15:32:02Z</time>
<speed>4.460000</speed>
<extensions>
<speed>4.5</speed>
<temp>0.00</temp>
<bpm>0</bpm>
<rpm>0.00</rpm>
</extensions>
</trkpt>
<trkpt lat="63.698352814" lon="-19.556760788">
<ele>205.667969</ele>
<time>2012-07-26T15:32:07Z</time>
<speed>4.120000</speed>
<extensions>
<speed>4.1</speed>
<temp>0.00</temp>
<bpm>0</bpm>
<rpm>0.00</rpm>
</extensions>
</trkpt>
<trkpt lat="63.698230743" lon="-19.556995392">
<ele>207.019531</ele>
<time>2012-07-26T15:32:12Z</time>
<speed>3.230000</speed>
<extensions>
<speed>3.2</speed>
<temp>0.00</temp>
<bpm>0</bpm>
<rpm>0.00</rpm>
</extensions>
</trkpt>
<trkpt lat="63.698120117" lon="-19.557205200">
<ele>208.804688</ele>
<time>2012-07-26T15:32:17Z</time>
<speed>3.120000</speed>
<extensions>
<speed>3.1</speed>
<temp>0.00</temp>
<bpm>0</bpm>
<rpm>0.00</rpm>
</extensions>
</trkpt>
<trkpt lat="63.698028564" lon="-19.557382584">
<ele>209.281250</ele>
<time>2012-07-26T15:32:22Z</time>
<speed>2.390000</speed>
<extensions>
<speed>2.4</speed>
<temp>0.00</temp>
<bpm>0</bpm>
<rpm>0.00</rpm>
</extensions>
</trkpt>
<trkpt lat="63.697978973" lon="-19.557559967">
<ele>209.132813</ele>
<time>2012-07-26T15:32:27Z</time>
<speed>2.360000</speed>
<extensions>
<speed>2.4</speed>
<temp>0.00</temp>
<bpm>0</bpm>
<rpm>0.00</rpm>
</extensions>
</trkpt>
<trkpt lat="63.697933197" lon="-19.557739258">
<ele>210.312500</ele>
<time>2012-07-26T15:32:32Z</time>
<speed>1.840000</speed>
<extensions>
<speed>1.8</speed>
<temp>0.00</temp>
<bpm>0</bpm>
<rpm>0.00</rpm>
</extensions>
</trkpt>
<trkpt lat="63.697910309" lon="-19.557933807">
<ele>209.714844</ele>
<time>2012-07-26T15:32:37Z</time>
<speed>2.610000</speed>
<extensions>
<speed>2.6</speed>
<temp>0.00</temp>
<bpm>0</bpm>
<rpm>0.00</rpm>
</extensions>
</trkpt>
<trkpt lat="63.697902679" lon="-19.558164597">
<ele>210.199219</ele>
<time>2012-07-26T15:32:42Z</time>
<speed>2.730000</speed>
<extensions>
<speed>2.7</speed>
<temp>0.00</temp>
<bpm>0</bpm>
<rpm>0.00</rpm>
</extensions>
</trkpt>
<trkpt lat="63.697925568" lon="-19.558362961">
<ele>212.566406</ele>
<time>2012-07-26T15:32:47Z</time>
<speed>2.070000</speed>
<extensions>
<speed>2.1</speed>
<temp>0.00</temp>
<bpm>0</bpm>
<rpm>0.00</rpm>
</extensions>
</trkpt>
<trkpt lat="63.697956085" lon="-19.558576584">
<ele>213.027344</ele>
<time>2012-07-26T15:32:52Z</time>
<speed>2.190000</speed>
<extensions>
<speed>2.2</speed>
<temp>0.00</temp>
<bpm>0</bpm>
<rpm>0.00</rpm>
</extensions>
</trkpt>
<trkpt lat="63.697994232" lon="-19.558815002">
<ele>213.164063</ele>
<time>2012-07-26T15:32:57Z</time>
<speed>2.600000</speed>
<extensions>
<speed>2.6</speed>
<temp>0.00</temp>
<bpm>0</bpm>
<rpm>0.00</rpm>
</extensions>
</trkpt>
<trkpt lat="63.698051453" lon="-19.559091568">
<ele>213.398438</ele>
<time>2012-07-26T15:33:02Z</time>
<speed>4.040000</speed>
<extensions>
<speed>4.0</speed>
<temp>0.00</temp>
<bpm>0</bpm>
<rpm>0.00</rpm>
</extensions>
</trkpt>
<trkpt lat="63.698085785" lon="-19.559455872">
<ele>211.789063</ele>
<time>2012-07-26T15:33:07Z</time>
<speed>3.560000</speed>
<extensions>
<speed>3.6</speed>
<temp>0.00</temp>
<bpm>0</bpm>
<rpm>0.00</rpm>
</extensions>
</trkpt>
<trkpt lat="63.698131561" lon="-19.559843063">
<ele>209.183594</ele>
<time>2012-07-26T15:33:12Z</time>
<speed>4.320000</speed>
<extensions>
<speed>4.3</speed>
<temp>0.00</temp>
<bpm>0</bpm>
<rpm>0.00</rpm>
</extensions>
</trkpt>
<trkpt lat="63.698207855" lon="-19.560451508">
<ele>208.027344</ele>
<time>2012-07-26T15:33:17Z</time>
<speed>7.360000</speed>
<extensions>
<speed>7.4</speed>
<temp>0.00</temp>
<bpm>0</bpm>
<rpm>0.00</rpm>
</extensions>
</trkpt>
<trkpt lat="63.698207855" lon="-19.561157227">
<ele>206.207031</ele>
<time>2012-07-26T15:33:22Z</time>
<speed>7.000000</speed>
<extensions>
<speed>7.0</speed>
<temp>0.00</temp>
<bpm>0</bpm>
<rpm>0.00</rpm>
</extensions>
</trkpt>
<trkpt lat="63.698184967" lon="-19.561780930">
<ele>204.851563</ele>
<time>2012-07-26T15:33:27Z</time>
<speed>5.240000</speed>
<extensions>
<speed>5.2</speed>
<temp>0.00</temp>
<bpm>0</bpm>
<rpm>0.00</rpm>
</extensions>
</trkpt>
<trkpt lat="63.698196411" lon="-19.562162399">
<ele>206.195313</ele>
<time>2012-07-26T15:33:32Z</time>
<speed>2.290000</speed>
<extensions>
<speed>2.3</speed>
<temp>0.00</temp>
<bpm>0</bpm>
<rpm>0.00</rpm>
</extensions>
</trkpt>
<trkpt lat="63.698192596" lon="-19.562398911">
<ele>205.765625</ele>
<time>2012-07-26T15:33:37Z</time>
<speed>2.430000</speed>
<extensions>
<speed>2.4</speed>
<temp>0.00</temp>
<bpm>0</bpm>
<rpm>0.00</rpm>
</extensions>
</trkpt>
<trkpt lat="63.698192596" lon="-19.562595367">
<ele>205.226563</ele>
<time>2012-07-26T15:33:42Z</time>
<speed>1.630000</speed>
<extensions>
<speed>1.6</speed>
<temp>0.00</temp>
<bpm>0</bpm>
<rpm>0.00</rpm>
</extensions>
</trkpt>
<trkpt lat="63.698200226" lon="-19.562772751">
<ele>206.753906</ele>
<time>2012-07-26T15:33:47Z</time>
<speed>1.770000</speed>
<extensions>
<speed>1.8</speed>
<temp>0.00</temp>
<bpm>0</bpm>
<rpm>0.00</rpm>
</extensions>
</trkpt>
<trkpt lat="63.698211670" lon="-19.562971115">
<ele>206.820313</ele>
<time>2012-07-26T15:33:52Z</time>
<speed>2.050000</speed>
<extensions>
<speed>2.1</speed>
<temp>0.00</temp>
<bpm>0</bpm>
<rpm>0.00</rpm>
</extensions>
</trkpt>
<trkpt lat="63.698226929" lon="-19.563142776">
<ele>208.273438</ele>
<time>2012-07-26T15:33:57Z</time>
<speed>1.490000</speed>
<extensions>
<speed>1.5</speed>
<temp>0.00</temp>
<bpm>0</bpm>
<rpm>0.00</rpm>
</extensions>
</trkpt>
<trkpt lat="63.698238373" lon="-19.563310623">
<ele>209.875000</ele>
<time>2012-07-26T15:34:02Z</time>
<speed>1.810000</speed>
<extensions>
<speed>1.8</speed>
<temp>0.00</temp>
<bpm>0</bpm>
<rpm>0.00</rpm>
</extensions>
</trkpt>
<trkpt lat="63.698253632" lon="-19.563360214">
<ele>210.324219</ele>
<time>2012-07-26T15:34:07Z</time>
<speed>0.100000</speed>
<extensions>
<speed>0.1</speed>
<temp>0.00</temp>
<bpm>0</bpm>
<rpm>0.00</rpm>
</extensions>
</trkpt>
<trkpt lat="63.698249817" lon="-19.563350677">
<ele>210.394531</ele>
<time>2012-07-26T15:34:12Z</time>
<speed>0.010000</speed>
<extensions>
<speed>0.0</speed>
<temp>0.00</temp>
<bpm>0</bpm>
<rpm>0.00</rpm>
</extensions>
</trkpt>
<trkpt lat="63.698249817" lon="-19.563350677">
<ele>210.402344</ele>
<time>2012-07-26T15:34:17Z</time>
<extensions>
<speed>0.0</speed>
<temp>0.00</temp>
<bpm>0</bpm>
<rpm>0.00</rpm>
</extensions>
</trkpt>
<trkpt lat="63.698249817" lon="-19.563348770">
<ele>210.359375</ele>
<time>2012-07-26T15:34:22Z</time>
<extensions>
<speed>0.0</speed>
<temp>0.00</temp>
<bpm>0</bpm>
<rpm>0.00</rpm>
</extensions>
</trkpt>
<trkpt lat="63.698249817" lon="-19.563348770">
<ele>210.335938</ele>
<time>2012-07-26T15:34:27Z</time>
<extensions>
<speed>0.0</speed>
<temp>0.00</temp>
<bpm>0</bpm>
<rpm>0.00</rpm>
</extensions>
</trkpt>
<trkpt lat="63.698249817" lon="-19.563348770">
<ele>210.312500</ele>
<time>2012-07-26T15:34:32Z</time>
<speed>0.010000</speed>
<extensions>
<speed>0.0</speed>
<temp>0.00</temp>
<bpm>0</bpm>
<rpm>0.00</rpm>
</extensions>
</trkpt>
<trkpt lat="63.698249817" lon="-19.563346863">
<ele>210.312500</ele>
<time>2012-07-26T15:34:37Z</time>
<extensions>
<speed>0.0</speed>
<temp>0.00</temp>
<bpm>0</bpm>
<rpm>0.00</rpm>
</extensions>
</trkpt>
<trkpt lat="63.698249817" lon="-19.563346863">
<ele>210.261719</ele>
<time>2012-07-26T15:34:42Z</time>
<speed>0.060000</speed>
<extensions>
<speed>0.1</speed>
<temp>0.00</temp>
<bpm>0</bpm>
<rpm>0.00</rpm>
</extensions>
</trkpt>
<trkpt lat="63.698249817" lon="-19.563346863">
<ele>210.250000</ele>
<time>2012-07-26T15:34:47Z</time>
<speed>0.450000</speed>
<extensions>
<speed>0.5</speed>
<temp>0.00</temp>
<bpm>0</bpm>
<rpm>0.00</rpm>
</extensions>
</trkpt>
<trkpt lat="63.698265076" lon="-19.563507080">
<ele>209.566406</ele>
<time>2012-07-26T15:34:52Z</time>
<speed>2.180000</speed>
<extensions>
<speed>2.2</speed>
<temp>0.00</temp>
<bpm>0</bpm>
<rpm>0.00</rpm>
</extensions>
</trkpt>
<trkpt lat="63.698276520" lon="-19.563791275">
<ele>208.871094</ele>
<time>2012-07-26T15:34:57Z</time>
<speed>2.850000</speed>
<extensions>
<speed>2.9</speed>
<temp>0.00</temp>
<bpm>0</bpm>
<rpm>0.00</rpm>
</extensions>
</trkpt>
<trkpt lat="63.698284149" lon="-19.564151764">
<ele>207.976563</ele>
<time>2012-07-26T15:35:02Z</time>
<speed>3.730000</speed>
<extensions>
<speed>3.7</speed>
<temp>0.00</temp>
<bpm>0</bpm>
<rpm>0.00</rpm>
</extensions>
</trkpt>
<trkpt lat="63.698276520" lon="-19.564567566">
<ele>206.937500</ele>
<time>2012-07-26T15:35:07Z</time>
<speed>3.890000</speed>
<extensions>
<speed>3.9</speed>
<temp>0.00</temp>
<bpm>0</bpm>
<rpm>0.00</rpm>
</extensions>
</trkpt>
<trkpt lat="63.698253632" lon="-19.564983368">
<ele>206.277344</ele>
<time>2012-07-26T15:35:12Z</time>
<speed>4.170000</speed>
<extensions>
<speed>4.2</speed>
<temp>0.00</temp>
<bpm>0</bpm>
<rpm>0.00</rpm>
</extensions>
</trkpt>
<trkpt lat="63.698295593" lon="-19.565492630">
<ele>204.968750</ele>
<time>2012-07-26T15:35:17Z</time>
<speed>5.730000</speed>
<extensions>
<speed>5.7</speed>
<temp>0.00</temp>
<bpm>0</bpm>
<rpm>0.00</rpm>
</extensions>
</trkpt>
<trkpt lat="63.698341370" lon="-19.566127777">
<ele>205.015625</ele>
<time>2012-07-26T15:35:22Z</time>
<speed>5.830000</speed>
<extensions>
<speed>5.8</speed>
<temp>0.00</temp>
<bpm>0</bpm>
<rpm>0.00</rpm>
</extensions>
</trkpt>
<trkpt lat="63.698348999" lon="-19.566625595">
<ele>204.570313</ele>
<time>2012-07-26T15:35:27Z</time>
<speed>4.060000</speed>
<extensions>
<speed>4.1</speed>
<temp>0.00</temp>
<bpm>0</bpm>
<rpm>0.00</rpm>
</extensions>
</trkpt>
<trkpt lat="63.698345184" lon="-19.566896439">
<ele>204.332031</ele>
<time>2012-07-26T15:35:32Z</time>
<speed>2.580000</speed>
<extensions>
<speed>2.6</speed>
<temp>0.00</temp>
<bpm>0</bpm>
<rpm>0.00</rpm>
</extensions>
</trkpt>
<trkpt lat="63.698341370" lon="-19.567150116">
<ele>204.351563</ele>
<time>2012-07-26T15:35:37Z</time>
<speed>2.930000</speed>
<extensions>
<speed>2.9</speed>
<temp>0.00</temp>
<bpm>0</bpm>
<rpm>0.00</rpm>
</extensions>
</trkpt>
<trkpt lat="63.698322296" lon="-19.567432404">
<ele>204.480469</ele>
<time>2012-07-26T15:35:42Z</time>
<speed>2.470000</speed>
<extensions>
<speed>2.5</speed>
<temp>0.00</temp>
<bpm>0</bpm>
<rpm>0.00</rpm>
</extensions>
</trkpt>
<trkpt lat="63.698307037" lon="-19.567640305">
<ele>203.125000</ele>
<time>2012-07-26T15:35:47Z</time>
<speed>2.610000</speed>
<extensions>
<speed>2.6</speed>
<temp>0.00</temp>
<bpm>0</bpm>
<rpm>0.00</rpm>
</extensions>
</trkpt>
<trkpt lat="63.698287964" lon="-19.567876816">
<ele>203.460938</ele>
<time>2012-07-26T15:35:52Z</time>
<speed>2.430000</speed>
<extensions>
<speed>2.4</speed>
<temp>0.00</temp>
<bpm>0</bpm>
<rpm>0.00</rpm>
</extensions>
</trkpt>
<trkpt lat="63.698276520" lon="-19.568140030">
<ele>202.875000</ele>
<time>2012-07-26T15:35:57Z</time>
<speed>2.960000</speed>
<extensions>
<speed>3.0</speed>
<temp>0.00</temp>
<bpm>0</bpm>
<rpm>0.00</rpm>
</extensions>
</trkpt>
<trkpt lat="63.698265076" lon="-19.568449020">
<ele>201.902344</ele>
<time>2012-07-26T15:36:02Z</time>
<speed>3.250000</speed>
<extensions>
<speed>3.2</speed>
<temp>0.00</temp>
<bpm>0</bpm>
<rpm>0.00</rpm>
</extensions>
</trkpt>
<trkpt lat="63.698249817" lon="-19.568761826">
<ele>202.613281</ele>
<time>2012-07-26T15:36:07Z</time>
<speed>3.430000</speed>
<extensions>
<speed>3.4</speed>
<temp>0.00</temp>
<bpm>0</bpm>
<rpm>0.00</rpm>
</extensions>
</trkpt>
<trkpt lat="63.698230743" lon="-19.569080353">
<ele>203.195313</ele>
<time>2012-07-26T15:36:12Z</time>
<speed>3.350000</speed>
<extensions>
<speed>3.4</speed>
<temp>0.00</temp>
<bpm>0</bpm>
<rpm>0.00</rpm>
</extensions>
</trkpt>
<trkpt lat="63.698219299" lon="-19.569351196">
<ele>202.875000</ele>
<time>2012-07-26T15:36:17Z</time>
<speed>2.610000</speed>
<extensions>
<speed>2.6</speed>
<temp>0.00</temp>
<bpm>0</bpm>
<rpm>0.00</rpm>
</extensions>
</trkpt>
<trkpt lat="63.698196411" lon="-19.569646835">
<ele>203.878906</ele>
<time>2012-07-26T15:36:22Z</time>
<speed>3.360000</speed>
<extensions>
<speed>3.4</speed>
<temp>0.00</temp>
<bpm>0</bpm>
<rpm>0.00</rpm>
</extensions>
</trkpt>
<trkpt lat="63.698181152" lon="-19.569986343">
<ele>202.519531</ele>
<time>2012-07-26T15:36:27Z</time>
<speed>3.110000</speed>
<extensions>
<speed>3.1</speed>
<temp>0.00</temp>
<bpm>0</bpm>
<rpm>0.00</rpm>
</extensions>
</trkpt>
<trkpt lat="63.698169708" lon="-19.570333481">
<ele>200.714844</ele>
<time>2012-07-26T15:36:32Z</time>
<speed>3.610000</speed>
<extensions>
<speed>3.6</speed>
<temp>0.00</temp>
<bpm>0</bpm>
<rpm>0.00</rpm>
</extensions>
</trkpt>
<trkpt lat="63.698165894" lon="-19.570669174">
<ele>200.515625</ele>
<time>2012-07-26T15:36:37Z</time>
<speed>3.370000</speed>
<extensions>
<speed>3.4</speed>
<temp>0.00</temp>
<bpm>0</bpm>
<rpm>0.00</rpm>
</extensions>
</trkpt>
<trkpt lat="63.698162079" lon="-19.570995331">
<ele>200.964844</ele>
<time>2012-07-26T15:36:42Z</time>
<speed>3.220000</speed>
<extensions>
<speed>3.2</speed>
<temp>0.00</temp>
<bpm>0</bpm>
<rpm>0.00</rpm>
</extensions>
</trkpt>
<trkpt lat="63.698158264" lon="-19.571319580">
<ele>201.230469</ele>
<time>2012-07-26T15:36:47Z</time>
<speed>3.260000</speed>
<extensions>
<speed>3.3</speed>
<temp>0.00</temp>
<bpm>0</bpm>
<rpm>0.00</rpm>
</extensions>
</trkpt>
<trkpt lat="63.698154449" lon="-19.571653366">
<ele>201.726563</ele>
<time>2012-07-26T15:36:52Z</time>
<speed>3.050000</speed>
<extensions>
<speed>3.0</speed>
<temp>0.00</temp>
<bpm>0</bpm>
<rpm>0.00</rpm>
</extensions>
</trkpt>
<trkpt lat="63.698143005" lon="-19.572000504">
<ele>202.789063</ele>
<time>2012-07-26T15:36:57Z</time>
<speed>3.140000</speed>
<extensions>
<speed>3.1</speed>
<temp>0.00</temp>
<bpm>0</bpm>
<rpm>0.00</rpm>
</extensions>
</trkpt>
<trkpt lat="63.698143005" lon="-19.572280884">
<ele>204.050781</ele>
<time>2012-07-26T15:37:02Z</time>
<speed>2.840000</speed>
<extensions>
<speed>2.8</speed>
<temp>0.00</temp>
<bpm>0</bpm>
<rpm>0.00</rpm>
</extensions>
</trkpt>
<trkpt lat="63.698154449" lon="-19.572597504">
<ele>204.242188</ele>
<time>2012-07-26T15:37:07Z</time>
<speed>3.390000</speed>
<extensions>
<speed>3.4</speed>
<temp>0.00</temp>
<bpm>0</bpm>
<rpm>0.00</rpm>
</extensions>
</trkpt>
<trkpt lat="63.698143005" lon="-19.572916031">
<ele>203.500000</ele>
<time>2012-07-26T15:37:12Z</time>
<speed>3.090000</speed>
<extensions>
<speed>3.1</speed>
<temp>0.00</temp>
<bpm>0</bpm>
<rpm>0.00</rpm>
</extensions>
</trkpt>
<trkpt lat="63.698143005" lon="-19.573213577">
<ele>202.765625</ele>
<time>2012-07-26T15:37:17Z</time>
<speed>3.180000</speed>
<extensions>
<speed>3.2</speed>
<temp>0.00</temp>
<bpm>0</bpm>
<rpm>0.00</rpm>
</extensions>
</trkpt>
<trkpt lat="63.698131561" lon="-19.573539734">
<ele>202.539063</ele>
<time>2012-07-26T15:37:22Z</time>
<speed>3.480000</speed>
<extensions>
<speed>3.5</speed>
<temp>0.00</temp>
<bpm>0</bpm>
<rpm>0.00</rpm>
</extensions>
</trkpt>
<trkpt lat="63.698131561" lon="-19.573820114">
<ele>200.855469</ele>
<time>2012-07-26T15:37:27Z</time>
<speed>2.440000</speed>
<extensions>
<speed>2.4</speed>
<temp>0.00</temp>
<bpm>0</bpm>
<rpm>0.00</rpm>
</extensions>
</trkpt>
<trkpt lat="63.698120117" lon="-19.574079514">
<ele>201.332031</ele>
<time>2012-07-26T15:37:32Z</time>
<speed>2.710000</speed>
<extensions>
<speed>2.7</speed>
<temp>0.00</temp>
<bpm>0</bpm>
<rpm>0.00</rpm>
</extensions>
</trkpt>
<trkpt lat="63.698123932" lon="-19.574340820">
<ele>203.097656</ele>
<time>2012-07-26T15:37:37Z</time>
<speed>2.920000</speed>
<extensions>
<speed>2.9</speed>
<temp>0.00</temp>
<bpm>0</bpm>
<rpm>0.00</rpm>
</extensions>
</trkpt>
<trkpt lat="63.698135376" lon="-19.574668884">
<ele>202.242188</ele>
<time>2012-07-26T15:37:42Z</time>
<speed>2.900000</speed>
<extensions>
<speed>2.9</speed>
<temp>0.00</temp>
<bpm>0</bpm>
<rpm>0.00</rpm>
</extensions>
</trkpt>
<trkpt lat="63.698146820" lon="-19.574918747">
<ele>199.957031</ele>
<time>2012-07-26T15:37:47Z</time>
<speed>2.060000</speed>
<extensions>
<speed>2.1</speed>
<temp>0.00</temp>
<bpm>0</bpm>
<rpm>0.00</rpm>
</extensions>
</trkpt>
<trkpt lat="63.698150635" lon="-19.575172424">
<ele>199.679688</ele>
<time>2012-07-26T15:37:52Z</time>
<speed>2.860000</speed>
<extensions>
<speed>2.9</speed>
<temp>0.00</temp>
<bpm>0</bpm>
<rpm>0.00</rpm>
</extensions>
</trkpt>
<trkpt lat="63.698158264" lon="-19.575448990">
<ele>200.164063</ele>
<time>2012-07-26T15:37:57Z</time>
<speed>3.130000</speed>
<extensions>
<speed>3.1</speed>
<temp>0.00</temp>
<bpm>0</bpm>
<rpm>0.00</rpm>
</extensions>
</trkpt>
<trkpt lat="63.698173523" lon="-19.575767517">
<ele>200.566406</ele>
<time>2012-07-26T15:38:02Z</time>
<speed>3.150000</speed>
<extensions>
<speed>3.2</speed>
<temp>0.00</temp>
<bpm>0</bpm>
<rpm>0.00</rpm>
</extensions>
</trkpt>
<trkpt lat="63.698184967" lon="-19.576091766">
<ele>201.070313</ele>
<time>2012-07-26T15:38:07Z</time>
<speed>2.900000</speed>
<extensions>
<speed>2.9</speed>
<temp>0.00</temp>
<bpm>0</bpm>
<rpm>0.00</rpm>
</extensions>
</trkpt>
<trkpt lat="63.698184967" lon="-19.576345444">
<ele>199.808594</ele>
<time>2012-07-26T15:38:12Z</time>
<speed>2.590000</speed>
<extensions>
<speed>2.6</speed>
<temp>0.00</temp>
<bpm>0</bpm>
<rpm>0.00</rpm>
</extensions>
</trkpt>
<trkpt lat="63.698215485" lon="-19.576637268">
<ele>198.765625</ele>
<time>2012-07-26T15:38:17Z</time>
<speed>3.190000</speed>
<extensions>
<speed>3.2</speed>
<temp>0.00</temp>
<bpm>0</bpm>
<rpm>0.00</rpm>
</extensions>
</trkpt>
<trkpt lat="63.698230743" lon="-19.576957703">
<ele>198.140625</ele>
<time>2012-07-26T15:38:22Z</time>
<speed>3.090000</speed>
<extensions>
<speed>3.1</speed>
<temp>0.00</temp>
<bpm>0</bpm>
<rpm>0.00</rpm>
</extensions>
</trkpt>
<trkpt lat="63.698246002" lon="-19.577280045">
<ele>198.535156</ele>
<time>2012-07-26T15:38:27Z</time>
<speed>3.300000</speed>
<extensions>
<speed>3.3</speed>
<temp>0.00</temp>
<bpm>0</bpm>
<rpm>0.00</rpm>
</extensions>
</trkpt>
<trkpt lat="63.698261261" lon="-19.577604294">
<ele>199.058594</ele>
<time>2012-07-26T15:38:32Z</time>
<speed>3.000000</speed>
<extensions>
<speed>3.0</speed>
<temp>0.00</temp>
<bpm>0</bpm>
<rpm>0.00</rpm>
</extensions>
</trkpt>
<trkpt lat="63.698276520" lon="-19.577915192">
<ele>199.816406</ele>
<time>2012-07-26T15:38:37Z</time>
<speed>3.130000</speed>
<extensions>
<speed>3.1</speed>
<temp>0.00</temp>
<bpm>0</bpm>
<rpm>0.00</rpm>
</extensions>
</trkpt>
<trkpt lat="63.698295593" lon="-19.578239441">
<ele>199.277344</ele>
<time>2012-07-26T15:38:42Z</time>
<speed>3.010000</speed>
<extensions>
<speed>3.0</speed>
<temp>0.00</temp>
<bpm>0</bpm>
<rpm>0.00</rpm>
</extensions>
</trkpt>
<trkpt lat="63.698310852" lon="-19.578578949">
<ele>198.718750</ele>
<time>2012-07-26T15:38:47Z</time>
<speed>3.720000</speed>
<extensions>
<speed>3.7</speed>
<temp>0.00</temp>
<bpm>0</bpm>
<rpm>0.00</rpm>
</extensions>
</trkpt>
<trkpt lat="63.698322296" lon="-19.578920364">
<ele>196.011719</ele>
<time>2012-07-26T15:38:52Z</time>
<speed>3.700000</speed>
<extensions>
<speed>3.7</speed>
<temp>0.00</temp>
<bpm>0</bpm>
<rpm>0.00</rpm>
</extensions>
</trkpt>
<trkpt lat="63.698345184" lon="-19.579240799">
<ele>194.917969</ele>
<time>2012-07-26T15:38:57Z</time>
<speed>3.140000</speed>
<extensions>
<speed>3.1</speed>
<temp>0.00</temp>
<bpm>0</bpm>
<rpm>0.00</rpm>
</extensions>
</trkpt>
<trkpt lat="63.698371887" lon="-19.579534531">
<ele>193.769531</ele>
<time>2012-07-26T15:39:02Z</time>
<speed>2.800000</speed>
<extensions>
<speed>2.8</speed>
<temp>0.00</temp>
<bpm>0</bpm>
<rpm>0.00</rpm>
</extensions>
</trkpt>
<trkpt lat="63.698410034" lon="-19.579900742">
<ele>192.621094</ele>
<time>2012-07-26T15:39:07Z</time>
<speed>3.760000</speed>
<extensions>
<speed>3.8</speed>
<temp>0.00</temp>
<bpm>0</bpm>
<rpm>0.00</rpm>
</extensions>
</trkpt>
<trkpt lat="63.698463440" lon="-19.580224991">
<ele>192.339844</ele>
<time>2012-07-26T15:39:12Z</time>
<speed>2.440000</speed>
<extensions>
<speed>2.4</speed>
<temp>0.00</temp>
<bpm>0</bpm>
<rpm>0.00</rpm>
</extensions>
</trkpt>
<trkpt lat="63.698478699" lon="-19.580377579">
<ele>192.019531</ele>
<time>2012-07-26T15:39:17Z</time>
<speed>1.670000</speed>
<extensions>
<speed>1.7</speed>
<temp>0.00</temp>
<bpm>0</bpm>
<rpm>0.00</rpm>
</extensions>
</trkpt>
<trkpt lat="63.698520660" lon="-19.580514908">
<ele>193.089844</ele>
<time>2012-07-26T15:39:22Z</time>
<speed>1.140000</speed>
<extensions>
<speed>1.1</speed>
<temp>0.00</temp>
<bpm>0</bpm>
<rpm>0.00</rpm>
</extensions>
</trkpt>
<trkpt lat="63.698532104" lon="-19.580541611">
<ele>195.292969</ele>
<time>2012-07-26T15:39:27Z</time>
<speed>0.040000</speed>
<extensions>
<speed>0.0</speed>
<temp>0.00</temp>
<bpm>0</bpm>
<rpm>0.00</rpm>
</extensions>
</trkpt>
<trkpt lat="63.698532104" lon="-19.580541611">
<ele>195.207031</ele>
<time>2012-07-26T15:39:32Z</time>
<extensions>
<speed>0.0</speed>
<temp>0.00</temp>
<bpm>0</bpm>
<rpm>0.00</rpm>
</extensions>
</trkpt>
<trkpt lat="63.698532104" lon="-19.580543518">
<ele>195.167969</ele>
<time>2012-07-26T15:39:37Z</time>
<speed>0.020000</speed>
<extensions>
<speed>0.0</speed>
<temp>0.00</temp>
<bpm>0</bpm>
<rpm>0.00</rpm>
</extensions>
</trkpt>
<trkpt lat="63.698532104" lon="-19.580543518">
<ele>195.140625</ele>
<time>2012-07-26T15:39:42Z</time>
<speed>0.010000</speed>
<extensions>
<speed>0.0</speed>
<temp>0.00</temp>
<bpm>0</bpm>
<rpm>0.00</rpm>
</extensions>
</trkpt>
<trkpt lat="63.698532104" lon="-19.580543518">
<ele>195.132813</ele>
<time>2012-07-26T15:39:47Z</time>
<speed>0.010000</speed>
<extensions>
<speed>0.0</speed>
<temp>0.00</temp>
<bpm>0</bpm>
<rpm>0.00</rpm>
</extensions>
</trkpt>
<trkpt lat="63.698532104" lon="-19.580543518">
<ele>195.121094</ele>
<time>2012-07-26T15:39:52Z</time>
<extensions>
<speed>0.0</speed>
<temp>0.00</temp>
<bpm>0</bpm>
<rpm>0.00</rpm>
</extensions>
</trkpt>
<trkpt lat="63.698532104" lon="-19.580541611">
<ele>195.128906</ele>
<time>2012-07-26T15:39:57Z</time>
<speed>0.010000</speed>
<extensions>
<speed>0.0</speed>
<temp>0.00</temp>
<bpm>0</bpm>
<rpm>0.00</rpm>
</extensions>
</trkpt>
<trkpt lat="63.698532104" lon="-19.580541611">
<ele>195.125000</ele>
<time>2012-07-26T15:40:02Z</time>
<extensions>
<speed>0.0</speed>
<temp>0.00</temp>
<bpm>0</bpm>
<rpm>0.00</rpm>
</extensions>
</trkpt>
<trkpt lat="63.698532104" lon="-19.580543518">
<ele>195.136719</ele>
<time>2012-07-26T15:40:07Z</time>
<extensions>
<speed>0.0</speed>
<temp>0.00</temp>
<bpm>0</bpm>
<rpm>0.00</rpm>
</extensions>
</trkpt>
<trkpt lat="63.698532104" lon="-19.580543518">
<ele>195.136719</ele>
<time>2012-07-26T15:40:12Z</time>
<extensions>
<speed>0.0</speed>
<temp>0.00</temp>
<bpm>0</bpm>
<rpm>0.00</rpm>
</extensions>
</trkpt>
<trkpt lat="63.698532104" lon="-19.580543518">
<ele>195.152344</ele>
<time>2012-07-26T15:40:17Z</time>
<extensions>
<speed>0.0</speed>
<temp>0.00</temp>
<bpm>0</bpm>
<rpm>0.00</rpm>
</extensions>
</trkpt>
<trkpt lat="63.698532104" lon="-19.580543518">
<ele>195.160156</ele>
<time>2012-07-26T15:40:22Z</time>
<speed>0.010000</speed>
<extensions>
<speed>0.0</speed>
<temp>0.00</temp>
<bpm>0</bpm>
<rpm>0.00</rpm>
</extensions>
</trkpt>
<trkpt lat="63.698532104" lon="-19.580543518">
<ele>195.171875</ele>
<time>2012-07-26T15:40:27Z</time>
<speed>0.050000</speed>
<extensions>
<speed>0.1</speed>
<temp>0.00</temp>
<bpm>0</bpm>
<rpm>0.00</rpm>
</extensions>
</trkpt>
<trkpt lat="63.698532104" lon="-19.580543518">
<ele>195.167969</ele>
<time>2012-07-26T15:40:32Z</time>
<speed>0.020000</speed>
<extensions>
<speed>0.0</speed>
<temp>0.00</temp>
<bpm>0</bpm>
<rpm>0.00</rpm>
</extensions>
</trkpt>
<trkpt lat="63.698532104" lon="-19.580543518">
<ele>195.160156</ele>
<time>2012-07-26T15:40:37Z</time>
<extensions>
<speed>0.0</speed>
<temp>0.00</temp>
<bpm>0</bpm>
<rpm>0.00</rpm>
</extensions>
</trkpt>
<trkpt lat="63.698532104" lon="-19.580543518">
<ele>195.160156</ele>
<time>2012-07-26T15:40:42Z</time>
<extensions>
<speed>0.0</speed>
<temp>0.00</temp>
<bpm>0</bpm>
<rpm>0.00</rpm>
</extensions>
</trkpt>
<trkpt lat="63.698532104" lon="-19.580545425">
<ele>195.167969</ele>
<time>2012-07-26T15:40:47Z</time>
<speed>0.110000</speed>
<extensions>
<speed>0.1</speed>
<temp>0.00</temp>
<bpm>0</bpm>
<rpm>0.00</rpm>
</extensions>
</trkpt>
<trkpt lat="63.698532104" lon="-19.580545425">
<ele>195.171875</ele>
<time>2012-07-26T15:40:52Z</time>
<speed>0.020000</speed>
<extensions>
<speed>0.0</speed>
<temp>0.00</temp>
<bpm>0</bpm>
<rpm>0.00</rpm>
</extensions>
</trkpt>
<trkpt lat="63.698532104" lon="-19.580545425">
<ele>195.179688</ele>
<time>2012-07-26T15:40:57Z</time>
<speed>0.010000</speed>
<extensions>
<speed>0.0</speed>
<temp>0.00</temp>
<bpm>0</bpm>
<rpm>0.00</rpm>
</extensions>
</trkpt>
<trkpt lat="63.698532104" lon="-19.580545425">
<ele>195.187500</ele>
<time>2012-07-26T15:41:02Z</time>
<speed>0.160000</speed>
<extensions>
<speed>0.2</speed>
<temp>0.00</temp>
<bpm>0</bpm>
<rpm>0.00</rpm>
</extensions>
</trkpt>
<trkpt lat="63.698532104" lon="-19.580545425">
<ele>195.191406</ele>
<time>2012-07-26T15:41:07Z</time>
<speed>0.020000</speed>
<extensions>
<speed>0.0</speed>
<temp>0.00</temp>
<bpm>0</bpm>
<rpm>0.00</rpm>
</extensions>
</trkpt>
<trkpt lat="63.698532104" lon="-19.580545425">
<ele>195.199219</ele>
<time>2012-07-26T15:41:12Z</time>
<speed>0.040000</speed>
<extensions>
<speed>0.0</speed>
<temp>0.00</temp>
<bpm>0</bpm>
<rpm>0.00</rpm>
</extensions>
</trkpt>
<trkpt lat="63.698532104" lon="-19.580553055">
<ele>195.101563</ele>
<time>2012-07-26T15:41:17Z</time>
<speed>0.970000</speed>
<extensions>
<speed>1.0</speed>
<temp>0.00</temp>
<bpm>0</bpm>
<rpm>0.00</rpm>
</extensions>
</trkpt>
<trkpt lat="63.698589325" lon="-19.580810547">
<ele>193.933594</ele>
<time>2012-07-26T15:41:22Z</time>
<speed>4.670000</speed>
<extensions>
<speed>4.7</speed>
<temp>0.00</temp>
<bpm>0</bpm>
<rpm>0.00</rpm>
</extensions>
</trkpt>
<trkpt lat="63.698711395" lon="-19.581264496">
<ele>192.917969</ele>
<time>2012-07-26T15:41:27Z</time>
<speed>4.450000</speed>
<extensions>
<speed>4.5</speed>
<temp>0.00</temp>
<bpm>0</bpm>
<rpm>0.00</rpm>
</extensions>
</trkpt>
<trkpt lat="63.698783875" lon="-19.581600189">
<ele>192.714844</ele>
<time>2012-07-26T15:41:32Z</time>
<speed>2.440000</speed>
<extensions>
<speed>2.4</speed>
<temp>0.00</temp>
<bpm>0</bpm>
<rpm>0.00</rpm>
</extensions>
</trkpt>
<trkpt lat="63.698814392" lon="-19.581752777">
<ele>194.031250</ele>
<time>2012-07-26T15:41:37Z</time>
<speed>1.210000</speed>
<extensions>
<speed>1.2</speed>
<temp>0.00</temp>
<bpm>0</bpm>
<rpm>0.00</rpm>
</extensions>
</trkpt>
<trkpt lat="63.698806763" lon="-19.581766129">
<ele>194.171875</ele>
<time>2012-07-26T15:41:42Z</time>
<speed>0.470000</speed>
<extensions>
<speed>0.5</speed>
<temp>0.00</temp>
<bpm>0</bpm>
<rpm>0.00</rpm>
</extensions>
</trkpt>
<trkpt lat="63.698810577" lon="-19.581897736">
<ele>194.324219</ele>
<time>2012-07-26T15:41:47Z</time>
<speed>2.230000</speed>
<extensions>
<speed>2.2</speed>
<temp>0.00</temp>
<bpm>0</bpm>
<rpm>0.00</rpm>
</extensions>
</trkpt>
<trkpt lat="63.698802948" lon="-19.582149506">
<ele>194.093750</ele>
<time>2012-07-26T15:41:52Z</time>
<speed>2.580000</speed>
<extensions>
<speed>2.6</speed>
<temp>0.00</temp>
<bpm>0</bpm>
<rpm>0.00</rpm>
</extensions>
</trkpt>
<trkpt lat="63.698802948" lon="-19.582424164">
<ele>194.480469</ele>
<time>2012-07-26T15:41:57Z</time>
<speed>2.820000</speed>
<extensions>
<speed>2.8</speed>
<temp>0.00</temp>
<bpm>0</bpm>
<rpm>0.00</rpm>
</extensions>
</trkpt>
<trkpt lat="63.698795319" lon="-19.582675934">
<ele>194.027344</ele>
<time>2012-07-26T15:42:02Z</time>
<speed>2.100000</speed>
<extensions>
<speed>2.1</speed>
<temp>0.00</temp>
<bpm>0</bpm>
<rpm>0.00</rpm>
</extensions>
</trkpt>
<trkpt lat="63.698776245" lon="-19.582912445">
<ele>194.066406</ele>
<time>2012-07-26T15:42:07Z</time>
<speed>2.700000</speed>
<extensions>
<speed>2.7</speed>
<temp>0.00</temp>
<bpm>0</bpm>
<rpm>0.00</rpm>
</extensions>
</trkpt>
<trkpt lat="63.698780060" lon="-19.583200455">
<ele>193.980469</ele>
<time>2012-07-26T15:42:12Z</time>
<speed>2.660000</speed>
<extensions>
<speed>2.7</speed>
<temp>0.00</temp>
<bpm>0</bpm>
<rpm>0.00</rpm>
</extensions>
</trkpt>
<trkpt lat="63.698802948" lon="-19.583482742">
<ele>194.144531</ele>
<time>2012-07-26T15:42:17Z</time>
<speed>2.820000</speed>
<extensions>
<speed>2.8</speed>
<temp>0.00</temp>
<bpm>0</bpm>
<rpm>0.00</rpm>
</extensions>
</trkpt>
<trkpt lat="63.698825836" lon="-19.583755493">
<ele>193.957031</ele>
<time>2012-07-26T15:42:22Z</time>
<speed>2.810000</speed>
<extensions>
<speed>2.8</speed>
<temp>0.00</temp>
<bpm>0</bpm>
<rpm>0.00</rpm>
</extensions>
</trkpt>
<trkpt lat="63.698852539" lon="-19.584024429">
<ele>194.972656</ele>
<time>2012-07-26T15:42:27Z</time>
<speed>2.550000</speed>
<extensions>
<speed>2.6</speed>
<temp>0.00</temp>
<bpm>0</bpm>
<rpm>0.00</rpm>
</extensions>
</trkpt>
<trkpt lat="63.698875427" lon="-19.584289551">
<ele>195.203125</ele>
<time>2012-07-26T15:42:32Z</time>
<speed>2.370000</speed>
<extensions>
<speed>2.4</speed>
<temp>0.00</temp>
<bpm>0</bpm>
<rpm>0.00</rpm>
</extensions>
</trkpt>
<trkpt lat="63.698875427" lon="-19.584489822">
<ele>194.449219</ele>
<time>2012-07-26T15:42:37Z</time>
<speed>2.110000</speed>
<extensions>
<speed>2.1</speed>
<temp>0.00</temp>
<bpm>0</bpm>
<rpm>0.00</rpm>
</extensions>
</trkpt>
<trkpt lat="63.698898315" lon="-19.584726334">
<ele>195.046875</ele>
<time>2012-07-26T15:42:42Z</time>
<speed>2.350000</speed>
<extensions>
<speed>2.4</speed>
<temp>0.00</temp>
<bpm>0</bpm>
<rpm>0.00</rpm>
</extensions>
</trkpt>
<trkpt lat="63.698886871" lon="-19.584930420">
<ele>194.480469</ele>
<time>2012-07-26T15:42:47Z</time>
<speed>2.200000</speed>
<extensions>
<speed>2.2</speed>
<temp>0.00</temp>
<bpm>0</bpm>
<rpm>0.00</rpm>
</extensions>
</trkpt>
<trkpt lat="63.698890686" lon="-19.585182190">
<ele>192.789063</ele>
<time>2012-07-26T15:42:52Z</time>
<speed>2.630000</speed>
<extensions>
<speed>2.6</speed>
<temp>0.00</temp>
<bpm>0</bpm>
<rpm>0.00</rpm>
</extensions>
</trkpt>
<trkpt lat="63.698902130" lon="-19.585430145">
<ele>192.882813</ele>
<time>2012-07-26T15:42:57Z</time>
<speed>2.350000</speed>
<extensions>
<speed>2.4</speed>
<temp>0.00</temp>
<bpm>0</bpm>
<rpm>0.00</rpm>
</extensions>
</trkpt>
<trkpt lat="63.698909760" lon="-19.585670471">
<ele>192.734375</ele>
<time>2012-07-26T15:43:02Z</time>
<speed>2.450000</speed>
<extensions>
<speed>2.4</speed>
<temp>0.00</temp>
<bpm>0</bpm>
<rpm>0.00</rpm>
</extensions>
</trkpt>
<trkpt lat="63.698913574" lon="-19.585964203">
<ele>193.191406</ele>
<time>2012-07-26T15:43:07Z</time>
<speed>2.880000</speed>
<extensions>
<speed>2.9</speed>
<temp>0.00</temp>
<bpm>0</bpm>
<rpm>0.00</rpm>
</extensions>
</trkpt>
<trkpt lat="63.698921204" lon="-19.586248398">
<ele>193.265625</ele>
<time>2012-07-26T15:43:12Z</time>
<speed>2.700000</speed>
<extensions>
<speed>2.7</speed>
<temp>0.00</temp>
<bpm>0</bpm>
<rpm>0.00</rpm>
</extensions>
</trkpt>
<trkpt lat="63.698925018" lon="-19.586517334">
<ele>193.035156</ele>
<time>2012-07-26T15:43:17Z</time>
<speed>2.370000</speed>
<extensions>
<speed>2.4</speed>
<temp>0.00</temp>
<bpm>0</bpm>
<rpm>0.00</rpm>
</extensions>
</trkpt>
<trkpt lat="63.698932648" lon="-19.586732864">
<ele>193.117188</ele>
<time>2012-07-26T15:43:22Z</time>
<speed>2.070000</speed>
<extensions>
<speed>2.1</speed>
<temp>0.00</temp>
<bpm>0</bpm>
<rpm>0.00</rpm>
</extensions>
</trkpt>
<trkpt lat="63.698959351" lon="-19.586946487">
<ele>192.855469</ele>
<time>2012-07-26T15:43:27Z</time>
<speed>2.390000</speed>
<extensions>
<speed>2.4</speed>
<temp>0.00</temp>
<bpm>0</bpm>
<rpm>0.00</rpm>
</extensions>
</trkpt>
<trkpt lat="63.698966980" lon="-19.587181091">
<ele>193.238281</ele>
<time>2012-07-26T15:43:32Z</time>
<speed>2.220000</speed>
<extensions>
<speed>2.2</speed>
<temp>0.00</temp>
<bpm>0</bpm>
<rpm>0.00</rpm>
</extensions>
</trkpt>
<trkpt lat="63.698966980" lon="-19.587442398">
<ele>193.304688</ele>
<time>2012-07-26T15:43:37Z</time>
<speed>2.490000</speed>
<extensions>
<speed>2.5</speed>
<temp>0.00</temp>
<bpm>0</bpm>
<rpm>0.00</rpm>
</extensions>
</trkpt>
<trkpt lat="63.698986053" lon="-19.587692261">
<ele>194.687500</ele>
<time>2012-07-26T15:43:42Z</time>
<speed>2.680000</speed>
<extensions>
<speed>2.7</speed>
<temp>0.00</temp>
<bpm>0</bpm>
<rpm>0.00</rpm>
</extensions>
</trkpt>
<trkpt lat="63.699008942" lon="-19.587921143">
<ele>194.066406</ele>
<time>2012-07-26T15:43:47Z</time>
<speed>2.470000</speed>
<extensions>
<speed>2.5</speed>
<temp>0.00</temp>
<bpm>0</bpm>
<rpm>0.00</rpm>
</extensions>
</trkpt>
<trkpt lat="63.699024200" lon="-19.588174820">
<ele>193.910156</ele>
<time>2012-07-26T15:43:52Z</time>
<speed>2.770000</speed>
<extensions>
<speed>2.8</speed>
<temp>0.00</temp>
<bpm>0</bpm>
<rpm>0.00</rpm>
</extensions>
</trkpt>
<trkpt lat="63.699035645" lon="-19.588468552">
<ele>193.699219</ele>
<time>2012-07-26T15:43:57Z</time>
<speed>2.860000</speed>
<extensions>
<speed>2.9</speed>
<temp>0.00</temp>
<bpm>0</bpm>
<rpm>0.00</rpm>
</extensions>
</trkpt>
<trkpt lat="63.699047089" lon="-19.588718414">
<ele>193.484375</ele>
<time>2012-07-26T15:44:02Z</time>
<speed>2.470000</speed>
<extensions>
<speed>2.5</speed>
<temp>0.00</temp>
<bpm>0</bpm>
<rpm>0.00</rpm>
</extensions>
</trkpt>
<trkpt lat="63.699062347" lon="-19.588958740">
<ele>193.531250</ele>
<time>2012-07-26T15:44:07Z</time>
<speed>2.280000</speed>
<extensions>
<speed>2.3</speed>
<temp>0.00</temp>
<bpm>0</bpm>
<rpm>0.00</rpm>
</extensions>
</trkpt>
<trkpt lat="63.699069977" lon="-19.589172363">
<ele>193.675781</ele>
<time>2012-07-26T15:44:12Z</time>
<speed>1.960000</speed>
<extensions>
<speed>2.0</speed>
<temp>0.00</temp>
<bpm>0</bpm>
<rpm>0.00</rpm>
</extensions>
</trkpt>
<trkpt lat="63.699077606" lon="-19.589374542">
<ele>193.621094</ele>
<time>2012-07-26T15:44:17Z</time>
<speed>2.170000</speed>
<extensions>
<speed>2.2</speed>
<temp>0.00</temp>
<bpm>0</bpm>
<rpm>0.00</rpm>
</extensions>
</trkpt>
<trkpt lat="63.699100494" lon="-19.589597702">
<ele>193.062500</ele>
<time>2012-07-26T15:44:22Z</time>
<speed>2.310000</speed>
<extensions>
<speed>2.3</speed>
<temp>0.00</temp>
<bpm>0</bpm>
<rpm>0.00</rpm>
</extensions>
</trkpt>
<trkpt lat="63.699111938" lon="-19.589838028">
<ele>193.246094</ele>
<time>2012-07-26T15:44:27Z</time>
<speed>2.540000</speed>
<extensions>
<speed>2.5</speed>
<temp>0.00</temp>
<bpm>0</bpm>
<rpm>0.00</rpm>
</extensions>
</trkpt>
<trkpt lat="63.699127197" lon="-19.590087891">
<ele>192.785156</ele>
<time>2012-07-26T15:44:32Z</time>
<speed>2.430000</speed>
<extensions>
<speed>2.4</speed>
<temp>0.00</temp>
<bpm>0</bpm>
<rpm>0.00</rpm>
</extensions>
</trkpt>
<trkpt lat="63.699138641" lon="-19.590333939">
<ele>194.687500</ele>
<time>2012-07-26T15:44:37Z</time>
<speed>2.240000</speed>
<extensions>
<speed>2.2</speed>
<temp>0.00</temp>
<bpm>0</bpm>
<rpm>0.00</rpm>
</extensions>
</trkpt>
<trkpt lat="63.699150085" lon="-19.590570450">
<ele>195.292969</ele>
<time>2012-07-26T15:44:42Z</time>
<speed>2.360000</speed>
<extensions>
<speed>2.4</speed>
<temp>0.00</temp>
<bpm>0</bpm>
<rpm>0.00</rpm>
</extensions>
</trkpt>
<trkpt lat="63.699157715" lon="-19.590824127">
<ele>196.757813</ele>
<time>2012-07-26T15:44:47Z</time>
<speed>2.590000</speed>
<extensions>
<speed>2.6</speed>
<temp>0.00</temp>
<bpm>0</bpm>
<rpm>0.00</rpm>
</extensions>
</trkpt>
<trkpt lat="63.699180603" lon="-19.591075897">
<ele>198.394531</ele>
<time>2012-07-26T15:44:52Z</time>
<speed>2.710000</speed>
<extensions>
<speed>2.7</speed>
<temp>0.00</temp>
<bpm>0</bpm>
<rpm>0.00</rpm>
</extensions>
</trkpt>
<trkpt lat="63.699180603" lon="-19.591344833">
<ele>197.531250</ele>
<time>2012-07-26T15:44:57Z</time>
<speed>2.110000</speed>
<extensions>
<speed>2.1</speed>
<temp>0.00</temp>
<bpm>0</bpm>
<rpm>0.00</rpm>
</extensions>
</trkpt>
<trkpt lat="63.699176788" lon="-19.591579437">
<ele>196.492188</ele>
<time>2012-07-26T15:45:02Z</time>
<speed>1.800000</speed>
<extensions>
<speed>1.8</speed>
<temp>0.00</temp>
<bpm>0</bpm>
<rpm>0.00</rpm>
</extensions>
</trkpt>
<trkpt lat="63.699180603" lon="-19.591625214">
<ele>188.886719</ele>
<time>2012-07-26T15:45:07Z</time>
<speed>0.010000</speed>
<extensions>
<speed>0.0</speed>
<temp>0.00</temp>
<bpm>0</bpm>
<rpm>0.00</rpm>
</extensions>
</trkpt>
<trkpt lat="63.699180603" lon="-19.591625214">
<ele>188.878906</ele>
<time>2012-07-26T15:45:12Z</time>
<extensions>
<speed>0.0</speed>
<temp>0.00</temp>
<bpm>0</bpm>
<rpm>0.00</rpm>
</extensions>
</trkpt>
<trkpt lat="63.699180603" lon="-19.591625214">
<ele>188.875000</ele>
<time>2012-07-26T15:45:17Z</time>
<extensions>
<speed>0.0</speed>
<temp>0.00</temp>
<bpm>0</bpm>
<rpm>0.00</rpm>
</extensions>
</trkpt>
<trkpt lat="63.699180603" lon="-19.591625214">
<ele>188.863281</ele>
<time>2012-07-26T15:45:22Z</time>
<extensions>
<speed>0.0</speed>
<temp>0.00</temp>
<bpm>0</bpm>
<rpm>0.00</rpm>
</extensions>
</trkpt>
<trkpt lat="63.699180603" lon="-19.591625214">
<ele>188.855469</ele>
<time>2012-07-26T15:45:27Z</time>
<extensions>
<speed>0.0</speed>
<temp>0.00</temp>
<bpm>0</bpm>
<rpm>0.00</rpm>
</extensions>
</trkpt>
<trkpt lat="63.699180603" lon="-19.591625214">
<ele>188.871094</ele>
<time>2012-07-26T15:45:32Z</time>
<speed>0.010000</speed>
<extensions>
<speed>0.0</speed>
<temp>0.00</temp>
<bpm>0</bpm>
<rpm>0.00</rpm>
</extensions>
</trkpt>
<trkpt lat="63.699180603" lon="-19.591625214">
<ele>188.894531</ele>
<time>2012-07-26T15:45:37Z</time>
<extensions>
<speed>0.0</speed>
<temp>0.00</temp>
<bpm>0</bpm>
<rpm>0.00</rpm>
</extensions>
</trkpt>
<trkpt lat="63.699180603" lon="-19.591625214">
<ele>188.894531</ele>
<time>2012-07-26T15:45:42Z</time>
<speed>0.010000</speed>
<extensions>
<speed>0.0</speed>
<temp>0.00</temp>
<bpm>0</bpm>
<rpm>0.00</rpm>
</extensions>
</trkpt>
<trkpt lat="63.699180603" lon="-19.591625214">
<ele>188.921875</ele>
<time>2012-07-26T15:45:47Z</time>
<extensions>
<speed>0.0</speed>
<temp>0.00</temp>
<bpm>0</bpm>
<rpm>0.00</rpm>
</extensions>
</trkpt>
<trkpt lat="63.699180603" lon="-19.591625214">
<ele>188.929688</ele>
<time>2012-07-26T15:45:52Z</time>
<extensions>
<speed>0.0</speed>
<temp>0.00</temp>
<bpm>0</bpm>
<rpm>0.00</rpm>
</extensions>
</trkpt>
<trkpt lat="63.699180603" lon="-19.591627121">
<ele>188.945313</ele>
<time>2012-07-26T15:45:57Z</time>
<extensions>
<speed>0.0</speed>
<temp>0.00</temp>
<bpm>0</bpm>
<rpm>0.00</rpm>
</extensions>
</trkpt>
<trkpt lat="63.699184418" lon="-19.591627121">
<ele>188.953125</ele>
<time>2012-07-26T15:46:02Z</time>
<speed>0.010000</speed>
<extensions>
<speed>0.0</speed>
<temp>0.00</temp>
<bpm>0</bpm>
<rpm>0.00</rpm>
</extensions>
</trkpt>
<trkpt lat="63.699184418" lon="-19.591627121">
<ele>188.964844</ele>
<time>2012-07-26T15:46:07Z</time>
<speed>0.010000</speed>
<extensions>
<speed>0.0</speed>
<temp>0.00</temp>
<bpm>0</bpm>
<rpm>0.00</rpm>
</extensions>
</trkpt>
<trkpt lat="63.699180603" lon="-19.591627121">
<ele>188.968750</ele>
<time>2012-07-26T15:46:12Z</time>
<speed>0.150000</speed>
<extensions>
<speed>0.2</speed>
<temp>0.00</temp>
<bpm>0</bpm>
<rpm>0.00</rpm>
</extensions>
</trkpt>
<trkpt lat="63.699180603" lon="-19.591720581">
<ele>189.218750</ele>
<time>2012-07-26T15:46:17Z</time>
<speed>1.120000</speed>
<extensions>
<speed>1.1</speed>
<temp>0.00</temp>
<bpm>0</bpm>
<rpm>0.00</rpm>
</extensions>
</trkpt>
<trkpt lat="63.699192047" lon="-19.591890335">
<ele>190.011719</ele>
<time>2012-07-26T15:46:22Z</time>
<speed>1.920000</speed>
<extensions>
<speed>1.9</speed>
<temp>0.00</temp>
<bpm>0</bpm>
<rpm>0.00</rpm>
</extensions>
</trkpt>
<trkpt lat="63.699207306" lon="-19.592075348">
<ele>189.460938</ele>
<time>2012-07-26T15:46:27Z</time>
<speed>2.170000</speed>
<extensions>
<speed>2.2</speed>
<temp>0.00</temp>
<bpm>0</bpm>
<rpm>0.00</rpm>
</extensions>
</trkpt>
<trkpt lat="63.699214935" lon="-19.592298508">
<ele>189.121094</ele>
<time>2012-07-26T15:46:32Z</time>
<speed>2.470000</speed>
<extensions>
<speed>2.5</speed>
<temp>0.00</temp>
<bpm>0</bpm>
<rpm>0.00</rpm>
</extensions>
</trkpt>
<trkpt lat="63.699211121" lon="-19.592533112">
<ele>188.890625</ele>
<time>2012-07-26T15:46:37Z</time>
<speed>2.030000</speed>
<extensions>
<speed>2.0</speed>
<temp>0.00</temp>
<bpm>0</bpm>
<rpm>0.00</rpm>
</extensions>
</trkpt>
<trkpt lat="63.699218750" lon="-19.592769623">
<ele>187.957031</ele>
<time>2012-07-26T15:46:42Z</time>
<speed>2.470000</speed>
<extensions>
<speed>2.5</speed>
<temp>0.00</temp>
<bpm>0</bpm>
<rpm>0.00</rpm>
</extensions>
</trkpt>
<trkpt lat="63.699192047" lon="-19.593034744">
<ele>188.152344</ele>
<time>2012-07-26T15:46:47Z</time>
<speed>2.830000</speed>
<extensions>
<speed>2.8</speed>
<temp>0.00</temp>
<bpm>0</bpm>
<rpm>0.00</rpm>
</extensions>
</trkpt>
<trkpt lat="63.699165344" lon="-19.593326569">
<ele>187.781250</ele>
<time>2012-07-26T15:46:52Z</time>
<speed>3.050000</speed>
<extensions>
<speed>3.0</speed>
<temp>0.00</temp>
<bpm>0</bpm>
<rpm>0.00</rpm>
</extensions>
</trkpt>
<trkpt lat="63.699134827" lon="-19.593610764">
<ele>188.000000</ele>
<time>2012-07-26T15:46:57Z</time>
<speed>2.710000</speed>
<extensions>
<speed>2.7</speed>
<temp>0.00</temp>
<bpm>0</bpm>
<rpm>0.00</rpm>
</extensions>
</trkpt>
<trkpt lat="63.699104309" lon="-19.593875885">
<ele>189.101563</ele>
<time>2012-07-26T15:47:02Z</time>
<speed>2.700000</speed>
<extensions>
<speed>2.7</speed>
<temp>0.00</temp>
<bpm>0</bpm>
<rpm>0.00</rpm>
</extensions>
</trkpt>
<trkpt lat="63.699054718" lon="-19.594142914">
<ele>188.734375</ele>
<time>2012-07-26T15:47:07Z</time>
<speed>2.690000</speed>
<extensions>
<speed>2.7</speed>
<temp>0.00</temp>
<bpm>0</bpm>
<rpm>0.00</rpm>
</extensions>
</trkpt>
<trkpt lat="63.698997498" lon="-19.594434738">
<ele>188.804688</ele>
<time>2012-07-26T15:47:12Z</time>
<speed>3.160000</speed>
<extensions>
<speed>3.2</speed>
<temp>0.00</temp>
<bpm>0</bpm>
<rpm>0.00</rpm>
</extensions>
</trkpt>
<trkpt lat="63.698932648" lon="-19.594726563">
<ele>188.484375</ele>
<time>2012-07-26T15:47:17Z</time>
<speed>2.570000</speed>
<extensions>
<speed>2.6</speed>
<temp>0.00</temp>
<bpm>0</bpm>
<rpm>0.00</rpm>
</extensions>
</trkpt>
<trkpt lat="63.698867798" lon="-19.594917297">
<ele>189.148438</ele>
<time>2012-07-26T15:47:22Z</time>
<speed>2.700000</speed>
<extensions>
<speed>2.7</speed>
<temp>0.00</temp>
<bpm>0</bpm>
<rpm>0.00</rpm>
</extensions>
</trkpt>
<trkpt lat="63.698806763" lon="-19.595125198">
<ele>188.277344</ele>
<time>2012-07-26T15:47:27Z</time>
<speed>2.850000</speed>
<extensions>
<speed>2.9</speed>
<temp>0.00</temp>
<bpm>0</bpm>
<rpm>0.00</rpm>
</extensions>
</trkpt>
<trkpt lat="63.698738098" lon="-19.595327377">
<ele>189.382813</ele>
<time>2012-07-26T15:47:32Z</time>
<speed>2.590000</speed>
<extensions>
<speed>2.6</speed>
<temp>0.00</temp>
<bpm>0</bpm>
<rpm>0.00</rpm>
</extensions>
</trkpt>
<trkpt lat="63.698650360" lon="-19.595539093">
<ele>189.496094</ele>
<time>2012-07-26T15:47:37Z</time>
<speed>2.960000</speed>
<extensions>
<speed>3.0</speed>
<temp>0.00</temp>
<bpm>0</bpm>
<rpm>0.00</rpm>
</extensions>
</trkpt>
<trkpt lat="63.698574066" lon="-19.595769882">
<ele>189.148438</ele>
<time>2012-07-26T15:47:42Z</time>
<speed>3.010000</speed>
<extensions>
<speed>3.0</speed>
<temp>0.00</temp>
<bpm>0</bpm>
<rpm>0.00</rpm>
</extensions>
</trkpt>
<trkpt lat="63.698516846" lon="-19.596033096">
<ele>187.804688</ele>
<time>2012-07-26T15:47:47Z</time>
<speed>2.390000</speed>
<extensions>
<speed>2.4</speed>
<temp>0.00</temp>
<bpm>0</bpm>
<rpm>0.00</rpm>
</extensions>
</trkpt>
<trkpt lat="63.698478699" lon="-19.596294403">
<ele>187.882813</ele>
<time>2012-07-26T15:47:52Z</time>
<speed>2.890000</speed>
<extensions>
<speed>2.9</speed>
<temp>0.00</temp>
<bpm>0</bpm>
<rpm>0.00</rpm>
</extensions>
</trkpt>
<trkpt lat="63.698448181" lon="-19.596551895">
<ele>187.457031</ele>
<time>2012-07-26T15:47:57Z</time>
<speed>2.590000</speed>
<extensions>
<speed>2.6</speed>
<temp>0.00</temp>
<bpm>0</bpm>
<rpm>0.00</rpm>
</extensions>
</trkpt>
<trkpt lat="63.698429108" lon="-19.596813202">
<ele>187.539063</ele>
<time>2012-07-26T15:48:02Z</time>
<speed>2.820000</speed>
<extensions>
<speed>2.8</speed>
<temp>0.00</temp>
<bpm>0</bpm>
<rpm>0.00</rpm>
</extensions>
</trkpt>
<trkpt lat="63.698413849" lon="-19.597106934">
<ele>187.636719</ele>
<time>2012-07-26T15:48:07Z</time>
<speed>2.790000</speed>
<extensions>
<speed>2.8</speed>
<temp>0.00</temp>
<bpm>0</bpm>
<rpm>0.00</rpm>
</extensions>
</trkpt>
<trkpt lat="63.698417664" lon="-19.597337723">
<ele>188.171875</ele>
<time>2012-07-26T15:48:12Z</time>
<speed>2.480000</speed>
<extensions>
<speed>2.5</speed>
<temp>0.00</temp>
<bpm>0</bpm>
<rpm>0.00</rpm>
</extensions>
</trkpt>
<trkpt lat="63.698413849" lon="-19.597656250">
<ele>187.710938</ele>
<time>2012-07-26T15:48:17Z</time>
<speed>3.000000</speed>
<extensions>
<speed>3.0</speed>
<temp>0.00</temp>
<bpm>0</bpm>
<rpm>0.00</rpm>
</extensions>
</trkpt>
<trkpt lat="63.698406219" lon="-19.597967148">
<ele>186.394531</ele>
<time>2012-07-26T15:48:22Z</time>
<speed>2.920000</speed>
<extensions>
<speed>2.9</speed>
<temp>0.00</temp>
<bpm>0</bpm>
<rpm>0.00</rpm>
</extensions>
</trkpt>
<trkpt lat="63.698398590" lon="-19.598295212">
<ele>183.710938</ele>
<time>2012-07-26T15:48:27Z</time>
<speed>3.250000</speed>
<extensions>
<speed>3.2</speed>
<temp>0.00</temp>
<bpm>0</bpm>
<rpm>0.00</rpm>
</extensions>
</trkpt>
<trkpt lat="63.698390961" lon="-19.598573685">
<ele>182.832031</ele>
<time>2012-07-26T15:48:32Z</time>
<speed>2.200000</speed>
<extensions>
<speed>2.2</speed>
<temp>0.00</temp>
<bpm>0</bpm>
<rpm>0.00</rpm>
</extensions>
</trkpt>
<trkpt lat="63.698387146" lon="-19.598779678">
<ele>181.910156</ele>
<time>2012-07-26T15:48:37Z</time>
<speed>1.530000</speed>
<extensions>
<speed>1.5</speed>
<temp>0.00</temp>
<bpm>0</bpm>
<rpm>0.00</rpm>
</extensions>
</trkpt>
<trkpt lat="63.698383331" lon="-19.598962784">
<ele>182.746094</ele>
<time>2012-07-26T15:48:42Z</time>
<speed>2.270000</speed>
<extensions>
<speed>2.3</speed>
<temp>0.00</temp>
<bpm>0</bpm>
<rpm>0.00</rpm>
</extensions>
</trkpt>
<trkpt lat="63.698390961" lon="-19.599258423">
<ele>181.105469</ele>
<time>2012-07-26T15:48:47Z</time>
<speed>2.990000</speed>
<extensions>
<speed>3.0</speed>
<temp>0.00</temp>
<bpm>0</bpm>
<rpm>0.00</rpm>
</extensions>
</trkpt>
<trkpt lat="63.698417664" lon="-19.599571228">
<ele>180.898438</ele>
<time>2012-07-26T15:48:52Z</time>
<speed>3.160000</speed>
<extensions>
<speed>3.2</speed>
<temp>0.00</temp>
<bpm>0</bpm>
<rpm>0.00</rpm>
</extensions>
</trkpt>
<trkpt lat="63.698425293" lon="-19.599884033">
<ele>180.546875</ele>
<time>2012-07-26T15:48:57Z</time>
<speed>2.850000</speed>
<extensions>
<speed>2.9</speed>
<temp>0.00</temp>
<bpm>0</bpm>
<rpm>0.00</rpm>
</extensions>
</trkpt>
<trkpt lat="63.698448181" lon="-19.600172043">
<ele>180.023438</ele>
<time>2012-07-26T15:49:02Z</time>
<speed>3.100000</speed>
<extensions>
<speed>3.1</speed>
<temp>0.00</temp>
<bpm>0</bpm>
<rpm>0.00</rpm>
</extensions>
</trkpt>
<trkpt lat="63.698471069" lon="-19.600486755">
<ele>180.589844</ele>
<time>2012-07-26T15:49:07Z</time>
<speed>3.300000</speed>
<extensions>
<speed>3.3</speed>
<temp>0.00</temp>
<bpm>0</bpm>
<rpm>0.00</rpm>
</extensions>
</trkpt>
<trkpt lat="63.698490143" lon="-19.600761414">
<ele>180.511719</ele>
<time>2012-07-26T15:49:12Z</time>
<speed>2.540000</speed>
<extensions>
<speed>2.5</speed>
<temp>0.00</temp>
<bpm>0</bpm>
<rpm>0.00</rpm>
</extensions>
</trkpt>
<trkpt lat="63.698501587" lon="-19.601041794">
<ele>178.472656</ele>
<time>2012-07-26T15:49:17Z</time>
<speed>2.900000</speed>
<extensions>
<speed>2.9</speed>
<temp>0.00</temp>
<bpm>0</bpm>
<rpm>0.00</rpm>
</extensions>
</trkpt>
<trkpt lat="63.698524475" lon="-19.601348877">
<ele>178.265625</ele>
<time>2012-07-26T15:49:22Z</time>
<speed>2.990000</speed>
<extensions>
<speed>3.0</speed>
<temp>0.00</temp>
<bpm>0</bpm>
<rpm>0.00</rpm>
</extensions>
</trkpt>
<trkpt lat="63.698543549" lon="-19.601640701">
<ele>178.843750</ele>
<time>2012-07-26T15:49:27Z</time>
<speed>2.750000</speed>
<extensions>
<speed>2.7</speed>
<temp>0.00</temp>
<bpm>0</bpm>
<rpm>0.00</rpm>
</extensions>
</trkpt>
<trkpt lat="63.698558807" lon="-19.601924896">
<ele>180.093750</ele>
<time>2012-07-26T15:49:32Z</time>
<speed>2.640000</speed>
<extensions>
<speed>2.6</speed>
<temp>0.00</temp>
<bpm>0</bpm>
<rpm>0.00</rpm>
</extensions>
</trkpt>
<trkpt lat="63.698570251" lon="-19.602184296">
<ele>179.628906</ele>
<time>2012-07-26T15:49:37Z</time>
<speed>2.880000</speed>
<extensions>
<speed>2.9</speed>
<temp>0.00</temp>
<bpm>0</bpm>
<rpm>0.00</rpm>
</extensions>
</trkpt>
<trkpt lat="63.698577881" lon="-19.602487564">
<ele>180.378906</ele>
<time>2012-07-26T15:49:42Z</time>
<speed>2.810000</speed>
<extensions>
<speed>2.8</speed>
<temp>0.00</temp>
<bpm>0</bpm>
<rpm>0.00</rpm>
</extensions>
</trkpt>
<trkpt lat="63.698585510" lon="-19.602703094">
<ele>180.183594</ele>
<time>2012-07-26T15:49:47Z</time>
<speed>1.700000</speed>
<extensions>
<speed>1.7</speed>
<temp>0.00</temp>
<bpm>0</bpm>
<rpm>0.00</rpm>
</extensions>
</trkpt>
<trkpt lat="63.698589325" lon="-19.602876663">
<ele>179.921875</ele>
<time>2012-07-26T15:49:52Z</time>
<speed>2.350000</speed>
<extensions>
<speed>2.4</speed>
<temp>0.00</temp>
<bpm>0</bpm>
<rpm>0.00</rpm>
</extensions>
</trkpt>
<trkpt lat="63.698600769" lon="-19.603139877">
<ele>180.714844</ele>
<time>2012-07-26T15:49:57Z</time>
<speed>2.730000</speed>
<extensions>
<speed>2.7</speed>
<temp>0.00</temp>
<bpm>0</bpm>
<rpm>0.00</rpm>
</extensions>
</trkpt>
<trkpt lat="63.698616028" lon="-19.603414536">
<ele>180.632813</ele>
<time>2012-07-26T15:50:02Z</time>
<speed>2.860000</speed>
<extensions>
<speed>2.9</speed>
<temp>0.00</temp>
<bpm>0</bpm>
<rpm>0.00</rpm>
</extensions>
</trkpt>
<trkpt lat="63.698627472" lon="-19.603731155">
<ele>180.324219</ele>
<time>2012-07-26T15:50:07Z</time>
<speed>3.150000</speed>
<extensions>
<speed>3.2</speed>
<temp>0.00</temp>
<bpm>0</bpm>
<rpm>0.00</rpm>
</extensions>
</trkpt>
<trkpt lat="63.698635101" lon="-19.604063034">
<ele>180.156250</ele>
<time>2012-07-26T15:50:12Z</time>
<speed>3.400000</speed>
<extensions>
<speed>3.4</speed>
<temp>0.00</temp>
<bpm>0</bpm>
<rpm>0.00</rpm>
</extensions>
</trkpt>
<trkpt lat="63.698638916" lon="-19.604349136">
<ele>180.054688</ele>
<time>2012-07-26T15:50:17Z</time>
<speed>2.320000</speed>
<extensions>
<speed>2.3</speed>
<temp>0.00</temp>
<bpm>0</bpm>
<rpm>0.00</rpm>
</extensions>
</trkpt>
<trkpt lat="63.698646545" lon="-19.604598999">
<ele>179.664063</ele>
<time>2012-07-26T15:50:22Z</time>
<speed>2.930000</speed>
<extensions>
<speed>2.9</speed>
<temp>0.00</temp>
<bpm>0</bpm>
<rpm>0.00</rpm>
</extensions>
</trkpt>
<trkpt lat="63.698642731" lon="-19.604930878">
<ele>179.523438</ele>
<time>2012-07-26T15:50:27Z</time>
<speed>3.490000</speed>
<extensions>
<speed>3.5</speed>
<temp>0.00</temp>
<bpm>0</bpm>
<rpm>0.00</rpm>
</extensions>
</trkpt>
<trkpt lat="63.698654175" lon="-19.605262756">
<ele>179.851563</ele>
<time>2012-07-26T15:50:32Z</time>
<speed>2.720000</speed>
<extensions>
<speed>2.7</speed>
<temp>0.00</temp>
<bpm>0</bpm>
<rpm>0.00</rpm>
</extensions>
</trkpt>
<trkpt lat="63.698677063" lon="-19.605489731">
<ele>179.628906</ele>
<time>2012-07-26T15:50:37Z</time>
<speed>2.550000</speed>
<extensions>
<speed>2.6</speed>
<temp>0.00</temp>
<bpm>0</bpm>
<rpm>0.00</rpm>
</extensions>
</trkpt>
<trkpt lat="63.698680878" lon="-19.605758667">
<ele>179.468750</ele>
<time>2012-07-26T15:50:42Z</time>
<speed>2.710000</speed>
<extensions>
<speed>2.7</speed>
<temp>0.00</temp>
<bpm>0</bpm>
<rpm>0.00</rpm>
</extensions>
</trkpt>
<trkpt lat="63.698677063" lon="-19.606042862">
<ele>179.429688</ele>
<time>2012-07-26T15:50:47Z</time>
<speed>3.030000</speed>
<extensions>
<speed>3.0</speed>
<temp>0.00</temp>
<bpm>0</bpm>
<rpm>0.00</rpm>
</extensions>
</trkpt>
<trkpt lat="63.698692322" lon="-19.606370926">
<ele>179.457031</ele>
<time>2012-07-26T15:50:52Z</time>
<speed>3.410000</speed>
<extensions>
<speed>3.4</speed>
<temp>0.00</temp>
<bpm>0</bpm>
<rpm>0.00</rpm>
</extensions>
</trkpt>
<trkpt lat="63.698707581" lon="-19.606649399">
<ele>179.234375</ele>
<time>2012-07-26T15:50:57Z</time>
<speed>2.290000</speed>
<extensions>
<speed>2.3</speed>
<temp>0.00</temp>
<bpm>0</bpm>
<rpm>0.00</rpm>
</extensions>
</trkpt>
<trkpt lat="63.698719025" lon="-19.606861115">
<ele>178.687500</ele>
<time>2012-07-26T15:51:02Z</time>
<speed>2.540000</speed>
<extensions>
<speed>2.5</speed>
<temp>0.00</temp>
<bpm>0</bpm>
<rpm>0.00</rpm>
</extensions>
</trkpt>
<trkpt lat="63.698730469" lon="-19.607131958">
<ele>178.347656</ele>
<time>2012-07-26T15:51:07Z</time>
<speed>2.850000</speed>
<extensions>
<speed>2.9</speed>
<temp>0.00</temp>
<bpm>0</bpm>
<rpm>0.00</rpm>
</extensions>
</trkpt>
<trkpt lat="63.698730469" lon="-19.607429504">
<ele>178.183594</ele>
<time>2012-07-26T15:51:12Z</time>
<speed>3.440000</speed>
<extensions>
<speed>3.4</speed>
<temp>0.00</temp>
<bpm>0</bpm>
<rpm>0.00</rpm>
</extensions>
</trkpt>
<trkpt lat="63.698749542" lon="-19.607748032">
<ele>178.039063</ele>
<time>2012-07-26T15:51:17Z</time>
<speed>2.320000</speed>
<extensions>
<speed>2.3</speed>
<temp>0.00</temp>
<bpm>0</bpm>
<rpm>0.00</rpm>
</extensions>
</trkpt>
<trkpt lat="63.698760986" lon="-19.607965469">
<ele>177.105469</ele>
<time>2012-07-26T15:51:22Z</time>
<speed>1.640000</speed>
<extensions>
<speed>1.6</speed>
<temp>0.00</temp>
<bpm>0</bpm>
<rpm>0.00</rpm>
</extensions>
</trkpt>
<trkpt lat="63.698753357" lon="-19.608163834">
<ele>176.707031</ele>
<time>2012-07-26T15:51:27Z</time>
<speed>2.450000</speed>
<extensions>
<speed>2.4</speed>
<temp>0.00</temp>
<bpm>0</bpm>
<rpm>0.00</rpm>
</extensions>
</trkpt>
<trkpt lat="63.698764801" lon="-19.608440399">
<ele>176.855469</ele>
<time>2012-07-26T15:51:32Z</time>
<speed>2.970000</speed>
<extensions>
<speed>3.0</speed>
<temp>0.00</temp>
<bpm>0</bpm>
<rpm>0.00</rpm>
</extensions>
</trkpt>
<trkpt lat="63.698780060" lon="-19.608739853">
<ele>176.738281</ele>
<time>2012-07-26T15:51:37Z</time>
<speed>3.050000</speed>
<extensions>
<speed>3.0</speed>
<temp>0.00</temp>
<bpm>0</bpm>
<rpm>0.00</rpm>
</extensions>
</trkpt>
<trkpt lat="63.698791504" lon="-19.609043121">
<ele>176.546875</ele>
<time>2012-07-26T15:51:42Z</time>
<speed>2.910000</speed>
<extensions>
<speed>2.9</speed>
<temp>0.00</temp>
<bpm>0</bpm>
<rpm>0.00</rpm>
</extensions>
</trkpt>
<trkpt lat="63.698802948" lon="-19.609317780">
<ele>176.332031</ele>
<time>2012-07-26T15:51:47Z</time>
<speed>2.270000</speed>
<extensions>
<speed>2.3</speed>
<temp>0.00</temp>
<bpm>0</bpm>
<rpm>0.00</rpm>
</extensions>
</trkpt>
<trkpt lat="63.698810577" lon="-19.609455109">
<ele>175.984375</ele>
<time>2012-07-26T15:51:52Z</time>
<speed>0.450000</speed>
<extensions>
<speed>0.5</speed>
<temp>0.00</temp>
<bpm>0</bpm>
<rpm>0.00</rpm>
</extensions>
</trkpt>
<trkpt lat="63.698802948" lon="-19.609449387">
<ele>175.773438</ele>
<time>2012-07-26T15:51:57Z</time>
<speed>0.100000</speed>
<extensions>
<speed>0.1</speed>
<temp>0.00</temp>
<bpm>0</bpm>
<rpm>0.00</rpm>
</extensions>
</trkpt>
<trkpt lat="63.698806763" lon="-19.609437943">
<ele>175.609375</ele>
<time>2012-07-26T15:52:02Z</time>
<speed>0.020000</speed>
<extensions>
<speed>0.0</speed>
<temp>0.00</temp>
<bpm>0</bpm>
<rpm>0.00</rpm>
</extensions>
</trkpt>
<trkpt lat="63.698806763" lon="-19.609436035">
<ele>175.539063</ele>
<time>2012-07-26T15:52:07Z</time>
<speed>0.020000</speed>
<extensions>
<speed>0.0</speed>
<temp>0.00</temp>
<bpm>0</bpm>
<rpm>0.00</rpm>
</extensions>
</trkpt>
<trkpt lat="63.698806763" lon="-19.609432220">
<ele>175.421875</ele>
<time>2012-07-26T15:52:12Z</time>
<speed>0.030000</speed>
<extensions>
<speed>0.0</speed>
<temp>0.00</temp>
<bpm>0</bpm>
<rpm>0.00</rpm>
</extensions>
</trkpt>
<trkpt lat="63.698806763" lon="-19.609432220">
<ele>175.355469</ele>
<time>2012-07-26T15:52:17Z</time>
<speed>0.020000</speed>
<extensions>
<speed>0.0</speed>
<temp>0.00</temp>
<bpm>0</bpm>
<rpm>0.00</rpm>
</extensions>
</trkpt>
<trkpt lat="63.698806763" lon="-19.609430313">
<ele>175.304688</ele>
<time>2012-07-26T15:52:22Z</time>
<speed>0.010000</speed>
<extensions>
<speed>0.0</speed>
<temp>0.00</temp>
<bpm>0</bpm>
<rpm>0.00</rpm>
</extensions>
</trkpt>
<trkpt lat="63.698806763" lon="-19.609428406">
<ele>175.269531</ele>
<time>2012-07-26T15:52:27Z</time>
<speed>0.030000</speed>
<extensions>
<speed>0.0</speed>
<temp>0.00</temp>
<bpm>0</bpm>
<rpm>0.00</rpm>
</extensions>
</trkpt>
<trkpt lat="63.698806763" lon="-19.609428406">
<ele>175.265625</ele>
<time>2012-07-26T15:52:32Z</time>
<speed>0.010000</speed>
<extensions>
<speed>0.0</speed>
<temp>0.00</temp>
<bpm>0</bpm>
<rpm>0.00</rpm>
</extensions>
</trkpt>
<trkpt lat="63.698806763" lon="-19.609430313">
<ele>175.265625</ele>
<time>2012-07-26T15:52:37Z</time>
<speed>0.030000</speed>
<extensions>
<speed>0.0</speed>
<temp>0.00</temp>
<bpm>0</bpm>
<rpm>0.00</rpm>
</extensions>
</trkpt>
<trkpt lat="63.698806763" lon="-19.609430313">
<ele>175.265625</ele>
<time>2012-07-26T15:52:42Z</time>
<speed>0.010000</speed>
<extensions>
<speed>0.0</speed>
<temp>0.00</temp>
<bpm>0</bpm>
<rpm>0.00</rpm>
</extensions>
</trkpt>
<trkpt lat="63.698806763" lon="-19.609430313">
<ele>175.265625</ele>
<time>2012-07-26T15:52:47Z</time>
<speed>0.010000</speed>
<extensions>
<speed>0.0</speed>
<temp>0.00</temp>
<bpm>0</bpm>
<rpm>0.00</rpm>
</extensions>
</trkpt>
<trkpt lat="63.698806763" lon="-19.609430313">
<ele>175.257813</ele>
<time>2012-07-26T15:52:52Z</time>
<speed>0.010000</speed>
<extensions>
<speed>0.0</speed>
<temp>0.00</temp>
<bpm>0</bpm>
<rpm>0.00</rpm>
</extensions>
</trkpt>
<trkpt lat="63.698806763" lon="-19.609430313">
<ele>175.246094</ele>
<time>2012-07-26T15:52:57Z</time>
<extensions>
<speed>0.0</speed>
<temp>0.00</temp>
<bpm>0</bpm>
<rpm>0.00</rpm>
</extensions>
</trkpt>
<trkpt lat="63.698806763" lon="-19.609430313">
<ele>175.246094</ele>
<time>2012-07-26T15:53:02Z</time>
<extensions>
<speed>0.0</speed>
<temp>0.00</temp>
<bpm>0</bpm>
<rpm>0.00</rpm>
</extensions>
</trkpt>
<trkpt lat="63.698806763" lon="-19.609430313">
<ele>175.234375</ele>
<time>2012-07-26T15:53:07Z</time>
<speed>0.010000</speed>
<extensions>
<speed>0.0</speed>
<temp>0.00</temp>
<bpm>0</bpm>
<rpm>0.00</rpm>
</extensions>
</trkpt>
<trkpt lat="63.698806763" lon="-19.609430313">
<ele>175.230469</ele>
<time>2012-07-26T15:53:12Z</time>
<speed>0.010000</speed>
<extensions>
<speed>0.0</speed>
<temp>0.00</temp>
<bpm>0</bpm>
<rpm>0.00</rpm>
</extensions>
</trkpt>
<trkpt lat="63.698806763" lon="-19.609430313">
<ele>175.218750</ele>
<time>2012-07-26T15:53:17Z</time>
<extensions>
<speed>0.0</speed>
<temp>0.00</temp>
<bpm>0</bpm>
<rpm>0.00</rpm>
</extensions>
</trkpt>
<trkpt lat="63.698806763" lon="-19.609430313">
<ele>175.214844</ele>
<time>2012-07-26T15:53:22Z</time>
<speed>0.010000</speed>
<extensions>
<speed>0.0</speed>
<temp>0.00</temp>
<bpm>0</bpm>
<rpm>0.00</rpm>
</extensions>
</trkpt>
<trkpt lat="63.698806763" lon="-19.609430313">
<ele>175.207031</ele>
<time>2012-07-26T15:53:27Z</time>
<speed>0.020000</speed>
<extensions>
<speed>0.0</speed>
<temp>0.00</temp>
<bpm>0</bpm>
<rpm>0.00</rpm>
</extensions>
</trkpt>
<trkpt lat="63.698806763" lon="-19.609430313">
<ele>175.207031</ele>
<time>2012-07-26T15:53:32Z</time>
<speed>0.010000</speed>
<extensions>
<speed>0.0</speed>
<temp>0.00</temp>
<bpm>0</bpm>
<rpm>0.00</rpm>
</extensions>
</trkpt>
<trkpt lat="63.698814392" lon="-19.609521866">
<ele>175.164063</ele>
<time>2012-07-26T15:53:37Z</time>
<speed>2.110000</speed>
<extensions>
<speed>2.1</speed>
<temp>0.00</temp>
<bpm>0</bpm>
<rpm>0.00</rpm>
</extensions>
</trkpt>
<trkpt lat="63.698841095" lon="-19.609838486">
<ele>173.441406</ele>
<time>2012-07-26T15:53:42Z</time>
<speed>2.790000</speed>
<extensions>
<speed>2.8</speed>
<temp>0.00</temp>
<bpm>0</bpm>
<rpm>0.00</rpm>
</extensions>
</trkpt>
<trkpt lat="63.698856354" lon="-19.610176086">
<ele>171.503906</ele>
<time>2012-07-26T15:53:47Z</time>
<speed>2.870000</speed>
<extensions>
<speed>2.9</speed>
<temp>0.00</temp>
<bpm>0</bpm>
<rpm>0.00</rpm>
</extensions>
</trkpt>
<trkpt lat="63.698852539" lon="-19.610523224">
<ele>169.609375</ele>
<time>2012-07-26T15:53:52Z</time>
<speed>2.800000</speed>
<extensions>
<speed>2.8</speed>
<temp>0.00</temp>
<bpm>0</bpm>
<rpm>0.00</rpm>
</extensions>
</trkpt>
<trkpt lat="63.698867798" lon="-19.610843658">
<ele>166.871094</ele>
<time>2012-07-26T15:53:57Z</time>
<speed>2.970000</speed>
<extensions>
<speed>3.0</speed>
<temp>0.00</temp>
<bpm>0</bpm>
<rpm>0.00</rpm>
</extensions>
</trkpt>
<trkpt lat="63.698879242" lon="-19.611146927">
<ele>163.957031</ele>
<time>2012-07-26T15:54:02Z</time>
<speed>2.750000</speed>
<extensions>
<speed>2.7</speed>
<temp>0.00</temp>
<bpm>0</bpm>
<rpm>0.00</rpm>
</extensions>
</trkpt>
<trkpt lat="63.698894501" lon="-19.611459732">
<ele>160.648438</ele>
<time>2012-07-26T15:54:07Z</time>
<speed>2.920000</speed>
<extensions>
<speed>2.9</speed>
<temp>0.00</temp>
<bpm>0</bpm>
<rpm>0.00</rpm>
</extensions>
</trkpt>
<trkpt lat="63.698894501" lon="-19.611759186">
<ele>157.105469</ele>
<time>2012-07-26T15:54:12Z</time>
<speed>2.910000</speed>
<extensions>
<speed>2.9</speed>
<temp>0.00</temp>
<bpm>0</bpm>
<rpm>0.00</rpm>
</extensions>
</trkpt>
<trkpt lat="63.698921204" lon="-19.612022400">
<ele>153.210938</ele>
<time>2012-07-26T15:54:17Z</time>
<speed>2.420000</speed>
<extensions>
<speed>2.4</speed>
<temp>0.00</temp>
<bpm>0</bpm>
<rpm>0.00</rpm>
</extensions>
</trkpt>
<trkpt lat="63.698936462" lon="-19.612331390">
<ele>149.093750</ele>
<time>2012-07-26T15:54:22Z</time>
<speed>3.340000</speed>
<extensions>
<speed>3.3</speed>
<temp>0.00</temp>
<bpm>0</bpm>
<rpm>0.00</rpm>
</extensions>
</trkpt>
<trkpt lat="63.698966980" lon="-19.612682343">
<ele>145.390625</ele>
<time>2012-07-26T15:54:27Z</time>
<speed>3.510000</speed>
<extensions>
<speed>3.5</speed>
<temp>0.00</temp>
<bpm>0</bpm>
<rpm>0.00</rpm>
</extensions>
</trkpt>
<trkpt lat="63.698974609" lon="-19.613012314">
<ele>142.542969</ele>
<time>2012-07-26T15:54:32Z</time>
<speed>3.020000</speed>
<extensions>
<speed>3.0</speed>
<temp>0.00</temp>
<bpm>0</bpm>
<rpm>0.00</rpm>
</extensions>
</trkpt>
<trkpt lat="63.699001312" lon="-19.613233566">
<ele>138.941406</ele>
<time>2012-07-26T15:54:37Z</time>
<speed>2.170000</speed>
<extensions>
<speed>2.2</speed>
<temp>0.00</temp>
<bpm>0</bpm>
<rpm>0.00</rpm>
</extensions>
</trkpt>
<trkpt lat="63.699001312" lon="-19.613475800">
<ele>135.906250</ele>
<time>2012-07-26T15:54:42Z</time>
<speed>2.320000</speed>
<extensions>
<speed>2.3</speed>
<temp>0.00</temp>
<bpm>0</bpm>
<rpm>0.00</rpm>
</extensions>
</trkpt>
<trkpt lat="63.699016571" lon="-19.613685608">
<ele>133.507813</ele>
<time>2012-07-26T15:54:47Z</time>
<speed>1.740000</speed>
<extensions>
<speed>1.7</speed>
<temp>0.00</temp>
<bpm>0</bpm>
<rpm>0.00</rpm>
</extensions>
</trkpt>
<trkpt lat="63.699039459" lon="-19.613851547">
<ele>131.453125</ele>
<time>2012-07-26T15:54:52Z</time>
<speed>1.910000</speed>
<extensions>
<speed>1.9</speed>
<temp>0.00</temp>
<bpm>0</bpm>
<rpm>0.00</rpm>
</extensions>
</trkpt>
<trkpt lat="63.699058533" lon="-19.614040375">
<ele>130.199219</ele>
<time>2012-07-26T15:54:57Z</time>
<speed>1.800000</speed>
<extensions>
<speed>1.8</speed>
<temp>0.00</temp>
<bpm>0</bpm>
<rpm>0.00</rpm>
</extensions>
</trkpt>
<trkpt lat="63.699058533" lon="-19.614242554">
<ele>129.781250</ele>
<time>2012-07-26T15:55:02Z</time>
<speed>2.020000</speed>
<extensions>
<speed>2.0</speed>
<temp>0.00</temp>
<bpm>0</bpm>
<rpm>0.00</rpm>
</extensions>
</trkpt>
<trkpt lat="63.699062347" lon="-19.614458084">
<ele>128.296875</ele>
<time>2012-07-26T15:55:07Z</time>
<speed>1.930000</speed>
<extensions>
<speed>1.9</speed>
<temp>0.00</temp>
<bpm>0</bpm>
<rpm>0.00</rpm>
</extensions>
</trkpt>
<trkpt lat="63.699081421" lon="-19.614665985">
<ele>127.746094</ele>
<time>2012-07-26T15:55:12Z</time>
<speed>2.140000</speed>
<extensions>
<speed>2.1</speed>
<temp>0.00</temp>
<bpm>0</bpm>
<rpm>0.00</rpm>
</extensions>
</trkpt>
<trkpt lat="63.699085236" lon="-19.614871979">
<ele>128.050781</ele>
<time>2012-07-26T15:55:17Z</time>
<speed>2.020000</speed>
<extensions>
<speed>2.0</speed>
<temp>0.00</temp>
<bpm>0</bpm>
<rpm>0.00</rpm>
</extensions>
</trkpt>
<trkpt lat="63.699081421" lon="-19.615106583">
<ele>129.453125</ele>
<time>2012-07-26T15:55:22Z</time>
<speed>2.260000</speed>
<extensions>
<speed>2.3</speed>
<temp>0.00</temp>
<bpm>0</bpm>
<rpm>0.00</rpm>
</extensions>
</trkpt>
<trkpt lat="63.699092865" lon="-19.615345001">
<ele>132.441406</ele>
<time>2012-07-26T15:55:27Z</time>
<speed>2.040000</speed>
<extensions>
<speed>2.0</speed>
<temp>0.00</temp>
<bpm>0</bpm>
<rpm>0.00</rpm>
</extensions>
</trkpt>
<trkpt lat="63.699100494" lon="-19.615562439">
<ele>138.089844</ele>
<time>2012-07-26T15:55:32Z</time>
<speed>2.070000</speed>
<extensions>
<speed>2.1</speed>
<temp>0.00</temp>
<bpm>0</bpm>
<rpm>0.00</rpm>
</extensions>
</trkpt>
<trkpt lat="63.699119568" lon="-19.615789413">
<ele>138.558594</ele>
<time>2012-07-26T15:55:37Z</time>
<speed>2.550000</speed>
<extensions>
<speed>2.6</speed>
<temp>0.00</temp>
<bpm>0</bpm>
<rpm>0.00</rpm>
</extensions>
</trkpt>
<trkpt lat="63.699119568" lon="-19.616043091">
<ele>140.628906</ele>
<time>2012-07-26T15:55:42Z</time>
<speed>2.620000</speed>
<extensions>
<speed>2.6</speed>
<temp>0.00</temp>
<bpm>0</bpm>
<rpm>0.00</rpm>
</extensions>
</trkpt>
<trkpt lat="63.699131012" lon="-19.616319656">
<ele>143.015625</ele>
<time>2012-07-26T15:55:47Z</time>
<speed>2.730000</speed>
<extensions>
<speed>2.7</speed>
<temp>0.00</temp>
<bpm>0</bpm>
<rpm>0.00</rpm>
</extensions>
</trkpt>
<trkpt lat="63.699142456" lon="-19.616615295">
<ele>146.117188</ele>
<time>2012-07-26T15:55:52Z</time>
<speed>2.900000</speed>
<extensions>
<speed>2.9</speed>
<temp>0.00</temp>
<bpm>0</bpm>
<rpm>0.00</rpm>
</extensions>
</trkpt>
<trkpt lat="63.699165344" lon="-19.616928101">
<ele>146.363281</ele>
<time>2012-07-26T15:55:57Z</time>
<speed>3.160000</speed>
<extensions>
<speed>3.2</speed>
<temp>0.00</temp>
<bpm>0</bpm>
<rpm>0.00</rpm>
</extensions>
</trkpt>
<trkpt lat="63.699184418" lon="-19.617233276">
<ele>146.667969</ele>
<time>2012-07-26T15:56:02Z</time>
<speed>3.180000</speed>
<extensions>
<speed>3.2</speed>
<temp>0.00</temp>
<bpm>0</bpm>
<rpm>0.00</rpm>
</extensions>
</trkpt>
<trkpt lat="63.699207306" lon="-19.617565155">
<ele>148.296875</ele>
<time>2012-07-26T15:56:07Z</time>
<speed>3.240000</speed>
<extensions>
<speed>3.2</speed>
<temp>0.00</temp>
<bpm>0</bpm>
<rpm>0.00</rpm>
</extensions>
</trkpt>
<trkpt lat="63.699214935" lon="-19.617877960">
<ele>149.628906</ele>
<time>2012-07-26T15:56:12Z</time>
<speed>3.090000</speed>
<extensions>
<speed>3.1</speed>
<temp>0.00</temp>
<bpm>0</bpm>
<rpm>0.00</rpm>
</extensions>
</trkpt>
<trkpt lat="63.699237823" lon="-19.618194580">
<ele>151.062500</ele>
<time>2012-07-26T15:56:17Z</time>
<speed>2.970000</speed>
<extensions>
<speed>3.0</speed>
<temp>0.00</temp>
<bpm>0</bpm>
<rpm>0.00</rpm>
</extensions>
</trkpt>
<trkpt lat="63.699256897" lon="-19.618423462">
<ele>150.019531</ele>
<time>2012-07-26T15:56:22Z</time>
<speed>2.560000</speed>
<extensions>
<speed>2.6</speed>
<temp>0.00</temp>
<bpm>0</bpm>
<rpm>0.00</rpm>
</extensions>
</trkpt>
<trkpt lat="63.699272156" lon="-19.618690491">
<ele>150.832031</ele>
<time>2012-07-26T15:56:27Z</time>
<speed>2.940000</speed>
<extensions>
<speed>2.9</speed>
<temp>0.00</temp>
<bpm>0</bpm>
<rpm>0.00</rpm>
</extensions>
</trkpt>
<trkpt lat="63.699275970" lon="-19.618993759">
<ele>151.375000</ele>
<time>2012-07-26T15:56:32Z</time>
<speed>2.760000</speed>
<extensions>
<speed>2.8</speed>
<temp>0.00</temp>
<bpm>0</bpm>
<rpm>0.00</rpm>
</extensions>
</trkpt>
<trkpt lat="63.699287415" lon="-19.619304657">
<ele>152.457031</ele>
<time>2012-07-26T15:56:37Z</time>
<speed>3.050000</speed>
<extensions>
<speed>3.0</speed>
<temp>0.00</temp>
<bpm>0</bpm>
<rpm>0.00</rpm>
</extensions>
</trkpt>
<trkpt lat="63.699306488" lon="-19.619615555">
<ele>152.636719</ele>
<time>2012-07-26T15:56:42Z</time>
<speed>3.180000</speed>
<extensions>
<speed>3.2</speed>
<temp>0.00</temp>
<bpm>0</bpm>
<rpm>0.00</rpm>
</extensions>
</trkpt>
<trkpt lat="63.699317932" lon="-19.619890213">
<ele>152.984375</ele>
<time>2012-07-26T15:56:47Z</time>
<speed>2.070000</speed>
<extensions>
<speed>2.1</speed>
<temp>0.00</temp>
<bpm>0</bpm>
<rpm>0.00</rpm>
</extensions>
</trkpt>
<trkpt lat="63.699337006" lon="-19.620122910">
<ele>153.199219</ele>
<time>2012-07-26T15:56:52Z</time>
<speed>2.740000</speed>
<extensions>
<speed>2.7</speed>
<temp>0.00</temp>
<bpm>0</bpm>
<rpm>0.00</rpm>
</extensions>
</trkpt>
<trkpt lat="63.699352264" lon="-19.620412827">
<ele>153.945313</ele>
<time>2012-07-26T15:56:57Z</time>
<speed>3.110000</speed>
<extensions>
<speed>3.1</speed>
<temp>0.00</temp>
<bpm>0</bpm>
<rpm>0.00</rpm>
</extensions>
</trkpt>
<trkpt lat="63.699367523" lon="-19.620767593">
<ele>154.242188</ele>
<time>2012-07-26T15:57:02Z</time>
<speed>3.390000</speed>
<extensions>
<speed>3.4</speed>
<temp>0.00</temp>
<bpm>0</bpm>
<rpm>0.00</rpm>
</extensions>
</trkpt>
<trkpt lat="63.699382782" lon="-19.621051788">
<ele>155.570313</ele>
<time>2012-07-26T15:57:07Z</time>
<speed>2.370000</speed>
<extensions>
<speed>2.4</speed>
<temp>0.00</temp>
<bpm>0</bpm>
<rpm>0.00</rpm>
</extensions>
</trkpt>
<trkpt lat="63.699405670" lon="-19.621297836">
<ele>154.871094</ele>
<time>2012-07-26T15:57:12Z</time>
<speed>2.840000</speed>
<extensions>
<speed>2.8</speed>
<temp>0.00</temp>
<bpm>0</bpm>
<rpm>0.00</rpm>
</extensions>
</trkpt>
<trkpt lat="63.699417114" lon="-19.621587753">
<ele>153.902344</ele>
<time>2012-07-26T15:57:17Z</time>
<speed>3.030000</speed>
<extensions>
<speed>3.0</speed>
<temp>0.00</temp>
<bpm>0</bpm>
<rpm>0.00</rpm>
</extensions>
</trkpt>
<trkpt lat="63.699432373" lon="-19.621889114">
<ele>151.902344</ele>
<time>2012-07-26T15:57:22Z</time>
<speed>3.200000</speed>
<extensions>
<speed>3.2</speed>
<temp>0.00</temp>
<bpm>0</bpm>
<rpm>0.00</rpm>
</extensions>
</trkpt>
<trkpt lat="63.699447632" lon="-19.622211456">
<ele>150.941406</ele>
<time>2012-07-26T15:57:27Z</time>
<speed>3.410000</speed>
<extensions>
<speed>3.4</speed>
<temp>0.00</temp>
<bpm>0</bpm>
<rpm>0.00</rpm>
</extensions>
</trkpt>
<trkpt lat="63.699470520" lon="-19.622518539">
<ele>148.722656</ele>
<time>2012-07-26T15:57:32Z</time>
<speed>2.480000</speed>
<extensions>
<speed>2.5</speed>
<temp>0.00</temp>
<bpm>0</bpm>
<rpm>0.00</rpm>
</extensions>
</trkpt>
<trkpt lat="63.699497223" lon="-19.622768402">
<ele>147.515625</ele>
<time>2012-07-26T15:57:37Z</time>
<speed>2.830000</speed>
<extensions>
<speed>2.8</speed>
<temp>0.00</temp>
<bpm>0</bpm>
<rpm>0.00</rpm>
</extensions>
</trkpt>
<trkpt lat="63.699501038" lon="-19.623052597">
<ele>150.492188</ele>
<time>2012-07-26T15:57:42Z</time>
<speed>2.720000</speed>
<extensions>
<speed>2.7</speed>
<temp>0.00</temp>
<bpm>0</bpm>
<rpm>0.00</rpm>
</extensions>
</trkpt>
<trkpt lat="63.699520111" lon="-19.623323441">
<ele>154.816406</ele>
<time>2012-07-26T15:57:47Z</time>
<speed>2.890000</speed>
<extensions>
<speed>2.9</speed>
<temp>0.00</temp>
<bpm>0</bpm>
<rpm>0.00</rpm>
</extensions>
</trkpt>
<trkpt lat="63.699535370" lon="-19.623615265">
<ele>157.171875</ele>
<time>2012-07-26T15:57:52Z</time>
<speed>2.950000</speed>
<extensions>
<speed>2.9</speed>
<temp>0.00</temp>
<bpm>0</bpm>
<rpm>0.00</rpm>
</extensions>
</trkpt>
<trkpt lat="63.699562073" lon="-19.623888016">
<ele>158.644531</ele>
<time>2012-07-26T15:57:57Z</time>
<speed>2.620000</speed>
<extensions>
<speed>2.6</speed>
<temp>0.00</temp>
<bpm>0</bpm>
<rpm>0.00</rpm>
</extensions>
</trkpt>
<trkpt lat="63.699558258" lon="-19.624214172">
<ele>160.332031</ele>
<time>2012-07-26T15:58:02Z</time>
<speed>3.210000</speed>
<extensions>
<speed>3.2</speed>
<temp>0.00</temp>
<bpm>0</bpm>
<rpm>0.00</rpm>
</extensions>
</trkpt>
<trkpt lat="63.699565887" lon="-19.624546051">
<ele>161.238281</ele>
<time>2012-07-26T15:58:07Z</time>
<speed>3.270000</speed>
<extensions>
<speed>3.3</speed>
<temp>0.00</temp>
<bpm>0</bpm>
<rpm>0.00</rpm>
</extensions>
</trkpt>
<trkpt lat="63.699577332" lon="-19.624843597">
<ele>159.976563</ele>
<time>2012-07-26T15:58:12Z</time>
<speed>2.420000</speed>
<extensions>
<speed>2.4</speed>
<temp>0.00</temp>
<bpm>0</bpm>
<rpm>0.00</rpm>
</extensions>
</trkpt>
<trkpt lat="63.699592590" lon="-19.625102997">
<ele>158.660156</ele>
<time>2012-07-26T15:58:17Z</time>
<speed>3.070000</speed>
<extensions>
<speed>3.1</speed>
<temp>0.00</temp>
<bpm>0</bpm>
<rpm>0.00</rpm>
</extensions>
</trkpt>
<trkpt lat="63.699611664" lon="-19.625421524">
<ele>158.777344</ele>
<time>2012-07-26T15:58:22Z</time>
<speed>3.220000</speed>
<extensions>
<speed>3.2</speed>
<temp>0.00</temp>
<bpm>0</bpm>
<rpm>0.00</rpm>
</extensions>
</trkpt>
<trkpt lat="63.699649811" lon="-19.625709534">
<ele>158.964844</ele>
<time>2012-07-26T15:58:27Z</time>
<speed>3.250000</speed>
<extensions>
<speed>3.2</speed>
<temp>0.00</temp>
<bpm>0</bpm>
<rpm>0.00</rpm>
</extensions>
</trkpt>
<trkpt lat="63.699668884" lon="-19.626062393">
<ele>158.710938</ele>
<time>2012-07-26T15:58:32Z</time>
<speed>3.400000</speed>
<extensions>
<speed>3.4</speed>
<temp>0.00</temp>
<bpm>0</bpm>
<rpm>0.00</rpm>
</extensions>
</trkpt>
<trkpt lat="63.699699402" lon="-19.626428604">
<ele>157.550781</ele>
<time>2012-07-26T15:58:37Z</time>
<speed>3.430000</speed>
<extensions>
<speed>3.4</speed>
<temp>0.00</temp>
<bpm>0</bpm>
<rpm>0.00</rpm>
</extensions>
</trkpt>
<trkpt lat="63.699729919" lon="-19.626747131">
<ele>157.460938</ele>
<time>2012-07-26T15:58:42Z</time>
<speed>3.310000</speed>
<extensions>
<speed>3.3</speed>
<temp>0.00</temp>
<bpm>0</bpm>
<rpm>0.00</rpm>
</extensions>
</trkpt>
<trkpt lat="63.699764252" lon="-19.627082825">
<ele>154.605469</ele>
<time>2012-07-26T15:58:47Z</time>
<speed>3.640000</speed>
<extensions>
<speed>3.6</speed>
<temp>0.00</temp>
<bpm>0</bpm>
<rpm>0.00</rpm>
</extensions>
</trkpt>
<trkpt lat="63.699798584" lon="-19.627428055">
<ele>152.789063</ele>
<time>2012-07-26T15:58:52Z</time>
<speed>3.470000</speed>
<extensions>
<speed>3.5</speed>
<temp>0.00</temp>
<bpm>0</bpm>
<rpm>0.00</rpm>
</extensions>
</trkpt>
<trkpt lat="63.699829102" lon="-19.627717972">
<ele>151.699219</ele>
<time>2012-07-26T15:58:57Z</time>
<speed>2.710000</speed>
<extensions>
<speed>2.7</speed>
<temp>0.00</temp>
<bpm>0</bpm>
<rpm>0.00</rpm>
</extensions>
</trkpt>
<trkpt lat="63.699848175" lon="-19.628025055">
<ele>150.359375</ele>
<time>2012-07-26T15:59:02Z</time>
<speed>3.080000</speed>
<extensions>
<speed>3.1</speed>
<temp>0.00</temp>
<bpm>0</bpm>
<rpm>0.00</rpm>
</extensions>
</trkpt>
<trkpt lat="63.699878693" lon="-19.628356934">
<ele>149.816406</ele>
<time>2012-07-26T15:59:07Z</time>
<speed>3.250000</speed>
<extensions>
<speed>3.2</speed>
<temp>0.00</temp>
<bpm>0</bpm>
<rpm>0.00</rpm>
</extensions>
</trkpt>
<trkpt lat="63.699901581" lon="-19.628686905">
<ele>149.878906</ele>
<time>2012-07-26T15:59:12Z</time>
<speed>3.330000</speed>
<extensions>
<speed>3.3</speed>
<temp>0.00</temp>
<bpm>0</bpm>
<rpm>0.00</rpm>
</extensions>
</trkpt>
<trkpt lat="63.699932098" lon="-19.628976822">
<ele>149.839844</ele>
<time>2012-07-26T15:59:17Z</time>
<speed>2.960000</speed>
<extensions>
<speed>3.0</speed>
<temp>0.00</temp>
<bpm>0</bpm>
<rpm>0.00</rpm>
</extensions>
</trkpt>
<trkpt lat="63.699958801" lon="-19.629314423">
<ele>150.761719</ele>
<time>2012-07-26T15:59:22Z</time>
<speed>3.400000</speed>
<extensions>
<speed>3.4</speed>
<temp>0.00</temp>
<bpm>0</bpm>
<rpm>0.00</rpm>
</extensions>
</trkpt>
<trkpt lat="63.699985504" lon="-19.629575729">
<ele>151.539063</ele>
<time>2012-07-26T15:59:27Z</time>
<speed>2.490000</speed>
<extensions>
<speed>2.5</speed>
<temp>0.00</temp>
<bpm>0</bpm>
<rpm>0.00</rpm>
</extensions>
</trkpt>
<trkpt lat="63.700012207" lon="-19.629890442">
<ele>151.125000</ele>
<time>2012-07-26T15:59:32Z</time>
<speed>3.670000</speed>
<extensions>
<speed>3.7</speed>
<temp>0.00</temp>
<bpm>0</bpm>
<rpm>0.00</rpm>
</extensions>
</trkpt>
<trkpt lat="63.700035095" lon="-19.630249023">
<ele>151.945313</ele>
<time>2012-07-26T15:59:37Z</time>
<speed>3.360000</speed>
<extensions>
<speed>3.4</speed>
<temp>0.00</temp>
<bpm>0</bpm>
<rpm>0.00</rpm>
</extensions>
</trkpt>
<trkpt lat="63.700061798" lon="-19.630563736">
<ele>152.585938</ele>
<time>2012-07-26T15:59:42Z</time>
<speed>3.350000</speed>
<extensions>
<speed>3.4</speed>
<temp>0.00</temp>
<bpm>0</bpm>
<rpm>0.00</rpm>
</extensions>
</trkpt>
<trkpt lat="63.700088501" lon="-19.630903244">
<ele>151.933594</ele>
<time>2012-07-26T15:59:47Z</time>
<speed>3.230000</speed>
<extensions>
<speed>3.2</speed>
<temp>0.00</temp>
<bpm>0</bpm>
<rpm>0.00</rpm>
</extensions>
</trkpt>
<trkpt lat="63.700107574" lon="-19.631258011">
<ele>151.496094</ele>
<time>2012-07-26T15:59:52Z</time>
<speed>3.740000</speed>
<extensions>
<speed>3.7</speed>
<temp>0.00</temp>
<bpm>0</bpm>
<rpm>0.00</rpm>
</extensions>
</trkpt>
<trkpt lat="63.700130463" lon="-19.631620407">
<ele>151.222656</ele>
<time>2012-07-26T15:59:57Z</time>
<speed>3.880000</speed>
<extensions>
<speed>3.9</speed>
<temp>0.00</temp>
<bpm>0</bpm>
<rpm>0.00</rpm>
</extensions>
</trkpt>
<trkpt lat="63.700157166" lon="-19.631984711">
<ele>152.000000</ele>
<time>2012-07-26T16:00:02Z</time>
<speed>3.400000</speed>
<extensions>
<speed>3.4</speed>
<temp>0.00</temp>
<bpm>0</bpm>
<rpm>0.00</rpm>
</extensions>
</trkpt>
<trkpt lat="63.700210571" lon="-19.632318497">
<ele>148.886719</ele>
<time>2012-07-26T16:00:07Z</time>
<speed>3.240000</speed>
<extensions>
<speed>3.2</speed>
<temp>0.00</temp>
<bpm>0</bpm>
<rpm>0.00</rpm>
</extensions>
</trkpt>
<trkpt lat="63.700237274" lon="-19.632614136">
<ele>149.285156</ele>
<time>2012-07-26T16:00:12Z</time>
<speed>3.310000</speed>
<extensions>
<speed>3.3</speed>
<temp>0.00</temp>
<bpm>0</bpm>
<rpm>0.00</rpm>
</extensions>
</trkpt>
<trkpt lat="63.700225830" lon="-19.632932663">
<ele>150.082031</ele>
<time>2012-07-26T16:00:17Z</time>
<speed>2.890000</speed>
<extensions>
<speed>2.9</speed>
<temp>0.00</temp>
<bpm>0</bpm>
<rpm>0.00</rpm>
</extensions>
</trkpt>
<trkpt lat="63.700237274" lon="-19.633268356">
<ele>150.601563</ele>
<time>2012-07-26T16:00:22Z</time>
<speed>3.390000</speed>
<extensions>
<speed>3.4</speed>
<temp>0.00</temp>
<bpm>0</bpm>
<rpm>0.00</rpm>
</extensions>
</trkpt>
<trkpt lat="63.700260162" lon="-19.633630753">
<ele>153.351563</ele>
<time>2012-07-26T16:00:27Z</time>
<speed>3.480000</speed>
<extensions>
<speed>3.5</speed>
<temp>0.00</temp>
<bpm>0</bpm>
<rpm>0.00</rpm>
</extensions>
</trkpt>
<trkpt lat="63.700298309" lon="-19.633977890">
<ele>153.429688</ele>
<time>2012-07-26T16:00:32Z</time>
<speed>3.640000</speed>
<extensions>
<speed>3.6</speed>
<temp>0.00</temp>
<bpm>0</bpm>
<rpm>0.00</rpm>
</extensions>
</trkpt>
<trkpt lat="63.700355530" lon="-19.634342194">
<ele>151.753906</ele>
<time>2012-07-26T16:00:37Z</time>
<speed>3.740000</speed>
<extensions>
<speed>3.7</speed>
<temp>0.00</temp>
<bpm>0</bpm>
<rpm>0.00</rpm>
</extensions>
</trkpt>
<trkpt lat="63.700408936" lon="-19.634647369">
<ele>150.000000</ele>
<time>2012-07-26T16:00:42Z</time>
<speed>2.500000</speed>
<extensions>
<speed>2.5</speed>
<temp>0.00</temp>
<bpm>0</bpm>
<rpm>0.00</rpm>
</extensions>
</trkpt>
<trkpt lat="63.700462341" lon="-19.634876251">
<ele>150.562500</ele>
<time>2012-07-26T16:00:47Z</time>
<speed>3.130000</speed>
<extensions>
<speed>3.1</speed>
<temp>0.00</temp>
<bpm>0</bpm>
<rpm>0.00</rpm>
</extensions>
</trkpt>
<trkpt lat="63.700511932" lon="-19.635204315">
<ele>150.031250</ele>
<time>2012-07-26T16:00:52Z</time>
<speed>3.540000</speed>
<extensions>
<speed>3.5</speed>
<temp>0.00</temp>
<bpm>0</bpm>
<rpm>0.00</rpm>
</extensions>
</trkpt>
<trkpt lat="63.700538635" lon="-19.635486603">
<ele>151.570313</ele>
<time>2012-07-26T16:00:57Z</time>
<speed>2.820000</speed>
<extensions>
<speed>2.8</speed>
<temp>0.00</temp>
<bpm>0</bpm>
<rpm>0.00</rpm>
</extensions>
</trkpt>
<trkpt lat="63.700561523" lon="-19.635810852">
<ele>154.015625</ele>
<time>2012-07-26T16:01:02Z</time>
<speed>3.360000</speed>
<extensions>
<speed>3.4</speed>
<temp>0.00</temp>
<bpm>0</bpm>
<rpm>0.00</rpm>
</extensions>
</trkpt>
<trkpt lat="63.700592041" lon="-19.636127472">
<ele>156.863281</ele>
<time>2012-07-26T16:01:07Z</time>
<speed>3.480000</speed>
<extensions>
<speed>3.5</speed>
<temp>0.00</temp>
<bpm>0</bpm>
<rpm>0.00</rpm>
</extensions>
</trkpt>
<trkpt lat="63.700634003" lon="-19.636510849">
<ele>154.449219</ele>
<time>2012-07-26T16:01:12Z</time>
<speed>3.580000</speed>
<extensions>
<speed>3.6</speed>
<temp>0.00</temp>
<bpm>0</bpm>
<rpm>0.00</rpm>
</extensions>
</trkpt>
<trkpt lat="63.700656891" lon="-19.636871338">
<ele>153.839844</ele>
<time>2012-07-26T16:01:17Z</time>
<speed>3.250000</speed>
<extensions>
<speed>3.2</speed>
<temp>0.00</temp>
<bpm>0</bpm>
<rpm>0.00</rpm>
</extensions>
</trkpt>
<trkpt lat="63.700679779" lon="-19.637119293">
<ele>153.222656</ele>
<time>2012-07-26T16:01:22Z</time>
<speed>2.130000</speed>
<extensions>
<speed>2.1</speed>
<temp>0.00</temp>
<bpm>0</bpm>
<rpm>0.00</rpm>
</extensions>
</trkpt>
<trkpt lat="63.700702667" lon="-19.637395859">
<ele>151.828125</ele>
<time>2012-07-26T16:01:27Z</time>
<speed>3.190000</speed>
<extensions>
<speed>3.2</speed>
<temp>0.00</temp>
<bpm>0</bpm>
<rpm>0.00</rpm>
</extensions>
</trkpt>
<trkpt lat="63.700733185" lon="-19.637731552">
<ele>152.601563</ele>
<time>2012-07-26T16:01:32Z</time>
<speed>3.230000</speed>
<extensions>
<speed>3.2</speed>
<temp>0.00</temp>
<bpm>0</bpm>
<rpm>0.00</rpm>
</extensions>
</trkpt>
<trkpt lat="63.700752258" lon="-19.638032913">
<ele>152.566406</ele>
<time>2012-07-26T16:01:37Z</time>
<speed>3.120000</speed>
<extensions>
<speed>3.1</speed>
<temp>0.00</temp>
<bpm>0</bpm>
<rpm>0.00</rpm>
</extensions>
</trkpt>
<trkpt lat="63.700778961" lon="-19.638380051">
<ele>151.808594</ele>
<time>2012-07-26T16:01:42Z</time>
<speed>3.650000</speed>
<extensions>
<speed>3.7</speed>
<temp>0.00</temp>
<bpm>0</bpm>
<rpm>0.00</rpm>
</extensions>
</trkpt>
<trkpt lat="63.700817108" lon="-19.638746262">
<ele>151.292969</ele>
<time>2012-07-26T16:01:47Z</time>
<speed>3.440000</speed>
<extensions>
<speed>3.4</speed>
<temp>0.00</temp>
<bpm>0</bpm>
<rpm>0.00</rpm>
</extensions>
</trkpt>
<trkpt lat="63.700855255" lon="-19.639131546">
<ele>151.312500</ele>
<time>2012-07-26T16:01:52Z</time>
<speed>3.880000</speed>
<extensions>
<speed>3.9</speed>
<temp>0.00</temp>
<bpm>0</bpm>
<rpm>0.00</rpm>
</extensions>
</trkpt>
<trkpt lat="63.700893402" lon="-19.639543533">
<ele>148.957031</ele>
<time>2012-07-26T16:01:57Z</time>
<speed>3.970000</speed>
<extensions>
<speed>4.0</speed>
<temp>0.00</temp>
<bpm>0</bpm>
<rpm>0.00</rpm>
</extensions>
</trkpt>
<trkpt lat="63.700935364" lon="-19.639886856">
<ele>148.277344</ele>
<time>2012-07-26T16:02:02Z</time>
<speed>2.690000</speed>
<extensions>
<speed>2.7</speed>
<temp>0.00</temp>
<bpm>0</bpm>
<rpm>0.00</rpm>
</extensions>
</trkpt>
<trkpt lat="63.700950623" lon="-19.640134811">
<ele>147.351563</ele>
<time>2012-07-26T16:02:07Z</time>
<speed>2.830000</speed>
<extensions>
<speed>2.8</speed>
<temp>0.00</temp>
<bpm>0</bpm>
<rpm>0.00</rpm>
</extensions>
</trkpt>
<trkpt lat="63.700981140" lon="-19.640430450">
<ele>145.625000</ele>
<time>2012-07-26T16:02:12Z</time>
<speed>3.380000</speed>
<extensions>
<speed>3.4</speed>
<temp>0.00</temp>
<bpm>0</bpm>
<rpm>0.00</rpm>
</extensions>
</trkpt>
<trkpt lat="63.701023102" lon="-19.640722275">
<ele>146.253906</ele>
<time>2012-07-26T16:02:17Z</time>
<speed>3.200000</speed>
<extensions>
<speed>3.2</speed>
<temp>0.00</temp>
<bpm>0</bpm>
<rpm>0.00</rpm>
</extensions>
</trkpt>
<trkpt lat="63.701084137" lon="-19.641038895">
<ele>145.507813</ele>
<time>2012-07-26T16:02:22Z</time>
<speed>3.400000</speed>
<extensions>
<speed>3.4</speed>
<temp>0.00</temp>
<bpm>0</bpm>
<rpm>0.00</rpm>
</extensions>
</trkpt>
<trkpt lat="63.701137543" lon="-19.641363144">
<ele>144.496094</ele>
<time>2012-07-26T16:02:27Z</time>
<speed>3.500000</speed>
<extensions>
<speed>3.5</speed>
<temp>0.00</temp>
<bpm>0</bpm>
<rpm>0.00</rpm>
</extensions>
</trkpt>
<trkpt lat="63.701175690" lon="-19.641702652">
<ele>146.226563</ele>
<time>2012-07-26T16:02:32Z</time>
<speed>3.560000</speed>
<extensions>
<speed>3.6</speed>
<temp>0.00</temp>
<bpm>0</bpm>
<rpm>0.00</rpm>
</extensions>
</trkpt>
<trkpt lat="63.701194763" lon="-19.642032623">
<ele>147.339844</ele>
<time>2012-07-26T16:02:37Z</time>
<speed>3.200000</speed>
<extensions>
<speed>3.2</speed>
<temp>0.00</temp>
<bpm>0</bpm>
<rpm>0.00</rpm>
</extensions>
</trkpt>
<trkpt lat="63.701225281" lon="-19.642354965">
<ele>148.218750</ele>
<time>2012-07-26T16:02:42Z</time>
<speed>3.350000</speed>
<extensions>
<speed>3.4</speed>
<temp>0.00</temp>
<bpm>0</bpm>
<rpm>0.00</rpm>
</extensions>
</trkpt>
<trkpt lat="63.701259613" lon="-19.642686844">
<ele>149.988281</ele>
<time>2012-07-26T16:02:47Z</time>
<speed>3.610000</speed>
<extensions>
<speed>3.6</speed>
<temp>0.00</temp>
<bpm>0</bpm>
<rpm>0.00</rpm>
</extensions>
</trkpt>
<trkpt lat="63.701297760" lon="-19.643028259">
<ele>152.859375</ele>
<time>2012-07-26T16:02:52Z</time>
<speed>3.310000</speed>
<extensions>
<speed>3.3</speed>
<temp>0.00</temp>
<bpm>0</bpm>
<rpm>0.00</rpm>
</extensions>
</trkpt>
<trkpt lat="63.701332092" lon="-19.643371582">
<ele>151.746094</ele>
<time>2012-07-26T16:02:57Z</time>
<speed>3.700000</speed>
<extensions>
<speed>3.7</speed>
<temp>0.00</temp>
<bpm>0</bpm>
<rpm>0.00</rpm>
</extensions>
</trkpt>
<trkpt lat="63.701358795" lon="-19.643783569">
<ele>150.730469</ele>
<time>2012-07-26T16:03:02Z</time>
<speed>4.120000</speed>
<extensions>
<speed>4.1</speed>
<temp>0.00</temp>
<bpm>0</bpm>
<rpm>0.00</rpm>
</extensions>
</trkpt>
<trkpt lat="63.701385498" lon="-19.644159317">
<ele>149.593750</ele>
<time>2012-07-26T16:03:07Z</time>
<speed>3.240000</speed>
<extensions>
<speed>3.2</speed>
<temp>0.00</temp>
<bpm>0</bpm>
<rpm>0.00</rpm>
</extensions>
</trkpt>
<trkpt lat="63.701404572" lon="-19.644496918">
<ele>147.011719</ele>
<time>2012-07-26T16:03:12Z</time>
<speed>3.840000</speed>
<extensions>
<speed>3.8</speed>
<temp>0.00</temp>
<bpm>0</bpm>
<rpm>0.00</rpm>
</extensions>
</trkpt>
<trkpt lat="63.701419830" lon="-19.644809723">
<ele>145.667969</ele>
<time>2012-07-26T16:03:17Z</time>
<speed>2.390000</speed>
<extensions>
<speed>2.4</speed>
<temp>0.00</temp>
<bpm>0</bpm>
<rpm>0.00</rpm>
</extensions>
</trkpt>
<trkpt lat="63.701442719" lon="-19.645023346">
<ele>146.878906</ele>
<time>2012-07-26T16:03:22Z</time>
<speed>1.750000</speed>
<extensions>
<speed>1.8</speed>
<temp>0.00</temp>
<bpm>0</bpm>
<rpm>0.00</rpm>
</extensions>
</trkpt>
<trkpt lat="63.701461792" lon="-19.645053864">
<ele>145.804688</ele>
<time>2012-07-26T16:03:27Z</time>
<speed>0.010000</speed>
<extensions>
<speed>0.0</speed>
<temp>0.00</temp>
<bpm>0</bpm>
<rpm>0.00</rpm>
</extensions>
</trkpt>
<trkpt lat="63.701461792" lon="-19.645051956">
<ele>145.917969</ele>
<time>2012-07-26T16:03:32Z</time>
<speed>0.100000</speed>
<extensions>
<speed>0.1</speed>
<temp>0.00</temp>
<bpm>0</bpm>
<rpm>0.00</rpm>
</extensions>
</trkpt>
<trkpt lat="63.701461792" lon="-19.645050049">
<ele>145.996094</ele>
<time>2012-07-26T16:03:37Z</time>
<speed>0.180000</speed>
<extensions>
<speed>0.2</speed>
<temp>0.00</temp>
<bpm>0</bpm>
<rpm>0.00</rpm>
</extensions>
</trkpt>
<trkpt lat="63.701465607" lon="-19.645044327">
<ele>145.644531</ele>
<time>2012-07-26T16:03:42Z</time>
<speed>0.040000</speed>
<extensions>
<speed>0.0</speed>
<temp>0.00</temp>
<bpm>0</bpm>
<rpm>0.00</rpm>
</extensions>
</trkpt>
<trkpt lat="63.701465607" lon="-19.645042419">
<ele>145.628906</ele>
<time>2012-07-26T16:03:47Z</time>
<speed>0.030000</speed>
<extensions>
<speed>0.0</speed>
<temp>0.00</temp>
<bpm>0</bpm>
<rpm>0.00</rpm>
</extensions>
</trkpt>
<trkpt lat="63.701465607" lon="-19.645044327">
<ele>145.714844</ele>
<time>2012-07-26T16:03:52Z</time>
<speed>0.030000</speed>
<extensions>
<speed>0.0</speed>
<temp>0.00</temp>
<bpm>0</bpm>
<rpm>0.00</rpm>
</extensions>
</trkpt>
<trkpt lat="63.701465607" lon="-19.645044327">
<ele>145.750000</ele>
<time>2012-07-26T16:03:57Z</time>
<speed>0.020000</speed>
<extensions>
<speed>0.0</speed>
<temp>0.00</temp>
<bpm>0</bpm>
<rpm>0.00</rpm>
</extensions>
</trkpt>
<trkpt lat="63.701465607" lon="-19.645044327">
<ele>145.753906</ele>
<time>2012-07-26T16:04:02Z</time>
<speed>0.020000</speed>
<extensions>
<speed>0.0</speed>
<temp>0.00</temp>
<bpm>0</bpm>
<rpm>0.00</rpm>
</extensions>
</trkpt>
<trkpt lat="63.701465607" lon="-19.645044327">
<ele>145.882813</ele>
<time>2012-07-26T16:04:07Z</time>
<speed>0.100000</speed>
<extensions>
<speed>0.1</speed>
<temp>0.00</temp>
<bpm>0</bpm>
<rpm>0.00</rpm>
</extensions>
</trkpt>
<trkpt lat="63.701465607" lon="-19.645046234">
<ele>146.000000</ele>
<time>2012-07-26T16:04:12Z</time>
<speed>0.080000</speed>
<extensions>
<speed>0.1</speed>
<temp>0.00</temp>
<bpm>0</bpm>
<rpm>0.00</rpm>
</extensions>
</trkpt>
<trkpt lat="63.701465607" lon="-19.645038605">
<ele>146.789063</ele>
<time>2012-07-26T16:04:17Z</time>
<speed>0.210000</speed>
<extensions>
<speed>0.2</speed>
<temp>0.00</temp>
<bpm>0</bpm>
<rpm>0.00</rpm>
</extensions>
</trkpt>
<trkpt lat="63.701469421" lon="-19.645038605">
<ele>146.085938</ele>
<time>2012-07-26T16:04:22Z</time>
<speed>0.080000</speed>
<extensions>
<speed>0.1</speed>
<temp>0.00</temp>
<bpm>0</bpm>
<rpm>0.00</rpm>
</extensions>
</trkpt>
<trkpt lat="63.701465607" lon="-19.645040512">
<ele>145.332031</ele>
<time>2012-07-26T16:04:27Z</time>
<speed>0.070000</speed>
<extensions>
<speed>0.1</speed>
<temp>0.00</temp>
<bpm>0</bpm>
<rpm>0.00</rpm>
</extensions>
</trkpt>
<trkpt lat="63.701465607" lon="-19.645038605">
<ele>145.199219</ele>
<time>2012-07-26T16:04:32Z</time>
<speed>0.040000</speed>
<extensions>
<speed>0.0</speed>
<temp>0.00</temp>
<bpm>0</bpm>
<rpm>0.00</rpm>
</extensions>
</trkpt>
<trkpt lat="63.701465607" lon="-19.645038605">
<ele>145.179688</ele>
<time>2012-07-26T16:04:37Z</time>
<speed>0.010000</speed>
<extensions>
<speed>0.0</speed>
<temp>0.00</temp>
<bpm>0</bpm>
<rpm>0.00</rpm>
</extensions>
</trkpt>
<trkpt lat="63.701465607" lon="-19.645038605">
<ele>145.187500</ele>
<time>2012-07-26T16:04:42Z</time>
<speed>0.010000</speed>
<extensions>
<speed>0.0</speed>
<temp>0.00</temp>
<bpm>0</bpm>
<rpm>0.00</rpm>
</extensions>
</trkpt>
<trkpt lat="63.701465607" lon="-19.645036697">
<ele>145.187500</ele>
<time>2012-07-26T16:04:47Z</time>
<speed>0.010000</speed>
<extensions>
<speed>0.0</speed>
<temp>0.00</temp>
<bpm>0</bpm>
<rpm>0.00</rpm>
</extensions>
</trkpt>
<trkpt lat="63.701465607" lon="-19.645036697">
<ele>145.183594</ele>
<time>2012-07-26T16:04:52Z</time>
<speed>0.010000</speed>
<extensions>
<speed>0.0</speed>
<temp>0.00</temp>
<bpm>0</bpm>
<rpm>0.00</rpm>
</extensions>
</trkpt>
<trkpt lat="63.701465607" lon="-19.645036697">
<ele>145.171875</ele>
<time>2012-07-26T16:04:57Z</time>
<speed>0.020000</speed>
<extensions>
<speed>0.0</speed>
<temp>0.00</temp>
<bpm>0</bpm>
<rpm>0.00</rpm>
</extensions>
</trkpt>
<trkpt lat="63.701465607" lon="-19.645036697">
<ele>145.167969</ele>
<time>2012-07-26T16:05:02Z</time>
<extensions>
<speed>0.0</speed>
<temp>0.00</temp>
<bpm>0</bpm>
<rpm>0.00</rpm>
</extensions>
</trkpt>
<trkpt lat="63.701465607" lon="-19.645036697">
<ele>145.175781</ele>
<time>2012-07-26T16:05:07Z</time>
<extensions>
<speed>0.0</speed>
<temp>0.00</temp>
<bpm>0</bpm>
<rpm>0.00</rpm>
</extensions>
</trkpt>
<trkpt lat="63.701465607" lon="-19.645036697">
<ele>145.183594</ele>
<time>2012-07-26T16:05:12Z</time>
<speed>0.010000</speed>
<extensions>
<speed>0.0</speed>
<temp>0.00</temp>
<bpm>0</bpm>
<rpm>0.00</rpm>
</extensions>
</trkpt>
<trkpt lat="63.701465607" lon="-19.645036697">
<ele>145.179688</ele>
<time>2012-07-26T16:05:17Z</time>
<speed>0.010000</speed>
<extensions>
<speed>0.0</speed>
<temp>0.00</temp>
<bpm>0</bpm>
<rpm>0.00</rpm>
</extensions>
</trkpt>
<trkpt lat="63.701465607" lon="-19.645036697">
<ele>145.183594</ele>
<time>2012-07-26T16:05:22Z</time>
<speed>0.020000</speed>
<extensions>
<speed>0.0</speed>
<temp>0.00</temp>
<bpm>0</bpm>
<rpm>0.00</rpm>
</extensions>
</trkpt>
<trkpt lat="63.701465607" lon="-19.645036697">
<ele>145.183594</ele>
<time>2012-07-26T16:05:27Z</time>
<speed>0.010000</speed>
<extensions>
<speed>0.0</speed>
<temp>0.00</temp>
<bpm>0</bpm>
<rpm>0.00</rpm>
</extensions>
</trkpt>
<trkpt lat="63.701465607" lon="-19.645034790">
<ele>145.199219</ele>
<time>2012-07-26T16:05:32Z</time>
<extensions>
<speed>0.0</speed>
<temp>0.00</temp>
<bpm>0</bpm>
<rpm>0.00</rpm>
</extensions>
</trkpt>
<trkpt lat="63.701461792" lon="-19.645036697">
<ele>145.156250</ele>
<time>2012-07-26T16:05:37Z</time>
<speed>0.010000</speed>
<extensions>
<speed>0.0</speed>
<temp>0.00</temp>
<bpm>0</bpm>
<rpm>0.00</rpm>
</extensions>
</trkpt>
<trkpt lat="63.701461792" lon="-19.645036697">
<ele>145.156250</ele>
<time>2012-07-26T16:05:42Z</time>
<speed>0.010000</speed>
<extensions>
<speed>0.0</speed>
<temp>0.00</temp>
<bpm>0</bpm>
<rpm>0.00</rpm>
</extensions>
</trkpt>
<trkpt lat="63.701461792" lon="-19.645036697">
<ele>145.148438</ele>
<time>2012-07-26T16:05:47Z</time>
<extensions>
<speed>0.0</speed>
<temp>0.00</temp>
<bpm>0</bpm>
<rpm>0.00</rpm>
</extensions>
</trkpt>
<trkpt lat="63.701461792" lon="-19.645036697">
<ele>145.144531</ele>
<time>2012-07-26T16:05:52Z</time>
<extensions>
<speed>0.0</speed>
<temp>0.00</temp>
<bpm>0</bpm>
<rpm>0.00</rpm>
</extensions>
</trkpt>
<trkpt lat="63.701461792" lon="-19.645034790">
<ele>145.144531</ele>
<time>2012-07-26T16:05:57Z</time>
<extensions>
<speed>0.0</speed>
<temp>0.00</temp>
<bpm>0</bpm>
<rpm>0.00</rpm>
</extensions>
</trkpt>
<trkpt lat="63.701461792" lon="-19.645034790">
<ele>145.148438</ele>
<time>2012-07-26T16:06:02Z</time>
<speed>0.210000</speed>
<extensions>
<speed>0.2</speed>
<temp>0.00</temp>
<bpm>0</bpm>
<rpm>0.00</rpm>
</extensions>
</trkpt>
<trkpt lat="63.701461792" lon="-19.645040512">
<ele>145.160156</ele>
<time>2012-07-26T16:06:07Z</time>
<speed>0.010000</speed>
<extensions>
<speed>0.0</speed>
<temp>0.00</temp>
<bpm>0</bpm>
<rpm>0.00</rpm>
</extensions>
</trkpt>
<trkpt lat="63.701461792" lon="-19.645040512">
<ele>145.160156</ele>
<time>2012-07-26T16:06:12Z</time>
<extensions>
<speed>0.0</speed>
<temp>0.00</temp>
<bpm>0</bpm>
<rpm>0.00</rpm>
</extensions>
</trkpt>
<trkpt lat="63.701461792" lon="-19.645040512">
<ele>145.160156</ele>
<time>2012-07-26T16:06:17Z</time>
<speed>0.010000</speed>
<extensions>
<speed>0.0</speed>
<temp>0.00</temp>
<bpm>0</bpm>
<rpm>0.00</rpm>
</extensions>
</trkpt>
<trkpt lat="63.701461792" lon="-19.645040512">
<ele>145.152344</ele>
<time>2012-07-26T16:06:22Z</time>
<speed>0.090000</speed>
<extensions>
<speed>0.1</speed>
<temp>0.00</temp>
<bpm>0</bpm>
<rpm>0.00</rpm>
</extensions>
</trkpt>
<trkpt lat="63.701461792" lon="-19.645038605">
<ele>145.050781</ele>
<time>2012-07-26T16:06:27Z</time>
<speed>0.020000</speed>
<extensions>
<speed>0.0</speed>
<temp>0.00</temp>
<bpm>0</bpm>
<rpm>0.00</rpm>
</extensions>
</trkpt>
<trkpt lat="63.701457977" lon="-19.645038605">
<ele>145.222656</ele>
<time>2012-07-26T16:06:32Z</time>
<speed>0.050000</speed>
<extensions>
<speed>0.1</speed>
<temp>0.00</temp>
<bpm>0</bpm>
<rpm>0.00</rpm>
</extensions>
</trkpt>
<trkpt lat="63.701457977" lon="-19.645038605">
<ele>145.222656</ele>
<time>2012-07-26T16:06:37Z</time>
<extensions>
<speed>0.0</speed>
<temp>0.00</temp>
<bpm>0</bpm>
<rpm>0.00</rpm>
</extensions>
</trkpt>
<trkpt lat="63.701457977" lon="-19.645038605">
<ele>145.226563</ele>
<time>2012-07-26T16:06:42Z</time>
<speed>0.030000</speed>
<extensions>
<speed>0.0</speed>
<temp>0.00</temp>
<bpm>0</bpm>
<rpm>0.00</rpm>
</extensions>
</trkpt>
<trkpt lat="63.701457977" lon="-19.645038605">
<ele>145.222656</ele>
<time>2012-07-26T16:06:47Z</time>
<speed>0.030000</speed>
<extensions>
<speed>0.0</speed>
<temp>0.00</temp>
<bpm>0</bpm>
<rpm>0.00</rpm>
</extensions>
</trkpt>
<trkpt lat="63.701454163" lon="-19.645034790">
<ele>144.640625</ele>
<time>2012-07-26T16:06:52Z</time>
<speed>0.650000</speed>
<extensions>
<speed>0.6</speed>
<temp>0.00</temp>
<bpm>0</bpm>
<rpm>0.00</rpm>
</extensions>
</trkpt>
<trkpt lat="63.701446533" lon="-19.645074844">
<ele>144.207031</ele>
<time>2012-07-26T16:06:57Z</time>
<speed>0.800000</speed>
<extensions>
<speed>0.8</speed>
<temp>0.00</temp>
<bpm>0</bpm>
<rpm>0.00</rpm>
</extensions>
</trkpt>
<trkpt lat="63.701457977" lon="-19.645158768">
<ele>143.324219</ele>
<time>2012-07-26T16:07:02Z</time>
<speed>1.030000</speed>
<extensions>
<speed>1.0</speed>
<temp>0.00</temp>
<bpm>0</bpm>
<rpm>0.00</rpm>
</extensions>
</trkpt>
<trkpt lat="63.701473236" lon="-19.645250320">
<ele>143.257813</ele>
<time>2012-07-26T16:07:07Z</time>
<speed>0.840000</speed>
<extensions>
<speed>0.8</speed>
<temp>0.00</temp>
<bpm>0</bpm>
<rpm>0.00</rpm>
</extensions>
</trkpt>
<trkpt lat="63.701484680" lon="-19.645326614">
<ele>143.335938</ele>
<time>2012-07-26T16:07:12Z</time>
<speed>0.470000</speed>
<extensions>
<speed>0.5</speed>
<temp>0.00</temp>
<bpm>0</bpm>
<rpm>0.00</rpm>
</extensions>
</trkpt>
<trkpt lat="63.701480865" lon="-19.645366669">
<ele>144.929688</ele>
<time>2012-07-26T16:07:17Z</time>
<speed>0.020000</speed>
<extensions>
<speed>0.0</speed>
<temp>0.00</temp>
<bpm>0</bpm>
<rpm>0.00</rpm>
</extensions>
</trkpt>
<trkpt lat="63.701480865" lon="-19.645366669">
<ele>144.949219</ele>
<time>2012-07-26T16:07:22Z</time>
<speed>0.120000</speed>
<extensions>
<speed>0.1</speed>
<temp>0.00</temp>
<bpm>0</bpm>
<rpm>0.00</rpm>
</extensions>
</trkpt>
<trkpt lat="63.701480865" lon="-19.645383835">
<ele>144.601563</ele>
<time>2012-07-26T16:07:27Z</time>
<speed>0.020000</speed>
<extensions>
<speed>0.0</speed>
<temp>0.00</temp>
<bpm>0</bpm>
<rpm>0.00</rpm>
</extensions>
</trkpt>
<trkpt lat="63.701480865" lon="-19.645391464">
<ele>144.531250</ele>
<time>2012-07-26T16:07:32Z</time>
<speed>0.480000</speed>
<extensions>
<speed>0.5</speed>
<temp>0.00</temp>
<bpm>0</bpm>
<rpm>0.00</rpm>
</extensions>
</trkpt>
<trkpt lat="63.701492310" lon="-19.645437241">
<ele>144.960938</ele>
<time>2012-07-26T16:07:37Z</time>
<speed>0.710000</speed>
<extensions>
<speed>0.7</speed>
<temp>0.00</temp>
<bpm>0</bpm>
<rpm>0.00</rpm>
</extensions>
</trkpt>
<trkpt lat="63.701519012" lon="-19.645376205">
<ele>144.824219</ele>
<time>2012-07-26T16:07:42Z</time>
<speed>0.710000</speed>
<extensions>
<speed>0.7</speed>
<temp>0.00</temp>
<bpm>0</bpm>
<rpm>0.00</rpm>
</extensions>
</trkpt>
<trkpt lat="63.701541901" lon="-19.645322800">
<ele>144.808594</ele>
<time>2012-07-26T16:07:47Z</time>
<speed>0.610000</speed>
<extensions>
<speed>0.6</speed>
<temp>0.00</temp>
<bpm>0</bpm>
<rpm>0.00</rpm>
</extensions>
</trkpt>
<trkpt lat="63.701572418" lon="-19.645275116">
<ele>144.453125</ele>
<time>2012-07-26T16:07:52Z</time>
<speed>0.630000</speed>
<extensions>
<speed>0.6</speed>
<temp>0.00</temp>
<bpm>0</bpm>
<rpm>0.00</rpm>
</extensions>
</trkpt>
<trkpt lat="63.701580048" lon="-19.645185471">
<ele>143.835938</ele>
<time>2012-07-26T16:07:57Z</time>
<speed>0.900000</speed>
<extensions>
<speed>0.9</speed>
<temp>0.00</temp>
<bpm>0</bpm>
<rpm>0.00</rpm>
</extensions>
</trkpt>
<trkpt lat="63.701610565" lon="-19.645101547">
<ele>143.640625</ele>
<time>2012-07-26T16:08:02Z</time>
<speed>0.920000</speed>
<extensions>
<speed>0.9</speed>
<temp>0.00</temp>
<bpm>0</bpm>
<rpm>0.00</rpm>
</extensions>
</trkpt>
<trkpt lat="63.701633453" lon="-19.645011902">
<ele>143.531250</ele>
<time>2012-07-26T16:08:07Z</time>
<speed>0.530000</speed>
<extensions>
<speed>0.5</speed>
<temp>0.00</temp>
<bpm>0</bpm>
<rpm>0.00</rpm>
</extensions>
</trkpt>
<trkpt lat="63.701667786" lon="-19.644964218">
<ele>143.683594</ele>
<time>2012-07-26T16:08:12Z</time>
<speed>0.920000</speed>
<extensions>
<speed>0.9</speed>
<temp>0.00</temp>
<bpm>0</bpm>
<rpm>0.00</rpm>
</extensions>
</trkpt>
<trkpt lat="63.701690674" lon="-19.644922256">
<ele>145.371094</ele>
<time>2012-07-26T16:08:17Z</time>
<speed>0.330000</speed>
<extensions>
<speed>0.3</speed>
<temp>0.00</temp>
<bpm>0</bpm>
<rpm>0.00</rpm>
</extensions>
</trkpt>
<trkpt lat="63.701686859" lon="-19.644941330">
<ele>145.156250</ele>
<time>2012-07-26T16:08:22Z</time>
<speed>0.190000</speed>
<extensions>
<speed>0.2</speed>
<temp>0.00</temp>
<bpm>0</bpm>
<rpm>0.00</rpm>
</extensions>
</trkpt>
<trkpt lat="63.701694489" lon="-19.644914627">
<ele>145.195313</ele>
<time>2012-07-26T16:08:27Z</time>
<speed>0.520000</speed>
<extensions>
<speed>0.5</speed>
<temp>0.00</temp>
<bpm>0</bpm>
<rpm>0.00</rpm>
</extensions>
</trkpt>
<trkpt lat="63.701751709" lon="-19.644943237">
<ele>145.582031</ele>
<time>2012-07-26T16:08:32Z</time>
<speed>0.440000</speed>
<extensions>
<speed>0.4</speed>
<temp>0.00</temp>
<bpm>0</bpm>
<rpm>0.00</rpm>
</extensions>
</trkpt>
<trkpt lat="63.701789856" lon="-19.644947052">
<ele>145.792969</ele>
<time>2012-07-26T16:08:37Z</time>
<speed>0.450000</speed>
<extensions>
<speed>0.5</speed>
<temp>0.00</temp>
<bpm>0</bpm>
<rpm>0.00</rpm>
</extensions>
</trkpt>
<trkpt lat="63.701789856" lon="-19.645000458">
<ele>145.535156</ele>
<time>2012-07-26T16:08:42Z</time>
<speed>0.170000</speed>
<extensions>
<speed>0.2</speed>
<temp>0.00</temp>
<bpm>0</bpm>
<rpm>0.00</rpm>
</extensions>
</trkpt>
<trkpt lat="63.701797485" lon="-19.645015717">
<ele>145.582031</ele>
<time>2012-07-26T16:08:47Z</time>
<speed>0.440000</speed>
<extensions>
<speed>0.4</speed>
<temp>0.00</temp>
<bpm>0</bpm>
<rpm>0.00</rpm>
</extensions>
</trkpt>
<trkpt lat="63.701789856" lon="-19.645013809">
<ele>145.617188</ele>
<time>2012-07-26T16:08:52Z</time>
<speed>0.130000</speed>
<extensions>
<speed>0.1</speed>
<temp>0.00</temp>
<bpm>0</bpm>
<rpm>0.00</rpm>
</extensions>
</trkpt>
<trkpt lat="63.701786041" lon="-19.645009995">
<ele>145.722656</ele>
<time>2012-07-26T16:08:57Z</time>
<speed>0.210000</speed>
<extensions>
<speed>0.2</speed>
<temp>0.00</temp>
<bpm>0</bpm>
<rpm>0.00</rpm>
</extensions>
</trkpt>
<trkpt lat="63.701782227" lon="-19.645000458">
<ele>145.765625</ele>
<time>2012-07-26T16:09:02Z</time>
<speed>0.250000</speed>
<extensions>
<speed>0.2</speed>
<temp>0.00</temp>
<bpm>0</bpm>
<rpm>0.00</rpm>
</extensions>
</trkpt>
<trkpt lat="63.701782227" lon="-19.644977570">
<ele>145.746094</ele>
<time>2012-07-26T16:09:07Z</time>
<speed>0.260000</speed>
<extensions>
<speed>0.3</speed>
<temp>0.00</temp>
<bpm>0</bpm>
<rpm>0.00</rpm>
</extensions>
</trkpt>
<trkpt lat="63.701797485" lon="-19.645008087">
<ele>145.957031</ele>
<time>2012-07-26T16:09:12Z</time>
<speed>0.020000</speed>
<extensions>
<speed>0.0</speed>
<temp>0.00</temp>
<bpm>0</bpm>
<rpm>0.00</rpm>
</extensions>
</trkpt>
<trkpt lat="63.701789856" lon="-19.644998550">
<ele>145.968750</ele>
<time>2012-07-26T16:09:17Z</time>
<speed>0.340000</speed>
<extensions>
<speed>0.3</speed>
<temp>0.00</temp>
<bpm>0</bpm>
<rpm>0.00</rpm>
</extensions>
</trkpt>
<trkpt lat="63.701778412" lon="-19.644969940">
<ele>145.972656</ele>
<time>2012-07-26T16:09:22Z</time>
<speed>0.360000</speed>
<extensions>
<speed>0.4</speed>
<temp>0.00</temp>
<bpm>0</bpm>
<rpm>0.00</rpm>
</extensions>
</trkpt>
<trkpt lat="63.701786041" lon="-19.644971848">
<ele>145.976563</ele>
<time>2012-07-26T16:09:27Z</time>
<speed>0.230000</speed>
<extensions>
<speed>0.2</speed>
<temp>0.00</temp>
<bpm>0</bpm>
<rpm>0.00</rpm>
</extensions>
</trkpt>
<trkpt lat="63.701782227" lon="-19.644956589">
<ele>146.074219</ele>
<time>2012-07-26T16:09:32Z</time>
<speed>0.220000</speed>
<extensions>
<speed>0.2</speed>
<temp>0.00</temp>
<bpm>0</bpm>
<rpm>0.00</rpm>
</extensions>
</trkpt>
<trkpt lat="63.701778412" lon="-19.644948959">
<ele>146.171875</ele>
<time>2012-07-26T16:09:37Z</time>
<speed>0.010000</speed>
<extensions>
<speed>0.0</speed>
<temp>0.00</temp>
<bpm>0</bpm>
<rpm>0.00</rpm>
</extensions>
</trkpt>
<trkpt lat="63.701782227" lon="-19.644954681">
<ele>146.273438</ele>
<time>2012-07-26T16:09:42Z</time>
<speed>0.120000</speed>
<extensions>
<speed>0.1</speed>
<temp>0.00</temp>
<bpm>0</bpm>
<rpm>0.00</rpm>
</extensions>
</trkpt>
<trkpt lat="63.701786041" lon="-19.644954681">
<ele>146.378906</ele>
<time>2012-07-26T16:09:47Z</time>
<speed>0.060000</speed>
<extensions>
<speed>0.1</speed>
<temp>0.00</temp>
<bpm>0</bpm>
<rpm>0.00</rpm>
</extensions>
</trkpt>
<trkpt lat="63.701782227" lon="-19.644945145">
<ele>146.484375</ele>
<time>2012-07-26T16:09:52Z</time>
<speed>0.100000</speed>
<extensions>
<speed>0.1</speed>
<temp>0.00</temp>
<bpm>0</bpm>
<rpm>0.00</rpm>
</extensions>
</trkpt>
<trkpt lat="63.701778412" lon="-19.644935608">
<ele>146.585938</ele>
<time>2012-07-26T16:09:57Z</time>
<speed>0.100000</speed>
<extensions>
<speed>0.1</speed>
<temp>0.00</temp>
<bpm>0</bpm>
<rpm>0.00</rpm>
</extensions>
</trkpt>
<trkpt lat="63.701774597" lon="-19.644927979">
<ele>146.687500</ele>
<time>2012-07-26T16:10:02Z</time>
<speed>0.160000</speed>
<extensions>
<speed>0.2</speed>
<temp>0.00</temp>
<bpm>0</bpm>
<rpm>0.00</rpm>
</extensions>
</trkpt>
<trkpt lat="63.701770782" lon="-19.644929886">
<ele>146.792969</ele>
<time>2012-07-26T16:10:07Z</time>
<speed>0.110000</speed>
<extensions>
<speed>0.1</speed>
<temp>0.00</temp>
<bpm>0</bpm>
<rpm>0.00</rpm>
</extensions>
</trkpt>
<trkpt lat="63.701766968" lon="-19.644927979">
<ele>146.910156</ele>
<time>2012-07-26T16:10:12Z</time>
<speed>0.080000</speed>
<extensions>
<speed>0.1</speed>
<temp>0.00</temp>
<bpm>0</bpm>
<rpm>0.00</rpm>
</extensions>
</trkpt>
<trkpt lat="63.701763153" lon="-19.644926071">
<ele>147.031250</ele>
<time>2012-07-26T16:10:17Z</time>
<speed>0.060000</speed>
<extensions>
<speed>0.1</speed>
<temp>0.00</temp>
<bpm>0</bpm>
<rpm>0.00</rpm>
</extensions>
</trkpt>
<trkpt lat="63.701763153" lon="-19.644922256">
<ele>147.148438</ele>
<time>2012-07-26T16:10:22Z</time>
<speed>0.020000</speed>
<extensions>
<speed>0.0</speed>
<temp>0.00</temp>
<bpm>0</bpm>
<rpm>0.00</rpm>
</extensions>
</trkpt>
<trkpt lat="63.701763153" lon="-19.644920349">
<ele>147.207031</ele>
<time>2012-07-26T16:10:27Z</time>
<speed>0.020000</speed>
<extensions>
<speed>0.0</speed>
<temp>0.00</temp>
<bpm>0</bpm>
<rpm>0.00</rpm>
</extensions>
</trkpt>
<trkpt lat="63.701763153" lon="-19.644922256">
<ele>147.195313</ele>
<time>2012-07-26T16:10:32Z</time>
<extensions>
<speed>0.0</speed>
<temp>0.00</temp>
<bpm>0</bpm>
<rpm>0.00</rpm>
</extensions>
</trkpt>
<trkpt lat="63.701759338" lon="-19.644906998">
<ele>147.164063</ele>
<time>2012-07-26T16:10:37Z</time>
<speed>0.130000</speed>
<extensions>
<speed>0.1</speed>
<temp>0.00</temp>
<bpm>0</bpm>
<rpm>0.00</rpm>
</extensions>
</trkpt>
<trkpt lat="63.701755524" lon="-19.644897461">
<ele>147.132813</ele>
<time>2012-07-26T16:10:42Z</time>
<speed>0.100000</speed>
<extensions>
<speed>0.1</speed>
<temp>0.00</temp>
<bpm>0</bpm>
<rpm>0.00</rpm>
</extensions>
</trkpt>
<trkpt lat="63.701751709" lon="-19.644889832">
<ele>147.105469</ele>
<time>2012-07-26T16:10:47Z</time>
<speed>0.060000</speed>
<extensions>
<speed>0.1</speed>
<temp>0.00</temp>
<bpm>0</bpm>
<rpm>0.00</rpm>
</extensions>
</trkpt>
<trkpt lat="63.701755524" lon="-19.644886017">
<ele>147.078125</ele>
<time>2012-07-26T16:10:52Z</time>
<speed>0.010000</speed>
<extensions>
<speed>0.0</speed>
<temp>0.00</temp>
<bpm>0</bpm>
<rpm>0.00</rpm>
</extensions>
</trkpt>
<trkpt lat="63.701755524" lon="-19.644887924">
<ele>147.054688</ele>
<time>2012-07-26T16:10:57Z</time>
<speed>0.030000</speed>
<extensions>
<speed>0.0</speed>
<temp>0.00</temp>
<bpm>0</bpm>
<rpm>0.00</rpm>
</extensions>
</trkpt>
<trkpt lat="63.701755524" lon="-19.644889832">
<ele>147.046875</ele>
<time>2012-07-26T16:11:02Z</time>
<speed>0.020000</speed>
<extensions>
<speed>0.0</speed>
<temp>0.00</temp>
<bpm>0</bpm>
<rpm>0.00</rpm>
</extensions>
</trkpt>
<trkpt lat="63.701755524" lon="-19.644889832">
<ele>147.046875</ele>
<time>2012-07-26T16:11:07Z</time>
<extensions>
<speed>0.0</speed>
<temp>0.00</temp>
<bpm>0</bpm>
<rpm>0.00</rpm>
</extensions>
</trkpt>
<trkpt lat="63.701755524" lon="-19.644891739">
<ele>147.046875</ele>
<time>2012-07-26T16:11:12Z</time>
<speed>0.020000</speed>
<extensions>
<speed>0.0</speed>
<temp>0.00</temp>
<bpm>0</bpm>
<rpm>0.00</rpm>
</extensions>
</trkpt>
<trkpt lat="63.701755524" lon="-19.644891739">
<ele>147.046875</ele>
<time>2012-07-26T16:11:17Z</time>
<speed>0.010000</speed>
<extensions>
<speed>0.0</speed>
<temp>0.00</temp>
<bpm>0</bpm>
<rpm>0.00</rpm>
</extensions>
</trkpt>
<trkpt lat="63.701755524" lon="-19.644891739">
<ele>147.046875</ele>
<time>2012-07-26T16:11:22Z</time>
<extensions>
<speed>0.0</speed>
<temp>0.00</temp>
<bpm>0</bpm>
<rpm>0.00</rpm>
</extensions>
</trkpt>
<trkpt lat="63.701755524" lon="-19.644891739">
<ele>147.046875</ele>
<time>2012-07-26T16:11:27Z</time>
<speed>0.010000</speed>
<extensions>
<speed>0.0</speed>
<temp>0.00</temp>
<bpm>0</bpm>
<rpm>0.00</rpm>
</extensions>
</trkpt>
<trkpt lat="63.701759338" lon="-19.644891739">
<ele>147.042969</ele>
<time>2012-07-26T16:11:32Z</time>
<speed>0.030000</speed>
<extensions>
<speed>0.0</speed>
<temp>0.00</temp>
<bpm>0</bpm>
<rpm>0.00</rpm>
</extensions>
</trkpt>
<trkpt lat="63.701759338" lon="-19.644895554">
<ele>147.042969</ele>
<time>2012-07-26T16:11:37Z</time>
<speed>0.050000</speed>
<extensions>
<speed>0.1</speed>
<temp>0.00</temp>
<bpm>0</bpm>
<rpm>0.00</rpm>
</extensions>
</trkpt>
<trkpt lat="63.701759338" lon="-19.644901276">
<ele>147.050781</ele>
<time>2012-07-26T16:11:42Z</time>
<speed>0.100000</speed>
<extensions>
<speed>0.1</speed>
<temp>0.00</temp>
<bpm>0</bpm>
<rpm>0.00</rpm>
</extensions>
</trkpt>
<trkpt lat="63.701751709" lon="-19.644918442">
<ele>147.062500</ele>
<time>2012-07-26T16:11:47Z</time>
<speed>0.240000</speed>
<extensions>
<speed>0.2</speed>
<temp>0.00</temp>
<bpm>0</bpm>
<rpm>0.00</rpm>
</extensions>
</trkpt>
<trkpt lat="63.701740265" lon="-19.644948959">
<ele>147.085938</ele>
<time>2012-07-26T16:11:52Z</time>
<speed>0.310000</speed>
<extensions>
<speed>0.3</speed>
<temp>0.00</temp>
<bpm>0</bpm>
<rpm>0.00</rpm>
</extensions>
</trkpt>
<trkpt lat="63.701740265" lon="-19.644954681">
<ele>147.101563</ele>
<time>2012-07-26T16:11:57Z</time>
<speed>0.180000</speed>
<extensions>
<speed>0.2</speed>
<temp>0.00</temp>
<bpm>0</bpm>
<rpm>0.00</rpm>
</extensions>
</trkpt>
<trkpt lat="63.701736450" lon="-19.644973755">
<ele>147.117188</ele>
<time>2012-07-26T16:12:02Z</time>
<speed>0.230000</speed>
<extensions>
<speed>0.2</speed>
<temp>0.00</temp>
<bpm>0</bpm>
<rpm>0.00</rpm>
</extensions>
</trkpt>
<trkpt lat="63.701736450" lon="-19.644994736">
<ele>147.128906</ele>
<time>2012-07-26T16:12:07Z</time>
<speed>0.190000</speed>
<extensions>
<speed>0.2</speed>
<temp>0.00</temp>
<bpm>0</bpm>
<rpm>0.00</rpm>
</extensions>
</trkpt>
<trkpt lat="63.701736450" lon="-19.645015717">
<ele>147.140625</ele>
<time>2012-07-26T16:12:12Z</time>
<speed>0.190000</speed>
<extensions>
<speed>0.2</speed>
<temp>0.00</temp>
<bpm>0</bpm>
<rpm>0.00</rpm>
</extensions>
</trkpt>
<trkpt lat="63.701686859" lon="-19.644968033">
<ele>145.972656</ele>
<time>2012-07-26T16:18:54Z</time>
<speed>0.090000</speed>
<extensions>
<speed>0.1</speed>
<temp>0.00</temp>
<bpm>0</bpm>
<rpm>0.00</rpm>
</extensions>
</trkpt>
<trkpt lat="63.697624207" lon="-19.624704361">
<ele>122.251953</ele>
<time>2012-07-26T16:19:41Z</time>
<speed>0.240000</speed>
<extensions>
<speed>0.2</speed>
<temp>0.00</temp>
<bpm>0</bpm>
<rpm>0.00</rpm>
</extensions>
</trkpt>
<trkpt lat="63.697929382" lon="-19.626327515">
<ele>124.580078</ele>
<time>2012-07-26T16:19:46Z</time>
<speed>0.050000</speed>
<extensions>
<speed>0.1</speed>
<temp>0.00</temp>
<bpm>0</bpm>
<rpm>0.00</rpm>
</extensions>
</trkpt>
<trkpt lat="63.698211670" lon="-19.627799988">
<ele>126.484375</ele>
<time>2012-07-26T16:19:51Z</time>
<speed>0.280000</speed>
<extensions>
<speed>0.3</speed>
<temp>0.00</temp>
<bpm>0</bpm>
<rpm>0.00</rpm>
</extensions>
</trkpt>
<trkpt lat="63.701221466" lon="-19.642898560">
<ele>137.339844</ele>
<time>2012-07-26T16:19:56Z</time>
<speed>0.280000</speed>
<extensions>
<speed>0.3</speed>
<temp>0.00</temp>
<bpm>0</bpm>
<rpm>0.00</rpm>
</extensions>
</trkpt>
<trkpt lat="63.701225281" lon="-19.642932892">
<ele>136.355469</ele>
<time>2012-07-26T16:20:01Z</time>
<speed>0.040000</speed>
<extensions>
<speed>0.0</speed>
<temp>0.00</temp>
<bpm>0</bpm>
<rpm>0.00</rpm>
</extensions>
</trkpt>
<trkpt lat="63.701225281" lon="-19.642929077">
<ele>136.359375</ele>
<time>2012-07-26T16:20:06Z</time>
<speed>0.080000</speed>
<extensions>
<speed>0.1</speed>
<temp>0.00</temp>
<bpm>0</bpm>
<rpm>0.00</rpm>
</extensions>
</trkpt>
<trkpt lat="63.701225281" lon="-19.642940521">
<ele>136.378906</ele>
<time>2012-07-26T16:20:11Z</time>
<speed>0.110000</speed>
<extensions>
<speed>0.1</speed>
<temp>0.00</temp>
<bpm>0</bpm>
<rpm>0.00</rpm>
</extensions>
</trkpt>
<trkpt lat="63.701236725" lon="-19.642961502">
<ele>136.031250</ele>
<time>2012-07-26T16:20:16Z</time>
<speed>0.110000</speed>
<extensions>
<speed>0.1</speed>
<temp>0.00</temp>
<bpm>0</bpm>
<rpm>0.00</rpm>
</extensions>
</trkpt>
<trkpt lat="63.701274872" lon="-19.643108368">
<ele>131.511719</ele>
<time>2012-07-26T16:20:21Z</time>
<speed>0.410000</speed>
<extensions>
<speed>0.4</speed>
<temp>0.00</temp>
<bpm>0</bpm>
<rpm>0.00</rpm>
</extensions>
</trkpt>
<trkpt lat="63.701351166" lon="-19.643201828">
<ele>129.125000</ele>
<time>2012-07-26T16:20:26Z</time>
<speed>1.200000</speed>
<extensions>
<speed>1.2</speed>
<temp>0.00</temp>
<bpm>0</bpm>
<rpm>0.00</rpm>
</extensions>
</trkpt>
<trkpt lat="63.701416016" lon="-19.643213272">
<ele>128.425781</ele>
<time>2012-07-26T16:20:31Z</time>
<speed>1.220000</speed>
<extensions>
<speed>1.2</speed>
<temp>0.00</temp>
<bpm>0</bpm>
<rpm>0.00</rpm>
</extensions>
</trkpt>
<trkpt lat="63.701465607" lon="-19.643194199">
<ele>127.134766</ele>
<time>2012-07-26T16:20:36Z</time>
<speed>1.200000</speed>
<extensions>
<speed>1.2</speed>
<temp>0.00</temp>
<bpm>0</bpm>
<rpm>0.00</rpm>
</extensions>
</trkpt>
<trkpt lat="63.701522827" lon="-19.643175125">
<ele>125.013672</ele>
<time>2012-07-26T16:20:41Z</time>
<speed>1.280000</speed>
<extensions>
<speed>1.3</speed>
<temp>0.00</temp>
<bpm>0</bpm>
<rpm>0.00</rpm>
</extensions>
</trkpt>
<trkpt lat="63.701580048" lon="-19.643169403">
<ele>122.253906</ele>
<time>2012-07-26T16:20:46Z</time>
<speed>0.770000</speed>
<extensions>
<speed>0.8</speed>
<temp>0.00</temp>
<bpm>0</bpm>
<rpm>0.00</rpm>
</extensions>
</trkpt>
<trkpt lat="63.701637268" lon="-19.643192291">
<ele>118.736328</ele>
<time>2012-07-26T16:20:51Z</time>
<speed>0.430000</speed>
<extensions>
<speed>0.4</speed>
<temp>0.00</temp>
<bpm>0</bpm>
<rpm>0.00</rpm>
</extensions>
</trkpt>
<trkpt lat="63.701663971" lon="-19.643220901">
<ele>116.011719</ele>
<time>2012-07-26T16:20:56Z</time>
<speed>0.170000</speed>
<extensions>
<speed>0.2</speed>
<temp>0.00</temp>
<bpm>0</bpm>
<rpm>0.00</rpm>
</extensions>
</trkpt>
<trkpt lat="63.701675415" lon="-19.643224716">
<ele>114.726563</ele>
<time>2012-07-26T16:21:01Z</time>
<speed>0.210000</speed>
<extensions>
<speed>0.2</speed>
<temp>0.00</temp>
<bpm>0</bpm>
<rpm>0.00</rpm>
</extensions>
</trkpt>
<trkpt lat="63.701683044" lon="-19.643232346">
<ele>113.427734</ele>
<time>2012-07-26T16:21:06Z</time>
<speed>0.190000</speed>
<extensions>
<speed>0.2</speed>
<temp>0.00</temp>
<bpm>0</bpm>
<rpm>0.00</rpm>
</extensions>
</trkpt>
<trkpt lat="63.701690674" lon="-19.643245697">
<ele>112.107422</ele>
<time>2012-07-26T16:21:11Z</time>
<speed>0.170000</speed>
<extensions>
<speed>0.2</speed>
<temp>0.00</temp>
<bpm>0</bpm>
<rpm>0.00</rpm>
</extensions>
</trkpt>
<trkpt lat="63.701698303" lon="-19.643260956">
<ele>110.757813</ele>
<time>2012-07-26T16:21:16Z</time>
<speed>0.210000</speed>
<extensions>
<speed>0.2</speed>
<temp>0.00</temp>
<bpm>0</bpm>
<rpm>0.00</rpm>
</extensions>
</trkpt>
<trkpt lat="63.701744080" lon="-19.643419266">
<ele>105.056641</ele>
<time>2012-07-26T16:21:21Z</time>
<speed>0.370000</speed>
<extensions>
<speed>0.4</speed>
<temp>0.00</temp>
<bpm>0</bpm>
<rpm>0.00</rpm>
</extensions>
</trkpt>
<trkpt lat="63.701831818" lon="-19.643756866">
<ele>99.015625</ele>
<time>2012-07-26T16:21:26Z</time>
<speed>0.820000</speed>
<extensions>
<speed>0.8</speed>
<temp>0.00</temp>
<bpm>0</bpm>
<rpm>0.00</rpm>
</extensions>
</trkpt>
<trkpt lat="63.701839447" lon="-19.643907547">
<ele>96.080078</ele>
<time>2012-07-26T16:21:31Z</time>
<speed>0.790000</speed>
<extensions>
<speed>0.8</speed>
<temp>0.00</temp>
<bpm>0</bpm>
<rpm>0.00</rpm>
</extensions>
</trkpt>
<trkpt lat="63.701862335" lon="-19.644048691">
<ele>96.068359</ele>
<time>2012-07-26T16:21:36Z</time>
<speed>0.990000</speed>
<extensions>
<speed>1.0</speed>
<temp>0.00</temp>
<bpm>0</bpm>
<rpm>0.00</rpm>
</extensions>
</trkpt>
<trkpt lat="63.701877594" lon="-19.644201279">
<ele>96.169922</ele>
<time>2012-07-26T16:21:41Z</time>
<speed>0.920000</speed>
<extensions>
<speed>0.9</speed>
<temp>0.00</temp>
<bpm>0</bpm>
<rpm>0.00</rpm>
</extensions>
</trkpt>
<trkpt lat="63.701881409" lon="-19.644376755">
<ele>95.933594</ele>
<time>2012-07-26T16:21:46Z</time>
<speed>0.810000</speed>
<extensions>
<speed>0.8</speed>
<temp>0.00</temp>
<bpm>0</bpm>
<rpm>0.00</rpm>
</extensions>
</trkpt>
<trkpt lat="63.701847076" lon="-19.644653320">
<ele>99.240234</ele>
<time>2012-07-26T16:21:51Z</time>
<speed>0.380000</speed>
<extensions>
<speed>0.4</speed>
<temp>0.00</temp>
<bpm>0</bpm>
<rpm>0.00</rpm>
</extensions>
</trkpt>
<trkpt lat="63.701927185" lon="-19.644752502">
<ele>102.222656</ele>
<time>2012-07-26T16:21:56Z</time>
<speed>0.430000</speed>
<extensions>
<speed>0.4</speed>
<temp>0.00</temp>
<bpm>0</bpm>
<rpm>0.00</rpm>
</extensions>
</trkpt>
<trkpt lat="63.701946259" lon="-19.644813538">
<ele>102.763672</ele>
<time>2012-07-26T16:22:01Z</time>
<speed>0.490000</speed>
<extensions>
<speed>0.5</speed>
<temp>0.00</temp>
<bpm>0</bpm>
<rpm>0.00</rpm>
</extensions>
</trkpt>
<trkpt lat="63.701869965" lon="-19.644969940">
<ele>104.695313</ele>
<time>2012-07-26T16:22:06Z</time>
<speed>0.630000</speed>
<extensions>
<speed>0.6</speed>
<temp>0.00</temp>
<bpm>0</bpm>
<rpm>0.00</rpm>
</extensions>
</trkpt>
<trkpt lat="63.701751709" lon="-19.645135880">
<ele>106.662109</ele>
<time>2012-07-26T16:22:11Z</time>
<speed>0.500000</speed>
<extensions>
<speed>0.5</speed>
<temp>0.00</temp>
<bpm>0</bpm>
<rpm>0.00</rpm>
</extensions>
</trkpt>
<trkpt lat="63.701698303" lon="-19.645174026">
<ele>106.623047</ele>
<time>2012-07-26T16:22:16Z</time>
<speed>0.580000</speed>
<extensions>
<speed>0.6</speed>
<temp>0.00</temp>
<bpm>0</bpm>
<rpm>0.00</rpm>
</extensions>
</trkpt>
<trkpt lat="63.701652527" lon="-19.645214081">
<ele>106.089844</ele>
<time>2012-07-26T16:22:21Z</time>
<speed>0.530000</speed>
<extensions>
<speed>0.5</speed>
<temp>0.00</temp>
<bpm>0</bpm>
<rpm>0.00</rpm>
</extensions>
</trkpt>
<trkpt lat="63.701602936" lon="-19.645225525">
<ele>105.568359</ele>
<time>2012-07-26T16:22:26Z</time>
<speed>0.580000</speed>
<extensions>
<speed>0.6</speed>
<temp>0.00</temp>
<bpm>0</bpm>
<rpm>0.00</rpm>
</extensions>
</trkpt>
<trkpt lat="63.701599121" lon="-19.644960403">
<ele>102.761719</ele>
<time>2012-07-26T16:24:55Z</time>
<speed>0.030000</speed>
<extensions>
<speed>0.0</speed>
<temp>0.00</temp>
<bpm>0</bpm>
<rpm>0.00</rpm>
</extensions>
</trkpt>
<trkpt lat="63.701583862" lon="-19.645164490">
<ele>102.486328</ele>
<time>2012-07-26T16:25:00Z</time>
<speed>0.150000</speed>
<extensions>
<speed>0.2</speed>
<temp>0.00</temp>
<bpm>0</bpm>
<rpm>0.00</rpm>
</extensions>
</trkpt>
<trkpt lat="63.701580048" lon="-19.645177841">
<ele>102.478516</ele>
<time>2012-07-26T16:25:05Z</time>
<speed>0.070000</speed>
<extensions>
<speed>0.1</speed>
<temp>0.00</temp>
<bpm>0</bpm>
<rpm>0.00</rpm>
</extensions>
</trkpt>
<trkpt lat="63.701576233" lon="-19.645185471">
<ele>102.468750</ele>
<time>2012-07-26T16:25:10Z</time>
<speed>0.140000</speed>
<extensions>
<speed>0.1</speed>
<temp>0.00</temp>
<bpm>0</bpm>
<rpm>0.00</rpm>
</extensions>
</trkpt>
<trkpt lat="63.701576233" lon="-19.645196915">
<ele>102.457031</ele>
<time>2012-07-26T16:25:15Z</time>
<speed>0.140000</speed>
<extensions>
<speed>0.1</speed>
<temp>0.00</temp>
<bpm>0</bpm>
<rpm>0.00</rpm>
</extensions>
</trkpt>
<trkpt lat="63.701576233" lon="-19.645210266">
<ele>102.449219</ele>
<time>2012-07-26T16:25:20Z</time>
<speed>0.120000</speed>
<extensions>
<speed>0.1</speed>
<temp>0.00</temp>
<bpm>0</bpm>
<rpm>0.00</rpm>
</extensions>
</trkpt>
<trkpt lat="63.701572418" lon="-19.645225525">
<ele>102.441406</ele>
<time>2012-07-26T16:25:25Z</time>
<speed>0.140000</speed>
<extensions>
<speed>0.1</speed>
<temp>0.00</temp>
<bpm>0</bpm>
<rpm>0.00</rpm>
</extensions>
</trkpt>
<trkpt lat="63.701572418" lon="-19.645236969">
<ele>102.435547</ele>
<time>2012-07-26T16:25:30Z</time>
<speed>0.080000</speed>
<extensions>
<speed>0.1</speed>
<temp>0.00</temp>
<bpm>0</bpm>
<rpm>0.00</rpm>
</extensions>
</trkpt>
<trkpt lat="63.701572418" lon="-19.645246506">
<ele>102.431641</ele>
<time>2012-07-26T16:25:35Z</time>
<speed>0.130000</speed>
<extensions>
<speed>0.1</speed>
<temp>0.00</temp>
<bpm>0</bpm>
<rpm>0.00</rpm>
</extensions>
</trkpt>
<trkpt lat="63.701572418" lon="-19.645254135">
<ele>102.429688</ele>
<time>2012-07-26T16:25:40Z</time>
<speed>0.180000</speed>
<extensions>
<speed>0.2</speed>
<temp>0.00</temp>
<bpm>0</bpm>
<rpm>0.00</rpm>
</extensions>
</trkpt>
<trkpt lat="63.701572418" lon="-19.645271301">
<ele>102.431641</ele>
<time>2012-07-26T16:25:45Z</time>
<speed>0.120000</speed>
<extensions>
<speed>0.1</speed>
<temp>0.00</temp>
<bpm>0</bpm>
<rpm>0.00</rpm>
</extensions>
</trkpt>
<trkpt lat="63.701576233" lon="-19.645275116">
<ele>102.433594</ele>
<time>2012-07-26T16:25:50Z</time>
<speed>0.090000</speed>
<extensions>
<speed>0.1</speed>
<temp>0.00</temp>
<bpm>0</bpm>
<rpm>0.00</rpm>
</extensions>
</trkpt>
<trkpt lat="63.701580048" lon="-19.645275116">
<ele>102.441406</ele>
<time>2012-07-26T16:25:55Z</time>
<speed>0.050000</speed>
<extensions>
<speed>0.1</speed>
<temp>0.00</temp>
<bpm>0</bpm>
<rpm>0.00</rpm>
</extensions>
</trkpt>
<trkpt lat="63.701602936" lon="-19.645299911">
<ele>103.046875</ele>
<time>2012-07-26T16:26:00Z</time>
<speed>0.300000</speed>
<extensions>
<speed>0.3</speed>
<temp>0.00</temp>
<bpm>0</bpm>
<rpm>0.00</rpm>
</extensions>
</trkpt>
<trkpt lat="63.701602936" lon="-19.645324707">
<ele>103.210938</ele>
<time>2012-07-26T16:26:05Z</time>
<speed>0.180000</speed>
<extensions>
<speed>0.2</speed>
<temp>0.00</temp>
<bpm>0</bpm>
<rpm>0.00</rpm>
</extensions>
</trkpt>
<trkpt lat="63.701606750" lon="-19.645307541">
<ele>103.283203</ele>
<time>2012-07-26T16:26:10Z</time>
<speed>0.370000</speed>
<extensions>
<speed>0.4</speed>
<temp>0.00</temp>
<bpm>0</bpm>
<rpm>0.00</rpm>
</extensions>
</trkpt>
<trkpt lat="63.701595306" lon="-19.645299911">
<ele>103.423828</ele>
<time>2012-07-26T16:26:15Z</time>
<speed>0.270000</speed>
<extensions>
<speed>0.3</speed>
<temp>0.00</temp>
<bpm>0</bpm>
<rpm>0.00</rpm>
</extensions>
</trkpt>
<trkpt lat="63.701599121" lon="-19.645269394">
<ele>103.503906</ele>
<time>2012-07-26T16:26:20Z</time>
<speed>0.300000</speed>
<extensions>
<speed>0.3</speed>
<temp>0.00</temp>
<bpm>0</bpm>
<rpm>0.00</rpm>
</extensions>
</trkpt>
<trkpt lat="63.701564789" lon="-19.645225525">
<ele>103.640625</ele>
<time>2012-07-26T16:26:25Z</time>
<speed>0.500000</speed>
<extensions>
<speed>0.5</speed>
<temp>0.00</temp>
<bpm>0</bpm>
<rpm>0.00</rpm>
</extensions>
</trkpt>
<trkpt lat="63.701557159" lon="-19.645168304">
<ele>103.775391</ele>
<time>2012-07-26T16:26:30Z</time>
<speed>0.470000</speed>
<extensions>
<speed>0.5</speed>
<temp>0.00</temp>
<bpm>0</bpm>
<rpm>0.00</rpm>
</extensions>
</trkpt>
<trkpt lat="63.701522827" lon="-19.645095825">
<ele>103.933594</ele>
<time>2012-07-26T16:26:35Z</time>
<speed>0.600000</speed>
<extensions>
<speed>0.6</speed>
<temp>0.00</temp>
<bpm>0</bpm>
<rpm>0.00</rpm>
</extensions>
</trkpt>
<trkpt lat="63.701526642" lon="-19.645109177">
<ele>104.044922</ele>
<time>2012-07-26T16:26:40Z</time>
<speed>0.390000</speed>
<extensions>
<speed>0.4</speed>
<temp>0.00</temp>
<bpm>0</bpm>
<rpm>0.00</rpm>
</extensions>
</trkpt>
<trkpt lat="63.701530457" lon="-19.645158768">
<ele>104.130859</ele>
<time>2012-07-26T16:26:45Z</time>
<speed>0.290000</speed>
<extensions>
<speed>0.3</speed>
<temp>0.00</temp>
<bpm>0</bpm>
<rpm>0.00</rpm>
</extensions>
</trkpt>
<trkpt lat="63.701530457" lon="-19.645181656">
<ele>104.203125</ele>
<time>2012-07-26T16:26:50Z</time>
<speed>0.260000</speed>
<extensions>
<speed>0.3</speed>
<temp>0.00</temp>
<bpm>0</bpm>
<rpm>0.00</rpm>
</extensions>
</trkpt>
<trkpt lat="63.701526642" lon="-19.645132065">
<ele>104.298828</ele>
<time>2012-07-26T16:26:55Z</time>
<speed>0.430000</speed>
<extensions>
<speed>0.4</speed>
<temp>0.00</temp>
<bpm>0</bpm>
<rpm>0.00</rpm>
</extensions>
</trkpt>
<trkpt lat="63.701515198" lon="-19.645095825">
<ele>104.427734</ele>
<time>2012-07-26T16:27:00Z</time>
<speed>0.440000</speed>
<extensions>
<speed>0.4</speed>
<temp>0.00</temp>
<bpm>0</bpm>
<rpm>0.00</rpm>
</extensions>
</trkpt>
<trkpt lat="63.701534271" lon="-19.645038605">
<ele>104.611328</ele>
<time>2012-07-26T16:27:05Z</time>
<speed>0.500000</speed>
<extensions>
<speed>0.5</speed>
<temp>0.00</temp>
<bpm>0</bpm>
<rpm>0.00</rpm>
</extensions>
</trkpt>
<trkpt lat="63.701534271" lon="-19.644989014">
<ele>104.839844</ele>
<time>2012-07-26T16:27:10Z</time>
<speed>0.510000</speed>
<extensions>
<speed>0.5</speed>
<temp>0.00</temp>
<bpm>0</bpm>
<rpm>0.00</rpm>
</extensions>
</trkpt>
<trkpt lat="63.701545715" lon="-19.644937515">
<ele>104.984375</ele>
<time>2012-07-26T16:27:15Z</time>
<speed>0.530000</speed>
<extensions>
<speed>0.5</speed>
<temp>0.00</temp>
<bpm>0</bpm>
<rpm>0.00</rpm>
</extensions>
</trkpt>
<trkpt lat="63.701538086" lon="-19.644893646">
<ele>105.126953</ele>
<time>2012-07-26T16:27:20Z</time>
<speed>0.550000</speed>
<extensions>
<speed>0.6</speed>
<temp>0.00</temp>
<bpm>0</bpm>
<rpm>0.00</rpm>
</extensions>
</trkpt>
<trkpt lat="63.701530457" lon="-19.644899368">
<ele>105.259766</ele>
<time>2012-07-26T16:27:25Z</time>
<speed>0.520000</speed>
<extensions>
<speed>0.5</speed>
<temp>0.00</temp>
<bpm>0</bpm>
<rpm>0.00</rpm>
</extensions>
</trkpt>
<trkpt lat="63.701499939" lon="-19.644855499">
<ele>105.429688</ele>
<time>2012-07-26T16:27:30Z</time>
<speed>0.620000</speed>
<extensions>
<speed>0.6</speed>
<temp>0.00</temp>
<bpm>0</bpm>
<rpm>0.00</rpm>
</extensions>
</trkpt>
<trkpt lat="63.701477051" lon="-19.644842148">
<ele>105.519531</ele>
<time>2012-07-26T16:27:35Z</time>
<speed>0.720000</speed>
<extensions>
<speed>0.7</speed>
<temp>0.00</temp>
<bpm>0</bpm>
<rpm>0.00</rpm>
</extensions>
</trkpt>
<trkpt lat="63.701469421" lon="-19.644826889">
<ele>105.587891</ele>
<time>2012-07-26T16:27:40Z</time>
<speed>0.710000</speed>
<extensions>
<speed>0.7</speed>
<temp>0.00</temp>
<bpm>0</bpm>
<rpm>0.00</rpm>
</extensions>
</trkpt>
<trkpt lat="63.701438904" lon="-19.644765854">
<ele>105.773438</ele>
<time>2012-07-26T16:27:45Z</time>
<speed>0.920000</speed>
<extensions>
<speed>0.9</speed>
<temp>0.00</temp>
<bpm>0</bpm>
<rpm>0.00</rpm>
</extensions>
</trkpt>
<trkpt lat="63.701438904" lon="-19.644769669">
<ele>105.960938</ele>
<time>2012-07-26T16:27:50Z</time>
<speed>0.830000</speed>
<extensions>
<speed>0.8</speed>
<temp>0.00</temp>
<bpm>0</bpm>
<rpm>0.00</rpm>
</extensions>
</trkpt>
<trkpt lat="63.701419830" lon="-19.644781113">
<ele>106.121094</ele>
<time>2012-07-26T16:27:55Z</time>
<speed>1.080000</speed>
<extensions>
<speed>1.1</speed>
<temp>0.00</temp>
<bpm>0</bpm>
<rpm>0.00</rpm>
</extensions>
</trkpt>
<trkpt lat="63.701370239" lon="-19.644752502">
<ele>106.300781</ele>
<time>2012-07-26T16:28:00Z</time>
<speed>1.340000</speed>
<extensions>
<speed>1.3</speed>
<temp>0.00</temp>
<bpm>0</bpm>
<rpm>0.00</rpm>
</extensions>
</trkpt>
<trkpt lat="63.701297760" lon="-19.644676208">
<ele>106.501953</ele>
<time>2012-07-26T16:28:05Z</time>
<speed>1.430000</speed>
<extensions>
<speed>1.4</speed>
<temp>0.00</temp>
<bpm>0</bpm>
<rpm>0.00</rpm>
</extensions>
</trkpt>
<trkpt lat="63.701244354" lon="-19.644548416">
<ele>106.724609</ele>
<time>2012-07-26T16:28:10Z</time>
<speed>1.850000</speed>
<extensions>
<speed>1.8</speed>
<temp>0.00</temp>
<bpm>0</bpm>
<rpm>0.00</rpm>
</extensions>
</trkpt>
<trkpt lat="63.701278687" lon="-19.644590378">
<ele>107.185547</ele>
<time>2012-07-26T16:28:15Z</time>
<speed>1.600000</speed>
<extensions>
<speed>1.6</speed>
<temp>0.00</temp>
<bpm>0</bpm>
<rpm>0.00</rpm>
</extensions>
</trkpt>
<trkpt lat="63.701255798" lon="-19.644529343">
<ele>107.707031</ele>
<time>2012-07-26T16:28:20Z</time>
<speed>1.670000</speed>
<extensions>
<speed>1.7</speed>
<temp>0.00</temp>
<bpm>0</bpm>
<rpm>0.00</rpm>
</extensions>
</trkpt>
<trkpt lat="63.701305389" lon="-19.644556046">
<ele>108.417969</ele>
<time>2012-07-26T16:28:25Z</time>
<speed>1.590000</speed>
<extensions>
<speed>1.6</speed>
<temp>0.00</temp>
<bpm>0</bpm>
<rpm>0.00</rpm>
</extensions>
</trkpt>
<trkpt lat="63.701301575" lon="-19.644521713">
<ele>109.050781</ele>
<time>2012-07-26T16:28:30Z</time>
<speed>1.680000</speed>
<extensions>
<speed>1.7</speed>
<temp>0.00</temp>
<bpm>0</bpm>
<rpm>0.00</rpm>
</extensions>
</trkpt>
<trkpt lat="63.701343536" lon="-19.644603729">
<ele>109.833984</ele>
<time>2012-07-26T16:28:35Z</time>
<speed>1.210000</speed>
<extensions>
<speed>1.2</speed>
<temp>0.00</temp>
<bpm>0</bpm>
<rpm>0.00</rpm>
</extensions>
</trkpt>
<trkpt lat="63.701358795" lon="-19.644590378">
<ele>110.777344</ele>
<time>2012-07-26T16:28:40Z</time>
<speed>1.200000</speed>
<extensions>
<speed>1.2</speed>
<temp>0.00</temp>
<bpm>0</bpm>
<rpm>0.00</rpm>
</extensions>
</trkpt>
<trkpt lat="63.701362610" lon="-19.644601822">
<ele>111.863281</ele>
<time>2012-07-26T16:28:45Z</time>
<speed>1.160000</speed>
<extensions>
<speed>1.2</speed>
<temp>0.00</temp>
<bpm>0</bpm>
<rpm>0.00</rpm>
</extensions>
</trkpt>
<trkpt lat="63.701389313" lon="-19.644617081">
<ele>112.824219</ele>
<time>2012-07-26T16:28:50Z</time>
<speed>1.040000</speed>
<extensions>
<speed>1.0</speed>
<temp>0.00</temp>
<bpm>0</bpm>
<rpm>0.00</rpm>
</extensions>
</trkpt>
<trkpt lat="63.701431274" lon="-19.644697189">
<ele>113.945313</ele>
<time>2012-07-26T16:28:55Z</time>
<speed>1.010000</speed>
<extensions>
<speed>1.0</speed>
<temp>0.00</temp>
<bpm>0</bpm>
<rpm>0.00</rpm>
</extensions>
</trkpt>
<trkpt lat="63.701499939" lon="-19.644857407">
<ele>115.861328</ele>
<time>2012-07-26T16:29:00Z</time>
<speed>0.480000</speed>
<extensions>
<speed>0.5</speed>
<temp>0.00</temp>
<bpm>0</bpm>
<rpm>0.00</rpm>
</extensions>
</trkpt>
<trkpt lat="63.701496124" lon="-19.644863129">
<ele>116.445313</ele>
<time>2012-07-26T16:29:05Z</time>
<speed>0.470000</speed>
<extensions>
<speed>0.5</speed>
<temp>0.00</temp>
<bpm>0</bpm>
<rpm>0.00</rpm>
</extensions>
</trkpt>
<trkpt lat="63.701480865" lon="-19.644876480">
<ele>116.453125</ele>
<time>2012-07-26T16:29:10Z</time>
<speed>0.520000</speed>
<extensions>
<speed>0.5</speed>
<temp>0.00</temp>
<bpm>0</bpm>
<rpm>0.00</rpm>
</extensions>
</trkpt>
<trkpt lat="63.701522827" lon="-19.644987106">
<ele>117.261719</ele>
<time>2012-07-26T16:29:15Z</time>
<speed>0.190000</speed>
<extensions>
<speed>0.2</speed>
<temp>0.00</temp>
<bpm>0</bpm>
<rpm>0.00</rpm>
</extensions>
</trkpt>
<trkpt lat="63.701519012" lon="-19.644954681">
<ele>117.771484</ele>
<time>2012-07-26T16:29:20Z</time>
<speed>0.440000</speed>
<extensions>
<speed>0.4</speed>
<temp>0.00</temp>
<bpm>0</bpm>
<rpm>0.00</rpm>
</extensions>
</trkpt>
<trkpt lat="63.701519012" lon="-19.644906998">
<ele>118.222656</ele>
<time>2012-07-26T16:29:25Z</time>
<speed>0.400000</speed>
<extensions>
<speed>0.4</speed>
<temp>0.00</temp>
<bpm>0</bpm>
<rpm>0.00</rpm>
</extensions>
</trkpt>
<trkpt lat="63.701499939" lon="-19.644910812">
<ele>118.667969</ele>
<time>2012-07-26T16:29:30Z</time>
<speed>0.250000</speed>
<extensions>
<speed>0.2</speed>
<temp>0.00</temp>
<bpm>0</bpm>
<rpm>0.00</rpm>
</extensions>
</trkpt>
<trkpt lat="63.701496124" lon="-19.644916534">
<ele>119.251953</ele>
<time>2012-07-26T16:29:35Z</time>
<speed>0.260000</speed>
<extensions>
<speed>0.3</speed>
<temp>0.00</temp>
<bpm>0</bpm>
<rpm>0.00</rpm>
</extensions>
</trkpt>
<trkpt lat="63.701488495" lon="-19.644886017">
<ele>119.798828</ele>
<time>2012-07-26T16:29:40Z</time>
<speed>0.320000</speed>
<extensions>
<speed>0.3</speed>
<temp>0.00</temp>
<bpm>0</bpm>
<rpm>0.00</rpm>
</extensions>
</trkpt>
<trkpt lat="63.701339722" lon="-19.644620895">
<ele>119.068359</ele>
<time>2012-07-26T16:30:29Z</time>
<speed>0.210000</speed>
<extensions>
<speed>0.2</speed>
<temp>0.00</temp>
<bpm>0</bpm>
<rpm>0.00</rpm>
</extensions>
</trkpt>
<trkpt lat="63.701351166" lon="-19.644617081">
<ele>118.962891</ele>
<time>2012-07-26T16:30:34Z</time>
<speed>0.310000</speed>
<extensions>
<speed>0.3</speed>
<temp>0.00</temp>
<bpm>0</bpm>
<rpm>0.00</rpm>
</extensions>
</trkpt>
<trkpt lat="63.701400757" lon="-19.644752502">
<ele>119.023438</ele>
<time>2012-07-26T16:30:39Z</time>
<speed>0.580000</speed>
<extensions>
<speed>0.6</speed>
<temp>0.00</temp>
<bpm>0</bpm>
<rpm>0.00</rpm>
</extensions>
</trkpt>
<trkpt lat="63.701412201" lon="-19.644826889">
<ele>120.251953</ele>
<time>2012-07-26T16:30:44Z</time>
<speed>0.520000</speed>
<extensions>
<speed>0.5</speed>
<temp>0.00</temp>
<bpm>0</bpm>
<rpm>0.00</rpm>
</extensions>
</trkpt>
<trkpt lat="63.701534271" lon="-19.644918442">
<ele>122.888672</ele>
<time>2012-07-26T16:30:49Z</time>
<speed>0.210000</speed>
<extensions>
<speed>0.2</speed>
<temp>0.00</temp>
<bpm>0</bpm>
<rpm>0.00</rpm>
</extensions>
</trkpt>
<trkpt lat="63.701545715" lon="-19.644931793">
<ele>122.037109</ele>
<time>2012-07-26T16:30:54Z</time>
<speed>0.270000</speed>
<extensions>
<speed>0.3</speed>
<temp>0.00</temp>
<bpm>0</bpm>
<rpm>0.00</rpm>
</extensions>
</trkpt>
<trkpt lat="63.701591492" lon="-19.644977570">
<ele>121.378906</ele>
<time>2012-07-26T16:30:59Z</time>
<speed>0.280000</speed>
<extensions>
<speed>0.3</speed>
<temp>0.00</temp>
<bpm>0</bpm>
<rpm>0.00</rpm>
</extensions>
</trkpt>
<trkpt lat="63.701595306" lon="-19.644981384">
<ele>120.941406</ele>
<time>2012-07-26T16:31:04Z</time>
<speed>0.180000</speed>
<extensions>
<speed>0.2</speed>
<temp>0.00</temp>
<bpm>0</bpm>
<rpm>0.00</rpm>
</extensions>
</trkpt>
<trkpt lat="63.701602936" lon="-19.644985199">
<ele>120.972656</ele>
<time>2012-07-26T16:31:09Z</time>
<speed>0.070000</speed>
<extensions>
<speed>0.1</speed>
<temp>0.00</temp>
<bpm>0</bpm>
<rpm>0.00</rpm>
</extensions>
</trkpt>
<trkpt lat="63.701602936" lon="-19.644989014">
<ele>120.998047</ele>
<time>2012-07-26T16:31:14Z</time>
<speed>0.090000</speed>
<extensions>
<speed>0.1</speed>
<temp>0.00</temp>
<bpm>0</bpm>
<rpm>0.00</rpm>
</extensions>
</trkpt>
<trkpt lat="63.701606750" lon="-19.645002365">
<ele>121.082031</ele>
<time>2012-07-26T16:31:19Z</time>
<speed>0.140000</speed>
<extensions>
<speed>0.1</speed>
<temp>0.00</temp>
<bpm>0</bpm>
<rpm>0.00</rpm>
</extensions>
</trkpt>
<trkpt lat="63.701610565" lon="-19.644950867">
<ele>122.521484</ele>
<time>2012-07-26T16:31:24Z</time>
<speed>0.100000</speed>
<extensions>
<speed>0.1</speed>
<temp>0.00</temp>
<bpm>0</bpm>
<rpm>0.00</rpm>
</extensions>
</trkpt>
<trkpt lat="63.701614380" lon="-19.644943237">
<ele>122.529297</ele>
<time>2012-07-26T16:31:29Z</time>
<speed>0.100000</speed>
<extensions>
<speed>0.1</speed>
<temp>0.00</temp>
<bpm>0</bpm>
<rpm>0.00</rpm>
</extensions>
</trkpt>
<trkpt lat="63.701618195" lon="-19.644935608">
<ele>122.546875</ele>
<time>2012-07-26T16:31:34Z</time>
<speed>0.110000</speed>
<extensions>
<speed>0.1</speed>
<temp>0.00</temp>
<bpm>0</bpm>
<rpm>0.00</rpm>
</extensions>
</trkpt>
<trkpt lat="63.701622009" lon="-19.644929886">
<ele>122.564453</ele>
<time>2012-07-26T16:31:39Z</time>
<speed>0.050000</speed>
<extensions>
<speed>0.1</speed>
<temp>0.00</temp>
<bpm>0</bpm>
<rpm>0.00</rpm>
</extensions>
</trkpt>
<trkpt lat="63.701625824" lon="-19.644931793">
<ele>122.587891</ele>
<time>2012-07-26T16:31:44Z</time>
<speed>0.060000</speed>
<extensions>
<speed>0.1</speed>
<temp>0.00</temp>
<bpm>0</bpm>
<rpm>0.00</rpm>
</extensions>
</trkpt>
<trkpt lat="63.701625824" lon="-19.644937515">
<ele>122.605469</ele>
<time>2012-07-26T16:31:49Z</time>
<speed>0.080000</speed>
<extensions>
<speed>0.1</speed>
<temp>0.00</temp>
<bpm>0</bpm>
<rpm>0.00</rpm>
</extensions>
</trkpt>
<trkpt lat="63.701625824" lon="-19.644947052">
<ele>122.621094</ele>
<time>2012-07-26T16:31:54Z</time>
<speed>0.090000</speed>
<extensions>
<speed>0.1</speed>
<temp>0.00</temp>
<bpm>0</bpm>
<rpm>0.00</rpm>
</extensions>
</trkpt>
<trkpt lat="63.701625824" lon="-19.644954681">
<ele>122.634766</ele>
<time>2012-07-26T16:31:59Z</time>
<speed>0.090000</speed>
<extensions>
<speed>0.1</speed>
<temp>0.00</temp>
<bpm>0</bpm>
<rpm>0.00</rpm>
</extensions>
</trkpt>
<trkpt lat="63.701629639" lon="-19.644966125">
<ele>122.648438</ele>
<time>2012-07-26T16:32:04Z</time>
<speed>0.140000</speed>
<extensions>
<speed>0.1</speed>
<temp>0.00</temp>
<bpm>0</bpm>
<rpm>0.00</rpm>
</extensions>
</trkpt>
<trkpt lat="63.701633453" lon="-19.644979477">
<ele>122.658203</ele>
<time>2012-07-26T16:32:09Z</time>
<speed>0.180000</speed>
<extensions>
<speed>0.2</speed>
<temp>0.00</temp>
<bpm>0</bpm>
<rpm>0.00</rpm>
</extensions>
</trkpt>
<trkpt lat="63.701641083" lon="-19.644989014">
<ele>122.673828</ele>
<time>2012-07-26T16:32:14Z</time>
<speed>0.120000</speed>
<extensions>
<speed>0.1</speed>
<temp>0.00</temp>
<bpm>0</bpm>
<rpm>0.00</rpm>
</extensions>
</trkpt>
<trkpt lat="63.701644897" lon="-19.644992828">
<ele>122.681641</ele>
<time>2012-07-26T16:32:19Z</time>
<speed>0.080000</speed>
<extensions>
<speed>0.1</speed>
<temp>0.00</temp>
<bpm>0</bpm>
<rpm>0.00</rpm>
</extensions>
</trkpt>
<trkpt lat="63.701641083" lon="-19.645000458">
<ele>122.687500</ele>
<time>2012-07-26T16:32:24Z</time>
<speed>0.130000</speed>
<extensions>
<speed>0.1</speed>
<temp>0.00</temp>
<bpm>0</bpm>
<rpm>0.00</rpm>
</extensions>
</trkpt>
<trkpt lat="63.701641083" lon="-19.645008087">
<ele>122.687500</ele>
<time>2012-07-26T16:32:29Z</time>
<speed>0.060000</speed>
<extensions>
<speed>0.1</speed>
<temp>0.00</temp>
<bpm>0</bpm>
<rpm>0.00</rpm>
</extensions>
</trkpt>
<trkpt lat="63.701641083" lon="-19.645015717">
<ele>122.683594</ele>
<time>2012-07-26T16:32:34Z</time>
<speed>0.070000</speed>
<extensions>
<speed>0.1</speed>
<temp>0.00</temp>
<bpm>0</bpm>
<rpm>0.00</rpm>
</extensions>
</trkpt>
<trkpt lat="63.701637268" lon="-19.645013809">
<ele>122.675781</ele>
<time>2012-07-26T16:32:39Z</time>
<speed>0.060000</speed>
<extensions>
<speed>0.1</speed>
<temp>0.00</temp>
<bpm>0</bpm>
<rpm>0.00</rpm>
</extensions>
</trkpt>
<trkpt lat="63.701633453" lon="-19.645011902">
<ele>122.675781</ele>
<time>2012-07-26T16:32:44Z</time>
<speed>0.150000</speed>
<extensions>
<speed>0.2</speed>
<temp>0.00</temp>
<bpm>0</bpm>
<rpm>0.00</rpm>
</extensions>
</trkpt>
<trkpt lat="63.701629639" lon="-19.645004272">
<ele>122.675781</ele>
<time>2012-07-26T16:32:49Z</time>
<speed>0.130000</speed>
<extensions>
<speed>0.1</speed>
<temp>0.00</temp>
<bpm>0</bpm>
<rpm>0.00</rpm>
</extensions>
</trkpt>
<trkpt lat="63.701625824" lon="-19.644992828">
<ele>122.664063</ele>
<time>2012-07-26T16:32:54Z</time>
<speed>0.090000</speed>
<extensions>
<speed>0.1</speed>
<temp>0.00</temp>
<bpm>0</bpm>
<rpm>0.00</rpm>
</extensions>
</trkpt>
<trkpt lat="63.701622009" lon="-19.644989014">
<ele>122.669922</ele>
<time>2012-07-26T16:32:59Z</time>
<speed>0.060000</speed>
<extensions>
<speed>0.1</speed>
<temp>0.00</temp>
<bpm>0</bpm>
<rpm>0.00</rpm>
</extensions>
</trkpt>
<trkpt lat="63.701618195" lon="-19.645008087">
<ele>122.851563</ele>
<time>2012-07-26T16:33:04Z</time>
<speed>0.120000</speed>
<extensions>
<speed>0.1</speed>
<temp>0.00</temp>
<bpm>0</bpm>
<rpm>0.00</rpm>
</extensions>
</trkpt>
<trkpt lat="63.701610565" lon="-19.645011902">
<ele>122.830078</ele>
<time>2012-07-26T16:33:09Z</time>
<speed>0.130000</speed>
<extensions>
<speed>0.1</speed>
<temp>0.00</temp>
<bpm>0</bpm>
<rpm>0.00</rpm>
</extensions>
</trkpt>
<trkpt lat="63.701606750" lon="-19.645013809">
<ele>122.812500</ele>
<time>2012-07-26T16:33:14Z</time>
<speed>0.050000</speed>
<extensions>
<speed>0.1</speed>
<temp>0.00</temp>
<bpm>0</bpm>
<rpm>0.00</rpm>
</extensions>
</trkpt>
<trkpt lat="63.701602936" lon="-19.645013809">
<ele>122.789063</ele>
<time>2012-07-26T16:33:19Z</time>
<speed>0.150000</speed>
<extensions>
<speed>0.2</speed>
<temp>0.00</temp>
<bpm>0</bpm>
<rpm>0.00</rpm>
</extensions>
</trkpt>
<trkpt lat="63.701595306" lon="-19.645015717">
<ele>122.763672</ele>
<time>2012-07-26T16:33:24Z</time>
<speed>0.180000</speed>
<extensions>
<speed>0.2</speed>
<temp>0.00</temp>
<bpm>0</bpm>
<rpm>0.00</rpm>
</extensions>
</trkpt>
<trkpt lat="63.701583862" lon="-19.645013809">
<ele>122.738281</ele>
<time>2012-07-26T16:33:29Z</time>
<speed>0.220000</speed>
<extensions>
<speed>0.2</speed>
<temp>0.00</temp>
<bpm>0</bpm>
<rpm>0.00</rpm>
</extensions>
</trkpt>
<trkpt lat="63.701572418" lon="-19.645008087">
<ele>122.730469</ele>
<time>2012-07-26T16:33:34Z</time>
<speed>0.230000</speed>
<extensions>
<speed>0.2</speed>
<temp>0.00</temp>
<bpm>0</bpm>
<rpm>0.00</rpm>
</extensions>
</trkpt>
<trkpt lat="63.701572418" lon="-19.645021439">
<ele>122.707031</ele>
<time>2012-07-26T16:33:39Z</time>
<speed>0.210000</speed>
<extensions>
<speed>0.2</speed>
<temp>0.00</temp>
<bpm>0</bpm>
<rpm>0.00</rpm>
</extensions>
</trkpt>
<trkpt lat="63.701580048" lon="-19.645030975">
<ele>122.675781</ele>
<time>2012-07-26T16:33:44Z</time>
<speed>0.250000</speed>
<extensions>
<speed>0.2</speed>
<temp>0.00</temp>
<bpm>0</bpm>
<rpm>0.00</rpm>
</extensions>
</trkpt>
<trkpt lat="63.701583862" lon="-19.645040512">
<ele>122.671875</ele>
<time>2012-07-26T16:33:49Z</time>
<speed>0.110000</speed>
<extensions>
<speed>0.1</speed>
<temp>0.00</temp>
<bpm>0</bpm>
<rpm>0.00</rpm>
</extensions>
</trkpt>
<trkpt lat="63.701587677" lon="-19.645048141">
<ele>122.697266</ele>
<time>2012-07-26T16:33:54Z</time>
<speed>0.100000</speed>
<extensions>
<speed>0.1</speed>
<temp>0.00</temp>
<bpm>0</bpm>
<rpm>0.00</rpm>
</extensions>
</trkpt>
<trkpt lat="63.701587677" lon="-19.645057678">
<ele>122.773438</ele>
<time>2012-07-26T16:33:59Z</time>
<speed>0.140000</speed>
<extensions>
<speed>0.1</speed>
<temp>0.00</temp>
<bpm>0</bpm>
<rpm>0.00</rpm>
</extensions>
</trkpt>
<trkpt lat="63.701583862" lon="-19.645063400">
<ele>122.880859</ele>
<time>2012-07-26T16:34:04Z</time>
<speed>0.070000</speed>
<extensions>
<speed>0.1</speed>
<temp>0.00</temp>
<bpm>0</bpm>
<rpm>0.00</rpm>
</extensions>
</trkpt>
<trkpt lat="63.701583862" lon="-19.645065308">
<ele>123.000000</ele>
<time>2012-07-26T16:34:09Z</time>
<speed>0.040000</speed>
<extensions>
<speed>0.0</speed>
<temp>0.00</temp>
<bpm>0</bpm>
<rpm>0.00</rpm>
</extensions>
</trkpt>
<trkpt lat="63.701580048" lon="-19.645071030">
<ele>123.146484</ele>
<time>2012-07-26T16:34:14Z</time>
<speed>0.070000</speed>
<extensions>
<speed>0.1</speed>
<temp>0.00</temp>
<bpm>0</bpm>
<rpm>0.00</rpm>
</extensions>
</trkpt>
<trkpt lat="63.701576233" lon="-19.645061493">
<ele>123.296875</ele>
<time>2012-07-26T16:34:19Z</time>
<speed>0.120000</speed>
<extensions>
<speed>0.1</speed>
<temp>0.00</temp>
<bpm>0</bpm>
<rpm>0.00</rpm>
</extensions>
</trkpt>
<trkpt lat="63.701576233" lon="-19.645048141">
<ele>123.490234</ele>
<time>2012-07-26T16:34:24Z</time>
<speed>0.090000</speed>
<extensions>
<speed>0.1</speed>
<temp>0.00</temp>
<bpm>0</bpm>
<rpm>0.00</rpm>
</extensions>
</trkpt>
<trkpt lat="63.701568604" lon="-19.645036697">
<ele>123.892578</ele>
<time>2012-07-26T16:34:29Z</time>
<speed>0.270000</speed>
<extensions>
<speed>0.3</speed>
<temp>0.00</temp>
<bpm>0</bpm>
<rpm>0.00</rpm>
</extensions>
</trkpt>
<trkpt lat="63.701557159" lon="-19.645030975">
<ele>124.623047</ele>
<time>2012-07-26T16:34:34Z</time>
<speed>0.060000</speed>
<extensions>
<speed>0.1</speed>
<temp>0.00</temp>
<bpm>0</bpm>
<rpm>0.00</rpm>
</extensions>
</trkpt>
<trkpt lat="63.701557159" lon="-19.645030975">
<ele>125.455078</ele>
<time>2012-07-26T16:34:39Z</time>
<speed>0.050000</speed>
<extensions>
<speed>0.1</speed>
<temp>0.00</temp>
<bpm>0</bpm>
<rpm>0.00</rpm>
</extensions>
</trkpt>
<trkpt lat="63.701560974" lon="-19.645030975">
<ele>126.279297</ele>
<time>2012-07-26T16:34:44Z</time>
<speed>0.060000</speed>
<extensions>
<speed>0.1</speed>
<temp>0.00</temp>
<bpm>0</bpm>
<rpm>0.00</rpm>
</extensions>
</trkpt>
<trkpt lat="63.701564789" lon="-19.645036697">
<ele>127.113281</ele>
<time>2012-07-26T16:34:49Z</time>
<speed>0.100000</speed>
<extensions>
<speed>0.1</speed>
<temp>0.00</temp>
<bpm>0</bpm>
<rpm>0.00</rpm>
</extensions>
</trkpt>
<trkpt lat="63.701568604" lon="-19.645044327">
<ele>127.955078</ele>
<time>2012-07-26T16:34:54Z</time>
<speed>0.280000</speed>
<extensions>
<speed>0.3</speed>
<temp>0.00</temp>
<bpm>0</bpm>
<rpm>0.00</rpm>
</extensions>
</trkpt>
<trkpt lat="63.701591492" lon="-19.645036697">
<ele>129.070313</ele>
<time>2012-07-26T16:34:59Z</time>
<speed>0.350000</speed>
<extensions>
<speed>0.3</speed>
<temp>0.00</temp>
<bpm>0</bpm>
<rpm>0.00</rpm>
</extensions>
</trkpt>
<trkpt lat="63.701629639" lon="-19.645051956">
<ele>129.507813</ele>
<time>2012-07-26T16:35:04Z</time>
<speed>0.400000</speed>
<extensions>
<speed>0.4</speed>
<temp>0.00</temp>
<bpm>0</bpm>
<rpm>0.00</rpm>
</extensions>
</trkpt>
<trkpt lat="63.701648712" lon="-19.645088196">
<ele>130.433594</ele>
<time>2012-07-26T16:35:09Z</time>
<speed>0.410000</speed>
<extensions>
<speed>0.4</speed>
<temp>0.00</temp>
<bpm>0</bpm>
<rpm>0.00</rpm>
</extensions>
</trkpt>
<trkpt lat="63.701648712" lon="-19.645042419">
<ele>131.839844</ele>
<time>2012-07-26T16:35:14Z</time>
<speed>0.400000</speed>
<extensions>
<speed>0.4</speed>
<temp>0.00</temp>
<bpm>0</bpm>
<rpm>0.00</rpm>
</extensions>
</trkpt>
<trkpt lat="63.701660156" lon="-19.645055771">
<ele>132.906250</ele>
<time>2012-07-26T16:35:19Z</time>
<speed>0.340000</speed>
<extensions>
<speed>0.3</speed>
<temp>0.00</temp>
<bpm>0</bpm>
<rpm>0.00</rpm>
</extensions>
</trkpt>
<trkpt lat="63.701679230" lon="-19.645032883">
<ele>134.144531</ele>
<time>2012-07-26T16:35:24Z</time>
<speed>0.350000</speed>
<extensions>
<speed>0.3</speed>
<temp>0.00</temp>
<bpm>0</bpm>
<rpm>0.00</rpm>
</extensions>
</trkpt>
<trkpt lat="63.701709747" lon="-19.645036697">
<ele>135.199219</ele>
<time>2012-07-26T16:35:29Z</time>
<speed>0.400000</speed>
<extensions>
<speed>0.4</speed>
<temp>0.00</temp>
<bpm>0</bpm>
<rpm>0.00</rpm>
</extensions>
</trkpt>
<trkpt lat="63.701709747" lon="-19.645034790">
<ele>136.519531</ele>
<time>2012-07-26T16:35:34Z</time>
<speed>0.330000</speed>
<extensions>
<speed>0.3</speed>
<temp>0.00</temp>
<bpm>0</bpm>
<rpm>0.00</rpm>
</extensions>
</trkpt>
<trkpt lat="63.701694489" lon="-19.645027161">
<ele>137.566406</ele>
<time>2012-07-26T16:35:39Z</time>
<speed>0.200000</speed>
<extensions>
<speed>0.2</speed>
<temp>0.00</temp>
<bpm>0</bpm>
<rpm>0.00</rpm>
</extensions>
</trkpt>
<trkpt lat="63.701725006" lon="-19.645046234">
<ele>138.566406</ele>
<time>2012-07-26T16:35:44Z</time>
<speed>0.380000</speed>
<extensions>
<speed>0.4</speed>
<temp>0.00</temp>
<bpm>0</bpm>
<rpm>0.00</rpm>
</extensions>
</trkpt>
<trkpt lat="63.701717377" lon="-19.645036697">
<ele>139.402344</ele>
<time>2012-07-26T16:35:49Z</time>
<speed>0.250000</speed>
<extensions>
<speed>0.2</speed>
<temp>0.00</temp>
<bpm>0</bpm>
<rpm>0.00</rpm>
</extensions>
</trkpt>
<trkpt lat="63.701702118" lon="-19.645057678">
<ele>140.296875</ele>
<time>2012-07-26T16:35:54Z</time>
<speed>0.160000</speed>
<extensions>
<speed>0.2</speed>
<temp>0.00</temp>
<bpm>0</bpm>
<rpm>0.00</rpm>
</extensions>
</trkpt>
<trkpt lat="63.701717377" lon="-19.645059586">
<ele>141.542969</ele>
<time>2012-07-26T16:35:59Z</time>
<speed>0.290000</speed>
<extensions>
<speed>0.3</speed>
<temp>0.00</temp>
<bpm>0</bpm>
<rpm>0.00</rpm>
</extensions>
</trkpt>
<trkpt lat="63.701728821" lon="-19.645076752">
<ele>143.390625</ele>
<time>2012-07-26T16:36:04Z</time>
<speed>0.230000</speed>
<extensions>
<speed>0.2</speed>
<temp>0.00</temp>
<bpm>0</bpm>
<rpm>0.00</rpm>
</extensions>
</trkpt>
<trkpt lat="63.701736450" lon="-19.645072937">
<ele>144.250000</ele>
<time>2012-07-26T16:36:09Z</time>
<speed>0.240000</speed>
<extensions>
<speed>0.2</speed>
<temp>0.00</temp>
<bpm>0</bpm>
<rpm>0.00</rpm>
</extensions>
</trkpt>
<trkpt lat="63.701747894" lon="-19.645069122">
<ele>145.160156</ele>
<time>2012-07-26T16:36:14Z</time>
<speed>0.170000</speed>
<extensions>
<speed>0.2</speed>
<temp>0.00</temp>
<bpm>0</bpm>
<rpm>0.00</rpm>
</extensions>
</trkpt>
<trkpt lat="63.701751709" lon="-19.645067215">
<ele>146.070313</ele>
<time>2012-07-26T16:36:19Z</time>
<speed>0.090000</speed>
<extensions>
<speed>0.1</speed>
<temp>0.00</temp>
<bpm>0</bpm>
<rpm>0.00</rpm>
</extensions>
</trkpt>
<trkpt lat="63.701759338" lon="-19.645057678">
<ele>146.980469</ele>
<time>2012-07-26T16:36:24Z</time>
<speed>0.210000</speed>
<extensions>
<speed>0.2</speed>
<temp>0.00</temp>
<bpm>0</bpm>
<rpm>0.00</rpm>
</extensions>
</trkpt>
<trkpt lat="63.701766968" lon="-19.645051956">
<ele>147.894531</ele>
<time>2012-07-26T16:36:29Z</time>
<speed>0.230000</speed>
<extensions>
<speed>0.2</speed>
<temp>0.00</temp>
<bpm>0</bpm>
<rpm>0.00</rpm>
</extensions>
</trkpt>
<trkpt lat="63.701778412" lon="-19.645046234">
<ele>148.851563</ele>
<time>2012-07-26T16:36:34Z</time>
<speed>0.190000</speed>
<extensions>
<speed>0.2</speed>
<temp>0.00</temp>
<bpm>0</bpm>
<rpm>0.00</rpm>
</extensions>
</trkpt>
<trkpt lat="63.701789856" lon="-19.645040512">
<ele>149.820313</ele>
<time>2012-07-26T16:36:39Z</time>
<speed>0.310000</speed>
<extensions>
<speed>0.3</speed>
<temp>0.00</temp>
<bpm>0</bpm>
<rpm>0.00</rpm>
</extensions>
</trkpt>
<trkpt lat="63.701782227" lon="-19.645040512">
<ele>149.421875</ele>
<time>2012-07-26T16:36:44Z</time>
<speed>0.010000</speed>
<extensions>
<speed>0.0</speed>
<temp>0.00</temp>
<bpm>0</bpm>
<rpm>0.00</rpm>
</extensions>
</trkpt>
<trkpt lat="63.701774597" lon="-19.645034790">
<ele>149.398438</ele>
<time>2012-07-26T16:36:49Z</time>
<speed>0.170000</speed>
<extensions>
<speed>0.2</speed>
<temp>0.00</temp>
<bpm>0</bpm>
<rpm>0.00</rpm>
</extensions>
</trkpt>
<trkpt lat="63.701770782" lon="-19.645027161">
<ele>149.316406</ele>
<time>2012-07-26T16:36:54Z</time>
<speed>0.100000</speed>
<extensions>
<speed>0.1</speed>
<temp>0.00</temp>
<bpm>0</bpm>
<rpm>0.00</rpm>
</extensions>
</trkpt>
<trkpt lat="63.701766968" lon="-19.645027161">
<ele>149.246094</ele>
<time>2012-07-26T16:36:59Z</time>
<speed>0.190000</speed>
<extensions>
<speed>0.2</speed>
<temp>0.00</temp>
<bpm>0</bpm>
<rpm>0.00</rpm>
</extensions>
</trkpt>
<trkpt lat="63.701759338" lon="-19.645029068">
<ele>149.199219</ele>
<time>2012-07-26T16:37:04Z</time>
<speed>0.130000</speed>
<extensions>
<speed>0.1</speed>
<temp>0.00</temp>
<bpm>0</bpm>
<rpm>0.00</rpm>
</extensions>
</trkpt>
<trkpt lat="63.701755524" lon="-19.645029068">
<ele>149.136719</ele>
<time>2012-07-26T16:37:09Z</time>
<speed>0.060000</speed>
<extensions>
<speed>0.1</speed>
<temp>0.00</temp>
<bpm>0</bpm>
<rpm>0.00</rpm>
</extensions>
</trkpt>
<trkpt lat="63.701759338" lon="-19.645029068">
<ele>149.085938</ele>
<time>2012-07-26T16:37:14Z</time>
<speed>0.050000</speed>
<extensions>
<speed>0.1</speed>
<temp>0.00</temp>
<bpm>0</bpm>
<rpm>0.00</rpm>
</extensions>
</trkpt>
<trkpt lat="63.701759338" lon="-19.645029068">
<ele>149.062500</ele>
<time>2012-07-26T16:37:19Z</time>
<speed>0.040000</speed>
<extensions>
<speed>0.0</speed>
<temp>0.00</temp>
<bpm>0</bpm>
<rpm>0.00</rpm>
</extensions>
</trkpt>
<trkpt lat="63.701763153" lon="-19.645030975">
<ele>149.082031</ele>
<time>2012-07-26T16:37:24Z</time>
<extensions>
<speed>0.0</speed>
<temp>0.00</temp>
<bpm>0</bpm>
<rpm>0.00</rpm>
</extensions>
</trkpt>
<trkpt lat="63.701763153" lon="-19.645030975">
<ele>149.113281</ele>
<time>2012-07-26T16:37:29Z</time>
<extensions>
<speed>0.0</speed>
<temp>0.00</temp>
<bpm>0</bpm>
<rpm>0.00</rpm>
</extensions>
</trkpt>
<trkpt lat="63.701763153" lon="-19.645029068">
<ele>149.289063</ele>
<time>2012-07-26T16:37:34Z</time>
<speed>0.080000</speed>
<extensions>
<speed>0.1</speed>
<temp>0.00</temp>
<bpm>0</bpm>
<rpm>0.00</rpm>
</extensions>
</trkpt>
<trkpt lat="63.701766968" lon="-19.645029068">
<ele>149.441406</ele>
<time>2012-07-26T16:37:39Z</time>
<speed>0.010000</speed>
<extensions>
<speed>0.0</speed>
<temp>0.00</temp>
<bpm>0</bpm>
<rpm>0.00</rpm>
</extensions>
</trkpt>
<trkpt lat="63.701766968" lon="-19.645029068">
<ele>149.515625</ele>
<time>2012-07-26T16:37:44Z</time>
<extensions>
<speed>0.0</speed>
<temp>0.00</temp>
<bpm>0</bpm>
<rpm>0.00</rpm>
</extensions>
</trkpt>
<trkpt lat="63.701766968" lon="-19.645025253">
<ele>149.601563</ele>
<time>2012-07-26T16:37:49Z</time>
<extensions>
<speed>0.0</speed>
<temp>0.00</temp>
<bpm>0</bpm>
<rpm>0.00</rpm>
</extensions>
</trkpt>
<trkpt lat="63.701766968" lon="-19.645025253">
<ele>149.613281</ele>
<time>2012-07-26T16:37:54Z</time>
<extensions>
<speed>0.0</speed>
<temp>0.00</temp>
<bpm>0</bpm>
<rpm>0.00</rpm>
</extensions>
</trkpt>
<trkpt lat="63.701770782" lon="-19.645025253">
<ele>149.613281</ele>
<time>2012-07-26T16:37:59Z</time>
<speed>0.010000</speed>
<extensions>
<speed>0.0</speed>
<temp>0.00</temp>
<bpm>0</bpm>
<rpm>0.00</rpm>
</extensions>
</trkpt>
<trkpt lat="63.701770782" lon="-19.645023346">
<ele>149.628906</ele>
<time>2012-07-26T16:38:04Z</time>
<extensions>
<speed>0.0</speed>
<temp>0.00</temp>
<bpm>0</bpm>
<rpm>0.00</rpm>
</extensions>
</trkpt>
<trkpt lat="63.701770782" lon="-19.645023346">
<ele>149.640625</ele>
<time>2012-07-26T16:38:09Z</time>
<extensions>
<speed>0.0</speed>
<temp>0.00</temp>
<bpm>0</bpm>
<rpm>0.00</rpm>
</extensions>
</trkpt>
<trkpt lat="63.701770782" lon="-19.645023346">
<ele>149.644531</ele>
<time>2012-07-26T16:38:14Z</time>
<extensions>
<speed>0.0</speed>
<temp>0.00</temp>
<bpm>0</bpm>
<rpm>0.00</rpm>
</extensions>
</trkpt>
<trkpt lat="63.701770782" lon="-19.645023346">
<ele>149.656250</ele>
<time>2012-07-26T16:38:19Z</time>
<extensions>
<speed>0.0</speed>
<temp>0.00</temp>
<bpm>0</bpm>
<rpm>0.00</rpm>
</extensions>
</trkpt>
<trkpt lat="63.701770782" lon="-19.645023346">
<ele>149.652344</ele>
<time>2012-07-26T16:38:24Z</time>
<extensions>
<speed>0.0</speed>
<temp>0.00</temp>
<bpm>0</bpm>
<rpm>0.00</rpm>
</extensions>
</trkpt>
<trkpt lat="63.701770782" lon="-19.645023346">
<ele>149.640625</ele>
<time>2012-07-26T16:38:29Z</time>
<extensions>
<speed>0.0</speed>
<temp>0.00</temp>
<bpm>0</bpm>
<rpm>0.00</rpm>
</extensions>
</trkpt>
<trkpt lat="63.701770782" lon="-19.645023346">
<ele>149.628906</ele>
<time>2012-07-26T16:38:34Z</time>
<extensions>
<speed>0.0</speed>
<temp>0.00</temp>
<bpm>0</bpm>
<rpm>0.00</rpm>
</extensions>
</trkpt>
<trkpt lat="63.701770782" lon="-19.645023346">
<ele>149.648438</ele>
<time>2012-07-26T16:38:39Z</time>
<extensions>
<speed>0.0</speed>
<temp>0.00</temp>
<bpm>0</bpm>
<rpm>0.00</rpm>
</extensions>
</trkpt>
<trkpt lat="63.701770782" lon="-19.645021439">
<ele>149.675781</ele>
<time>2012-07-26T16:38:44Z</time>
<extensions>
<speed>0.0</speed>
<temp>0.00</temp>
<bpm>0</bpm>
<rpm>0.00</rpm>
</extensions>
</trkpt>
<trkpt lat="63.701770782" lon="-19.645021439">
<ele>149.687500</ele>
<time>2012-07-26T16:38:49Z</time>
<extensions>
<speed>0.0</speed>
<temp>0.00</temp>
<bpm>0</bpm>
<rpm>0.00</rpm>
</extensions>
</trkpt>
<trkpt lat="63.701770782" lon="-19.645021439">
<ele>149.687500</ele>
<time>2012-07-26T16:38:54Z</time>
<extensions>
<speed>0.0</speed>
<temp>0.00</temp>
<bpm>0</bpm>
<rpm>0.00</rpm>
</extensions>
</trkpt>
<trkpt lat="63.701770782" lon="-19.645021439">
<ele>149.671875</ele>
<time>2012-07-26T16:38:59Z</time>
<extensions>
<speed>0.0</speed>
<temp>0.00</temp>
<bpm>0</bpm>
<rpm>0.00</rpm>
</extensions>
</trkpt>
<trkpt lat="63.701770782" lon="-19.645019531">
<ele>149.625000</ele>
<time>2012-07-26T16:39:04Z</time>
<speed>0.280000</speed>
<extensions>
<speed>0.3</speed>
<temp>0.00</temp>
<bpm>0</bpm>
<rpm>0.00</rpm>
</extensions>
</trkpt>
<trkpt lat="63.701763153" lon="-19.644998550">
<ele>149.683594</ele>
<time>2012-07-26T16:39:09Z</time>
<speed>0.220000</speed>
<extensions>
<speed>0.2</speed>
<temp>0.00</temp>
<bpm>0</bpm>
<rpm>0.00</rpm>
</extensions>
</trkpt>
<trkpt lat="63.701755524" lon="-19.644983292">
<ele>149.699219</ele>
<time>2012-07-26T16:39:14Z</time>
<speed>0.130000</speed>
<extensions>
<speed>0.1</speed>
<temp>0.00</temp>
<bpm>0</bpm>
<rpm>0.00</rpm>
</extensions>
</trkpt>
<trkpt lat="63.701755524" lon="-19.644981384">
<ele>149.687500</ele>
<time>2012-07-26T16:39:19Z</time>
<speed>0.130000</speed>
<extensions>
<speed>0.1</speed>
<temp>0.00</temp>
<bpm>0</bpm>
<rpm>0.00</rpm>
</extensions>
</trkpt>
<trkpt lat="63.701759338" lon="-19.644994736">
<ele>149.679688</ele>
<time>2012-07-26T16:39:24Z</time>
<speed>0.370000</speed>
<extensions>
<speed>0.4</speed>
<temp>0.00</temp>
<bpm>0</bpm>
<rpm>0.00</rpm>
</extensions>
</trkpt>
<trkpt lat="63.701774597" lon="-19.645019531">
<ele>149.750000</ele>
<time>2012-07-26T16:39:29Z</time>
<speed>0.400000</speed>
<extensions>
<speed>0.4</speed>
<temp>0.00</temp>
<bpm>0</bpm>
<rpm>0.00</rpm>
</extensions>
</trkpt>
<trkpt lat="63.701782227" lon="-19.645038605">
<ele>149.734375</ele>
<time>2012-07-26T16:39:34Z</time>
<speed>0.420000</speed>
<extensions>
<speed>0.4</speed>
<temp>0.00</temp>
<bpm>0</bpm>
<rpm>0.00</rpm>
</extensions>
</trkpt>
<trkpt lat="63.701797485" lon="-19.645063400">
<ele>149.714844</ele>
<time>2012-07-26T16:39:39Z</time>
<speed>0.470000</speed>
<extensions>
<speed>0.5</speed>
<temp>0.00</temp>
<bpm>0</bpm>
<rpm>0.00</rpm>
</extensions>
</trkpt>
<trkpt lat="63.701805115" lon="-19.645080566">
<ele>149.718750</ele>
<time>2012-07-26T16:39:44Z</time>
<speed>0.450000</speed>
<extensions>
<speed>0.5</speed>
<temp>0.00</temp>
<bpm>0</bpm>
<rpm>0.00</rpm>
</extensions>
</trkpt>
<trkpt lat="63.701820374" lon="-19.645107269">
<ele>149.742188</ele>
<time>2012-07-26T16:39:49Z</time>
<speed>0.490000</speed>
<extensions>
<speed>0.5</speed>
<temp>0.00</temp>
<bpm>0</bpm>
<rpm>0.00</rpm>
</extensions>
</trkpt>
<trkpt lat="63.701828003" lon="-19.645118713">
<ele>149.707031</ele>
<time>2012-07-26T16:39:54Z</time>
<speed>0.500000</speed>
<extensions>
<speed>0.5</speed>
<temp>0.00</temp>
<bpm>0</bpm>
<rpm>0.00</rpm>
</extensions>
</trkpt>
<trkpt lat="63.701843262" lon="-19.645154953">
<ele>149.613281</ele>
<time>2012-07-26T16:39:59Z</time>
<speed>0.530000</speed>
<extensions>
<speed>0.5</speed>
<temp>0.00</temp>
<bpm>0</bpm>
<rpm>0.00</rpm>
</extensions>
</trkpt>
<trkpt lat="63.701858521" lon="-19.645185471">
<ele>149.464844</ele>
<time>2012-07-26T16:40:04Z</time>
<speed>0.520000</speed>
<extensions>
<speed>0.5</speed>
<temp>0.00</temp>
<bpm>0</bpm>
<rpm>0.00</rpm>
</extensions>
</trkpt>
<trkpt lat="63.701869965" lon="-19.645208359">
<ele>149.375000</ele>
<time>2012-07-26T16:40:09Z</time>
<speed>0.510000</speed>
<extensions>
<speed>0.5</speed>
<temp>0.00</temp>
<bpm>0</bpm>
<rpm>0.00</rpm>
</extensions>
</trkpt>
<trkpt lat="63.701877594" lon="-19.645229340">
<ele>149.246094</ele>
<time>2012-07-26T16:40:14Z</time>
<speed>0.510000</speed>
<extensions>
<speed>0.5</speed>
<temp>0.00</temp>
<bpm>0</bpm>
<rpm>0.00</rpm>
</extensions>
</trkpt>
<trkpt lat="63.701892853" lon="-19.645244598">
<ele>148.976563</ele>
<time>2012-07-26T16:40:19Z</time>
<speed>0.480000</speed>
<extensions>
<speed>0.5</speed>
<temp>0.00</temp>
<bpm>0</bpm>
<rpm>0.00</rpm>
</extensions>
</trkpt>
<trkpt lat="63.701896667" lon="-19.645238876">
<ele>148.730469</ele>
<time>2012-07-26T16:40:24Z</time>
<speed>0.480000</speed>
<extensions>
<speed>0.5</speed>
<temp>0.00</temp>
<bpm>0</bpm>
<rpm>0.00</rpm>
</extensions>
</trkpt>
<trkpt lat="63.701896667" lon="-19.645229340">
<ele>148.617188</ele>
<time>2012-07-26T16:40:29Z</time>
<speed>0.490000</speed>
<extensions>
<speed>0.5</speed>
<temp>0.00</temp>
<bpm>0</bpm>
<rpm>0.00</rpm>
</extensions>
</trkpt>
<trkpt lat="63.701904297" lon="-19.645229340">
<ele>148.328125</ele>
<time>2012-07-26T16:40:34Z</time>
<speed>0.430000</speed>
<extensions>
<speed>0.4</speed>
<temp>0.00</temp>
<bpm>0</bpm>
<rpm>0.00</rpm>
</extensions>
</trkpt>
<trkpt lat="63.701889038" lon="-19.645191193">
<ele>148.261719</ele>
<time>2012-07-26T16:40:39Z</time>
<speed>0.320000</speed>
<extensions>
<speed>0.3</speed>
<temp>0.00</temp>
<bpm>0</bpm>
<rpm>0.00</rpm>
</extensions>
</trkpt>
<trkpt lat="63.701873779" lon="-19.645151138">
<ele>148.144531</ele>
<time>2012-07-26T16:40:44Z</time>
<speed>0.250000</speed>
<extensions>
<speed>0.2</speed>
<temp>0.00</temp>
<bpm>0</bpm>
<rpm>0.00</rpm>
</extensions>
</trkpt>
<trkpt lat="63.701881409" lon="-19.645158768">
<ele>147.972656</ele>
<time>2012-07-26T16:40:49Z</time>
<speed>0.170000</speed>
<extensions>
<speed>0.2</speed>
<temp>0.00</temp>
<bpm>0</bpm>
<rpm>0.00</rpm>
</extensions>
</trkpt>
<trkpt lat="63.701885223" lon="-19.645170212">
<ele>147.773438</ele>
<time>2012-07-26T16:40:54Z</time>
<speed>0.170000</speed>
<extensions>
<speed>0.2</speed>
<temp>0.00</temp>
<bpm>0</bpm>
<rpm>0.00</rpm>
</extensions>
</trkpt>
<trkpt lat="63.701889038" lon="-19.645181656">
<ele>147.558594</ele>
<time>2012-07-26T16:40:59Z</time>
<speed>0.120000</speed>
<extensions>
<speed>0.1</speed>
<temp>0.00</temp>
<bpm>0</bpm>
<rpm>0.00</rpm>
</extensions>
</trkpt>
<trkpt lat="63.701892853" lon="-19.645189285">
<ele>147.324219</ele>
<time>2012-07-26T16:41:04Z</time>
<speed>0.110000</speed>
<extensions>
<speed>0.1</speed>
<temp>0.00</temp>
<bpm>0</bpm>
<rpm>0.00</rpm>
</extensions>
</trkpt>
<trkpt lat="63.701892853" lon="-19.645198822">
<ele>147.070313</ele>
<time>2012-07-26T16:41:09Z</time>
<speed>0.100000</speed>
<extensions>
<speed>0.1</speed>
<temp>0.00</temp>
<bpm>0</bpm>
<rpm>0.00</rpm>
</extensions>
</trkpt>
<trkpt lat="63.701896667" lon="-19.645204544">
<ele>146.785156</ele>
<time>2012-07-26T16:41:14Z</time>
<speed>0.080000</speed>
<extensions>
<speed>0.1</speed>
<temp>0.00</temp>
<bpm>0</bpm>
<rpm>0.00</rpm>
</extensions>
</trkpt>
<trkpt lat="63.701896667" lon="-19.645212173">
<ele>146.417969</ele>
<time>2012-07-26T16:41:19Z</time>
<speed>0.150000</speed>
<extensions>
<speed>0.2</speed>
<temp>0.00</temp>
<bpm>0</bpm>
<rpm>0.00</rpm>
</extensions>
</trkpt>
<trkpt lat="63.701900482" lon="-19.645225525">
<ele>146.054688</ele>
<time>2012-07-26T16:41:24Z</time>
<speed>0.160000</speed>
<extensions>
<speed>0.2</speed>
<temp>0.00</temp>
<bpm>0</bpm>
<rpm>0.00</rpm>
</extensions>
</trkpt>
<trkpt lat="63.701908112" lon="-19.645236969">
<ele>145.687500</ele>
<time>2012-07-26T16:41:29Z</time>
<speed>0.150000</speed>
<extensions>
<speed>0.2</speed>
<temp>0.00</temp>
<bpm>0</bpm>
<rpm>0.00</rpm>
</extensions>
</trkpt>
<trkpt lat="63.701911926" lon="-19.645250320">
<ele>145.312500</ele>
<time>2012-07-26T16:41:34Z</time>
<speed>0.160000</speed>
<extensions>
<speed>0.2</speed>
<temp>0.00</temp>
<bpm>0</bpm>
<rpm>0.00</rpm>
</extensions>
</trkpt>
<trkpt lat="63.701915741" lon="-19.645261765">
<ele>144.953125</ele>
<time>2012-07-26T16:41:39Z</time>
<speed>0.140000</speed>
<extensions>
<speed>0.1</speed>
<temp>0.00</temp>
<bpm>0</bpm>
<rpm>0.00</rpm>
</extensions>
</trkpt>
<trkpt lat="63.701919556" lon="-19.645271301">
<ele>144.601563</ele>
<time>2012-07-26T16:41:44Z</time>
<speed>0.090000</speed>
<extensions>
<speed>0.1</speed>
<temp>0.00</temp>
<bpm>0</bpm>
<rpm>0.00</rpm>
</extensions>
</trkpt>
<trkpt lat="63.701919556" lon="-19.645280838">
<ele>144.238281</ele>
<time>2012-07-26T16:41:49Z</time>
<speed>0.120000</speed>
<extensions>
<speed>0.1</speed>
<temp>0.00</temp>
<bpm>0</bpm>
<rpm>0.00</rpm>
</extensions>
</trkpt>
<trkpt lat="63.701923370" lon="-19.645288467">
<ele>143.882813</ele>
<time>2012-07-26T16:41:54Z</time>
<speed>0.110000</speed>
<extensions>
<speed>0.1</speed>
<temp>0.00</temp>
<bpm>0</bpm>
<rpm>0.00</rpm>
</extensions>
</trkpt>
<trkpt lat="63.701927185" lon="-19.645298004">
<ele>143.519531</ele>
<time>2012-07-26T16:41:59Z</time>
<speed>0.130000</speed>
<extensions>
<speed>0.1</speed>
<temp>0.00</temp>
<bpm>0</bpm>
<rpm>0.00</rpm>
</extensions>
</trkpt>
<trkpt lat="63.701931000" lon="-19.645305634">
<ele>143.156250</ele>
<time>2012-07-26T16:42:04Z</time>
<speed>0.070000</speed>
<extensions>
<speed>0.1</speed>
<temp>0.00</temp>
<bpm>0</bpm>
<rpm>0.00</rpm>
</extensions>
</trkpt>
<trkpt lat="63.701931000" lon="-19.645313263">
<ele>142.796875</ele>
<time>2012-07-26T16:42:09Z</time>
<speed>0.080000</speed>
<extensions>
<speed>0.1</speed>
<temp>0.00</temp>
<bpm>0</bpm>
<rpm>0.00</rpm>
</extensions>
</trkpt>
<trkpt lat="63.701934814" lon="-19.645318985">
<ele>142.425781</ele>
<time>2012-07-26T16:42:14Z</time>
<speed>0.090000</speed>
<extensions>
<speed>0.1</speed>
<temp>0.00</temp>
<bpm>0</bpm>
<rpm>0.00</rpm>
</extensions>
</trkpt>
<trkpt lat="63.701934814" lon="-19.645326614">
<ele>142.070313</ele>
<time>2012-07-26T16:42:19Z</time>
<speed>0.100000</speed>
<extensions>
<speed>0.1</speed>
<temp>0.00</temp>
<bpm>0</bpm>
<rpm>0.00</rpm>
</extensions>
</trkpt>
<trkpt lat="63.701938629" lon="-19.645332336">
<ele>141.730469</ele>
<time>2012-07-26T16:42:24Z</time>
<speed>0.100000</speed>
<extensions>
<speed>0.1</speed>
<temp>0.00</temp>
<bpm>0</bpm>
<rpm>0.00</rpm>
</extensions>
</trkpt>
<trkpt lat="63.701938629" lon="-19.645336151">
<ele>141.378906</ele>
<time>2012-07-26T16:42:29Z</time>
<speed>0.010000</speed>
<extensions>
<speed>0.0</speed>
<temp>0.00</temp>
<bpm>0</bpm>
<rpm>0.00</rpm>
</extensions>
</trkpt>
<trkpt lat="63.701938629" lon="-19.645339966">
<ele>141.027344</ele>
<time>2012-07-26T16:42:34Z</time>
<speed>0.070000</speed>
<extensions>
<speed>0.1</speed>
<temp>0.00</temp>
<bpm>0</bpm>
<rpm>0.00</rpm>
</extensions>
</trkpt>
<trkpt lat="63.701942444" lon="-19.645345688">
<ele>140.695313</ele>
<time>2012-07-26T16:42:39Z</time>
<speed>0.080000</speed>
<extensions>
<speed>0.1</speed>
<temp>0.00</temp>
<bpm>0</bpm>
<rpm>0.00</rpm>
</extensions>
</trkpt>
<trkpt lat="63.701942444" lon="-19.645351410">
<ele>140.414063</ele>
<time>2012-07-26T16:42:44Z</time>
<speed>0.020000</speed>
<extensions>
<speed>0.0</speed>
<temp>0.00</temp>
<bpm>0</bpm>
<rpm>0.00</rpm>
</extensions>
</trkpt>
<trkpt lat="63.701942444" lon="-19.645353317">
<ele>140.121094</ele>
<time>2012-07-26T16:42:49Z</time>
<speed>0.050000</speed>
<extensions>
<speed>0.1</speed>
<temp>0.00</temp>
<bpm>0</bpm>
<rpm>0.00</rpm>
</extensions>
</trkpt>
<trkpt lat="63.701942444" lon="-19.645353317">
<ele>139.828125</ele>
<time>2012-07-26T16:42:54Z</time>
<speed>0.020000</speed>
<extensions>
<speed>0.0</speed>
<temp>0.00</temp>
<bpm>0</bpm>
<rpm>0.00</rpm>
</extensions>
</trkpt>
<trkpt lat="63.701942444" lon="-19.645353317">
<ele>139.558594</ele>
<time>2012-07-26T16:42:59Z</time>
<speed>0.040000</speed>
<extensions>
<speed>0.0</speed>
<temp>0.00</temp>
<bpm>0</bpm>
<rpm>0.00</rpm>
</extensions>
</trkpt>
<trkpt lat="63.701942444" lon="-19.645357132">
<ele>139.332031</ele>
<time>2012-07-26T16:43:04Z</time>
<speed>0.020000</speed>
<extensions>
<speed>0.0</speed>
<temp>0.00</temp>
<bpm>0</bpm>
<rpm>0.00</rpm>
</extensions>
</trkpt>
<trkpt lat="63.701942444" lon="-19.645360947">
<ele>139.101563</ele>
<time>2012-07-26T16:43:09Z</time>
<speed>0.060000</speed>
<extensions>
<speed>0.1</speed>
<temp>0.00</temp>
<bpm>0</bpm>
<rpm>0.00</rpm>
</extensions>
</trkpt>
<trkpt lat="63.701946259" lon="-19.645366669">
<ele>138.890625</ele>
<time>2012-07-26T16:43:14Z</time>
<speed>0.050000</speed>
<extensions>
<speed>0.1</speed>
<temp>0.00</temp>
<bpm>0</bpm>
<rpm>0.00</rpm>
</extensions>
</trkpt>
<trkpt lat="63.701946259" lon="-19.645372391">
<ele>138.710938</ele>
<time>2012-07-26T16:43:19Z</time>
<speed>0.070000</speed>
<extensions>
<speed>0.1</speed>
<temp>0.00</temp>
<bpm>0</bpm>
<rpm>0.00</rpm>
</extensions>
</trkpt>
<trkpt lat="63.701950073" lon="-19.645378113">
<ele>138.566406</ele>
<time>2012-07-26T16:43:24Z</time>
<speed>0.060000</speed>
<extensions>
<speed>0.1</speed>
<temp>0.00</temp>
<bpm>0</bpm>
<rpm>0.00</rpm>
</extensions>
</trkpt>
<trkpt lat="63.701950073" lon="-19.645385742">
<ele>138.429688</ele>
<time>2012-07-26T16:43:29Z</time>
<speed>0.080000</speed>
<extensions>
<speed>0.1</speed>
<temp>0.00</temp>
<bpm>0</bpm>
<rpm>0.00</rpm>
</extensions>
</trkpt>
<trkpt lat="63.701953888" lon="-19.645391464">
<ele>138.351563</ele>
<time>2012-07-26T16:43:34Z</time>
<speed>0.090000</speed>
<extensions>
<speed>0.1</speed>
<temp>0.00</temp>
<bpm>0</bpm>
<rpm>0.00</rpm>
</extensions>
</trkpt>
<trkpt lat="63.701953888" lon="-19.645397186">
<ele>138.312500</ele>
<time>2012-07-26T16:43:39Z</time>
<speed>0.120000</speed>
<extensions>
<speed>0.1</speed>
<temp>0.00</temp>
<bpm>0</bpm>
<rpm>0.00</rpm>
</extensions>
</trkpt>
<trkpt lat="63.701957703" lon="-19.645406723">
<ele>138.289063</ele>
<time>2012-07-26T16:43:44Z</time>
<speed>0.110000</speed>
<extensions>
<speed>0.1</speed>
<temp>0.00</temp>
<bpm>0</bpm>
<rpm>0.00</rpm>
</extensions>
</trkpt>
<trkpt lat="63.701961517" lon="-19.645416260">
<ele>138.273438</ele>
<time>2012-07-26T16:43:49Z</time>
<speed>0.150000</speed>
<extensions>
<speed>0.2</speed>
<temp>0.00</temp>
<bpm>0</bpm>
<rpm>0.00</rpm>
</extensions>
</trkpt>
<trkpt lat="63.701965332" lon="-19.645425797">
<ele>138.250000</ele>
<time>2012-07-26T16:43:54Z</time>
<speed>0.060000</speed>
<extensions>
<speed>0.1</speed>
<temp>0.00</temp>
<bpm>0</bpm>
<rpm>0.00</rpm>
</extensions>
</trkpt>
<trkpt lat="63.701965332" lon="-19.645433426">
<ele>138.246094</ele>
<time>2012-07-26T16:43:59Z</time>
<speed>0.120000</speed>
<extensions>
<speed>0.1</speed>
<temp>0.00</temp>
<bpm>0</bpm>
<rpm>0.00</rpm>
</extensions>
</trkpt>
<trkpt lat="63.701969147" lon="-19.645442963">
<ele>138.253906</ele>
<time>2012-07-26T16:44:04Z</time>
<speed>0.050000</speed>
<extensions>
<speed>0.1</speed>
<temp>0.00</temp>
<bpm>0</bpm>
<rpm>0.00</rpm>
</extensions>
</trkpt>
<trkpt lat="63.701969147" lon="-19.645446777">
<ele>138.292969</ele>
<time>2012-07-26T16:44:09Z</time>
<speed>0.030000</speed>
<extensions>
<speed>0.0</speed>
<temp>0.00</temp>
<bpm>0</bpm>
<rpm>0.00</rpm>
</extensions>
</trkpt>
<trkpt lat="63.701969147" lon="-19.645446777">
<ele>138.304688</ele>
<time>2012-07-26T16:44:14Z</time>
<speed>0.080000</speed>
<extensions>
<speed>0.1</speed>
<temp>0.00</temp>
<bpm>0</bpm>
<rpm>0.00</rpm>
</extensions>
</trkpt>
<trkpt lat="63.701972961" lon="-19.645446777">
<ele>138.316406</ele>
<time>2012-07-26T16:44:19Z</time>
<speed>0.040000</speed>
<extensions>
<speed>0.0</speed>
<temp>0.00</temp>
<bpm>0</bpm>
<rpm>0.00</rpm>
</extensions>
</trkpt>
<trkpt lat="63.701972961" lon="-19.645442963">
<ele>138.289063</ele>
<time>2012-07-26T16:44:24Z</time>
<speed>0.060000</speed>
<extensions>
<speed>0.1</speed>
<temp>0.00</temp>
<bpm>0</bpm>
<rpm>0.00</rpm>
</extensions>
</trkpt>
<trkpt lat="63.701969147" lon="-19.645437241">
<ele>138.281250</ele>
<time>2012-07-26T16:44:29Z</time>
<speed>0.070000</speed>
<extensions>
<speed>0.1</speed>
<temp>0.00</temp>
<bpm>0</bpm>
<rpm>0.00</rpm>
</extensions>
</trkpt>
<trkpt lat="63.701957703" lon="-19.645402908">
<ele>137.660156</ele>
<time>2012-07-26T16:44:34Z</time>
<speed>0.290000</speed>
<extensions>
<speed>0.3</speed>
<temp>0.00</temp>
<bpm>0</bpm>
<rpm>0.00</rpm>
</extensions>
</trkpt>
<trkpt lat="63.701942444" lon="-19.645387650">
<ele>136.292969</ele>
<time>2012-07-26T16:44:39Z</time>
<speed>0.070000</speed>
<extensions>
<speed>0.1</speed>
<temp>0.00</temp>
<bpm>0</bpm>
<rpm>0.00</rpm>
</extensions>
</trkpt>
<trkpt lat="63.701934814" lon="-19.645383835">
<ele>136.042969</ele>
<time>2012-07-26T16:44:44Z</time>
<speed>0.160000</speed>
<extensions>
<speed>0.2</speed>
<temp>0.00</temp>
<bpm>0</bpm>
<rpm>0.00</rpm>
</extensions>
</trkpt>
<trkpt lat="63.701927185" lon="-19.645378113">
<ele>135.785156</ele>
<time>2012-07-26T16:44:49Z</time>
<speed>0.170000</speed>
<extensions>
<speed>0.2</speed>
<temp>0.00</temp>
<bpm>0</bpm>
<rpm>0.00</rpm>
</extensions>
</trkpt>
<trkpt lat="63.701919556" lon="-19.645368576">
<ele>135.523438</ele>
<time>2012-07-26T16:44:54Z</time>
<speed>0.240000</speed>
<extensions>
<speed>0.2</speed>
<temp>0.00</temp>
<bpm>0</bpm>
<rpm>0.00</rpm>
</extensions>
</trkpt>
<trkpt lat="63.701904297" lon="-19.645341873">
<ele>135.261719</ele>
<time>2012-07-26T16:44:59Z</time>
<speed>0.370000</speed>
<extensions>
<speed>0.4</speed>
<temp>0.00</temp>
<bpm>0</bpm>
<rpm>0.00</rpm>
</extensions>
</trkpt>
<trkpt lat="63.701881409" lon="-19.645292282">
<ele>134.984375</ele>
<time>2012-07-26T16:45:04Z</time>
<speed>0.440000</speed>
<extensions>
<speed>0.4</speed>
<temp>0.00</temp>
<bpm>0</bpm>
<rpm>0.00</rpm>
</extensions>
</trkpt>
<trkpt lat="63.701862335" lon="-19.645259857">
<ele>134.769531</ele>
<time>2012-07-26T16:45:09Z</time>
<speed>0.430000</speed>
<extensions>
<speed>0.4</speed>
<temp>0.00</temp>
<bpm>0</bpm>
<rpm>0.00</rpm>
</extensions>
</trkpt>
<trkpt lat="63.701847076" lon="-19.645221710">
<ele>134.589844</ele>
<time>2012-07-26T16:45:14Z</time>
<speed>0.420000</speed>
<extensions>
<speed>0.4</speed>
<temp>0.00</temp>
<bpm>0</bpm>
<rpm>0.00</rpm>
</extensions>
</trkpt>
<trkpt lat="63.701839447" lon="-19.645200729">
<ele>134.500000</ele>
<time>2012-07-26T16:45:19Z</time>
<speed>0.360000</speed>
<extensions>
<speed>0.4</speed>
<temp>0.00</temp>
<bpm>0</bpm>
<rpm>0.00</rpm>
</extensions>
</trkpt>
<trkpt lat="63.701835632" lon="-19.645189285">
<ele>134.425781</ele>
<time>2012-07-26T16:45:24Z</time>
<speed>0.280000</speed>
<extensions>
<speed>0.3</speed>
<temp>0.00</temp>
<bpm>0</bpm>
<rpm>0.00</rpm>
</extensions>
</trkpt>
<trkpt lat="63.701820374" lon="-19.645162582">
<ele>134.285156</ele>
<time>2012-07-26T16:45:29Z</time>
<speed>0.260000</speed>
<extensions>
<speed>0.3</speed>
<temp>0.00</temp>
<bpm>0</bpm>
<rpm>0.00</rpm>
</extensions>
</trkpt>
<trkpt lat="63.701808929" lon="-19.645153046">
<ele>134.050781</ele>
<time>2012-07-26T16:45:34Z</time>
<speed>0.230000</speed>
<extensions>
<speed>0.2</speed>
<temp>0.00</temp>
<bpm>0</bpm>
<rpm>0.00</rpm>
</extensions>
</trkpt>
<trkpt lat="63.701797485" lon="-19.645149231">
<ele>133.820313</ele>
<time>2012-07-26T16:45:39Z</time>
<speed>0.200000</speed>
<extensions>
<speed>0.2</speed>
<temp>0.00</temp>
<bpm>0</bpm>
<rpm>0.00</rpm>
</extensions>
</trkpt>
<trkpt lat="63.701793671" lon="-19.645153046">
<ele>133.593750</ele>
<time>2012-07-26T16:45:44Z</time>
<speed>0.080000</speed>
<extensions>
<speed>0.1</speed>
<temp>0.00</temp>
<bpm>0</bpm>
<rpm>0.00</rpm>
</extensions>
</trkpt>
<trkpt lat="63.701789856" lon="-19.645160675">
<ele>133.367188</ele>
<time>2012-07-26T16:45:49Z</time>
<speed>0.070000</speed>
<extensions>
<speed>0.1</speed>
<temp>0.00</temp>
<bpm>0</bpm>
<rpm>0.00</rpm>
</extensions>
</trkpt>
<trkpt lat="63.701789856" lon="-19.645174026">
<ele>133.148438</ele>
<time>2012-07-26T16:45:54Z</time>
<speed>0.180000</speed>
<extensions>
<speed>0.2</speed>
<temp>0.00</temp>
<bpm>0</bpm>
<rpm>0.00</rpm>
</extensions>
</trkpt>
<trkpt lat="63.701793671" lon="-19.645195007">
<ele>132.933594</ele>
<time>2012-07-26T16:45:59Z</time>
<speed>0.230000</speed>
<extensions>
<speed>0.2</speed>
<temp>0.00</temp>
<bpm>0</bpm>
<rpm>0.00</rpm>
</extensions>
</trkpt>
<trkpt lat="63.701839447" lon="-19.645257950">
<ele>132.988281</ele>
<time>2012-07-26T16:46:04Z</time>
<speed>0.440000</speed>
<extensions>
<speed>0.4</speed>
<temp>0.00</temp>
<bpm>0</bpm>
<rpm>0.00</rpm>
</extensions>
</trkpt>
<trkpt lat="63.701862335" lon="-19.645303726">
<ele>133.281250</ele>
<time>2012-07-26T16:46:09Z</time>
<speed>0.420000</speed>
<extensions>
<speed>0.4</speed>
<temp>0.00</temp>
<bpm>0</bpm>
<rpm>0.00</rpm>
</extensions>
</trkpt>
<trkpt lat="63.701862335" lon="-19.645298004">
<ele>133.472656</ele>
<time>2012-07-26T16:46:14Z</time>
<speed>0.330000</speed>
<extensions>
<speed>0.3</speed>
<temp>0.00</temp>
<bpm>0</bpm>
<rpm>0.00</rpm>
</extensions>
</trkpt>
<trkpt lat="63.701866150" lon="-19.645284653">
<ele>133.507813</ele>
<time>2012-07-26T16:46:19Z</time>
<speed>0.310000</speed>
<extensions>
<speed>0.3</speed>
<temp>0.00</temp>
<bpm>0</bpm>
<rpm>0.00</rpm>
</extensions>
</trkpt>
<trkpt lat="63.701896667" lon="-19.645313263">
<ele>133.773438</ele>
<time>2012-07-26T16:46:24Z</time>
<speed>0.330000</speed>
<extensions>
<speed>0.3</speed>
<temp>0.00</temp>
<bpm>0</bpm>
<rpm>0.00</rpm>
</extensions>
</trkpt>
<trkpt lat="63.701915741" lon="-19.645326614">
<ele>134.230469</ele>
<time>2012-07-26T16:46:29Z</time>
<speed>0.330000</speed>
<extensions>
<speed>0.3</speed>
<temp>0.00</temp>
<bpm>0</bpm>
<rpm>0.00</rpm>
</extensions>
</trkpt>
<trkpt lat="63.701931000" lon="-19.645332336">
<ele>134.578125</ele>
<time>2012-07-26T16:46:34Z</time>
<speed>0.270000</speed>
<extensions>
<speed>0.3</speed>
<temp>0.00</temp>
<bpm>0</bpm>
<rpm>0.00</rpm>
</extensions>
</trkpt>
<trkpt lat="63.701942444" lon="-19.645324707">
<ele>134.824219</ele>
<time>2012-07-26T16:46:39Z</time>
<speed>0.260000</speed>
<extensions>
<speed>0.3</speed>
<temp>0.00</temp>
<bpm>0</bpm>
<rpm>0.00</rpm>
</extensions>
</trkpt>
<trkpt lat="63.701950073" lon="-19.645320892">
<ele>135.132813</ele>
<time>2012-07-26T16:46:44Z</time>
<speed>0.310000</speed>
<extensions>
<speed>0.3</speed>
<temp>0.00</temp>
<bpm>0</bpm>
<rpm>0.00</rpm>
</extensions>
</trkpt>
<trkpt lat="63.701953888" lon="-19.645303726">
<ele>135.417969</ele>
<time>2012-07-26T16:46:49Z</time>
<speed>0.230000</speed>
<extensions>
<speed>0.2</speed>
<temp>0.00</temp>
<bpm>0</bpm>
<rpm>0.00</rpm>
</extensions>
</trkpt>
<trkpt lat="63.701961517" lon="-19.645311356">
<ele>135.332031</ele>
<time>2012-07-26T16:46:54Z</time>
<speed>0.090000</speed>
<extensions>
<speed>0.1</speed>
<temp>0.00</temp>
<bpm>0</bpm>
<rpm>0.00</rpm>
</extensions>
</trkpt>
<trkpt lat="63.701961517" lon="-19.645315170">
<ele>135.265625</ele>
<time>2012-07-26T16:46:59Z</time>
<speed>0.100000</speed>
<extensions>
<speed>0.1</speed>
<temp>0.00</temp>
<bpm>0</bpm>
<rpm>0.00</rpm>
</extensions>
</trkpt>
<trkpt lat="63.701953888" lon="-19.645315170">
<ele>135.242188</ele>
<time>2012-07-26T16:47:04Z</time>
<speed>0.170000</speed>
<extensions>
<speed>0.2</speed>
<temp>0.00</temp>
<bpm>0</bpm>
<rpm>0.00</rpm>
</extensions>
</trkpt>
<trkpt lat="63.701946259" lon="-19.645315170">
<ele>135.257813</ele>
<time>2012-07-26T16:47:09Z</time>
<speed>0.250000</speed>
<extensions>
<speed>0.2</speed>
<temp>0.00</temp>
<bpm>0</bpm>
<rpm>0.00</rpm>
</extensions>
</trkpt>
<trkpt lat="63.701931000" lon="-19.645303726">
<ele>135.558594</ele>
<time>2012-07-26T16:47:14Z</time>
<speed>0.310000</speed>
<extensions>
<speed>0.3</speed>
<temp>0.00</temp>
<bpm>0</bpm>
<rpm>0.00</rpm>
</extensions>
</trkpt>
<trkpt lat="63.701908112" lon="-19.645286560">
<ele>136.371094</ele>
<time>2012-07-26T16:47:19Z</time>
<speed>0.290000</speed>
<extensions>
<speed>0.3</speed>
<temp>0.00</temp>
<bpm>0</bpm>
<rpm>0.00</rpm>
</extensions>
</trkpt>
<trkpt lat="63.701908112" lon="-19.645259857">
<ele>136.921875</ele>
<time>2012-07-26T16:47:24Z</time>
<speed>0.240000</speed>
<extensions>
<speed>0.2</speed>
<temp>0.00</temp>
<bpm>0</bpm>
<rpm>0.00</rpm>
</extensions>
</trkpt>
<trkpt lat="63.701892853" lon="-19.645221710">
<ele>137.281250</ele>
<time>2012-07-26T16:47:29Z</time>
<speed>0.270000</speed>
<extensions>
<speed>0.3</speed>
<temp>0.00</temp>
<bpm>0</bpm>
<rpm>0.00</rpm>
</extensions>
</trkpt>
<trkpt lat="63.701892853" lon="-19.645193100">
<ele>137.679688</ele>
<time>2012-07-26T16:47:34Z</time>
<speed>0.170000</speed>
<extensions>
<speed>0.2</speed>
<temp>0.00</temp>
<bpm>0</bpm>
<rpm>0.00</rpm>
</extensions>
</trkpt>
<trkpt lat="63.701885223" lon="-19.645189285">
<ele>137.878906</ele>
<time>2012-07-26T16:47:39Z</time>
<speed>0.170000</speed>
<extensions>
<speed>0.2</speed>
<temp>0.00</temp>
<bpm>0</bpm>
<rpm>0.00</rpm>
</extensions>
</trkpt>
<trkpt lat="63.701877594" lon="-19.645185471">
<ele>138.125000</ele>
<time>2012-07-26T16:47:44Z</time>
<speed>0.100000</speed>
<extensions>
<speed>0.1</speed>
<temp>0.00</temp>
<bpm>0</bpm>
<rpm>0.00</rpm>
</extensions>
</trkpt>
<trkpt lat="63.701873779" lon="-19.645185471">
<ele>138.429688</ele>
<time>2012-07-26T16:47:49Z</time>
<speed>0.060000</speed>
<extensions>
<speed>0.1</speed>
<temp>0.00</temp>
<bpm>0</bpm>
<rpm>0.00</rpm>
</extensions>
</trkpt>
<trkpt lat="63.701873779" lon="-19.645191193">
<ele>138.789063</ele>
<time>2012-07-26T16:47:54Z</time>
<speed>0.070000</speed>
<extensions>
<speed>0.1</speed>
<temp>0.00</temp>
<bpm>0</bpm>
<rpm>0.00</rpm>
</extensions>
</trkpt>
<trkpt lat="63.701869965" lon="-19.645198822">
<ele>139.199219</ele>
<time>2012-07-26T16:47:59Z</time>
<speed>0.050000</speed>
<extensions>
<speed>0.1</speed>
<temp>0.00</temp>
<bpm>0</bpm>
<rpm>0.00</rpm>
</extensions>
</trkpt>
<trkpt lat="63.701869965" lon="-19.645198822">
<ele>139.628906</ele>
<time>2012-07-26T16:48:04Z</time>
<speed>0.020000</speed>
<extensions>
<speed>0.0</speed>
<temp>0.00</temp>
<bpm>0</bpm>
<rpm>0.00</rpm>
</extensions>
</trkpt>
<trkpt lat="63.701869965" lon="-19.645200729">
<ele>140.113281</ele>
<time>2012-07-26T16:48:09Z</time>
<speed>0.020000</speed>
<extensions>
<speed>0.0</speed>
<temp>0.00</temp>
<bpm>0</bpm>
<rpm>0.00</rpm>
</extensions>
</trkpt>
<trkpt lat="63.701869965" lon="-19.645198822">
<ele>140.644531</ele>
<time>2012-07-26T16:48:14Z</time>
<speed>0.010000</speed>
<extensions>
<speed>0.0</speed>
<temp>0.00</temp>
<bpm>0</bpm>
<rpm>0.00</rpm>
</extensions>
</trkpt>
<trkpt lat="63.701869965" lon="-19.645200729">
<ele>141.265625</ele>
<time>2012-07-26T16:48:19Z</time>
<speed>0.050000</speed>
<extensions>
<speed>0.1</speed>
<temp>0.00</temp>
<bpm>0</bpm>
<rpm>0.00</rpm>
</extensions>
</trkpt>
<trkpt lat="63.701869965" lon="-19.645204544">
<ele>141.953125</ele>
<time>2012-07-26T16:48:24Z</time>
<speed>0.180000</speed>
<extensions>
<speed>0.2</speed>
<temp>0.00</temp>
<bpm>0</bpm>
<rpm>0.00</rpm>
</extensions>
</trkpt>
<trkpt lat="63.701858521" lon="-19.645208359">
<ele>142.660156</ele>
<time>2012-07-26T16:48:29Z</time>
<speed>0.250000</speed>
<extensions>
<speed>0.2</speed>
<temp>0.00</temp>
<bpm>0</bpm>
<rpm>0.00</rpm>
</extensions>
</trkpt>
<trkpt lat="63.701843262" lon="-19.645166397">
<ele>145.636719</ele>
<time>2012-07-26T16:48:34Z</time>
<speed>0.320000</speed>
<extensions>
<speed>0.3</speed>
<temp>0.00</temp>
<bpm>0</bpm>
<rpm>0.00</rpm>
</extensions>
</trkpt>
<trkpt lat="63.701828003" lon="-19.645124435">
<ele>149.582031</ele>
<time>2012-07-26T16:48:39Z</time>
<speed>0.280000</speed>
<extensions>
<speed>0.3</speed>
<temp>0.00</temp>
<bpm>0</bpm>
<rpm>0.00</rpm>
</extensions>
</trkpt>
<trkpt lat="63.701824188" lon="-19.645099640">
<ele>151.851563</ele>
<time>2012-07-26T16:48:44Z</time>
<speed>0.200000</speed>
<extensions>
<speed>0.2</speed>
<temp>0.00</temp>
<bpm>0</bpm>
<rpm>0.00</rpm>
</extensions>
</trkpt>
<trkpt lat="63.701816559" lon="-19.645097733">
<ele>152.855469</ele>
<time>2012-07-26T16:48:49Z</time>
<speed>0.100000</speed>
<extensions>
<speed>0.1</speed>
<temp>0.00</temp>
<bpm>0</bpm>
<rpm>0.00</rpm>
</extensions>
</trkpt>
<trkpt lat="63.701812744" lon="-19.645095825">
<ele>153.839844</ele>
<time>2012-07-26T16:48:54Z</time>
<speed>0.090000</speed>
<extensions>
<speed>0.1</speed>
<temp>0.00</temp>
<bpm>0</bpm>
<rpm>0.00</rpm>
</extensions>
</trkpt>
<trkpt lat="63.701808929" lon="-19.645088196">
<ele>154.753906</ele>
<time>2012-07-26T16:48:59Z</time>
<speed>0.210000</speed>
<extensions>
<speed>0.2</speed>
<temp>0.00</temp>
<bpm>0</bpm>
<rpm>0.00</rpm>
</extensions>
</trkpt>
<trkpt lat="63.701805115" lon="-19.645069122">
<ele>155.613281</ele>
<time>2012-07-26T16:49:04Z</time>
<speed>0.210000</speed>
<extensions>
<speed>0.2</speed>
<temp>0.00</temp>
<bpm>0</bpm>
<rpm>0.00</rpm>
</extensions>
</trkpt>
<trkpt lat="63.701805115" lon="-19.645048141">
<ele>156.417969</ele>
<time>2012-07-26T16:49:09Z</time>
<speed>0.170000</speed>
<extensions>
<speed>0.2</speed>
<temp>0.00</temp>
<bpm>0</bpm>
<rpm>0.00</rpm>
</extensions>
</trkpt>
<trkpt lat="63.701812744" lon="-19.645017624">
<ele>157.511719</ele>
<time>2012-07-26T16:49:14Z</time>
<speed>0.290000</speed>
<extensions>
<speed>0.3</speed>
<temp>0.00</temp>
<bpm>0</bpm>
<rpm>0.00</rpm>
</extensions>
</trkpt>
<trkpt lat="63.701824188" lon="-19.644985199">
<ele>158.351563</ele>
<time>2012-07-26T16:49:19Z</time>
<speed>0.290000</speed>
<extensions>
<speed>0.3</speed>
<temp>0.00</temp>
<bpm>0</bpm>
<rpm>0.00</rpm>
</extensions>
</trkpt>
<trkpt lat="63.701839447" lon="-19.644943237">
<ele>159.019531</ele>
<time>2012-07-26T16:49:24Z</time>
<speed>0.260000</speed>
<extensions>
<speed>0.3</speed>
<temp>0.00</temp>
<bpm>0</bpm>
<rpm>0.00</rpm>
</extensions>
</trkpt>
<trkpt lat="63.701843262" lon="-19.644926071">
<ele>159.984375</ele>
<time>2012-07-26T16:49:29Z</time>
<speed>0.210000</speed>
<extensions>
<speed>0.2</speed>
<temp>0.00</temp>
<bpm>0</bpm>
<rpm>0.00</rpm>
</extensions>
</trkpt>
<trkpt lat="63.701850891" lon="-19.644908905">
<ele>160.800781</ele>
<time>2012-07-26T16:49:34Z</time>
<speed>0.230000</speed>
<extensions>
<speed>0.2</speed>
<temp>0.00</temp>
<bpm>0</bpm>
<rpm>0.00</rpm>
</extensions>
</trkpt>
<trkpt lat="63.701858521" lon="-19.644889832">
<ele>161.566406</ele>
<time>2012-07-26T16:49:39Z</time>
<speed>0.260000</speed>
<extensions>
<speed>0.3</speed>
<temp>0.00</temp>
<bpm>0</bpm>
<rpm>0.00</rpm>
</extensions>
</trkpt>
<trkpt lat="63.701866150" lon="-19.644868851">
<ele>162.343750</ele>
<time>2012-07-26T16:49:44Z</time>
<speed>0.210000</speed>
<extensions>
<speed>0.2</speed>
<temp>0.00</temp>
<bpm>0</bpm>
<rpm>0.00</rpm>
</extensions>
</trkpt>
<trkpt lat="63.701869965" lon="-19.644857407">
<ele>163.085938</ele>
<time>2012-07-26T16:49:49Z</time>
<speed>0.090000</speed>
<extensions>
<speed>0.1</speed>
<temp>0.00</temp>
<bpm>0</bpm>
<rpm>0.00</rpm>
</extensions>
</trkpt>
<trkpt lat="63.701869965" lon="-19.644851685">
<ele>163.792969</ele>
<time>2012-07-26T16:49:54Z</time>
<speed>0.070000</speed>
<extensions>
<speed>0.1</speed>
<temp>0.00</temp>
<bpm>0</bpm>
<rpm>0.00</rpm>
</extensions>
</trkpt>
<trkpt lat="63.701869965" lon="-19.644847870">
<ele>164.429688</ele>
<time>2012-07-26T16:49:59Z</time>
<speed>0.100000</speed>
<extensions>
<speed>0.1</speed>
<temp>0.00</temp>
<bpm>0</bpm>
<rpm>0.00</rpm>
</extensions>
</trkpt>
<trkpt lat="63.701862335" lon="-19.644845963">
<ele>165.035156</ele>
<time>2012-07-26T16:50:04Z</time>
<speed>0.030000</speed>
<extensions>
<speed>0.0</speed>
<temp>0.00</temp>
<bpm>0</bpm>
<rpm>0.00</rpm>
</extensions>
</trkpt>
<trkpt lat="63.701866150" lon="-19.644849777">
<ele>165.546875</ele>
<time>2012-07-26T16:50:09Z</time>
<speed>0.090000</speed>
<extensions>
<speed>0.1</speed>
<temp>0.00</temp>
<bpm>0</bpm>
<rpm>0.00</rpm>
</extensions>
</trkpt>
<trkpt lat="63.701873779" lon="-19.644851685">
<ele>165.902344</ele>
<time>2012-07-26T16:50:14Z</time>
<speed>0.180000</speed>
<extensions>
<speed>0.2</speed>
<temp>0.00</temp>
<bpm>0</bpm>
<rpm>0.00</rpm>
</extensions>
</trkpt>
<trkpt lat="63.701881409" lon="-19.644851685">
<ele>166.167969</ele>
<time>2012-07-26T16:50:19Z</time>
<speed>0.110000</speed>
<extensions>
<speed>0.1</speed>
<temp>0.00</temp>
<bpm>0</bpm>
<rpm>0.00</rpm>
</extensions>
</trkpt>
<trkpt lat="63.701885223" lon="-19.644855499">
<ele>166.300781</ele>
<time>2012-07-26T16:50:24Z</time>
<speed>0.050000</speed>
<extensions>
<speed>0.1</speed>
<temp>0.00</temp>
<bpm>0</bpm>
<rpm>0.00</rpm>
</extensions>
</trkpt>
<trkpt lat="63.701885223" lon="-19.644863129">
<ele>166.308594</ele>
<time>2012-07-26T16:50:29Z</time>
<speed>0.060000</speed>
<extensions>
<speed>0.1</speed>
<temp>0.00</temp>
<bpm>0</bpm>
<rpm>0.00</rpm>
</extensions>
</trkpt>
<trkpt lat="63.701885223" lon="-19.644872665">
<ele>166.226563</ele>
<time>2012-07-26T16:50:34Z</time>
<speed>0.050000</speed>
<extensions>
<speed>0.1</speed>
<temp>0.00</temp>
<bpm>0</bpm>
<rpm>0.00</rpm>
</extensions>
</trkpt>
<trkpt lat="63.701885223" lon="-19.644874573">
<ele>166.070313</ele>
<time>2012-07-26T16:50:39Z</time>
<speed>0.050000</speed>
<extensions>
<speed>0.1</speed>
<temp>0.00</temp>
<bpm>0</bpm>
<rpm>0.00</rpm>
</extensions>
</trkpt>
<trkpt lat="63.701877594" lon="-19.644880295">
<ele>165.933594</ele>
<time>2012-07-26T16:50:44Z</time>
<speed>0.070000</speed>
<extensions>
<speed>0.1</speed>
<temp>0.00</temp>
<bpm>0</bpm>
<rpm>0.00</rpm>
</extensions>
</trkpt>
<trkpt lat="63.701881409" lon="-19.644886017">
<ele>165.800781</ele>
<time>2012-07-26T16:50:49Z</time>
<speed>0.180000</speed>
<extensions>
<speed>0.2</speed>
<temp>0.00</temp>
<bpm>0</bpm>
<rpm>0.00</rpm>
</extensions>
</trkpt>
<trkpt lat="63.701885223" lon="-19.644895554">
<ele>165.691406</ele>
<time>2012-07-26T16:50:54Z</time>
<speed>0.070000</speed>
<extensions>
<speed>0.1</speed>
<temp>0.00</temp>
<bpm>0</bpm>
<rpm>0.00</rpm>
</extensions>
</trkpt>
<trkpt lat="63.701889038" lon="-19.644895554">
<ele>165.648438</ele>
<time>2012-07-26T16:50:59Z</time>
<speed>0.050000</speed>
<extensions>
<speed>0.1</speed>
<temp>0.00</temp>
<bpm>0</bpm>
<rpm>0.00</rpm>
</extensions>
</trkpt>
<trkpt lat="63.701889038" lon="-19.644893646">
<ele>165.640625</ele>
<time>2012-07-26T16:51:04Z</time>
<speed>0.010000</speed>
<extensions>
<speed>0.0</speed>
<temp>0.00</temp>
<bpm>0</bpm>
<rpm>0.00</rpm>
</extensions>
</trkpt>
<trkpt lat="63.701889038" lon="-19.644891739">
<ele>165.636719</ele>
<time>2012-07-26T16:51:09Z</time>
<speed>0.100000</speed>
<extensions>
<speed>0.1</speed>
<temp>0.00</temp>
<bpm>0</bpm>
<rpm>0.00</rpm>
</extensions>
</trkpt>
<trkpt lat="63.701885223" lon="-19.644882202">
<ele>165.617188</ele>
<time>2012-07-26T16:51:14Z</time>
<speed>0.220000</speed>
<extensions>
<speed>0.2</speed>
<temp>0.00</temp>
<bpm>0</bpm>
<rpm>0.00</rpm>
</extensions>
</trkpt>
<trkpt lat="63.701889038" lon="-19.644851685">
<ele>165.500000</ele>
<time>2012-07-26T16:51:19Z</time>
<speed>0.370000</speed>
<extensions>
<speed>0.4</speed>
<temp>0.00</temp>
<bpm>0</bpm>
<rpm>0.00</rpm>
</extensions>
</trkpt>
<trkpt lat="63.701889038" lon="-19.644817352">
<ele>165.332031</ele>
<time>2012-07-26T16:51:24Z</time>
<speed>0.270000</speed>
<extensions>
<speed>0.3</speed>
<temp>0.00</temp>
<bpm>0</bpm>
<rpm>0.00</rpm>
</extensions>
</trkpt>
<trkpt lat="63.701847076" lon="-19.644792557">
<ele>164.375000</ele>
<time>2012-07-26T16:51:29Z</time>
<speed>0.160000</speed>
<extensions>
<speed>0.2</speed>
<temp>0.00</temp>
<bpm>0</bpm>
<rpm>0.00</rpm>
</extensions>
</trkpt>
<trkpt lat="63.701828003" lon="-19.644781113">
<ele>164.050781</ele>
<time>2012-07-26T16:51:34Z</time>
<speed>0.010000</speed>
<extensions>
<speed>0.0</speed>
<temp>0.00</temp>
<bpm>0</bpm>
<rpm>0.00</rpm>
</extensions>
</trkpt>
<trkpt lat="63.701828003" lon="-19.644781113">
<ele>164.031250</ele>
<time>2012-07-26T16:51:39Z</time>
<speed>0.060000</speed>
<extensions>
<speed>0.1</speed>
<temp>0.00</temp>
<bpm>0</bpm>
<rpm>0.00</rpm>
</extensions>
</trkpt>
<trkpt lat="63.701831818" lon="-19.644779205">
<ele>163.984375</ele>
<time>2012-07-26T16:51:44Z</time>
<speed>0.120000</speed>
<extensions>
<speed>0.1</speed>
<temp>0.00</temp>
<bpm>0</bpm>
<rpm>0.00</rpm>
</extensions>
</trkpt>
<trkpt lat="63.701835632" lon="-19.644773483">
<ele>163.929688</ele>
<time>2012-07-26T16:51:49Z</time>
<speed>0.090000</speed>
<extensions>
<speed>0.1</speed>
<temp>0.00</temp>
<bpm>0</bpm>
<rpm>0.00</rpm>
</extensions>
</trkpt>
<trkpt lat="63.701839447" lon="-19.644769669">
<ele>163.882813</ele>
<time>2012-07-26T16:51:54Z</time>
<speed>0.090000</speed>
<extensions>
<speed>0.1</speed>
<temp>0.00</temp>
<bpm>0</bpm>
<rpm>0.00</rpm>
</extensions>
</trkpt>
<trkpt lat="63.701835632" lon="-19.644758224">
<ele>163.859375</ele>
<time>2012-07-26T16:51:59Z</time>
<speed>0.100000</speed>
<extensions>
<speed>0.1</speed>
<temp>0.00</temp>
<bpm>0</bpm>
<rpm>0.00</rpm>
</extensions>
</trkpt>
<trkpt lat="63.701831818" lon="-19.644769669">
<ele>163.867188</ele>
<time>2012-07-26T16:52:04Z</time>
<speed>0.220000</speed>
<extensions>
<speed>0.2</speed>
<temp>0.00</temp>
<bpm>0</bpm>
<rpm>0.00</rpm>
</extensions>
</trkpt>
<trkpt lat="63.701824188" lon="-19.644771576">
<ele>163.976563</ele>
<time>2012-07-26T16:52:09Z</time>
<speed>0.150000</speed>
<extensions>
<speed>0.2</speed>
<temp>0.00</temp>
<bpm>0</bpm>
<rpm>0.00</rpm>
</extensions>
</trkpt>
<trkpt lat="63.701824188" lon="-19.644779205">
<ele>164.191406</ele>
<time>2012-07-26T16:52:14Z</time>
<extensions>
<speed>0.0</speed>
<temp>0.00</temp>
<bpm>0</bpm>
<rpm>0.00</rpm>
</extensions>
</trkpt>
<trkpt lat="63.701824188" lon="-19.644777298">
<ele>164.406250</ele>
<time>2012-07-26T16:52:19Z</time>
<speed>0.050000</speed>
<extensions>
<speed>0.1</speed>
<temp>0.00</temp>
<bpm>0</bpm>
<rpm>0.00</rpm>
</extensions>
</trkpt>
<trkpt lat="63.701820374" lon="-19.644775391">
<ele>164.625000</ele>
<time>2012-07-26T16:52:24Z</time>
<speed>0.110000</speed>
<extensions>
<speed>0.1</speed>
<temp>0.00</temp>
<bpm>0</bpm>
<rpm>0.00</rpm>
</extensions>
</trkpt>
<trkpt lat="63.701812744" lon="-19.644763947">
<ele>164.839844</ele>
<time>2012-07-26T16:52:29Z</time>
<speed>0.270000</speed>
<extensions>
<speed>0.3</speed>
<temp>0.00</temp>
<bpm>0</bpm>
<rpm>0.00</rpm>
</extensions>
</trkpt>
<trkpt lat="63.701805115" lon="-19.644737244">
<ele>165.070313</ele>
<time>2012-07-26T16:52:34Z</time>
<speed>0.370000</speed>
<extensions>
<speed>0.4</speed>
<temp>0.00</temp>
<bpm>0</bpm>
<rpm>0.00</rpm>
</extensions>
</trkpt>
<trkpt lat="63.701782227" lon="-19.644742966">
<ele>165.351563</ele>
<time>2012-07-26T16:52:39Z</time>
<speed>0.390000</speed>
<extensions>
<speed>0.4</speed>
<temp>0.00</temp>
<bpm>0</bpm>
<rpm>0.00</rpm>
</extensions>
</trkpt>
<trkpt lat="63.701763153" lon="-19.644702911">
<ele>165.558594</ele>
<time>2012-07-26T16:52:44Z</time>
<speed>0.460000</speed>
<extensions>
<speed>0.5</speed>
<temp>0.00</temp>
<bpm>0</bpm>
<rpm>0.00</rpm>
</extensions>
</trkpt>
<trkpt lat="63.701732635" lon="-19.644735336">
<ele>165.351563</ele>
<time>2012-07-26T16:52:49Z</time>
<speed>0.420000</speed>
<extensions>
<speed>0.4</speed>
<temp>0.00</temp>
<bpm>0</bpm>
<rpm>0.00</rpm>
</extensions>
</trkpt>
<trkpt lat="63.701774597" lon="-19.644826889">
<ele>165.167969</ele>
<time>2012-07-26T16:52:54Z</time>
<speed>0.310000</speed>
<extensions>
<speed>0.3</speed>
<temp>0.00</temp>
<bpm>0</bpm>
<rpm>0.00</rpm>
</extensions>
</trkpt>
<trkpt lat="63.701812744" lon="-19.644821167">
<ele>162.726563</ele>
<time>2012-07-26T16:52:59Z</time>
<speed>0.020000</speed>
<extensions>
<speed>0.0</speed>
<temp>0.00</temp>
<bpm>0</bpm>
<rpm>0.00</rpm>
</extensions>
</trkpt>
<trkpt lat="63.701812744" lon="-19.644819260">
<ele>162.371094</ele>
<time>2012-07-26T16:53:04Z</time>
<speed>0.050000</speed>
<extensions>
<speed>0.1</speed>
<temp>0.00</temp>
<bpm>0</bpm>
<rpm>0.00</rpm>
</extensions>
</trkpt>
<trkpt lat="63.701816559" lon="-19.644823074">
<ele>162.007813</ele>
<time>2012-07-26T16:53:09Z</time>
<speed>0.230000</speed>
<extensions>
<speed>0.2</speed>
<temp>0.00</temp>
<bpm>0</bpm>
<rpm>0.00</rpm>
</extensions>
</trkpt>
<trkpt lat="63.701824188" lon="-19.644855499">
<ele>161.683594</ele>
<time>2012-07-26T16:53:14Z</time>
<speed>0.320000</speed>
<extensions>
<speed>0.3</speed>
<temp>0.00</temp>
<bpm>0</bpm>
<rpm>0.00</rpm>
</extensions>
</trkpt>
<trkpt lat="63.701835632" lon="-19.644884109">
<ele>160.890625</ele>
<time>2012-07-26T16:53:19Z</time>
<speed>0.220000</speed>
<extensions>
<speed>0.2</speed>
<temp>0.00</temp>
<bpm>0</bpm>
<rpm>0.00</rpm>
</extensions>
</trkpt>
<trkpt lat="63.701831818" lon="-19.644903183">
<ele>160.562500</ele>
<time>2012-07-26T16:53:24Z</time>
<speed>0.140000</speed>
<extensions>
<speed>0.1</speed>
<temp>0.00</temp>
<bpm>0</bpm>
<rpm>0.00</rpm>
</extensions>
</trkpt>
<trkpt lat="63.701824188" lon="-19.644914627">
<ele>160.238281</ele>
<time>2012-07-26T16:53:29Z</time>
<speed>0.190000</speed>
<extensions>
<speed>0.2</speed>
<temp>0.00</temp>
<bpm>0</bpm>
<rpm>0.00</rpm>
</extensions>
</trkpt>
<trkpt lat="63.701820374" lon="-19.644918442">
<ele>159.917969</ele>
<time>2012-07-26T16:53:34Z</time>
<speed>0.120000</speed>
<extensions>
<speed>0.1</speed>
<temp>0.00</temp>
<bpm>0</bpm>
<rpm>0.00</rpm>
</extensions>
</trkpt>
<trkpt lat="63.701812744" lon="-19.644912720">
<ele>159.589844</ele>
<time>2012-07-26T16:53:39Z</time>
<speed>0.270000</speed>
<extensions>
<speed>0.3</speed>
<temp>0.00</temp>
<bpm>0</bpm>
<rpm>0.00</rpm>
</extensions>
</trkpt>
<trkpt lat="63.701801300" lon="-19.644903183">
<ele>159.265625</ele>
<time>2012-07-26T16:53:44Z</time>
<speed>0.300000</speed>
<extensions>
<speed>0.3</speed>
<temp>0.00</temp>
<bpm>0</bpm>
<rpm>0.00</rpm>
</extensions>
</trkpt>
<trkpt lat="63.701812744" lon="-19.644929886">
<ele>158.472656</ele>
<time>2012-07-26T16:53:49Z</time>
<speed>0.270000</speed>
<extensions>
<speed>0.3</speed>
<temp>0.00</temp>
<bpm>0</bpm>
<rpm>0.00</rpm>
</extensions>
</trkpt>
<trkpt lat="63.701816559" lon="-19.644935608">
<ele>158.132813</ele>
<time>2012-07-26T16:53:54Z</time>
<speed>0.250000</speed>
<extensions>
<speed>0.2</speed>
<temp>0.00</temp>
<bpm>0</bpm>
<rpm>0.00</rpm>
</extensions>
</trkpt>
<trkpt lat="63.701808929" lon="-19.644943237">
<ele>157.828125</ele>
<time>2012-07-26T16:53:59Z</time>
<speed>0.300000</speed>
<extensions>
<speed>0.3</speed>
<temp>0.00</temp>
<bpm>0</bpm>
<rpm>0.00</rpm>
</extensions>
</trkpt>
<trkpt lat="63.701805115" lon="-19.644931793">
<ele>157.550781</ele>
<time>2012-07-26T16:54:04Z</time>
<speed>0.290000</speed>
<extensions>
<speed>0.3</speed>
<temp>0.00</temp>
<bpm>0</bpm>
<rpm>0.00</rpm>
</extensions>
</trkpt>
<trkpt lat="63.701793671" lon="-19.644929886">
<ele>157.332031</ele>
<time>2012-07-26T16:54:09Z</time>
<speed>0.370000</speed>
<extensions>
<speed>0.4</speed>
<temp>0.00</temp>
<bpm>0</bpm>
<rpm>0.00</rpm>
</extensions>
</trkpt>
<trkpt lat="63.701797485" lon="-19.644878387">
<ele>156.949219</ele>
<time>2012-07-26T16:54:14Z</time>
<speed>0.510000</speed>
<extensions>
<speed>0.5</speed>
<temp>0.00</temp>
<bpm>0</bpm>
<rpm>0.00</rpm>
</extensions>
</trkpt>
<trkpt lat="63.701782227" lon="-19.644863129">
<ele>156.867188</ele>
<time>2012-07-26T16:54:19Z</time>
<speed>0.480000</speed>
<extensions>
<speed>0.5</speed>
<temp>0.00</temp>
<bpm>0</bpm>
<rpm>0.00</rpm>
</extensions>
</trkpt>
<trkpt lat="63.701782227" lon="-19.644853592">
<ele>156.703125</ele>
<time>2012-07-26T16:54:24Z</time>
<speed>0.480000</speed>
<extensions>
<speed>0.5</speed>
<temp>0.00</temp>
<bpm>0</bpm>
<rpm>0.00</rpm>
</extensions>
</trkpt>
<trkpt lat="63.701782227" lon="-19.644859314">
<ele>156.542969</ele>
<time>2012-07-26T16:54:29Z</time>
<speed>0.440000</speed>
<extensions>
<speed>0.4</speed>
<temp>0.00</temp>
<bpm>0</bpm>
<rpm>0.00</rpm>
</extensions>
</trkpt>
<trkpt lat="63.701820374" lon="-19.644853592">
<ele>156.015625</ele>
<time>2012-07-26T16:54:34Z</time>
<speed>0.350000</speed>
<extensions>
<speed>0.3</speed>
<temp>0.00</temp>
<bpm>0</bpm>
<rpm>0.00</rpm>
</extensions>
</trkpt>
<trkpt lat="63.701835632" lon="-19.644866943">
<ele>155.839844</ele>
<time>2012-07-26T16:54:39Z</time>
<speed>0.320000</speed>
<extensions>
<speed>0.3</speed>
<temp>0.00</temp>
<bpm>0</bpm>
<rpm>0.00</rpm>
</extensions>
</trkpt>
<trkpt lat="63.701831818" lon="-19.644889832">
<ele>155.625000</ele>
<time>2012-07-26T16:54:44Z</time>
<speed>0.390000</speed>
<extensions>
<speed>0.4</speed>
<temp>0.00</temp>
<bpm>0</bpm>
<rpm>0.00</rpm>
</extensions>
</trkpt>
<trkpt lat="63.701839447" lon="-19.644895554">
<ele>155.703125</ele>
<time>2012-07-26T16:54:49Z</time>
<speed>0.390000</speed>
<extensions>
<speed>0.4</speed>
<temp>0.00</temp>
<bpm>0</bpm>
<rpm>0.00</rpm>
</extensions>
</trkpt>
<trkpt lat="63.701839447" lon="-19.644906998">
<ele>155.785156</ele>
<time>2012-07-26T16:54:54Z</time>
<speed>0.390000</speed>
<extensions>
<speed>0.4</speed>
<temp>0.00</temp>
<bpm>0</bpm>
<rpm>0.00</rpm>
</extensions>
</trkpt>
<trkpt lat="63.701858521" lon="-19.644924164">
<ele>155.441406</ele>
<time>2012-07-26T16:54:59Z</time>
<speed>0.130000</speed>
<extensions>
<speed>0.1</speed>
<temp>0.00</temp>
<bpm>0</bpm>
<rpm>0.00</rpm>
</extensions>
</trkpt>
<trkpt lat="63.701858521" lon="-19.644920349">
<ele>155.257813</ele>
<time>2012-07-26T16:55:04Z</time>
<speed>0.180000</speed>
<extensions>
<speed>0.2</speed>
<temp>0.00</temp>
<bpm>0</bpm>
<rpm>0.00</rpm>
</extensions>
</trkpt>
<trkpt lat="63.701854706" lon="-19.644916534">
<ele>155.199219</ele>
<time>2012-07-26T16:55:09Z</time>
<speed>0.130000</speed>
<extensions>
<speed>0.1</speed>
<temp>0.00</temp>
<bpm>0</bpm>
<rpm>0.00</rpm>
</extensions>
</trkpt>
<trkpt lat="63.701850891" lon="-19.644910812">
<ele>155.128906</ele>
<time>2012-07-26T16:55:14Z</time>
<speed>0.090000</speed>
<extensions>
<speed>0.1</speed>
<temp>0.00</temp>
<bpm>0</bpm>
<rpm>0.00</rpm>
</extensions>
</trkpt>
<trkpt lat="63.701850891" lon="-19.644901276">
<ele>155.058594</ele>
<time>2012-07-26T16:55:19Z</time>
<speed>0.090000</speed>
<extensions>
<speed>0.1</speed>
<temp>0.00</temp>
<bpm>0</bpm>
<rpm>0.00</rpm>
</extensions>
</trkpt>
<trkpt lat="63.701854706" lon="-19.644903183">
<ele>154.984375</ele>
<time>2012-07-26T16:55:24Z</time>
<speed>0.040000</speed>
<extensions>
<speed>0.0</speed>
<temp>0.00</temp>
<bpm>0</bpm>
<rpm>0.00</rpm>
</extensions>
</trkpt>
<trkpt lat="63.701812744" lon="-19.644893646">
<ele>155.003906</ele>
<time>2012-07-26T16:55:29Z</time>
<speed>0.840000</speed>
<extensions>
<speed>0.8</speed>
<temp>0.00</temp>
<bpm>0</bpm>
<rpm>0.00</rpm>
</extensions>
</trkpt>
<trkpt lat="63.701797485" lon="-19.644924164">
<ele>154.117188</ele>
<time>2012-07-26T16:55:34Z</time>
<speed>0.650000</speed>
<extensions>
<speed>0.6</speed>
<temp>0.00</temp>
<bpm>0</bpm>
<rpm>0.00</rpm>
</extensions>
</trkpt>
<trkpt lat="63.701747894" lon="-19.644918442">
<ele>153.261719</ele>
<time>2012-07-26T16:55:39Z</time>
<speed>1.000000</speed>
<extensions>
<speed>1.0</speed>
<temp>0.00</temp>
<bpm>0</bpm>
<rpm>0.00</rpm>
</extensions>
</trkpt>
<trkpt lat="63.701725006" lon="-19.644889832">
<ele>153.046875</ele>
<time>2012-07-26T16:55:44Z</time>
<speed>0.440000</speed>
<extensions>
<speed>0.4</speed>
<temp>0.00</temp>
<bpm>0</bpm>
<rpm>0.00</rpm>
</extensions>
</trkpt>
<trkpt lat="63.701755524" lon="-19.644817352">
<ele>153.519531</ele>
<time>2012-07-26T16:55:49Z</time>
<speed>0.410000</speed>
<extensions>
<speed>0.4</speed>
<temp>0.00</temp>
<bpm>0</bpm>
<rpm>0.00</rpm>
</extensions>
</trkpt>
<trkpt lat="63.701747894" lon="-19.644804001">
<ele>153.007813</ele>
<time>2012-07-26T16:55:54Z</time>
<speed>0.220000</speed>
<extensions>
<speed>0.2</speed>
<temp>0.00</temp>
<bpm>0</bpm>
<rpm>0.00</rpm>
</extensions>
</trkpt>
<trkpt lat="63.701740265" lon="-19.644792557">
<ele>152.617188</ele>
<time>2012-07-26T16:55:59Z</time>
<speed>0.200000</speed>
<extensions>
<speed>0.2</speed>
<temp>0.00</temp>
<bpm>0</bpm>
<rpm>0.00</rpm>
</extensions>
</trkpt>
<trkpt lat="63.701732635" lon="-19.644784927">
<ele>152.234375</ele>
<time>2012-07-26T16:56:04Z</time>
<speed>0.260000</speed>
<extensions>
<speed>0.3</speed>
<temp>0.00</temp>
<bpm>0</bpm>
<rpm>0.00</rpm>
</extensions>
</trkpt>
<trkpt lat="63.701713562" lon="-19.644754410">
<ele>152.121094</ele>
<time>2012-07-26T16:56:09Z</time>
<speed>0.660000</speed>
<extensions>
<speed>0.7</speed>
<temp>0.00</temp>
<bpm>0</bpm>
<rpm>0.00</rpm>
</extensions>
</trkpt>
<trkpt lat="63.701679230" lon="-19.644741058">
<ele>152.570313</ele>
<time>2012-07-26T16:56:14Z</time>
<speed>0.780000</speed>
<extensions>
<speed>0.8</speed>
<temp>0.00</temp>
<bpm>0</bpm>
<rpm>0.00</rpm>
</extensions>
</trkpt>
<trkpt lat="63.701660156" lon="-19.644781113">
<ele>152.609375</ele>
<time>2012-07-26T16:56:19Z</time>
<speed>0.600000</speed>
<extensions>
<speed>0.6</speed>
<temp>0.00</temp>
<bpm>0</bpm>
<rpm>0.00</rpm>
</extensions>
</trkpt>
<trkpt lat="63.701652527" lon="-19.644876480">
<ele>152.699219</ele>
<time>2012-07-26T16:56:24Z</time>
<speed>0.670000</speed>
<extensions>
<speed>0.7</speed>
<temp>0.00</temp>
<bpm>0</bpm>
<rpm>0.00</rpm>
</extensions>
</trkpt>
<trkpt lat="63.701644897" lon="-19.644891739">
<ele>152.687500</ele>
<time>2012-07-26T16:56:29Z</time>
<speed>0.420000</speed>
<extensions>
<speed>0.4</speed>
<temp>0.00</temp>
<bpm>0</bpm>
<rpm>0.00</rpm>
</extensions>
</trkpt>
<trkpt lat="63.701633453" lon="-19.644870758">
<ele>152.632813</ele>
<time>2012-07-26T16:56:34Z</time>
<speed>0.320000</speed>
<extensions>
<speed>0.3</speed>
<temp>0.00</temp>
<bpm>0</bpm>
<rpm>0.00</rpm>
</extensions>
</trkpt>
<trkpt lat="63.701618195" lon="-19.644819260">
<ele>152.621094</ele>
<time>2012-07-26T16:56:39Z</time>
<speed>0.260000</speed>
<extensions>
<speed>0.3</speed>
<temp>0.00</temp>
<bpm>0</bpm>
<rpm>0.00</rpm>
</extensions>
</trkpt>
<trkpt lat="63.701622009" lon="-19.644805908">
<ele>152.656250</ele>
<time>2012-07-26T16:56:44Z</time>
<speed>0.150000</speed>
<extensions>
<speed>0.2</speed>
<temp>0.00</temp>
<bpm>0</bpm>
<rpm>0.00</rpm>
</extensions>
</trkpt>
<trkpt lat="63.701614380" lon="-19.644804001">
<ele>152.695313</ele>
<time>2012-07-26T16:56:49Z</time>
<speed>0.140000</speed>
<extensions>
<speed>0.1</speed>
<temp>0.00</temp>
<bpm>0</bpm>
<rpm>0.00</rpm>
</extensions>
</trkpt>
<trkpt lat="63.701610565" lon="-19.644798279">
<ele>152.738281</ele>
<time>2012-07-26T16:56:54Z</time>
<speed>0.060000</speed>
<extensions>
<speed>0.1</speed>
<temp>0.00</temp>
<bpm>0</bpm>
<rpm>0.00</rpm>
</extensions>
</trkpt>
<trkpt lat="63.701614380" lon="-19.644796371">
<ele>152.777344</ele>
<time>2012-07-26T16:56:59Z</time>
<speed>0.140000</speed>
<extensions>
<speed>0.1</speed>
<temp>0.00</temp>
<bpm>0</bpm>
<rpm>0.00</rpm>
</extensions>
</trkpt>
<trkpt lat="63.701625824" lon="-19.644792557">
<ele>152.820313</ele>
<time>2012-07-26T16:57:04Z</time>
<speed>0.240000</speed>
<extensions>
<speed>0.2</speed>
<temp>0.00</temp>
<bpm>0</bpm>
<rpm>0.00</rpm>
</extensions>
</trkpt>
<trkpt lat="63.701644897" lon="-19.644771576">
<ele>152.863281</ele>
<time>2012-07-26T16:57:09Z</time>
<speed>0.330000</speed>
<extensions>
<speed>0.3</speed>
<temp>0.00</temp>
<bpm>0</bpm>
<rpm>0.00</rpm>
</extensions>
</trkpt>
<trkpt lat="63.701667786" lon="-19.644744873">
<ele>152.890625</ele>
<time>2012-07-26T16:57:14Z</time>
<speed>0.350000</speed>
<extensions>
<speed>0.3</speed>
<temp>0.00</temp>
<bpm>0</bpm>
<rpm>0.00</rpm>
</extensions>
</trkpt>
<trkpt lat="63.701663971" lon="-19.644750595">
<ele>152.925781</ele>
<time>2012-07-26T16:57:19Z</time>
<speed>0.290000</speed>
<extensions>
<speed>0.3</speed>
<temp>0.00</temp>
<bpm>0</bpm>
<rpm>0.00</rpm>
</extensions>
</trkpt>
<trkpt lat="63.701667786" lon="-19.644750595">
<ele>152.960938</ele>
<time>2012-07-26T16:57:24Z</time>
<speed>0.260000</speed>
<extensions>
<speed>0.3</speed>
<temp>0.00</temp>
<bpm>0</bpm>
<rpm>0.00</rpm>
</extensions>
</trkpt>
<trkpt lat="63.701679230" lon="-19.644744873">
<ele>153.003906</ele>
<time>2012-07-26T16:57:29Z</time>
<speed>0.250000</speed>
<extensions>
<speed>0.2</speed>
<temp>0.00</temp>
<bpm>0</bpm>
<rpm>0.00</rpm>
</extensions>
</trkpt>
<trkpt lat="63.701690674" lon="-19.644737244">
<ele>153.042969</ele>
<time>2012-07-26T16:57:34Z</time>
<speed>0.190000</speed>
<extensions>
<speed>0.2</speed>
<temp>0.00</temp>
<bpm>0</bpm>
<rpm>0.00</rpm>
</extensions>
</trkpt>
<trkpt lat="63.701698303" lon="-19.644735336">
<ele>153.082031</ele>
<time>2012-07-26T16:57:39Z</time>
<speed>0.170000</speed>
<extensions>
<speed>0.2</speed>
<temp>0.00</temp>
<bpm>0</bpm>
<rpm>0.00</rpm>
</extensions>
</trkpt>
<trkpt lat="63.701690674" lon="-19.644752502">
<ele>153.117188</ele>
<time>2012-07-26T16:57:44Z</time>
<speed>0.250000</speed>
<extensions>
<speed>0.2</speed>
<temp>0.00</temp>
<bpm>0</bpm>
<rpm>0.00</rpm>
</extensions>
</trkpt>
<trkpt lat="63.701721191" lon="-19.644777298">
<ele>154.003906</ele>
<time>2012-07-26T16:57:49Z</time>
<speed>0.310000</speed>
<extensions>
<speed>0.3</speed>
<temp>0.00</temp>
<bpm>0</bpm>
<rpm>0.00</rpm>
</extensions>
</trkpt>
<trkpt lat="63.701690674" lon="-19.644874573">
<ele>153.847656</ele>
<time>2012-07-26T16:57:54Z</time>
<speed>0.400000</speed>
<extensions>
<speed>0.4</speed>
<temp>0.00</temp>
<bpm>0</bpm>
<rpm>0.00</rpm>
</extensions>
</trkpt>
<trkpt lat="63.701690674" lon="-19.644920349">
<ele>153.523438</ele>
<time>2012-07-26T16:57:59Z</time>
<speed>0.280000</speed>
<extensions>
<speed>0.3</speed>
<temp>0.00</temp>
<bpm>0</bpm>
<rpm>0.00</rpm>
</extensions>
</trkpt>
<trkpt lat="63.701702118" lon="-19.644945145">
<ele>153.375000</ele>
<time>2012-07-26T16:58:04Z</time>
<speed>0.230000</speed>
<extensions>
<speed>0.2</speed>
<temp>0.00</temp>
<bpm>0</bpm>
<rpm>0.00</rpm>
</extensions>
</trkpt>
<trkpt lat="63.701702118" lon="-19.644960403">
<ele>152.914063</ele>
<time>2012-07-26T16:58:09Z</time>
<speed>0.120000</speed>
<extensions>
<speed>0.1</speed>
<temp>0.00</temp>
<bpm>0</bpm>
<rpm>0.00</rpm>
</extensions>
</trkpt>
<trkpt lat="63.701702118" lon="-19.644948959">
<ele>152.484375</ele>
<time>2012-07-26T16:58:14Z</time>
<speed>0.140000</speed>
<extensions>
<speed>0.1</speed>
<temp>0.00</temp>
<bpm>0</bpm>
<rpm>0.00</rpm>
</extensions>
</trkpt>
<trkpt lat="63.701698303" lon="-19.644922256">
<ele>151.781250</ele>
<time>2012-07-26T16:58:19Z</time>
<speed>0.350000</speed>
<extensions>
<speed>0.3</speed>
<temp>0.00</temp>
<bpm>0</bpm>
<rpm>0.00</rpm>
</extensions>
</trkpt>
<trkpt lat="63.701705933" lon="-19.644929886">
<ele>151.445313</ele>
<time>2012-07-26T16:58:24Z</time>
<speed>0.070000</speed>
<extensions>
<speed>0.1</speed>
<temp>0.00</temp>
<bpm>0</bpm>
<rpm>0.00</rpm>
</extensions>
</trkpt>
<trkpt lat="63.701705933" lon="-19.644924164">
<ele>151.019531</ele>
<time>2012-07-26T16:58:29Z</time>
<speed>0.070000</speed>
<extensions>
<speed>0.1</speed>
<temp>0.00</temp>
<bpm>0</bpm>
<rpm>0.00</rpm>
</extensions>
</trkpt>
<trkpt lat="63.701709747" lon="-19.644926071">
<ele>150.593750</ele>
<time>2012-07-26T16:58:34Z</time>
<speed>0.170000</speed>
<extensions>
<speed>0.2</speed>
<temp>0.00</temp>
<bpm>0</bpm>
<rpm>0.00</rpm>
</extensions>
</trkpt>
<trkpt lat="63.701717377" lon="-19.644941330">
<ele>150.175781</ele>
<time>2012-07-26T16:58:39Z</time>
<speed>0.290000</speed>
<extensions>
<speed>0.3</speed>
<temp>0.00</temp>
<bpm>0</bpm>
<rpm>0.00</rpm>
</extensions>
</trkpt>
<trkpt lat="63.701751709" lon="-19.644981384">
<ele>149.757813</ele>
<time>2012-07-26T16:58:44Z</time>
<speed>0.440000</speed>
<extensions>
<speed>0.4</speed>
<temp>0.00</temp>
<bpm>0</bpm>
<rpm>0.00</rpm>
</extensions>
</trkpt>
<trkpt lat="63.701839447" lon="-19.645000458">
<ele>149.226563</ele>
<time>2012-07-26T16:58:49Z</time>
<speed>0.650000</speed>
<extensions>
<speed>0.6</speed>
<temp>0.00</temp>
<bpm>0</bpm>
<rpm>0.00</rpm>
</extensions>
</trkpt>
<trkpt lat="63.701881409" lon="-19.645055771">
<ele>148.832031</ele>
<time>2012-07-26T16:58:54Z</time>
<speed>0.630000</speed>
<extensions>
<speed>0.6</speed>
<temp>0.00</temp>
<bpm>0</bpm>
<rpm>0.00</rpm>
</extensions>
</trkpt>
<trkpt lat="63.701900482" lon="-19.645126343">
<ele>148.378906</ele>
<time>2012-07-26T16:58:59Z</time>
<speed>0.570000</speed>
<extensions>
<speed>0.6</speed>
<temp>0.00</temp>
<bpm>0</bpm>
<rpm>0.00</rpm>
</extensions>
</trkpt>
<trkpt lat="63.701915741" lon="-19.645046234">
<ele>147.964844</ele>
<time>2012-07-26T16:59:04Z</time>
<speed>0.380000</speed>
<extensions>
<speed>0.4</speed>
<temp>0.00</temp>
<bpm>0</bpm>
<rpm>0.00</rpm>
</extensions>
</trkpt>
<trkpt lat="63.701889038" lon="-19.645059586">
<ele>147.441406</ele>
<time>2012-07-26T16:59:09Z</time>
<speed>0.150000</speed>
<extensions>
<speed>0.2</speed>
<temp>0.00</temp>
<bpm>0</bpm>
<rpm>0.00</rpm>
</extensions>
</trkpt>
<trkpt lat="63.701904297" lon="-19.645078659">
<ele>147.023438</ele>
<time>2012-07-26T16:59:14Z</time>
<speed>0.200000</speed>
<extensions>
<speed>0.2</speed>
<temp>0.00</temp>
<bpm>0</bpm>
<rpm>0.00</rpm>
</extensions>
</trkpt>
<trkpt lat="63.701911926" lon="-19.645090103">
<ele>146.593750</ele>
<time>2012-07-26T16:59:19Z</time>
<speed>0.210000</speed>
<extensions>
<speed>0.2</speed>
<temp>0.00</temp>
<bpm>0</bpm>
<rpm>0.00</rpm>
</extensions>
</trkpt>
<trkpt lat="63.701915741" lon="-19.645109177">
<ele>146.167969</ele>
<time>2012-07-26T16:59:24Z</time>
<speed>0.150000</speed>
<extensions>
<speed>0.2</speed>
<temp>0.00</temp>
<bpm>0</bpm>
<rpm>0.00</rpm>
</extensions>
</trkpt>
<trkpt lat="63.701911926" lon="-19.645126343">
<ele>145.738281</ele>
<time>2012-07-26T16:59:29Z</time>
<speed>0.230000</speed>
<extensions>
<speed>0.2</speed>
<temp>0.00</temp>
<bpm>0</bpm>
<rpm>0.00</rpm>
</extensions>
</trkpt>
<trkpt lat="63.701908112" lon="-19.645149231">
<ele>145.312500</ele>
<time>2012-07-26T16:59:34Z</time>
<speed>0.330000</speed>
<extensions>
<speed>0.3</speed>
<temp>0.00</temp>
<bpm>0</bpm>
<rpm>0.00</rpm>
</extensions>
</trkpt>
<trkpt lat="63.701881409" lon="-19.645114899">
<ele>144.882813</ele>
<time>2012-07-26T16:59:39Z</time>
<speed>0.160000</speed>
<extensions>
<speed>0.2</speed>
<temp>0.00</temp>
<bpm>0</bpm>
<rpm>0.00</rpm>
</extensions>
</trkpt>
<trkpt lat="63.701881409" lon="-19.645133972">
<ele>144.453125</ele>
<time>2012-07-26T16:59:44Z</time>
<speed>0.210000</speed>
<extensions>
<speed>0.2</speed>
<temp>0.00</temp>
<bpm>0</bpm>
<rpm>0.00</rpm>
</extensions>
</trkpt>
<trkpt lat="63.701881409" lon="-19.645145416">
<ele>144.027344</ele>
<time>2012-07-26T16:59:49Z</time>
<speed>0.130000</speed>
<extensions>
<speed>0.1</speed>
<temp>0.00</temp>
<bpm>0</bpm>
<rpm>0.00</rpm>
</extensions>
</trkpt>
<trkpt lat="63.701885223" lon="-19.645156860">
<ele>143.601563</ele>
<time>2012-07-26T16:59:54Z</time>
<speed>0.130000</speed>
<extensions>
<speed>0.1</speed>
<temp>0.00</temp>
<bpm>0</bpm>
<rpm>0.00</rpm>
</extensions>
</trkpt>
<trkpt lat="63.701889038" lon="-19.645162582">
<ele>143.171875</ele>
<time>2012-07-26T16:59:59Z</time>
<speed>0.080000</speed>
<extensions>
<speed>0.1</speed>
<temp>0.00</temp>
<bpm>0</bpm>
<rpm>0.00</rpm>
</extensions>
</trkpt>
<trkpt lat="63.701892853" lon="-19.645162582">
<ele>142.753906</ele>
<time>2012-07-26T17:00:04Z</time>
<speed>0.120000</speed>
<extensions>
<speed>0.1</speed>
<temp>0.00</temp>
<bpm>0</bpm>
<rpm>0.00</rpm>
</extensions>
</trkpt>
<trkpt lat="63.701896667" lon="-19.645174026">
<ele>142.347656</ele>
<time>2012-07-26T17:00:09Z</time>
<speed>0.100000</speed>
<extensions>
<speed>0.1</speed>
<temp>0.00</temp>
<bpm>0</bpm>
<rpm>0.00</rpm>
</extensions>
</trkpt>
<trkpt lat="63.701900482" lon="-19.645181656">
<ele>141.945313</ele>
<time>2012-07-26T17:00:14Z</time>
<speed>0.100000</speed>
<extensions>
<speed>0.1</speed>
<temp>0.00</temp>
<bpm>0</bpm>
<rpm>0.00</rpm>
</extensions>
</trkpt>
<trkpt lat="63.701900482" lon="-19.645187378">
<ele>141.566406</ele>
<time>2012-07-26T17:00:19Z</time>
<speed>0.130000</speed>
<extensions>
<speed>0.1</speed>
<temp>0.00</temp>
<bpm>0</bpm>
<rpm>0.00</rpm>
</extensions>
</trkpt>
<trkpt lat="63.701904297" lon="-19.645185471">
<ele>141.234375</ele>
<time>2012-07-26T17:00:24Z</time>
<speed>0.130000</speed>
<extensions>
<speed>0.1</speed>
<temp>0.00</temp>
<bpm>0</bpm>
<rpm>0.00</rpm>
</extensions>
</trkpt>
<trkpt lat="63.701911926" lon="-19.645172119">
<ele>140.894531</ele>
<time>2012-07-26T17:00:29Z</time>
<speed>0.220000</speed>
<extensions>
<speed>0.2</speed>
<temp>0.00</temp>
<bpm>0</bpm>
<rpm>0.00</rpm>
</extensions>
</trkpt>
<trkpt lat="63.701911926" lon="-19.645116806">
<ele>140.542969</ele>
<time>2012-07-26T17:00:34Z</time>
<speed>0.390000</speed>
<extensions>
<speed>0.4</speed>
<temp>0.00</temp>
<bpm>0</bpm>
<rpm>0.00</rpm>
</extensions>
</trkpt>
<trkpt lat="63.701946259" lon="-19.645025253">
<ele>140.429688</ele>
<time>2012-07-26T17:00:39Z</time>
<speed>0.510000</speed>
<extensions>
<speed>0.5</speed>
<temp>0.00</temp>
<bpm>0</bpm>
<rpm>0.00</rpm>
</extensions>
</trkpt>
<trkpt lat="63.701915741" lon="-19.644989014">
<ele>140.742188</ele>
<time>2012-07-26T17:00:44Z</time>
<speed>0.010000</speed>
<extensions>
<speed>0.0</speed>
<temp>0.00</temp>
<bpm>0</bpm>
<rpm>0.00</rpm>
</extensions>
</trkpt>
<trkpt lat="63.701915741" lon="-19.644989014">
<ele>140.632813</ele>
<time>2012-07-26T17:00:49Z</time>
<extensions>
<speed>0.0</speed>
<temp>0.00</temp>
<bpm>0</bpm>
<rpm>0.00</rpm>
</extensions>
</trkpt>
<trkpt lat="63.701915741" lon="-19.644989014">
<ele>140.562500</ele>
<time>2012-07-26T17:00:54Z</time>
<speed>0.010000</speed>
<extensions>
<speed>0.0</speed>
<temp>0.00</temp>
<bpm>0</bpm>
<rpm>0.00</rpm>
</extensions>
</trkpt>
<trkpt lat="63.701915741" lon="-19.644989014">
<ele>140.500000</ele>
<time>2012-07-26T17:00:59Z</time>
<speed>0.010000</speed>
<extensions>
<speed>0.0</speed>
<temp>0.00</temp>
<bpm>0</bpm>
<rpm>0.00</rpm>
</extensions>
</trkpt>
<trkpt lat="63.701915741" lon="-19.644987106">
<ele>140.464844</ele>
<time>2012-07-26T17:01:04Z</time>
<speed>0.010000</speed>
<extensions>
<speed>0.0</speed>
<temp>0.00</temp>
<bpm>0</bpm>
<rpm>0.00</rpm>
</extensions>
</trkpt>
<trkpt lat="63.701915741" lon="-19.644989014">
<ele>140.425781</ele>
<time>2012-07-26T17:01:09Z</time>
<speed>0.020000</speed>
<extensions>
<speed>0.0</speed>
<temp>0.00</temp>
<bpm>0</bpm>
<rpm>0.00</rpm>
</extensions>
</trkpt>
<trkpt lat="63.701900482" lon="-19.644973755">
<ele>141.613281</ele>
<time>2012-07-26T17:01:14Z</time>
<speed>0.850000</speed>
<extensions>
<speed>0.8</speed>
<temp>0.00</temp>
<bpm>0</bpm>
<rpm>0.00</rpm>
</extensions>
</trkpt>
<trkpt lat="63.701854706" lon="-19.645008087">
<ele>143.179688</ele>
<time>2012-07-26T17:01:19Z</time>
<speed>1.040000</speed>
<extensions>
<speed>1.0</speed>
<temp>0.00</temp>
<bpm>0</bpm>
<rpm>0.00</rpm>
</extensions>
</trkpt>
<trkpt lat="63.701839447" lon="-19.645072937">
<ele>143.953125</ele>
<time>2012-07-26T17:01:24Z</time>
<speed>0.340000</speed>
<extensions>
<speed>0.3</speed>
<temp>0.00</temp>
<bpm>0</bpm>
<rpm>0.00</rpm>
</extensions>
</trkpt>
<trkpt lat="63.701828003" lon="-19.645090103">
<ele>143.511719</ele>
<time>2012-07-26T17:01:29Z</time>
<speed>0.300000</speed>
<extensions>
<speed>0.3</speed>
<temp>0.00</temp>
<bpm>0</bpm>
<rpm>0.00</rpm>
</extensions>
</trkpt>
<trkpt lat="63.701824188" lon="-19.645114899">
<ele>142.917969</ele>
<time>2012-07-26T17:01:34Z</time>
<speed>0.280000</speed>
<extensions>
<speed>0.3</speed>
<temp>0.00</temp>
<bpm>0</bpm>
<rpm>0.00</rpm>
</extensions>
</trkpt>
<trkpt lat="63.701816559" lon="-19.645137787">
<ele>142.261719</ele>
<time>2012-07-26T17:01:39Z</time>
<speed>0.300000</speed>
<extensions>
<speed>0.3</speed>
<temp>0.00</temp>
<bpm>0</bpm>
<rpm>0.00</rpm>
</extensions>
</trkpt>
<trkpt lat="63.701797485" lon="-19.645191193">
<ele>141.726563</ele>
<time>2012-07-26T17:01:44Z</time>
<speed>0.400000</speed>
<extensions>
<speed>0.4</speed>
<temp>0.00</temp>
<bpm>0</bpm>
<rpm>0.00</rpm>
</extensions>
</trkpt>
<trkpt lat="63.701782227" lon="-19.645183563">
<ele>141.140625</ele>
<time>2012-07-26T17:01:49Z</time>
<speed>0.330000</speed>
<extensions>
<speed>0.3</speed>
<temp>0.00</temp>
<bpm>0</bpm>
<rpm>0.00</rpm>
</extensions>
</trkpt>
<trkpt lat="63.701808929" lon="-19.645185471">
<ele>140.976563</ele>
<time>2012-07-26T17:01:54Z</time>
<speed>0.140000</speed>
<extensions>
<speed>0.1</speed>
<temp>0.00</temp>
<bpm>0</bpm>
<rpm>0.00</rpm>
</extensions>
</trkpt>
<trkpt lat="63.701808929" lon="-19.645183563">
<ele>140.343750</ele>
<time>2012-07-26T17:01:59Z</time>
<speed>0.130000</speed>
<extensions>
<speed>0.1</speed>
<temp>0.00</temp>
<bpm>0</bpm>
<rpm>0.00</rpm>
</extensions>
</trkpt>
<trkpt lat="63.701805115" lon="-19.645174026">
<ele>139.773438</ele>
<time>2012-07-26T17:02:04Z</time>
<speed>0.130000</speed>
<extensions>
<speed>0.1</speed>
<temp>0.00</temp>
<bpm>0</bpm>
<rpm>0.00</rpm>
</extensions>
</trkpt>
<trkpt lat="63.701805115" lon="-19.645158768">
<ele>139.203125</ele>
<time>2012-07-26T17:02:09Z</time>
<speed>0.140000</speed>
<extensions>
<speed>0.1</speed>
<temp>0.00</temp>
<bpm>0</bpm>
<rpm>0.00</rpm>
</extensions>
</trkpt>
<trkpt lat="63.701805115" lon="-19.645147324">
<ele>138.632813</ele>
<time>2012-07-26T17:02:14Z</time>
<speed>0.110000</speed>
<extensions>
<speed>0.1</speed>
<temp>0.00</temp>
<bpm>0</bpm>
<rpm>0.00</rpm>
</extensions>
</trkpt>
<trkpt lat="63.701805115" lon="-19.645132065">
<ele>138.070313</ele>
<time>2012-07-26T17:02:19Z</time>
<speed>0.190000</speed>
<extensions>
<speed>0.2</speed>
<temp>0.00</temp>
<bpm>0</bpm>
<rpm>0.00</rpm>
</extensions>
</trkpt>
<trkpt lat="63.701797485" lon="-19.645118713">
<ele>137.515625</ele>
<time>2012-07-26T17:02:24Z</time>
<speed>0.190000</speed>
<extensions>
<speed>0.2</speed>
<temp>0.00</temp>
<bpm>0</bpm>
<rpm>0.00</rpm>
</extensions>
</trkpt>
<trkpt lat="63.701789856" lon="-19.645114899">
<ele>136.960938</ele>
<time>2012-07-26T17:02:29Z</time>
<speed>0.200000</speed>
<extensions>
<speed>0.2</speed>
<temp>0.00</temp>
<bpm>0</bpm>
<rpm>0.00</rpm>
</extensions>
</trkpt>
<trkpt lat="63.701782227" lon="-19.645133972">
<ele>136.437500</ele>
<time>2012-07-26T17:02:34Z</time>
<speed>0.140000</speed>
<extensions>
<speed>0.1</speed>
<temp>0.00</temp>
<bpm>0</bpm>
<rpm>0.00</rpm>
</extensions>
</trkpt>
<trkpt lat="63.701782227" lon="-19.645143509">
<ele>135.886719</ele>
<time>2012-07-26T17:02:39Z</time>
<speed>0.110000</speed>
<extensions>
<speed>0.1</speed>
<temp>0.00</temp>
<bpm>0</bpm>
<rpm>0.00</rpm>
</extensions>
</trkpt>
<trkpt lat="63.701782227" lon="-19.645154953">
<ele>135.339844</ele>
<time>2012-07-26T17:02:44Z</time>
<speed>0.140000</speed>
<extensions>
<speed>0.1</speed>
<temp>0.00</temp>
<bpm>0</bpm>
<rpm>0.00</rpm>
</extensions>
</trkpt>
<trkpt lat="63.701782227" lon="-19.645170212">
<ele>134.792969</ele>
<time>2012-07-26T17:02:49Z</time>
<speed>0.210000</speed>
<extensions>
<speed>0.2</speed>
<temp>0.00</temp>
<bpm>0</bpm>
<rpm>0.00</rpm>
</extensions>
</trkpt>
<trkpt lat="63.701797485" lon="-19.645208359">
<ele>134.292969</ele>
<time>2012-07-26T17:02:54Z</time>
<speed>0.270000</speed>
<extensions>
<speed>0.3</speed>
<temp>0.00</temp>
<bpm>0</bpm>
<rpm>0.00</rpm>
</extensions>
</trkpt>
<trkpt lat="63.701816559" lon="-19.645250320">
<ele>133.792969</ele>
<time>2012-07-26T17:02:59Z</time>
<speed>0.360000</speed>
<extensions>
<speed>0.4</speed>
<temp>0.00</temp>
<bpm>0</bpm>
<rpm>0.00</rpm>
</extensions>
</trkpt>
<trkpt lat="63.701831818" lon="-19.645330429">
<ele>133.371094</ele>
<time>2012-07-26T17:03:04Z</time>
<speed>0.420000</speed>
<extensions>
<speed>0.4</speed>
<temp>0.00</temp>
<bpm>0</bpm>
<rpm>0.00</rpm>
</extensions>
</trkpt>
<trkpt lat="63.701793671" lon="-19.645296097">
<ele>132.988281</ele>
<time>2012-07-26T17:03:09Z</time>
<speed>0.150000</speed>
<extensions>
<speed>0.2</speed>
<temp>0.00</temp>
<bpm>0</bpm>
<rpm>0.00</rpm>
</extensions>
</trkpt>
<trkpt lat="63.701789856" lon="-19.645305634">
<ele>132.460938</ele>
<time>2012-07-26T17:03:14Z</time>
<speed>0.140000</speed>
<extensions>
<speed>0.1</speed>
<temp>0.00</temp>
<bpm>0</bpm>
<rpm>0.00</rpm>
</extensions>
</trkpt>
<trkpt lat="63.701801300" lon="-19.645307541">
<ele>131.914063</ele>
<time>2012-07-26T17:03:19Z</time>
<speed>0.210000</speed>
<extensions>
<speed>0.2</speed>
<temp>0.00</temp>
<bpm>0</bpm>
<rpm>0.00</rpm>
</extensions>
</trkpt>
<trkpt lat="63.701797485" lon="-19.645298004">
<ele>131.378906</ele>
<time>2012-07-26T17:03:24Z</time>
<speed>0.080000</speed>
<extensions>
<speed>0.1</speed>
<temp>0.00</temp>
<bpm>0</bpm>
<rpm>0.00</rpm>
</extensions>
</trkpt>
<trkpt lat="63.701797485" lon="-19.645290375">
<ele>130.867188</ele>
<time>2012-07-26T17:03:29Z</time>
<speed>0.070000</speed>
<extensions>
<speed>0.1</speed>
<temp>0.00</temp>
<bpm>0</bpm>
<rpm>0.00</rpm>
</extensions>
</trkpt>
<trkpt lat="63.701801300" lon="-19.645292282">
<ele>130.359375</ele>
<time>2012-07-26T17:03:34Z</time>
<speed>0.150000</speed>
<extensions>
<speed>0.2</speed>
<temp>0.00</temp>
<bpm>0</bpm>
<rpm>0.00</rpm>
</extensions>
</trkpt>
<trkpt lat="63.701808929" lon="-19.645296097">
<ele>129.871094</ele>
<time>2012-07-26T17:03:39Z</time>
<speed>0.190000</speed>
<extensions>
<speed>0.2</speed>
<temp>0.00</temp>
<bpm>0</bpm>
<rpm>0.00</rpm>
</extensions>
</trkpt>
<trkpt lat="63.701816559" lon="-19.645298004">
<ele>129.382813</ele>
<time>2012-07-26T17:03:44Z</time>
<speed>0.180000</speed>
<extensions>
<speed>0.2</speed>
<temp>0.00</temp>
<bpm>0</bpm>
<rpm>0.00</rpm>
</extensions>
</trkpt>
<trkpt lat="63.701828003" lon="-19.645301819">
<ele>128.906250</ele>
<time>2012-07-26T17:03:49Z</time>
<speed>0.190000</speed>
<extensions>
<speed>0.2</speed>
<temp>0.00</temp>
<bpm>0</bpm>
<rpm>0.00</rpm>
</extensions>
</trkpt>
<trkpt lat="63.701824188" lon="-19.645320892">
<ele>128.605469</ele>
<time>2012-07-26T17:03:54Z</time>
<speed>0.050000</speed>
<extensions>
<speed>0.1</speed>
<temp>0.00</temp>
<bpm>0</bpm>
<rpm>0.00</rpm>
</extensions>
</trkpt>
<trkpt lat="63.701824188" lon="-19.645324707">
<ele>128.242188</ele>
<time>2012-07-26T17:03:59Z</time>
<speed>0.160000</speed>
<extensions>
<speed>0.2</speed>
<temp>0.00</temp>
<bpm>0</bpm>
<rpm>0.00</rpm>
</extensions>
</trkpt>
<trkpt lat="63.701831818" lon="-19.645315170">
<ele>127.929688</ele>
<time>2012-07-26T17:04:04Z</time>
<speed>0.140000</speed>
<extensions>
<speed>0.1</speed>
<temp>0.00</temp>
<bpm>0</bpm>
<rpm>0.00</rpm>
</extensions>
</trkpt>
<trkpt lat="63.701835632" lon="-19.645311356">
<ele>127.621094</ele>
<time>2012-07-26T17:04:09Z</time>
<speed>0.020000</speed>
<extensions>
<speed>0.0</speed>
<temp>0.00</temp>
<bpm>0</bpm>
<rpm>0.00</rpm>
</extensions>
</trkpt>
<trkpt lat="63.701820374" lon="-19.645240784">
<ele>129.203125</ele>
<time>2012-07-26T17:04:14Z</time>
<speed>0.980000</speed>
<extensions>
<speed>1.0</speed>
<temp>0.00</temp>
<bpm>0</bpm>
<rpm>0.00</rpm>
</extensions>
</trkpt>
<trkpt lat="63.701805115" lon="-19.645160675">
<ele>132.308594</ele>
<time>2012-07-26T17:04:19Z</time>
<speed>0.160000</speed>
<extensions>
<speed>0.2</speed>
<temp>0.00</temp>
<bpm>0</bpm>
<rpm>0.00</rpm>
</extensions>
</trkpt>
<trkpt lat="63.701801300" lon="-19.645132065">
<ele>133.125000</ele>
<time>2012-07-26T17:04:24Z</time>
<speed>0.010000</speed>
<extensions>
<speed>0.0</speed>
<temp>0.00</temp>
<bpm>0</bpm>
<rpm>0.00</rpm>
</extensions>
</trkpt>
<trkpt lat="63.701797485" lon="-19.645132065">
<ele>133.191406</ele>
<time>2012-07-26T17:04:29Z</time>
<speed>0.050000</speed>
<extensions>
<speed>0.1</speed>
<temp>0.00</temp>
<bpm>0</bpm>
<rpm>0.00</rpm>
</extensions>
</trkpt>
<trkpt lat="63.701801300" lon="-19.645132065">
<ele>133.613281</ele>
<time>2012-07-26T17:04:34Z</time>
<speed>0.090000</speed>
<extensions>
<speed>0.1</speed>
<temp>0.00</temp>
<bpm>0</bpm>
<rpm>0.00</rpm>
</extensions>
</trkpt>
<trkpt lat="63.701801300" lon="-19.645133972">
<ele>133.792969</ele>
<time>2012-07-26T17:04:39Z</time>
<speed>0.110000</speed>
<extensions>
<speed>0.1</speed>
<temp>0.00</temp>
<bpm>0</bpm>
<rpm>0.00</rpm>
</extensions>
</trkpt>
<trkpt lat="63.701805115" lon="-19.645132065">
<ele>133.894531</ele>
<time>2012-07-26T17:04:44Z</time>
<speed>0.010000</speed>
<extensions>
<speed>0.0</speed>
<temp>0.00</temp>
<bpm>0</bpm>
<rpm>0.00</rpm>
</extensions>
</trkpt>
<trkpt lat="63.701805115" lon="-19.645132065">
<ele>133.968750</ele>
<time>2012-07-26T17:04:49Z</time>
<speed>0.010000</speed>
<extensions>
<speed>0.0</speed>
<temp>0.00</temp>
<bpm>0</bpm>
<rpm>0.00</rpm>
</extensions>
</trkpt>
<trkpt lat="63.701805115" lon="-19.645132065">
<ele>134.000000</ele>
<time>2012-07-26T17:04:54Z</time>
<speed>0.020000</speed>
<extensions>
<speed>0.0</speed>
<temp>0.00</temp>
<bpm>0</bpm>
<rpm>0.00</rpm>
</extensions>
</trkpt>
<trkpt lat="63.701805115" lon="-19.645132065">
<ele>134.082031</ele>
<time>2012-07-26T17:04:59Z</time>
<speed>0.010000</speed>
<extensions>
<speed>0.0</speed>
<temp>0.00</temp>
<bpm>0</bpm>
<rpm>0.00</rpm>
</extensions>
</trkpt>
<trkpt lat="63.701801300" lon="-19.645132065">
<ele>134.128906</ele>
<time>2012-07-26T17:05:04Z</time>
<speed>0.020000</speed>
<extensions>
<speed>0.0</speed>
<temp>0.00</temp>
<bpm>0</bpm>
<rpm>0.00</rpm>
</extensions>
</trkpt>
<trkpt lat="63.701801300" lon="-19.645132065">
<ele>134.191406</ele>
<time>2012-07-26T17:05:09Z</time>
<extensions>
<speed>0.0</speed>
<temp>0.00</temp>
<bpm>0</bpm>
<rpm>0.00</rpm>
</extensions>
</trkpt>
<trkpt lat="63.701801300" lon="-19.645130157">
<ele>134.218750</ele>
<time>2012-07-26T17:05:14Z</time>
<speed>0.020000</speed>
<extensions>
<speed>0.0</speed>
<temp>0.00</temp>
<bpm>0</bpm>
<rpm>0.00</rpm>
</extensions>
</trkpt>
<trkpt lat="63.701805115" lon="-19.645112991">
<ele>133.902344</ele>
<time>2012-07-26T17:05:19Z</time>
<speed>0.170000</speed>
<extensions>
<speed>0.2</speed>
<temp>0.00</temp>
<bpm>0</bpm>
<rpm>0.00</rpm>
</extensions>
</trkpt>
<trkpt lat="63.701816559" lon="-19.645078659">
<ele>133.937500</ele>
<time>2012-07-26T17:05:24Z</time>
<speed>0.030000</speed>
<extensions>
<speed>0.0</speed>
<temp>0.00</temp>
<bpm>0</bpm>
<rpm>0.00</rpm>
</extensions>
</trkpt>
<trkpt lat="63.701816559" lon="-19.645078659">
<ele>133.976563</ele>
<time>2012-07-26T17:05:29Z</time>
<speed>0.020000</speed>
<extensions>
<speed>0.0</speed>
<temp>0.00</temp>
<bpm>0</bpm>
<rpm>0.00</rpm>
</extensions>
</trkpt>
<trkpt lat="63.701820374" lon="-19.645078659">
<ele>133.996094</ele>
<time>2012-07-26T17:05:34Z</time>
<speed>0.020000</speed>
<extensions>
<speed>0.0</speed>
<temp>0.00</temp>
<bpm>0</bpm>
<rpm>0.00</rpm>
</extensions>
</trkpt>
<trkpt lat="63.701812744" lon="-19.645078659">
<ele>134.050781</ele>
<time>2012-07-26T17:05:39Z</time>
<speed>0.040000</speed>
<extensions>
<speed>0.0</speed>
<temp>0.00</temp>
<bpm>0</bpm>
<rpm>0.00</rpm>
</extensions>
</trkpt>
<trkpt lat="63.701816559" lon="-19.645076752">
<ele>134.433594</ele>
<time>2012-07-26T17:05:44Z</time>
<speed>0.290000</speed>
<extensions>
<speed>0.3</speed>
<temp>0.00</temp>
<bpm>0</bpm>
<rpm>0.00</rpm>
</extensions>
</trkpt>
<trkpt lat="63.701789856" lon="-19.645057678">
<ele>134.902344</ele>
<time>2012-07-26T17:05:49Z</time>
<extensions>
<speed>0.0</speed>
<temp>0.00</temp>
<bpm>0</bpm>
<rpm>0.00</rpm>
</extensions>
</trkpt>
<trkpt lat="63.701778412" lon="-19.645040512">
<ele>135.183594</ele>
<time>2012-07-26T17:05:54Z</time>
<speed>0.030000</speed>
<extensions>
<speed>0.0</speed>
<temp>0.00</temp>
<bpm>0</bpm>
<rpm>0.00</rpm>
</extensions>
</trkpt>
<trkpt lat="63.701744080" lon="-19.645057678">
<ele>137.136719</ele>
<time>2012-07-26T17:05:59Z</time>
<speed>0.050000</speed>
<extensions>
<speed>0.1</speed>
<temp>0.00</temp>
<bpm>0</bpm>
<rpm>0.00</rpm>
</extensions>
</trkpt>
<trkpt lat="63.701705933" lon="-19.645046234">
<ele>138.917969</ele>
<time>2012-07-26T17:06:04Z</time>
<speed>0.030000</speed>
<extensions>
<speed>0.0</speed>
<temp>0.00</temp>
<bpm>0</bpm>
<rpm>0.00</rpm>
</extensions>
</trkpt>
<trkpt lat="63.701675415" lon="-19.645036697">
<ele>140.128906</ele>
<time>2012-07-26T17:06:09Z</time>
<speed>0.030000</speed>
<extensions>
<speed>0.0</speed>
<temp>0.00</temp>
<bpm>0</bpm>
<rpm>0.00</rpm>
</extensions>
</trkpt>
<trkpt lat="63.701660156" lon="-19.645036697">
<ele>140.886719</ele>
<time>2012-07-26T17:06:14Z</time>
<speed>0.260000</speed>
<extensions>
<speed>0.3</speed>
<temp>0.00</temp>
<bpm>0</bpm>
<rpm>0.00</rpm>
</extensions>
</trkpt>
<trkpt lat="63.701648712" lon="-19.645021439">
<ele>141.742188</ele>
<time>2012-07-26T17:06:19Z</time>
<extensions>
<speed>0.0</speed>
<temp>0.00</temp>
<bpm>0</bpm>
<rpm>0.00</rpm>
</extensions>
</trkpt>
<trkpt lat="63.701652527" lon="-19.645029068">
<ele>141.644531</ele>
<time>2012-07-26T17:06:24Z</time>
<speed>0.520000</speed>
<extensions>
<speed>0.5</speed>
<temp>0.00</temp>
<bpm>0</bpm>
<rpm>0.00</rpm>
</extensions>
</trkpt>
<trkpt lat="63.701656342" lon="-19.645008087">
<ele>140.632813</ele>
<time>2012-07-26T17:06:29Z</time>
<speed>0.080000</speed>
<extensions>
<speed>0.1</speed>
<temp>0.00</temp>
<bpm>0</bpm>
<rpm>0.00</rpm>
</extensions>
</trkpt>
<trkpt lat="63.701629639" lon="-19.644990921">
<ele>141.945313</ele>
<time>2012-07-26T17:06:34Z</time>
<speed>0.170000</speed>
<extensions>
<speed>0.2</speed>
<temp>0.00</temp>
<bpm>0</bpm>
<rpm>0.00</rpm>
</extensions>
</trkpt>
<trkpt lat="63.701610565" lon="-19.645030975">
<ele>142.570313</ele>
<time>2012-07-26T17:06:39Z</time>
<speed>0.320000</speed>
<extensions>
<speed>0.3</speed>
<temp>0.00</temp>
<bpm>0</bpm>
<rpm>0.00</rpm>
</extensions>
</trkpt>
<trkpt lat="63.701614380" lon="-19.645051956">
<ele>143.117188</ele>
<time>2012-07-26T17:06:44Z</time>
<speed>0.200000</speed>
<extensions>
<speed>0.2</speed>
<temp>0.00</temp>
<bpm>0</bpm>
<rpm>0.00</rpm>
</extensions>
</trkpt>
<trkpt lat="63.701622009" lon="-19.645057678">
<ele>142.886719</ele>
<time>2012-07-26T17:06:49Z</time>
<speed>0.070000</speed>
<extensions>
<speed>0.1</speed>
<temp>0.00</temp>
<bpm>0</bpm>
<rpm>0.00</rpm>
</extensions>
</trkpt>
<trkpt lat="63.701622009" lon="-19.645059586">
<ele>142.789063</ele>
<time>2012-07-26T17:06:54Z</time>
<speed>0.010000</speed>
<extensions>
<speed>0.0</speed>
<temp>0.00</temp>
<bpm>0</bpm>
<rpm>0.00</rpm>
</extensions>
</trkpt>
<trkpt lat="63.701622009" lon="-19.645059586">
<ele>142.769531</ele>
<time>2012-07-26T17:06:59Z</time>
<speed>0.030000</speed>
<extensions>
<speed>0.0</speed>
<temp>0.00</temp>
<bpm>0</bpm>
<rpm>0.00</rpm>
</extensions>
</trkpt>
<trkpt lat="63.701622009" lon="-19.645059586">
<ele>142.785156</ele>
<time>2012-07-26T17:07:04Z</time>
<speed>0.020000</speed>
<extensions>
<speed>0.0</speed>
<temp>0.00</temp>
<bpm>0</bpm>
<rpm>0.00</rpm>
</extensions>
</trkpt>
<trkpt lat="63.701622009" lon="-19.645061493">
<ele>142.785156</ele>
<time>2012-07-26T17:07:09Z</time>
<speed>0.020000</speed>
<extensions>
<speed>0.0</speed>
<temp>0.00</temp>
<bpm>0</bpm>
<rpm>0.00</rpm>
</extensions>
</trkpt>
<trkpt lat="63.701622009" lon="-19.645061493">
<ele>142.789063</ele>
<time>2012-07-26T17:07:14Z</time>
<extensions>
<speed>0.0</speed>
<temp>0.00</temp>
<bpm>0</bpm>
<rpm>0.00</rpm>
</extensions>
</trkpt>
<trkpt lat="63.701622009" lon="-19.645061493">
<ele>142.808594</ele>
<time>2012-07-26T17:07:19Z</time>
<speed>0.060000</speed>
<extensions>
<speed>0.1</speed>
<temp>0.00</temp>
<bpm>0</bpm>
<rpm>0.00</rpm>
</extensions>
</trkpt>
<trkpt lat="63.701622009" lon="-19.645059586">
<ele>142.843750</ele>
<time>2012-07-26T17:07:24Z</time>
<extensions>
<speed>0.0</speed>
<temp>0.00</temp>
<bpm>0</bpm>
<rpm>0.00</rpm>
</extensions>
</trkpt>
<trkpt lat="63.701622009" lon="-19.645059586">
<ele>142.847656</ele>
<time>2012-07-26T17:07:29Z</time>
<speed>0.060000</speed>
<extensions>
<speed>0.1</speed>
<temp>0.00</temp>
<bpm>0</bpm>
<rpm>0.00</rpm>
</extensions>
</trkpt>
<trkpt lat="63.701606750" lon="-19.645122528">
<ele>143.300781</ele>
<time>2012-07-26T17:07:34Z</time>
<speed>1.300000</speed>
<extensions>
<speed>1.3</speed>
<temp>0.00</temp>
<bpm>0</bpm>
<rpm>0.00</rpm>
</extensions>
</trkpt>
<trkpt lat="63.701576233" lon="-19.645257950">
<ele>143.414063</ele>
<time>2012-07-26T17:07:39Z</time>
<speed>1.420000</speed>
<extensions>
<speed>1.4</speed>
<temp>0.00</temp>
<bpm>0</bpm>
<rpm>0.00</rpm>
</extensions>
</trkpt>
<trkpt lat="63.701534271" lon="-19.645376205">
<ele>143.722656</ele>
<time>2012-07-26T17:07:44Z</time>
<speed>1.790000</speed>
<extensions>
<speed>1.8</speed>
<temp>0.00</temp>
<bpm>0</bpm>
<rpm>0.00</rpm>
</extensions>
</trkpt>
<trkpt lat="63.701492310" lon="-19.645545959">
<ele>144.351563</ele>
<time>2012-07-26T17:07:49Z</time>
<speed>1.110000</speed>
<extensions>
<speed>1.1</speed>
<temp>0.00</temp>
<bpm>0</bpm>
<rpm>0.00</rpm>
</extensions>
</trkpt>
<trkpt lat="63.701496124" lon="-19.645576477">
<ele>144.875000</ele>
<time>2012-07-26T17:07:54Z</time>
<speed>0.110000</speed>
<extensions>
<speed>0.1</speed>
<temp>0.00</temp>
<bpm>0</bpm>
<rpm>0.00</rpm>
</extensions>
</trkpt>
<trkpt lat="63.701488495" lon="-19.645574570">
<ele>144.921875</ele>
<time>2012-07-26T17:07:59Z</time>
<speed>0.030000</speed>
<extensions>
<speed>0.0</speed>
<temp>0.00</temp>
<bpm>0</bpm>
<rpm>0.00</rpm>
</extensions>
</trkpt>
<trkpt lat="63.701488495" lon="-19.645576477">
<ele>144.941406</ele>
<time>2012-07-26T17:08:04Z</time>
<speed>0.110000</speed>
<extensions>
<speed>0.1</speed>
<temp>0.00</temp>
<bpm>0</bpm>
<rpm>0.00</rpm>
</extensions>
</trkpt>
<trkpt lat="63.701480865" lon="-19.645631790">
<ele>145.195313</ele>
<time>2012-07-26T17:08:09Z</time>
<speed>1.570000</speed>
<extensions>
<speed>1.6</speed>
<temp>0.00</temp>
<bpm>0</bpm>
<rpm>0.00</rpm>
</extensions>
</trkpt>
<trkpt lat="63.701480865" lon="-19.645965576">
<ele>144.363281</ele>
<time>2012-07-26T17:08:14Z</time>
<speed>4.470000</speed>
<extensions>
<speed>4.5</speed>
<temp>0.00</temp>
<bpm>0</bpm>
<rpm>0.00</rpm>
</extensions>
</trkpt>
<trkpt lat="63.701503754" lon="-19.646455765">
<ele>143.066406</ele>
<time>2012-07-26T17:08:19Z</time>
<speed>4.440000</speed>
<extensions>
<speed>4.4</speed>
<temp>0.00</temp>
<bpm>0</bpm>
<rpm>0.00</rpm>
</extensions>
</trkpt>
<trkpt lat="63.701503754" lon="-19.646869659">
<ele>143.316406</ele>
<time>2012-07-26T17:08:24Z</time>
<speed>3.520000</speed>
<extensions>
<speed>3.5</speed>
<temp>0.00</temp>
<bpm>0</bpm>
<rpm>0.00</rpm>
</extensions>
</trkpt>
<trkpt lat="63.701484680" lon="-19.647237778">
<ele>143.558594</ele>
<time>2012-07-26T17:08:29Z</time>
<speed>3.510000</speed>
<extensions>
<speed>3.5</speed>
<temp>0.00</temp>
<bpm>0</bpm>
<rpm>0.00</rpm>
</extensions>
</trkpt>
<trkpt lat="63.701473236" lon="-19.647514343">
<ele>144.570313</ele>
<time>2012-07-26T17:08:34Z</time>
<speed>2.520000</speed>
<extensions>
<speed>2.5</speed>
<temp>0.00</temp>
<bpm>0</bpm>
<rpm>0.00</rpm>
</extensions>
</trkpt>
<trkpt lat="63.701461792" lon="-19.647682190">
<ele>146.187500</ele>
<time>2012-07-26T17:08:39Z</time>
<speed>0.100000</speed>
<extensions>
<speed>0.1</speed>
<temp>0.00</temp>
<bpm>0</bpm>
<rpm>0.00</rpm>
</extensions>
</trkpt>
<trkpt lat="63.701465607" lon="-19.647682190">
<ele>146.136719</ele>
<time>2012-07-26T17:08:44Z</time>
<speed>0.690000</speed>
<extensions>
<speed>0.7</speed>
<temp>0.00</temp>
<bpm>0</bpm>
<rpm>0.00</rpm>
</extensions>
</trkpt>
<trkpt lat="63.701454163" lon="-19.647777557">
<ele>146.164063</ele>
<time>2012-07-26T17:08:49Z</time>
<speed>1.620000</speed>
<extensions>
<speed>1.6</speed>
<temp>0.00</temp>
<bpm>0</bpm>
<rpm>0.00</rpm>
</extensions>
</trkpt>
<trkpt lat="63.701427460" lon="-19.647972107">
<ele>146.746094</ele>
<time>2012-07-26T17:08:54Z</time>
<speed>2.160000</speed>
<extensions>
<speed>2.2</speed>
<temp>0.00</temp>
<bpm>0</bpm>
<rpm>0.00</rpm>
</extensions>
</trkpt>
<trkpt lat="63.701404572" lon="-19.648233414">
<ele>147.453125</ele>
<time>2012-07-26T17:08:59Z</time>
<speed>2.720000</speed>
<extensions>
<speed>2.7</speed>
<temp>0.00</temp>
<bpm>0</bpm>
<rpm>0.00</rpm>
</extensions>
</trkpt>
<trkpt lat="63.701374054" lon="-19.648557663">
<ele>149.171875</ele>
<time>2012-07-26T17:09:04Z</time>
<speed>2.970000</speed>
<extensions>
<speed>3.0</speed>
<temp>0.00</temp>
<bpm>0</bpm>
<rpm>0.00</rpm>
</extensions>
</trkpt>
<trkpt lat="63.701343536" lon="-19.648874283">
<ele>150.058594</ele>
<time>2012-07-26T17:09:09Z</time>
<speed>3.440000</speed>
<extensions>
<speed>3.4</speed>
<temp>0.00</temp>
<bpm>0</bpm>
<rpm>0.00</rpm>
</extensions>
</trkpt>
<trkpt lat="63.701324463" lon="-19.649114609">
<ele>150.453125</ele>
<time>2012-07-26T17:09:14Z</time>
<speed>1.850000</speed>
<extensions>
<speed>1.8</speed>
<temp>0.00</temp>
<bpm>0</bpm>
<rpm>0.00</rpm>
</extensions>
</trkpt>
<trkpt lat="63.701324463" lon="-19.649206161">
<ele>150.929688</ele>
<time>2012-07-26T17:09:19Z</time>
<speed>0.070000</speed>
<extensions>
<speed>0.1</speed>
<temp>0.00</temp>
<bpm>0</bpm>
<rpm>0.00</rpm>
</extensions>
</trkpt>
<trkpt lat="63.701320648" lon="-19.649234772">
<ele>150.968750</ele>
<time>2012-07-26T17:09:24Z</time>
<speed>1.180000</speed>
<extensions>
<speed>1.2</speed>
<temp>0.00</temp>
<bpm>0</bpm>
<rpm>0.00</rpm>
</extensions>
</trkpt>
<trkpt lat="63.701305389" lon="-19.649412155">
<ele>151.589844</ele>
<time>2012-07-26T17:09:29Z</time>
<speed>2.010000</speed>
<extensions>
<speed>2.0</speed>
<temp>0.00</temp>
<bpm>0</bpm>
<rpm>0.00</rpm>
</extensions>
</trkpt>
<trkpt lat="63.701282501" lon="-19.649610519">
<ele>152.132813</ele>
<time>2012-07-26T17:09:34Z</time>
<speed>2.260000</speed>
<extensions>
<speed>2.3</speed>
<temp>0.00</temp>
<bpm>0</bpm>
<rpm>0.00</rpm>
</extensions>
</trkpt>
<trkpt lat="63.701278687" lon="-19.649852753">
<ele>153.726563</ele>
<time>2012-07-26T17:09:39Z</time>
<speed>1.920000</speed>
<extensions>
<speed>1.9</speed>
<temp>0.00</temp>
<bpm>0</bpm>
<rpm>0.00</rpm>
</extensions>
</trkpt>
<trkpt lat="63.701251984" lon="-19.650056839">
<ele>154.339844</ele>
<time>2012-07-26T17:09:44Z</time>
<speed>1.970000</speed>
<extensions>
<speed>2.0</speed>
<temp>0.00</temp>
<bpm>0</bpm>
<rpm>0.00</rpm>
</extensions>
</trkpt>
<trkpt lat="63.701236725" lon="-19.650259018">
<ele>155.445313</ele>
<time>2012-07-26T17:09:49Z</time>
<speed>2.050000</speed>
<extensions>
<speed>2.1</speed>
<temp>0.00</temp>
<bpm>0</bpm>
<rpm>0.00</rpm>
</extensions>
</trkpt>
<trkpt lat="63.701210022" lon="-19.650474548">
<ele>155.898438</ele>
<time>2012-07-26T17:09:54Z</time>
<speed>2.460000</speed>
<extensions>
<speed>2.5</speed>
<temp>0.00</temp>
<bpm>0</bpm>
<rpm>0.00</rpm>
</extensions>
</trkpt>
<trkpt lat="63.701190948" lon="-19.650749207">
<ele>156.277344</ele>
<time>2012-07-26T17:09:59Z</time>
<speed>2.840000</speed>
<extensions>
<speed>2.8</speed>
<temp>0.00</temp>
<bpm>0</bpm>
<rpm>0.00</rpm>
</extensions>
</trkpt>
<trkpt lat="63.701171875" lon="-19.651010513">
<ele>156.433594</ele>
<time>2012-07-26T17:10:04Z</time>
<speed>2.710000</speed>
<extensions>
<speed>2.7</speed>
<temp>0.00</temp>
<bpm>0</bpm>
<rpm>0.00</rpm>
</extensions>
</trkpt>
<trkpt lat="63.701152802" lon="-19.651266098">
<ele>156.777344</ele>
<time>2012-07-26T17:10:09Z</time>
<speed>2.390000</speed>
<extensions>
<speed>2.4</speed>
<temp>0.00</temp>
<bpm>0</bpm>
<rpm>0.00</rpm>
</extensions>
</trkpt>
<trkpt lat="63.701141357" lon="-19.651510239">
<ele>156.558594</ele>
<time>2012-07-26T17:10:14Z</time>
<speed>2.540000</speed>
<extensions>
<speed>2.5</speed>
<temp>0.00</temp>
<bpm>0</bpm>
<rpm>0.00</rpm>
</extensions>
</trkpt>
<trkpt lat="63.701137543" lon="-19.651718140">
<ele>156.566406</ele>
<time>2012-07-26T17:10:19Z</time>
<speed>2.280000</speed>
<extensions>
<speed>2.3</speed>
<temp>0.00</temp>
<bpm>0</bpm>
<rpm>0.00</rpm>
</extensions>
</trkpt>
<trkpt lat="63.701118469" lon="-19.651948929">
<ele>156.683594</ele>
<time>2012-07-26T17:10:24Z</time>
<speed>2.450000</speed>
<extensions>
<speed>2.4</speed>
<temp>0.00</temp>
<bpm>0</bpm>
<rpm>0.00</rpm>
</extensions>
</trkpt>
<trkpt lat="63.701045990" lon="-19.652223587">
<ele>156.500000</ele>
<time>2012-07-26T17:10:29Z</time>
<speed>8.590000</speed>
<extensions>
<speed>8.6</speed>
<temp>0.00</temp>
<bpm>0</bpm>
<rpm>0.00</rpm>
</extensions>
</trkpt>
<trkpt lat="63.701053619" lon="-19.652408600">
<ele>157.183594</ele>
<time>2012-07-26T17:10:34Z</time>
<speed>1.610000</speed>
<extensions>
<speed>1.6</speed>
<temp>0.00</temp>
<bpm>0</bpm>
<rpm>0.00</rpm>
</extensions>
</trkpt>
<trkpt lat="63.701076508" lon="-19.652519226">
<ele>157.113281</ele>
<time>2012-07-26T17:10:39Z</time>
<speed>1.630000</speed>
<extensions>
<speed>1.6</speed>
<temp>0.00</temp>
<bpm>0</bpm>
<rpm>0.00</rpm>
</extensions>
</trkpt>
<trkpt lat="63.701087952" lon="-19.652729034">
<ele>156.335938</ele>
<time>2012-07-26T17:10:44Z</time>
<speed>2.410000</speed>
<extensions>
<speed>2.4</speed>
<temp>0.00</temp>
<bpm>0</bpm>
<rpm>0.00</rpm>
</extensions>
</trkpt>
<trkpt lat="63.701114655" lon="-19.652978897">
<ele>156.007813</ele>
<time>2012-07-26T17:10:49Z</time>
<speed>2.360000</speed>
<extensions>
<speed>2.4</speed>
<temp>0.00</temp>
<bpm>0</bpm>
<rpm>0.00</rpm>
</extensions>
</trkpt>
<trkpt lat="63.701137543" lon="-19.653202057">
<ele>155.468750</ele>
<time>2012-07-26T17:10:54Z</time>
<speed>2.370000</speed>
<extensions>
<speed>2.4</speed>
<temp>0.00</temp>
<bpm>0</bpm>
<rpm>0.00</rpm>
</extensions>
</trkpt>
<trkpt lat="63.701171875" lon="-19.653467178">
<ele>155.667969</ele>
<time>2012-07-26T17:10:59Z</time>
<speed>2.940000</speed>
<extensions>
<speed>2.9</speed>
<temp>0.00</temp>
<bpm>0</bpm>
<rpm>0.00</rpm>
</extensions>
</trkpt>
<trkpt lat="63.701217651" lon="-19.653743744">
<ele>155.351563</ele>
<time>2012-07-26T17:11:04Z</time>
<speed>2.800000</speed>
<extensions>
<speed>2.8</speed>
<temp>0.00</temp>
<bpm>0</bpm>
<rpm>0.00</rpm>
</extensions>
</trkpt>
<trkpt lat="63.701259613" lon="-19.653980255">
<ele>155.339844</ele>
<time>2012-07-26T17:11:09Z</time>
<speed>2.200000</speed>
<extensions>
<speed>2.2</speed>
<temp>0.00</temp>
<bpm>0</bpm>
<rpm>0.00</rpm>
</extensions>
</trkpt>
<trkpt lat="63.701290131" lon="-19.654197693">
<ele>155.367188</ele>
<time>2012-07-26T17:11:14Z</time>
<speed>2.550000</speed>
<extensions>
<speed>2.6</speed>
<temp>0.00</temp>
<bpm>0</bpm>
<rpm>0.00</rpm>
</extensions>
</trkpt>
<trkpt lat="63.701328278" lon="-19.654449463">
<ele>154.644531</ele>
<time>2012-07-26T17:11:19Z</time>
<speed>2.730000</speed>
<extensions>
<speed>2.7</speed>
<temp>0.00</temp>
<bpm>0</bpm>
<rpm>0.00</rpm>
</extensions>
</trkpt>
<trkpt lat="63.701370239" lon="-19.654684067">
<ele>152.843750</ele>
<time>2012-07-26T17:11:24Z</time>
<speed>2.250000</speed>
<extensions>
<speed>2.3</speed>
<temp>0.00</temp>
<bpm>0</bpm>
<rpm>0.00</rpm>
</extensions>
</trkpt>
<trkpt lat="63.701404572" lon="-19.654907227">
<ele>151.894531</ele>
<time>2012-07-26T17:11:29Z</time>
<speed>2.270000</speed>
<extensions>
<speed>2.3</speed>
<temp>0.00</temp>
<bpm>0</bpm>
<rpm>0.00</rpm>
</extensions>
</trkpt>
<trkpt lat="63.701442719" lon="-19.655155182">
<ele>151.796875</ele>
<time>2012-07-26T17:11:34Z</time>
<speed>2.590000</speed>
<extensions>
<speed>2.6</speed>
<temp>0.00</temp>
<bpm>0</bpm>
<rpm>0.00</rpm>
</extensions>
</trkpt>
<trkpt lat="63.701473236" lon="-19.655433655">
<ele>151.718750</ele>
<time>2012-07-26T17:11:39Z</time>
<speed>2.430000</speed>
<extensions>
<speed>2.4</speed>
<temp>0.00</temp>
<bpm>0</bpm>
<rpm>0.00</rpm>
</extensions>
</trkpt>
<trkpt lat="63.701503754" lon="-19.655727386">
<ele>152.683594</ele>
<time>2012-07-26T17:11:44Z</time>
<speed>2.760000</speed>
<extensions>
<speed>2.8</speed>
<temp>0.00</temp>
<bpm>0</bpm>
<rpm>0.00</rpm>
</extensions>
</trkpt>
<trkpt lat="63.701522827" lon="-19.655990601">
<ele>153.011719</ele>
<time>2012-07-26T17:11:49Z</time>
<speed>2.610000</speed>
<extensions>
<speed>2.6</speed>
<temp>0.00</temp>
<bpm>0</bpm>
<rpm>0.00</rpm>
</extensions>
</trkpt>
<trkpt lat="63.701541901" lon="-19.656246185">
<ele>153.128906</ele>
<time>2012-07-26T17:11:54Z</time>
<speed>2.450000</speed>
<extensions>
<speed>2.4</speed>
<temp>0.00</temp>
<bpm>0</bpm>
<rpm>0.00</rpm>
</extensions>
</trkpt>
<trkpt lat="63.701541901" lon="-19.656513214">
<ele>153.886719</ele>
<time>2012-07-26T17:11:59Z</time>
<speed>2.390000</speed>
<extensions>
<speed>2.4</speed>
<temp>0.00</temp>
<bpm>0</bpm>
<rpm>0.00</rpm>
</extensions>
</trkpt>
<trkpt lat="63.701557159" lon="-19.656740189">
<ele>153.007813</ele>
<time>2012-07-26T17:12:04Z</time>
<speed>2.070000</speed>
<extensions>
<speed>2.1</speed>
<temp>0.00</temp>
<bpm>0</bpm>
<rpm>0.00</rpm>
</extensions>
</trkpt>
<trkpt lat="63.701560974" lon="-19.656961441">
<ele>153.031250</ele>
<time>2012-07-26T17:12:09Z</time>
<speed>2.060000</speed>
<extensions>
<speed>2.1</speed>
<temp>0.00</temp>
<bpm>0</bpm>
<rpm>0.00</rpm>
</extensions>
</trkpt>
<trkpt lat="63.701576233" lon="-19.657194138">
<ele>153.031250</ele>
<time>2012-07-26T17:12:14Z</time>
<speed>2.250000</speed>
<extensions>
<speed>2.3</speed>
<temp>0.00</temp>
<bpm>0</bpm>
<rpm>0.00</rpm>
</extensions>
</trkpt>
<trkpt lat="63.701591492" lon="-19.657417297">
<ele>153.085938</ele>
<time>2012-07-26T17:12:19Z</time>
<speed>2.640000</speed>
<extensions>
<speed>2.6</speed>
<temp>0.00</temp>
<bpm>0</bpm>
<rpm>0.00</rpm>
</extensions>
</trkpt>
<trkpt lat="63.701618195" lon="-19.657678604">
<ele>153.359375</ele>
<time>2012-07-26T17:12:24Z</time>
<speed>2.430000</speed>
<extensions>
<speed>2.4</speed>
<temp>0.00</temp>
<bpm>0</bpm>
<rpm>0.00</rpm>
</extensions>
</trkpt>
<trkpt lat="63.701644897" lon="-19.657911301">
<ele>153.203125</ele>
<time>2012-07-26T17:12:29Z</time>
<speed>2.390000</speed>
<extensions>
<speed>2.4</speed>
<temp>0.00</temp>
<bpm>0</bpm>
<rpm>0.00</rpm>
</extensions>
</trkpt>
<trkpt lat="63.701671600" lon="-19.658142090">
<ele>153.007813</ele>
<time>2012-07-26T17:12:34Z</time>
<speed>2.480000</speed>
<extensions>
<speed>2.5</speed>
<temp>0.00</temp>
<bpm>0</bpm>
<rpm>0.00</rpm>
</extensions>
</trkpt>
<trkpt lat="63.701702118" lon="-19.658382416">
<ele>152.824219</ele>
<time>2012-07-26T17:12:39Z</time>
<speed>2.460000</speed>
<extensions>
<speed>2.5</speed>
<temp>0.00</temp>
<bpm>0</bpm>
<rpm>0.00</rpm>
</extensions>
</trkpt>
<trkpt lat="63.701732635" lon="-19.658624649">
<ele>152.156250</ele>
<time>2012-07-26T17:12:44Z</time>
<speed>2.750000</speed>
<extensions>
<speed>2.7</speed>
<temp>0.00</temp>
<bpm>0</bpm>
<rpm>0.00</rpm>
</extensions>
</trkpt>
<trkpt lat="63.701763153" lon="-19.658895493">
<ele>152.003906</ele>
<time>2012-07-26T17:12:49Z</time>
<speed>2.450000</speed>
<extensions>
<speed>2.4</speed>
<temp>0.00</temp>
<bpm>0</bpm>
<rpm>0.00</rpm>
</extensions>
</trkpt>
<trkpt lat="63.701786041" lon="-19.659135818">
<ele>151.125000</ele>
<time>2012-07-26T17:12:54Z</time>
<speed>2.670000</speed>
<extensions>
<speed>2.7</speed>
<temp>0.00</temp>
<bpm>0</bpm>
<rpm>0.00</rpm>
</extensions>
</trkpt>
<trkpt lat="63.701801300" lon="-19.659353256">
<ele>150.925781</ele>
<time>2012-07-26T17:12:59Z</time>
<speed>2.500000</speed>
<extensions>
<speed>2.5</speed>
<temp>0.00</temp>
<bpm>0</bpm>
<rpm>0.00</rpm>
</extensions>
</trkpt>
<trkpt lat="63.701812744" lon="-19.659606934">
<ele>149.359375</ele>
<time>2012-07-26T17:13:04Z</time>
<speed>2.910000</speed>
<extensions>
<speed>2.9</speed>
<temp>0.00</temp>
<bpm>0</bpm>
<rpm>0.00</rpm>
</extensions>
</trkpt>
<trkpt lat="63.701820374" lon="-19.659910202">
<ele>149.632813</ele>
<time>2012-07-26T17:13:09Z</time>
<speed>3.160000</speed>
<extensions>
<speed>3.2</speed>
<temp>0.00</temp>
<bpm>0</bpm>
<rpm>0.00</rpm>
</extensions>
</trkpt>
<trkpt lat="63.701820374" lon="-19.660198212">
<ele>149.339844</ele>
<time>2012-07-26T17:13:14Z</time>
<speed>2.720000</speed>
<extensions>
<speed>2.7</speed>
<temp>0.00</temp>
<bpm>0</bpm>
<rpm>0.00</rpm>
</extensions>
</trkpt>
<trkpt lat="63.701808929" lon="-19.660505295">
<ele>148.964844</ele>
<time>2012-07-26T17:13:19Z</time>
<speed>2.680000</speed>
<extensions>
<speed>2.7</speed>
<temp>0.00</temp>
<bpm>0</bpm>
<rpm>0.00</rpm>
</extensions>
</trkpt>
<trkpt lat="63.701824188" lon="-19.660806656">
<ele>148.992188</ele>
<time>2012-07-26T17:13:24Z</time>
<speed>2.750000</speed>
<extensions>
<speed>2.7</speed>
<temp>0.00</temp>
<bpm>0</bpm>
<rpm>0.00</rpm>
</extensions>
</trkpt>
<trkpt lat="63.701850891" lon="-19.661111832">
<ele>150.457031</ele>
<time>2012-07-26T17:13:29Z</time>
<speed>3.180000</speed>
<extensions>
<speed>3.2</speed>
<temp>0.00</temp>
<bpm>0</bpm>
<rpm>0.00</rpm>
</extensions>
</trkpt>
<trkpt lat="63.701892853" lon="-19.661397934">
<ele>151.246094</ele>
<time>2012-07-26T17:13:34Z</time>
<speed>2.440000</speed>
<extensions>
<speed>2.4</speed>
<temp>0.00</temp>
<bpm>0</bpm>
<rpm>0.00</rpm>
</extensions>
</trkpt>
<trkpt lat="63.701946259" lon="-19.661619186">
<ele>151.121094</ele>
<time>2012-07-26T17:13:39Z</time>
<speed>2.420000</speed>
<extensions>
<speed>2.4</speed>
<temp>0.00</temp>
<bpm>0</bpm>
<rpm>0.00</rpm>
</extensions>
</trkpt>
<trkpt lat="63.701992035" lon="-19.661855698">
<ele>151.062500</ele>
<time>2012-07-26T17:13:44Z</time>
<speed>1.960000</speed>
<extensions>
<speed>2.0</speed>
<temp>0.00</temp>
<bpm>0</bpm>
<rpm>0.00</rpm>
</extensions>
</trkpt>
<trkpt lat="63.702041626" lon="-19.662054062">
<ele>150.722656</ele>
<time>2012-07-26T17:13:49Z</time>
<speed>2.460000</speed>
<extensions>
<speed>2.5</speed>
<temp>0.00</temp>
<bpm>0</bpm>
<rpm>0.00</rpm>
</extensions>
</trkpt>
<trkpt lat="63.702087402" lon="-19.662298203">
<ele>150.148438</ele>
<time>2012-07-26T17:13:54Z</time>
<speed>2.490000</speed>
<extensions>
<speed>2.5</speed>
<temp>0.00</temp>
<bpm>0</bpm>
<rpm>0.00</rpm>
</extensions>
</trkpt>
<trkpt lat="63.702133179" lon="-19.662569046">
<ele>149.617188</ele>
<time>2012-07-26T17:13:59Z</time>
<speed>2.480000</speed>
<extensions>
<speed>2.5</speed>
<temp>0.00</temp>
<bpm>0</bpm>
<rpm>0.00</rpm>
</extensions>
</trkpt>
<trkpt lat="63.702159882" lon="-19.662796021">
<ele>149.828125</ele>
<time>2012-07-26T17:14:04Z</time>
<speed>2.150000</speed>
<extensions>
<speed>2.1</speed>
<temp>0.00</temp>
<bpm>0</bpm>
<rpm>0.00</rpm>
</extensions>
</trkpt>
<trkpt lat="63.702186584" lon="-19.663005829">
<ele>149.207031</ele>
<time>2012-07-26T17:14:09Z</time>
<speed>2.260000</speed>
<extensions>
<speed>2.3</speed>
<temp>0.00</temp>
<bpm>0</bpm>
<rpm>0.00</rpm>
</extensions>
</trkpt>
<trkpt lat="63.702201843" lon="-19.663322449">
<ele>148.585938</ele>
<time>2012-07-26T17:14:14Z</time>
<speed>3.150000</speed>
<extensions>
<speed>3.2</speed>
<temp>0.00</temp>
<bpm>0</bpm>
<rpm>0.00</rpm>
</extensions>
</trkpt>
<trkpt lat="63.702205658" lon="-19.663589478">
<ele>148.105469</ele>
<time>2012-07-26T17:14:19Z</time>
<speed>2.380000</speed>
<extensions>
<speed>2.4</speed>
<temp>0.00</temp>
<bpm>0</bpm>
<rpm>0.00</rpm>
</extensions>
</trkpt>
<trkpt lat="63.702190399" lon="-19.663864136">
<ele>148.070313</ele>
<time>2012-07-26T17:14:24Z</time>
<speed>2.650000</speed>
<extensions>
<speed>2.6</speed>
<temp>0.00</temp>
<bpm>0</bpm>
<rpm>0.00</rpm>
</extensions>
</trkpt>
<trkpt lat="63.702136993" lon="-19.664148331">
<ele>147.203125</ele>
<time>2012-07-26T17:14:29Z</time>
<speed>3.360000</speed>
<extensions>
<speed>3.4</speed>
<temp>0.00</temp>
<bpm>0</bpm>
<rpm>0.00</rpm>
</extensions>
</trkpt>
<trkpt lat="63.702125549" lon="-19.664480209">
<ele>146.960938</ele>
<time>2012-07-26T17:14:34Z</time>
<speed>2.800000</speed>
<extensions>
<speed>2.8</speed>
<temp>0.00</temp>
<bpm>0</bpm>
<rpm>0.00</rpm>
</extensions>
</trkpt>
<trkpt lat="63.702129364" lon="-19.664770126">
<ele>146.917969</ele>
<time>2012-07-26T17:14:39Z</time>
<speed>2.720000</speed>
<extensions>
<speed>2.7</speed>
<temp>0.00</temp>
<bpm>0</bpm>
<rpm>0.00</rpm>
</extensions>
</trkpt>
<trkpt lat="63.702152252" lon="-19.665081024">
<ele>147.675781</ele>
<time>2012-07-26T17:14:44Z</time>
<speed>3.160000</speed>
<extensions>
<speed>3.2</speed>
<temp>0.00</temp>
<bpm>0</bpm>
<rpm>0.00</rpm>
</extensions>
</trkpt>
<trkpt lat="63.702178955" lon="-19.665349960">
<ele>148.535156</ele>
<time>2012-07-26T17:14:49Z</time>
<speed>2.770000</speed>
<extensions>
<speed>2.8</speed>
<temp>0.00</temp>
<bpm>0</bpm>
<rpm>0.00</rpm>
</extensions>
</trkpt>
<trkpt lat="63.702190399" lon="-19.665636063">
<ele>148.750000</ele>
<time>2012-07-26T17:14:54Z</time>
<speed>3.250000</speed>
<extensions>
<speed>3.2</speed>
<temp>0.00</temp>
<bpm>0</bpm>
<rpm>0.00</rpm>
</extensions>
</trkpt>
<trkpt lat="63.702205658" lon="-19.665973663">
<ele>148.558594</ele>
<time>2012-07-26T17:14:59Z</time>
<speed>3.330000</speed>
<extensions>
<speed>3.3</speed>
<temp>0.00</temp>
<bpm>0</bpm>
<rpm>0.00</rpm>
</extensions>
</trkpt>
<trkpt lat="63.702224731" lon="-19.666336060">
<ele>147.488281</ele>
<time>2012-07-26T17:15:04Z</time>
<speed>3.370000</speed>
<extensions>
<speed>3.4</speed>
<temp>0.00</temp>
<bpm>0</bpm>
<rpm>0.00</rpm>
</extensions>
</trkpt>
<trkpt lat="63.702247620" lon="-19.666645050">
<ele>146.015625</ele>
<time>2012-07-26T17:15:09Z</time>
<speed>2.910000</speed>
<extensions>
<speed>2.9</speed>
<temp>0.00</temp>
<bpm>0</bpm>
<rpm>0.00</rpm>
</extensions>
</trkpt>
<trkpt lat="63.702251434" lon="-19.666959763">
<ele>146.390625</ele>
<time>2012-07-26T17:15:14Z</time>
<speed>2.850000</speed>
<extensions>
<speed>2.9</speed>
<temp>0.00</temp>
<bpm>0</bpm>
<rpm>0.00</rpm>
</extensions>
</trkpt>
<trkpt lat="63.702274323" lon="-19.667274475">
<ele>146.843750</ele>
<time>2012-07-26T17:15:19Z</time>
<speed>3.480000</speed>
<extensions>
<speed>3.5</speed>
<temp>0.00</temp>
<bpm>0</bpm>
<rpm>0.00</rpm>
</extensions>
</trkpt>
<trkpt lat="63.702297211" lon="-19.667591095">
<ele>147.156250</ele>
<time>2012-07-26T17:15:24Z</time>
<speed>3.050000</speed>
<extensions>
<speed>3.0</speed>
<temp>0.00</temp>
<bpm>0</bpm>
<rpm>0.00</rpm>
</extensions>
</trkpt>
<trkpt lat="63.702339172" lon="-19.667858124">
<ele>145.453125</ele>
<time>2012-07-26T17:15:29Z</time>
<speed>2.430000</speed>
<extensions>
<speed>2.4</speed>
<temp>0.00</temp>
<bpm>0</bpm>
<rpm>0.00</rpm>
</extensions>
</trkpt>
<trkpt lat="63.702339172" lon="-19.668075562">
<ele>145.113281</ele>
<time>2012-07-26T17:15:34Z</time>
<speed>1.430000</speed>
<extensions>
<speed>1.4</speed>
<temp>0.00</temp>
<bpm>0</bpm>
<rpm>0.00</rpm>
</extensions>
</trkpt>
<trkpt lat="63.702323914" lon="-19.668285370">
<ele>145.687500</ele>
<time>2012-07-26T17:15:39Z</time>
<speed>2.430000</speed>
<extensions>
<speed>2.4</speed>
<temp>0.00</temp>
<bpm>0</bpm>
<rpm>0.00</rpm>
</extensions>
</trkpt>
<trkpt lat="63.702339172" lon="-19.668491364">
<ele>140.171875</ele>
<time>2012-07-26T17:15:44Z</time>
<speed>2.460000</speed>
<extensions>
<speed>2.5</speed>
<temp>0.00</temp>
<bpm>0</bpm>
<rpm>0.00</rpm>
</extensions>
</trkpt>
<trkpt lat="63.702339172" lon="-19.668706894">
<ele>138.851563</ele>
<time>2012-07-26T17:15:49Z</time>
<speed>1.960000</speed>
<extensions>
<speed>2.0</speed>
<temp>0.00</temp>
<bpm>0</bpm>
<rpm>0.00</rpm>
</extensions>
</trkpt>
<trkpt lat="63.702327728" lon="-19.668943405">
<ele>138.679688</ele>
<time>2012-07-26T17:15:54Z</time>
<speed>2.670000</speed>
<extensions>
<speed>2.7</speed>
<temp>0.00</temp>
<bpm>0</bpm>
<rpm>0.00</rpm>
</extensions>
</trkpt>
<trkpt lat="63.702320099" lon="-19.669235229">
<ele>137.558594</ele>
<time>2012-07-26T17:15:59Z</time>
<speed>2.920000</speed>
<extensions>
<speed>2.9</speed>
<temp>0.00</temp>
<bpm>0</bpm>
<rpm>0.00</rpm>
</extensions>
</trkpt>
<trkpt lat="63.702297211" lon="-19.669502258">
<ele>136.156250</ele>
<time>2012-07-26T17:16:04Z</time>
<speed>2.590000</speed>
<extensions>
<speed>2.6</speed>
<temp>0.00</temp>
<bpm>0</bpm>
<rpm>0.00</rpm>
</extensions>
</trkpt>
<trkpt lat="63.702259064" lon="-19.669799805">
<ele>135.546875</ele>
<time>2012-07-26T17:16:09Z</time>
<speed>2.430000</speed>
<extensions>
<speed>2.4</speed>
<temp>0.00</temp>
<bpm>0</bpm>
<rpm>0.00</rpm>
</extensions>
</trkpt>
<trkpt lat="63.702289581" lon="-19.670143127">
<ele>135.007813</ele>
<time>2012-07-26T17:16:14Z</time>
<speed>3.330000</speed>
<extensions>
<speed>3.3</speed>
<temp>0.00</temp>
<bpm>0</bpm>
<rpm>0.00</rpm>
</extensions>
</trkpt>
<trkpt lat="63.702316284" lon="-19.670497894">
<ele>135.511719</ele>
<time>2012-07-26T17:16:19Z</time>
<speed>3.450000</speed>
<extensions>
<speed>3.5</speed>
<temp>0.00</temp>
<bpm>0</bpm>
<rpm>0.00</rpm>
</extensions>
</trkpt>
<trkpt lat="63.702297211" lon="-19.670866013">
<ele>134.855469</ele>
<time>2012-07-26T17:16:24Z</time>
<speed>3.330000</speed>
<extensions>
<speed>3.3</speed>
<temp>0.00</temp>
<bpm>0</bpm>
<rpm>0.00</rpm>
</extensions>
</trkpt>
<trkpt lat="63.702293396" lon="-19.671146393">
<ele>134.546875</ele>
<time>2012-07-26T17:16:29Z</time>
<speed>2.730000</speed>
<extensions>
<speed>2.7</speed>
<temp>0.00</temp>
<bpm>0</bpm>
<rpm>0.00</rpm>
</extensions>
</trkpt>
<trkpt lat="63.702312469" lon="-19.671421051">
<ele>133.167969</ele>
<time>2012-07-26T17:16:34Z</time>
<speed>3.350000</speed>
<extensions>
<speed>3.4</speed>
<temp>0.00</temp>
<bpm>0</bpm>
<rpm>0.00</rpm>
</extensions>
</trkpt>
<trkpt lat="63.702308655" lon="-19.671739578">
<ele>132.171875</ele>
<time>2012-07-26T17:16:39Z</time>
<speed>2.940000</speed>
<extensions>
<speed>2.9</speed>
<temp>0.00</temp>
<bpm>0</bpm>
<rpm>0.00</rpm>
</extensions>
</trkpt>
<trkpt lat="63.702308655" lon="-19.672031403">
<ele>135.003906</ele>
<time>2012-07-26T17:16:44Z</time>
<speed>2.760000</speed>
<extensions>
<speed>2.8</speed>
<temp>0.00</temp>
<bpm>0</bpm>
<rpm>0.00</rpm>
</extensions>
</trkpt>
<trkpt lat="63.702304840" lon="-19.672292709">
<ele>136.757813</ele>
<time>2012-07-26T17:16:49Z</time>
<speed>2.190000</speed>
<extensions>
<speed>2.2</speed>
<temp>0.00</temp>
<bpm>0</bpm>
<rpm>0.00</rpm>
</extensions>
</trkpt>
<trkpt lat="63.702293396" lon="-19.672565460">
<ele>139.000000</ele>
<time>2012-07-26T17:16:54Z</time>
<speed>2.820000</speed>
<extensions>
<speed>2.8</speed>
<temp>0.00</temp>
<bpm>0</bpm>
<rpm>0.00</rpm>
</extensions>
</trkpt>
<trkpt lat="63.702281952" lon="-19.672796249">
<ele>141.625000</ele>
<time>2012-07-26T17:16:59Z</time>
<speed>1.130000</speed>
<extensions>
<speed>1.1</speed>
<temp>0.00</temp>
<bpm>0</bpm>
<rpm>0.00</rpm>
</extensions>
</trkpt>
<trkpt lat="63.702285767" lon="-19.672935486">
<ele>144.886719</ele>
<time>2012-07-26T17:17:04Z</time>
<speed>1.490000</speed>
<extensions>
<speed>1.5</speed>
<temp>0.00</temp>
<bpm>0</bpm>
<rpm>0.00</rpm>
</extensions>
</trkpt>
<trkpt lat="63.702293396" lon="-19.673097610">
<ele>145.390625</ele>
<time>2012-07-26T17:17:09Z</time>
<speed>1.550000</speed>
<extensions>
<speed>1.5</speed>
<temp>0.00</temp>
<bpm>0</bpm>
<rpm>0.00</rpm>
</extensions>
</trkpt>
<trkpt lat="63.702304840" lon="-19.673265457">
<ele>147.242188</ele>
<time>2012-07-26T17:17:14Z</time>
<speed>1.580000</speed>
<extensions>
<speed>1.6</speed>
<temp>0.00</temp>
<bpm>0</bpm>
<rpm>0.00</rpm>
</extensions>
</trkpt>
<trkpt lat="63.702312469" lon="-19.673429489">
<ele>148.359375</ele>
<time>2012-07-26T17:17:19Z</time>
<speed>1.800000</speed>
<extensions>
<speed>1.8</speed>
<temp>0.00</temp>
<bpm>0</bpm>
<rpm>0.00</rpm>
</extensions>
</trkpt>
<trkpt lat="63.702323914" lon="-19.673585892">
<ele>147.769531</ele>
<time>2012-07-26T17:17:24Z</time>
<speed>1.270000</speed>
<extensions>
<speed>1.3</speed>
<temp>0.00</temp>
<bpm>0</bpm>
<rpm>0.00</rpm>
</extensions>
</trkpt>
<trkpt lat="63.702331543" lon="-19.673749924">
<ele>147.785156</ele>
<time>2012-07-26T17:17:29Z</time>
<speed>1.790000</speed>
<extensions>
<speed>1.8</speed>
<temp>0.00</temp>
<bpm>0</bpm>
<rpm>0.00</rpm>
</extensions>
</trkpt>
<trkpt lat="63.702342987" lon="-19.673946381">
<ele>147.457031</ele>
<time>2012-07-26T17:17:34Z</time>
<speed>1.790000</speed>
<extensions>
<speed>1.8</speed>
<temp>0.00</temp>
<bpm>0</bpm>
<rpm>0.00</rpm>
</extensions>
</trkpt>
<trkpt lat="63.702362061" lon="-19.674194336">
<ele>147.675781</ele>
<time>2012-07-26T17:17:39Z</time>
<speed>2.960000</speed>
<extensions>
<speed>3.0</speed>
<temp>0.00</temp>
<bpm>0</bpm>
<rpm>0.00</rpm>
</extensions>
</trkpt>
<trkpt lat="63.702388763" lon="-19.674514771">
<ele>145.335938</ele>
<time>2012-07-26T17:17:44Z</time>
<speed>3.570000</speed>
<extensions>
<speed>3.6</speed>
<temp>0.00</temp>
<bpm>0</bpm>
<rpm>0.00</rpm>
</extensions>
</trkpt>
<trkpt lat="63.702434540" lon="-19.674903870">
<ele>144.425781</ele>
<time>2012-07-26T17:17:49Z</time>
<speed>3.940000</speed>
<extensions>
<speed>3.9</speed>
<temp>0.00</temp>
<bpm>0</bpm>
<rpm>0.00</rpm>
</extensions>
</trkpt>
<trkpt lat="63.702472687" lon="-19.675245285">
<ele>142.796875</ele>
<time>2012-07-26T17:17:54Z</time>
<speed>2.720000</speed>
<extensions>
<speed>2.7</speed>
<temp>0.00</temp>
<bpm>0</bpm>
<rpm>0.00</rpm>
</extensions>
</trkpt>
<trkpt lat="63.702491760" lon="-19.675453186">
<ele>141.507813</ele>
<time>2012-07-26T17:17:59Z</time>
<speed>2.280000</speed>
<extensions>
<speed>2.3</speed>
<temp>0.00</temp>
<bpm>0</bpm>
<rpm>0.00</rpm>
</extensions>
</trkpt>
<trkpt lat="63.702495575" lon="-19.675710678">
<ele>139.554688</ele>
<time>2012-07-26T17:18:04Z</time>
<speed>2.690000</speed>
<extensions>
<speed>2.7</speed>
<temp>0.00</temp>
<bpm>0</bpm>
<rpm>0.00</rpm>
</extensions>
</trkpt>
<trkpt lat="63.702487946" lon="-19.675979614">
<ele>141.269531</ele>
<time>2012-07-26T17:18:09Z</time>
<speed>2.380000</speed>
<extensions>
<speed>2.4</speed>
<temp>0.00</temp>
<bpm>0</bpm>
<rpm>0.00</rpm>
</extensions>
</trkpt>
<trkpt lat="63.702480316" lon="-19.676137924">
<ele>143.511719</ele>
<time>2012-07-26T17:18:14Z</time>
<speed>1.250000</speed>
<extensions>
<speed>1.3</speed>
<temp>0.00</temp>
<bpm>0</bpm>
<rpm>0.00</rpm>
</extensions>
</trkpt>
<trkpt lat="63.702461243" lon="-19.676303864">
<ele>144.750000</ele>
<time>2012-07-26T17:18:19Z</time>
<speed>1.790000</speed>
<extensions>
<speed>1.8</speed>
<temp>0.00</temp>
<bpm>0</bpm>
<rpm>0.00</rpm>
</extensions>
</trkpt>
<trkpt lat="63.702438354" lon="-19.676509857">
<ele>145.304688</ele>
<time>2012-07-26T17:18:24Z</time>
<speed>1.850000</speed>
<extensions>
<speed>1.8</speed>
<temp>0.00</temp>
<bpm>0</bpm>
<rpm>0.00</rpm>
</extensions>
</trkpt>
<trkpt lat="63.702411652" lon="-19.676744461">
<ele>145.335938</ele>
<time>2012-07-26T17:18:29Z</time>
<speed>2.940000</speed>
<extensions>
<speed>2.9</speed>
<temp>0.00</temp>
<bpm>0</bpm>
<rpm>0.00</rpm>
</extensions>
</trkpt>
<trkpt lat="63.702400208" lon="-19.676998138">
<ele>146.539063</ele>
<time>2012-07-26T17:18:34Z</time>
<speed>1.980000</speed>
<extensions>
<speed>2.0</speed>
<temp>0.00</temp>
<bpm>0</bpm>
<rpm>0.00</rpm>
</extensions>
</trkpt>
<trkpt lat="63.702373505" lon="-19.677179337">
<ele>147.000000</ele>
<time>2012-07-26T17:18:39Z</time>
<speed>1.940000</speed>
<extensions>
<speed>1.9</speed>
<temp>0.00</temp>
<bpm>0</bpm>
<rpm>0.00</rpm>
</extensions>
</trkpt>
<trkpt lat="63.702327728" lon="-19.677398682">
<ele>146.996094</ele>
<time>2012-07-26T17:18:44Z</time>
<speed>1.990000</speed>
<extensions>
<speed>2.0</speed>
<temp>0.00</temp>
<bpm>0</bpm>
<rpm>0.00</rpm>
</extensions>
</trkpt>
<trkpt lat="63.702342987" lon="-19.677482605">
<ele>147.234375</ele>
<time>2012-07-26T17:18:49Z</time>
<speed>0.460000</speed>
<extensions>
<speed>0.5</speed>
<temp>0.00</temp>
<bpm>0</bpm>
<rpm>0.00</rpm>
</extensions>
</trkpt>
<trkpt lat="63.702350616" lon="-19.677492142">
<ele>147.011719</ele>
<time>2012-07-26T17:18:54Z</time>
<speed>0.070000</speed>
<extensions>
<speed>0.1</speed>
<temp>0.00</temp>
<bpm>0</bpm>
<rpm>0.00</rpm>
</extensions>
</trkpt>
<trkpt lat="63.702346802" lon="-19.677494049">
<ele>147.156250</ele>
<time>2012-07-26T17:18:59Z</time>
<speed>0.020000</speed>
<extensions>
<speed>0.0</speed>
<temp>0.00</temp>
<bpm>0</bpm>
<rpm>0.00</rpm>
</extensions>
</trkpt>
<trkpt lat="63.702346802" lon="-19.677495956">
<ele>147.050781</ele>
<time>2012-07-26T17:19:04Z</time>
<speed>0.190000</speed>
<extensions>
<speed>0.2</speed>
<temp>0.00</temp>
<bpm>0</bpm>
<rpm>0.00</rpm>
</extensions>
</trkpt>
<trkpt lat="63.702346802" lon="-19.677497864">
<ele>146.972656</ele>
<time>2012-07-26T17:19:09Z</time>
<speed>0.010000</speed>
<extensions>
<speed>0.0</speed>
<temp>0.00</temp>
<bpm>0</bpm>
<rpm>0.00</rpm>
</extensions>
</trkpt>
<trkpt lat="63.702346802" lon="-19.677497864">
<ele>146.925781</ele>
<time>2012-07-26T17:19:14Z</time>
<speed>0.010000</speed>
<extensions>
<speed>0.0</speed>
<temp>0.00</temp>
<bpm>0</bpm>
<rpm>0.00</rpm>
</extensions>
</trkpt>
<trkpt lat="63.702346802" lon="-19.677499771">
<ele>146.839844</ele>
<time>2012-07-26T17:19:19Z</time>
<speed>0.070000</speed>
<extensions>
<speed>0.1</speed>
<temp>0.00</temp>
<bpm>0</bpm>
<rpm>0.00</rpm>
</extensions>
</trkpt>
<trkpt lat="63.702342987" lon="-19.677507401">
<ele>146.808594</ele>
<time>2012-07-26T17:19:24Z</time>
<speed>0.510000</speed>
<extensions>
<speed>0.5</speed>
<temp>0.00</temp>
<bpm>0</bpm>
<rpm>0.00</rpm>
</extensions>
</trkpt>
<trkpt lat="63.702354431" lon="-19.677537918">
<ele>147.195313</ele>
<time>2012-07-26T17:19:29Z</time>
<speed>0.150000</speed>
<extensions>
<speed>0.2</speed>
<temp>0.00</temp>
<bpm>0</bpm>
<rpm>0.00</rpm>
</extensions>
</trkpt>
<trkpt lat="63.702350616" lon="-19.677541733">
<ele>147.671875</ele>
<time>2012-07-26T17:19:34Z</time>
<speed>0.050000</speed>
<extensions>
<speed>0.1</speed>
<temp>0.00</temp>
<bpm>0</bpm>
<rpm>0.00</rpm>
</extensions>
</trkpt>
<trkpt lat="63.702342987" lon="-19.677539825">
<ele>147.730469</ele>
<time>2012-07-26T17:19:39Z</time>
<speed>0.220000</speed>
<extensions>
<speed>0.2</speed>
<temp>0.00</temp>
<bpm>0</bpm>
<rpm>0.00</rpm>
</extensions>
</trkpt>
<trkpt lat="63.702331543" lon="-19.677562714">
<ele>146.968750</ele>
<time>2012-07-26T17:19:44Z</time>
<speed>0.890000</speed>
<extensions>
<speed>0.9</speed>
<temp>0.00</temp>
<bpm>0</bpm>
<rpm>0.00</rpm>
</extensions>
</trkpt>
<trkpt lat="63.702327728" lon="-19.677703857">
<ele>146.812500</ele>
<time>2012-07-26T17:19:49Z</time>
<speed>2.060000</speed>
<extensions>
<speed>2.1</speed>
<temp>0.00</temp>
<bpm>0</bpm>
<rpm>0.00</rpm>
</extensions>
</trkpt>
<trkpt lat="63.702312469" lon="-19.677940369">
<ele>146.359375</ele>
<time>2012-07-26T17:19:54Z</time>
<speed>2.870000</speed>
<extensions>
<speed>2.9</speed>
<temp>0.00</temp>
<bpm>0</bpm>
<rpm>0.00</rpm>
</extensions>
</trkpt>
<trkpt lat="63.702297211" lon="-19.678268433">
<ele>146.027344</ele>
<time>2012-07-26T17:19:59Z</time>
<speed>3.400000</speed>
<extensions>
<speed>3.4</speed>
<temp>0.00</temp>
<bpm>0</bpm>
<rpm>0.00</rpm>
</extensions>
</trkpt>
<trkpt lat="63.702285767" lon="-19.678577423">
<ele>145.414063</ele>
<time>2012-07-26T17:20:04Z</time>
<speed>3.300000</speed>
<extensions>
<speed>3.3</speed>
<temp>0.00</temp>
<bpm>0</bpm>
<rpm>0.00</rpm>
</extensions>
</trkpt>
<trkpt lat="63.702278137" lon="-19.678890228">
<ele>144.363281</ele>
<time>2012-07-26T17:20:09Z</time>
<speed>2.750000</speed>
<extensions>
<speed>2.7</speed>
<temp>0.00</temp>
<bpm>0</bpm>
<rpm>0.00</rpm>
</extensions>
</trkpt>
<trkpt lat="63.702262878" lon="-19.679273605">
<ele>143.113281</ele>
<time>2012-07-26T17:20:14Z</time>
<speed>4.360000</speed>
<extensions>
<speed>4.4</speed>
<temp>0.00</temp>
<bpm>0</bpm>
<rpm>0.00</rpm>
</extensions>
</trkpt>
<trkpt lat="63.702262878" lon="-19.679737091">
<ele>141.917969</ele>
<time>2012-07-26T17:20:19Z</time>
<speed>4.500000</speed>
<extensions>
<speed>4.5</speed>
<temp>0.00</temp>
<bpm>0</bpm>
<rpm>0.00</rpm>
</extensions>
</trkpt>
<trkpt lat="63.702285767" lon="-19.680204391">
<ele>141.957031</ele>
<time>2012-07-26T17:20:24Z</time>
<speed>5.160000</speed>
<extensions>
<speed>5.2</speed>
<temp>0.00</temp>
<bpm>0</bpm>
<rpm>0.00</rpm>
</extensions>
</trkpt>
<trkpt lat="63.702362061" lon="-19.680625916">
<ele>143.515625</ele>
<time>2012-07-26T17:20:29Z</time>
<speed>4.170000</speed>
<extensions>
<speed>4.2</speed>
<temp>0.00</temp>
<bpm>0</bpm>
<rpm>0.00</rpm>
</extensions>
</trkpt>
<trkpt lat="63.702419281" lon="-19.680919647">
<ele>144.574219</ele>
<time>2012-07-26T17:20:34Z</time>
<speed>2.460000</speed>
<extensions>
<speed>2.5</speed>
<temp>0.00</temp>
<bpm>0</bpm>
<rpm>0.00</rpm>
</extensions>
</trkpt>
<trkpt lat="63.702472687" lon="-19.681165695">
<ele>144.925781</ele>
<time>2012-07-26T17:20:39Z</time>
<speed>2.970000</speed>
<extensions>
<speed>3.0</speed>
<temp>0.00</temp>
<bpm>0</bpm>
<rpm>0.00</rpm>
</extensions>
</trkpt>
<trkpt lat="63.702526093" lon="-19.681402206">
<ele>145.558594</ele>
<time>2012-07-26T17:20:44Z</time>
<speed>2.780000</speed>
<extensions>
<speed>2.8</speed>
<temp>0.00</temp>
<bpm>0</bpm>
<rpm>0.00</rpm>
</extensions>
</trkpt>
<trkpt lat="63.702583313" lon="-19.681608200">
<ele>145.179688</ele>
<time>2012-07-26T17:20:49Z</time>
<speed>2.800000</speed>
<extensions>
<speed>2.8</speed>
<temp>0.00</temp>
<bpm>0</bpm>
<rpm>0.00</rpm>
</extensions>
</trkpt>
<trkpt lat="63.702671051" lon="-19.681821823">
<ele>144.796875</ele>
<time>2012-07-26T17:20:54Z</time>
<speed>2.830000</speed>
<extensions>
<speed>2.8</speed>
<temp>0.00</temp>
<bpm>0</bpm>
<rpm>0.00</rpm>
</extensions>
</trkpt>
<trkpt lat="63.702758789" lon="-19.682054520">
<ele>144.773438</ele>
<time>2012-07-26T17:20:59Z</time>
<speed>2.720000</speed>
<extensions>
<speed>2.7</speed>
<temp>0.00</temp>
<bpm>0</bpm>
<rpm>0.00</rpm>
</extensions>
</trkpt>
<trkpt lat="63.702846527" lon="-19.682281494">
<ele>144.601563</ele>
<time>2012-07-26T17:21:04Z</time>
<speed>3.150000</speed>
<extensions>
<speed>3.2</speed>
<temp>0.00</temp>
<bpm>0</bpm>
<rpm>0.00</rpm>
</extensions>
</trkpt>
<trkpt lat="63.702941895" lon="-19.682510376">
<ele>143.777344</ele>
<time>2012-07-26T17:21:09Z</time>
<speed>3.020000</speed>
<extensions>
<speed>3.0</speed>
<temp>0.00</temp>
<bpm>0</bpm>
<rpm>0.00</rpm>
</extensions>
</trkpt>
<trkpt lat="63.703022003" lon="-19.682727814">
<ele>143.765625</ele>
<time>2012-07-26T17:21:14Z</time>
<speed>2.900000</speed>
<extensions>
<speed>2.9</speed>
<temp>0.00</temp>
<bpm>0</bpm>
<rpm>0.00</rpm>
</extensions>
</trkpt>
<trkpt lat="63.703109741" lon="-19.682987213">
<ele>143.246094</ele>
<time>2012-07-26T17:21:19Z</time>
<speed>3.270000</speed>
<extensions>
<speed>3.3</speed>
<temp>0.00</temp>
<bpm>0</bpm>
<rpm>0.00</rpm>
</extensions>
</trkpt>
<trkpt lat="63.703178406" lon="-19.683214188">
<ele>143.734375</ele>
<time>2012-07-26T17:21:24Z</time>
<speed>2.780000</speed>
<extensions>
<speed>2.8</speed>
<temp>0.00</temp>
<bpm>0</bpm>
<rpm>0.00</rpm>
</extensions>
</trkpt>
<trkpt lat="63.703247070" lon="-19.683452606">
<ele>143.917969</ele>
<time>2012-07-26T17:21:29Z</time>
<speed>2.850000</speed>
<extensions>
<speed>2.9</speed>
<temp>0.00</temp>
<bpm>0</bpm>
<rpm>0.00</rpm>
</extensions>
</trkpt>
<trkpt lat="63.703323364" lon="-19.683664322">
<ele>143.437500</ele>
<time>2012-07-26T17:21:34Z</time>
<speed>2.510000</speed>
<extensions>
<speed>2.5</speed>
<temp>0.00</temp>
<bpm>0</bpm>
<rpm>0.00</rpm>
</extensions>
</trkpt>
<trkpt lat="63.703399658" lon="-19.683906555">
<ele>143.835938</ele>
<time>2012-07-26T17:21:39Z</time>
<speed>3.080000</speed>
<extensions>
<speed>3.1</speed>
<temp>0.00</temp>
<bpm>0</bpm>
<rpm>0.00</rpm>
</extensions>
</trkpt>
<trkpt lat="63.703468323" lon="-19.684158325">
<ele>143.933594</ele>
<time>2012-07-26T17:21:44Z</time>
<speed>3.220000</speed>
<extensions>
<speed>3.2</speed>
<temp>0.00</temp>
<bpm>0</bpm>
<rpm>0.00</rpm>
</extensions>
</trkpt>
<trkpt lat="63.703540802" lon="-19.684413910">
<ele>143.640625</ele>
<time>2012-07-26T17:21:49Z</time>
<speed>3.240000</speed>
<extensions>
<speed>3.2</speed>
<temp>0.00</temp>
<bpm>0</bpm>
<rpm>0.00</rpm>
</extensions>
</trkpt>
<trkpt lat="63.703609467" lon="-19.684673309">
<ele>143.308594</ele>
<time>2012-07-26T17:21:54Z</time>
<speed>2.820000</speed>
<extensions>
<speed>2.8</speed>
<temp>0.00</temp>
<bpm>0</bpm>
<rpm>0.00</rpm>
</extensions>
</trkpt>
<trkpt lat="63.703674316" lon="-19.684944153">
<ele>143.027344</ele>
<time>2012-07-26T17:21:59Z</time>
<speed>2.380000</speed>
<extensions>
<speed>2.4</speed>
<temp>0.00</temp>
<bpm>0</bpm>
<rpm>0.00</rpm>
</extensions>
</trkpt>
<trkpt lat="63.703712463" lon="-19.685127258">
<ele>140.796875</ele>
<time>2012-07-26T17:22:04Z</time>
<speed>3.040000</speed>
<extensions>
<speed>3.0</speed>
<temp>0.00</temp>
<bpm>0</bpm>
<rpm>0.00</rpm>
</extensions>
</trkpt>
<trkpt lat="63.703788757" lon="-19.685468674">
<ele>141.574219</ele>
<time>2012-07-26T17:22:09Z</time>
<speed>3.960000</speed>
<extensions>
<speed>4.0</speed>
<temp>0.00</temp>
<bpm>0</bpm>
<rpm>0.00</rpm>
</extensions>
</trkpt>
<trkpt lat="63.703857422" lon="-19.685811996">
<ele>141.476563</ele>
<time>2012-07-26T17:22:14Z</time>
<speed>3.970000</speed>
<extensions>
<speed>4.0</speed>
<temp>0.00</temp>
<bpm>0</bpm>
<rpm>0.00</rpm>
</extensions>
</trkpt>
<trkpt lat="63.703937531" lon="-19.686134338">
<ele>141.625000</ele>
<time>2012-07-26T17:22:19Z</time>
<speed>3.370000</speed>
<extensions>
<speed>3.4</speed>
<temp>0.00</temp>
<bpm>0</bpm>
<rpm>0.00</rpm>
</extensions>
</trkpt>
<trkpt lat="63.703994751" lon="-19.686408997">
<ele>141.765625</ele>
<time>2012-07-26T17:22:24Z</time>
<speed>3.040000</speed>
<extensions>
<speed>3.0</speed>
<temp>0.00</temp>
<bpm>0</bpm>
<rpm>0.00</rpm>
</extensions>
</trkpt>
<trkpt lat="63.704044342" lon="-19.686695099">
<ele>143.535156</ele>
<time>2012-07-26T17:22:29Z</time>
<speed>2.790000</speed>
<extensions>
<speed>2.8</speed>
<temp>0.00</temp>
<bpm>0</bpm>
<rpm>0.00</rpm>
</extensions>
</trkpt>
<trkpt lat="63.704086304" lon="-19.686944962">
<ele>144.371094</ele>
<time>2012-07-26T17:22:34Z</time>
<speed>3.040000</speed>
<extensions>
<speed>3.0</speed>
<temp>0.00</temp>
<bpm>0</bpm>
<rpm>0.00</rpm>
</extensions>
</trkpt>
<trkpt lat="63.704132080" lon="-19.687217712">
<ele>144.671875</ele>
<time>2012-07-26T17:22:39Z</time>
<speed>2.610000</speed>
<extensions>
<speed>2.6</speed>
<temp>0.00</temp>
<bpm>0</bpm>
<rpm>0.00</rpm>
</extensions>
</trkpt>
<trkpt lat="63.704166412" lon="-19.687486649">
<ele>144.066406</ele>
<time>2012-07-26T17:22:44Z</time>
<speed>2.880000</speed>
<extensions>
<speed>2.9</speed>
<temp>0.00</temp>
<bpm>0</bpm>
<rpm>0.00</rpm>
</extensions>
</trkpt>
<trkpt lat="63.704219818" lon="-19.687765121">
<ele>143.457031</ele>
<time>2012-07-26T17:22:49Z</time>
<speed>3.080000</speed>
<extensions>
<speed>3.1</speed>
<temp>0.00</temp>
<bpm>0</bpm>
<rpm>0.00</rpm>
</extensions>
</trkpt>
<trkpt lat="63.704280853" lon="-19.688016891">
<ele>141.722656</ele>
<time>2012-07-26T17:22:54Z</time>
<speed>2.350000</speed>
<extensions>
<speed>2.4</speed>
<temp>0.00</temp>
<bpm>0</bpm>
<rpm>0.00</rpm>
</extensions>
</trkpt>
<trkpt lat="63.704349518" lon="-19.688238144">
<ele>141.863281</ele>
<time>2012-07-26T17:22:59Z</time>
<speed>3.070000</speed>
<extensions>
<speed>3.1</speed>
<temp>0.00</temp>
<bpm>0</bpm>
<rpm>0.00</rpm>
</extensions>
</trkpt>
<trkpt lat="63.704418182" lon="-19.688501358">
<ele>141.695313</ele>
<time>2012-07-26T17:23:04Z</time>
<speed>2.750000</speed>
<extensions>
<speed>2.7</speed>
<temp>0.00</temp>
<bpm>0</bpm>
<rpm>0.00</rpm>
</extensions>
</trkpt>
<trkpt lat="63.704479218" lon="-19.688724518">
<ele>142.191406</ele>
<time>2012-07-26T17:23:09Z</time>
<speed>2.210000</speed>
<extensions>
<speed>2.2</speed>
<temp>0.00</temp>
<bpm>0</bpm>
<rpm>0.00</rpm>
</extensions>
</trkpt>
<trkpt lat="63.704544067" lon="-19.688941956">
<ele>142.652344</ele>
<time>2012-07-26T17:23:14Z</time>
<speed>2.530000</speed>
<extensions>
<speed>2.5</speed>
<temp>0.00</temp>
<bpm>0</bpm>
<rpm>0.00</rpm>
</extensions>
</trkpt>
<trkpt lat="63.704608917" lon="-19.689172745">
<ele>143.687500</ele>
<time>2012-07-26T17:23:19Z</time>
<speed>2.490000</speed>
<extensions>
<speed>2.5</speed>
<temp>0.00</temp>
<bpm>0</bpm>
<rpm>0.00</rpm>
</extensions>
</trkpt>
<trkpt lat="63.704677582" lon="-19.689336777">
<ele>142.371094</ele>
<time>2012-07-26T17:23:24Z</time>
<speed>2.430000</speed>
<extensions>
<speed>2.4</speed>
<temp>0.00</temp>
<bpm>0</bpm>
<rpm>0.00</rpm>
</extensions>
</trkpt>
<trkpt lat="63.704742432" lon="-19.689540863">
<ele>142.046875</ele>
<time>2012-07-26T17:23:29Z</time>
<speed>2.220000</speed>
<extensions>
<speed>2.2</speed>
<temp>0.00</temp>
<bpm>0</bpm>
<rpm>0.00</rpm>
</extensions>
</trkpt>
<trkpt lat="63.704807281" lon="-19.689706802">
<ele>142.406250</ele>
<time>2012-07-26T17:23:34Z</time>
<speed>2.310000</speed>
<extensions>
<speed>2.3</speed>
<temp>0.00</temp>
<bpm>0</bpm>
<rpm>0.00</rpm>
</extensions>
</trkpt>
<trkpt lat="63.704875946" lon="-19.689905167">
<ele>142.062500</ele>
<time>2012-07-26T17:23:39Z</time>
<speed>2.760000</speed>
<extensions>
<speed>2.8</speed>
<temp>0.00</temp>
<bpm>0</bpm>
<rpm>0.00</rpm>
</extensions>
</trkpt>
<trkpt lat="63.704959869" lon="-19.690099716">
<ele>141.421875</ele>
<time>2012-07-26T17:23:44Z</time>
<speed>2.020000</speed>
<extensions>
<speed>2.0</speed>
<temp>0.00</temp>
<bpm>0</bpm>
<rpm>0.00</rpm>
</extensions>
</trkpt>
<trkpt lat="63.705039978" lon="-19.690290451">
<ele>139.734375</ele>
<time>2012-07-26T17:23:49Z</time>
<speed>2.580000</speed>
<extensions>
<speed>2.6</speed>
<temp>0.00</temp>
<bpm>0</bpm>
<rpm>0.00</rpm>
</extensions>
</trkpt>
<trkpt lat="63.705097198" lon="-19.690536499">
<ele>139.757813</ele>
<time>2012-07-26T17:23:54Z</time>
<speed>2.800000</speed>
<extensions>
<speed>2.8</speed>
<temp>0.00</temp>
<bpm>0</bpm>
<rpm>0.00</rpm>
</extensions>
</trkpt>
<trkpt lat="63.705158234" lon="-19.690803528">
<ele>138.996094</ele>
<time>2012-07-26T17:23:59Z</time>
<speed>3.100000</speed>
<extensions>
<speed>3.1</speed>
<temp>0.00</temp>
<bpm>0</bpm>
<rpm>0.00</rpm>
</extensions>
</trkpt>
<trkpt lat="63.705169678" lon="-19.691085815">
<ele>139.027344</ele>
<time>2012-07-26T17:24:04Z</time>
<speed>2.920000</speed>
<extensions>
<speed>2.9</speed>
<temp>0.00</temp>
<bpm>0</bpm>
<rpm>0.00</rpm>
</extensions>
</trkpt>
<trkpt lat="63.705188751" lon="-19.691366196">
<ele>138.535156</ele>
<time>2012-07-26T17:24:09Z</time>
<speed>2.710000</speed>
<extensions>
<speed>2.7</speed>
<temp>0.00</temp>
<bpm>0</bpm>
<rpm>0.00</rpm>
</extensions>
</trkpt>
<trkpt lat="63.705196381" lon="-19.691642761">
<ele>138.859375</ele>
<time>2012-07-26T17:24:14Z</time>
<speed>3.150000</speed>
<extensions>
<speed>3.2</speed>
<temp>0.00</temp>
<bpm>0</bpm>
<rpm>0.00</rpm>
</extensions>
</trkpt>
<trkpt lat="63.705204010" lon="-19.691959381">
<ele>139.527344</ele>
<time>2012-07-26T17:24:19Z</time>
<speed>2.910000</speed>
<extensions>
<speed>2.9</speed>
<temp>0.00</temp>
<bpm>0</bpm>
<rpm>0.00</rpm>
</extensions>
</trkpt>
<trkpt lat="63.705219269" lon="-19.692264557">
<ele>139.382813</ele>
<time>2012-07-26T17:24:24Z</time>
<speed>3.080000</speed>
<extensions>
<speed>3.1</speed>
<temp>0.00</temp>
<bpm>0</bpm>
<rpm>0.00</rpm>
</extensions>
</trkpt>
<trkpt lat="63.705230713" lon="-19.692564011">
<ele>140.386719</ele>
<time>2012-07-26T17:24:29Z</time>
<speed>2.820000</speed>
<extensions>
<speed>2.8</speed>
<temp>0.00</temp>
<bpm>0</bpm>
<rpm>0.00</rpm>
</extensions>
</trkpt>
<trkpt lat="63.705230713" lon="-19.692832947">
<ele>140.371094</ele>
<time>2012-07-26T17:24:34Z</time>
<speed>2.840000</speed>
<extensions>
<speed>2.8</speed>
<temp>0.00</temp>
<bpm>0</bpm>
<rpm>0.00</rpm>
</extensions>
</trkpt>
<trkpt lat="63.705257416" lon="-19.693033218">
<ele>140.199219</ele>
<time>2012-07-26T17:24:39Z</time>
<speed>1.910000</speed>
<extensions>
<speed>1.9</speed>
<temp>0.00</temp>
<bpm>0</bpm>
<rpm>0.00</rpm>
</extensions>
</trkpt>
<trkpt lat="63.705268860" lon="-19.693258286">
<ele>138.687500</ele>
<time>2012-07-26T17:24:44Z</time>
<speed>2.060000</speed>
<extensions>
<speed>2.1</speed>
<temp>0.00</temp>
<bpm>0</bpm>
<rpm>0.00</rpm>
</extensions>
</trkpt>
<trkpt lat="63.705265045" lon="-19.693479538">
<ele>138.234375</ele>
<time>2012-07-26T17:24:49Z</time>
<speed>2.660000</speed>
<extensions>
<speed>2.7</speed>
<temp>0.00</temp>
<bpm>0</bpm>
<rpm>0.00</rpm>
</extensions>
</trkpt>
<trkpt lat="63.705276489" lon="-19.693733215">
<ele>138.269531</ele>
<time>2012-07-26T17:24:54Z</time>
<speed>2.560000</speed>
<extensions>
<speed>2.6</speed>
<temp>0.00</temp>
<bpm>0</bpm>
<rpm>0.00</rpm>
</extensions>
</trkpt>
<trkpt lat="63.705299377" lon="-19.693975449">
<ele>137.796875</ele>
<time>2012-07-26T17:24:59Z</time>
<speed>2.630000</speed>
<extensions>
<speed>2.6</speed>
<temp>0.00</temp>
<bpm>0</bpm>
<rpm>0.00</rpm>
</extensions>
</trkpt>
<trkpt lat="63.705322266" lon="-19.694227219">
<ele>139.136719</ele>
<time>2012-07-26T17:25:04Z</time>
<speed>2.620000</speed>
<extensions>
<speed>2.6</speed>
<temp>0.00</temp>
<bpm>0</bpm>
<rpm>0.00</rpm>
</extensions>
</trkpt>
<trkpt lat="63.705360413" lon="-19.694488525">
<ele>139.855469</ele>
<time>2012-07-26T17:25:09Z</time>
<speed>2.610000</speed>
<extensions>
<speed>2.6</speed>
<temp>0.00</temp>
<bpm>0</bpm>
<rpm>0.00</rpm>
</extensions>
</trkpt>
<trkpt lat="63.705390930" lon="-19.694721222">
<ele>140.734375</ele>
<time>2012-07-26T17:25:14Z</time>
<speed>2.520000</speed>
<extensions>
<speed>2.5</speed>
<temp>0.00</temp>
<bpm>0</bpm>
<rpm>0.00</rpm>
</extensions>
</trkpt>
<trkpt lat="63.705413818" lon="-19.694971085">
<ele>142.253906</ele>
<time>2012-07-26T17:25:19Z</time>
<speed>2.890000</speed>
<extensions>
<speed>2.9</speed>
<temp>0.00</temp>
<bpm>0</bpm>
<rpm>0.00</rpm>
</extensions>
</trkpt>
<trkpt lat="63.705436707" lon="-19.695264816">
<ele>142.601563</ele>
<time>2012-07-26T17:25:24Z</time>
<speed>3.160000</speed>
<extensions>
<speed>3.2</speed>
<temp>0.00</temp>
<bpm>0</bpm>
<rpm>0.00</rpm>
</extensions>
</trkpt>
<trkpt lat="63.705451965" lon="-19.695568085">
<ele>142.070313</ele>
<time>2012-07-26T17:25:29Z</time>
<speed>2.990000</speed>
<extensions>
<speed>3.0</speed>
<temp>0.00</temp>
<bpm>0</bpm>
<rpm>0.00</rpm>
</extensions>
</trkpt>
<trkpt lat="63.705474854" lon="-19.695867538">
<ele>142.351563</ele>
<time>2012-07-26T17:25:34Z</time>
<speed>3.000000</speed>
<extensions>
<speed>3.0</speed>
<temp>0.00</temp>
<bpm>0</bpm>
<rpm>0.00</rpm>
</extensions>
</trkpt>
<trkpt lat="63.705478668" lon="-19.696153641">
<ele>142.457031</ele>
<time>2012-07-26T17:25:39Z</time>
<speed>2.330000</speed>
<extensions>
<speed>2.3</speed>
<temp>0.00</temp>
<bpm>0</bpm>
<rpm>0.00</rpm>
</extensions>
</trkpt>
<trkpt lat="63.705486298" lon="-19.696451187">
<ele>142.976563</ele>
<time>2012-07-26T17:25:44Z</time>
<speed>3.050000</speed>
<extensions>
<speed>3.0</speed>
<temp>0.00</temp>
<bpm>0</bpm>
<rpm>0.00</rpm>
</extensions>
</trkpt>
<trkpt lat="63.705486298" lon="-19.696769714">
<ele>143.695313</ele>
<time>2012-07-26T17:25:49Z</time>
<speed>3.170000</speed>
<extensions>
<speed>3.2</speed>
<temp>0.00</temp>
<bpm>0</bpm>
<rpm>0.00</rpm>
</extensions>
</trkpt>
<trkpt lat="63.705501556" lon="-19.697025299">
<ele>141.824219</ele>
<time>2012-07-26T17:25:54Z</time>
<speed>2.380000</speed>
<extensions>
<speed>2.4</speed>
<temp>0.00</temp>
<bpm>0</bpm>
<rpm>0.00</rpm>
</extensions>
</trkpt>
<trkpt lat="63.705501556" lon="-19.697307587">
<ele>141.250000</ele>
<time>2012-07-26T17:25:59Z</time>
<speed>3.180000</speed>
<extensions>
<speed>3.2</speed>
<temp>0.00</temp>
<bpm>0</bpm>
<rpm>0.00</rpm>
</extensions>
</trkpt>
<trkpt lat="63.705516815" lon="-19.697591782">
<ele>140.488281</ele>
<time>2012-07-26T17:26:04Z</time>
<speed>2.410000</speed>
<extensions>
<speed>2.4</speed>
<temp>0.00</temp>
<bpm>0</bpm>
<rpm>0.00</rpm>
</extensions>
</trkpt>
<trkpt lat="63.705513000" lon="-19.697835922">
<ele>139.769531</ele>
<time>2012-07-26T17:26:09Z</time>
<speed>2.250000</speed>
<extensions>
<speed>2.3</speed>
<temp>0.00</temp>
<bpm>0</bpm>
<rpm>0.00</rpm>
</extensions>
</trkpt>
<trkpt lat="63.705513000" lon="-19.698093414">
<ele>139.421875</ele>
<time>2012-07-26T17:26:14Z</time>
<speed>2.610000</speed>
<extensions>
<speed>2.6</speed>
<temp>0.00</temp>
<bpm>0</bpm>
<rpm>0.00</rpm>
</extensions>
</trkpt>
<trkpt lat="63.705528259" lon="-19.698371887">
<ele>139.292969</ele>
<time>2012-07-26T17:26:19Z</time>
<speed>2.780000</speed>
<extensions>
<speed>2.8</speed>
<temp>0.00</temp>
<bpm>0</bpm>
<rpm>0.00</rpm>
</extensions>
</trkpt>
<trkpt lat="63.705554962" lon="-19.698635101">
<ele>138.781250</ele>
<time>2012-07-26T17:26:24Z</time>
<speed>2.720000</speed>
<extensions>
<speed>2.7</speed>
<temp>0.00</temp>
<bpm>0</bpm>
<rpm>0.00</rpm>
</extensions>
</trkpt>
<trkpt lat="63.705577850" lon="-19.698909760">
<ele>138.773438</ele>
<time>2012-07-26T17:26:29Z</time>
<speed>2.650000</speed>
<extensions>
<speed>2.6</speed>
<temp>0.00</temp>
<bpm>0</bpm>
<rpm>0.00</rpm>
</extensions>
</trkpt>
<trkpt lat="63.705615997" lon="-19.699169159">
<ele>138.984375</ele>
<time>2012-07-26T17:26:34Z</time>
<speed>2.620000</speed>
<extensions>
<speed>2.6</speed>
<temp>0.00</temp>
<bpm>0</bpm>
<rpm>0.00</rpm>
</extensions>
</trkpt>
<trkpt lat="63.705657959" lon="-19.699447632">
<ele>138.273438</ele>
<time>2012-07-26T17:26:39Z</time>
<speed>2.870000</speed>
<extensions>
<speed>2.9</speed>
<temp>0.00</temp>
<bpm>0</bpm>
<rpm>0.00</rpm>
</extensions>
</trkpt>
<trkpt lat="63.705692291" lon="-19.699728012">
<ele>138.578125</ele>
<time>2012-07-26T17:26:44Z</time>
<speed>2.730000</speed>
<extensions>
<speed>2.7</speed>
<temp>0.00</temp>
<bpm>0</bpm>
<rpm>0.00</rpm>
</extensions>
</trkpt>
<trkpt lat="63.705741882" lon="-19.699941635">
<ele>139.000000</ele>
<time>2012-07-26T17:26:49Z</time>
<speed>2.340000</speed>
<extensions>
<speed>2.3</speed>
<temp>0.00</temp>
<bpm>0</bpm>
<rpm>0.00</rpm>
</extensions>
</trkpt>
<trkpt lat="63.705802917" lon="-19.700187683">
<ele>138.312500</ele>
<time>2012-07-26T17:26:54Z</time>
<speed>2.600000</speed>
<extensions>
<speed>2.6</speed>
<temp>0.00</temp>
<bpm>0</bpm>
<rpm>0.00</rpm>
</extensions>
</trkpt>
<trkpt lat="63.705821991" lon="-19.700452805">
<ele>139.062500</ele>
<time>2012-07-26T17:26:59Z</time>
<speed>2.700000</speed>
<extensions>
<speed>2.7</speed>
<temp>0.00</temp>
<bpm>0</bpm>
<rpm>0.00</rpm>
</extensions>
</trkpt>
<trkpt lat="63.705844879" lon="-19.700761795">
<ele>139.121094</ele>
<time>2012-07-26T17:27:04Z</time>
<speed>2.780000</speed>
<extensions>
<speed>2.8</speed>
<temp>0.00</temp>
<bpm>0</bpm>
<rpm>0.00</rpm>
</extensions>
</trkpt>
<trkpt lat="63.705883026" lon="-19.700952530">
<ele>139.125000</ele>
<time>2012-07-26T17:27:09Z</time>
<speed>1.870000</speed>
<extensions>
<speed>1.9</speed>
<temp>0.00</temp>
<bpm>0</bpm>
<rpm>0.00</rpm>
</extensions>
</trkpt>
<trkpt lat="63.705898285" lon="-19.701160431">
<ele>138.847656</ele>
<time>2012-07-26T17:27:14Z</time>
<speed>3.090000</speed>
<extensions>
<speed>3.1</speed>
<temp>0.00</temp>
<bpm>0</bpm>
<rpm>0.00</rpm>
</extensions>
</trkpt>
<trkpt lat="63.705959320" lon="-19.701404572">
<ele>137.664063</ele>
<time>2012-07-26T17:27:19Z</time>
<speed>2.960000</speed>
<extensions>
<speed>3.0</speed>
<temp>0.00</temp>
<bpm>0</bpm>
<rpm>0.00</rpm>
</extensions>
</trkpt>
<trkpt lat="63.706047058" lon="-19.701692581">
<ele>136.707031</ele>
<time>2012-07-26T17:27:24Z</time>
<speed>3.100000</speed>
<extensions>
<speed>3.1</speed>
<temp>0.00</temp>
<bpm>0</bpm>
<rpm>0.00</rpm>
</extensions>
</trkpt>
<trkpt lat="63.706146240" lon="-19.701951981">
<ele>136.816406</ele>
<time>2012-07-26T17:27:29Z</time>
<speed>3.030000</speed>
<extensions>
<speed>3.0</speed>
<temp>0.00</temp>
<bpm>0</bpm>
<rpm>0.00</rpm>
</extensions>
</trkpt>
<trkpt lat="63.706241608" lon="-19.702188492">
<ele>136.890625</ele>
<time>2012-07-26T17:27:34Z</time>
<speed>2.910000</speed>
<extensions>
<speed>2.9</speed>
<temp>0.00</temp>
<bpm>0</bpm>
<rpm>0.00</rpm>
</extensions>
</trkpt>
<trkpt lat="63.706375122" lon="-19.702426910">
<ele>136.613281</ele>
<time>2012-07-26T17:27:39Z</time>
<speed>3.760000</speed>
<extensions>
<speed>3.8</speed>
<temp>0.00</temp>
<bpm>0</bpm>
<rpm>0.00</rpm>
</extensions>
</trkpt>
<trkpt lat="63.706497192" lon="-19.702657700">
<ele>136.132813</ele>
<time>2012-07-26T17:27:44Z</time>
<speed>3.580000</speed>
<extensions>
<speed>3.6</speed>
<temp>0.00</temp>
<bpm>0</bpm>
<rpm>0.00</rpm>
</extensions>
</trkpt>
<trkpt lat="63.706619263" lon="-19.702880859">
<ele>135.218750</ele>
<time>2012-07-26T17:27:49Z</time>
<speed>3.230000</speed>
<extensions>
<speed>3.2</speed>
<temp>0.00</temp>
<bpm>0</bpm>
<rpm>0.00</rpm>
</extensions>
</trkpt>
<trkpt lat="63.706729889" lon="-19.703100204">
<ele>134.238281</ele>
<time>2012-07-26T17:27:54Z</time>
<speed>2.950000</speed>
<extensions>
<speed>2.9</speed>
<temp>0.00</temp>
<bpm>0</bpm>
<rpm>0.00</rpm>
</extensions>
</trkpt>
<trkpt lat="63.706829071" lon="-19.703371048">
<ele>133.816406</ele>
<time>2012-07-26T17:27:59Z</time>
<speed>2.940000</speed>
<extensions>
<speed>2.9</speed>
<temp>0.00</temp>
<bpm>0</bpm>
<rpm>0.00</rpm>
</extensions>
</trkpt>
<trkpt lat="63.706912994" lon="-19.703626633">
<ele>133.941406</ele>
<time>2012-07-26T17:28:04Z</time>
<speed>3.220000</speed>
<extensions>
<speed>3.2</speed>
<temp>0.00</temp>
<bpm>0</bpm>
<rpm>0.00</rpm>
</extensions>
</trkpt>
<trkpt lat="63.706989288" lon="-19.703910828">
<ele>133.718750</ele>
<time>2012-07-26T17:28:09Z</time>
<speed>3.500000</speed>
<extensions>
<speed>3.5</speed>
<temp>0.00</temp>
<bpm>0</bpm>
<rpm>0.00</rpm>
</extensions>
</trkpt>
<trkpt lat="63.707050323" lon="-19.704227448">
<ele>133.199219</ele>
<time>2012-07-26T17:28:14Z</time>
<speed>3.990000</speed>
<extensions>
<speed>4.0</speed>
<temp>0.00</temp>
<bpm>0</bpm>
<rpm>0.00</rpm>
</extensions>
</trkpt>
<trkpt lat="63.707099915" lon="-19.704618454">
<ele>133.046875</ele>
<time>2012-07-26T17:28:19Z</time>
<speed>3.940000</speed>
<extensions>
<speed>3.9</speed>
<temp>0.00</temp>
<bpm>0</bpm>
<rpm>0.00</rpm>
</extensions>
</trkpt>
<trkpt lat="63.707172394" lon="-19.704917908">
<ele>133.328125</ele>
<time>2012-07-26T17:28:24Z</time>
<speed>3.040000</speed>
<extensions>
<speed>3.0</speed>
<temp>0.00</temp>
<bpm>0</bpm>
<rpm>0.00</rpm>
</extensions>
</trkpt>
<trkpt lat="63.707183838" lon="-19.705175400">
<ele>134.292969</ele>
<time>2012-07-26T17:28:29Z</time>
<speed>2.760000</speed>
<extensions>
<speed>2.8</speed>
<temp>0.00</temp>
<bpm>0</bpm>
<rpm>0.00</rpm>
</extensions>
</trkpt>
<trkpt lat="63.707252502" lon="-19.705419540">
<ele>134.617188</ele>
<time>2012-07-26T17:28:34Z</time>
<speed>3.020000</speed>
<extensions>
<speed>3.0</speed>
<temp>0.00</temp>
<bpm>0</bpm>
<rpm>0.00</rpm>
</extensions>
</trkpt>
<trkpt lat="63.707317352" lon="-19.705718994">
<ele>134.824219</ele>
<time>2012-07-26T17:28:39Z</time>
<speed>2.830000</speed>
<extensions>
<speed>2.8</speed>
<temp>0.00</temp>
<bpm>0</bpm>
<rpm>0.00</rpm>
</extensions>
</trkpt>
<trkpt lat="63.707366943" lon="-19.706016541">
<ele>134.601563</ele>
<time>2012-07-26T17:28:44Z</time>
<speed>3.130000</speed>
<extensions>
<speed>3.1</speed>
<temp>0.00</temp>
<bpm>0</bpm>
<rpm>0.00</rpm>
</extensions>
</trkpt>
<trkpt lat="63.707450867" lon="-19.706306458">
<ele>134.675781</ele>
<time>2012-07-26T17:28:49Z</time>
<speed>3.130000</speed>
<extensions>
<speed>3.1</speed>
<temp>0.00</temp>
<bpm>0</bpm>
<rpm>0.00</rpm>
</extensions>
</trkpt>
<trkpt lat="63.707534790" lon="-19.706579208">
<ele>134.832031</ele>
<time>2012-07-26T17:28:54Z</time>
<speed>3.230000</speed>
<extensions>
<speed>3.2</speed>
<temp>0.00</temp>
<bpm>0</bpm>
<rpm>0.00</rpm>
</extensions>
</trkpt>
<trkpt lat="63.707588196" lon="-19.706850052">
<ele>134.574219</ele>
<time>2012-07-26T17:28:59Z</time>
<speed>3.050000</speed>
<extensions>
<speed>3.0</speed>
<temp>0.00</temp>
<bpm>0</bpm>
<rpm>0.00</rpm>
</extensions>
</trkpt>
<trkpt lat="63.707637787" lon="-19.707145691">
<ele>133.992188</ele>
<time>2012-07-26T17:29:04Z</time>
<speed>3.250000</speed>
<extensions>
<speed>3.2</speed>
<temp>0.00</temp>
<bpm>0</bpm>
<rpm>0.00</rpm>
</extensions>
</trkpt>
<trkpt lat="63.707683563" lon="-19.707450867">
<ele>133.550781</ele>
<time>2012-07-26T17:29:09Z</time>
<speed>3.250000</speed>
<extensions>
<speed>3.2</speed>
<temp>0.00</temp>
<bpm>0</bpm>
<rpm>0.00</rpm>
</extensions>
</trkpt>
<trkpt lat="63.707695007" lon="-19.707727432">
<ele>133.136719</ele>
<time>2012-07-26T17:29:14Z</time>
<speed>2.080000</speed>
<extensions>
<speed>2.1</speed>
<temp>0.00</temp>
<bpm>0</bpm>
<rpm>0.00</rpm>
</extensions>
</trkpt>
<trkpt lat="63.707687378" lon="-19.707908630">
<ele>132.816406</ele>
<time>2012-07-26T17:29:19Z</time>
<speed>1.330000</speed>
<extensions>
<speed>1.3</speed>
<temp>0.00</temp>
<bpm>0</bpm>
<rpm>0.00</rpm>
</extensions>
</trkpt>
<trkpt lat="63.707664490" lon="-19.708150864">
<ele>133.304688</ele>
<time>2012-07-26T17:29:24Z</time>
<speed>2.620000</speed>
<extensions>
<speed>2.6</speed>
<temp>0.00</temp>
<bpm>0</bpm>
<rpm>0.00</rpm>
</extensions>
</trkpt>
<trkpt lat="63.707630157" lon="-19.708463669">
<ele>134.449219</ele>
<time>2012-07-26T17:29:29Z</time>
<speed>3.350000</speed>
<extensions>
<speed>3.4</speed>
<temp>0.00</temp>
<bpm>0</bpm>
<rpm>0.00</rpm>
</extensions>
</trkpt>
<trkpt lat="63.707592010" lon="-19.708742142">
<ele>133.714844</ele>
<time>2012-07-26T17:29:34Z</time>
<speed>2.740000</speed>
<extensions>
<speed>2.7</speed>
<temp>0.00</temp>
<bpm>0</bpm>
<rpm>0.00</rpm>
</extensions>
</trkpt>
<trkpt lat="63.707580566" lon="-19.709043503">
<ele>133.187500</ele>
<time>2012-07-26T17:29:39Z</time>
<speed>3.450000</speed>
<extensions>
<speed>3.5</speed>
<temp>0.00</temp>
<bpm>0</bpm>
<rpm>0.00</rpm>
</extensions>
</trkpt>
<trkpt lat="63.707576752" lon="-19.709350586">
<ele>132.628906</ele>
<time>2012-07-26T17:29:44Z</time>
<speed>2.830000</speed>
<extensions>
<speed>2.8</speed>
<temp>0.00</temp>
<bpm>0</bpm>
<rpm>0.00</rpm>
</extensions>
</trkpt>
<trkpt lat="63.707576752" lon="-19.709579468">
<ele>133.101563</ele>
<time>2012-07-26T17:29:49Z</time>
<speed>2.110000</speed>
<extensions>
<speed>2.1</speed>
<temp>0.00</temp>
<bpm>0</bpm>
<rpm>0.00</rpm>
</extensions>
</trkpt>
<trkpt lat="63.707580566" lon="-19.709848404">
<ele>133.414063</ele>
<time>2012-07-26T17:29:54Z</time>
<speed>2.420000</speed>
<extensions>
<speed>2.4</speed>
<temp>0.00</temp>
<bpm>0</bpm>
<rpm>0.00</rpm>
</extensions>
</trkpt>
<trkpt lat="63.707603455" lon="-19.710126877">
<ele>134.660156</ele>
<time>2012-07-26T17:29:59Z</time>
<speed>2.910000</speed>
<extensions>
<speed>2.9</speed>
<temp>0.00</temp>
<bpm>0</bpm>
<rpm>0.00</rpm>
</extensions>
</trkpt>
<trkpt lat="63.707630157" lon="-19.710401535">
<ele>133.511719</ele>
<time>2012-07-26T17:30:04Z</time>
<speed>2.770000</speed>
<extensions>
<speed>2.8</speed>
<temp>0.00</temp>
<bpm>0</bpm>
<rpm>0.00</rpm>
</extensions>
</trkpt>
<trkpt lat="63.707660675" lon="-19.710681915">
<ele>132.777344</ele>
<time>2012-07-26T17:30:09Z</time>
<speed>2.750000</speed>
<extensions>
<speed>2.7</speed>
<temp>0.00</temp>
<bpm>0</bpm>
<rpm>0.00</rpm>
</extensions>
</trkpt>
<trkpt lat="63.707687378" lon="-19.710947037">
<ele>132.539063</ele>
<time>2012-07-26T17:30:14Z</time>
<speed>2.680000</speed>
<extensions>
<speed>2.7</speed>
<temp>0.00</temp>
<bpm>0</bpm>
<rpm>0.00</rpm>
</extensions>
</trkpt>
<trkpt lat="63.707721710" lon="-19.711219788">
<ele>132.179688</ele>
<time>2012-07-26T17:30:19Z</time>
<speed>2.980000</speed>
<extensions>
<speed>3.0</speed>
<temp>0.00</temp>
<bpm>0</bpm>
<rpm>0.00</rpm>
</extensions>
</trkpt>
<trkpt lat="63.707756042" lon="-19.711523056">
<ele>132.273438</ele>
<time>2012-07-26T17:30:24Z</time>
<speed>3.510000</speed>
<extensions>
<speed>3.5</speed>
<temp>0.00</temp>
<bpm>0</bpm>
<rpm>0.00</rpm>
</extensions>
</trkpt>
<trkpt lat="63.707794189" lon="-19.711820602">
<ele>131.023438</ele>
<time>2012-07-26T17:30:29Z</time>
<speed>2.640000</speed>
<extensions>
<speed>2.6</speed>
<temp>0.00</temp>
<bpm>0</bpm>
<rpm>0.00</rpm>
</extensions>
</trkpt>
<trkpt lat="63.707813263" lon="-19.711999893">
<ele>129.718750</ele>
<time>2012-07-26T17:30:34Z</time>
<speed>1.730000</speed>
<extensions>
<speed>1.7</speed>
<temp>0.00</temp>
<bpm>0</bpm>
<rpm>0.00</rpm>
</extensions>
</trkpt>
<trkpt lat="63.707843781" lon="-19.712207794">
<ele>128.683594</ele>
<time>2012-07-26T17:30:39Z</time>
<speed>2.300000</speed>
<extensions>
<speed>2.3</speed>
<temp>0.00</temp>
<bpm>0</bpm>
<rpm>0.00</rpm>
</extensions>
</trkpt>
<trkpt lat="63.707874298" lon="-19.712350845">
<ele>127.492188</ele>
<time>2012-07-26T17:30:44Z</time>
<speed>0.290000</speed>
<extensions>
<speed>0.3</speed>
<temp>0.00</temp>
<bpm>0</bpm>
<rpm>0.00</rpm>
</extensions>
</trkpt>
<trkpt lat="63.707878113" lon="-19.712362289">
<ele>127.492188</ele>
<time>2012-07-26T17:30:49Z</time>
<speed>0.060000</speed>
<extensions>
<speed>0.1</speed>
<temp>0.00</temp>
<bpm>0</bpm>
<rpm>0.00</rpm>
</extensions>
</trkpt>
<trkpt lat="63.707878113" lon="-19.712360382">
<ele>127.363281</ele>
<time>2012-07-26T17:30:54Z</time>
<speed>0.060000</speed>
<extensions>
<speed>0.1</speed>
<temp>0.00</temp>
<bpm>0</bpm>
<rpm>0.00</rpm>
</extensions>
</trkpt>
<trkpt lat="63.707878113" lon="-19.712364197">
<ele>127.384766</ele>
<time>2012-07-26T17:30:59Z</time>
<speed>0.010000</speed>
<extensions>
<speed>0.0</speed>
<temp>0.00</temp>
<bpm>0</bpm>
<rpm>0.00</rpm>
</extensions>
</trkpt>
<trkpt lat="63.707878113" lon="-19.712364197">
<ele>127.367188</ele>
<time>2012-07-26T17:31:04Z</time>
<speed>0.040000</speed>
<extensions>
<speed>0.0</speed>
<temp>0.00</temp>
<bpm>0</bpm>
<rpm>0.00</rpm>
</extensions>
</trkpt>
<trkpt lat="63.707878113" lon="-19.712364197">
<ele>127.326172</ele>
<time>2012-07-26T17:31:09Z</time>
<speed>0.150000</speed>
<extensions>
<speed>0.2</speed>
<temp>0.00</temp>
<bpm>0</bpm>
<rpm>0.00</rpm>
</extensions>
</trkpt>
<trkpt lat="63.707881927" lon="-19.712368011">
<ele>127.783203</ele>
<time>2012-07-26T17:31:14Z</time>
<speed>0.060000</speed>
<extensions>
<speed>0.1</speed>
<temp>0.00</temp>
<bpm>0</bpm>
<rpm>0.00</rpm>
</extensions>
</trkpt>
<trkpt lat="63.707881927" lon="-19.712369919">
<ele>128.000000</ele>
<time>2012-07-26T17:31:19Z</time>
<speed>0.010000</speed>
<extensions>
<speed>0.0</speed>
<temp>0.00</temp>
<bpm>0</bpm>
<rpm>0.00</rpm>
</extensions>
</trkpt>
<trkpt lat="63.707881927" lon="-19.712369919">
<ele>128.082031</ele>
<time>2012-07-26T17:31:24Z</time>
<speed>0.040000</speed>
<extensions>
<speed>0.0</speed>
<temp>0.00</temp>
<bpm>0</bpm>
<rpm>0.00</rpm>
</extensions>
</trkpt>
<trkpt lat="63.707881927" lon="-19.712369919">
<ele>128.085938</ele>
<time>2012-07-26T17:31:29Z</time>
<extensions>
<speed>0.0</speed>
<temp>0.00</temp>
<bpm>0</bpm>
<rpm>0.00</rpm>
</extensions>
</trkpt>
<trkpt lat="63.707881927" lon="-19.712369919">
<ele>128.097656</ele>
<time>2012-07-26T17:31:34Z</time>
<speed>0.010000</speed>
<extensions>
<speed>0.0</speed>
<temp>0.00</temp>
<bpm>0</bpm>
<rpm>0.00</rpm>
</extensions>
</trkpt>
<trkpt lat="63.707881927" lon="-19.712369919">
<ele>128.101563</ele>
<time>2012-07-26T17:31:39Z</time>
<extensions>
<speed>0.0</speed>
<temp>0.00</temp>
<bpm>0</bpm>
<rpm>0.00</rpm>
</extensions>
</trkpt>
<trkpt lat="63.707881927" lon="-19.712369919">
<ele>128.105469</ele>
<time>2012-07-26T17:31:44Z</time>
<speed>0.020000</speed>
<extensions>
<speed>0.0</speed>
<temp>0.00</temp>
<bpm>0</bpm>
<rpm>0.00</rpm>
</extensions>
</trkpt>
<trkpt lat="63.707881927" lon="-19.712369919">
<ele>128.085938</ele>
<time>2012-07-26T17:31:49Z</time>
<speed>0.010000</speed>
<extensions>
<speed>0.0</speed>
<temp>0.00</temp>
<bpm>0</bpm>
<rpm>0.00</rpm>
</extensions>
</trkpt>
<trkpt lat="63.707881927" lon="-19.712368011">
<ele>128.074219</ele>
<time>2012-07-26T17:31:54Z</time>
<speed>0.010000</speed>
<extensions>
<speed>0.0</speed>
<temp>0.00</temp>
<bpm>0</bpm>
<rpm>0.00</rpm>
</extensions>
</trkpt>
<trkpt lat="63.707881927" lon="-19.712368011">
<ele>128.058594</ele>
<time>2012-07-26T17:31:59Z</time>
<speed>0.010000</speed>
<extensions>
<speed>0.0</speed>
<temp>0.00</temp>
<bpm>0</bpm>
<rpm>0.00</rpm>
</extensions>
</trkpt>
<trkpt lat="63.707881927" lon="-19.712368011">
<ele>128.058594</ele>
<time>2012-07-26T17:32:04Z</time>
<speed>0.120000</speed>
<extensions>
<speed>0.1</speed>
<temp>0.00</temp>
<bpm>0</bpm>
<rpm>0.00</rpm>
</extensions>
</trkpt>
<trkpt lat="63.707889557" lon="-19.712373734">
<ele>128.046875</ele>
<time>2012-07-26T17:32:09Z</time>
<speed>0.180000</speed>
<extensions>
<speed>0.2</speed>
<temp>0.00</temp>
<bpm>0</bpm>
<rpm>0.00</rpm>
</extensions>
</trkpt>
<trkpt lat="63.707878113" lon="-19.712368011">
<ele>127.408203</ele>
<time>2012-07-26T17:32:14Z</time>
<speed>0.160000</speed>
<extensions>
<speed>0.2</speed>
<temp>0.00</temp>
<bpm>0</bpm>
<rpm>0.00</rpm>
</extensions>
</trkpt>
<trkpt lat="63.707878113" lon="-19.712366104">
<ele>126.908203</ele>
<time>2012-07-26T17:32:19Z</time>
<speed>0.160000</speed>
<extensions>
<speed>0.2</speed>
<temp>0.00</temp>
<bpm>0</bpm>
<rpm>0.00</rpm>
</extensions>
</trkpt>
<trkpt lat="63.707878113" lon="-19.712364197">
<ele>126.687500</ele>
<time>2012-07-26T17:32:24Z</time>
<speed>0.140000</speed>
<extensions>
<speed>0.1</speed>
<temp>0.00</temp>
<bpm>0</bpm>
<rpm>0.00</rpm>
</extensions>
</trkpt>
<trkpt lat="63.707874298" lon="-19.712364197">
<ele>126.533203</ele>
<time>2012-07-26T17:32:29Z</time>
<speed>0.200000</speed>
<extensions>
<speed>0.2</speed>
<temp>0.00</temp>
<bpm>0</bpm>
<rpm>0.00</rpm>
</extensions>
</trkpt>
<trkpt lat="63.707870483" lon="-19.712364197">
<ele>126.437500</ele>
<time>2012-07-26T17:32:34Z</time>
<speed>0.090000</speed>
<extensions>
<speed>0.1</speed>
<temp>0.00</temp>
<bpm>0</bpm>
<rpm>0.00</rpm>
</extensions>
</trkpt>
<trkpt lat="63.707874298" lon="-19.712369919">
<ele>126.337891</ele>
<time>2012-07-26T17:32:39Z</time>
<speed>0.150000</speed>
<extensions>
<speed>0.2</speed>
<temp>0.00</temp>
<bpm>0</bpm>
<rpm>0.00</rpm>
</extensions>
</trkpt>
<trkpt lat="63.707870483" lon="-19.712368011">
<ele>126.488281</ele>
<time>2012-07-26T17:32:44Z</time>
<speed>0.050000</speed>
<extensions>
<speed>0.1</speed>
<temp>0.00</temp>
<bpm>0</bpm>
<rpm>0.00</rpm>
</extensions>
</trkpt>
<trkpt lat="63.707870483" lon="-19.712368011">
<ele>126.496094</ele>
<time>2012-07-26T17:32:49Z</time>
<speed>0.050000</speed>
<extensions>
<speed>0.1</speed>
<temp>0.00</temp>
<bpm>0</bpm>
<rpm>0.00</rpm>
</extensions>
</trkpt>
<trkpt lat="63.707870483" lon="-19.712362289">
<ele>126.533203</ele>
<time>2012-07-26T17:32:54Z</time>
<speed>0.150000</speed>
<extensions>
<speed>0.2</speed>
<temp>0.00</temp>
<bpm>0</bpm>
<rpm>0.00</rpm>
</extensions>
</trkpt>
<trkpt lat="63.707874298" lon="-19.712348938">
<ele>126.847656</ele>
<time>2012-07-26T17:32:59Z</time>
<speed>0.130000</speed>
<extensions>
<speed>0.1</speed>
<temp>0.00</temp>
<bpm>0</bpm>
<rpm>0.00</rpm>
</extensions>
</trkpt>
<trkpt lat="63.707878113" lon="-19.712341309">
<ele>127.156250</ele>
<time>2012-07-26T17:33:04Z</time>
<speed>0.070000</speed>
<extensions>
<speed>0.1</speed>
<temp>0.00</temp>
<bpm>0</bpm>
<rpm>0.00</rpm>
</extensions>
</trkpt>
<trkpt lat="63.707881927" lon="-19.712341309">
<ele>127.564453</ele>
<time>2012-07-26T17:33:09Z</time>
<speed>0.060000</speed>
<extensions>
<speed>0.1</speed>
<temp>0.00</temp>
<bpm>0</bpm>
<rpm>0.00</rpm>
</extensions>
</trkpt>
<trkpt lat="63.707881927" lon="-19.712341309">
<ele>127.980469</ele>
<time>2012-07-26T17:33:14Z</time>
<speed>0.130000</speed>
<extensions>
<speed>0.1</speed>
<temp>0.00</temp>
<bpm>0</bpm>
<rpm>0.00</rpm>
</extensions>
</trkpt>
<trkpt lat="63.707878113" lon="-19.712352753">
<ele>128.433594</ele>
<time>2012-07-26T17:33:19Z</time>
<speed>0.250000</speed>
<extensions>
<speed>0.2</speed>
<temp>0.00</temp>
<bpm>0</bpm>
<rpm>0.00</rpm>
</extensions>
</trkpt>
<trkpt lat="63.707874298" lon="-19.712362289">
<ele>128.789063</ele>
<time>2012-07-26T17:33:24Z</time>
<speed>0.060000</speed>
<extensions>
<speed>0.1</speed>
<temp>0.00</temp>
<bpm>0</bpm>
<rpm>0.00</rpm>
</extensions>
</trkpt>
<trkpt lat="63.707874298" lon="-19.712356567">
<ele>128.968750</ele>
<time>2012-07-26T17:33:29Z</time>
<speed>0.030000</speed>
<extensions>
<speed>0.0</speed>
<temp>0.00</temp>
<bpm>0</bpm>
<rpm>0.00</rpm>
</extensions>
</trkpt>
<trkpt lat="63.707878113" lon="-19.712343216">
<ele>130.003906</ele>
<time>2012-07-26T17:33:34Z</time>
<speed>0.360000</speed>
<extensions>
<speed>0.4</speed>
<temp>0.00</temp>
<bpm>0</bpm>
<rpm>0.00</rpm>
</extensions>
</trkpt>
<trkpt lat="63.707893372" lon="-19.712379456">
<ele>129.312500</ele>
<time>2012-07-26T17:33:39Z</time>
<speed>0.040000</speed>
<extensions>
<speed>0.0</speed>
<temp>0.00</temp>
<bpm>0</bpm>
<rpm>0.00</rpm>
</extensions>
</trkpt>
<trkpt lat="63.707897186" lon="-19.712387085">
<ele>129.281250</ele>
<time>2012-07-26T17:33:44Z</time>
<speed>0.010000</speed>
<extensions>
<speed>0.0</speed>
<temp>0.00</temp>
<bpm>0</bpm>
<rpm>0.00</rpm>
</extensions>
</trkpt>
<trkpt lat="63.707897186" lon="-19.712385178">
<ele>129.273438</ele>
<time>2012-07-26T17:33:49Z</time>
<speed>0.040000</speed>
<extensions>
<speed>0.0</speed>
<temp>0.00</temp>
<bpm>0</bpm>
<rpm>0.00</rpm>
</extensions>
</trkpt>
<trkpt lat="63.707901001" lon="-19.712396622">
<ele>129.289063</ele>
<time>2012-07-26T17:33:54Z</time>
<speed>1.060000</speed>
<extensions>
<speed>1.1</speed>
<temp>0.00</temp>
<bpm>0</bpm>
<rpm>0.00</rpm>
</extensions>
</trkpt>
<trkpt lat="63.707904816" lon="-19.712459564">
<ele>128.906250</ele>
<time>2012-07-26T17:33:59Z</time>
<speed>0.100000</speed>
<extensions>
<speed>0.1</speed>
<temp>0.00</temp>
<bpm>0</bpm>
<rpm>0.00</rpm>
</extensions>
</trkpt>
<trkpt lat="63.707904816" lon="-19.712457657">
<ele>129.128906</ele>
<time>2012-07-26T17:34:04Z</time>
<extensions>
<speed>0.0</speed>
<temp>0.00</temp>
<bpm>0</bpm>
<rpm>0.00</rpm>
</extensions>
</trkpt>
<trkpt lat="63.707908630" lon="-19.712484360">
<ele>128.871094</ele>
<time>2012-07-26T17:34:09Z</time>
<speed>0.020000</speed>
<extensions>
<speed>0.0</speed>
<temp>0.00</temp>
<bpm>0</bpm>
<rpm>0.00</rpm>
</extensions>
</trkpt>
<trkpt lat="63.707908630" lon="-19.712474823">
<ele>129.125000</ele>
<time>2012-07-26T17:34:14Z</time>
<speed>0.090000</speed>
<extensions>
<speed>0.1</speed>
<temp>0.00</temp>
<bpm>0</bpm>
<rpm>0.00</rpm>
</extensions>
</trkpt>
<trkpt lat="63.707904816" lon="-19.712472916">
<ele>129.109375</ele>
<time>2012-07-26T17:34:19Z</time>
<speed>0.010000</speed>
<extensions>
<speed>0.0</speed>
<temp>0.00</temp>
<bpm>0</bpm>
<rpm>0.00</rpm>
</extensions>
</trkpt>
<trkpt lat="63.707904816" lon="-19.712593079">
<ele>129.144531</ele>
<time>2012-07-26T17:34:24Z</time>
<speed>1.790000</speed>
<extensions>
<speed>1.8</speed>
<temp>0.00</temp>
<bpm>0</bpm>
<rpm>0.00</rpm>
</extensions>
</trkpt>
<trkpt lat="63.707931519" lon="-19.712823868">
<ele>128.781250</ele>
<time>2012-07-26T17:34:29Z</time>
<speed>2.500000</speed>
<extensions>
<speed>2.5</speed>
<temp>0.00</temp>
<bpm>0</bpm>
<rpm>0.00</rpm>
</extensions>
</trkpt>
<trkpt lat="63.707973480" lon="-19.713087082">
<ele>128.640625</ele>
<time>2012-07-26T17:34:34Z</time>
<speed>3.060000</speed>
<extensions>
<speed>3.1</speed>
<temp>0.00</temp>
<bpm>0</bpm>
<rpm>0.00</rpm>
</extensions>
</trkpt>
<trkpt lat="63.708023071" lon="-19.713417053">
<ele>128.273438</ele>
<time>2012-07-26T17:34:39Z</time>
<speed>3.590000</speed>
<extensions>
<speed>3.6</speed>
<temp>0.00</temp>
<bpm>0</bpm>
<rpm>0.00</rpm>
</extensions>
</trkpt>
<trkpt lat="63.708072662" lon="-19.713710785">
<ele>127.998047</ele>
<time>2012-07-26T17:34:44Z</time>
<speed>2.630000</speed>
<extensions>
<speed>2.6</speed>
<temp>0.00</temp>
<bpm>0</bpm>
<rpm>0.00</rpm>
</extensions>
</trkpt>
<trkpt lat="63.708122253" lon="-19.713964462">
<ele>129.289063</ele>
<time>2012-07-26T17:34:49Z</time>
<speed>2.930000</speed>
<extensions>
<speed>2.9</speed>
<temp>0.00</temp>
<bpm>0</bpm>
<rpm>0.00</rpm>
</extensions>
</trkpt>
<trkpt lat="63.708171844" lon="-19.714277267">
<ele>129.398438</ele>
<time>2012-07-26T17:34:54Z</time>
<speed>3.350000</speed>
<extensions>
<speed>3.4</speed>
<temp>0.00</temp>
<bpm>0</bpm>
<rpm>0.00</rpm>
</extensions>
</trkpt>
<trkpt lat="63.708221436" lon="-19.714595795">
<ele>129.453125</ele>
<time>2012-07-26T17:34:59Z</time>
<speed>3.870000</speed>
<extensions>
<speed>3.9</speed>
<temp>0.00</temp>
<bpm>0</bpm>
<rpm>0.00</rpm>
</extensions>
</trkpt>
<trkpt lat="63.708263397" lon="-19.714981079">
<ele>129.480469</ele>
<time>2012-07-26T17:35:04Z</time>
<speed>3.310000</speed>
<extensions>
<speed>3.3</speed>
<temp>0.00</temp>
<bpm>0</bpm>
<rpm>0.00</rpm>
</extensions>
</trkpt>
<trkpt lat="63.708305359" lon="-19.715288162">
<ele>129.421875</ele>
<time>2012-07-26T17:35:09Z</time>
<speed>2.900000</speed>
<extensions>
<speed>2.9</speed>
<temp>0.00</temp>
<bpm>0</bpm>
<rpm>0.00</rpm>
</extensions>
</trkpt>
<trkpt lat="63.708312988" lon="-19.715517044">
<ele>130.527344</ele>
<time>2012-07-26T17:35:14Z</time>
<speed>1.570000</speed>
<extensions>
<speed>1.6</speed>
<temp>0.00</temp>
<bpm>0</bpm>
<rpm>0.00</rpm>
</extensions>
</trkpt>
<trkpt lat="63.708312988" lon="-19.715629578">
<ele>130.503906</ele>
<time>2012-07-26T17:35:19Z</time>
<speed>2.050000</speed>
<extensions>
<speed>2.1</speed>
<temp>0.00</temp>
<bpm>0</bpm>
<rpm>0.00</rpm>
</extensions>
</trkpt>
<trkpt lat="63.708312988" lon="-19.715900421">
<ele>130.281250</ele>
<time>2012-07-26T17:35:24Z</time>
<speed>3.150000</speed>
<extensions>
<speed>3.2</speed>
<temp>0.00</temp>
<bpm>0</bpm>
<rpm>0.00</rpm>
</extensions>
</trkpt>
<trkpt lat="63.708312988" lon="-19.716245651">
<ele>131.445313</ele>
<time>2012-07-26T17:35:29Z</time>
<speed>3.420000</speed>
<extensions>
<speed>3.4</speed>
<temp>0.00</temp>
<bpm>0</bpm>
<rpm>0.00</rpm>
</extensions>
</trkpt>
<trkpt lat="63.708320618" lon="-19.716592789">
<ele>132.035156</ele>
<time>2012-07-26T17:35:34Z</time>
<speed>3.340000</speed>
<extensions>
<speed>3.3</speed>
<temp>0.00</temp>
<bpm>0</bpm>
<rpm>0.00</rpm>
</extensions>
</trkpt>
<trkpt lat="63.708324432" lon="-19.716959000">
<ele>132.480469</ele>
<time>2012-07-26T17:35:39Z</time>
<speed>3.740000</speed>
<extensions>
<speed>3.7</speed>
<temp>0.00</temp>
<bpm>0</bpm>
<rpm>0.00</rpm>
</extensions>
</trkpt>
<trkpt lat="63.708324432" lon="-19.717359543">
<ele>133.433594</ele>
<time>2012-07-26T17:35:44Z</time>
<speed>3.750000</speed>
<extensions>
<speed>3.8</speed>
<temp>0.00</temp>
<bpm>0</bpm>
<rpm>0.00</rpm>
</extensions>
</trkpt>
<trkpt lat="63.708324432" lon="-19.717750549">
<ele>133.910156</ele>
<time>2012-07-26T17:35:49Z</time>
<speed>3.970000</speed>
<extensions>
<speed>4.0</speed>
<temp>0.00</temp>
<bpm>0</bpm>
<rpm>0.00</rpm>
</extensions>
</trkpt>
<trkpt lat="63.708328247" lon="-19.718160629">
<ele>133.906250</ele>
<time>2012-07-26T17:35:54Z</time>
<speed>4.020000</speed>
<extensions>
<speed>4.0</speed>
<temp>0.00</temp>
<bpm>0</bpm>
<rpm>0.00</rpm>
</extensions>
</trkpt>
<trkpt lat="63.708332062" lon="-19.718524933">
<ele>134.457031</ele>
<time>2012-07-26T17:35:59Z</time>
<speed>3.720000</speed>
<extensions>
<speed>3.7</speed>
<temp>0.00</temp>
<bpm>0</bpm>
<rpm>0.00</rpm>
</extensions>
</trkpt>
<trkpt lat="63.708335876" lon="-19.718929291">
<ele>134.742188</ele>
<time>2012-07-26T17:36:04Z</time>
<speed>3.940000</speed>
<extensions>
<speed>3.9</speed>
<temp>0.00</temp>
<bpm>0</bpm>
<rpm>0.00</rpm>
</extensions>
</trkpt>
<trkpt lat="63.708332062" lon="-19.719305038">
<ele>135.191406</ele>
<time>2012-07-26T17:36:09Z</time>
<speed>3.660000</speed>
<extensions>
<speed>3.7</speed>
<temp>0.00</temp>
<bpm>0</bpm>
<rpm>0.00</rpm>
</extensions>
</trkpt>
<trkpt lat="63.708320618" lon="-19.719682693">
<ele>135.812500</ele>
<time>2012-07-26T17:36:14Z</time>
<speed>4.160000</speed>
<extensions>
<speed>4.2</speed>
<temp>0.00</temp>
<bpm>0</bpm>
<rpm>0.00</rpm>
</extensions>
</trkpt>
<trkpt lat="63.708312988" lon="-19.720102310">
<ele>135.398438</ele>
<time>2012-07-26T17:36:19Z</time>
<speed>3.880000</speed>
<extensions>
<speed>3.9</speed>
<temp>0.00</temp>
<bpm>0</bpm>
<rpm>0.00</rpm>
</extensions>
</trkpt>
<trkpt lat="63.708312988" lon="-19.720497131">
<ele>135.550781</ele>
<time>2012-07-26T17:36:24Z</time>
<speed>3.800000</speed>
<extensions>
<speed>3.8</speed>
<temp>0.00</temp>
<bpm>0</bpm>
<rpm>0.00</rpm>
</extensions>
</trkpt>
<trkpt lat="63.708320618" lon="-19.720878601">
<ele>135.851563</ele>
<time>2012-07-26T17:36:29Z</time>
<speed>3.790000</speed>
<extensions>
<speed>3.8</speed>
<temp>0.00</temp>
<bpm>0</bpm>
<rpm>0.00</rpm>
</extensions>
</trkpt>
<trkpt lat="63.708332062" lon="-19.721273422">
<ele>136.613281</ele>
<time>2012-07-26T17:36:34Z</time>
<speed>3.930000</speed>
<extensions>
<speed>3.9</speed>
<temp>0.00</temp>
<bpm>0</bpm>
<rpm>0.00</rpm>
</extensions>
</trkpt>
<trkpt lat="63.708347321" lon="-19.721668243">
<ele>136.964844</ele>
<time>2012-07-26T17:36:39Z</time>
<speed>3.750000</speed>
<extensions>
<speed>3.8</speed>
<temp>0.00</temp>
<bpm>0</bpm>
<rpm>0.00</rpm>
</extensions>
</trkpt>
<trkpt lat="63.708370209" lon="-19.722030640">
<ele>136.480469</ele>
<time>2012-07-26T17:36:44Z</time>
<speed>3.490000</speed>
<extensions>
<speed>3.5</speed>
<temp>0.00</temp>
<bpm>0</bpm>
<rpm>0.00</rpm>
</extensions>
</trkpt>
<trkpt lat="63.708408356" lon="-19.722370148">
<ele>136.449219</ele>
<time>2012-07-26T17:36:49Z</time>
<speed>3.350000</speed>
<extensions>
<speed>3.4</speed>
<temp>0.00</temp>
<bpm>0</bpm>
<rpm>0.00</rpm>
</extensions>
</trkpt>
<trkpt lat="63.708454132" lon="-19.722719193">
<ele>136.367188</ele>
<time>2012-07-26T17:36:54Z</time>
<speed>3.560000</speed>
<extensions>
<speed>3.6</speed>
<temp>0.00</temp>
<bpm>0</bpm>
<rpm>0.00</rpm>
</extensions>
</trkpt>
<trkpt lat="63.708484650" lon="-19.723052979">
<ele>136.238281</ele>
<time>2012-07-26T17:36:59Z</time>
<speed>3.450000</speed>
<extensions>
<speed>3.5</speed>
<temp>0.00</temp>
<bpm>0</bpm>
<rpm>0.00</rpm>
</extensions>
</trkpt>
<trkpt lat="63.708522797" lon="-19.723390579">
<ele>135.648438</ele>
<time>2012-07-26T17:37:04Z</time>
<speed>3.570000</speed>
<extensions>
<speed>3.6</speed>
<temp>0.00</temp>
<bpm>0</bpm>
<rpm>0.00</rpm>
</extensions>
</trkpt>
<trkpt lat="63.708560944" lon="-19.723745346">
<ele>135.503906</ele>
<time>2012-07-26T17:37:09Z</time>
<speed>3.790000</speed>
<extensions>
<speed>3.8</speed>
<temp>0.00</temp>
<bpm>0</bpm>
<rpm>0.00</rpm>
</extensions>
</trkpt>
<trkpt lat="63.708602905" lon="-19.724119186">
<ele>135.214844</ele>
<time>2012-07-26T17:37:14Z</time>
<speed>3.870000</speed>
<extensions>
<speed>3.9</speed>
<temp>0.00</temp>
<bpm>0</bpm>
<rpm>0.00</rpm>
</extensions>
</trkpt>
<trkpt lat="63.708637238" lon="-19.724493027">
<ele>134.554688</ele>
<time>2012-07-26T17:37:19Z</time>
<speed>3.690000</speed>
<extensions>
<speed>3.7</speed>
<temp>0.00</temp>
<bpm>0</bpm>
<rpm>0.00</rpm>
</extensions>
</trkpt>
<trkpt lat="63.708679199" lon="-19.724843979">
<ele>134.640625</ele>
<time>2012-07-26T17:37:24Z</time>
<speed>3.440000</speed>
<extensions>
<speed>3.4</speed>
<temp>0.00</temp>
<bpm>0</bpm>
<rpm>0.00</rpm>
</extensions>
</trkpt>
<trkpt lat="63.708724976" lon="-19.725208282">
<ele>134.160156</ele>
<time>2012-07-26T17:37:29Z</time>
<speed>3.850000</speed>
<extensions>
<speed>3.8</speed>
<temp>0.00</temp>
<bpm>0</bpm>
<rpm>0.00</rpm>
</extensions>
</trkpt>
<trkpt lat="63.708770752" lon="-19.725587845">
<ele>133.671875</ele>
<time>2012-07-26T17:37:34Z</time>
<speed>3.560000</speed>
<extensions>
<speed>3.6</speed>
<temp>0.00</temp>
<bpm>0</bpm>
<rpm>0.00</rpm>
</extensions>
</trkpt>
<trkpt lat="63.708801270" lon="-19.725914001">
<ele>131.367188</ele>
<time>2012-07-26T17:37:39Z</time>
<speed>3.310000</speed>
<extensions>
<speed>3.3</speed>
<temp>0.00</temp>
<bpm>0</bpm>
<rpm>0.00</rpm>
</extensions>
</trkpt>
<trkpt lat="63.708850861" lon="-19.726221085">
<ele>130.957031</ele>
<time>2012-07-26T17:37:44Z</time>
<speed>3.470000</speed>
<extensions>
<speed>3.5</speed>
<temp>0.00</temp>
<bpm>0</bpm>
<rpm>0.00</rpm>
</extensions>
</trkpt>
<trkpt lat="63.708911896" lon="-19.726541519">
<ele>131.000000</ele>
<time>2012-07-26T17:37:49Z</time>
<speed>3.550000</speed>
<extensions>
<speed>3.5</speed>
<temp>0.00</temp>
<bpm>0</bpm>
<rpm>0.00</rpm>
</extensions>
</trkpt>
<trkpt lat="63.708972931" lon="-19.726856232">
<ele>131.828125</ele>
<time>2012-07-26T17:37:54Z</time>
<speed>3.400000</speed>
<extensions>
<speed>3.4</speed>
<temp>0.00</temp>
<bpm>0</bpm>
<rpm>0.00</rpm>
</extensions>
</trkpt>
<trkpt lat="63.709022522" lon="-19.727178574">
<ele>131.566406</ele>
<time>2012-07-26T17:37:59Z</time>
<speed>3.550000</speed>
<extensions>
<speed>3.5</speed>
<temp>0.00</temp>
<bpm>0</bpm>
<rpm>0.00</rpm>
</extensions>
</trkpt>
<trkpt lat="63.709083557" lon="-19.727533340">
<ele>130.781250</ele>
<time>2012-07-26T17:38:04Z</time>
<speed>3.830000</speed>
<extensions>
<speed>3.8</speed>
<temp>0.00</temp>
<bpm>0</bpm>
<rpm>0.00</rpm>
</extensions>
</trkpt>
<trkpt lat="63.709136963" lon="-19.727857590">
<ele>130.074219</ele>
<time>2012-07-26T17:38:09Z</time>
<speed>2.670000</speed>
<extensions>
<speed>2.7</speed>
<temp>0.00</temp>
<bpm>0</bpm>
<rpm>0.00</rpm>
</extensions>
</trkpt>
<trkpt lat="63.709156036" lon="-19.728057861">
<ele>129.375000</ele>
<time>2012-07-26T17:38:14Z</time>
<speed>1.480000</speed>
<extensions>
<speed>1.5</speed>
<temp>0.00</temp>
<bpm>0</bpm>
<rpm>0.00</rpm>
</extensions>
</trkpt>
<trkpt lat="63.709194183" lon="-19.728300095">
<ele>129.378906</ele>
<time>2012-07-26T17:38:19Z</time>
<speed>3.300000</speed>
<extensions>
<speed>3.3</speed>
<temp>0.00</temp>
<bpm>0</bpm>
<rpm>0.00</rpm>
</extensions>
</trkpt>
<trkpt lat="63.709255219" lon="-19.728631973">
<ele>128.773438</ele>
<time>2012-07-26T17:38:24Z</time>
<speed>3.660000</speed>
<extensions>
<speed>3.7</speed>
<temp>0.00</temp>
<bpm>0</bpm>
<rpm>0.00</rpm>
</extensions>
</trkpt>
<trkpt lat="63.709320068" lon="-19.728961945">
<ele>128.457031</ele>
<time>2012-07-26T17:38:29Z</time>
<speed>3.550000</speed>
<extensions>
<speed>3.5</speed>
<temp>0.00</temp>
<bpm>0</bpm>
<rpm>0.00</rpm>
</extensions>
</trkpt>
<trkpt lat="63.709384918" lon="-19.729293823">
<ele>128.226563</ele>
<time>2012-07-26T17:38:34Z</time>
<speed>3.520000</speed>
<extensions>
<speed>3.5</speed>
<temp>0.00</temp>
<bpm>0</bpm>
<rpm>0.00</rpm>
</extensions>
</trkpt>
<trkpt lat="63.709449768" lon="-19.729646683">
<ele>128.152344</ele>
<time>2012-07-26T17:38:39Z</time>
<speed>3.910000</speed>
<extensions>
<speed>3.9</speed>
<temp>0.00</temp>
<bpm>0</bpm>
<rpm>0.00</rpm>
</extensions>
</trkpt>
<trkpt lat="63.709518433" lon="-19.730012894">
<ele>128.097656</ele>
<time>2012-07-26T17:38:44Z</time>
<speed>3.550000</speed>
<extensions>
<speed>3.5</speed>
<temp>0.00</temp>
<bpm>0</bpm>
<rpm>0.00</rpm>
</extensions>
</trkpt>
<trkpt lat="63.709568024" lon="-19.730321884">
<ele>127.814453</ele>
<time>2012-07-26T17:38:49Z</time>
<speed>2.470000</speed>
<extensions>
<speed>2.5</speed>
<temp>0.00</temp>
<bpm>0</bpm>
<rpm>0.00</rpm>
</extensions>
</trkpt>
<trkpt lat="63.709575653" lon="-19.730501175">
<ele>126.988281</ele>
<time>2012-07-26T17:38:54Z</time>
<speed>2.250000</speed>
<extensions>
<speed>2.3</speed>
<temp>0.00</temp>
<bpm>0</bpm>
<rpm>0.00</rpm>
</extensions>
</trkpt>
<trkpt lat="63.709590912" lon="-19.730735779">
<ele>127.646484</ele>
<time>2012-07-26T17:38:59Z</time>
<speed>2.780000</speed>
<extensions>
<speed>2.8</speed>
<temp>0.00</temp>
<bpm>0</bpm>
<rpm>0.00</rpm>
</extensions>
</trkpt>
<trkpt lat="63.709640503" lon="-19.731021881">
<ele>125.654297</ele>
<time>2012-07-26T17:39:04Z</time>
<speed>2.780000</speed>
<extensions>
<speed>2.8</speed>
<temp>0.00</temp>
<bpm>0</bpm>
<rpm>0.00</rpm>
</extensions>
</trkpt>
<trkpt lat="63.709655762" lon="-19.731285095">
<ele>124.748047</ele>
<time>2012-07-26T17:39:09Z</time>
<speed>1.970000</speed>
<extensions>
<speed>2.0</speed>
<temp>0.00</temp>
<bpm>0</bpm>
<rpm>0.00</rpm>
</extensions>
</trkpt>
<trkpt lat="63.709659576" lon="-19.731470108">
<ele>125.078125</ele>
<time>2012-07-26T17:39:14Z</time>
<speed>2.470000</speed>
<extensions>
<speed>2.5</speed>
<temp>0.00</temp>
<bpm>0</bpm>
<rpm>0.00</rpm>
</extensions>
</trkpt>
<trkpt lat="63.709671021" lon="-19.731763840">
<ele>124.679688</ele>
<time>2012-07-26T17:39:19Z</time>
<speed>3.080000</speed>
<extensions>
<speed>3.1</speed>
<temp>0.00</temp>
<bpm>0</bpm>
<rpm>0.00</rpm>
</extensions>
</trkpt>
<trkpt lat="63.709682465" lon="-19.732080460">
<ele>125.230469</ele>
<time>2012-07-26T17:39:24Z</time>
<speed>3.330000</speed>
<extensions>
<speed>3.3</speed>
<temp>0.00</temp>
<bpm>0</bpm>
<rpm>0.00</rpm>
</extensions>
</trkpt>
<trkpt lat="63.709705353" lon="-19.732393265">
<ele>126.808594</ele>
<time>2012-07-26T17:39:29Z</time>
<speed>3.440000</speed>
<extensions>
<speed>3.4</speed>
<temp>0.00</temp>
<bpm>0</bpm>
<rpm>0.00</rpm>
</extensions>
</trkpt>
<trkpt lat="63.709762573" lon="-19.732717514">
<ele>126.791016</ele>
<time>2012-07-26T17:39:34Z</time>
<speed>3.030000</speed>
<extensions>
<speed>3.0</speed>
<temp>0.00</temp>
<bpm>0</bpm>
<rpm>0.00</rpm>
</extensions>
</trkpt>
<trkpt lat="63.709896088" lon="-19.732753754">
<ele>128.093750</ele>
<time>2012-07-26T17:39:39Z</time>
<speed>2.000000</speed>
<extensions>
<speed>2.0</speed>
<temp>0.00</temp>
<bpm>0</bpm>
<rpm>0.00</rpm>
</extensions>
</trkpt>
<trkpt lat="63.709980011" lon="-19.732603073">
<ele>127.839844</ele>
<time>2012-07-26T17:39:44Z</time>
<speed>1.650000</speed>
<extensions>
<speed>1.7</speed>
<temp>0.00</temp>
<bpm>0</bpm>
<rpm>0.00</rpm>
</extensions>
</trkpt>
<trkpt lat="63.710056305" lon="-19.732522964">
<ele>128.226563</ele>
<time>2012-07-26T17:39:49Z</time>
<speed>1.620000</speed>
<extensions>
<speed>1.6</speed>
<temp>0.00</temp>
<bpm>0</bpm>
<rpm>0.00</rpm>
</extensions>
</trkpt>
<trkpt lat="63.710155487" lon="-19.732481003">
<ele>129.089844</ele>
<time>2012-07-26T17:39:54Z</time>
<speed>1.960000</speed>
<extensions>
<speed>2.0</speed>
<temp>0.00</temp>
<bpm>0</bpm>
<rpm>0.00</rpm>
</extensions>
</trkpt>
<trkpt lat="63.710216522" lon="-19.732507706">
<ele>129.527344</ele>
<time>2012-07-26T17:39:59Z</time>
<speed>0.050000</speed>
<extensions>
<speed>0.1</speed>
<temp>0.00</temp>
<bpm>0</bpm>
<rpm>0.00</rpm>
</extensions>
</trkpt>
<trkpt lat="63.710212708" lon="-19.732511520">
<ele>129.125000</ele>
<time>2012-07-26T17:40:04Z</time>
<speed>0.190000</speed>
<extensions>
<speed>0.2</speed>
<temp>0.00</temp>
<bpm>0</bpm>
<rpm>0.00</rpm>
</extensions>
</trkpt>
<trkpt lat="63.710227966" lon="-19.732505798">
<ele>129.039063</ele>
<time>2012-07-26T17:40:09Z</time>
<speed>0.010000</speed>
<extensions>
<speed>0.0</speed>
<temp>0.00</temp>
<bpm>0</bpm>
<rpm>0.00</rpm>
</extensions>
</trkpt>
<trkpt lat="63.710235596" lon="-19.732509613">
<ele>129.214844</ele>
<time>2012-07-26T17:40:14Z</time>
<speed>0.030000</speed>
<extensions>
<speed>0.0</speed>
<temp>0.00</temp>
<bpm>0</bpm>
<rpm>0.00</rpm>
</extensions>
</trkpt>
<trkpt lat="63.710258484" lon="-19.732521057">
<ele>129.218750</ele>
<time>2012-07-26T17:40:19Z</time>
<speed>0.580000</speed>
<extensions>
<speed>0.6</speed>
<temp>0.00</temp>
<bpm>0</bpm>
<rpm>0.00</rpm>
</extensions>
</trkpt>
<trkpt lat="63.710285187" lon="-19.732532501">
<ele>128.992188</ele>
<time>2012-07-26T17:40:24Z</time>
<speed>1.020000</speed>
<extensions>
<speed>1.0</speed>
<temp>0.00</temp>
<bpm>0</bpm>
<rpm>0.00</rpm>
</extensions>
</trkpt>
<trkpt lat="63.710323334" lon="-19.732553482">
<ele>128.824219</ele>
<time>2012-07-26T17:40:29Z</time>
<speed>0.900000</speed>
<extensions>
<speed>0.9</speed>
<temp>0.00</temp>
<bpm>0</bpm>
<rpm>0.00</rpm>
</extensions>
</trkpt>
<trkpt lat="63.710353851" lon="-19.732624054">
<ele>128.625000</ele>
<time>2012-07-26T17:40:34Z</time>
<speed>1.160000</speed>
<extensions>
<speed>1.2</speed>
<temp>0.00</temp>
<bpm>0</bpm>
<rpm>0.00</rpm>
</extensions>
</trkpt>
<trkpt lat="63.710346222" lon="-19.732646942">
<ele>128.960938</ele>
<time>2012-07-26T17:40:39Z</time>
<extensions>
<speed>0.0</speed>
<temp>0.00</temp>
<bpm>0</bpm>
<rpm>0.00</rpm>
</extensions>
</trkpt>
<trkpt lat="63.710346222" lon="-19.732646942">
<ele>128.937500</ele>
<time>2012-07-26T17:40:44Z</time>
<extensions>
<speed>0.0</speed>
<temp>0.00</temp>
<bpm>0</bpm>
<rpm>0.00</rpm>
</extensions>
</trkpt>
<trkpt lat="63.710346222" lon="-19.732646942">
<ele>128.929688</ele>
<time>2012-07-26T17:40:49Z</time>
<speed>0.010000</speed>
<extensions>
<speed>0.0</speed>
<temp>0.00</temp>
<bpm>0</bpm>
<rpm>0.00</rpm>
</extensions>
</trkpt>
<trkpt lat="63.710350037" lon="-19.732671738">
<ele>128.980469</ele>
<time>2012-07-26T17:40:54Z</time>
<speed>0.900000</speed>
<extensions>
<speed>0.9</speed>
<temp>0.00</temp>
<bpm>0</bpm>
<rpm>0.00</rpm>
</extensions>
</trkpt>
<trkpt lat="63.710353851" lon="-19.732788086">
<ele>129.683594</ele>
<time>2012-07-26T17:40:59Z</time>
<speed>0.780000</speed>
<extensions>
<speed>0.8</speed>
<temp>0.00</temp>
<bpm>0</bpm>
<rpm>0.00</rpm>
</extensions>
</trkpt>
<trkpt lat="63.710330963" lon="-19.732879639">
<ele>129.902344</ele>
<time>2012-07-26T17:41:04Z</time>
<speed>1.240000</speed>
<extensions>
<speed>1.2</speed>
<temp>0.00</temp>
<bpm>0</bpm>
<rpm>0.00</rpm>
</extensions>
</trkpt>
<trkpt lat="63.710308075" lon="-19.733015060">
<ele>129.269531</ele>
<time>2012-07-26T17:41:09Z</time>
<speed>0.850000</speed>
<extensions>
<speed>0.8</speed>
<temp>0.00</temp>
<bpm>0</bpm>
<rpm>0.00</rpm>
</extensions>
</trkpt>
<trkpt lat="63.710304260" lon="-19.733119965">
<ele>129.800781</ele>
<time>2012-07-26T17:41:14Z</time>
<speed>1.280000</speed>
<extensions>
<speed>1.3</speed>
<temp>0.00</temp>
<bpm>0</bpm>
<rpm>0.00</rpm>
</extensions>
</trkpt>
<trkpt lat="63.710330963" lon="-19.733249664">
<ele>130.839844</ele>
<time>2012-07-26T17:41:19Z</time>
<speed>1.030000</speed>
<extensions>
<speed>1.0</speed>
<temp>0.00</temp>
<bpm>0</bpm>
<rpm>0.00</rpm>
</extensions>
</trkpt>
<trkpt lat="63.710365295" lon="-19.733295441">
<ele>130.507813</ele>
<time>2012-07-26T17:41:24Z</time>
<speed>0.930000</speed>
<extensions>
<speed>0.9</speed>
<temp>0.00</temp>
<bpm>0</bpm>
<rpm>0.00</rpm>
</extensions>
</trkpt>
<trkpt lat="63.710414886" lon="-19.733346939">
<ele>130.894531</ele>
<time>2012-07-26T17:41:29Z</time>
<speed>0.890000</speed>
<extensions>
<speed>0.9</speed>
<temp>0.00</temp>
<bpm>0</bpm>
<rpm>0.00</rpm>
</extensions>
</trkpt>
<trkpt lat="63.710433960" lon="-19.733333588">
<ele>131.175781</ele>
<time>2012-07-26T17:41:34Z</time>
<speed>0.230000</speed>
<extensions>
<speed>0.2</speed>
<temp>0.00</temp>
<bpm>0</bpm>
<rpm>0.00</rpm>
</extensions>
</trkpt>
<trkpt lat="63.710456848" lon="-19.733310699">
<ele>130.867188</ele>
<time>2012-07-26T17:41:39Z</time>
<speed>1.230000</speed>
<extensions>
<speed>1.2</speed>
<temp>0.00</temp>
<bpm>0</bpm>
<rpm>0.00</rpm>
</extensions>
</trkpt>
<trkpt lat="63.710510254" lon="-19.733316422">
<ele>130.082031</ele>
<time>2012-07-26T17:41:44Z</time>
<speed>0.480000</speed>
<extensions>
<speed>0.5</speed>
<temp>0.00</temp>
<bpm>0</bpm>
<rpm>0.00</rpm>
</extensions>
</trkpt>
<trkpt lat="63.710514069" lon="-19.733314514">
<ele>129.394531</ele>
<time>2012-07-26T17:41:49Z</time>
<speed>0.060000</speed>
<extensions>
<speed>0.1</speed>
<temp>0.00</temp>
<bpm>0</bpm>
<rpm>0.00</rpm>
</extensions>
</trkpt>
<trkpt lat="63.710559845" lon="-19.733352661">
<ele>129.656250</ele>
<time>2012-07-26T17:41:54Z</time>
<speed>1.370000</speed>
<extensions>
<speed>1.4</speed>
<temp>0.00</temp>
<bpm>0</bpm>
<rpm>0.00</rpm>
</extensions>
</trkpt>
<trkpt lat="63.710636139" lon="-19.733345032">
<ele>129.632813</ele>
<time>2012-07-26T17:41:59Z</time>
<speed>1.620000</speed>
<extensions>
<speed>1.6</speed>
<temp>0.00</temp>
<bpm>0</bpm>
<rpm>0.00</rpm>
</extensions>
</trkpt>
<trkpt lat="63.710716248" lon="-19.733356476">
<ele>129.050781</ele>
<time>2012-07-26T17:42:04Z</time>
<speed>1.680000</speed>
<extensions>
<speed>1.7</speed>
<temp>0.00</temp>
<bpm>0</bpm>
<rpm>0.00</rpm>
</extensions>
</trkpt>
<trkpt lat="63.710803986" lon="-19.733402252">
<ele>129.316406</ele>
<time>2012-07-26T17:42:09Z</time>
<speed>2.390000</speed>
<extensions>
<speed>2.4</speed>
<temp>0.00</temp>
<bpm>0</bpm>
<rpm>0.00</rpm>
</extensions>
</trkpt>
<trkpt lat="63.710887909" lon="-19.733497620">
<ele>129.945313</ele>
<time>2012-07-26T17:42:14Z</time>
<speed>2.460000</speed>
<extensions>
<speed>2.5</speed>
<temp>0.00</temp>
<bpm>0</bpm>
<rpm>0.00</rpm>
</extensions>
</trkpt>
<trkpt lat="63.710975647" lon="-19.733648300">
<ele>130.152344</ele>
<time>2012-07-26T17:42:19Z</time>
<speed>2.430000</speed>
<extensions>
<speed>2.4</speed>
<temp>0.00</temp>
<bpm>0</bpm>
<rpm>0.00</rpm>
</extensions>
</trkpt>
<trkpt lat="63.711051941" lon="-19.733732224">
<ele>130.179688</ele>
<time>2012-07-26T17:42:24Z</time>
<speed>1.990000</speed>
<extensions>
<speed>2.0</speed>
<temp>0.00</temp>
<bpm>0</bpm>
<rpm>0.00</rpm>
</extensions>
</trkpt>
<trkpt lat="63.711132050" lon="-19.733816147">
<ele>130.371094</ele>
<time>2012-07-26T17:42:29Z</time>
<speed>1.980000</speed>
<extensions>
<speed>2.0</speed>
<temp>0.00</temp>
<bpm>0</bpm>
<rpm>0.00</rpm>
</extensions>
</trkpt>
<trkpt lat="63.711196899" lon="-19.733924866">
<ele>130.128906</ele>
<time>2012-07-26T17:42:34Z</time>
<speed>2.140000</speed>
<extensions>
<speed>2.1</speed>
<temp>0.00</temp>
<bpm>0</bpm>
<rpm>0.00</rpm>
</extensions>
</trkpt>
<trkpt lat="63.711277008" lon="-19.734060287">
<ele>129.855469</ele>
<time>2012-07-26T17:42:39Z</time>
<speed>2.300000</speed>
<extensions>
<speed>2.3</speed>
<temp>0.00</temp>
<bpm>0</bpm>
<rpm>0.00</rpm>
</extensions>
</trkpt>
<trkpt lat="63.711353302" lon="-19.734165192">
<ele>129.792969</ele>
<time>2012-07-26T17:42:44Z</time>
<speed>1.970000</speed>
<extensions>
<speed>2.0</speed>
<temp>0.00</temp>
<bpm>0</bpm>
<rpm>0.00</rpm>
</extensions>
</trkpt>
<trkpt lat="63.711437225" lon="-19.734294891">
<ele>129.546875</ele>
<time>2012-07-26T17:42:49Z</time>
<speed>2.410000</speed>
<extensions>
<speed>2.4</speed>
<temp>0.00</temp>
<bpm>0</bpm>
<rpm>0.00</rpm>
</extensions>
</trkpt>
<trkpt lat="63.711521149" lon="-19.734434128">
<ele>129.187500</ele>
<time>2012-07-26T17:42:54Z</time>
<speed>2.320000</speed>
<extensions>
<speed>2.3</speed>
<temp>0.00</temp>
<bpm>0</bpm>
<rpm>0.00</rpm>
</extensions>
</trkpt>
<trkpt lat="63.711608887" lon="-19.734569550">
<ele>128.839844</ele>
<time>2012-07-26T17:42:59Z</time>
<speed>2.220000</speed>
<extensions>
<speed>2.2</speed>
<temp>0.00</temp>
<bpm>0</bpm>
<rpm>0.00</rpm>
</extensions>
</trkpt>
<trkpt lat="63.711692810" lon="-19.734708786">
<ele>127.968750</ele>
<time>2012-07-26T17:43:04Z</time>
<speed>2.480000</speed>
<extensions>
<speed>2.5</speed>
<temp>0.00</temp>
<bpm>0</bpm>
<rpm>0.00</rpm>
</extensions>
</trkpt>
<trkpt lat="63.711772919" lon="-19.734882355">
<ele>126.933594</ele>
<time>2012-07-26T17:43:09Z</time>
<speed>2.550000</speed>
<extensions>
<speed>2.6</speed>
<temp>0.00</temp>
<bpm>0</bpm>
<rpm>0.00</rpm>
</extensions>
</trkpt>
<trkpt lat="63.711860657" lon="-19.735033035">
<ele>126.298828</ele>
<time>2012-07-26T17:43:14Z</time>
<speed>2.420000</speed>
<extensions>
<speed>2.4</speed>
<temp>0.00</temp>
<bpm>0</bpm>
<rpm>0.00</rpm>
</extensions>
</trkpt>
<trkpt lat="63.711952209" lon="-19.735176086">
<ele>126.029297</ele>
<time>2012-07-26T17:43:19Z</time>
<speed>2.690000</speed>
<extensions>
<speed>2.7</speed>
<temp>0.00</temp>
<bpm>0</bpm>
<rpm>0.00</rpm>
</extensions>
</trkpt>
<trkpt lat="63.712047577" lon="-19.735319138">
<ele>125.996094</ele>
<time>2012-07-26T17:43:24Z</time>
<speed>2.590000</speed>
<extensions>
<speed>2.6</speed>
<temp>0.00</temp>
<bpm>0</bpm>
<rpm>0.00</rpm>
</extensions>
</trkpt>
<trkpt lat="63.712139130" lon="-19.735462189">
<ele>125.376953</ele>
<time>2012-07-26T17:43:29Z</time>
<speed>2.060000</speed>
<extensions>
<speed>2.1</speed>
<temp>0.00</temp>
<bpm>0</bpm>
<rpm>0.00</rpm>
</extensions>
</trkpt>
<trkpt lat="63.712230682" lon="-19.735572815">
<ele>125.345703</ele>
<time>2012-07-26T17:43:34Z</time>
<speed>2.380000</speed>
<extensions>
<speed>2.4</speed>
<temp>0.00</temp>
<bpm>0</bpm>
<rpm>0.00</rpm>
</extensions>
</trkpt>
<trkpt lat="63.712329865" lon="-19.735708237">
<ele>125.498047</ele>
<time>2012-07-26T17:43:39Z</time>
<speed>2.760000</speed>
<extensions>
<speed>2.8</speed>
<temp>0.00</temp>
<bpm>0</bpm>
<rpm>0.00</rpm>
</extensions>
</trkpt>
<trkpt lat="63.712440491" lon="-19.735853195">
<ele>125.546875</ele>
<time>2012-07-26T17:43:44Z</time>
<speed>2.920000</speed>
<extensions>
<speed>2.9</speed>
<temp>0.00</temp>
<bpm>0</bpm>
<rpm>0.00</rpm>
</extensions>
</trkpt>
<trkpt lat="63.712566376" lon="-19.736003876">
<ele>125.750000</ele>
<time>2012-07-26T17:43:49Z</time>
<speed>3.230000</speed>
<extensions>
<speed>3.2</speed>
<temp>0.00</temp>
<bpm>0</bpm>
<rpm>0.00</rpm>
</extensions>
</trkpt>
<trkpt lat="63.712688446" lon="-19.736211777">
<ele>125.431641</ele>
<time>2012-07-26T17:43:54Z</time>
<speed>3.610000</speed>
<extensions>
<speed>3.6</speed>
<temp>0.00</temp>
<bpm>0</bpm>
<rpm>0.00</rpm>
</extensions>
</trkpt>
<trkpt lat="63.712806702" lon="-19.736400604">
<ele>125.291016</ele>
<time>2012-07-26T17:43:59Z</time>
<speed>2.710000</speed>
<extensions>
<speed>2.7</speed>
<temp>0.00</temp>
<bpm>0</bpm>
<rpm>0.00</rpm>
</extensions>
</trkpt>
<trkpt lat="63.712879181" lon="-19.736602783">
<ele>124.798828</ele>
<time>2012-07-26T17:44:04Z</time>
<speed>2.550000</speed>
<extensions>
<speed>2.6</speed>
<temp>0.00</temp>
<bpm>0</bpm>
<rpm>0.00</rpm>
</extensions>
</trkpt>
<trkpt lat="63.712951660" lon="-19.736783981">
<ele>124.031250</ele>
<time>2012-07-26T17:44:09Z</time>
<speed>2.400000</speed>
<extensions>
<speed>2.4</speed>
<temp>0.00</temp>
<bpm>0</bpm>
<rpm>0.00</rpm>
</extensions>
</trkpt>
<trkpt lat="63.712993622" lon="-19.737007141">
<ele>123.634766</ele>
<time>2012-07-26T17:44:14Z</time>
<speed>2.540000</speed>
<extensions>
<speed>2.5</speed>
<temp>0.00</temp>
<bpm>0</bpm>
<rpm>0.00</rpm>
</extensions>
</trkpt>
<trkpt lat="63.713008881" lon="-19.737316132">
<ele>123.580078</ele>
<time>2012-07-26T17:44:19Z</time>
<speed>3.250000</speed>
<extensions>
<speed>3.2</speed>
<temp>0.00</temp>
<bpm>0</bpm>
<rpm>0.00</rpm>
</extensions>
</trkpt>
<trkpt lat="63.712993622" lon="-19.737634659">
<ele>124.632813</ele>
<time>2012-07-26T17:44:24Z</time>
<speed>3.200000</speed>
<extensions>
<speed>3.2</speed>
<temp>0.00</temp>
<bpm>0</bpm>
<rpm>0.00</rpm>
</extensions>
</trkpt>
<trkpt lat="63.712959290" lon="-19.737991333">
<ele>125.259766</ele>
<time>2012-07-26T17:44:29Z</time>
<speed>3.770000</speed>
<extensions>
<speed>3.8</speed>
<temp>0.00</temp>
<bpm>0</bpm>
<rpm>0.00</rpm>
</extensions>
</trkpt>
<trkpt lat="63.712928772" lon="-19.738391876">
<ele>124.951172</ele>
<time>2012-07-26T17:44:34Z</time>
<speed>4.310000</speed>
<extensions>
<speed>4.3</speed>
<temp>0.00</temp>
<bpm>0</bpm>
<rpm>0.00</rpm>
</extensions>
</trkpt>
<trkpt lat="63.712905884" lon="-19.738857269">
<ele>124.519531</ele>
<time>2012-07-26T17:44:39Z</time>
<speed>4.630000</speed>
<extensions>
<speed>4.6</speed>
<temp>0.00</temp>
<bpm>0</bpm>
<rpm>0.00</rpm>
</extensions>
</trkpt>
<trkpt lat="63.712898254" lon="-19.739313126">
<ele>125.109375</ele>
<time>2012-07-26T17:44:44Z</time>
<speed>4.480000</speed>
<extensions>
<speed>4.5</speed>
<temp>0.00</temp>
<bpm>0</bpm>
<rpm>0.00</rpm>
</extensions>
</trkpt>
<trkpt lat="63.712898254" lon="-19.739770889">
<ele>126.271484</ele>
<time>2012-07-26T17:44:49Z</time>
<speed>4.580000</speed>
<extensions>
<speed>4.6</speed>
<temp>0.00</temp>
<bpm>0</bpm>
<rpm>0.00</rpm>
</extensions>
</trkpt>
<trkpt lat="63.712902069" lon="-19.740272522">
<ele>126.755859</ele>
<time>2012-07-26T17:44:54Z</time>
<speed>4.890000</speed>
<extensions>
<speed>4.9</speed>
<temp>0.00</temp>
<bpm>0</bpm>
<rpm>0.00</rpm>
</extensions>
</trkpt>
<trkpt lat="63.712902069" lon="-19.740791321">
<ele>126.541016</ele>
<time>2012-07-26T17:44:59Z</time>
<speed>4.930000</speed>
<extensions>
<speed>4.9</speed>
<temp>0.00</temp>
<bpm>0</bpm>
<rpm>0.00</rpm>
</extensions>
</trkpt>
<trkpt lat="63.712913513" lon="-19.741292953">
<ele>126.568359</ele>
<time>2012-07-26T17:45:04Z</time>
<speed>5.000000</speed>
<extensions>
<speed>5.0</speed>
<temp>0.00</temp>
<bpm>0</bpm>
<rpm>0.00</rpm>
</extensions>
</trkpt>
<trkpt lat="63.712921143" lon="-19.741796494">
<ele>126.324219</ele>
<time>2012-07-26T17:45:09Z</time>
<speed>4.980000</speed>
<extensions>
<speed>5.0</speed>
<temp>0.00</temp>
<bpm>0</bpm>
<rpm>0.00</rpm>
</extensions>
</trkpt>
<trkpt lat="63.712921143" lon="-19.742300034">
<ele>126.085938</ele>
<time>2012-07-26T17:45:14Z</time>
<speed>4.960000</speed>
<extensions>
<speed>5.0</speed>
<temp>0.00</temp>
<bpm>0</bpm>
<rpm>0.00</rpm>
</extensions>
</trkpt>
<trkpt lat="63.712940216" lon="-19.742818832">
<ele>125.667969</ele>
<time>2012-07-26T17:45:19Z</time>
<speed>5.080000</speed>
<extensions>
<speed>5.1</speed>
<temp>0.00</temp>
<bpm>0</bpm>
<rpm>0.00</rpm>
</extensions>
</trkpt>
<trkpt lat="63.712940216" lon="-19.743349075">
<ele>125.490234</ele>
<time>2012-07-26T17:45:24Z</time>
<speed>5.360000</speed>
<extensions>
<speed>5.4</speed>
<temp>0.00</temp>
<bpm>0</bpm>
<rpm>0.00</rpm>
</extensions>
</trkpt>
<trkpt lat="63.712955475" lon="-19.743907928">
<ele>125.117188</ele>
<time>2012-07-26T17:45:29Z</time>
<speed>5.130000</speed>
<extensions>
<speed>5.1</speed>
<temp>0.00</temp>
<bpm>0</bpm>
<rpm>0.00</rpm>
</extensions>
</trkpt>
<trkpt lat="63.712963104" lon="-19.744443893">
<ele>124.738281</ele>
<time>2012-07-26T17:45:34Z</time>
<speed>5.250000</speed>
<extensions>
<speed>5.2</speed>
<temp>0.00</temp>
<bpm>0</bpm>
<rpm>0.00</rpm>
</extensions>
</trkpt>
<trkpt lat="63.712970734" lon="-19.744995117">
<ele>124.845703</ele>
<time>2012-07-26T17:45:39Z</time>
<speed>5.470000</speed>
<extensions>
<speed>5.5</speed>
<temp>0.00</temp>
<bpm>0</bpm>
<rpm>0.00</rpm>
</extensions>
</trkpt>
<trkpt lat="63.712982178" lon="-19.745559692">
<ele>125.736328</ele>
<time>2012-07-26T17:45:44Z</time>
<speed>5.610000</speed>
<extensions>
<speed>5.6</speed>
<temp>0.00</temp>
<bpm>0</bpm>
<rpm>0.00</rpm>
</extensions>
</trkpt>
<trkpt lat="63.712985992" lon="-19.746133804">
<ele>125.664063</ele>
<time>2012-07-26T17:45:49Z</time>
<speed>5.510000</speed>
<extensions>
<speed>5.5</speed>
<temp>0.00</temp>
<bpm>0</bpm>
<rpm>0.00</rpm>
</extensions>
</trkpt>
<trkpt lat="63.712993622" lon="-19.746679306">
<ele>125.849609</ele>
<time>2012-07-26T17:45:54Z</time>
<speed>5.280000</speed>
<extensions>
<speed>5.3</speed>
<temp>0.00</temp>
<bpm>0</bpm>
<rpm>0.00</rpm>
</extensions>
</trkpt>
<trkpt lat="63.713001251" lon="-19.747241974">
<ele>125.113281</ele>
<time>2012-07-26T17:45:59Z</time>
<speed>5.630000</speed>
<extensions>
<speed>5.6</speed>
<temp>0.00</temp>
<bpm>0</bpm>
<rpm>0.00</rpm>
</extensions>
</trkpt>
<trkpt lat="63.713012695" lon="-19.747833252">
<ele>124.228516</ele>
<time>2012-07-26T17:46:04Z</time>
<speed>5.700000</speed>
<extensions>
<speed>5.7</speed>
<temp>0.00</temp>
<bpm>0</bpm>
<rpm>0.00</rpm>
</extensions>
</trkpt>
<trkpt lat="63.713016510" lon="-19.748413086">
<ele>123.767578</ele>
<time>2012-07-26T17:46:09Z</time>
<speed>5.740000</speed>
<extensions>
<speed>5.7</speed>
<temp>0.00</temp>
<bpm>0</bpm>
<rpm>0.00</rpm>
</extensions>
</trkpt>
<trkpt lat="63.713024139" lon="-19.748981476">
<ele>123.271484</ele>
<time>2012-07-26T17:46:14Z</time>
<speed>5.490000</speed>
<extensions>
<speed>5.5</speed>
<temp>0.00</temp>
<bpm>0</bpm>
<rpm>0.00</rpm>
</extensions>
</trkpt>
<trkpt lat="63.713027954" lon="-19.749486923">
<ele>122.783203</ele>
<time>2012-07-26T17:46:19Z</time>
<speed>4.730000</speed>
<extensions>
<speed>4.7</speed>
<temp>0.00</temp>
<bpm>0</bpm>
<rpm>0.00</rpm>
</extensions>
</trkpt>
<trkpt lat="63.713035583" lon="-19.749961853">
<ele>122.957031</ele>
<time>2012-07-26T17:46:24Z</time>
<speed>4.920000</speed>
<extensions>
<speed>4.9</speed>
<temp>0.00</temp>
<bpm>0</bpm>
<rpm>0.00</rpm>
</extensions>
</trkpt>
<trkpt lat="63.713050842" lon="-19.750474930">
<ele>123.736328</ele>
<time>2012-07-26T17:46:29Z</time>
<speed>5.330000</speed>
<extensions>
<speed>5.3</speed>
<temp>0.00</temp>
<bpm>0</bpm>
<rpm>0.00</rpm>
</extensions>
</trkpt>
<trkpt lat="63.713058472" lon="-19.751029968">
<ele>124.025391</ele>
<time>2012-07-26T17:46:34Z</time>
<speed>5.480000</speed>
<extensions>
<speed>5.5</speed>
<temp>0.00</temp>
<bpm>0</bpm>
<rpm>0.00</rpm>
</extensions>
</trkpt>
<trkpt lat="63.713073730" lon="-19.751571655">
<ele>124.546875</ele>
<time>2012-07-26T17:46:39Z</time>
<speed>5.230000</speed>
<extensions>
<speed>5.2</speed>
<temp>0.00</temp>
<bpm>0</bpm>
<rpm>0.00</rpm>
</extensions>
</trkpt>
<trkpt lat="63.713081360" lon="-19.752096176">
<ele>124.197266</ele>
<time>2012-07-26T17:46:44Z</time>
<speed>5.030000</speed>
<extensions>
<speed>5.0</speed>
<temp>0.00</temp>
<bpm>0</bpm>
<rpm>0.00</rpm>
</extensions>
</trkpt>
<trkpt lat="63.713088989" lon="-19.752559662">
<ele>123.808594</ele>
<time>2012-07-26T17:46:49Z</time>
<speed>4.770000</speed>
<extensions>
<speed>4.8</speed>
<temp>0.00</temp>
<bpm>0</bpm>
<rpm>0.00</rpm>
</extensions>
</trkpt>
<trkpt lat="63.713111877" lon="-19.753042221">
<ele>123.966797</ele>
<time>2012-07-26T17:46:54Z</time>
<speed>5.210000</speed>
<extensions>
<speed>5.2</speed>
<temp>0.00</temp>
<bpm>0</bpm>
<rpm>0.00</rpm>
</extensions>
</trkpt>
<trkpt lat="63.713115692" lon="-19.753555298">
<ele>124.763672</ele>
<time>2012-07-26T17:46:59Z</time>
<speed>5.080000</speed>
<extensions>
<speed>5.1</speed>
<temp>0.00</temp>
<bpm>0</bpm>
<rpm>0.00</rpm>
</extensions>
</trkpt>
<trkpt lat="63.713127136" lon="-19.754041672">
<ele>124.500000</ele>
<time>2012-07-26T17:47:04Z</time>
<speed>4.930000</speed>
<extensions>
<speed>4.9</speed>
<temp>0.00</temp>
<bpm>0</bpm>
<rpm>0.00</rpm>
</extensions>
</trkpt>
<trkpt lat="63.713146210" lon="-19.754537582">
<ele>124.066406</ele>
<time>2012-07-26T17:47:09Z</time>
<speed>5.010000</speed>
<extensions>
<speed>5.0</speed>
<temp>0.00</temp>
<bpm>0</bpm>
<rpm>0.00</rpm>
</extensions>
</trkpt>
<trkpt lat="63.713157654" lon="-19.755023956">
<ele>123.400391</ele>
<time>2012-07-26T17:47:14Z</time>
<speed>4.430000</speed>
<extensions>
<speed>4.4</speed>
<temp>0.00</temp>
<bpm>0</bpm>
<rpm>0.00</rpm>
</extensions>
</trkpt>
<trkpt lat="63.713169098" lon="-19.755495071">
<ele>122.603516</ele>
<time>2012-07-26T17:47:19Z</time>
<speed>4.680000</speed>
<extensions>
<speed>4.7</speed>
<temp>0.00</temp>
<bpm>0</bpm>
<rpm>0.00</rpm>
</extensions>
</trkpt>
<trkpt lat="63.713165283" lon="-19.755960464">
<ele>121.857422</ele>
<time>2012-07-26T17:47:24Z</time>
<speed>4.060000</speed>
<extensions>
<speed>4.1</speed>
<temp>0.00</temp>
<bpm>0</bpm>
<rpm>0.00</rpm>
</extensions>
</trkpt>
<trkpt lat="63.713176727" lon="-19.756311417">
<ele>120.787109</ele>
<time>2012-07-26T17:47:29Z</time>
<speed>3.240000</speed>
<extensions>
<speed>3.2</speed>
<temp>0.00</temp>
<bpm>0</bpm>
<rpm>0.00</rpm>
</extensions>
</trkpt>
<trkpt lat="63.713191986" lon="-19.756633759">
<ele>119.439453</ele>
<time>2012-07-26T17:47:34Z</time>
<speed>3.780000</speed>
<extensions>
<speed>3.8</speed>
<temp>0.00</temp>
<bpm>0</bpm>
<rpm>0.00</rpm>
</extensions>
</trkpt>
<trkpt lat="63.713195801" lon="-19.757062912">
<ele>117.228516</ele>
<time>2012-07-26T17:47:39Z</time>
<speed>3.890000</speed>
<extensions>
<speed>3.9</speed>
<temp>0.00</temp>
<bpm>0</bpm>
<rpm>0.00</rpm>
</extensions>
</trkpt>
<trkpt lat="63.713203430" lon="-19.757450104">
<ele>115.837891</ele>
<time>2012-07-26T17:47:44Z</time>
<speed>3.470000</speed>
<extensions>
<speed>3.5</speed>
<temp>0.00</temp>
<bpm>0</bpm>
<rpm>0.00</rpm>
</extensions>
</trkpt>
<trkpt lat="63.713211060" lon="-19.757781982">
<ele>114.451172</ele>
<time>2012-07-26T17:47:49Z</time>
<speed>3.510000</speed>
<extensions>
<speed>3.5</speed>
<temp>0.00</temp>
<bpm>0</bpm>
<rpm>0.00</rpm>
</extensions>
</trkpt>
<trkpt lat="63.713218689" lon="-19.758201599">
<ele>114.525391</ele>
<time>2012-07-26T17:47:54Z</time>
<speed>4.160000</speed>
<extensions>
<speed>4.2</speed>
<temp>0.00</temp>
<bpm>0</bpm>
<rpm>0.00</rpm>
</extensions>
</trkpt>
<trkpt lat="63.713226318" lon="-19.758670807">
<ele>114.501953</ele>
<time>2012-07-26T17:47:59Z</time>
<speed>4.770000</speed>
<extensions>
<speed>4.8</speed>
<temp>0.00</temp>
<bpm>0</bpm>
<rpm>0.00</rpm>
</extensions>
</trkpt>
<trkpt lat="63.713237762" lon="-19.759141922">
<ele>114.146484</ele>
<time>2012-07-26T17:48:04Z</time>
<speed>4.750000</speed>
<extensions>
<speed>4.8</speed>
<temp>0.00</temp>
<bpm>0</bpm>
<rpm>0.00</rpm>
</extensions>
</trkpt>
<trkpt lat="63.713264465" lon="-19.759563446">
<ele>115.201172</ele>
<time>2012-07-26T17:48:09Z</time>
<speed>4.160000</speed>
<extensions>
<speed>4.2</speed>
<temp>0.00</temp>
<bpm>0</bpm>
<rpm>0.00</rpm>
</extensions>
</trkpt>
<trkpt lat="63.713268280" lon="-19.759881973">
<ele>115.566406</ele>
<time>2012-07-26T17:48:14Z</time>
<speed>3.120000</speed>
<extensions>
<speed>3.1</speed>
<temp>0.00</temp>
<bpm>0</bpm>
<rpm>0.00</rpm>
</extensions>
</trkpt>
<trkpt lat="63.713275909" lon="-19.760244370">
<ele>114.810547</ele>
<time>2012-07-26T17:48:19Z</time>
<speed>3.610000</speed>
<extensions>
<speed>3.6</speed>
<temp>0.00</temp>
<bpm>0</bpm>
<rpm>0.00</rpm>
</extensions>
</trkpt>
<trkpt lat="63.713291168" lon="-19.760616302">
<ele>114.207031</ele>
<time>2012-07-26T17:48:24Z</time>
<speed>3.690000</speed>
<extensions>
<speed>3.7</speed>
<temp>0.00</temp>
<bpm>0</bpm>
<rpm>0.00</rpm>
</extensions>
</trkpt>
<trkpt lat="63.713298798" lon="-19.761007309">
<ele>113.078125</ele>
<time>2012-07-26T17:48:29Z</time>
<speed>4.020000</speed>
<extensions>
<speed>4.0</speed>
<temp>0.00</temp>
<bpm>0</bpm>
<rpm>0.00</rpm>
</extensions>
</trkpt>
<trkpt lat="63.713291168" lon="-19.761432648">
<ele>113.384766</ele>
<time>2012-07-26T17:48:34Z</time>
<speed>4.130000</speed>
<extensions>
<speed>4.1</speed>
<temp>0.00</temp>
<bpm>0</bpm>
<rpm>0.00</rpm>
</extensions>
</trkpt>
<trkpt lat="63.713302612" lon="-19.761877060">
<ele>112.126953</ele>
<time>2012-07-26T17:48:39Z</time>
<speed>4.540000</speed>
<extensions>
<speed>4.5</speed>
<temp>0.00</temp>
<bpm>0</bpm>
<rpm>0.00</rpm>
</extensions>
</trkpt>
<trkpt lat="63.713306427" lon="-19.762332916">
<ele>114.388672</ele>
<time>2012-07-26T17:48:44Z</time>
<speed>4.680000</speed>
<extensions>
<speed>4.7</speed>
<temp>0.00</temp>
<bpm>0</bpm>
<rpm>0.00</rpm>
</extensions>
</trkpt>
<trkpt lat="63.713333130" lon="-19.762773514">
<ele>117.738281</ele>
<time>2012-07-26T17:48:49Z</time>
<speed>4.380000</speed>
<extensions>
<speed>4.4</speed>
<temp>0.00</temp>
<bpm>0</bpm>
<rpm>0.00</rpm>
</extensions>
</trkpt>
<trkpt lat="63.713336945" lon="-19.763256073">
<ele>116.509766</ele>
<time>2012-07-26T17:48:54Z</time>
<speed>4.880000</speed>
<extensions>
<speed>4.9</speed>
<temp>0.00</temp>
<bpm>0</bpm>
<rpm>0.00</rpm>
</extensions>
</trkpt>
<trkpt lat="63.713356018" lon="-19.763755798">
<ele>117.613281</ele>
<time>2012-07-26T17:48:59Z</time>
<speed>5.270000</speed>
<extensions>
<speed>5.3</speed>
<temp>0.00</temp>
<bpm>0</bpm>
<rpm>0.00</rpm>
</extensions>
</trkpt>
<trkpt lat="63.713367462" lon="-19.764314651">
<ele>117.953125</ele>
<time>2012-07-26T17:49:04Z</time>
<speed>5.570000</speed>
<extensions>
<speed>5.6</speed>
<temp>0.00</temp>
<bpm>0</bpm>
<rpm>0.00</rpm>
</extensions>
</trkpt>
<trkpt lat="63.713382721" lon="-19.764921188">
<ele>116.398438</ele>
<time>2012-07-26T17:49:09Z</time>
<speed>6.050000</speed>
<extensions>
<speed>6.1</speed>
<temp>0.00</temp>
<bpm>0</bpm>
<rpm>0.00</rpm>
</extensions>
</trkpt>
<trkpt lat="63.713386536" lon="-19.765539169">
<ele>116.501953</ele>
<time>2012-07-26T17:49:14Z</time>
<speed>6.170000</speed>
<extensions>
<speed>6.2</speed>
<temp>0.00</temp>
<bpm>0</bpm>
<rpm>0.00</rpm>
</extensions>
</trkpt>
<trkpt lat="63.713394165" lon="-19.766138077">
<ele>115.830078</ele>
<time>2012-07-26T17:49:19Z</time>
<speed>6.010000</speed>
<extensions>
<speed>6.0</speed>
<temp>0.00</temp>
<bpm>0</bpm>
<rpm>0.00</rpm>
</extensions>
</trkpt>
<trkpt lat="63.713397980" lon="-19.766752243">
<ele>115.371094</ele>
<time>2012-07-26T17:49:24Z</time>
<speed>6.360000</speed>
<extensions>
<speed>6.4</speed>
<temp>0.00</temp>
<bpm>0</bpm>
<rpm>0.00</rpm>
</extensions>
</trkpt>
<trkpt lat="63.713420868" lon="-19.767425537">
<ele>113.910156</ele>
<time>2012-07-26T17:49:29Z</time>
<speed>6.710000</speed>
<extensions>
<speed>6.7</speed>
<temp>0.00</temp>
<bpm>0</bpm>
<rpm>0.00</rpm>
</extensions>
</trkpt>
<trkpt lat="63.713428497" lon="-19.768091202">
<ele>112.681641</ele>
<time>2012-07-26T17:49:34Z</time>
<speed>6.290000</speed>
<extensions>
<speed>6.3</speed>
<temp>0.00</temp>
<bpm>0</bpm>
<rpm>0.00</rpm>
</extensions>
</trkpt>
<trkpt lat="63.713443756" lon="-19.768648148">
<ele>113.761719</ele>
<time>2012-07-26T17:49:39Z</time>
<speed>4.950000</speed>
<extensions>
<speed>4.9</speed>
<temp>0.00</temp>
<bpm>0</bpm>
<rpm>0.00</rpm>
</extensions>
</trkpt>
<trkpt lat="63.713439941" lon="-19.769018173">
<ele>112.599609</ele>
<time>2012-07-26T17:49:44Z</time>
<speed>3.370000</speed>
<extensions>
<speed>3.4</speed>
<temp>0.00</temp>
<bpm>0</bpm>
<rpm>0.00</rpm>
</extensions>
</trkpt>
<trkpt lat="63.713439941" lon="-19.769292831">
<ele>112.384766</ele>
<time>2012-07-26T17:49:49Z</time>
<speed>1.860000</speed>
<extensions>
<speed>1.9</speed>
<temp>0.00</temp>
<bpm>0</bpm>
<rpm>0.00</rpm>
</extensions>
</trkpt>
<trkpt lat="63.713447571" lon="-19.769319534">
<ele>111.869141</ele>
<time>2012-07-26T17:49:54Z</time>
<speed>0.050000</speed>
<extensions>
<speed>0.1</speed>
<temp>0.00</temp>
<bpm>0</bpm>
<rpm>0.00</rpm>
</extensions>
</trkpt>
<trkpt lat="63.713451385" lon="-19.769315720">
<ele>112.048828</ele>
<time>2012-07-26T17:49:59Z</time>
<speed>0.020000</speed>
<extensions>
<speed>0.0</speed>
<temp>0.00</temp>
<bpm>0</bpm>
<rpm>0.00</rpm>
</extensions>
</trkpt>
<trkpt lat="63.713451385" lon="-19.769315720">
<ele>112.111328</ele>
<time>2012-07-26T17:50:04Z</time>
<speed>0.020000</speed>
<extensions>
<speed>0.0</speed>
<temp>0.00</temp>
<bpm>0</bpm>
<rpm>0.00</rpm>
</extensions>
</trkpt>
<trkpt lat="63.713451385" lon="-19.769313812">
<ele>112.076172</ele>
<time>2012-07-26T17:50:09Z</time>
<speed>0.050000</speed>
<extensions>
<speed>0.1</speed>
<temp>0.00</temp>
<bpm>0</bpm>
<rpm>0.00</rpm>
</extensions>
</trkpt>
<trkpt lat="63.713451385" lon="-19.769311905">
<ele>112.052734</ele>
<time>2012-07-26T17:50:14Z</time>
<speed>0.100000</speed>
<extensions>
<speed>0.1</speed>
<temp>0.00</temp>
<bpm>0</bpm>
<rpm>0.00</rpm>
</extensions>
</trkpt>
<trkpt lat="63.713455200" lon="-19.769306183">
<ele>112.044922</ele>
<time>2012-07-26T17:50:19Z</time>
<speed>0.060000</speed>
<extensions>
<speed>0.1</speed>
<temp>0.00</temp>
<bpm>0</bpm>
<rpm>0.00</rpm>
</extensions>
</trkpt>
<trkpt lat="63.713459015" lon="-19.769300461">
<ele>112.031250</ele>
<time>2012-07-26T17:50:24Z</time>
<extensions>
<speed>0.0</speed>
<temp>0.00</temp>
<bpm>0</bpm>
<rpm>0.00</rpm>
</extensions>
</trkpt>
<trkpt lat="63.713455200" lon="-19.769300461">
<ele>112.017578</ele>
<time>2012-07-26T17:50:29Z</time>
<extensions>
<speed>0.0</speed>
<temp>0.00</temp>
<bpm>0</bpm>
<rpm>0.00</rpm>
</extensions>
</trkpt>
<trkpt lat="63.713455200" lon="-19.769300461">
<ele>111.974609</ele>
<time>2012-07-26T17:50:34Z</time>
<extensions>
<speed>0.0</speed>
<temp>0.00</temp>
<bpm>0</bpm>
<rpm>0.00</rpm>
</extensions>
</trkpt>
<trkpt lat="63.713455200" lon="-19.769300461">
<ele>111.947266</ele>
<time>2012-07-26T17:50:39Z</time>
<speed>0.010000</speed>
<extensions>
<speed>0.0</speed>
<temp>0.00</temp>
<bpm>0</bpm>
<rpm>0.00</rpm>
</extensions>
</trkpt>
<trkpt lat="63.713455200" lon="-19.769300461">
<ele>111.931641</ele>
<time>2012-07-26T17:50:44Z</time>
<speed>0.010000</speed>
<extensions>
<speed>0.0</speed>
<temp>0.00</temp>
<bpm>0</bpm>
<rpm>0.00</rpm>
</extensions>
</trkpt>
<trkpt lat="63.713455200" lon="-19.769300461">
<ele>111.921875</ele>
<time>2012-07-26T17:50:49Z</time>
<speed>0.010000</speed>
<extensions>
<speed>0.0</speed>
<temp>0.00</temp>
<bpm>0</bpm>
<rpm>0.00</rpm>
</extensions>
</trkpt>
<trkpt lat="63.713455200" lon="-19.769300461">
<ele>111.902344</ele>
<time>2012-07-26T17:50:54Z</time>
<extensions>
<speed>0.0</speed>
<temp>0.00</temp>
<bpm>0</bpm>
<rpm>0.00</rpm>
</extensions>
</trkpt>
<trkpt lat="63.713455200" lon="-19.769300461">
<ele>111.888672</ele>
<time>2012-07-26T17:50:59Z</time>
<extensions>
<speed>0.0</speed>
<temp>0.00</temp>
<bpm>0</bpm>
<rpm>0.00</rpm>
</extensions>
</trkpt>
<trkpt lat="63.713455200" lon="-19.769300461">
<ele>111.861328</ele>
<time>2012-07-26T17:51:04Z</time>
<speed>0.010000</speed>
<extensions>
<speed>0.0</speed>
<temp>0.00</temp>
<bpm>0</bpm>
<rpm>0.00</rpm>
</extensions>
</trkpt>
<trkpt lat="63.713455200" lon="-19.769300461">
<ele>111.822266</ele>
<time>2012-07-26T17:51:09Z</time>
<speed>0.010000</speed>
<extensions>
<speed>0.0</speed>
<temp>0.00</temp>
<bpm>0</bpm>
<rpm>0.00</rpm>
</extensions>
</trkpt>
<trkpt lat="63.713455200" lon="-19.769300461">
<ele>111.804688</ele>
<time>2012-07-26T17:51:14Z</time>
<speed>0.010000</speed>
<extensions>
<speed>0.0</speed>
<temp>0.00</temp>
<bpm>0</bpm>
<rpm>0.00</rpm>
</extensions>
</trkpt>
<trkpt lat="63.713455200" lon="-19.769300461">
<ele>111.791016</ele>
<time>2012-07-26T17:51:19Z</time>
<speed>0.010000</speed>
<extensions>
<speed>0.0</speed>
<temp>0.00</temp>
<bpm>0</bpm>
<rpm>0.00</rpm>
</extensions>
</trkpt>
<trkpt lat="63.713455200" lon="-19.769300461">
<ele>111.783203</ele>
<time>2012-07-26T17:51:24Z</time>
<extensions>
<speed>0.0</speed>
<temp>0.00</temp>
<bpm>0</bpm>
<rpm>0.00</rpm>
</extensions>
</trkpt>
<trkpt lat="63.713455200" lon="-19.769300461">
<ele>111.775391</ele>
<time>2012-07-26T17:51:29Z</time>
<extensions>
<speed>0.0</speed>
<temp>0.00</temp>
<bpm>0</bpm>
<rpm>0.00</rpm>
</extensions>
</trkpt>
<trkpt lat="63.713455200" lon="-19.769300461">
<ele>111.767578</ele>
<time>2012-07-26T17:51:34Z</time>
<speed>0.010000</speed>
<extensions>
<speed>0.0</speed>
<temp>0.00</temp>
<bpm>0</bpm>
<rpm>0.00</rpm>
</extensions>
</trkpt>
<trkpt lat="63.713455200" lon="-19.769300461">
<ele>111.753906</ele>
<time>2012-07-26T17:51:39Z</time>
<speed>0.010000</speed>
<extensions>
<speed>0.0</speed>
<temp>0.00</temp>
<bpm>0</bpm>
<rpm>0.00</rpm>
</extensions>
</trkpt>
<trkpt lat="63.713455200" lon="-19.769300461">
<ele>111.738281</ele>
<time>2012-07-26T17:51:44Z</time>
<speed>0.190000</speed>
<extensions>
<speed>0.2</speed>
<temp>0.00</temp>
<bpm>0</bpm>
<rpm>0.00</rpm>
</extensions>
</trkpt>
<trkpt lat="63.713459015" lon="-19.769401550">
<ele>111.718750</ele>
<time>2012-07-26T17:51:49Z</time>
<speed>2.490000</speed>
<extensions>
<speed>2.5</speed>
<temp>0.00</temp>
<bpm>0</bpm>
<rpm>0.00</rpm>
</extensions>
</trkpt>
<trkpt lat="63.713459015" lon="-19.769725800">
<ele>112.375000</ele>
<time>2012-07-26T17:51:54Z</time>
<speed>3.620000</speed>
<extensions>
<speed>3.6</speed>
<temp>0.00</temp>
<bpm>0</bpm>
<rpm>0.00</rpm>
</extensions>
</trkpt>
<trkpt lat="63.713466644" lon="-19.770141602">
<ele>112.119141</ele>
<time>2012-07-26T17:51:59Z</time>
<speed>3.980000</speed>
<extensions>
<speed>4.0</speed>
<temp>0.00</temp>
<bpm>0</bpm>
<rpm>0.00</rpm>
</extensions>
</trkpt>
<trkpt lat="63.713466644" lon="-19.770549774">
<ele>112.640625</ele>
<time>2012-07-26T17:52:04Z</time>
<speed>4.200000</speed>
<extensions>
<speed>4.2</speed>
<temp>0.00</temp>
<bpm>0</bpm>
<rpm>0.00</rpm>
</extensions>
</trkpt>
<trkpt lat="63.713485718" lon="-19.770980835">
<ele>111.601563</ele>
<time>2012-07-26T17:52:09Z</time>
<speed>4.130000</speed>
<extensions>
<speed>4.1</speed>
<temp>0.00</temp>
<bpm>0</bpm>
<rpm>0.00</rpm>
</extensions>
</trkpt>
<trkpt lat="63.713493347" lon="-19.771402359">
<ele>111.513672</ele>
<time>2012-07-26T17:52:14Z</time>
<speed>4.300000</speed>
<extensions>
<speed>4.3</speed>
<temp>0.00</temp>
<bpm>0</bpm>
<rpm>0.00</rpm>
</extensions>
</trkpt>
<trkpt lat="63.713493347" lon="-19.771841049">
<ele>110.644531</ele>
<time>2012-07-26T17:52:19Z</time>
<speed>4.310000</speed>
<extensions>
<speed>4.3</speed>
<temp>0.00</temp>
<bpm>0</bpm>
<rpm>0.00</rpm>
</extensions>
</trkpt>
<trkpt lat="63.713497162" lon="-19.772298813">
<ele>110.179688</ele>
<time>2012-07-26T17:52:24Z</time>
<speed>4.480000</speed>
<extensions>
<speed>4.5</speed>
<temp>0.00</temp>
<bpm>0</bpm>
<rpm>0.00</rpm>
</extensions>
</trkpt>
<trkpt lat="63.713500977" lon="-19.772768021">
<ele>109.841797</ele>
<time>2012-07-26T17:52:29Z</time>
<speed>4.810000</speed>
<extensions>
<speed>4.8</speed>
<temp>0.00</temp>
<bpm>0</bpm>
<rpm>0.00</rpm>
</extensions>
</trkpt>
<trkpt lat="63.713512421" lon="-19.773248672">
<ele>109.974609</ele>
<time>2012-07-26T17:52:34Z</time>
<speed>5.050000</speed>
<extensions>
<speed>5.1</speed>
<temp>0.00</temp>
<bpm>0</bpm>
<rpm>0.00</rpm>
</extensions>
</trkpt>
<trkpt lat="63.713516235" lon="-19.773782730">
<ele>110.078125</ele>
<time>2012-07-26T17:52:39Z</time>
<speed>5.570000</speed>
<extensions>
<speed>5.6</speed>
<temp>0.00</temp>
<bpm>0</bpm>
<rpm>0.00</rpm>
</extensions>
</trkpt>
<trkpt lat="63.713520050" lon="-19.774366379">
<ele>107.412109</ele>
<time>2012-07-26T17:52:44Z</time>
<speed>5.830000</speed>
<extensions>
<speed>5.8</speed>
<temp>0.00</temp>
<bpm>0</bpm>
<rpm>0.00</rpm>
</extensions>
</trkpt>
<trkpt lat="63.713535309" lon="-19.774982452">
<ele>106.148438</ele>
<time>2012-07-26T17:52:49Z</time>
<speed>6.270000</speed>
<extensions>
<speed>6.3</speed>
<temp>0.00</temp>
<bpm>0</bpm>
<rpm>0.00</rpm>
</extensions>
</trkpt>
<trkpt lat="63.713546753" lon="-19.775625229">
<ele>105.689453</ele>
<time>2012-07-26T17:52:54Z</time>
<speed>6.600000</speed>
<extensions>
<speed>6.6</speed>
<temp>0.00</temp>
<bpm>0</bpm>
<rpm>0.00</rpm>
</extensions>
</trkpt>
<trkpt lat="63.713550568" lon="-19.776332855">
<ele>105.652344</ele>
<time>2012-07-26T17:52:59Z</time>
<speed>6.860000</speed>
<extensions>
<speed>6.9</speed>
<temp>0.00</temp>
<bpm>0</bpm>
<rpm>0.00</rpm>
</extensions>
</trkpt>
<trkpt lat="63.713558197" lon="-19.776987076">
<ele>104.119141</ele>
<time>2012-07-26T17:53:04Z</time>
<speed>6.570000</speed>
<extensions>
<speed>6.6</speed>
<temp>0.00</temp>
<bpm>0</bpm>
<rpm>0.00</rpm>
</extensions>
</trkpt>
<trkpt lat="63.713569641" lon="-19.777666092">
<ele>105.011719</ele>
<time>2012-07-26T17:53:09Z</time>
<speed>6.540000</speed>
<extensions>
<speed>6.5</speed>
<temp>0.00</temp>
<bpm>0</bpm>
<rpm>0.00</rpm>
</extensions>
</trkpt>
<trkpt lat="63.713581085" lon="-19.778333664">
<ele>106.082031</ele>
<time>2012-07-26T17:53:14Z</time>
<speed>6.360000</speed>
<extensions>
<speed>6.4</speed>
<temp>0.00</temp>
<bpm>0</bpm>
<rpm>0.00</rpm>
</extensions>
</trkpt>
<trkpt lat="63.713588715" lon="-19.778938293">
<ele>105.970703</ele>
<time>2012-07-26T17:53:19Z</time>
<speed>5.790000</speed>
<extensions>
<speed>5.8</speed>
<temp>0.00</temp>
<bpm>0</bpm>
<rpm>0.00</rpm>
</extensions>
</trkpt>
<trkpt lat="63.713603973" lon="-19.779453278">
<ele>108.068359</ele>
<time>2012-07-26T17:53:24Z</time>
<speed>4.560000</speed>
<extensions>
<speed>4.6</speed>
<temp>0.00</temp>
<bpm>0</bpm>
<rpm>0.00</rpm>
</extensions>
</trkpt>
<trkpt lat="63.713607788" lon="-19.779953003">
<ele>105.146484</ele>
<time>2012-07-26T17:53:29Z</time>
<speed>5.040000</speed>
<extensions>
<speed>5.0</speed>
<temp>0.00</temp>
<bpm>0</bpm>
<rpm>0.00</rpm>
</extensions>
</trkpt>
<trkpt lat="63.713611603" lon="-19.780494690">
<ele>105.117188</ele>
<time>2012-07-26T17:53:34Z</time>
<speed>5.510000</speed>
<extensions>
<speed>5.5</speed>
<temp>0.00</temp>
<bpm>0</bpm>
<rpm>0.00</rpm>
</extensions>
</trkpt>
<trkpt lat="63.713623047" lon="-19.781036377">
<ele>106.042969</ele>
<time>2012-07-26T17:53:39Z</time>
<speed>5.730000</speed>
<extensions>
<speed>5.7</speed>
<temp>0.00</temp>
<bpm>0</bpm>
<rpm>0.00</rpm>
</extensions>
</trkpt>
<trkpt lat="63.713630676" lon="-19.781606674">
<ele>106.320313</ele>
<time>2012-07-26T17:53:44Z</time>
<speed>5.810000</speed>
<extensions>
<speed>5.8</speed>
<temp>0.00</temp>
<bpm>0</bpm>
<rpm>0.00</rpm>
</extensions>
</trkpt>
<trkpt lat="63.713642120" lon="-19.782205582">
<ele>105.945313</ele>
<time>2012-07-26T17:53:49Z</time>
<speed>5.960000</speed>
<extensions>
<speed>6.0</speed>
<temp>0.00</temp>
<bpm>0</bpm>
<rpm>0.00</rpm>
</extensions>
</trkpt>
<trkpt lat="63.713645935" lon="-19.782815933">
<ele>104.427734</ele>
<time>2012-07-26T17:53:54Z</time>
<speed>6.030000</speed>
<extensions>
<speed>6.0</speed>
<temp>0.00</temp>
<bpm>0</bpm>
<rpm>0.00</rpm>
</extensions>
</trkpt>
<trkpt lat="63.713649750" lon="-19.783422470">
<ele>102.251953</ele>
<time>2012-07-26T17:53:59Z</time>
<speed>5.910000</speed>
<extensions>
<speed>5.9</speed>
<temp>0.00</temp>
<bpm>0</bpm>
<rpm>0.00</rpm>
</extensions>
</trkpt>
<trkpt lat="63.713657379" lon="-19.784040451">
<ele>100.802734</ele>
<time>2012-07-26T17:54:04Z</time>
<speed>6.000000</speed>
<extensions>
<speed>6.0</speed>
<temp>0.00</temp>
<bpm>0</bpm>
<rpm>0.00</rpm>
</extensions>
</trkpt>
<trkpt lat="63.713684082" lon="-19.784618378">
<ele>101.750000</ele>
<time>2012-07-26T17:54:09Z</time>
<speed>5.720000</speed>
<extensions>
<speed>5.7</speed>
<temp>0.00</temp>
<bpm>0</bpm>
<rpm>0.00</rpm>
</extensions>
</trkpt>
<trkpt lat="63.713676453" lon="-19.785203934">
<ele>100.484375</ele>
<time>2012-07-26T17:54:14Z</time>
<speed>5.510000</speed>
<extensions>
<speed>5.5</speed>
<temp>0.00</temp>
<bpm>0</bpm>
<rpm>0.00</rpm>
</extensions>
</trkpt>
<trkpt lat="63.713687897" lon="-19.785776138">
<ele>101.179688</ele>
<time>2012-07-26T17:54:19Z</time>
<speed>6.110000</speed>
<extensions>
<speed>6.1</speed>
<temp>0.00</temp>
<bpm>0</bpm>
<rpm>0.00</rpm>
</extensions>
</trkpt>
<trkpt lat="63.713680267" lon="-19.786403656">
<ele>98.730469</ele>
<time>2012-07-26T17:54:24Z</time>
<speed>6.240000</speed>
<extensions>
<speed>6.2</speed>
<temp>0.00</temp>
<bpm>0</bpm>
<rpm>0.00</rpm>
</extensions>
</trkpt>
<trkpt lat="63.713695526" lon="-19.787029266">
<ele>98.515625</ele>
<time>2012-07-26T17:54:29Z</time>
<speed>5.720000</speed>
<extensions>
<speed>5.7</speed>
<temp>0.00</temp>
<bpm>0</bpm>
<rpm>0.00</rpm>
</extensions>
</trkpt>
<trkpt lat="63.713706970" lon="-19.787532806">
<ele>100.466797</ele>
<time>2012-07-26T17:54:34Z</time>
<speed>4.480000</speed>
<extensions>
<speed>4.5</speed>
<temp>0.00</temp>
<bpm>0</bpm>
<rpm>0.00</rpm>
</extensions>
</trkpt>
<trkpt lat="63.713733673" lon="-19.787931442">
<ele>103.103516</ele>
<time>2012-07-26T17:54:39Z</time>
<speed>4.270000</speed>
<extensions>
<speed>4.3</speed>
<temp>0.00</temp>
<bpm>0</bpm>
<rpm>0.00</rpm>
</extensions>
</trkpt>
<trkpt lat="63.713764191" lon="-19.788356781">
<ele>104.185547</ele>
<time>2012-07-26T17:54:44Z</time>
<speed>4.370000</speed>
<extensions>
<speed>4.4</speed>
<temp>0.00</temp>
<bpm>0</bpm>
<rpm>0.00</rpm>
</extensions>
</trkpt>
<trkpt lat="63.713779449" lon="-19.788824081">
<ele>105.408203</ele>
<time>2012-07-26T17:54:49Z</time>
<speed>4.570000</speed>
<extensions>
<speed>4.6</speed>
<temp>0.00</temp>
<bpm>0</bpm>
<rpm>0.00</rpm>
</extensions>
</trkpt>
<trkpt lat="63.713775635" lon="-19.789304733">
<ele>104.636719</ele>
<time>2012-07-26T17:54:54Z</time>
<speed>4.570000</speed>
<extensions>
<speed>4.6</speed>
<temp>0.00</temp>
<bpm>0</bpm>
<rpm>0.00</rpm>
</extensions>
</trkpt>
<trkpt lat="63.713764191" lon="-19.789764404">
<ele>103.482422</ele>
<time>2012-07-26T17:54:59Z</time>
<speed>4.550000</speed>
<extensions>
<speed>4.5</speed>
<temp>0.00</temp>
<bpm>0</bpm>
<rpm>0.00</rpm>
</extensions>
</trkpt>
<trkpt lat="63.713779449" lon="-19.790254593">
<ele>102.384766</ele>
<time>2012-07-26T17:55:04Z</time>
<speed>5.210000</speed>
<extensions>
<speed>5.2</speed>
<temp>0.00</temp>
<bpm>0</bpm>
<rpm>0.00</rpm>
</extensions>
</trkpt>
<trkpt lat="63.713794708" lon="-19.790796280">
<ele>101.500000</ele>
<time>2012-07-26T17:55:09Z</time>
<speed>5.500000</speed>
<extensions>
<speed>5.5</speed>
<temp>0.00</temp>
<bpm>0</bpm>
<rpm>0.00</rpm>
</extensions>
</trkpt>
<trkpt lat="63.713802338" lon="-19.791387558">
<ele>101.203125</ele>
<time>2012-07-26T17:55:14Z</time>
<speed>5.660000</speed>
<extensions>
<speed>5.7</speed>
<temp>0.00</temp>
<bpm>0</bpm>
<rpm>0.00</rpm>
</extensions>
</trkpt>
<trkpt lat="63.713806152" lon="-19.791988373">
<ele>99.917969</ele>
<time>2012-07-26T17:55:19Z</time>
<speed>6.120000</speed>
<extensions>
<speed>6.1</speed>
<temp>0.00</temp>
<bpm>0</bpm>
<rpm>0.00</rpm>
</extensions>
</trkpt>
<trkpt lat="63.713806152" lon="-19.792608261">
<ele>100.007813</ele>
<time>2012-07-26T17:55:24Z</time>
<speed>6.310000</speed>
<extensions>
<speed>6.3</speed>
<temp>0.00</temp>
<bpm>0</bpm>
<rpm>0.00</rpm>
</extensions>
</trkpt>
<trkpt lat="63.713813782" lon="-19.793176651">
<ele>100.724609</ele>
<time>2012-07-26T17:55:29Z</time>
<speed>5.080000</speed>
<extensions>
<speed>5.1</speed>
<temp>0.00</temp>
<bpm>0</bpm>
<rpm>0.00</rpm>
</extensions>
</trkpt>
<trkpt lat="63.713836670" lon="-19.793720245">
<ele>102.367188</ele>
<time>2012-07-26T17:55:34Z</time>
<speed>5.420000</speed>
<extensions>
<speed>5.4</speed>
<temp>0.00</temp>
<bpm>0</bpm>
<rpm>0.00</rpm>
</extensions>
</trkpt>
<trkpt lat="63.713851929" lon="-19.794269562">
<ele>103.234375</ele>
<time>2012-07-26T17:55:39Z</time>
<speed>5.750000</speed>
<extensions>
<speed>5.8</speed>
<temp>0.00</temp>
<bpm>0</bpm>
<rpm>0.00</rpm>
</extensions>
</trkpt>
<trkpt lat="63.713855743" lon="-19.794914246">
<ele>101.468750</ele>
<time>2012-07-26T17:55:44Z</time>
<speed>6.000000</speed>
<extensions>
<speed>6.0</speed>
<temp>0.00</temp>
<bpm>0</bpm>
<rpm>0.00</rpm>
</extensions>
</trkpt>
<trkpt lat="63.713859558" lon="-19.795461655">
<ele>101.050781</ele>
<time>2012-07-26T17:55:49Z</time>
<speed>5.140000</speed>
<extensions>
<speed>5.1</speed>
<temp>0.00</temp>
<bpm>0</bpm>
<rpm>0.00</rpm>
</extensions>
</trkpt>
<trkpt lat="63.713859558" lon="-19.795963287">
<ele>101.414063</ele>
<time>2012-07-26T17:55:54Z</time>
<speed>4.310000</speed>
<extensions>
<speed>4.3</speed>
<temp>0.00</temp>
<bpm>0</bpm>
<rpm>0.00</rpm>
</extensions>
</trkpt>
<trkpt lat="63.713871002" lon="-19.796361923">
<ele>100.738281</ele>
<time>2012-07-26T17:55:59Z</time>
<speed>3.610000</speed>
<extensions>
<speed>3.6</speed>
<temp>0.00</temp>
<bpm>0</bpm>
<rpm>0.00</rpm>
</extensions>
</trkpt>
<trkpt lat="63.713878632" lon="-19.796678543">
<ele>99.935547</ele>
<time>2012-07-26T17:56:04Z</time>
<speed>3.060000</speed>
<extensions>
<speed>3.1</speed>
<temp>0.00</temp>
<bpm>0</bpm>
<rpm>0.00</rpm>
</extensions>
</trkpt>
<trkpt lat="63.713878632" lon="-19.796918869">
<ele>101.660156</ele>
<time>2012-07-26T17:56:09Z</time>
<speed>2.250000</speed>
<extensions>
<speed>2.3</speed>
<temp>0.00</temp>
<bpm>0</bpm>
<rpm>0.00</rpm>
</extensions>
</trkpt>
<trkpt lat="63.713882446" lon="-19.797174454">
<ele>101.156250</ele>
<time>2012-07-26T17:56:14Z</time>
<speed>2.370000</speed>
<extensions>
<speed>2.4</speed>
<temp>0.00</temp>
<bpm>0</bpm>
<rpm>0.00</rpm>
</extensions>
</trkpt>
<trkpt lat="63.713878632" lon="-19.797422409">
<ele>100.890625</ele>
<time>2012-07-26T17:56:19Z</time>
<speed>1.610000</speed>
<extensions>
<speed>1.6</speed>
<temp>0.00</temp>
<bpm>0</bpm>
<rpm>0.00</rpm>
</extensions>
</trkpt>
<trkpt lat="63.713874817" lon="-19.797451019">
<ele>99.744141</ele>
<time>2012-07-26T17:56:24Z</time>
<speed>0.030000</speed>
<extensions>
<speed>0.0</speed>
<temp>0.00</temp>
<bpm>0</bpm>
<rpm>0.00</rpm>
</extensions>
</trkpt>
<trkpt lat="63.713874817" lon="-19.797452927">
<ele>99.701172</ele>
<time>2012-07-26T17:56:29Z</time>
<speed>0.010000</speed>
<extensions>
<speed>0.0</speed>
<temp>0.00</temp>
<bpm>0</bpm>
<rpm>0.00</rpm>
</extensions>
</trkpt>
<trkpt lat="63.713874817" lon="-19.797451019">
<ele>99.710938</ele>
<time>2012-07-26T17:56:34Z</time>
<speed>0.010000</speed>
<extensions>
<speed>0.0</speed>
<temp>0.00</temp>
<bpm>0</bpm>
<rpm>0.00</rpm>
</extensions>
</trkpt>
<trkpt lat="63.713874817" lon="-19.797451019">
<ele>99.761719</ele>
<time>2012-07-26T17:56:39Z</time>
<speed>0.050000</speed>
<extensions>
<speed>0.1</speed>
<temp>0.00</temp>
<bpm>0</bpm>
<rpm>0.00</rpm>
</extensions>
</trkpt>
<trkpt lat="63.713878632" lon="-19.797449112">
<ele>99.779297</ele>
<time>2012-07-26T17:56:44Z</time>
<speed>0.040000</speed>
<extensions>
<speed>0.0</speed>
<temp>0.00</temp>
<bpm>0</bpm>
<rpm>0.00</rpm>
</extensions>
</trkpt>
<trkpt lat="63.713878632" lon="-19.797449112">
<ele>99.822266</ele>
<time>2012-07-26T17:56:49Z</time>
<speed>0.050000</speed>
<extensions>
<speed>0.1</speed>
<temp>0.00</temp>
<bpm>0</bpm>
<rpm>0.00</rpm>
</extensions>
</trkpt>
<trkpt lat="63.713878632" lon="-19.797447205">
<ele>99.826172</ele>
<time>2012-07-26T17:56:54Z</time>
<extensions>
<speed>0.0</speed>
<temp>0.00</temp>
<bpm>0</bpm>
<rpm>0.00</rpm>
</extensions>
</trkpt>
<trkpt lat="63.713878632" lon="-19.797447205">
<ele>99.820313</ele>
<time>2012-07-26T17:56:59Z</time>
<extensions>
<speed>0.0</speed>
<temp>0.00</temp>
<bpm>0</bpm>
<rpm>0.00</rpm>
</extensions>
</trkpt>
<trkpt lat="63.713878632" lon="-19.797447205">
<ele>99.820313</ele>
<time>2012-07-26T17:57:04Z</time>
<extensions>
<speed>0.0</speed>
<temp>0.00</temp>
<bpm>0</bpm>
<rpm>0.00</rpm>
</extensions>
</trkpt>
<trkpt lat="63.713878632" lon="-19.797447205">
<ele>99.835938</ele>
<time>2012-07-26T17:57:09Z</time>
<speed>0.010000</speed>
<extensions>
<speed>0.0</speed>
<temp>0.00</temp>
<bpm>0</bpm>
<rpm>0.00</rpm>
</extensions>
</trkpt>
<trkpt lat="63.713878632" lon="-19.797447205">
<ele>99.839844</ele>
<time>2012-07-26T17:57:14Z</time>
<speed>0.010000</speed>
<extensions>
<speed>0.0</speed>
<temp>0.00</temp>
<bpm>0</bpm>
<rpm>0.00</rpm>
</extensions>
</trkpt>
<trkpt lat="63.713878632" lon="-19.797445297">
<ele>99.837891</ele>
<time>2012-07-26T17:57:19Z</time>
<extensions>
<speed>0.0</speed>
<temp>0.00</temp>
<bpm>0</bpm>
<rpm>0.00</rpm>
</extensions>
</trkpt>
<trkpt lat="63.713878632" lon="-19.797445297">
<ele>99.826172</ele>
<time>2012-07-26T17:57:24Z</time>
<speed>0.020000</speed>
<extensions>
<speed>0.0</speed>
<temp>0.00</temp>
<bpm>0</bpm>
<rpm>0.00</rpm>
</extensions>
</trkpt>
<trkpt lat="63.713878632" lon="-19.797445297">
<ele>99.841797</ele>
<time>2012-07-26T17:57:29Z</time>
<speed>0.010000</speed>
<extensions>
<speed>0.0</speed>
<temp>0.00</temp>
<bpm>0</bpm>
<rpm>0.00</rpm>
</extensions>
</trkpt>
<trkpt lat="63.713878632" lon="-19.797445297">
<ele>99.839844</ele>
<time>2012-07-26T17:57:34Z</time>
<speed>0.020000</speed>
<extensions>
<speed>0.0</speed>
<temp>0.00</temp>
<bpm>0</bpm>
<rpm>0.00</rpm>
</extensions>
</trkpt>
<trkpt lat="63.713878632" lon="-19.797445297">
<ele>99.833984</ele>
<time>2012-07-26T17:57:39Z</time>
<speed>0.010000</speed>
<extensions>
<speed>0.0</speed>
<temp>0.00</temp>
<bpm>0</bpm>
<rpm>0.00</rpm>
</extensions>
</trkpt>
<trkpt lat="63.713878632" lon="-19.797445297">
<ele>99.843750</ele>
<time>2012-07-26T17:57:44Z</time>
<speed>0.020000</speed>
<extensions>
<speed>0.0</speed>
<temp>0.00</temp>
<bpm>0</bpm>
<rpm>0.00</rpm>
</extensions>
</trkpt>
<trkpt lat="63.713878632" lon="-19.797445297">
<ele>99.847656</ele>
<time>2012-07-26T17:57:49Z</time>
<speed>0.010000</speed>
<extensions>
<speed>0.0</speed>
<temp>0.00</temp>
<bpm>0</bpm>
<rpm>0.00</rpm>
</extensions>
</trkpt>
<trkpt lat="63.713878632" lon="-19.797443390">
<ele>99.835938</ele>
<time>2012-07-26T17:57:54Z</time>
<speed>0.010000</speed>
<extensions>
<speed>0.0</speed>
<temp>0.00</temp>
<bpm>0</bpm>
<rpm>0.00</rpm>
</extensions>
</trkpt>
<trkpt lat="63.713878632" lon="-19.797443390">
<ele>99.826172</ele>
<time>2012-07-26T17:57:59Z</time>
<speed>0.010000</speed>
<extensions>
<speed>0.0</speed>
<temp>0.00</temp>
<bpm>0</bpm>
<rpm>0.00</rpm>
</extensions>
</trkpt>
<trkpt lat="63.713878632" lon="-19.797443390">
<ele>99.824219</ele>
<time>2012-07-26T17:58:04Z</time>
<speed>0.030000</speed>
<extensions>
<speed>0.0</speed>
<temp>0.00</temp>
<bpm>0</bpm>
<rpm>0.00</rpm>
</extensions>
</trkpt>
<trkpt lat="63.713886261" lon="-19.797607422">
<ele>100.380859</ele>
<time>2012-07-26T17:58:09Z</time>
<speed>2.490000</speed>
<extensions>
<speed>2.5</speed>
<temp>0.00</temp>
<bpm>0</bpm>
<rpm>0.00</rpm>
</extensions>
</trkpt>
<trkpt lat="63.713890076" lon="-19.797870636">
<ele>100.919922</ele>
<time>2012-07-26T17:58:14Z</time>
<speed>2.760000</speed>
<extensions>
<speed>2.8</speed>
<temp>0.00</temp>
<bpm>0</bpm>
<rpm>0.00</rpm>
</extensions>
</trkpt>
<trkpt lat="63.713897705" lon="-19.798213959">
<ele>100.804688</ele>
<time>2012-07-26T17:58:19Z</time>
<speed>3.800000</speed>
<extensions>
<speed>3.8</speed>
<temp>0.00</temp>
<bpm>0</bpm>
<rpm>0.00</rpm>
</extensions>
</trkpt>
<trkpt lat="63.713901520" lon="-19.798580170">
<ele>100.744141</ele>
<time>2012-07-26T17:58:24Z</time>
<speed>3.890000</speed>
<extensions>
<speed>3.9</speed>
<temp>0.00</temp>
<bpm>0</bpm>
<rpm>0.00</rpm>
</extensions>
</trkpt>
<trkpt lat="63.713905334" lon="-19.799003601">
<ele>100.863281</ele>
<time>2012-07-26T17:58:29Z</time>
<speed>4.350000</speed>
<extensions>
<speed>4.3</speed>
<temp>0.00</temp>
<bpm>0</bpm>
<rpm>0.00</rpm>
</extensions>
</trkpt>
<trkpt lat="63.713932037" lon="-19.799428940">
<ele>101.576172</ele>
<time>2012-07-26T17:58:34Z</time>
<speed>4.330000</speed>
<extensions>
<speed>4.3</speed>
<temp>0.00</temp>
<bpm>0</bpm>
<rpm>0.00</rpm>
</extensions>
</trkpt>
<trkpt lat="63.713943481" lon="-19.799873352">
<ele>102.248047</ele>
<time>2012-07-26T17:58:39Z</time>
<speed>4.590000</speed>
<extensions>
<speed>4.6</speed>
<temp>0.00</temp>
<bpm>0</bpm>
<rpm>0.00</rpm>
</extensions>
</trkpt>
<trkpt lat="63.713939667" lon="-19.800373077">
<ele>99.423828</ele>
<time>2012-07-26T17:58:44Z</time>
<speed>4.580000</speed>
<extensions>
<speed>4.6</speed>
<temp>0.00</temp>
<bpm>0</bpm>
<rpm>0.00</rpm>
</extensions>
</trkpt>
<trkpt lat="63.713943481" lon="-19.800849915">
<ele>100.306641</ele>
<time>2012-07-26T17:58:49Z</time>
<speed>5.190000</speed>
<extensions>
<speed>5.2</speed>
<temp>0.00</temp>
<bpm>0</bpm>
<rpm>0.00</rpm>
</extensions>
</trkpt>
<trkpt lat="63.713943481" lon="-19.801355362">
<ele>99.740234</ele>
<time>2012-07-26T17:58:54Z</time>
<speed>5.030000</speed>
<extensions>
<speed>5.0</speed>
<temp>0.00</temp>
<bpm>0</bpm>
<rpm>0.00</rpm>
</extensions>
</trkpt>
<trkpt lat="63.713943481" lon="-19.801841736">
<ele>100.460938</ele>
<time>2012-07-26T17:58:59Z</time>
<speed>4.830000</speed>
<extensions>
<speed>4.8</speed>
<temp>0.00</temp>
<bpm>0</bpm>
<rpm>0.00</rpm>
</extensions>
</trkpt>
<trkpt lat="63.713943481" lon="-19.802331924">
<ele>99.369141</ele>
<time>2012-07-26T17:59:04Z</time>
<speed>4.820000</speed>
<extensions>
<speed>4.8</speed>
<temp>0.00</temp>
<bpm>0</bpm>
<rpm>0.00</rpm>
</extensions>
</trkpt>
<trkpt lat="63.713958740" lon="-19.802785873">
<ele>99.535156</ele>
<time>2012-07-26T17:59:09Z</time>
<speed>4.750000</speed>
<extensions>
<speed>4.8</speed>
<temp>0.00</temp>
<bpm>0</bpm>
<rpm>0.00</rpm>
</extensions>
</trkpt>
<trkpt lat="63.713973999" lon="-19.803279877">
<ele>100.873047</ele>
<time>2012-07-26T17:59:14Z</time>
<speed>4.960000</speed>
<extensions>
<speed>5.0</speed>
<temp>0.00</temp>
<bpm>0</bpm>
<rpm>0.00</rpm>
</extensions>
</trkpt>
<trkpt lat="63.713970184" lon="-19.803812027">
<ele>100.224609</ele>
<time>2012-07-26T17:59:19Z</time>
<speed>5.020000</speed>
<extensions>
<speed>5.0</speed>
<temp>0.00</temp>
<bpm>0</bpm>
<rpm>0.00</rpm>
</extensions>
</trkpt>
<trkpt lat="63.713989258" lon="-19.804334641">
<ele>102.748047</ele>
<time>2012-07-26T17:59:24Z</time>
<speed>5.260000</speed>
<extensions>
<speed>5.3</speed>
<temp>0.00</temp>
<bpm>0</bpm>
<rpm>0.00</rpm>
</extensions>
</trkpt>
<trkpt lat="63.714000702" lon="-19.804870605">
<ele>103.392578</ele>
<time>2012-07-26T17:59:29Z</time>
<speed>5.030000</speed>
<extensions>
<speed>5.0</speed>
<temp>0.00</temp>
<bpm>0</bpm>
<rpm>0.00</rpm>
</extensions>
</trkpt>
<trkpt lat="63.714012146" lon="-19.805368423">
<ele>102.867188</ele>
<time>2012-07-26T17:59:34Z</time>
<speed>4.820000</speed>
<extensions>
<speed>4.8</speed>
<temp>0.00</temp>
<bpm>0</bpm>
<rpm>0.00</rpm>
</extensions>
</trkpt>
<trkpt lat="63.714015961" lon="-19.805854797">
<ele>102.375000</ele>
<time>2012-07-26T17:59:39Z</time>
<speed>4.330000</speed>
<extensions>
<speed>4.3</speed>
<temp>0.00</temp>
<bpm>0</bpm>
<rpm>0.00</rpm>
</extensions>
</trkpt>
<trkpt lat="63.714035034" lon="-19.806268692">
<ele>101.470703</ele>
<time>2012-07-26T17:59:44Z</time>
<speed>3.610000</speed>
<extensions>
<speed>3.6</speed>
<temp>0.00</temp>
<bpm>0</bpm>
<rpm>0.00</rpm>
</extensions>
</trkpt>
<trkpt lat="63.714046478" lon="-19.806785583">
<ele>100.408203</ele>
<time>2012-07-26T17:59:49Z</time>
<speed>5.670000</speed>
<extensions>
<speed>5.7</speed>
<temp>0.00</temp>
<bpm>0</bpm>
<rpm>0.00</rpm>
</extensions>
</trkpt>
<trkpt lat="63.714050293" lon="-19.807369232">
<ele>98.082031</ele>
<time>2012-07-26T17:59:54Z</time>
<speed>5.310000</speed>
<extensions>
<speed>5.3</speed>
<temp>0.00</temp>
<bpm>0</bpm>
<rpm>0.00</rpm>
</extensions>
</trkpt>
<trkpt lat="63.714061737" lon="-19.807844162">
<ele>98.580078</ele>
<time>2012-07-26T17:59:59Z</time>
<speed>4.550000</speed>
<extensions>
<speed>4.5</speed>
<temp>0.00</temp>
<bpm>0</bpm>
<rpm>0.00</rpm>
</extensions>
</trkpt>
<trkpt lat="63.714057922" lon="-19.808332443">
<ele>96.802734</ele>
<time>2012-07-26T18:00:04Z</time>
<speed>4.570000</speed>
<extensions>
<speed>4.6</speed>
<temp>0.00</temp>
<bpm>0</bpm>
<rpm>0.00</rpm>
</extensions>
</trkpt>
<trkpt lat="63.714061737" lon="-19.808794022">
<ele>97.986328</ele>
<time>2012-07-26T18:00:09Z</time>
<speed>4.900000</speed>
<extensions>
<speed>4.9</speed>
<temp>0.00</temp>
<bpm>0</bpm>
<rpm>0.00</rpm>
</extensions>
</trkpt>
<trkpt lat="63.714073181" lon="-19.809272766">
<ele>96.703125</ele>
<time>2012-07-26T18:00:14Z</time>
<speed>4.730000</speed>
<extensions>
<speed>4.7</speed>
<temp>0.00</temp>
<bpm>0</bpm>
<rpm>0.00</rpm>
</extensions>
</trkpt>
<trkpt lat="63.714084625" lon="-19.809755325">
<ele>97.593750</ele>
<time>2012-07-26T18:00:19Z</time>
<speed>4.630000</speed>
<extensions>
<speed>4.6</speed>
<temp>0.00</temp>
<bpm>0</bpm>
<rpm>0.00</rpm>
</extensions>
</trkpt>
<trkpt lat="63.714088440" lon="-19.810251236">
<ele>94.111328</ele>
<time>2012-07-26T18:00:24Z</time>
<speed>5.160000</speed>
<extensions>
<speed>5.2</speed>
<temp>0.00</temp>
<bpm>0</bpm>
<rpm>0.00</rpm>
</extensions>
</trkpt>
<trkpt lat="63.714088440" lon="-19.810747147">
<ele>92.664063</ele>
<time>2012-07-26T18:00:29Z</time>
<speed>4.380000</speed>
<extensions>
<speed>4.4</speed>
<temp>0.00</temp>
<bpm>0</bpm>
<rpm>0.00</rpm>
</extensions>
</trkpt>
<trkpt lat="63.714099884" lon="-19.811197281">
<ele>93.921875</ele>
<time>2012-07-26T18:00:34Z</time>
<speed>4.320000</speed>
<extensions>
<speed>4.3</speed>
<temp>0.00</temp>
<bpm>0</bpm>
<rpm>0.00</rpm>
</extensions>
</trkpt>
<trkpt lat="63.714115143" lon="-19.811634064">
<ele>96.041016</ele>
<time>2012-07-26T18:00:39Z</time>
<speed>4.400000</speed>
<extensions>
<speed>4.4</speed>
<temp>0.00</temp>
<bpm>0</bpm>
<rpm>0.00</rpm>
</extensions>
</trkpt>
<trkpt lat="63.714118958" lon="-19.812088013">
<ele>95.201172</ele>
<time>2012-07-26T18:00:44Z</time>
<speed>4.410000</speed>
<extensions>
<speed>4.4</speed>
<temp>0.00</temp>
<bpm>0</bpm>
<rpm>0.00</rpm>
</extensions>
</trkpt>
<trkpt lat="63.714122772" lon="-19.812532425">
<ele>96.757813</ele>
<time>2012-07-26T18:00:49Z</time>
<speed>3.880000</speed>
<extensions>
<speed>3.9</speed>
<temp>0.00</temp>
<bpm>0</bpm>
<rpm>0.00</rpm>
</extensions>
</trkpt>
<trkpt lat="63.714130402" lon="-19.812883377">
<ele>97.136719</ele>
<time>2012-07-26T18:00:54Z</time>
<speed>2.960000</speed>
<extensions>
<speed>3.0</speed>
<temp>0.00</temp>
<bpm>0</bpm>
<rpm>0.00</rpm>
</extensions>
</trkpt>
<trkpt lat="63.714141846" lon="-19.813205719">
<ele>97.371094</ele>
<time>2012-07-26T18:00:59Z</time>
<speed>3.420000</speed>
<extensions>
<speed>3.4</speed>
<temp>0.00</temp>
<bpm>0</bpm>
<rpm>0.00</rpm>
</extensions>
</trkpt>
<trkpt lat="63.714149475" lon="-19.813541412">
<ele>99.228516</ele>
<time>2012-07-26T18:01:04Z</time>
<speed>3.550000</speed>
<extensions>
<speed>3.5</speed>
<temp>0.00</temp>
<bpm>0</bpm>
<rpm>0.00</rpm>
</extensions>
</trkpt>
<trkpt lat="63.714134216" lon="-19.813907623">
<ele>98.386719</ele>
<time>2012-07-26T18:01:09Z</time>
<speed>3.570000</speed>
<extensions>
<speed>3.6</speed>
<temp>0.00</temp>
<bpm>0</bpm>
<rpm>0.00</rpm>
</extensions>
</trkpt>
<trkpt lat="63.714141846" lon="-19.814252853">
<ele>98.230469</ele>
<time>2012-07-26T18:01:14Z</time>
<speed>3.850000</speed>
<extensions>
<speed>3.8</speed>
<temp>0.00</temp>
<bpm>0</bpm>
<rpm>0.00</rpm>
</extensions>
</trkpt>
<trkpt lat="63.714164734" lon="-19.814662933">
<ele>100.380859</ele>
<time>2012-07-26T18:01:19Z</time>
<speed>3.640000</speed>
<extensions>
<speed>3.6</speed>
<temp>0.00</temp>
<bpm>0</bpm>
<rpm>0.00</rpm>
</extensions>
</trkpt>
<trkpt lat="63.714168549" lon="-19.815059662">
<ele>99.632813</ele>
<time>2012-07-26T18:01:24Z</time>
<speed>3.930000</speed>
<extensions>
<speed>3.9</speed>
<temp>0.00</temp>
<bpm>0</bpm>
<rpm>0.00</rpm>
</extensions>
</trkpt>
<trkpt lat="63.714153290" lon="-19.815488815">
<ele>98.826172</ele>
<time>2012-07-26T18:01:29Z</time>
<speed>4.280000</speed>
<extensions>
<speed>4.3</speed>
<temp>0.00</temp>
<bpm>0</bpm>
<rpm>0.00</rpm>
</extensions>
</trkpt>
<trkpt lat="63.714145660" lon="-19.815917969">
<ele>97.847656</ele>
<time>2012-07-26T18:01:34Z</time>
<speed>4.270000</speed>
<extensions>
<speed>4.3</speed>
<temp>0.00</temp>
<bpm>0</bpm>
<rpm>0.00</rpm>
</extensions>
</trkpt>
<trkpt lat="63.714126587" lon="-19.816341400">
<ele>98.693359</ele>
<time>2012-07-26T18:01:39Z</time>
<speed>3.970000</speed>
<extensions>
<speed>4.0</speed>
<temp>0.00</temp>
<bpm>0</bpm>
<rpm>0.00</rpm>
</extensions>
</trkpt>
<trkpt lat="63.714118958" lon="-19.816787720">
<ele>100.238281</ele>
<time>2012-07-26T18:01:44Z</time>
<speed>4.140000</speed>
<extensions>
<speed>4.1</speed>
<temp>0.00</temp>
<bpm>0</bpm>
<rpm>0.00</rpm>
</extensions>
</trkpt>
<trkpt lat="63.714111328" lon="-19.817235947">
<ele>97.843750</ele>
<time>2012-07-26T18:01:49Z</time>
<speed>4.220000</speed>
<extensions>
<speed>4.2</speed>
<temp>0.00</temp>
<bpm>0</bpm>
<rpm>0.00</rpm>
</extensions>
</trkpt>
<trkpt lat="63.714092255" lon="-19.817708969">
<ele>96.046875</ele>
<time>2012-07-26T18:01:54Z</time>
<speed>4.880000</speed>
<extensions>
<speed>4.9</speed>
<temp>0.00</temp>
<bpm>0</bpm>
<rpm>0.00</rpm>
</extensions>
</trkpt>
<trkpt lat="63.714069366" lon="-19.818204880">
<ele>95.894531</ele>
<time>2012-07-26T18:01:59Z</time>
<speed>5.150000</speed>
<extensions>
<speed>5.2</speed>
<temp>0.00</temp>
<bpm>0</bpm>
<rpm>0.00</rpm>
</extensions>
</trkpt>
<trkpt lat="63.714050293" lon="-19.818704605">
<ele>96.648438</ele>
<time>2012-07-26T18:02:04Z</time>
<speed>4.740000</speed>
<extensions>
<speed>4.7</speed>
<temp>0.00</temp>
<bpm>0</bpm>
<rpm>0.00</rpm>
</extensions>
</trkpt>
<trkpt lat="63.714023590" lon="-19.819154739">
<ele>96.775391</ele>
<time>2012-07-26T18:02:09Z</time>
<speed>4.160000</speed>
<extensions>
<speed>4.2</speed>
<temp>0.00</temp>
<bpm>0</bpm>
<rpm>0.00</rpm>
</extensions>
</trkpt>
<trkpt lat="63.714004517" lon="-19.819417953">
<ele>95.933594</ele>
<time>2012-07-26T18:02:14Z</time>
<speed>2.330000</speed>
<extensions>
<speed>2.3</speed>
<temp>0.00</temp>
<bpm>0</bpm>
<rpm>0.00</rpm>
</extensions>
</trkpt>
<trkpt lat="63.713993073" lon="-19.819704056">
<ele>95.408203</ele>
<time>2012-07-26T18:02:19Z</time>
<speed>3.040000</speed>
<extensions>
<speed>3.0</speed>
<temp>0.00</temp>
<bpm>0</bpm>
<rpm>0.00</rpm>
</extensions>
</trkpt>
<trkpt lat="63.713981628" lon="-19.820003510">
<ele>94.763672</ele>
<time>2012-07-26T18:02:24Z</time>
<speed>3.210000</speed>
<extensions>
<speed>3.2</speed>
<temp>0.00</temp>
<bpm>0</bpm>
<rpm>0.00</rpm>
</extensions>
</trkpt>
<trkpt lat="63.713962555" lon="-19.820348740">
<ele>94.974609</ele>
<time>2012-07-26T18:02:29Z</time>
<speed>3.400000</speed>
<extensions>
<speed>3.4</speed>
<temp>0.00</temp>
<bpm>0</bpm>
<rpm>0.00</rpm>
</extensions>
</trkpt>
<trkpt lat="63.713928223" lon="-19.820745468">
<ele>94.917969</ele>
<time>2012-07-26T18:02:34Z</time>
<speed>3.570000</speed>
<extensions>
<speed>3.6</speed>
<temp>0.00</temp>
<bpm>0</bpm>
<rpm>0.00</rpm>
</extensions>
</trkpt>
<trkpt lat="63.713905334" lon="-19.821079254">
<ele>95.505859</ele>
<time>2012-07-26T18:02:39Z</time>
<speed>3.000000</speed>
<extensions>
<speed>3.0</speed>
<temp>0.00</temp>
<bpm>0</bpm>
<rpm>0.00</rpm>
</extensions>
</trkpt>
<trkpt lat="63.713874817" lon="-19.821418762">
<ele>95.093750</ele>
<time>2012-07-26T18:02:44Z</time>
<speed>3.680000</speed>
<extensions>
<speed>3.7</speed>
<temp>0.00</temp>
<bpm>0</bpm>
<rpm>0.00</rpm>
</extensions>
</trkpt>
<trkpt lat="63.713859558" lon="-19.821809769">
<ele>95.218750</ele>
<time>2012-07-26T18:02:49Z</time>
<speed>4.330000</speed>
<extensions>
<speed>4.3</speed>
<temp>0.00</temp>
<bpm>0</bpm>
<rpm>0.00</rpm>
</extensions>
</trkpt>
<trkpt lat="63.713844299" lon="-19.822261810">
<ele>96.755859</ele>
<time>2012-07-26T18:02:54Z</time>
<speed>4.320000</speed>
<extensions>
<speed>4.3</speed>
<temp>0.00</temp>
<bpm>0</bpm>
<rpm>0.00</rpm>
</extensions>
</trkpt>
<trkpt lat="63.713802338" lon="-19.822681427">
<ele>96.105469</ele>
<time>2012-07-26T18:02:59Z</time>
<speed>3.840000</speed>
<extensions>
<speed>3.8</speed>
<temp>0.00</temp>
<bpm>0</bpm>
<rpm>0.00</rpm>
</extensions>
</trkpt>
<trkpt lat="63.713775635" lon="-19.823057175">
<ele>95.921875</ele>
<time>2012-07-26T18:03:04Z</time>
<speed>3.170000</speed>
<extensions>
<speed>3.2</speed>
<temp>0.00</temp>
<bpm>0</bpm>
<rpm>0.00</rpm>
</extensions>
</trkpt>
<trkpt lat="63.713760376" lon="-19.823375702">
<ele>95.296875</ele>
<time>2012-07-26T18:03:09Z</time>
<speed>3.700000</speed>
<extensions>
<speed>3.7</speed>
<temp>0.00</temp>
<bpm>0</bpm>
<rpm>0.00</rpm>
</extensions>
</trkpt>
<trkpt lat="63.713699341" lon="-19.823753357">
<ele>95.119141</ele>
<time>2012-07-26T18:03:14Z</time>
<speed>4.480000</speed>
<extensions>
<speed>4.5</speed>
<temp>0.00</temp>
<bpm>0</bpm>
<rpm>0.00</rpm>
</extensions>
</trkpt>
<trkpt lat="63.713569641" lon="-19.824117661">
<ele>96.642578</ele>
<time>2012-07-26T18:03:19Z</time>
<speed>4.320000</speed>
<extensions>
<speed>4.3</speed>
<temp>0.00</temp>
<bpm>0</bpm>
<rpm>0.00</rpm>
</extensions>
</trkpt>
<trkpt lat="63.713428497" lon="-19.824369431">
<ele>97.080078</ele>
<time>2012-07-26T18:03:24Z</time>
<speed>3.630000</speed>
<extensions>
<speed>3.6</speed>
<temp>0.00</temp>
<bpm>0</bpm>
<rpm>0.00</rpm>
</extensions>
</trkpt>
<trkpt lat="63.713283539" lon="-19.824520111">
<ele>97.277344</ele>
<time>2012-07-26T18:03:29Z</time>
<speed>2.820000</speed>
<extensions>
<speed>2.8</speed>
<temp>0.00</temp>
<bpm>0</bpm>
<rpm>0.00</rpm>
</extensions>
</trkpt>
<trkpt lat="63.713184357" lon="-19.824651718">
<ele>97.544922</ele>
<time>2012-07-26T18:03:34Z</time>
<speed>2.600000</speed>
<extensions>
<speed>2.6</speed>
<temp>0.00</temp>
<bpm>0</bpm>
<rpm>0.00</rpm>
</extensions>
</trkpt>
<trkpt lat="63.713058472" lon="-19.824836731">
<ele>97.839844</ele>
<time>2012-07-26T18:03:39Z</time>
<speed>3.630000</speed>
<extensions>
<speed>3.6</speed>
<temp>0.00</temp>
<bpm>0</bpm>
<rpm>0.00</rpm>
</extensions>
</trkpt>
<trkpt lat="63.712909698" lon="-19.825035095">
<ele>98.199219</ele>
<time>2012-07-26T18:03:44Z</time>
<speed>4.050000</speed>
<extensions>
<speed>4.0</speed>
<temp>0.00</temp>
<bpm>0</bpm>
<rpm>0.00</rpm>
</extensions>
</trkpt>
<trkpt lat="63.712749481" lon="-19.825263977">
<ele>97.873047</ele>
<time>2012-07-26T18:03:49Z</time>
<speed>4.260000</speed>
<extensions>
<speed>4.3</speed>
<temp>0.00</temp>
<bpm>0</bpm>
<rpm>0.00</rpm>
</extensions>
</trkpt>
<trkpt lat="63.712596893" lon="-19.825521469">
<ele>98.316406</ele>
<time>2012-07-26T18:03:54Z</time>
<speed>3.710000</speed>
<extensions>
<speed>3.7</speed>
<temp>0.00</temp>
<bpm>0</bpm>
<rpm>0.00</rpm>
</extensions>
</trkpt>
<trkpt lat="63.712467194" lon="-19.825719833">
<ele>98.611328</ele>
<time>2012-07-26T18:03:59Z</time>
<speed>3.190000</speed>
<extensions>
<speed>3.2</speed>
<temp>0.00</temp>
<bpm>0</bpm>
<rpm>0.00</rpm>
</extensions>
</trkpt>
<trkpt lat="63.712379456" lon="-19.825908661">
<ele>99.835938</ele>
<time>2012-07-26T18:04:04Z</time>
<speed>2.440000</speed>
<extensions>
<speed>2.4</speed>
<temp>0.00</temp>
<bpm>0</bpm>
<rpm>0.00</rpm>
</extensions>
</trkpt>
<trkpt lat="63.712326050" lon="-19.826128006">
<ele>99.744141</ele>
<time>2012-07-26T18:04:09Z</time>
<speed>2.680000</speed>
<extensions>
<speed>2.7</speed>
<temp>0.00</temp>
<bpm>0</bpm>
<rpm>0.00</rpm>
</extensions>
</trkpt>
<trkpt lat="63.712265015" lon="-19.826425552">
<ele>99.796875</ele>
<time>2012-07-26T18:04:14Z</time>
<speed>3.800000</speed>
<extensions>
<speed>3.8</speed>
<temp>0.00</temp>
<bpm>0</bpm>
<rpm>0.00</rpm>
</extensions>
</trkpt>
<trkpt lat="63.712203979" lon="-19.826793671">
<ele>99.593750</ele>
<time>2012-07-26T18:04:19Z</time>
<speed>3.810000</speed>
<extensions>
<speed>3.8</speed>
<temp>0.00</temp>
<bpm>0</bpm>
<rpm>0.00</rpm>
</extensions>
</trkpt>
<trkpt lat="63.712154388" lon="-19.827123642">
<ele>99.470703</ele>
<time>2012-07-26T18:04:24Z</time>
<speed>3.060000</speed>
<extensions>
<speed>3.1</speed>
<temp>0.00</temp>
<bpm>0</bpm>
<rpm>0.00</rpm>
</extensions>
</trkpt>
<trkpt lat="63.712123871" lon="-19.827392578">
<ele>99.271484</ele>
<time>2012-07-26T18:04:29Z</time>
<speed>2.300000</speed>
<extensions>
<speed>2.3</speed>
<temp>0.00</temp>
<bpm>0</bpm>
<rpm>0.00</rpm>
</extensions>
</trkpt>
<trkpt lat="63.712123871" lon="-19.827587128">
<ele>100.533203</ele>
<time>2012-07-26T18:04:34Z</time>
<speed>1.790000</speed>
<extensions>
<speed>1.8</speed>
<temp>0.00</temp>
<bpm>0</bpm>
<rpm>0.00</rpm>
</extensions>
</trkpt>
<trkpt lat="63.712108612" lon="-19.827768326">
<ele>101.154297</ele>
<time>2012-07-26T18:04:39Z</time>
<speed>2.640000</speed>
<extensions>
<speed>2.6</speed>
<temp>0.00</temp>
<bpm>0</bpm>
<rpm>0.00</rpm>
</extensions>
</trkpt>
<trkpt lat="63.712093353" lon="-19.828023911">
<ele>101.308594</ele>
<time>2012-07-26T18:04:44Z</time>
<speed>2.260000</speed>
<extensions>
<speed>2.3</speed>
<temp>0.00</temp>
<bpm>0</bpm>
<rpm>0.00</rpm>
</extensions>
</trkpt>
<trkpt lat="63.712097168" lon="-19.828224182">
<ele>101.337891</ele>
<time>2012-07-26T18:04:49Z</time>
<speed>1.440000</speed>
<extensions>
<speed>1.4</speed>
<temp>0.00</temp>
<bpm>0</bpm>
<rpm>0.00</rpm>
</extensions>
</trkpt>
<trkpt lat="63.712081909" lon="-19.828290939">
<ele>100.503906</ele>
<time>2012-07-26T18:04:54Z</time>
<speed>0.080000</speed>
<extensions>
<speed>0.1</speed>
<temp>0.00</temp>
<bpm>0</bpm>
<rpm>0.00</rpm>
</extensions>
</trkpt>
<trkpt lat="63.712081909" lon="-19.828289032">
<ele>100.205078</ele>
<time>2012-07-26T18:04:59Z</time>
<speed>0.020000</speed>
<extensions>
<speed>0.0</speed>
<temp>0.00</temp>
<bpm>0</bpm>
<rpm>0.00</rpm>
</extensions>
</trkpt>
<trkpt lat="63.712081909" lon="-19.828289032">
<ele>100.041016</ele>
<time>2012-07-26T18:05:04Z</time>
<speed>0.010000</speed>
<extensions>
<speed>0.0</speed>
<temp>0.00</temp>
<bpm>0</bpm>
<rpm>0.00</rpm>
</extensions>
</trkpt>
<trkpt lat="63.712081909" lon="-19.828319550">
<ele>100.021484</ele>
<time>2012-07-26T18:05:09Z</time>
<speed>2.020000</speed>
<extensions>
<speed>2.0</speed>
<temp>0.00</temp>
<bpm>0</bpm>
<rpm>0.00</rpm>
</extensions>
</trkpt>
<trkpt lat="63.712104797" lon="-19.828685760">
<ele>99.968750</ele>
<time>2012-07-26T18:05:14Z</time>
<speed>4.530000</speed>
<extensions>
<speed>4.5</speed>
<temp>0.00</temp>
<bpm>0</bpm>
<rpm>0.00</rpm>
</extensions>
</trkpt>
<trkpt lat="63.712123871" lon="-19.829174042">
<ele>98.712891</ele>
<time>2012-07-26T18:05:19Z</time>
<speed>4.720000</speed>
<extensions>
<speed>4.7</speed>
<temp>0.00</temp>
<bpm>0</bpm>
<rpm>0.00</rpm>
</extensions>
</trkpt>
<trkpt lat="63.712150574" lon="-19.829708099">
<ele>95.851563</ele>
<time>2012-07-26T18:05:24Z</time>
<speed>5.060000</speed>
<extensions>
<speed>5.1</speed>
<temp>0.00</temp>
<bpm>0</bpm>
<rpm>0.00</rpm>
</extensions>
</trkpt>
<trkpt lat="63.712184906" lon="-19.830184937">
<ele>92.621094</ele>
<time>2012-07-26T18:05:29Z</time>
<speed>4.420000</speed>
<extensions>
<speed>4.4</speed>
<temp>0.00</temp>
<bpm>0</bpm>
<rpm>0.00</rpm>
</extensions>
</trkpt>
<trkpt lat="63.712207794" lon="-19.830633163">
<ele>91.642578</ele>
<time>2012-07-26T18:05:34Z</time>
<speed>4.330000</speed>
<extensions>
<speed>4.3</speed>
<temp>0.00</temp>
<bpm>0</bpm>
<rpm>0.00</rpm>
</extensions>
</trkpt>
<trkpt lat="63.712230682" lon="-19.831094742">
<ele>88.853516</ele>
<time>2012-07-26T18:05:39Z</time>
<speed>4.210000</speed>
<extensions>
<speed>4.2</speed>
<temp>0.00</temp>
<bpm>0</bpm>
<rpm>0.00</rpm>
</extensions>
</trkpt>
<trkpt lat="63.712265015" lon="-19.831531525">
<ele>88.105469</ele>
<time>2012-07-26T18:05:44Z</time>
<speed>4.130000</speed>
<extensions>
<speed>4.1</speed>
<temp>0.00</temp>
<bpm>0</bpm>
<rpm>0.00</rpm>
</extensions>
</trkpt>
<trkpt lat="63.712299347" lon="-19.831991196">
<ele>86.755859</ele>
<time>2012-07-26T18:05:49Z</time>
<speed>4.530000</speed>
<extensions>
<speed>4.5</speed>
<temp>0.00</temp>
<bpm>0</bpm>
<rpm>0.00</rpm>
</extensions>
</trkpt>
<trkpt lat="63.712345123" lon="-19.832481384">
<ele>86.599609</ele>
<time>2012-07-26T18:05:54Z</time>
<speed>4.810000</speed>
<extensions>
<speed>4.8</speed>
<temp>0.00</temp>
<bpm>0</bpm>
<rpm>0.00</rpm>
</extensions>
</trkpt>
<trkpt lat="63.712383270" lon="-19.832981110">
<ele>86.277344</ele>
<time>2012-07-26T18:05:59Z</time>
<speed>4.970000</speed>
<extensions>
<speed>5.0</speed>
<temp>0.00</temp>
<bpm>0</bpm>
<rpm>0.00</rpm>
</extensions>
</trkpt>
<trkpt lat="63.712406158" lon="-19.833553314">
<ele>82.585938</ele>
<time>2012-07-26T18:06:04Z</time>
<speed>4.890000</speed>
<extensions>
<speed>4.9</speed>
<temp>0.00</temp>
<bpm>0</bpm>
<rpm>0.00</rpm>
</extensions>
</trkpt>
<trkpt lat="63.712448120" lon="-19.834026337">
<ele>83.130859</ele>
<time>2012-07-26T18:06:09Z</time>
<speed>4.700000</speed>
<extensions>
<speed>4.7</speed>
<temp>0.00</temp>
<bpm>0</bpm>
<rpm>0.00</rpm>
</extensions>
</trkpt>
<trkpt lat="63.712474823" lon="-19.834531784">
<ele>83.277344</ele>
<time>2012-07-26T18:06:14Z</time>
<speed>4.630000</speed>
<extensions>
<speed>4.6</speed>
<temp>0.00</temp>
<bpm>0</bpm>
<rpm>0.00</rpm>
</extensions>
</trkpt>
<trkpt lat="63.712509155" lon="-19.834985733">
<ele>82.800781</ele>
<time>2012-07-26T18:06:19Z</time>
<speed>4.320000</speed>
<extensions>
<speed>4.3</speed>
<temp>0.00</temp>
<bpm>0</bpm>
<rpm>0.00</rpm>
</extensions>
</trkpt>
<trkpt lat="63.712547302" lon="-19.835393906">
<ele>81.330078</ele>
<time>2012-07-26T18:06:24Z</time>
<speed>4.170000</speed>
<extensions>
<speed>4.2</speed>
<temp>0.00</temp>
<bpm>0</bpm>
<rpm>0.00</rpm>
</extensions>
</trkpt>
<trkpt lat="63.712593079" lon="-19.835783005">
<ele>80.310547</ele>
<time>2012-07-26T18:06:29Z</time>
<speed>4.270000</speed>
<extensions>
<speed>4.3</speed>
<temp>0.00</temp>
<bpm>0</bpm>
<rpm>0.00</rpm>
</extensions>
</trkpt>
<trkpt lat="63.712631226" lon="-19.836219788">
<ele>81.910156</ele>
<time>2012-07-26T18:06:34Z</time>
<speed>4.610000</speed>
<extensions>
<speed>4.6</speed>
<temp>0.00</temp>
<bpm>0</bpm>
<rpm>0.00</rpm>
</extensions>
</trkpt>
<trkpt lat="63.712684631" lon="-19.836673737">
<ele>87.189453</ele>
<time>2012-07-26T18:06:39Z</time>
<speed>5.070000</speed>
<extensions>
<speed>5.1</speed>
<temp>0.00</temp>
<bpm>0</bpm>
<rpm>0.00</rpm>
</extensions>
</trkpt>
<trkpt lat="63.712715149" lon="-19.837213516">
<ele>87.412109</ele>
<time>2012-07-26T18:06:44Z</time>
<speed>5.330000</speed>
<extensions>
<speed>5.3</speed>
<temp>0.00</temp>
<bpm>0</bpm>
<rpm>0.00</rpm>
</extensions>
</trkpt>
<trkpt lat="63.712753296" lon="-19.837749481">
<ele>87.566406</ele>
<time>2012-07-26T18:06:49Z</time>
<speed>5.790000</speed>
<extensions>
<speed>5.8</speed>
<temp>0.00</temp>
<bpm>0</bpm>
<rpm>0.00</rpm>
</extensions>
</trkpt>
<trkpt lat="63.712802887" lon="-19.838317871">
<ele>86.574219</ele>
<time>2012-07-26T18:06:54Z</time>
<speed>6.090000</speed>
<extensions>
<speed>6.1</speed>
<temp>0.00</temp>
<bpm>0</bpm>
<rpm>0.00</rpm>
</extensions>
</trkpt>
<trkpt lat="63.712833405" lon="-19.838943481">
<ele>85.564453</ele>
<time>2012-07-26T18:06:59Z</time>
<speed>6.000000</speed>
<extensions>
<speed>6.0</speed>
<temp>0.00</temp>
<bpm>0</bpm>
<rpm>0.00</rpm>
</extensions>
</trkpt>
<trkpt lat="63.712852478" lon="-19.839569092">
<ele>84.621094</ele>
<time>2012-07-26T18:07:04Z</time>
<speed>6.060000</speed>
<extensions>
<speed>6.1</speed>
<temp>0.00</temp>
<bpm>0</bpm>
<rpm>0.00</rpm>
</extensions>
</trkpt>
<trkpt lat="63.712875366" lon="-19.840179443">
<ele>82.957031</ele>
<time>2012-07-26T18:07:09Z</time>
<speed>6.230000</speed>
<extensions>
<speed>6.2</speed>
<temp>0.00</temp>
<bpm>0</bpm>
<rpm>0.00</rpm>
</extensions>
</trkpt>
<trkpt lat="63.712917328" lon="-19.840808868">
<ele>82.750000</ele>
<time>2012-07-26T18:07:14Z</time>
<speed>6.130000</speed>
<extensions>
<speed>6.1</speed>
<temp>0.00</temp>
<bpm>0</bpm>
<rpm>0.00</rpm>
</extensions>
</trkpt>
<trkpt lat="63.712932587" lon="-19.841451645">
<ele>79.966797</ele>
<time>2012-07-26T18:07:19Z</time>
<speed>6.280000</speed>
<extensions>
<speed>6.3</speed>
<temp>0.00</temp>
<bpm>0</bpm>
<rpm>0.00</rpm>
</extensions>
</trkpt>
<trkpt lat="63.712959290" lon="-19.842090607">
<ele>78.509766</ele>
<time>2012-07-26T18:07:24Z</time>
<speed>6.090000</speed>
<extensions>
<speed>6.1</speed>
<temp>0.00</temp>
<bpm>0</bpm>
<rpm>0.00</rpm>
</extensions>
</trkpt>
<trkpt lat="63.712993622" lon="-19.842714310">
<ele>79.570313</ele>
<time>2012-07-26T18:07:29Z</time>
<speed>5.990000</speed>
<extensions>
<speed>6.0</speed>
<temp>0.00</temp>
<bpm>0</bpm>
<rpm>0.00</rpm>
</extensions>
</trkpt>
<trkpt lat="63.713008881" lon="-19.843324661">
<ele>80.078125</ele>
<time>2012-07-26T18:07:34Z</time>
<speed>6.030000</speed>
<extensions>
<speed>6.0</speed>
<temp>0.00</temp>
<bpm>0</bpm>
<rpm>0.00</rpm>
</extensions>
</trkpt>
<trkpt lat="63.713039398" lon="-19.843906403">
<ele>84.009766</ele>
<time>2012-07-26T18:07:39Z</time>
<speed>5.700000</speed>
<extensions>
<speed>5.7</speed>
<temp>0.00</temp>
<bpm>0</bpm>
<rpm>0.00</rpm>
</extensions>
</trkpt>
<trkpt lat="63.713054657" lon="-19.844535828">
<ele>83.525391</ele>
<time>2012-07-26T18:07:44Z</time>
<speed>5.810000</speed>
<extensions>
<speed>5.8</speed>
<temp>0.00</temp>
<bpm>0</bpm>
<rpm>0.00</rpm>
</extensions>
</trkpt>
<trkpt lat="63.713077545" lon="-19.845108032">
<ele>83.541016</ele>
<time>2012-07-26T18:07:49Z</time>
<speed>5.830000</speed>
<extensions>
<speed>5.8</speed>
<temp>0.00</temp>
<bpm>0</bpm>
<rpm>0.00</rpm>
</extensions>
</trkpt>
<trkpt lat="63.713108063" lon="-19.845663071">
<ele>87.027344</ele>
<time>2012-07-26T18:07:54Z</time>
<speed>5.950000</speed>
<extensions>
<speed>6.0</speed>
<temp>0.00</temp>
<bpm>0</bpm>
<rpm>0.00</rpm>
</extensions>
</trkpt>
<trkpt lat="63.713142395" lon="-19.846260071">
<ele>87.648438</ele>
<time>2012-07-26T18:07:59Z</time>
<speed>6.000000</speed>
<extensions>
<speed>6.0</speed>
<temp>0.00</temp>
<bpm>0</bpm>
<rpm>0.00</rpm>
</extensions>
</trkpt>
<trkpt lat="63.713172913" lon="-19.846855164">
<ele>88.410156</ele>
<time>2012-07-26T18:08:04Z</time>
<speed>5.760000</speed>
<extensions>
<speed>5.8</speed>
<temp>0.00</temp>
<bpm>0</bpm>
<rpm>0.00</rpm>
</extensions>
</trkpt>
<trkpt lat="63.713203430" lon="-19.847463608">
<ele>89.158203</ele>
<time>2012-07-26T18:08:09Z</time>
<speed>5.960000</speed>
<extensions>
<speed>6.0</speed>
<temp>0.00</temp>
<bpm>0</bpm>
<rpm>0.00</rpm>
</extensions>
</trkpt>
<trkpt lat="63.713222504" lon="-19.848091125">
<ele>87.812500</ele>
<time>2012-07-26T18:08:14Z</time>
<speed>5.980000</speed>
<extensions>
<speed>6.0</speed>
<temp>0.00</temp>
<bpm>0</bpm>
<rpm>0.00</rpm>
</extensions>
</trkpt>
<trkpt lat="63.713260651" lon="-19.848667145">
<ele>85.242188</ele>
<time>2012-07-26T18:08:19Z</time>
<speed>6.030000</speed>
<extensions>
<speed>6.0</speed>
<temp>0.00</temp>
<bpm>0</bpm>
<rpm>0.00</rpm>
</extensions>
</trkpt>
<trkpt lat="63.713317871" lon="-19.849245071">
<ele>86.484375</ele>
<time>2012-07-26T18:08:24Z</time>
<speed>5.520000</speed>
<extensions>
<speed>5.5</speed>
<temp>0.00</temp>
<bpm>0</bpm>
<rpm>0.00</rpm>
</extensions>
</trkpt>
<trkpt lat="63.713363647" lon="-19.849779129">
<ele>87.679688</ele>
<time>2012-07-26T18:08:29Z</time>
<speed>5.020000</speed>
<extensions>
<speed>5.0</speed>
<temp>0.00</temp>
<bpm>0</bpm>
<rpm>0.00</rpm>
</extensions>
</trkpt>
<trkpt lat="63.713386536" lon="-19.850303650">
<ele>84.837891</ele>
<time>2012-07-26T18:08:34Z</time>
<speed>5.340000</speed>
<extensions>
<speed>5.3</speed>
<temp>0.00</temp>
<bpm>0</bpm>
<rpm>0.00</rpm>
</extensions>
</trkpt>
<trkpt lat="63.713417053" lon="-19.850881577">
<ele>82.792969</ele>
<time>2012-07-26T18:08:39Z</time>
<speed>5.570000</speed>
<extensions>
<speed>5.6</speed>
<temp>0.00</temp>
<bpm>0</bpm>
<rpm>0.00</rpm>
</extensions>
</trkpt>
<trkpt lat="63.713451385" lon="-19.851459503">
<ele>83.662109</ele>
<time>2012-07-26T18:08:44Z</time>
<speed>5.900000</speed>
<extensions>
<speed>5.9</speed>
<temp>0.00</temp>
<bpm>0</bpm>
<rpm>0.00</rpm>
</extensions>
</trkpt>
<trkpt lat="63.713485718" lon="-19.852052689">
<ele>85.082031</ele>
<time>2012-07-26T18:08:49Z</time>
<speed>6.110000</speed>
<extensions>
<speed>6.1</speed>
<temp>0.00</temp>
<bpm>0</bpm>
<rpm>0.00</rpm>
</extensions>
</trkpt>
<trkpt lat="63.713539124" lon="-19.852651596">
<ele>87.710938</ele>
<time>2012-07-26T18:08:54Z</time>
<speed>5.940000</speed>
<extensions>
<speed>5.9</speed>
<temp>0.00</temp>
<bpm>0</bpm>
<rpm>0.00</rpm>
</extensions>
</trkpt>
<trkpt lat="63.713603973" lon="-19.853212357">
<ele>87.630859</ele>
<time>2012-07-26T18:08:59Z</time>
<speed>5.870000</speed>
<extensions>
<speed>5.9</speed>
<temp>0.00</temp>
<bpm>0</bpm>
<rpm>0.00</rpm>
</extensions>
</trkpt>
<trkpt lat="63.713645935" lon="-19.853790283">
<ele>86.085938</ele>
<time>2012-07-26T18:09:04Z</time>
<speed>5.810000</speed>
<extensions>
<speed>5.8</speed>
<temp>0.00</temp>
<bpm>0</bpm>
<rpm>0.00</rpm>
</extensions>
</trkpt>
<trkpt lat="63.713699341" lon="-19.854402542">
<ele>90.298828</ele>
<time>2012-07-26T18:09:09Z</time>
<speed>6.250000</speed>
<extensions>
<speed>6.3</speed>
<temp>0.00</temp>
<bpm>0</bpm>
<rpm>0.00</rpm>
</extensions>
</trkpt>
<trkpt lat="63.713752747" lon="-19.855024338">
<ele>90.457031</ele>
<time>2012-07-26T18:09:14Z</time>
<speed>6.430000</speed>
<extensions>
<speed>6.4</speed>
<temp>0.00</temp>
<bpm>0</bpm>
<rpm>0.00</rpm>
</extensions>
</trkpt>
<trkpt lat="63.713802338" lon="-19.855667114">
<ele>88.171875</ele>
<time>2012-07-26T18:09:19Z</time>
<speed>6.400000</speed>
<extensions>
<speed>6.4</speed>
<temp>0.00</temp>
<bpm>0</bpm>
<rpm>0.00</rpm>
</extensions>
</trkpt>
<trkpt lat="63.713851929" lon="-19.856288910">
<ele>85.781250</ele>
<time>2012-07-26T18:09:24Z</time>
<speed>6.470000</speed>
<extensions>
<speed>6.5</speed>
<temp>0.00</temp>
<bpm>0</bpm>
<rpm>0.00</rpm>
</extensions>
</trkpt>
<trkpt lat="63.713909149" lon="-19.856937408">
<ele>88.042969</ele>
<time>2012-07-26T18:09:29Z</time>
<speed>6.620000</speed>
<extensions>
<speed>6.6</speed>
<temp>0.00</temp>
<bpm>0</bpm>
<rpm>0.00</rpm>
</extensions>
</trkpt>
<trkpt lat="63.713962555" lon="-19.857603073">
<ele>89.240234</ele>
<time>2012-07-26T18:09:34Z</time>
<speed>6.640000</speed>
<extensions>
<speed>6.6</speed>
<temp>0.00</temp>
<bpm>0</bpm>
<rpm>0.00</rpm>
</extensions>
</trkpt>
<trkpt lat="63.714023590" lon="-19.858255386">
<ele>89.818359</ele>
<time>2012-07-26T18:09:39Z</time>
<speed>6.590000</speed>
<extensions>
<speed>6.6</speed>
<temp>0.00</temp>
<bpm>0</bpm>
<rpm>0.00</rpm>
</extensions>
</trkpt>
<trkpt lat="63.714088440" lon="-19.858907700">
<ele>89.656250</ele>
<time>2012-07-26T18:09:44Z</time>
<speed>6.530000</speed>
<extensions>
<speed>6.5</speed>
<temp>0.00</temp>
<bpm>0</bpm>
<rpm>0.00</rpm>
</extensions>
</trkpt>
<trkpt lat="63.714149475" lon="-19.859550476">
<ele>92.441406</ele>
<time>2012-07-26T18:09:49Z</time>
<speed>6.680000</speed>
<extensions>
<speed>6.7</speed>
<temp>0.00</temp>
<bpm>0</bpm>
<rpm>0.00</rpm>
</extensions>
</trkpt>
<trkpt lat="63.714206696" lon="-19.860210419">
<ele>91.968750</ele>
<time>2012-07-26T18:09:54Z</time>
<speed>6.620000</speed>
<extensions>
<speed>6.6</speed>
<temp>0.00</temp>
<bpm>0</bpm>
<rpm>0.00</rpm>
</extensions>
</trkpt>
<trkpt lat="63.714260101" lon="-19.860912323">
<ele>92.099609</ele>
<time>2012-07-26T18:09:59Z</time>
<speed>6.700000</speed>
<extensions>
<speed>6.7</speed>
<temp>0.00</temp>
<bpm>0</bpm>
<rpm>0.00</rpm>
</extensions>
</trkpt>
<trkpt lat="63.714294434" lon="-19.861637115">
<ele>88.607422</ele>
<time>2012-07-26T18:10:04Z</time>
<speed>6.870000</speed>
<extensions>
<speed>6.9</speed>
<temp>0.00</temp>
<bpm>0</bpm>
<rpm>0.00</rpm>
</extensions>
</trkpt>
<trkpt lat="63.714332581" lon="-19.862339020">
<ele>84.994141</ele>
<time>2012-07-26T18:10:09Z</time>
<speed>6.830000</speed>
<extensions>
<speed>6.8</speed>
<temp>0.00</temp>
<bpm>0</bpm>
<rpm>0.00</rpm>
</extensions>
</trkpt>
<trkpt lat="63.714382172" lon="-19.863044739">
<ele>80.669922</ele>
<time>2012-07-26T18:10:14Z</time>
<speed>6.970000</speed>
<extensions>
<speed>7.0</speed>
<temp>0.00</temp>
<bpm>0</bpm>
<rpm>0.00</rpm>
</extensions>
</trkpt>
<trkpt lat="63.714447021" lon="-19.863700867">
<ele>80.373047</ele>
<time>2012-07-26T18:10:19Z</time>
<speed>6.140000</speed>
<extensions>
<speed>6.1</speed>
<temp>0.00</temp>
<bpm>0</bpm>
<rpm>0.00</rpm>
</extensions>
</trkpt>
<trkpt lat="63.714496613" lon="-19.864286423">
<ele>79.958984</ele>
<time>2012-07-26T18:10:24Z</time>
<speed>6.000000</speed>
<extensions>
<speed>6.0</speed>
<temp>0.00</temp>
<bpm>0</bpm>
<rpm>0.00</rpm>
</extensions>
</trkpt>
<trkpt lat="63.714550018" lon="-19.864900589">
<ele>80.091797</ele>
<time>2012-07-26T18:10:29Z</time>
<speed>6.080000</speed>
<extensions>
<speed>6.1</speed>
<temp>0.00</temp>
<bpm>0</bpm>
<rpm>0.00</rpm>
</extensions>
</trkpt>
<trkpt lat="63.714603424" lon="-19.865493774">
<ele>79.964844</ele>
<time>2012-07-26T18:10:34Z</time>
<speed>5.940000</speed>
<extensions>
<speed>5.9</speed>
<temp>0.00</temp>
<bpm>0</bpm>
<rpm>0.00</rpm>
</extensions>
</trkpt>
<trkpt lat="63.714656830" lon="-19.866102219">
<ele>78.955078</ele>
<time>2012-07-26T18:10:39Z</time>
<speed>6.330000</speed>
<extensions>
<speed>6.3</speed>
<temp>0.00</temp>
<bpm>0</bpm>
<rpm>0.00</rpm>
</extensions>
</trkpt>
<trkpt lat="63.714714050" lon="-19.866735458">
<ele>80.291016</ele>
<time>2012-07-26T18:10:44Z</time>
<speed>6.020000</speed>
<extensions>
<speed>6.0</speed>
<temp>0.00</temp>
<bpm>0</bpm>
<rpm>0.00</rpm>
</extensions>
</trkpt>
<trkpt lat="63.714763641" lon="-19.867351532">
<ele>79.218750</ele>
<time>2012-07-26T18:10:49Z</time>
<speed>6.430000</speed>
<extensions>
<speed>6.4</speed>
<temp>0.00</temp>
<bpm>0</bpm>
<rpm>0.00</rpm>
</extensions>
</trkpt>
<trkpt lat="63.714824677" lon="-19.867984772">
<ele>81.011719</ele>
<time>2012-07-26T18:10:54Z</time>
<speed>6.250000</speed>
<extensions>
<speed>6.3</speed>
<temp>0.00</temp>
<bpm>0</bpm>
<rpm>0.00</rpm>
</extensions>
</trkpt>
<trkpt lat="63.714881897" lon="-19.868623734">
<ele>82.914063</ele>
<time>2012-07-26T18:10:59Z</time>
<speed>6.390000</speed>
<extensions>
<speed>6.4</speed>
<temp>0.00</temp>
<bpm>0</bpm>
<rpm>0.00</rpm>
</extensions>
</trkpt>
<trkpt lat="63.714935303" lon="-19.869266510">
<ele>82.746094</ele>
<time>2012-07-26T18:11:04Z</time>
<speed>6.220000</speed>
<extensions>
<speed>6.2</speed>
<temp>0.00</temp>
<bpm>0</bpm>
<rpm>0.00</rpm>
</extensions>
</trkpt>
<trkpt lat="63.714996338" lon="-19.869894028">
<ele>83.312500</ele>
<time>2012-07-26T18:11:09Z</time>
<speed>6.420000</speed>
<extensions>
<speed>6.4</speed>
<temp>0.00</temp>
<bpm>0</bpm>
<rpm>0.00</rpm>
</extensions>
</trkpt>
<trkpt lat="63.715053558" lon="-19.870521545">
<ele>84.962891</ele>
<time>2012-07-26T18:11:14Z</time>
<speed>6.140000</speed>
<extensions>
<speed>6.1</speed>
<temp>0.00</temp>
<bpm>0</bpm>
<rpm>0.00</rpm>
</extensions>
</trkpt>
<trkpt lat="63.715122223" lon="-19.871170044">
<ele>84.371094</ele>
<time>2012-07-26T18:11:19Z</time>
<speed>6.420000</speed>
<extensions>
<speed>6.4</speed>
<temp>0.00</temp>
<bpm>0</bpm>
<rpm>0.00</rpm>
</extensions>
</trkpt>
<trkpt lat="63.715190887" lon="-19.871803284">
<ele>85.160156</ele>
<time>2012-07-26T18:11:24Z</time>
<speed>6.600000</speed>
<extensions>
<speed>6.6</speed>
<temp>0.00</temp>
<bpm>0</bpm>
<rpm>0.00</rpm>
</extensions>
</trkpt>
<trkpt lat="63.715251923" lon="-19.872451782">
<ele>88.041016</ele>
<time>2012-07-26T18:11:29Z</time>
<speed>6.730000</speed>
<extensions>
<speed>6.7</speed>
<temp>0.00</temp>
<bpm>0</bpm>
<rpm>0.00</rpm>
</extensions>
</trkpt>
<trkpt lat="63.715309143" lon="-19.873138428">
<ele>86.513672</ele>
<time>2012-07-26T18:11:34Z</time>
<speed>6.770000</speed>
<extensions>
<speed>6.8</speed>
<temp>0.00</temp>
<bpm>0</bpm>
<rpm>0.00</rpm>
</extensions>
</trkpt>
<trkpt lat="63.715354919" lon="-19.873838425">
<ele>84.597656</ele>
<time>2012-07-26T18:11:39Z</time>
<speed>6.730000</speed>
<extensions>
<speed>6.7</speed>
<temp>0.00</temp>
<bpm>0</bpm>
<rpm>0.00</rpm>
</extensions>
</trkpt>
<trkpt lat="63.715412140" lon="-19.874505997">
<ele>82.869141</ele>
<time>2012-07-26T18:11:44Z</time>
<speed>6.560000</speed>
<extensions>
<speed>6.6</speed>
<temp>0.00</temp>
<bpm>0</bpm>
<rpm>0.00</rpm>
</extensions>
</trkpt>
<trkpt lat="63.715465546" lon="-19.875146866">
<ele>80.703125</ele>
<time>2012-07-26T18:11:49Z</time>
<speed>6.580000</speed>
<extensions>
<speed>6.6</speed>
<temp>0.00</temp>
<bpm>0</bpm>
<rpm>0.00</rpm>
</extensions>
</trkpt>
<trkpt lat="63.715507507" lon="-19.875822067">
<ele>79.867188</ele>
<time>2012-07-26T18:11:54Z</time>
<speed>6.650000</speed>
<extensions>
<speed>6.7</speed>
<temp>0.00</temp>
<bpm>0</bpm>
<rpm>0.00</rpm>
</extensions>
</trkpt>
<trkpt lat="63.715557098" lon="-19.876462936">
<ele>79.060547</ele>
<time>2012-07-26T18:11:59Z</time>
<speed>6.590000</speed>
<extensions>
<speed>6.6</speed>
<temp>0.00</temp>
<bpm>0</bpm>
<rpm>0.00</rpm>
</extensions>
</trkpt>
<trkpt lat="63.715610504" lon="-19.877069473">
<ele>79.207031</ele>
<time>2012-07-26T18:12:04Z</time>
<speed>5.640000</speed>
<extensions>
<speed>5.6</speed>
<temp>0.00</temp>
<bpm>0</bpm>
<rpm>0.00</rpm>
</extensions>
</trkpt>
<trkpt lat="63.715660095" lon="-19.877614975">
<ele>78.708984</ele>
<time>2012-07-26T18:12:09Z</time>
<speed>5.320000</speed>
<extensions>
<speed>5.3</speed>
<temp>0.00</temp>
<bpm>0</bpm>
<rpm>0.00</rpm>
</extensions>
</trkpt>
<trkpt lat="63.715717316" lon="-19.878131866">
<ele>80.419922</ele>
<time>2012-07-26T18:12:14Z</time>
<speed>4.940000</speed>
<extensions>
<speed>4.9</speed>
<temp>0.00</temp>
<bpm>0</bpm>
<rpm>0.00</rpm>
</extensions>
</trkpt>
<trkpt lat="63.715759277" lon="-19.878429413">
<ele>79.214844</ele>
<time>2012-07-26T18:12:19Z</time>
<speed>0.130000</speed>
<extensions>
<speed>0.1</speed>
<temp>0.00</temp>
<bpm>0</bpm>
<rpm>0.00</rpm>
</extensions>
</trkpt>
<trkpt lat="63.715763092" lon="-19.878479004">
<ele>78.179688</ele>
<time>2012-07-26T18:12:24Z</time>
<speed>2.160000</speed>
<extensions>
<speed>2.2</speed>
<temp>0.00</temp>
<bpm>0</bpm>
<rpm>0.00</rpm>
</extensions>
</trkpt>
<trkpt lat="63.715782166" lon="-19.878805161">
<ele>77.816406</ele>
<time>2012-07-26T18:12:29Z</time>
<speed>4.360000</speed>
<extensions>
<speed>4.4</speed>
<temp>0.00</temp>
<bpm>0</bpm>
<rpm>0.00</rpm>
</extensions>
</trkpt>
<trkpt lat="63.715820313" lon="-19.879272461">
<ele>77.943359</ele>
<time>2012-07-26T18:12:34Z</time>
<speed>5.090000</speed>
<extensions>
<speed>5.1</speed>
<temp>0.00</temp>
<bpm>0</bpm>
<rpm>0.00</rpm>
</extensions>
</trkpt>
<trkpt lat="63.715854645" lon="-19.879821777">
<ele>78.511719</ele>
<time>2012-07-26T18:12:39Z</time>
<speed>5.280000</speed>
<extensions>
<speed>5.3</speed>
<temp>0.00</temp>
<bpm>0</bpm>
<rpm>0.00</rpm>
</extensions>
</trkpt>
<trkpt lat="63.715888977" lon="-19.880382538">
<ele>80.427734</ele>
<time>2012-07-26T18:12:44Z</time>
<speed>5.200000</speed>
<extensions>
<speed>5.2</speed>
<temp>0.00</temp>
<bpm>0</bpm>
<rpm>0.00</rpm>
</extensions>
</trkpt>
<trkpt lat="63.715927124" lon="-19.880929947">
<ele>80.179688</ele>
<time>2012-07-26T18:12:49Z</time>
<speed>5.280000</speed>
<extensions>
<speed>5.3</speed>
<temp>0.00</temp>
<bpm>0</bpm>
<rpm>0.00</rpm>
</extensions>
</trkpt>
<trkpt lat="63.715923309" lon="-19.881414413">
<ele>77.896484</ele>
<time>2012-07-26T18:12:54Z</time>
<speed>4.290000</speed>
<extensions>
<speed>4.3</speed>
<temp>0.00</temp>
<bpm>0</bpm>
<rpm>0.00</rpm>
</extensions>
</trkpt>
<trkpt lat="63.715972900" lon="-19.881738663">
<ele>80.058594</ele>
<time>2012-07-26T18:12:59Z</time>
<speed>3.110000</speed>
<extensions>
<speed>3.1</speed>
<temp>0.00</temp>
<bpm>0</bpm>
<rpm>0.00</rpm>
</extensions>
</trkpt>
<trkpt lat="63.716007233" lon="-19.882072449">
<ele>80.794922</ele>
<time>2012-07-26T18:13:04Z</time>
<speed>4.230000</speed>
<extensions>
<speed>4.2</speed>
<temp>0.00</temp>
<bpm>0</bpm>
<rpm>0.00</rpm>
</extensions>
</trkpt>
<trkpt lat="63.716045380" lon="-19.882553101">
<ele>80.419922</ele>
<time>2012-07-26T18:13:09Z</time>
<speed>4.530000</speed>
<extensions>
<speed>4.5</speed>
<temp>0.00</temp>
<bpm>0</bpm>
<rpm>0.00</rpm>
</extensions>
</trkpt>
<trkpt lat="63.716079712" lon="-19.882991791">
<ele>79.998047</ele>
<time>2012-07-26T18:13:14Z</time>
<speed>4.250000</speed>
<extensions>
<speed>4.3</speed>
<temp>0.00</temp>
<bpm>0</bpm>
<rpm>0.00</rpm>
</extensions>
</trkpt>
<trkpt lat="63.716102600" lon="-19.883420944">
<ele>76.458984</ele>
<time>2012-07-26T18:13:19Z</time>
<speed>4.320000</speed>
<extensions>
<speed>4.3</speed>
<temp>0.00</temp>
<bpm>0</bpm>
<rpm>0.00</rpm>
</extensions>
</trkpt>
<trkpt lat="63.716136932" lon="-19.883855820">
<ele>76.912109</ele>
<time>2012-07-26T18:13:24Z</time>
<speed>4.700000</speed>
<extensions>
<speed>4.7</speed>
<temp>0.00</temp>
<bpm>0</bpm>
<rpm>0.00</rpm>
</extensions>
</trkpt>
<trkpt lat="63.716178894" lon="-19.884317398">
<ele>79.644531</ele>
<time>2012-07-26T18:13:29Z</time>
<speed>4.910000</speed>
<extensions>
<speed>4.9</speed>
<temp>0.00</temp>
<bpm>0</bpm>
<rpm>0.00</rpm>
</extensions>
</trkpt>
<trkpt lat="63.716220856" lon="-19.884832382">
<ele>79.087891</ele>
<time>2012-07-26T18:13:34Z</time>
<speed>5.250000</speed>
<extensions>
<speed>5.2</speed>
<temp>0.00</temp>
<bpm>0</bpm>
<rpm>0.00</rpm>
</extensions>
</trkpt>
<trkpt lat="63.716255188" lon="-19.885368347">
<ele>79.460938</ele>
<time>2012-07-26T18:13:39Z</time>
<speed>5.430000</speed>
<extensions>
<speed>5.4</speed>
<temp>0.00</temp>
<bpm>0</bpm>
<rpm>0.00</rpm>
</extensions>
</trkpt>
<trkpt lat="63.716308594" lon="-19.885887146">
<ele>80.066406</ele>
<time>2012-07-26T18:13:44Z</time>
<speed>4.830000</speed>
<extensions>
<speed>4.8</speed>
<temp>0.00</temp>
<bpm>0</bpm>
<rpm>0.00</rpm>
</extensions>
</trkpt>
<trkpt lat="63.716335297" lon="-19.886402130">
<ele>78.433594</ele>
<time>2012-07-26T18:13:49Z</time>
<speed>5.030000</speed>
<extensions>
<speed>5.0</speed>
<temp>0.00</temp>
<bpm>0</bpm>
<rpm>0.00</rpm>
</extensions>
</trkpt>
<trkpt lat="63.716365814" lon="-19.886892319">
<ele>77.925781</ele>
<time>2012-07-26T18:13:54Z</time>
<speed>4.720000</speed>
<extensions>
<speed>4.7</speed>
<temp>0.00</temp>
<bpm>0</bpm>
<rpm>0.00</rpm>
</extensions>
</trkpt>
<trkpt lat="63.716400146" lon="-19.887338638">
<ele>78.916016</ele>
<time>2012-07-26T18:13:59Z</time>
<speed>4.230000</speed>
<extensions>
<speed>4.2</speed>
<temp>0.00</temp>
<bpm>0</bpm>
<rpm>0.00</rpm>
</extensions>
</trkpt>
<trkpt lat="63.716442108" lon="-19.887729645">
<ele>77.859375</ele>
<time>2012-07-26T18:14:04Z</time>
<speed>3.600000</speed>
<extensions>
<speed>3.6</speed>
<temp>0.00</temp>
<bpm>0</bpm>
<rpm>0.00</rpm>
</extensions>
</trkpt>
<trkpt lat="63.716461182" lon="-19.888107300">
<ele>77.474609</ele>
<time>2012-07-26T18:14:09Z</time>
<speed>3.850000</speed>
<extensions>
<speed>3.8</speed>
<temp>0.00</temp>
<bpm>0</bpm>
<rpm>0.00</rpm>
</extensions>
</trkpt>
<trkpt lat="63.716484070" lon="-19.888498306">
<ele>77.044922</ele>
<time>2012-07-26T18:14:14Z</time>
<speed>3.470000</speed>
<extensions>
<speed>3.5</speed>
<temp>0.00</temp>
<bpm>0</bpm>
<rpm>0.00</rpm>
</extensions>
</trkpt>
<trkpt lat="63.716484070" lon="-19.888824463">
<ele>77.007813</ele>
<time>2012-07-26T18:14:19Z</time>
<speed>3.030000</speed>
<extensions>
<speed>3.0</speed>
<temp>0.00</temp>
<bpm>0</bpm>
<rpm>0.00</rpm>
</extensions>
</trkpt>
<trkpt lat="63.716518402" lon="-19.889162064">
<ele>77.136719</ele>
<time>2012-07-26T18:14:24Z</time>
<speed>3.600000</speed>
<extensions>
<speed>3.6</speed>
<temp>0.00</temp>
<bpm>0</bpm>
<rpm>0.00</rpm>
</extensions>
</trkpt>
<trkpt lat="63.716548920" lon="-19.889533997">
<ele>76.183594</ele>
<time>2012-07-26T18:14:29Z</time>
<speed>4.180000</speed>
<extensions>
<speed>4.2</speed>
<temp>0.00</temp>
<bpm>0</bpm>
<rpm>0.00</rpm>
</extensions>
</trkpt>
<trkpt lat="63.716594696" lon="-19.889991760">
<ele>75.167969</ele>
<time>2012-07-26T18:14:34Z</time>
<speed>4.430000</speed>
<extensions>
<speed>4.4</speed>
<temp>0.00</temp>
<bpm>0</bpm>
<rpm>0.00</rpm>
</extensions>
</trkpt>
<trkpt lat="63.716609955" lon="-19.890415192">
<ele>76.833984</ele>
<time>2012-07-26T18:14:39Z</time>
<speed>3.560000</speed>
<extensions>
<speed>3.6</speed>
<temp>0.00</temp>
<bpm>0</bpm>
<rpm>0.00</rpm>
</extensions>
</trkpt>
<trkpt lat="63.716629028" lon="-19.890731812">
<ele>79.699219</ele>
<time>2012-07-26T18:14:44Z</time>
<speed>2.860000</speed>
<extensions>
<speed>2.9</speed>
<temp>0.00</temp>
<bpm>0</bpm>
<rpm>0.00</rpm>
</extensions>
</trkpt>
<trkpt lat="63.716644287" lon="-19.890983582">
<ele>78.720703</ele>
<time>2012-07-26T18:14:49Z</time>
<speed>2.210000</speed>
<extensions>
<speed>2.2</speed>
<temp>0.00</temp>
<bpm>0</bpm>
<rpm>0.00</rpm>
</extensions>
</trkpt>
<trkpt lat="63.716670990" lon="-19.891269684">
<ele>79.560547</ele>
<time>2012-07-26T18:14:54Z</time>
<speed>3.170000</speed>
<extensions>
<speed>3.2</speed>
<temp>0.00</temp>
<bpm>0</bpm>
<rpm>0.00</rpm>
</extensions>
</trkpt>
<trkpt lat="63.716697693" lon="-19.891620636">
<ele>79.480469</ele>
<time>2012-07-26T18:14:59Z</time>
<speed>3.620000</speed>
<extensions>
<speed>3.6</speed>
<temp>0.00</temp>
<bpm>0</bpm>
<rpm>0.00</rpm>
</extensions>
</trkpt>
<trkpt lat="63.716716766" lon="-19.891969681">
<ele>80.095703</ele>
<time>2012-07-26T18:15:04Z</time>
<speed>3.200000</speed>
<extensions>
<speed>3.2</speed>
<temp>0.00</temp>
<bpm>0</bpm>
<rpm>0.00</rpm>
</extensions>
</trkpt>
<trkpt lat="63.716735840" lon="-19.892267227">
<ele>81.470703</ele>
<time>2012-07-26T18:15:09Z</time>
<speed>3.580000</speed>
<extensions>
<speed>3.6</speed>
<temp>0.00</temp>
<bpm>0</bpm>
<rpm>0.00</rpm>
</extensions>
</trkpt>
<trkpt lat="63.716781616" lon="-19.892631531">
<ele>82.007813</ele>
<time>2012-07-26T18:15:14Z</time>
<speed>3.440000</speed>
<extensions>
<speed>3.4</speed>
<temp>0.00</temp>
<bpm>0</bpm>
<rpm>0.00</rpm>
</extensions>
</trkpt>
<trkpt lat="63.716812134" lon="-19.892963409">
<ele>79.976563</ele>
<time>2012-07-26T18:15:19Z</time>
<speed>3.240000</speed>
<extensions>
<speed>3.2</speed>
<temp>0.00</temp>
<bpm>0</bpm>
<rpm>0.00</rpm>
</extensions>
</trkpt>
<trkpt lat="63.716835022" lon="-19.893268585">
<ele>78.056641</ele>
<time>2012-07-26T18:15:24Z</time>
<speed>2.740000</speed>
<extensions>
<speed>2.7</speed>
<temp>0.00</temp>
<bpm>0</bpm>
<rpm>0.00</rpm>
</extensions>
</trkpt>
<trkpt lat="63.716835022" lon="-19.893571854">
<ele>80.087891</ele>
<time>2012-07-26T18:15:29Z</time>
<speed>3.120000</speed>
<extensions>
<speed>3.1</speed>
<temp>0.00</temp>
<bpm>0</bpm>
<rpm>0.00</rpm>
</extensions>
</trkpt>
<trkpt lat="63.716869354" lon="-19.893918991">
<ele>80.802734</ele>
<time>2012-07-26T18:15:34Z</time>
<speed>3.590000</speed>
<extensions>
<speed>3.6</speed>
<temp>0.00</temp>
<bpm>0</bpm>
<rpm>0.00</rpm>
</extensions>
</trkpt>
<trkpt lat="63.716899872" lon="-19.894296646">
<ele>81.671875</ele>
<time>2012-07-26T18:15:39Z</time>
<speed>3.910000</speed>
<extensions>
<speed>3.9</speed>
<temp>0.00</temp>
<bpm>0</bpm>
<rpm>0.00</rpm>
</extensions>
</trkpt>
<trkpt lat="63.716930389" lon="-19.894674301">
<ele>81.466797</ele>
<time>2012-07-26T18:15:44Z</time>
<speed>4.010000</speed>
<extensions>
<speed>4.0</speed>
<temp>0.00</temp>
<bpm>0</bpm>
<rpm>0.00</rpm>
</extensions>
</trkpt>
<trkpt lat="63.716964722" lon="-19.895011902">
<ele>82.136719</ele>
<time>2012-07-26T18:15:49Z</time>
<speed>3.020000</speed>
<extensions>
<speed>3.0</speed>
<temp>0.00</temp>
<bpm>0</bpm>
<rpm>0.00</rpm>
</extensions>
</trkpt>
<trkpt lat="63.717105865" lon="-19.895027161">
<ele>80.642578</ele>
<time>2012-07-26T18:15:54Z</time>
<speed>3.800000</speed>
<extensions>
<speed>3.8</speed>
<temp>0.00</temp>
<bpm>0</bpm>
<rpm>0.00</rpm>
</extensions>
</trkpt>
<trkpt lat="63.717277527" lon="-19.894874573">
<ele>80.000000</ele>
<time>2012-07-26T18:15:59Z</time>
<speed>3.440000</speed>
<extensions>
<speed>3.4</speed>
<temp>0.00</temp>
<bpm>0</bpm>
<rpm>0.00</rpm>
</extensions>
</trkpt>
<trkpt lat="63.717414856" lon="-19.894704819">
<ele>80.210938</ele>
<time>2012-07-26T18:16:04Z</time>
<speed>3.350000</speed>
<extensions>
<speed>3.4</speed>
<temp>0.00</temp>
<bpm>0</bpm>
<rpm>0.00</rpm>
</extensions>
</trkpt>
<trkpt lat="63.717544556" lon="-19.894567490">
<ele>79.378906</ele>
<time>2012-07-26T18:16:09Z</time>
<speed>3.150000</speed>
<extensions>
<speed>3.2</speed>
<temp>0.00</temp>
<bpm>0</bpm>
<rpm>0.00</rpm>
</extensions>
</trkpt>
<trkpt lat="63.717647552" lon="-19.894460678">
<ele>78.679688</ele>
<time>2012-07-26T18:16:14Z</time>
<speed>2.180000</speed>
<extensions>
<speed>2.2</speed>
<temp>0.00</temp>
<bpm>0</bpm>
<rpm>0.00</rpm>
</extensions>
</trkpt>
<trkpt lat="63.717742920" lon="-19.894376755">
<ele>78.404297</ele>
<time>2012-07-26T18:16:19Z</time>
<speed>2.350000</speed>
<extensions>
<speed>2.4</speed>
<temp>0.00</temp>
<bpm>0</bpm>
<rpm>0.00</rpm>
</extensions>
</trkpt>
<trkpt lat="63.717834473" lon="-19.894285202">
<ele>78.554688</ele>
<time>2012-07-26T18:16:24Z</time>
<speed>1.400000</speed>
<extensions>
<speed>1.4</speed>
<temp>0.00</temp>
<bpm>0</bpm>
<rpm>0.00</rpm>
</extensions>
</trkpt>
<trkpt lat="63.717910767" lon="-19.894172668">
<ele>78.882813</ele>
<time>2012-07-26T18:16:29Z</time>
<speed>2.330000</speed>
<extensions>
<speed>2.3</speed>
<temp>0.00</temp>
<bpm>0</bpm>
<rpm>0.00</rpm>
</extensions>
</trkpt>
<trkpt lat="63.717987061" lon="-19.894083023">
<ele>78.611328</ele>
<time>2012-07-26T18:16:34Z</time>
<speed>2.220000</speed>
<extensions>
<speed>2.2</speed>
<temp>0.00</temp>
<bpm>0</bpm>
<rpm>0.00</rpm>
</extensions>
</trkpt>
<trkpt lat="63.718063354" lon="-19.893976212">
<ele>78.810547</ele>
<time>2012-07-26T18:16:39Z</time>
<speed>1.850000</speed>
<extensions>
<speed>1.8</speed>
<temp>0.00</temp>
<bpm>0</bpm>
<rpm>0.00</rpm>
</extensions>
</trkpt>
<trkpt lat="63.718135834" lon="-19.893911362">
<ele>78.486328</ele>
<time>2012-07-26T18:16:44Z</time>
<speed>1.570000</speed>
<extensions>
<speed>1.6</speed>
<temp>0.00</temp>
<bpm>0</bpm>
<rpm>0.00</rpm>
</extensions>
</trkpt>
<trkpt lat="63.718223572" lon="-19.893819809">
<ele>78.707031</ele>
<time>2012-07-26T18:16:49Z</time>
<speed>2.340000</speed>
<extensions>
<speed>2.3</speed>
<temp>0.00</temp>
<bpm>0</bpm>
<rpm>0.00</rpm>
</extensions>
</trkpt>
<trkpt lat="63.718318939" lon="-19.893711090">
<ele>79.216797</ele>
<time>2012-07-26T18:16:54Z</time>
<speed>2.310000</speed>
<extensions>
<speed>2.3</speed>
<temp>0.00</temp>
<bpm>0</bpm>
<rpm>0.00</rpm>
</extensions>
</trkpt>
<trkpt lat="63.718406677" lon="-19.893608093">
<ele>78.890625</ele>
<time>2012-07-26T18:16:59Z</time>
<speed>2.320000</speed>
<extensions>
<speed>2.3</speed>
<temp>0.00</temp>
<bpm>0</bpm>
<rpm>0.00</rpm>
</extensions>
</trkpt>
<trkpt lat="63.718505859" lon="-19.893489838">
<ele>78.593750</ele>
<time>2012-07-26T18:17:04Z</time>
<speed>2.420000</speed>
<extensions>
<speed>2.4</speed>
<temp>0.00</temp>
<bpm>0</bpm>
<rpm>0.00</rpm>
</extensions>
</trkpt>
<trkpt lat="63.718605042" lon="-19.893383026">
<ele>78.320313</ele>
<time>2012-07-26T18:17:09Z</time>
<speed>2.500000</speed>
<extensions>
<speed>2.5</speed>
<temp>0.00</temp>
<bpm>0</bpm>
<rpm>0.00</rpm>
</extensions>
</trkpt>
<trkpt lat="63.718719482" lon="-19.893276215">
<ele>79.511719</ele>
<time>2012-07-26T18:17:14Z</time>
<speed>2.510000</speed>
<extensions>
<speed>2.5</speed>
<temp>0.00</temp>
<bpm>0</bpm>
<rpm>0.00</rpm>
</extensions>
</trkpt>
<trkpt lat="63.718814850" lon="-19.893182755">
<ele>80.394531</ele>
<time>2012-07-26T18:17:19Z</time>
<speed>2.460000</speed>
<extensions>
<speed>2.5</speed>
<temp>0.00</temp>
<bpm>0</bpm>
<rpm>0.00</rpm>
</extensions>
</trkpt>
<trkpt lat="63.718910217" lon="-19.893072128">
<ele>80.027344</ele>
<time>2012-07-26T18:17:24Z</time>
<speed>2.690000</speed>
<extensions>
<speed>2.7</speed>
<temp>0.00</temp>
<bpm>0</bpm>
<rpm>0.00</rpm>
</extensions>
</trkpt>
<trkpt lat="63.719020844" lon="-19.892969131">
<ele>80.878906</ele>
<time>2012-07-26T18:17:29Z</time>
<speed>2.530000</speed>
<extensions>
<speed>2.5</speed>
<temp>0.00</temp>
<bpm>0</bpm>
<rpm>0.00</rpm>
</extensions>
</trkpt>
<trkpt lat="63.719116211" lon="-19.892869949">
<ele>80.884766</ele>
<time>2012-07-26T18:17:34Z</time>
<speed>2.320000</speed>
<extensions>
<speed>2.3</speed>
<temp>0.00</temp>
<bpm>0</bpm>
<rpm>0.00</rpm>
</extensions>
</trkpt>
<trkpt lat="63.719219208" lon="-19.892786026">
<ele>81.152344</ele>
<time>2012-07-26T18:17:39Z</time>
<speed>2.610000</speed>
<extensions>
<speed>2.6</speed>
<temp>0.00</temp>
<bpm>0</bpm>
<rpm>0.00</rpm>
</extensions>
</trkpt>
<trkpt lat="63.719341278" lon="-19.892740250">
<ele>81.384766</ele>
<time>2012-07-26T18:17:44Z</time>
<speed>2.920000</speed>
<extensions>
<speed>2.9</speed>
<temp>0.00</temp>
<bpm>0</bpm>
<rpm>0.00</rpm>
</extensions>
</trkpt>
<trkpt lat="63.719482422" lon="-19.892797470">
<ele>81.603516</ele>
<time>2012-07-26T18:17:49Z</time>
<speed>3.300000</speed>
<extensions>
<speed>3.3</speed>
<temp>0.00</temp>
<bpm>0</bpm>
<rpm>0.00</rpm>
</extensions>
</trkpt>
<trkpt lat="63.719623566" lon="-19.892843246">
<ele>80.669922</ele>
<time>2012-07-26T18:17:54Z</time>
<speed>3.250000</speed>
<extensions>
<speed>3.2</speed>
<temp>0.00</temp>
<bpm>0</bpm>
<rpm>0.00</rpm>
</extensions>
</trkpt>
<trkpt lat="63.719753265" lon="-19.892824173">
<ele>80.812500</ele>
<time>2012-07-26T18:17:59Z</time>
<speed>3.400000</speed>
<extensions>
<speed>3.4</speed>
<temp>0.00</temp>
<bpm>0</bpm>
<rpm>0.00</rpm>
</extensions>
</trkpt>
<trkpt lat="63.719886780" lon="-19.892841339">
<ele>81.140625</ele>
<time>2012-07-26T18:18:04Z</time>
<speed>3.110000</speed>
<extensions>
<speed>3.1</speed>
<temp>0.00</temp>
<bpm>0</bpm>
<rpm>0.00</rpm>
</extensions>
</trkpt>
<trkpt lat="63.720039368" lon="-19.892816544">
<ele>81.281250</ele>
<time>2012-07-26T18:18:09Z</time>
<speed>3.510000</speed>
<extensions>
<speed>3.5</speed>
<temp>0.00</temp>
<bpm>0</bpm>
<rpm>0.00</rpm>
</extensions>
</trkpt>
<trkpt lat="63.720207214" lon="-19.892747879">
<ele>81.884766</ele>
<time>2012-07-26T18:18:14Z</time>
<speed>3.040000</speed>
<extensions>
<speed>3.0</speed>
<temp>0.00</temp>
<bpm>0</bpm>
<rpm>0.00</rpm>
</extensions>
</trkpt>
<trkpt lat="63.720325470" lon="-19.892724991">
<ele>82.203125</ele>
<time>2012-07-26T18:18:19Z</time>
<speed>2.160000</speed>
<extensions>
<speed>2.2</speed>
<temp>0.00</temp>
<bpm>0</bpm>
<rpm>0.00</rpm>
</extensions>
</trkpt>
<trkpt lat="63.720359802" lon="-19.892730713">
<ele>81.537109</ele>
<time>2012-07-26T18:18:24Z</time>
<speed>0.260000</speed>
<extensions>
<speed>0.3</speed>
<temp>0.00</temp>
<bpm>0</bpm>
<rpm>0.00</rpm>
</extensions>
</trkpt>
<trkpt lat="63.720367432" lon="-19.892738342">
<ele>81.501953</ele>
<time>2012-07-26T18:18:29Z</time>
<speed>0.130000</speed>
<extensions>
<speed>0.1</speed>
<temp>0.00</temp>
<bpm>0</bpm>
<rpm>0.00</rpm>
</extensions>
</trkpt>
<trkpt lat="63.720375061" lon="-19.892742157">
<ele>81.535156</ele>
<time>2012-07-26T18:18:34Z</time>
<speed>0.140000</speed>
<extensions>
<speed>0.1</speed>
<temp>0.00</temp>
<bpm>0</bpm>
<rpm>0.00</rpm>
</extensions>
</trkpt>
<trkpt lat="63.720378876" lon="-19.892744064">
<ele>81.500000</ele>
<time>2012-07-26T18:18:39Z</time>
<speed>0.100000</speed>
<extensions>
<speed>0.1</speed>
<temp>0.00</temp>
<bpm>0</bpm>
<rpm>0.00</rpm>
</extensions>
</trkpt>
<trkpt lat="63.720382690" lon="-19.892740250">
<ele>81.449219</ele>
<time>2012-07-26T18:18:44Z</time>
<speed>0.050000</speed>
<extensions>
<speed>0.1</speed>
<temp>0.00</temp>
<bpm>0</bpm>
<rpm>0.00</rpm>
</extensions>
</trkpt>
<trkpt lat="63.720382690" lon="-19.892740250">
<ele>81.441406</ele>
<time>2012-07-26T18:18:49Z</time>
<speed>0.020000</speed>
<extensions>
<speed>0.0</speed>
<temp>0.00</temp>
<bpm>0</bpm>
<rpm>0.00</rpm>
</extensions>
</trkpt>
<trkpt lat="63.720382690" lon="-19.892740250">
<ele>81.441406</ele>
<time>2012-07-26T18:18:54Z</time>
<extensions>
<speed>0.0</speed>
<temp>0.00</temp>
<bpm>0</bpm>
<rpm>0.00</rpm>
</extensions>
</trkpt>
<trkpt lat="63.720382690" lon="-19.892740250">
<ele>81.441406</ele>
<time>2012-07-26T18:18:59Z</time>
<speed>0.010000</speed>
<extensions>
<speed>0.0</speed>
<temp>0.00</temp>
<bpm>0</bpm>
<rpm>0.00</rpm>
</extensions>
</trkpt>
<trkpt lat="63.720382690" lon="-19.892740250">
<ele>81.453125</ele>
<time>2012-07-26T18:19:04Z</time>
<speed>0.030000</speed>
<extensions>
<speed>0.0</speed>
<temp>0.00</temp>
<bpm>0</bpm>
<rpm>0.00</rpm>
</extensions>
</trkpt>
<trkpt lat="63.720382690" lon="-19.892738342">
<ele>81.466797</ele>
<time>2012-07-26T18:19:09Z</time>
<speed>0.020000</speed>
<extensions>
<speed>0.0</speed>
<temp>0.00</temp>
<bpm>0</bpm>
<rpm>0.00</rpm>
</extensions>
</trkpt>
<trkpt lat="63.720382690" lon="-19.892738342">
<ele>81.470703</ele>
<time>2012-07-26T18:19:14Z</time>
<extensions>
<speed>0.0</speed>
<temp>0.00</temp>
<bpm>0</bpm>
<rpm>0.00</rpm>
</extensions>
</trkpt>
<trkpt lat="63.720382690" lon="-19.892738342">
<ele>81.466797</ele>
<time>2012-07-26T18:19:19Z</time>
<extensions>
<speed>0.0</speed>
<temp>0.00</temp>
<bpm>0</bpm>
<rpm>0.00</rpm>
</extensions>
</trkpt>
<trkpt lat="63.720378876" lon="-19.892738342">
<ele>81.472656</ele>
<time>2012-07-26T18:19:24Z</time>
<speed>0.020000</speed>
<extensions>
<speed>0.0</speed>
<temp>0.00</temp>
<bpm>0</bpm>
<rpm>0.00</rpm>
</extensions>
</trkpt>
<trkpt lat="63.720378876" lon="-19.892738342">
<ele>81.486328</ele>
<time>2012-07-26T18:19:29Z</time>
<extensions>
<speed>0.0</speed>
<temp>0.00</temp>
<bpm>0</bpm>
<rpm>0.00</rpm>
</extensions>
</trkpt>
<trkpt lat="63.720378876" lon="-19.892738342">
<ele>81.490234</ele>
<time>2012-07-26T18:19:34Z</time>
<extensions>
<speed>0.0</speed>
<temp>0.00</temp>
<bpm>0</bpm>
<rpm>0.00</rpm>
</extensions>
</trkpt>
<trkpt lat="63.720378876" lon="-19.892738342">
<ele>81.503906</ele>
<time>2012-07-26T18:19:39Z</time>
<extensions>
<speed>0.0</speed>
<temp>0.00</temp>
<bpm>0</bpm>
<rpm>0.00</rpm>
</extensions>
</trkpt>
<trkpt lat="63.720378876" lon="-19.892738342">
<ele>81.515625</ele>
<time>2012-07-26T18:19:44Z</time>
<speed>0.010000</speed>
<extensions>
<speed>0.0</speed>
<temp>0.00</temp>
<bpm>0</bpm>
<rpm>0.00</rpm>
</extensions>
</trkpt>
<trkpt lat="63.720378876" lon="-19.892738342">
<ele>81.527344</ele>
<time>2012-07-26T18:19:49Z</time>
<extensions>
<speed>0.0</speed>
<temp>0.00</temp>
<bpm>0</bpm>
<rpm>0.00</rpm>
</extensions>
</trkpt>
<trkpt lat="63.720378876" lon="-19.892738342">
<ele>81.525391</ele>
<time>2012-07-26T18:19:54Z</time>
<extensions>
<speed>0.0</speed>
<temp>0.00</temp>
<bpm>0</bpm>
<rpm>0.00</rpm>
</extensions>
</trkpt>
<trkpt lat="63.720378876" lon="-19.892736435">
<ele>81.542969</ele>
<time>2012-07-26T18:19:59Z</time>
<speed>0.010000</speed>
<extensions>
<speed>0.0</speed>
<temp>0.00</temp>
<bpm>0</bpm>
<rpm>0.00</rpm>
</extensions>
</trkpt>
<trkpt lat="63.720378876" lon="-19.892736435">
<ele>81.554688</ele>
<time>2012-07-26T18:20:04Z</time>
<extensions>
<speed>0.0</speed>
<temp>0.00</temp>
<bpm>0</bpm>
<rpm>0.00</rpm>
</extensions>
</trkpt>
<trkpt lat="63.720378876" lon="-19.892736435">
<ele>81.560547</ele>
<time>2012-07-26T18:20:09Z</time>
<extensions>
<speed>0.0</speed>
<temp>0.00</temp>
<bpm>0</bpm>
<rpm>0.00</rpm>
</extensions>
</trkpt>
<trkpt lat="63.720378876" lon="-19.892736435">
<ele>81.556641</ele>
<time>2012-07-26T18:20:14Z</time>
<extensions>
<speed>0.0</speed>
<temp>0.00</temp>
<bpm>0</bpm>
<rpm>0.00</rpm>
</extensions>
</trkpt>
<trkpt lat="63.720378876" lon="-19.892736435">
<ele>81.564453</ele>
<time>2012-07-26T18:20:19Z</time>
<extensions>
<speed>0.0</speed>
<temp>0.00</temp>
<bpm>0</bpm>
<rpm>0.00</rpm>
</extensions>
</trkpt>
<trkpt lat="63.720378876" lon="-19.892736435">
<ele>81.568359</ele>
<time>2012-07-26T18:20:24Z</time>
<extensions>
<speed>0.0</speed>
<temp>0.00</temp>
<bpm>0</bpm>
<rpm>0.00</rpm>
</extensions>
</trkpt>
<trkpt lat="63.720378876" lon="-19.892736435">
<ele>81.582031</ele>
<time>2012-07-26T18:20:29Z</time>
<extensions>
<speed>0.0</speed>
<temp>0.00</temp>
<bpm>0</bpm>
<rpm>0.00</rpm>
</extensions>
</trkpt>
<trkpt lat="63.720378876" lon="-19.892736435">
<ele>81.572266</ele>
<time>2012-07-26T18:20:34Z</time>
<speed>0.010000</speed>
<extensions>
<speed>0.0</speed>
<temp>0.00</temp>
<bpm>0</bpm>
<rpm>0.00</rpm>
</extensions>
</trkpt>
<trkpt lat="63.720378876" lon="-19.892736435">
<ele>81.568359</ele>
<time>2012-07-26T18:20:39Z</time>
<extensions>
<speed>0.0</speed>
<temp>0.00</temp>
<bpm>0</bpm>
<rpm>0.00</rpm>
</extensions>
</trkpt>
<trkpt lat="63.720378876" lon="-19.892736435">
<ele>81.568359</ele>
<time>2012-07-26T18:20:44Z</time>
<extensions>
<speed>0.0</speed>
<temp>0.00</temp>
<bpm>0</bpm>
<rpm>0.00</rpm>
</extensions>
</trkpt>
<trkpt lat="63.720378876" lon="-19.892734528">
<ele>81.580078</ele>
<time>2012-07-26T18:20:49Z</time>
<extensions>
<speed>0.0</speed>
<temp>0.00</temp>
<bpm>0</bpm>
<rpm>0.00</rpm>
</extensions>
</trkpt>
<trkpt lat="63.720378876" lon="-19.892734528">
<ele>81.593750</ele>
<time>2012-07-26T18:20:54Z</time>
<extensions>
<speed>0.0</speed>
<temp>0.00</temp>
<bpm>0</bpm>
<rpm>0.00</rpm>
</extensions>
</trkpt>
<trkpt lat="63.720378876" lon="-19.892734528">
<ele>81.609375</ele>
<time>2012-07-26T18:20:59Z</time>
<extensions>
<speed>0.0</speed>
<temp>0.00</temp>
<bpm>0</bpm>
<rpm>0.00</rpm>
</extensions>
</trkpt>
<trkpt lat="63.720378876" lon="-19.892734528">
<ele>81.617188</ele>
<time>2012-07-26T18:21:04Z</time>
<extensions>
<speed>0.0</speed>
<temp>0.00</temp>
<bpm>0</bpm>
<rpm>0.00</rpm>
</extensions>
</trkpt>
<trkpt lat="63.720378876" lon="-19.892734528">
<ele>81.625000</ele>
<time>2012-07-26T18:21:09Z</time>
<extensions>
<speed>0.0</speed>
<temp>0.00</temp>
<bpm>0</bpm>
<rpm>0.00</rpm>
</extensions>
</trkpt>
<trkpt lat="63.720378876" lon="-19.892734528">
<ele>81.636719</ele>
<time>2012-07-26T18:21:14Z</time>
<extensions>
<speed>0.0</speed>
<temp>0.00</temp>
<bpm>0</bpm>
<rpm>0.00</rpm>
</extensions>
</trkpt>
<trkpt lat="63.720378876" lon="-19.892734528">
<ele>81.640625</ele>
<time>2012-07-26T18:21:19Z</time>
<speed>0.010000</speed>
<extensions>
<speed>0.0</speed>
<temp>0.00</temp>
<bpm>0</bpm>
<rpm>0.00</rpm>
</extensions>
</trkpt>
<trkpt lat="63.720378876" lon="-19.892734528">
<ele>81.642578</ele>
<time>2012-07-26T18:21:24Z</time>
<extensions>
<speed>0.0</speed>
<temp>0.00</temp>
<bpm>0</bpm>
<rpm>0.00</rpm>
</extensions>
</trkpt>
<trkpt lat="63.720378876" lon="-19.892734528">
<ele>81.648438</ele>
<time>2012-07-26T18:21:29Z</time>
<speed>0.020000</speed>
<extensions>
<speed>0.0</speed>
<temp>0.00</temp>
<bpm>0</bpm>
<rpm>0.00</rpm>
</extensions>
</trkpt>
<trkpt lat="63.720378876" lon="-19.892734528">
<ele>81.648438</ele>
<time>2012-07-26T18:21:34Z</time>
<speed>0.010000</speed>
<extensions>
<speed>0.0</speed>
<temp>0.00</temp>
<bpm>0</bpm>
<rpm>0.00</rpm>
</extensions>
</trkpt>
<trkpt lat="63.720378876" lon="-19.892734528">
<ele>81.654297</ele>
<time>2012-07-26T18:21:39Z</time>
<extensions>
<speed>0.0</speed>
<temp>0.00</temp>
<bpm>0</bpm>
<rpm>0.00</rpm>
</extensions>
</trkpt>
<trkpt lat="63.720375061" lon="-19.892734528">
<ele>81.667969</ele>
<time>2012-07-26T18:21:44Z</time>
<extensions>
<speed>0.0</speed>
<temp>0.00</temp>
<bpm>0</bpm>
<rpm>0.00</rpm>
</extensions>
</trkpt>
<trkpt lat="63.720375061" lon="-19.892734528">
<ele>81.687500</ele>
<time>2012-07-26T18:21:49Z</time>
<speed>0.020000</speed>
<extensions>
<speed>0.0</speed>
<temp>0.00</temp>
<bpm>0</bpm>
<rpm>0.00</rpm>
</extensions>
</trkpt>
<trkpt lat="63.720375061" lon="-19.892732620">
<ele>81.707031</ele>
<time>2012-07-26T18:21:54Z</time>
<extensions>
<speed>0.0</speed>
<temp>0.00</temp>
<bpm>0</bpm>
<rpm>0.00</rpm>
</extensions>
</trkpt>
<trkpt lat="63.720375061" lon="-19.892732620">
<ele>81.720703</ele>
<time>2012-07-26T18:21:59Z</time>
<extensions>
<speed>0.0</speed>
<temp>0.00</temp>
<bpm>0</bpm>
<rpm>0.00</rpm>
</extensions>
</trkpt>
<trkpt lat="63.720375061" lon="-19.892732620">
<ele>81.724609</ele>
<time>2012-07-26T18:22:04Z</time>
<extensions>
<speed>0.0</speed>
<temp>0.00</temp>
<bpm>0</bpm>
<rpm>0.00</rpm>
</extensions>
</trkpt>
<trkpt lat="63.720375061" lon="-19.892732620">
<ele>81.720703</ele>
<time>2012-07-26T18:22:09Z</time>
<extensions>
<speed>0.0</speed>
<temp>0.00</temp>
<bpm>0</bpm>
<rpm>0.00</rpm>
</extensions>
</trkpt>
<trkpt lat="63.720375061" lon="-19.892732620">
<ele>81.710938</ele>
<time>2012-07-26T18:22:14Z</time>
<extensions>
<speed>0.0</speed>
<temp>0.00</temp>
<bpm>0</bpm>
<rpm>0.00</rpm>
</extensions>
</trkpt>
<trkpt lat="63.720375061" lon="-19.892732620">
<ele>81.710938</ele>
<time>2012-07-26T18:22:19Z</time>
<extensions>
<speed>0.0</speed>
<temp>0.00</temp>
<bpm>0</bpm>
<rpm>0.00</rpm>
</extensions>
</trkpt>
<trkpt lat="63.720375061" lon="-19.892732620">
<ele>81.714844</ele>
<time>2012-07-26T18:22:24Z</time>
<speed>0.010000</speed>
<extensions>
<speed>0.0</speed>
<temp>0.00</temp>
<bpm>0</bpm>
<rpm>0.00</rpm>
</extensions>
</trkpt>
<trkpt lat="63.720375061" lon="-19.892732620">
<ele>81.724609</ele>
<time>2012-07-26T18:22:29Z</time>
<extensions>
<speed>0.0</speed>
<temp>0.00</temp>
<bpm>0</bpm>
<rpm>0.00</rpm>
</extensions>
</trkpt>
<trkpt lat="63.720375061" lon="-19.892732620">
<ele>81.738281</ele>
<time>2012-07-26T18:22:34Z</time>
<extensions>
<speed>0.0</speed>
<temp>0.00</temp>
<bpm>0</bpm>
<rpm>0.00</rpm>
</extensions>
</trkpt>
<trkpt lat="63.720375061" lon="-19.892732620">
<ele>81.742188</ele>
<time>2012-07-26T18:22:39Z</time>
<extensions>
<speed>0.0</speed>
<temp>0.00</temp>
<bpm>0</bpm>
<rpm>0.00</rpm>
</extensions>
</trkpt>
<trkpt lat="63.720375061" lon="-19.892732620">
<ele>81.750000</ele>
<time>2012-07-26T18:22:44Z</time>
<speed>0.010000</speed>
<extensions>
<speed>0.0</speed>
<temp>0.00</temp>
<bpm>0</bpm>
<rpm>0.00</rpm>
</extensions>
</trkpt>
<trkpt lat="63.720375061" lon="-19.892730713">
<ele>81.769531</ele>
<time>2012-07-26T18:22:49Z</time>
<extensions>
<speed>0.0</speed>
<temp>0.00</temp>
<bpm>0</bpm>
<rpm>0.00</rpm>
</extensions>
</trkpt>
<trkpt lat="63.720375061" lon="-19.892730713">
<ele>81.777344</ele>
<time>2012-07-26T18:22:54Z</time>
<speed>0.010000</speed>
<extensions>
<speed>0.0</speed>
<temp>0.00</temp>
<bpm>0</bpm>
<rpm>0.00</rpm>
</extensions>
</trkpt>
<trkpt lat="63.720375061" lon="-19.892730713">
<ele>81.783203</ele>
<time>2012-07-26T18:22:59Z</time>
<extensions>
<speed>0.0</speed>
<temp>0.00</temp>
<bpm>0</bpm>
<rpm>0.00</rpm>
</extensions>
</trkpt>
<trkpt lat="63.720375061" lon="-19.892730713">
<ele>81.791016</ele>
<time>2012-07-26T18:23:04Z</time>
<extensions>
<speed>0.0</speed>
<temp>0.00</temp>
<bpm>0</bpm>
<rpm>0.00</rpm>
</extensions>
</trkpt>
<trkpt lat="63.720375061" lon="-19.892730713">
<ele>81.798828</ele>
<time>2012-07-26T18:23:09Z</time>
<speed>0.010000</speed>
<extensions>
<speed>0.0</speed>
<temp>0.00</temp>
<bpm>0</bpm>
<rpm>0.00</rpm>
</extensions>
</trkpt>
<trkpt lat="63.720375061" lon="-19.892730713">
<ele>81.808594</ele>
<time>2012-07-26T18:23:14Z</time>
<extensions>
<speed>0.0</speed>
<temp>0.00</temp>
<bpm>0</bpm>
<rpm>0.00</rpm>
</extensions>
</trkpt>
<trkpt lat="63.720375061" lon="-19.892730713">
<ele>81.816406</ele>
<time>2012-07-26T18:23:19Z</time>
<extensions>
<speed>0.0</speed>
<temp>0.00</temp>
<bpm>0</bpm>
<rpm>0.00</rpm>
</extensions>
</trkpt>
<trkpt lat="63.720375061" lon="-19.892730713">
<ele>81.822266</ele>
<time>2012-07-26T18:23:24Z</time>
<speed>0.010000</speed>
<extensions>
<speed>0.0</speed>
<temp>0.00</temp>
<bpm>0</bpm>
<rpm>0.00</rpm>
</extensions>
</trkpt>
<trkpt lat="63.720375061" lon="-19.892730713">
<ele>81.828125</ele>
<time>2012-07-26T18:23:29Z</time>
<speed>0.020000</speed>
<extensions>
<speed>0.0</speed>
<temp>0.00</temp>
<bpm>0</bpm>
<rpm>0.00</rpm>
</extensions>
</trkpt>
<trkpt lat="63.720375061" lon="-19.892730713">
<ele>81.839844</ele>
<time>2012-07-26T18:23:34Z</time>
<extensions>
<speed>0.0</speed>
<temp>0.00</temp>
<bpm>0</bpm>
<rpm>0.00</rpm>
</extensions>
</trkpt>
<trkpt lat="63.720375061" lon="-19.892730713">
<ele>81.851563</ele>
<time>2012-07-26T18:23:39Z</time>
<extensions>
<speed>0.0</speed>
<temp>0.00</temp>
<bpm>0</bpm>
<rpm>0.00</rpm>
</extensions>
</trkpt>
<trkpt lat="63.720375061" lon="-19.892730713">
<ele>81.871094</ele>
<time>2012-07-26T18:23:44Z</time>
<extensions>
<speed>0.0</speed>
<temp>0.00</temp>
<bpm>0</bpm>
<rpm>0.00</rpm>
</extensions>
</trkpt>
<trkpt lat="63.720371246" lon="-19.892730713">
<ele>81.878906</ele>
<time>2012-07-26T18:23:49Z</time>
<extensions>
<speed>0.0</speed>
<temp>0.00</temp>
<bpm>0</bpm>
<rpm>0.00</rpm>
</extensions>
</trkpt>
<trkpt lat="63.720371246" lon="-19.892730713">
<ele>81.892578</ele>
<time>2012-07-26T18:23:54Z</time>
<speed>0.010000</speed>
<extensions>
<speed>0.0</speed>
<temp>0.00</temp>
<bpm>0</bpm>
<rpm>0.00</rpm>
</extensions>
</trkpt>
<trkpt lat="63.720371246" lon="-19.892730713">
<ele>81.892578</ele>
<time>2012-07-26T18:23:59Z</time>
<extensions>
<speed>0.0</speed>
<temp>0.00</temp>
<bpm>0</bpm>
<rpm>0.00</rpm>
</extensions>
</trkpt>
<trkpt lat="63.720371246" lon="-19.892730713">
<ele>81.896484</ele>
<time>2012-07-26T18:24:04Z</time>
<speed>0.020000</speed>
<extensions>
<speed>0.0</speed>
<temp>0.00</temp>
<bpm>0</bpm>
<rpm>0.00</rpm>
</extensions>
</trkpt>
<trkpt lat="63.720371246" lon="-19.892730713">
<ele>81.900391</ele>
<time>2012-07-26T18:24:09Z</time>
<extensions>
<speed>0.0</speed>
<temp>0.00</temp>
<bpm>0</bpm>
<rpm>0.00</rpm>
</extensions>
</trkpt>
<trkpt lat="63.720371246" lon="-19.892730713">
<ele>81.910156</ele>
<time>2012-07-26T18:24:14Z</time>
<speed>0.010000</speed>
<extensions>
<speed>0.0</speed>
<temp>0.00</temp>
<bpm>0</bpm>
<rpm>0.00</rpm>
</extensions>
</trkpt>
<trkpt lat="63.720371246" lon="-19.892730713">
<ele>81.910156</ele>
<time>2012-07-26T18:24:19Z</time>
<extensions>
<speed>0.0</speed>
<temp>0.00</temp>
<bpm>0</bpm>
<rpm>0.00</rpm>
</extensions>
</trkpt>
<trkpt lat="63.720371246" lon="-19.892730713">
<ele>81.917969</ele>
<time>2012-07-26T18:24:24Z</time>
<speed>0.010000</speed>
<extensions>
<speed>0.0</speed>
<temp>0.00</temp>
<bpm>0</bpm>
<rpm>0.00</rpm>
</extensions>
</trkpt>
<trkpt lat="63.720371246" lon="-19.892730713">
<ele>81.912109</ele>
<time>2012-07-26T18:24:29Z</time>
<extensions>
<speed>0.0</speed>
<temp>0.00</temp>
<bpm>0</bpm>
<rpm>0.00</rpm>
</extensions>
</trkpt>
<trkpt lat="63.720371246" lon="-19.892730713">
<ele>81.906250</ele>
<time>2012-07-26T18:24:34Z</time>
<extensions>
<speed>0.0</speed>
<temp>0.00</temp>
<bpm>0</bpm>
<rpm>0.00</rpm>
</extensions>
</trkpt>
<trkpt lat="63.720371246" lon="-19.892730713">
<ele>81.896484</ele>
<time>2012-07-26T18:24:39Z</time>
<speed>0.010000</speed>
<extensions>
<speed>0.0</speed>
<temp>0.00</temp>
<bpm>0</bpm>
<rpm>0.00</rpm>
</extensions>
</trkpt>
<trkpt lat="63.720371246" lon="-19.892730713">
<ele>81.890625</ele>
<time>2012-07-26T18:24:44Z</time>
<extensions>
<speed>0.0</speed>
<temp>0.00</temp>
<bpm>0</bpm>
<rpm>0.00</rpm>
</extensions>
</trkpt>
<trkpt lat="63.720371246" lon="-19.892730713">
<ele>81.884766</ele>
<time>2012-07-26T18:24:49Z</time>
<speed>0.010000</speed>
<extensions>
<speed>0.0</speed>
<temp>0.00</temp>
<bpm>0</bpm>
<rpm>0.00</rpm>
</extensions>
</trkpt>
<trkpt lat="63.720371246" lon="-19.892730713">
<ele>81.880859</ele>
<time>2012-07-26T18:24:54Z</time>
<extensions>
<speed>0.0</speed>
<temp>0.00</temp>
<bpm>0</bpm>
<rpm>0.00</rpm>
</extensions>
</trkpt>
<trkpt lat="63.720371246" lon="-19.892730713">
<ele>81.880859</ele>
<time>2012-07-26T18:24:59Z</time>
<extensions>
<speed>0.0</speed>
<temp>0.00</temp>
<bpm>0</bpm>
<rpm>0.00</rpm>
</extensions>
</trkpt>
<trkpt lat="63.720371246" lon="-19.892730713">
<ele>81.878906</ele>
<time>2012-07-26T18:25:04Z</time>
<extensions>
<speed>0.0</speed>
<temp>0.00</temp>
<bpm>0</bpm>
<rpm>0.00</rpm>
</extensions>
</trkpt>
<trkpt lat="63.720371246" lon="-19.892730713">
<ele>81.878906</ele>
<time>2012-07-26T18:25:09Z</time>
<extensions>
<speed>0.0</speed>
<temp>0.00</temp>
<bpm>0</bpm>
<rpm>0.00</rpm>
</extensions>
</trkpt>
<trkpt lat="63.720371246" lon="-19.892730713">
<ele>81.878906</ele>
<time>2012-07-26T18:25:14Z</time>
<extensions>
<speed>0.0</speed>
<temp>0.00</temp>
<bpm>0</bpm>
<rpm>0.00</rpm>
</extensions>
</trkpt>
<trkpt lat="63.720371246" lon="-19.892730713">
<ele>81.880859</ele>
<time>2012-07-26T18:25:19Z</time>
<extensions>
<speed>0.0</speed>
<temp>0.00</temp>
<bpm>0</bpm>
<rpm>0.00</rpm>
</extensions>
</trkpt>
<trkpt lat="63.720371246" lon="-19.892730713">
<ele>81.878906</ele>
<time>2012-07-26T18:25:24Z</time>
<speed>0.010000</speed>
<extensions>
<speed>0.0</speed>
<temp>0.00</temp>
<bpm>0</bpm>
<rpm>0.00</rpm>
</extensions>
</trkpt>
<trkpt lat="63.720371246" lon="-19.892730713">
<ele>81.876953</ele>
<time>2012-07-26T18:25:29Z</time>
<speed>0.010000</speed>
<extensions>
<speed>0.0</speed>
<temp>0.00</temp>
<bpm>0</bpm>
<rpm>0.00</rpm>
</extensions>
</trkpt>
<trkpt lat="63.720371246" lon="-19.892730713">
<ele>81.884766</ele>
<time>2012-07-26T18:25:34Z</time>
<extensions>
<speed>0.0</speed>
<temp>0.00</temp>
<bpm>0</bpm>
<rpm>0.00</rpm>
</extensions>
</trkpt>
<trkpt lat="63.720371246" lon="-19.892730713">
<ele>81.894531</ele>
<time>2012-07-26T18:25:39Z</time>
<speed>0.010000</speed>
<extensions>
<speed>0.0</speed>
<temp>0.00</temp>
<bpm>0</bpm>
<rpm>0.00</rpm>
</extensions>
</trkpt>
<trkpt lat="63.720371246" lon="-19.892730713">
<ele>81.896484</ele>
<time>2012-07-26T18:25:44Z</time>
<extensions>
<speed>0.0</speed>
<temp>0.00</temp>
<bpm>0</bpm>
<rpm>0.00</rpm>
</extensions>
</trkpt>
<trkpt lat="63.720371246" lon="-19.892730713">
<ele>81.898438</ele>
<time>2012-07-26T18:25:49Z</time>
<speed>0.010000</speed>
<extensions>
<speed>0.0</speed>
<temp>0.00</temp>
<bpm>0</bpm>
<rpm>0.00</rpm>
</extensions>
</trkpt>
<trkpt lat="63.720371246" lon="-19.892730713">
<ele>81.906250</ele>
<time>2012-07-26T18:25:54Z</time>
<extensions>
<speed>0.0</speed>
<temp>0.00</temp>
<bpm>0</bpm>
<rpm>0.00</rpm>
</extensions>
</trkpt>
<trkpt lat="63.720371246" lon="-19.892730713">
<ele>81.910156</ele>
<time>2012-07-26T18:25:59Z</time>
<extensions>
<speed>0.0</speed>
<temp>0.00</temp>
<bpm>0</bpm>
<rpm>0.00</rpm>
</extensions>
</trkpt>
<trkpt lat="63.720371246" lon="-19.892730713">
<ele>81.917969</ele>
<time>2012-07-26T18:26:04Z</time>
<extensions>
<speed>0.0</speed>
<temp>0.00</temp>
<bpm>0</bpm>
<rpm>0.00</rpm>
</extensions>
</trkpt>
<trkpt lat="63.720371246" lon="-19.892730713">
<ele>81.919922</ele>
<time>2012-07-26T18:26:09Z</time>
<extensions>
<speed>0.0</speed>
<temp>0.00</temp>
<bpm>0</bpm>
<rpm>0.00</rpm>
</extensions>
</trkpt>
<trkpt lat="63.720371246" lon="-19.892730713">
<ele>81.921875</ele>
<time>2012-07-26T18:26:14Z</time>
<speed>0.010000</speed>
<extensions>
<speed>0.0</speed>
<temp>0.00</temp>
<bpm>0</bpm>
<rpm>0.00</rpm>
</extensions>
</trkpt>
<trkpt lat="63.720371246" lon="-19.892730713">
<ele>81.931641</ele>
<time>2012-07-26T18:26:19Z</time>
<speed>0.010000</speed>
<extensions>
<speed>0.0</speed>
<temp>0.00</temp>
<bpm>0</bpm>
<rpm>0.00</rpm>
</extensions>
</trkpt>
<trkpt lat="63.720371246" lon="-19.892730713">
<ele>81.931641</ele>
<time>2012-07-26T18:26:24Z</time>
<speed>0.010000</speed>
<extensions>
<speed>0.0</speed>
<temp>0.00</temp>
<bpm>0</bpm>
<rpm>0.00</rpm>
</extensions>
</trkpt>
<trkpt lat="63.720371246" lon="-19.892730713">
<ele>81.925781</ele>
<time>2012-07-26T18:26:29Z</time>
<extensions>
<speed>0.0</speed>
<temp>0.00</temp>
<bpm>0</bpm>
<rpm>0.00</rpm>
</extensions>
</trkpt>
<trkpt lat="63.720371246" lon="-19.892730713">
<ele>81.914063</ele>
<time>2012-07-26T18:26:34Z</time>
<extensions>
<speed>0.0</speed>
<temp>0.00</temp>
<bpm>0</bpm>
<rpm>0.00</rpm>
</extensions>
</trkpt>
<trkpt lat="63.720371246" lon="-19.892730713">
<ele>81.900391</ele>
<time>2012-07-26T18:26:39Z</time>
<extensions>
<speed>0.0</speed>
<temp>0.00</temp>
<bpm>0</bpm>
<rpm>0.00</rpm>
</extensions>
</trkpt>
<trkpt lat="63.720371246" lon="-19.892730713">
<ele>81.898438</ele>
<time>2012-07-26T18:26:44Z</time>
<extensions>
<speed>0.0</speed>
<temp>0.00</temp>
<bpm>0</bpm>
<rpm>0.00</rpm>
</extensions>
</trkpt>
<trkpt lat="63.720371246" lon="-19.892730713">
<ele>81.898438</ele>
<time>2012-07-26T18:26:49Z</time>
<extensions>
<speed>0.0</speed>
<temp>0.00</temp>
<bpm>0</bpm>
<rpm>0.00</rpm>
</extensions>
</trkpt>
<trkpt lat="63.720371246" lon="-19.892730713">
<ele>81.916016</ele>
<time>2012-07-26T18:26:54Z</time>
<speed>0.010000</speed>
<extensions>
<speed>0.0</speed>
<temp>0.00</temp>
<bpm>0</bpm>
<rpm>0.00</rpm>
</extensions>
</trkpt>
<trkpt lat="63.720371246" lon="-19.892730713">
<ele>81.917969</ele>
<time>2012-07-26T18:26:59Z</time>
<speed>0.020000</speed>
<extensions>
<speed>0.0</speed>
<temp>0.00</temp>
<bpm>0</bpm>
<rpm>0.00</rpm>
</extensions>
</trkpt>
<trkpt lat="63.720371246" lon="-19.892730713">
<ele>81.921875</ele>
<time>2012-07-26T18:27:04Z</time>
<speed>0.040000</speed>
<extensions>
<speed>0.0</speed>
<temp>0.00</temp>
<bpm>0</bpm>
<rpm>0.00</rpm>
</extensions>
</trkpt>
<trkpt lat="63.720344543" lon="-19.892734528">
<ele>81.785156</ele>
<time>2012-07-26T18:27:09Z</time>
<speed>0.460000</speed>
<extensions>
<speed>0.5</speed>
<temp>0.00</temp>
<bpm>0</bpm>
<rpm>0.00</rpm>
</extensions>
</trkpt>
<trkpt lat="63.720333099" lon="-19.892753601">
<ele>81.664063</ele>
<time>2012-07-26T18:27:14Z</time>
<speed>0.240000</speed>
<extensions>
<speed>0.2</speed>
<temp>0.00</temp>
<bpm>0</bpm>
<rpm>0.00</rpm>
</extensions>
</trkpt>
<trkpt lat="63.720294952" lon="-19.892745972">
<ele>81.816406</ele>
<time>2012-07-26T18:27:19Z</time>
<speed>1.170000</speed>
<extensions>
<speed>1.2</speed>
<temp>0.00</temp>
<bpm>0</bpm>
<rpm>0.00</rpm>
</extensions>
</trkpt>
<trkpt lat="63.720188141" lon="-19.892772675">
<ele>81.927734</ele>
<time>2012-07-26T18:27:24Z</time>
<speed>2.380000</speed>
<extensions>
<speed>2.4</speed>
<temp>0.00</temp>
<bpm>0</bpm>
<rpm>0.00</rpm>
</extensions>
</trkpt>
<trkpt lat="63.720096588" lon="-19.892822266">
<ele>82.111328</ele>
<time>2012-07-26T18:27:29Z</time>
<speed>2.150000</speed>
<extensions>
<speed>2.1</speed>
<temp>0.00</temp>
<bpm>0</bpm>
<rpm>0.00</rpm>
</extensions>
</trkpt>
<trkpt lat="63.719974518" lon="-19.892866135">
<ele>82.886719</ele>
<time>2012-07-26T18:27:34Z</time>
<speed>2.810000</speed>
<extensions>
<speed>2.8</speed>
<temp>0.00</temp>
<bpm>0</bpm>
<rpm>0.00</rpm>
</extensions>
</trkpt>
<trkpt lat="63.719848633" lon="-19.892913818">
<ele>83.136719</ele>
<time>2012-07-26T18:27:39Z</time>
<speed>2.830000</speed>
<extensions>
<speed>2.8</speed>
<temp>0.00</temp>
<bpm>0</bpm>
<rpm>0.00</rpm>
</extensions>
</trkpt>
<trkpt lat="63.719722748" lon="-19.892995834">
<ele>84.302734</ele>
<time>2012-07-26T18:27:44Z</time>
<speed>2.960000</speed>
<extensions>
<speed>3.0</speed>
<temp>0.00</temp>
<bpm>0</bpm>
<rpm>0.00</rpm>
</extensions>
</trkpt>
<trkpt lat="63.719593048" lon="-19.892992020">
<ele>84.382813</ele>
<time>2012-07-26T18:27:49Z</time>
<speed>2.460000</speed>
<extensions>
<speed>2.5</speed>
<temp>0.00</temp>
<bpm>0</bpm>
<rpm>0.00</rpm>
</extensions>
</trkpt>
<trkpt lat="63.719501495" lon="-19.893007278">
<ele>83.552734</ele>
<time>2012-07-26T18:27:54Z</time>
<speed>1.630000</speed>
<extensions>
<speed>1.6</speed>
<temp>0.00</temp>
<bpm>0</bpm>
<rpm>0.00</rpm>
</extensions>
</trkpt>
<trkpt lat="63.719429016" lon="-19.892946243">
<ele>82.791016</ele>
<time>2012-07-26T18:27:59Z</time>
<speed>1.980000</speed>
<extensions>
<speed>2.0</speed>
<temp>0.00</temp>
<bpm>0</bpm>
<rpm>0.00</rpm>
</extensions>
</trkpt>
<trkpt lat="63.719360352" lon="-19.892791748">
<ele>81.902344</ele>
<time>2012-07-26T18:28:04Z</time>
<speed>2.030000</speed>
<extensions>
<speed>2.0</speed>
<temp>0.00</temp>
<bpm>0</bpm>
<rpm>0.00</rpm>
</extensions>
</trkpt>
<trkpt lat="63.719249725" lon="-19.892784119">
<ele>82.730469</ele>
<time>2012-07-26T18:28:09Z</time>
<speed>3.030000</speed>
<extensions>
<speed>3.0</speed>
<temp>0.00</temp>
<bpm>0</bpm>
<rpm>0.00</rpm>
</extensions>
</trkpt>
<trkpt lat="63.719097137" lon="-19.892887115">
<ele>80.796875</ele>
<time>2012-07-26T18:28:14Z</time>
<speed>3.090000</speed>
<extensions>
<speed>3.1</speed>
<temp>0.00</temp>
<bpm>0</bpm>
<rpm>0.00</rpm>
</extensions>
</trkpt>
<trkpt lat="63.718959808" lon="-19.893033981">
<ele>78.458984</ele>
<time>2012-07-26T18:28:19Z</time>
<speed>3.160000</speed>
<extensions>
<speed>3.2</speed>
<temp>0.00</temp>
<bpm>0</bpm>
<rpm>0.00</rpm>
</extensions>
</trkpt>
<trkpt lat="63.718833923" lon="-19.893182755">
<ele>79.060547</ele>
<time>2012-07-26T18:28:24Z</time>
<speed>3.100000</speed>
<extensions>
<speed>3.1</speed>
<temp>0.00</temp>
<bpm>0</bpm>
<rpm>0.00</rpm>
</extensions>
</trkpt>
<trkpt lat="63.718704224" lon="-19.893310547">
<ele>79.117188</ele>
<time>2012-07-26T18:28:29Z</time>
<speed>3.480000</speed>
<extensions>
<speed>3.5</speed>
<temp>0.00</temp>
<bpm>0</bpm>
<rpm>0.00</rpm>
</extensions>
</trkpt>
<trkpt lat="63.718559265" lon="-19.893491745">
<ele>78.357422</ele>
<time>2012-07-26T18:28:34Z</time>
<speed>3.280000</speed>
<extensions>
<speed>3.3</speed>
<temp>0.00</temp>
<bpm>0</bpm>
<rpm>0.00</rpm>
</extensions>
</trkpt>
<trkpt lat="63.718437195" lon="-19.893640518">
<ele>79.572266</ele>
<time>2012-07-26T18:28:39Z</time>
<speed>3.050000</speed>
<extensions>
<speed>3.0</speed>
<temp>0.00</temp>
<bpm>0</bpm>
<rpm>0.00</rpm>
</extensions>
</trkpt>
<trkpt lat="63.718315125" lon="-19.893764496">
<ele>79.697266</ele>
<time>2012-07-26T18:28:44Z</time>
<speed>2.720000</speed>
<extensions>
<speed>2.7</speed>
<temp>0.00</temp>
<bpm>0</bpm>
<rpm>0.00</rpm>
</extensions>
</trkpt>
<trkpt lat="63.718208313" lon="-19.893878937">
<ele>79.220703</ele>
<time>2012-07-26T18:28:49Z</time>
<speed>2.930000</speed>
<extensions>
<speed>2.9</speed>
<temp>0.00</temp>
<bpm>0</bpm>
<rpm>0.00</rpm>
</extensions>
</trkpt>
<trkpt lat="63.718082428" lon="-19.894014359">
<ele>79.146484</ele>
<time>2012-07-26T18:28:54Z</time>
<speed>3.310000</speed>
<extensions>
<speed>3.3</speed>
<temp>0.00</temp>
<bpm>0</bpm>
<rpm>0.00</rpm>
</extensions>
</trkpt>
<trkpt lat="63.717941284" lon="-19.894172668">
<ele>78.960938</ele>
<time>2012-07-26T18:28:59Z</time>
<speed>3.530000</speed>
<extensions>
<speed>3.5</speed>
<temp>0.00</temp>
<bpm>0</bpm>
<rpm>0.00</rpm>
</extensions>
</trkpt>
<trkpt lat="63.717811584" lon="-19.894313812">
<ele>79.824219</ele>
<time>2012-07-26T18:29:04Z</time>
<speed>3.060000</speed>
<extensions>
<speed>3.1</speed>
<temp>0.00</temp>
<bpm>0</bpm>
<rpm>0.00</rpm>
</extensions>
</trkpt>
<trkpt lat="63.717670441" lon="-19.894460678">
<ele>80.058594</ele>
<time>2012-07-26T18:29:09Z</time>
<speed>3.560000</speed>
<extensions>
<speed>3.6</speed>
<temp>0.00</temp>
<bpm>0</bpm>
<rpm>0.00</rpm>
</extensions>
</trkpt>
<trkpt lat="63.717536926" lon="-19.894598007">
<ele>79.039063</ele>
<time>2012-07-26T18:29:14Z</time>
<speed>2.710000</speed>
<extensions>
<speed>2.7</speed>
<temp>0.00</temp>
<bpm>0</bpm>
<rpm>0.00</rpm>
</extensions>
</trkpt>
<trkpt lat="63.717426300" lon="-19.894723892">
<ele>79.365234</ele>
<time>2012-07-26T18:29:19Z</time>
<speed>2.930000</speed>
<extensions>
<speed>2.9</speed>
<temp>0.00</temp>
<bpm>0</bpm>
<rpm>0.00</rpm>
</extensions>
</trkpt>
<trkpt lat="63.717300415" lon="-19.894845963">
<ele>78.224609</ele>
<time>2012-07-26T18:29:24Z</time>
<speed>3.190000</speed>
<extensions>
<speed>3.2</speed>
<temp>0.00</temp>
<bpm>0</bpm>
<rpm>0.00</rpm>
</extensions>
</trkpt>
<trkpt lat="63.717178345" lon="-19.894989014">
<ele>78.234375</ele>
<time>2012-07-26T18:29:29Z</time>
<speed>2.960000</speed>
<extensions>
<speed>3.0</speed>
<temp>0.00</temp>
<bpm>0</bpm>
<rpm>0.00</rpm>
</extensions>
</trkpt>
<trkpt lat="63.717086792" lon="-19.895088196">
<ele>79.958984</ele>
<time>2012-07-26T18:29:34Z</time>
<speed>1.740000</speed>
<extensions>
<speed>1.7</speed>
<temp>0.00</temp>
<bpm>0</bpm>
<rpm>0.00</rpm>
</extensions>
</trkpt>
<trkpt lat="63.717029572" lon="-19.895202637">
<ele>81.103516</ele>
<time>2012-07-26T18:29:39Z</time>
<speed>2.200000</speed>
<extensions>
<speed>2.2</speed>
<temp>0.00</temp>
<bpm>0</bpm>
<rpm>0.00</rpm>
</extensions>
</trkpt>
<trkpt lat="63.717010498" lon="-19.895250320">
<ele>80.912109</ele>
<time>2012-07-26T18:29:44Z</time>
<speed>0.050000</speed>
<extensions>
<speed>0.1</speed>
<temp>0.00</temp>
<bpm>0</bpm>
<rpm>0.00</rpm>
</extensions>
</trkpt>
<trkpt lat="63.717002869" lon="-19.895271301">
<ele>80.435547</ele>
<time>2012-07-26T18:29:49Z</time>
<speed>0.090000</speed>
<extensions>
<speed>0.1</speed>
<temp>0.00</temp>
<bpm>0</bpm>
<rpm>0.00</rpm>
</extensions>
</trkpt>
<trkpt lat="63.716999054" lon="-19.895259857">
<ele>80.111328</ele>
<time>2012-07-26T18:29:54Z</time>
<speed>0.080000</speed>
<extensions>
<speed>0.1</speed>
<temp>0.00</temp>
<bpm>0</bpm>
<rpm>0.00</rpm>
</extensions>
</trkpt>
<trkpt lat="63.716999054" lon="-19.895261765">
<ele>80.101563</ele>
<time>2012-07-26T18:29:59Z</time>
<extensions>
<speed>0.0</speed>
<temp>0.00</temp>
<bpm>0</bpm>
<rpm>0.00</rpm>
</extensions>
</trkpt>
<trkpt lat="63.716999054" lon="-19.895298004">
<ele>80.160156</ele>
<time>2012-07-26T18:30:04Z</time>
<speed>1.050000</speed>
<extensions>
<speed>1.0</speed>
<temp>0.00</temp>
<bpm>0</bpm>
<rpm>0.00</rpm>
</extensions>
</trkpt>
<trkpt lat="63.716995239" lon="-19.895483017">
<ele>79.738281</ele>
<time>2012-07-26T18:30:09Z</time>
<speed>2.770000</speed>
<extensions>
<speed>2.8</speed>
<temp>0.00</temp>
<bpm>0</bpm>
<rpm>0.00</rpm>
</extensions>
</trkpt>
<trkpt lat="63.717025757" lon="-19.895822525">
<ele>80.271484</ele>
<time>2012-07-26T18:30:14Z</time>
<speed>3.690000</speed>
<extensions>
<speed>3.7</speed>
<temp>0.00</temp>
<bpm>0</bpm>
<rpm>0.00</rpm>
</extensions>
</trkpt>
<trkpt lat="63.717056274" lon="-19.896200180">
<ele>80.232422</ele>
<time>2012-07-26T18:30:19Z</time>
<speed>4.100000</speed>
<extensions>
<speed>4.1</speed>
<temp>0.00</temp>
<bpm>0</bpm>
<rpm>0.00</rpm>
</extensions>
</trkpt>
<trkpt lat="63.717098236" lon="-19.896614075">
<ele>79.951172</ele>
<time>2012-07-26T18:30:24Z</time>
<speed>4.380000</speed>
<extensions>
<speed>4.4</speed>
<temp>0.00</temp>
<bpm>0</bpm>
<rpm>0.00</rpm>
</extensions>
</trkpt>
<trkpt lat="63.717144012" lon="-19.897085190">
<ele>79.824219</ele>
<time>2012-07-26T18:30:29Z</time>
<speed>4.630000</speed>
<extensions>
<speed>4.6</speed>
<temp>0.00</temp>
<bpm>0</bpm>
<rpm>0.00</rpm>
</extensions>
</trkpt>
<trkpt lat="63.717185974" lon="-19.897621155">
<ele>79.201172</ele>
<time>2012-07-26T18:30:34Z</time>
<speed>5.520000</speed>
<extensions>
<speed>5.5</speed>
<temp>0.00</temp>
<bpm>0</bpm>
<rpm>0.00</rpm>
</extensions>
</trkpt>
<trkpt lat="63.717231750" lon="-19.898176193">
<ele>78.585938</ele>
<time>2012-07-26T18:30:39Z</time>
<speed>5.850000</speed>
<extensions>
<speed>5.8</speed>
<temp>0.00</temp>
<bpm>0</bpm>
<rpm>0.00</rpm>
</extensions>
</trkpt>
<trkpt lat="63.717288971" lon="-19.898777008">
<ele>78.851563</ele>
<time>2012-07-26T18:30:44Z</time>
<speed>6.100000</speed>
<extensions>
<speed>6.1</speed>
<temp>0.00</temp>
<bpm>0</bpm>
<rpm>0.00</rpm>
</extensions>
</trkpt>
<trkpt lat="63.717346191" lon="-19.899394989">
<ele>79.013672</ele>
<time>2012-07-26T18:30:49Z</time>
<speed>6.170000</speed>
<extensions>
<speed>6.2</speed>
<temp>0.00</temp>
<bpm>0</bpm>
<rpm>0.00</rpm>
</extensions>
</trkpt>
<trkpt lat="63.717407227" lon="-19.900016785">
<ele>78.937500</ele>
<time>2012-07-26T18:30:54Z</time>
<speed>6.400000</speed>
<extensions>
<speed>6.4</speed>
<temp>0.00</temp>
<bpm>0</bpm>
<rpm>0.00</rpm>
</extensions>
</trkpt>
<trkpt lat="63.717468262" lon="-19.900650024">
<ele>78.675781</ele>
<time>2012-07-26T18:30:59Z</time>
<speed>6.440000</speed>
<extensions>
<speed>6.4</speed>
<temp>0.00</temp>
<bpm>0</bpm>
<rpm>0.00</rpm>
</extensions>
</trkpt>
<trkpt lat="63.717536926" lon="-19.901277542">
<ele>78.281250</ele>
<time>2012-07-26T18:31:04Z</time>
<speed>6.410000</speed>
<extensions>
<speed>6.4</speed>
<temp>0.00</temp>
<bpm>0</bpm>
<rpm>0.00</rpm>
</extensions>
</trkpt>
<trkpt lat="63.717609406" lon="-19.901920319">
<ele>78.070313</ele>
<time>2012-07-26T18:31:09Z</time>
<speed>6.500000</speed>
<extensions>
<speed>6.5</speed>
<temp>0.00</temp>
<bpm>0</bpm>
<rpm>0.00</rpm>
</extensions>
</trkpt>
<trkpt lat="63.717674255" lon="-19.902551651">
<ele>77.667969</ele>
<time>2012-07-26T18:31:14Z</time>
<speed>6.400000</speed>
<extensions>
<speed>6.4</speed>
<temp>0.00</temp>
<bpm>0</bpm>
<rpm>0.00</rpm>
</extensions>
</trkpt>
<trkpt lat="63.717742920" lon="-19.903154373">
<ele>77.419922</ele>
<time>2012-07-26T18:31:19Z</time>
<speed>5.970000</speed>
<extensions>
<speed>6.0</speed>
<temp>0.00</temp>
<bpm>0</bpm>
<rpm>0.00</rpm>
</extensions>
</trkpt>
<trkpt lat="63.717815399" lon="-19.903722763">
<ele>77.613281</ele>
<time>2012-07-26T18:31:24Z</time>
<speed>5.780000</speed>
<extensions>
<speed>5.8</speed>
<temp>0.00</temp>
<bpm>0</bpm>
<rpm>0.00</rpm>
</extensions>
</trkpt>
<trkpt lat="63.717884064" lon="-19.904268265">
<ele>77.464844</ele>
<time>2012-07-26T18:31:29Z</time>
<speed>5.960000</speed>
<extensions>
<speed>6.0</speed>
<temp>0.00</temp>
<bpm>0</bpm>
<rpm>0.00</rpm>
</extensions>
</trkpt>
<trkpt lat="63.717952728" lon="-19.904817581">
<ele>77.257813</ele>
<time>2012-07-26T18:31:34Z</time>
<speed>5.780000</speed>
<extensions>
<speed>5.8</speed>
<temp>0.00</temp>
<bpm>0</bpm>
<rpm>0.00</rpm>
</extensions>
</trkpt>
<trkpt lat="63.718009949" lon="-19.905382156">
<ele>77.013672</ele>
<time>2012-07-26T18:31:39Z</time>
<speed>5.670000</speed>
<extensions>
<speed>5.7</speed>
<temp>0.00</temp>
<bpm>0</bpm>
<rpm>0.00</rpm>
</extensions>
</trkpt>
<trkpt lat="63.718086243" lon="-19.905958176">
<ele>77.617188</ele>
<time>2012-07-26T18:31:44Z</time>
<speed>5.530000</speed>
<extensions>
<speed>5.5</speed>
<temp>0.00</temp>
<bpm>0</bpm>
<rpm>0.00</rpm>
</extensions>
</trkpt>
<trkpt lat="63.718154907" lon="-19.906496048">
<ele>77.224609</ele>
<time>2012-07-26T18:31:49Z</time>
<speed>5.650000</speed>
<extensions>
<speed>5.7</speed>
<temp>0.00</temp>
<bpm>0</bpm>
<rpm>0.00</rpm>
</extensions>
</trkpt>
<trkpt lat="63.718235016" lon="-19.907075882">
<ele>76.767578</ele>
<time>2012-07-26T18:31:54Z</time>
<speed>6.150000</speed>
<extensions>
<speed>6.1</speed>
<temp>0.00</temp>
<bpm>0</bpm>
<rpm>0.00</rpm>
</extensions>
</trkpt>
<trkpt lat="63.718318939" lon="-19.907670975">
<ele>77.505859</ele>
<time>2012-07-26T18:31:59Z</time>
<speed>6.230000</speed>
<extensions>
<speed>6.2</speed>
<temp>0.00</temp>
<bpm>0</bpm>
<rpm>0.00</rpm>
</extensions>
</trkpt>
<trkpt lat="63.718399048" lon="-19.908264160">
<ele>76.640625</ele>
<time>2012-07-26T18:32:04Z</time>
<speed>6.230000</speed>
<extensions>
<speed>6.2</speed>
<temp>0.00</temp>
<bpm>0</bpm>
<rpm>0.00</rpm>
</extensions>
</trkpt>
<trkpt lat="63.718482971" lon="-19.908864975">
<ele>75.400391</ele>
<time>2012-07-26T18:32:09Z</time>
<speed>5.870000</speed>
<extensions>
<speed>5.9</speed>
<temp>0.00</temp>
<bpm>0</bpm>
<rpm>0.00</rpm>
</extensions>
</trkpt>
<trkpt lat="63.718540192" lon="-19.909412384">
<ele>76.044922</ele>
<time>2012-07-26T18:32:14Z</time>
<speed>5.140000</speed>
<extensions>
<speed>5.1</speed>
<temp>0.00</temp>
<bpm>0</bpm>
<rpm>0.00</rpm>
</extensions>
</trkpt>
<trkpt lat="63.718593597" lon="-19.909837723">
<ele>75.845703</ele>
<time>2012-07-26T18:32:19Z</time>
<speed>3.800000</speed>
<extensions>
<speed>3.8</speed>
<temp>0.00</temp>
<bpm>0</bpm>
<rpm>0.00</rpm>
</extensions>
</trkpt>
<trkpt lat="63.718635559" lon="-19.910217285">
<ele>76.144531</ele>
<time>2012-07-26T18:32:24Z</time>
<speed>3.720000</speed>
<extensions>
<speed>3.7</speed>
<temp>0.00</temp>
<bpm>0</bpm>
<rpm>0.00</rpm>
</extensions>
</trkpt>
<trkpt lat="63.718700409" lon="-19.910524368">
<ele>75.763672</ele>
<time>2012-07-26T18:32:29Z</time>
<speed>3.140000</speed>
<extensions>
<speed>3.1</speed>
<temp>0.00</temp>
<bpm>0</bpm>
<rpm>0.00</rpm>
</extensions>
</trkpt>
<trkpt lat="63.718761444" lon="-19.910797119">
<ele>75.328125</ele>
<time>2012-07-26T18:32:34Z</time>
<speed>2.780000</speed>
<extensions>
<speed>2.8</speed>
<temp>0.00</temp>
<bpm>0</bpm>
<rpm>0.00</rpm>
</extensions>
</trkpt>
<trkpt lat="63.718795776" lon="-19.911066055">
<ele>74.039063</ele>
<time>2012-07-26T18:32:39Z</time>
<speed>2.580000</speed>
<extensions>
<speed>2.6</speed>
<temp>0.00</temp>
<bpm>0</bpm>
<rpm>0.00</rpm>
</extensions>
</trkpt>
<trkpt lat="63.718830109" lon="-19.911293030">
<ele>73.697266</ele>
<time>2012-07-26T18:32:44Z</time>
<speed>2.270000</speed>
<extensions>
<speed>2.3</speed>
<temp>0.00</temp>
<bpm>0</bpm>
<rpm>0.00</rpm>
</extensions>
</trkpt>
<trkpt lat="63.718845367" lon="-19.911525726">
<ele>74.080078</ele>
<time>2012-07-26T18:32:49Z</time>
<speed>2.870000</speed>
<extensions>
<speed>2.9</speed>
<temp>0.00</temp>
<bpm>0</bpm>
<rpm>0.00</rpm>
</extensions>
</trkpt>
<trkpt lat="63.718891144" lon="-19.911808014">
<ele>73.277344</ele>
<time>2012-07-26T18:32:54Z</time>
<speed>2.970000</speed>
<extensions>
<speed>3.0</speed>
<temp>0.00</temp>
<bpm>0</bpm>
<rpm>0.00</rpm>
</extensions>
</trkpt>
<trkpt lat="63.718936920" lon="-19.912065506">
<ele>73.767578</ele>
<time>2012-07-26T18:32:59Z</time>
<speed>2.600000</speed>
<extensions>
<speed>2.6</speed>
<temp>0.00</temp>
<bpm>0</bpm>
<rpm>0.00</rpm>
</extensions>
</trkpt>
<trkpt lat="63.718990326" lon="-19.912326813">
<ele>73.642578</ele>
<time>2012-07-26T18:33:04Z</time>
<speed>2.820000</speed>
<extensions>
<speed>2.8</speed>
<temp>0.00</temp>
<bpm>0</bpm>
<rpm>0.00</rpm>
</extensions>
</trkpt>
<trkpt lat="63.719020844" lon="-19.912549973">
<ele>74.876953</ele>
<time>2012-07-26T18:33:09Z</time>
<speed>0.960000</speed>
<extensions>
<speed>1.0</speed>
<temp>0.00</temp>
<bpm>0</bpm>
<rpm>0.00</rpm>
</extensions>
</trkpt>
<trkpt lat="63.719020844" lon="-19.912576675">
<ele>75.000000</ele>
<time>2012-07-26T18:33:14Z</time>
<speed>0.070000</speed>
<extensions>
<speed>0.1</speed>
<temp>0.00</temp>
<bpm>0</bpm>
<rpm>0.00</rpm>
</extensions>
</trkpt>
<trkpt lat="63.719020844" lon="-19.912576675">
<ele>75.074219</ele>
<time>2012-07-26T18:33:19Z</time>
<speed>0.050000</speed>
<extensions>
<speed>0.1</speed>
<temp>0.00</temp>
<bpm>0</bpm>
<rpm>0.00</rpm>
</extensions>
</trkpt>
<trkpt lat="63.719032288" lon="-19.912666321">
<ele>75.156250</ele>
<time>2012-07-26T18:33:24Z</time>
<speed>1.680000</speed>
<extensions>
<speed>1.7</speed>
<temp>0.00</temp>
<bpm>0</bpm>
<rpm>0.00</rpm>
</extensions>
</trkpt>
<trkpt lat="63.719066620" lon="-19.912885666">
<ele>74.525391</ele>
<time>2012-07-26T18:33:29Z</time>
<speed>2.760000</speed>
<extensions>
<speed>2.8</speed>
<temp>0.00</temp>
<bpm>0</bpm>
<rpm>0.00</rpm>
</extensions>
</trkpt>
<trkpt lat="63.719116211" lon="-19.913219452">
<ele>73.960938</ele>
<time>2012-07-26T18:33:34Z</time>
<speed>3.330000</speed>
<extensions>
<speed>3.3</speed>
<temp>0.00</temp>
<bpm>0</bpm>
<rpm>0.00</rpm>
</extensions>
</trkpt>
<trkpt lat="63.719169617" lon="-19.913534164">
<ele>75.066406</ele>
<time>2012-07-26T18:33:39Z</time>
<speed>3.180000</speed>
<extensions>
<speed>3.2</speed>
<temp>0.00</temp>
<bpm>0</bpm>
<rpm>0.00</rpm>
</extensions>
</trkpt>
<trkpt lat="63.719200134" lon="-19.913829803">
<ele>75.710938</ele>
<time>2012-07-26T18:33:44Z</time>
<speed>2.710000</speed>
<extensions>
<speed>2.7</speed>
<temp>0.00</temp>
<bpm>0</bpm>
<rpm>0.00</rpm>
</extensions>
</trkpt>
<trkpt lat="63.719238281" lon="-19.914096832">
<ele>75.408203</ele>
<time>2012-07-26T18:33:49Z</time>
<speed>3.370000</speed>
<extensions>
<speed>3.4</speed>
<temp>0.00</temp>
<bpm>0</bpm>
<rpm>0.00</rpm>
</extensions>
</trkpt>
<trkpt lat="63.719299316" lon="-19.914487839">
<ele>75.167969</ele>
<time>2012-07-26T18:33:54Z</time>
<speed>4.360000</speed>
<extensions>
<speed>4.4</speed>
<temp>0.00</temp>
<bpm>0</bpm>
<rpm>0.00</rpm>
</extensions>
</trkpt>
<trkpt lat="63.719367981" lon="-19.914918900">
<ele>75.191406</ele>
<time>2012-07-26T18:33:59Z</time>
<speed>4.730000</speed>
<extensions>
<speed>4.7</speed>
<temp>0.00</temp>
<bpm>0</bpm>
<rpm>0.00</rpm>
</extensions>
</trkpt>
<trkpt lat="63.719436646" lon="-19.915403366">
<ele>73.765625</ele>
<time>2012-07-26T18:34:04Z</time>
<speed>5.180000</speed>
<extensions>
<speed>5.2</speed>
<temp>0.00</temp>
<bpm>0</bpm>
<rpm>0.00</rpm>
</extensions>
</trkpt>
<trkpt lat="63.719509125" lon="-19.915866852">
<ele>73.914063</ele>
<time>2012-07-26T18:34:09Z</time>
<speed>4.720000</speed>
<extensions>
<speed>4.7</speed>
<temp>0.00</temp>
<bpm>0</bpm>
<rpm>0.00</rpm>
</extensions>
</trkpt>
<trkpt lat="63.719566345" lon="-19.916297913">
<ele>71.519531</ele>
<time>2012-07-26T18:34:14Z</time>
<speed>4.140000</speed>
<extensions>
<speed>4.1</speed>
<temp>0.00</temp>
<bpm>0</bpm>
<rpm>0.00</rpm>
</extensions>
</trkpt>
<trkpt lat="63.719615936" lon="-19.916679382">
<ele>70.867188</ele>
<time>2012-07-26T18:34:19Z</time>
<speed>3.750000</speed>
<extensions>
<speed>3.8</speed>
<temp>0.00</temp>
<bpm>0</bpm>
<rpm>0.00</rpm>
</extensions>
</trkpt>
<trkpt lat="63.719654083" lon="-19.917024612">
<ele>69.515625</ele>
<time>2012-07-26T18:34:24Z</time>
<speed>3.450000</speed>
<extensions>
<speed>3.5</speed>
<temp>0.00</temp>
<bpm>0</bpm>
<rpm>0.00</rpm>
</extensions>
</trkpt>
<trkpt lat="63.719699860" lon="-19.917364120">
<ele>70.412109</ele>
<time>2012-07-26T18:34:29Z</time>
<speed>3.870000</speed>
<extensions>
<speed>3.9</speed>
<temp>0.00</temp>
<bpm>0</bpm>
<rpm>0.00</rpm>
</extensions>
</trkpt>
<trkpt lat="63.719749451" lon="-19.917774200">
<ele>71.533203</ele>
<time>2012-07-26T18:34:34Z</time>
<speed>4.580000</speed>
<extensions>
<speed>4.6</speed>
<temp>0.00</temp>
<bpm>0</bpm>
<rpm>0.00</rpm>
</extensions>
</trkpt>
<trkpt lat="63.719806671" lon="-19.918247223">
<ele>72.238281</ele>
<time>2012-07-26T18:34:39Z</time>
<speed>4.810000</speed>
<extensions>
<speed>4.8</speed>
<temp>0.00</temp>
<bpm>0</bpm>
<rpm>0.00</rpm>
</extensions>
</trkpt>
<trkpt lat="63.719856262" lon="-19.918701172">
<ele>71.285156</ele>
<time>2012-07-26T18:34:44Z</time>
<speed>4.360000</speed>
<extensions>
<speed>4.4</speed>
<temp>0.00</temp>
<bpm>0</bpm>
<rpm>0.00</rpm>
</extensions>
</trkpt>
<trkpt lat="63.719894409" lon="-19.919082642">
<ele>70.947266</ele>
<time>2012-07-26T18:34:49Z</time>
<speed>3.480000</speed>
<extensions>
<speed>3.5</speed>
<temp>0.00</temp>
<bpm>0</bpm>
<rpm>0.00</rpm>
</extensions>
</trkpt>
<trkpt lat="63.719932556" lon="-19.919502258">
<ele>68.910156</ele>
<time>2012-07-26T18:34:54Z</time>
<speed>4.650000</speed>
<extensions>
<speed>4.6</speed>
<temp>0.00</temp>
<bpm>0</bpm>
<rpm>0.00</rpm>
</extensions>
</trkpt>
<trkpt lat="63.719985962" lon="-19.919994354">
<ele>67.302734</ele>
<time>2012-07-26T18:34:59Z</time>
<speed>4.870000</speed>
<extensions>
<speed>4.9</speed>
<temp>0.00</temp>
<bpm>0</bpm>
<rpm>0.00</rpm>
</extensions>
</trkpt>
<trkpt lat="63.720024109" lon="-19.920478821">
<ele>68.125000</ele>
<time>2012-07-26T18:35:04Z</time>
<speed>4.310000</speed>
<extensions>
<speed>4.3</speed>
<temp>0.00</temp>
<bpm>0</bpm>
<rpm>0.00</rpm>
</extensions>
</trkpt>
<trkpt lat="63.720088959" lon="-19.920948029">
<ele>68.001953</ele>
<time>2012-07-26T18:35:09Z</time>
<speed>5.510000</speed>
<extensions>
<speed>5.5</speed>
<temp>0.00</temp>
<bpm>0</bpm>
<rpm>0.00</rpm>
</extensions>
</trkpt>
<trkpt lat="63.720161438" lon="-19.921508789">
<ele>66.347656</ele>
<time>2012-07-26T18:35:14Z</time>
<speed>6.320000</speed>
<extensions>
<speed>6.3</speed>
<temp>0.00</temp>
<bpm>0</bpm>
<rpm>0.00</rpm>
</extensions>
</trkpt>
<trkpt lat="63.720233917" lon="-19.922142029">
<ele>66.935547</ele>
<time>2012-07-26T18:35:19Z</time>
<speed>6.470000</speed>
<extensions>
<speed>6.5</speed>
<temp>0.00</temp>
<bpm>0</bpm>
<rpm>0.00</rpm>
</extensions>
</trkpt>
<trkpt lat="63.720302582" lon="-19.922794342">
<ele>67.601563</ele>
<time>2012-07-26T18:35:24Z</time>
<speed>6.310000</speed>
<extensions>
<speed>6.3</speed>
<temp>0.00</temp>
<bpm>0</bpm>
<rpm>0.00</rpm>
</extensions>
</trkpt>
<trkpt lat="63.720371246" lon="-19.923389435">
<ele>68.494141</ele>
<time>2012-07-26T18:35:29Z</time>
<speed>6.060000</speed>
<extensions>
<speed>6.1</speed>
<temp>0.00</temp>
<bpm>0</bpm>
<rpm>0.00</rpm>
</extensions>
</trkpt>
<trkpt lat="63.720436096" lon="-19.924055099">
<ele>67.740234</ele>
<time>2012-07-26T18:35:34Z</time>
<speed>6.840000</speed>
<extensions>
<speed>6.8</speed>
<temp>0.00</temp>
<bpm>0</bpm>
<rpm>0.00</rpm>
</extensions>
</trkpt>
<trkpt lat="63.720512390" lon="-19.924697876">
<ele>69.062500</ele>
<time>2012-07-26T18:35:39Z</time>
<speed>6.100000</speed>
<extensions>
<speed>6.1</speed>
<temp>0.00</temp>
<bpm>0</bpm>
<rpm>0.00</rpm>
</extensions>
</trkpt>
<trkpt lat="63.720592499" lon="-19.925216675">
<ele>71.123047</ele>
<time>2012-07-26T18:35:44Z</time>
<speed>5.410000</speed>
<extensions>
<speed>5.4</speed>
<temp>0.00</temp>
<bpm>0</bpm>
<rpm>0.00</rpm>
</extensions>
</trkpt>
<trkpt lat="63.720657349" lon="-19.925748825">
<ele>71.599609</ele>
<time>2012-07-26T18:35:49Z</time>
<speed>5.760000</speed>
<extensions>
<speed>5.8</speed>
<temp>0.00</temp>
<bpm>0</bpm>
<rpm>0.00</rpm>
</extensions>
</trkpt>
<trkpt lat="63.720710754" lon="-19.926355362">
<ele>70.294922</ele>
<time>2012-07-26T18:35:54Z</time>
<speed>6.000000</speed>
<extensions>
<speed>6.0</speed>
<temp>0.00</temp>
<bpm>0</bpm>
<rpm>0.00</rpm>
</extensions>
</trkpt>
<trkpt lat="63.720783234" lon="-19.926986694">
<ele>68.527344</ele>
<time>2012-07-26T18:35:59Z</time>
<speed>6.470000</speed>
<extensions>
<speed>6.5</speed>
<temp>0.00</temp>
<bpm>0</bpm>
<rpm>0.00</rpm>
</extensions>
</trkpt>
<trkpt lat="63.720855713" lon="-19.927585602">
<ele>68.621094</ele>
<time>2012-07-26T18:36:04Z</time>
<speed>5.650000</speed>
<extensions>
<speed>5.7</speed>
<temp>0.00</temp>
<bpm>0</bpm>
<rpm>0.00</rpm>
</extensions>
</trkpt>
<trkpt lat="63.720912933" lon="-19.928123474">
<ele>70.185547</ele>
<time>2012-07-26T18:36:09Z</time>
<speed>5.400000</speed>
<extensions>
<speed>5.4</speed>
<temp>0.00</temp>
<bpm>0</bpm>
<rpm>0.00</rpm>
</extensions>
</trkpt>
<trkpt lat="63.720973969" lon="-19.928693771">
<ele>69.394531</ele>
<time>2012-07-26T18:36:14Z</time>
<speed>5.980000</speed>
<extensions>
<speed>6.0</speed>
<temp>0.00</temp>
<bpm>0</bpm>
<rpm>0.00</rpm>
</extensions>
</trkpt>
<trkpt lat="63.721038818" lon="-19.929235458">
<ele>71.277344</ele>
<time>2012-07-26T18:36:19Z</time>
<speed>5.660000</speed>
<extensions>
<speed>5.7</speed>
<temp>0.00</temp>
<bpm>0</bpm>
<rpm>0.00</rpm>
</extensions>
</trkpt>
<trkpt lat="63.721107483" lon="-19.929817200">
<ele>69.210938</ele>
<time>2012-07-26T18:36:24Z</time>
<speed>6.100000</speed>
<extensions>
<speed>6.1</speed>
<temp>0.00</temp>
<bpm>0</bpm>
<rpm>0.00</rpm>
</extensions>
</trkpt>
<trkpt lat="63.721176147" lon="-19.930435181">
<ele>68.689453</ele>
<time>2012-07-26T18:36:29Z</time>
<speed>6.130000</speed>
<extensions>
<speed>6.1</speed>
<temp>0.00</temp>
<bpm>0</bpm>
<rpm>0.00</rpm>
</extensions>
</trkpt>
<trkpt lat="63.721240997" lon="-19.930990219">
<ele>68.980469</ele>
<time>2012-07-26T18:36:34Z</time>
<speed>5.540000</speed>
<extensions>
<speed>5.5</speed>
<temp>0.00</temp>
<bpm>0</bpm>
<rpm>0.00</rpm>
</extensions>
</trkpt>
<trkpt lat="63.721294403" lon="-19.931510925">
<ele>69.427734</ele>
<time>2012-07-26T18:36:39Z</time>
<speed>5.420000</speed>
<extensions>
<speed>5.4</speed>
<temp>0.00</temp>
<bpm>0</bpm>
<rpm>0.00</rpm>
</extensions>
</trkpt>
<trkpt lat="63.721359253" lon="-19.932065964">
<ele>70.310547</ele>
<time>2012-07-26T18:36:44Z</time>
<speed>6.080000</speed>
<extensions>
<speed>6.1</speed>
<temp>0.00</temp>
<bpm>0</bpm>
<rpm>0.00</rpm>
</extensions>
</trkpt>
<trkpt lat="63.721435547" lon="-19.932678223">
<ele>70.246094</ele>
<time>2012-07-26T18:36:49Z</time>
<speed>6.250000</speed>
<extensions>
<speed>6.3</speed>
<temp>0.00</temp>
<bpm>0</bpm>
<rpm>0.00</rpm>
</extensions>
</trkpt>
<trkpt lat="63.721508026" lon="-19.933284760">
<ele>69.064453</ele>
<time>2012-07-26T18:36:54Z</time>
<speed>5.760000</speed>
<extensions>
<speed>5.8</speed>
<temp>0.00</temp>
<bpm>0</bpm>
<rpm>0.00</rpm>
</extensions>
</trkpt>
<trkpt lat="63.721561432" lon="-19.933835983">
<ele>68.205078</ele>
<time>2012-07-26T18:36:59Z</time>
<speed>5.270000</speed>
<extensions>
<speed>5.3</speed>
<temp>0.00</temp>
<bpm>0</bpm>
<rpm>0.00</rpm>
</extensions>
</trkpt>
<trkpt lat="63.721626282" lon="-19.934389114">
<ele>68.486328</ele>
<time>2012-07-26T18:37:04Z</time>
<speed>6.020000</speed>
<extensions>
<speed>6.0</speed>
<temp>0.00</temp>
<bpm>0</bpm>
<rpm>0.00</rpm>
</extensions>
</trkpt>
<trkpt lat="63.721694946" lon="-19.935016632">
<ele>67.675781</ele>
<time>2012-07-26T18:37:09Z</time>
<speed>6.370000</speed>
<extensions>
<speed>6.4</speed>
<temp>0.00</temp>
<bpm>0</bpm>
<rpm>0.00</rpm>
</extensions>
</trkpt>
<trkpt lat="63.721767426" lon="-19.935642242">
<ele>67.380859</ele>
<time>2012-07-26T18:37:14Z</time>
<speed>6.090000</speed>
<extensions>
<speed>6.1</speed>
<temp>0.00</temp>
<bpm>0</bpm>
<rpm>0.00</rpm>
</extensions>
</trkpt>
<trkpt lat="63.721824646" lon="-19.936193466">
<ele>67.755859</ele>
<time>2012-07-26T18:37:19Z</time>
<speed>5.390000</speed>
<extensions>
<speed>5.4</speed>
<temp>0.00</temp>
<bpm>0</bpm>
<rpm>0.00</rpm>
</extensions>
</trkpt>
<trkpt lat="63.721881866" lon="-19.936683655">
<ele>67.746094</ele>
<time>2012-07-26T18:37:24Z</time>
<speed>4.790000</speed>
<extensions>
<speed>4.8</speed>
<temp>0.00</temp>
<bpm>0</bpm>
<rpm>0.00</rpm>
</extensions>
</trkpt>
<trkpt lat="63.721931458" lon="-19.937116623">
<ele>68.310547</ele>
<time>2012-07-26T18:37:29Z</time>
<speed>4.080000</speed>
<extensions>
<speed>4.1</speed>
<temp>0.00</temp>
<bpm>0</bpm>
<rpm>0.00</rpm>
</extensions>
</trkpt>
<trkpt lat="63.721969604" lon="-19.937494278">
<ele>67.664063</ele>
<time>2012-07-26T18:37:34Z</time>
<speed>3.760000</speed>
<extensions>
<speed>3.8</speed>
<temp>0.00</temp>
<bpm>0</bpm>
<rpm>0.00</rpm>
</extensions>
</trkpt>
<trkpt lat="63.722007751" lon="-19.937889099">
<ele>65.869141</ele>
<time>2012-07-26T18:37:39Z</time>
<speed>3.980000</speed>
<extensions>
<speed>4.0</speed>
<temp>0.00</temp>
<bpm>0</bpm>
<rpm>0.00</rpm>
</extensions>
</trkpt>
<trkpt lat="63.722061157" lon="-19.938379288">
<ele>64.570313</ele>
<time>2012-07-26T18:37:44Z</time>
<speed>5.510000</speed>
<extensions>
<speed>5.5</speed>
<temp>0.00</temp>
<bpm>0</bpm>
<rpm>0.00</rpm>
</extensions>
</trkpt>
<trkpt lat="63.722122192" lon="-19.938959122">
<ele>64.771484</ele>
<time>2012-07-26T18:37:49Z</time>
<speed>5.990000</speed>
<extensions>
<speed>6.0</speed>
<temp>0.00</temp>
<bpm>0</bpm>
<rpm>0.00</rpm>
</extensions>
</trkpt>
<trkpt lat="63.722194672" lon="-19.939548492">
<ele>65.755859</ele>
<time>2012-07-26T18:37:54Z</time>
<speed>6.260000</speed>
<extensions>
<speed>6.3</speed>
<temp>0.00</temp>
<bpm>0</bpm>
<rpm>0.00</rpm>
</extensions>
</trkpt>
<trkpt lat="63.722267151" lon="-19.940122604">
<ele>66.255859</ele>
<time>2012-07-26T18:37:59Z</time>
<speed>5.640000</speed>
<extensions>
<speed>5.6</speed>
<temp>0.00</temp>
<bpm>0</bpm>
<rpm>0.00</rpm>
</extensions>
</trkpt>
<trkpt lat="63.722332001" lon="-19.940713882">
<ele>66.386719</ele>
<time>2012-07-26T18:38:04Z</time>
<speed>6.350000</speed>
<extensions>
<speed>6.4</speed>
<temp>0.00</temp>
<bpm>0</bpm>
<rpm>0.00</rpm>
</extensions>
</trkpt>
<trkpt lat="63.722408295" lon="-19.941326141">
<ele>65.664063</ele>
<time>2012-07-26T18:38:09Z</time>
<speed>6.170000</speed>
<extensions>
<speed>6.2</speed>
<temp>0.00</temp>
<bpm>0</bpm>
<rpm>0.00</rpm>
</extensions>
</trkpt>
<trkpt lat="63.722465515" lon="-19.941915512">
<ele>64.951172</ele>
<time>2012-07-26T18:38:14Z</time>
<speed>5.580000</speed>
<extensions>
<speed>5.6</speed>
<temp>0.00</temp>
<bpm>0</bpm>
<rpm>0.00</rpm>
</extensions>
</trkpt>
<trkpt lat="63.722526550" lon="-19.942422867">
<ele>65.445313</ele>
<time>2012-07-26T18:38:19Z</time>
<speed>5.390000</speed>
<extensions>
<speed>5.4</speed>
<temp>0.00</temp>
<bpm>0</bpm>
<rpm>0.00</rpm>
</extensions>
</trkpt>
<trkpt lat="63.722583771" lon="-19.942993164">
<ele>64.654297</ele>
<time>2012-07-26T18:38:24Z</time>
<speed>5.600000</speed>
<extensions>
<speed>5.6</speed>
<temp>0.00</temp>
<bpm>0</bpm>
<rpm>0.00</rpm>
</extensions>
</trkpt>
<trkpt lat="63.722644806" lon="-19.943487167">
<ele>64.908203</ele>
<time>2012-07-26T18:38:29Z</time>
<speed>4.720000</speed>
<extensions>
<speed>4.7</speed>
<temp>0.00</temp>
<bpm>0</bpm>
<rpm>0.00</rpm>
</extensions>
</trkpt>
<trkpt lat="63.722690582" lon="-19.943939209">
<ele>66.050781</ele>
<time>2012-07-26T18:38:34Z</time>
<speed>4.210000</speed>
<extensions>
<speed>4.2</speed>
<temp>0.00</temp>
<bpm>0</bpm>
<rpm>0.00</rpm>
</extensions>
</trkpt>
<trkpt lat="63.722747803" lon="-19.944410324">
<ele>65.207031</ele>
<time>2012-07-26T18:38:39Z</time>
<speed>4.920000</speed>
<extensions>
<speed>4.9</speed>
<temp>0.00</temp>
<bpm>0</bpm>
<rpm>0.00</rpm>
</extensions>
</trkpt>
<trkpt lat="63.722805023" lon="-19.944908142">
<ele>63.756836</ele>
<time>2012-07-26T18:38:44Z</time>
<speed>5.090000</speed>
<extensions>
<speed>5.1</speed>
<temp>0.00</temp>
<bpm>0</bpm>
<rpm>0.00</rpm>
</extensions>
</trkpt>
<trkpt lat="63.722869873" lon="-19.945436478">
<ele>63.107422</ele>
<time>2012-07-26T18:38:49Z</time>
<speed>5.470000</speed>
<extensions>
<speed>5.5</speed>
<temp>0.00</temp>
<bpm>0</bpm>
<rpm>0.00</rpm>
</extensions>
</trkpt>
<trkpt lat="63.722919464" lon="-19.945991516">
<ele>63.622070</ele>
<time>2012-07-26T18:38:54Z</time>
<speed>5.610000</speed>
<extensions>
<speed>5.6</speed>
<temp>0.00</temp>
<bpm>0</bpm>
<rpm>0.00</rpm>
</extensions>
</trkpt>
<trkpt lat="63.722969055" lon="-19.946573257">
<ele>63.611328</ele>
<time>2012-07-26T18:38:59Z</time>
<speed>5.520000</speed>
<extensions>
<speed>5.5</speed>
<temp>0.00</temp>
<bpm>0</bpm>
<rpm>0.00</rpm>
</extensions>
</trkpt>
<trkpt lat="63.723037720" lon="-19.947101593">
<ele>63.683594</ele>
<time>2012-07-26T18:39:04Z</time>
<speed>5.490000</speed>
<extensions>
<speed>5.5</speed>
<temp>0.00</temp>
<bpm>0</bpm>
<rpm>0.00</rpm>
</extensions>
</trkpt>
<trkpt lat="63.723102570" lon="-19.947660446">
<ele>63.870117</ele>
<time>2012-07-26T18:39:09Z</time>
<speed>5.700000</speed>
<extensions>
<speed>5.7</speed>
<temp>0.00</temp>
<bpm>0</bpm>
<rpm>0.00</rpm>
</extensions>
</trkpt>
<trkpt lat="63.723159790" lon="-19.948219299">
<ele>64.505859</ele>
<time>2012-07-26T18:39:14Z</time>
<speed>5.720000</speed>
<extensions>
<speed>5.7</speed>
<temp>0.00</temp>
<bpm>0</bpm>
<rpm>0.00</rpm>
</extensions>
</trkpt>
<trkpt lat="63.723220825" lon="-19.948781967">
<ele>64.796875</ele>
<time>2012-07-26T18:39:19Z</time>
<speed>5.830000</speed>
<extensions>
<speed>5.8</speed>
<temp>0.00</temp>
<bpm>0</bpm>
<rpm>0.00</rpm>
</extensions>
</trkpt>
<trkpt lat="63.723274231" lon="-19.949369431">
<ele>64.220703</ele>
<time>2012-07-26T18:39:24Z</time>
<speed>5.970000</speed>
<extensions>
<speed>6.0</speed>
<temp>0.00</temp>
<bpm>0</bpm>
<rpm>0.00</rpm>
</extensions>
</trkpt>
<trkpt lat="63.723323822" lon="-19.949926376">
<ele>63.248047</ele>
<time>2012-07-26T18:39:29Z</time>
<speed>5.350000</speed>
<extensions>
<speed>5.4</speed>
<temp>0.00</temp>
<bpm>0</bpm>
<rpm>0.00</rpm>
</extensions>
</trkpt>
<trkpt lat="63.723354340" lon="-19.950445175">
<ele>63.512695</ele>
<time>2012-07-26T18:39:34Z</time>
<speed>4.990000</speed>
<extensions>
<speed>5.0</speed>
<temp>0.00</temp>
<bpm>0</bpm>
<rpm>0.00</rpm>
</extensions>
</trkpt>
<trkpt lat="63.723396301" lon="-19.950944901">
<ele>63.410156</ele>
<time>2012-07-26T18:39:39Z</time>
<speed>5.080000</speed>
<extensions>
<speed>5.1</speed>
<temp>0.00</temp>
<bpm>0</bpm>
<rpm>0.00</rpm>
</extensions>
</trkpt>
<trkpt lat="63.723419189" lon="-19.951448441">
<ele>62.579102</ele>
<time>2012-07-26T18:39:44Z</time>
<speed>5.140000</speed>
<extensions>
<speed>5.1</speed>
<temp>0.00</temp>
<bpm>0</bpm>
<rpm>0.00</rpm>
</extensions>
</trkpt>
<trkpt lat="63.723438263" lon="-19.951999664">
<ele>63.580078</ele>
<time>2012-07-26T18:39:49Z</time>
<speed>5.400000</speed>
<extensions>
<speed>5.4</speed>
<temp>0.00</temp>
<bpm>0</bpm>
<rpm>0.00</rpm>
</extensions>
</trkpt>
<trkpt lat="63.723449707" lon="-19.952548981">
<ele>63.979492</ele>
<time>2012-07-26T18:39:54Z</time>
<speed>5.400000</speed>
<extensions>
<speed>5.4</speed>
<temp>0.00</temp>
<bpm>0</bpm>
<rpm>0.00</rpm>
</extensions>
</trkpt>
<trkpt lat="63.723461151" lon="-19.953094482">
<ele>64.361328</ele>
<time>2012-07-26T18:39:59Z</time>
<speed>5.470000</speed>
<extensions>
<speed>5.5</speed>
<temp>0.00</temp>
<bpm>0</bpm>
<rpm>0.00</rpm>
</extensions>
</trkpt>
<trkpt lat="63.723464966" lon="-19.953636169">
<ele>66.306641</ele>
<time>2012-07-26T18:40:04Z</time>
<speed>4.830000</speed>
<extensions>
<speed>4.8</speed>
<temp>0.00</temp>
<bpm>0</bpm>
<rpm>0.00</rpm>
</extensions>
</trkpt>
<trkpt lat="63.723453522" lon="-19.954082489">
<ele>65.421875</ele>
<time>2012-07-26T18:40:09Z</time>
<speed>4.010000</speed>
<extensions>
<speed>4.0</speed>
<temp>0.00</temp>
<bpm>0</bpm>
<rpm>0.00</rpm>
</extensions>
</trkpt>
<trkpt lat="63.723457336" lon="-19.954463959">
<ele>64.410156</ele>
<time>2012-07-26T18:40:14Z</time>
<speed>3.260000</speed>
<extensions>
<speed>3.3</speed>
<temp>0.00</temp>
<bpm>0</bpm>
<rpm>0.00</rpm>
</extensions>
</trkpt>
<trkpt lat="63.723457336" lon="-19.954753876">
<ele>64.259766</ele>
<time>2012-07-26T18:40:19Z</time>
<speed>2.480000</speed>
<extensions>
<speed>2.5</speed>
<temp>0.00</temp>
<bpm>0</bpm>
<rpm>0.00</rpm>
</extensions>
</trkpt>
<trkpt lat="63.723461151" lon="-19.955022812">
<ele>64.021484</ele>
<time>2012-07-26T18:40:24Z</time>
<speed>3.000000</speed>
<extensions>
<speed>3.0</speed>
<temp>0.00</temp>
<bpm>0</bpm>
<rpm>0.00</rpm>
</extensions>
</trkpt>
<trkpt lat="63.723468781" lon="-19.955440521">
<ele>64.082031</ele>
<time>2012-07-26T18:40:29Z</time>
<speed>4.570000</speed>
<extensions>
<speed>4.6</speed>
<temp>0.00</temp>
<bpm>0</bpm>
<rpm>0.00</rpm>
</extensions>
</trkpt>
<trkpt lat="63.723461151" lon="-19.955936432">
<ele>65.505859</ele>
<time>2012-07-26T18:40:34Z</time>
<speed>4.780000</speed>
<extensions>
<speed>4.8</speed>
<temp>0.00</temp>
<bpm>0</bpm>
<rpm>0.00</rpm>
</extensions>
</trkpt>
<trkpt lat="63.723468781" lon="-19.956363678">
<ele>65.193359</ele>
<time>2012-07-26T18:40:39Z</time>
<speed>4.310000</speed>
<extensions>
<speed>4.3</speed>
<temp>0.00</temp>
<bpm>0</bpm>
<rpm>0.00</rpm>
</extensions>
</trkpt>
<trkpt lat="63.723468781" lon="-19.956821442">
<ele>66.292969</ele>
<time>2012-07-26T18:40:44Z</time>
<speed>4.380000</speed>
<extensions>
<speed>4.4</speed>
<temp>0.00</temp>
<bpm>0</bpm>
<rpm>0.00</rpm>
</extensions>
</trkpt>
<trkpt lat="63.723476410" lon="-19.957256317">
<ele>66.734375</ele>
<time>2012-07-26T18:40:49Z</time>
<speed>4.130000</speed>
<extensions>
<speed>4.1</speed>
<temp>0.00</temp>
<bpm>0</bpm>
<rpm>0.00</rpm>
</extensions>
</trkpt>
<trkpt lat="63.723476410" lon="-19.957719803">
<ele>64.916016</ele>
<time>2012-07-26T18:40:54Z</time>
<speed>4.680000</speed>
<extensions>
<speed>4.7</speed>
<temp>0.00</temp>
<bpm>0</bpm>
<rpm>0.00</rpm>
</extensions>
</trkpt>
<trkpt lat="63.723480225" lon="-19.958198547">
<ele>67.517578</ele>
<time>2012-07-26T18:40:59Z</time>
<speed>4.760000</speed>
<extensions>
<speed>4.8</speed>
<temp>0.00</temp>
<bpm>0</bpm>
<rpm>0.00</rpm>
</extensions>
</trkpt>
<trkpt lat="63.723487854" lon="-19.958681107">
<ele>65.916016</ele>
<time>2012-07-26T18:41:04Z</time>
<speed>5.100000</speed>
<extensions>
<speed>5.1</speed>
<temp>0.00</temp>
<bpm>0</bpm>
<rpm>0.00</rpm>
</extensions>
</trkpt>
<trkpt lat="63.723491669" lon="-19.959171295">
<ele>65.105469</ele>
<time>2012-07-26T18:41:09Z</time>
<speed>4.670000</speed>
<extensions>
<speed>4.7</speed>
<temp>0.00</temp>
<bpm>0</bpm>
<rpm>0.00</rpm>
</extensions>
</trkpt>
<trkpt lat="63.723487854" lon="-19.959629059">
<ele>64.839844</ele>
<time>2012-07-26T18:41:14Z</time>
<speed>4.530000</speed>
<extensions>
<speed>4.5</speed>
<temp>0.00</temp>
<bpm>0</bpm>
<rpm>0.00</rpm>
</extensions>
</trkpt>
<trkpt lat="63.723484039" lon="-19.960121155">
<ele>63.345703</ele>
<time>2012-07-26T18:41:19Z</time>
<speed>5.040000</speed>
<extensions>
<speed>5.0</speed>
<temp>0.00</temp>
<bpm>0</bpm>
<rpm>0.00</rpm>
</extensions>
</trkpt>
<trkpt lat="63.723487854" lon="-19.960649490">
<ele>64.333984</ele>
<time>2012-07-26T18:41:24Z</time>
<speed>5.160000</speed>
<extensions>
<speed>5.2</speed>
<temp>0.00</temp>
<bpm>0</bpm>
<rpm>0.00</rpm>
</extensions>
</trkpt>
<trkpt lat="63.723491669" lon="-19.961168289">
<ele>63.789063</ele>
<time>2012-07-26T18:41:29Z</time>
<speed>5.380000</speed>
<extensions>
<speed>5.4</speed>
<temp>0.00</temp>
<bpm>0</bpm>
<rpm>0.00</rpm>
</extensions>
</trkpt>
<trkpt lat="63.723510742" lon="-19.961751938">
<ele>62.603516</ele>
<time>2012-07-26T18:41:34Z</time>
<speed>5.680000</speed>
<extensions>
<speed>5.7</speed>
<temp>0.00</temp>
<bpm>0</bpm>
<rpm>0.00</rpm>
</extensions>
</trkpt>
<trkpt lat="63.723510742" lon="-19.962318420">
<ele>62.532227</ele>
<time>2012-07-26T18:41:39Z</time>
<speed>6.010000</speed>
<extensions>
<speed>6.0</speed>
<temp>0.00</temp>
<bpm>0</bpm>
<rpm>0.00</rpm>
</extensions>
</trkpt>
<trkpt lat="63.723526001" lon="-19.962944031">
<ele>63.984375</ele>
<time>2012-07-26T18:41:44Z</time>
<speed>6.030000</speed>
<extensions>
<speed>6.0</speed>
<temp>0.00</temp>
<bpm>0</bpm>
<rpm>0.00</rpm>
</extensions>
</trkpt>
<trkpt lat="63.723526001" lon="-19.963531494">
<ele>62.726563</ele>
<time>2012-07-26T18:41:49Z</time>
<speed>5.760000</speed>
<extensions>
<speed>5.8</speed>
<temp>0.00</temp>
<bpm>0</bpm>
<rpm>0.00</rpm>
</extensions>
</trkpt>
<trkpt lat="63.723537445" lon="-19.964147568">
<ele>61.977539</ele>
<time>2012-07-26T18:41:54Z</time>
<speed>6.240000</speed>
<extensions>
<speed>6.2</speed>
<temp>0.00</temp>
<bpm>0</bpm>
<rpm>0.00</rpm>
</extensions>
</trkpt>
<trkpt lat="63.723545074" lon="-19.964763641">
<ele>60.544922</ele>
<time>2012-07-26T18:41:59Z</time>
<speed>5.870000</speed>
<extensions>
<speed>5.9</speed>
<temp>0.00</temp>
<bpm>0</bpm>
<rpm>0.00</rpm>
</extensions>
</trkpt>
<trkpt lat="63.723560333" lon="-19.965326309">
<ele>60.291992</ele>
<time>2012-07-26T18:42:04Z</time>
<speed>5.350000</speed>
<extensions>
<speed>5.4</speed>
<temp>0.00</temp>
<bpm>0</bpm>
<rpm>0.00</rpm>
</extensions>
</trkpt>
<trkpt lat="63.723583221" lon="-19.965822220">
<ele>60.173828</ele>
<time>2012-07-26T18:42:09Z</time>
<speed>4.710000</speed>
<extensions>
<speed>4.7</speed>
<temp>0.00</temp>
<bpm>0</bpm>
<rpm>0.00</rpm>
</extensions>
</trkpt>
<trkpt lat="63.723598480" lon="-19.966331482">
<ele>58.846680</ele>
<time>2012-07-26T18:42:14Z</time>
<speed>5.320000</speed>
<extensions>
<speed>5.3</speed>
<temp>0.00</temp>
<bpm>0</bpm>
<rpm>0.00</rpm>
</extensions>
</trkpt>
<trkpt lat="63.723625183" lon="-19.966894150">
<ele>58.470703</ele>
<time>2012-07-26T18:42:19Z</time>
<speed>5.850000</speed>
<extensions>
<speed>5.8</speed>
<temp>0.00</temp>
<bpm>0</bpm>
<rpm>0.00</rpm>
</extensions>
</trkpt>
<trkpt lat="63.723655701" lon="-19.967456818">
<ele>58.543945</ele>
<time>2012-07-26T18:42:24Z</time>
<speed>5.600000</speed>
<extensions>
<speed>5.6</speed>
<temp>0.00</temp>
<bpm>0</bpm>
<rpm>0.00</rpm>
</extensions>
</trkpt>
<trkpt lat="63.723701477" lon="-19.968057632">
<ele>56.181641</ele>
<time>2012-07-26T18:42:29Z</time>
<speed>6.140000</speed>
<extensions>
<speed>6.1</speed>
<temp>0.00</temp>
<bpm>0</bpm>
<rpm>0.00</rpm>
</extensions>
</trkpt>
<trkpt lat="63.723747253" lon="-19.968700409">
<ele>57.060547</ele>
<time>2012-07-26T18:42:34Z</time>
<speed>6.400000</speed>
<extensions>
<speed>6.4</speed>
<temp>0.00</temp>
<bpm>0</bpm>
<rpm>0.00</rpm>
</extensions>
</trkpt>
<trkpt lat="63.723789215" lon="-19.969356537">
<ele>57.362305</ele>
<time>2012-07-26T18:42:39Z</time>
<speed>6.620000</speed>
<extensions>
<speed>6.6</speed>
<temp>0.00</temp>
<bpm>0</bpm>
<rpm>0.00</rpm>
</extensions>
</trkpt>
<trkpt lat="63.723842621" lon="-19.969978333">
<ele>56.062500</ele>
<time>2012-07-26T18:42:44Z</time>
<speed>5.940000</speed>
<extensions>
<speed>5.9</speed>
<temp>0.00</temp>
<bpm>0</bpm>
<rpm>0.00</rpm>
</extensions>
</trkpt>
<trkpt lat="63.723907471" lon="-19.970579147">
<ele>54.906250</ele>
<time>2012-07-26T18:42:49Z</time>
<speed>6.220000</speed>
<extensions>
<speed>6.2</speed>
<temp>0.00</temp>
<bpm>0</bpm>
<rpm>0.00</rpm>
</extensions>
</trkpt>
<trkpt lat="63.723976135" lon="-19.971200943">
<ele>55.487305</ele>
<time>2012-07-26T18:42:54Z</time>
<speed>6.590000</speed>
<extensions>
<speed>6.6</speed>
<temp>0.00</temp>
<bpm>0</bpm>
<rpm>0.00</rpm>
</extensions>
</trkpt>
<trkpt lat="63.724040985" lon="-19.971847534">
<ele>56.133789</ele>
<time>2012-07-26T18:42:59Z</time>
<speed>6.520000</speed>
<extensions>
<speed>6.5</speed>
<temp>0.00</temp>
<bpm>0</bpm>
<rpm>0.00</rpm>
</extensions>
</trkpt>
<trkpt lat="63.724121094" lon="-19.972511292">
<ele>55.877930</ele>
<time>2012-07-26T18:43:04Z</time>
<speed>6.830000</speed>
<extensions>
<speed>6.8</speed>
<temp>0.00</temp>
<bpm>0</bpm>
<rpm>0.00</rpm>
</extensions>
</trkpt>
<trkpt lat="63.724212646" lon="-19.973136902">
<ele>58.312500</ele>
<time>2012-07-26T18:43:09Z</time>
<speed>6.180000</speed>
<extensions>
<speed>6.2</speed>
<temp>0.00</temp>
<bpm>0</bpm>
<rpm>0.00</rpm>
</extensions>
</trkpt>
<trkpt lat="63.724300385" lon="-19.973695755">
<ele>58.710938</ele>
<time>2012-07-26T18:43:14Z</time>
<speed>5.350000</speed>
<extensions>
<speed>5.4</speed>
<temp>0.00</temp>
<bpm>0</bpm>
<rpm>0.00</rpm>
</extensions>
</trkpt>
<trkpt lat="63.724376678" lon="-19.974166870">
<ele>57.349609</ele>
<time>2012-07-26T18:43:19Z</time>
<speed>4.890000</speed>
<extensions>
<speed>4.9</speed>
<temp>0.00</temp>
<bpm>0</bpm>
<rpm>0.00</rpm>
</extensions>
</trkpt>
<trkpt lat="63.724452972" lon="-19.974618912">
<ele>58.769531</ele>
<time>2012-07-26T18:43:24Z</time>
<speed>5.370000</speed>
<extensions>
<speed>5.4</speed>
<temp>0.00</temp>
<bpm>0</bpm>
<rpm>0.00</rpm>
</extensions>
</trkpt>
<trkpt lat="63.724540710" lon="-19.975112915">
<ele>59.752930</ele>
<time>2012-07-26T18:43:29Z</time>
<speed>5.200000</speed>
<extensions>
<speed>5.2</speed>
<temp>0.00</temp>
<bpm>0</bpm>
<rpm>0.00</rpm>
</extensions>
</trkpt>
<trkpt lat="63.724636078" lon="-19.975599289">
<ele>60.859375</ele>
<time>2012-07-26T18:43:34Z</time>
<speed>5.330000</speed>
<extensions>
<speed>5.3</speed>
<temp>0.00</temp>
<bpm>0</bpm>
<rpm>0.00</rpm>
</extensions>
</trkpt>
<trkpt lat="63.724723816" lon="-19.976057053">
<ele>60.692383</ele>
<time>2012-07-26T18:43:39Z</time>
<speed>4.130000</speed>
<extensions>
<speed>4.1</speed>
<temp>0.00</temp>
<bpm>0</bpm>
<rpm>0.00</rpm>
</extensions>
</trkpt>
<trkpt lat="63.724800110" lon="-19.976427078">
<ele>61.863281</ele>
<time>2012-07-26T18:43:44Z</time>
<speed>4.270000</speed>
<extensions>
<speed>4.3</speed>
<temp>0.00</temp>
<bpm>0</bpm>
<rpm>0.00</rpm>
</extensions>
</trkpt>
<trkpt lat="63.724884033" lon="-19.976821899">
<ele>62.164063</ele>
<time>2012-07-26T18:43:49Z</time>
<speed>4.000000</speed>
<extensions>
<speed>4.0</speed>
<temp>0.00</temp>
<bpm>0</bpm>
<rpm>0.00</rpm>
</extensions>
</trkpt>
<trkpt lat="63.724964142" lon="-19.977210999">
<ele>63.048828</ele>
<time>2012-07-26T18:43:54Z</time>
<speed>4.210000</speed>
<extensions>
<speed>4.2</speed>
<temp>0.00</temp>
<bpm>0</bpm>
<rpm>0.00</rpm>
</extensions>
</trkpt>
<trkpt lat="63.725025177" lon="-19.977510452">
<ele>63.254883</ele>
<time>2012-07-26T18:43:59Z</time>
<speed>2.970000</speed>
<extensions>
<speed>3.0</speed>
<temp>0.00</temp>
<bpm>0</bpm>
<rpm>0.00</rpm>
</extensions>
</trkpt>
<trkpt lat="63.725074768" lon="-19.977775574">
<ele>63.067383</ele>
<time>2012-07-26T18:44:04Z</time>
<speed>3.190000</speed>
<extensions>
<speed>3.2</speed>
<temp>0.00</temp>
<bpm>0</bpm>
<rpm>0.00</rpm>
</extensions>
</trkpt>
<trkpt lat="63.725158691" lon="-19.978044510">
<ele>64.375000</ele>
<time>2012-07-26T18:44:09Z</time>
<speed>2.910000</speed>
<extensions>
<speed>2.9</speed>
<temp>0.00</temp>
<bpm>0</bpm>
<rpm>0.00</rpm>
</extensions>
</trkpt>
<trkpt lat="63.725208282" lon="-19.978303909">
<ele>63.585938</ele>
<time>2012-07-26T18:44:14Z</time>
<speed>2.230000</speed>
<extensions>
<speed>2.2</speed>
<temp>0.00</temp>
<bpm>0</bpm>
<rpm>0.00</rpm>
</extensions>
</trkpt>
<trkpt lat="63.725265503" lon="-19.978530884">
<ele>64.621094</ele>
<time>2012-07-26T18:44:19Z</time>
<speed>2.900000</speed>
<extensions>
<speed>2.9</speed>
<temp>0.00</temp>
<bpm>0</bpm>
<rpm>0.00</rpm>
</extensions>
</trkpt>
<trkpt lat="63.725337982" lon="-19.978794098">
<ele>65.439453</ele>
<time>2012-07-26T18:44:24Z</time>
<speed>3.430000</speed>
<extensions>
<speed>3.4</speed>
<temp>0.00</temp>
<bpm>0</bpm>
<rpm>0.00</rpm>
</extensions>
</trkpt>
<trkpt lat="63.725410461" lon="-19.979103088">
<ele>67.009766</ele>
<time>2012-07-26T18:44:29Z</time>
<speed>3.530000</speed>
<extensions>
<speed>3.5</speed>
<temp>0.00</temp>
<bpm>0</bpm>
<rpm>0.00</rpm>
</extensions>
</trkpt>
<trkpt lat="63.725494385" lon="-19.979412079">
<ele>67.941406</ele>
<time>2012-07-26T18:44:34Z</time>
<speed>3.640000</speed>
<extensions>
<speed>3.6</speed>
<temp>0.00</temp>
<bpm>0</bpm>
<rpm>0.00</rpm>
</extensions>
</trkpt>
<trkpt lat="63.725582123" lon="-19.979722977">
<ele>70.187500</ele>
<time>2012-07-26T18:44:39Z</time>
<speed>3.810000</speed>
<extensions>
<speed>3.8</speed>
<temp>0.00</temp>
<bpm>0</bpm>
<rpm>0.00</rpm>
</extensions>
</trkpt>
<trkpt lat="63.725658417" lon="-19.980005264">
<ele>71.398438</ele>
<time>2012-07-26T18:44:44Z</time>
<speed>2.790000</speed>
<extensions>
<speed>2.8</speed>
<temp>0.00</temp>
<bpm>0</bpm>
<rpm>0.00</rpm>
</extensions>
</trkpt>
<trkpt lat="63.725719452" lon="-19.980270386">
<ele>69.455078</ele>
<time>2012-07-26T18:44:49Z</time>
<speed>3.270000</speed>
<extensions>
<speed>3.3</speed>
<temp>0.00</temp>
<bpm>0</bpm>
<rpm>0.00</rpm>
</extensions>
</trkpt>
<trkpt lat="63.725776672" lon="-19.980531693">
<ele>68.384766</ele>
<time>2012-07-26T18:44:54Z</time>
<speed>2.470000</speed>
<extensions>
<speed>2.5</speed>
<temp>0.00</temp>
<bpm>0</bpm>
<rpm>0.00</rpm>
</extensions>
</trkpt>
<trkpt lat="63.725826263" lon="-19.980792999">
<ele>67.826172</ele>
<time>2012-07-26T18:44:59Z</time>
<speed>3.040000</speed>
<extensions>
<speed>3.0</speed>
<temp>0.00</temp>
<bpm>0</bpm>
<rpm>0.00</rpm>
</extensions>
</trkpt>
<trkpt lat="63.725894928" lon="-19.981096268">
<ele>67.527344</ele>
<time>2012-07-26T18:45:04Z</time>
<speed>3.500000</speed>
<extensions>
<speed>3.5</speed>
<temp>0.00</temp>
<bpm>0</bpm>
<rpm>0.00</rpm>
</extensions>
</trkpt>
<trkpt lat="63.725978851" lon="-19.981407166">
<ele>69.130859</ele>
<time>2012-07-26T18:45:09Z</time>
<speed>3.330000</speed>
<extensions>
<speed>3.3</speed>
<temp>0.00</temp>
<bpm>0</bpm>
<rpm>0.00</rpm>
</extensions>
</trkpt>
<trkpt lat="63.726020813" lon="-19.981636047">
<ele>68.736328</ele>
<time>2012-07-26T18:45:14Z</time>
<speed>2.030000</speed>
<extensions>
<speed>2.0</speed>
<temp>0.00</temp>
<bpm>0</bpm>
<rpm>0.00</rpm>
</extensions>
</trkpt>
<trkpt lat="63.726058960" lon="-19.981813431">
<ele>70.425781</ele>
<time>2012-07-26T18:45:19Z</time>
<speed>2.170000</speed>
<extensions>
<speed>2.2</speed>
<temp>0.00</temp>
<bpm>0</bpm>
<rpm>0.00</rpm>
</extensions>
</trkpt>
<trkpt lat="63.726104736" lon="-19.981971741">
<ele>71.750000</ele>
<time>2012-07-26T18:45:24Z</time>
<speed>1.910000</speed>
<extensions>
<speed>1.9</speed>
<temp>0.00</temp>
<bpm>0</bpm>
<rpm>0.00</rpm>
</extensions>
</trkpt>
<trkpt lat="63.726154327" lon="-19.982130051">
<ele>73.761719</ele>
<time>2012-07-26T18:45:29Z</time>
<speed>2.000000</speed>
<extensions>
<speed>2.0</speed>
<temp>0.00</temp>
<bpm>0</bpm>
<rpm>0.00</rpm>
</extensions>
</trkpt>
<trkpt lat="63.726211548" lon="-19.982326508">
<ele>74.994141</ele>
<time>2012-07-26T18:45:34Z</time>
<speed>2.280000</speed>
<extensions>
<speed>2.3</speed>
<temp>0.00</temp>
<bpm>0</bpm>
<rpm>0.00</rpm>
</extensions>
</trkpt>
<trkpt lat="63.726268768" lon="-19.982540131">
<ele>73.615234</ele>
<time>2012-07-26T18:45:39Z</time>
<speed>2.570000</speed>
<extensions>
<speed>2.6</speed>
<temp>0.00</temp>
<bpm>0</bpm>
<rpm>0.00</rpm>
</extensions>
</trkpt>
<trkpt lat="63.726322174" lon="-19.982769012">
<ele>74.339844</ele>
<time>2012-07-26T18:45:44Z</time>
<speed>2.410000</speed>
<extensions>
<speed>2.4</speed>
<temp>0.00</temp>
<bpm>0</bpm>
<rpm>0.00</rpm>
</extensions>
</trkpt>
<trkpt lat="63.726367950" lon="-19.982957840">
<ele>75.599609</ele>
<time>2012-07-26T18:45:49Z</time>
<speed>2.260000</speed>
<extensions>
<speed>2.3</speed>
<temp>0.00</temp>
<bpm>0</bpm>
<rpm>0.00</rpm>
</extensions>
</trkpt>
<trkpt lat="63.726428986" lon="-19.983200073">
<ele>75.134766</ele>
<time>2012-07-26T18:45:54Z</time>
<speed>2.870000</speed>
<extensions>
<speed>2.9</speed>
<temp>0.00</temp>
<bpm>0</bpm>
<rpm>0.00</rpm>
</extensions>
</trkpt>
<trkpt lat="63.726497650" lon="-19.983467102">
<ele>75.761719</ele>
<time>2012-07-26T18:45:59Z</time>
<speed>3.030000</speed>
<extensions>
<speed>3.0</speed>
<temp>0.00</temp>
<bpm>0</bpm>
<rpm>0.00</rpm>
</extensions>
</trkpt>
<trkpt lat="63.726554871" lon="-19.983758926">
<ele>75.066406</ele>
<time>2012-07-26T18:46:04Z</time>
<speed>3.020000</speed>
<extensions>
<speed>3.0</speed>
<temp>0.00</temp>
<bpm>0</bpm>
<rpm>0.00</rpm>
</extensions>
</trkpt>
<trkpt lat="63.726612091" lon="-19.984027863">
<ele>73.783203</ele>
<time>2012-07-26T18:46:09Z</time>
<speed>2.890000</speed>
<extensions>
<speed>2.9</speed>
<temp>0.00</temp>
<bpm>0</bpm>
<rpm>0.00</rpm>
</extensions>
</trkpt>
<trkpt lat="63.726669312" lon="-19.984283447">
<ele>74.554688</ele>
<time>2012-07-26T18:46:14Z</time>
<speed>3.120000</speed>
<extensions>
<speed>3.1</speed>
<temp>0.00</temp>
<bpm>0</bpm>
<rpm>0.00</rpm>
</extensions>
</trkpt>
<trkpt lat="63.726749420" lon="-19.984571457">
<ele>76.148438</ele>
<time>2012-07-26T18:46:19Z</time>
<speed>3.370000</speed>
<extensions>
<speed>3.4</speed>
<temp>0.00</temp>
<bpm>0</bpm>
<rpm>0.00</rpm>
</extensions>
</trkpt>
<trkpt lat="63.726825714" lon="-19.984914780">
<ele>75.345703</ele>
<time>2012-07-26T18:46:24Z</time>
<speed>3.840000</speed>
<extensions>
<speed>3.8</speed>
<temp>0.00</temp>
<bpm>0</bpm>
<rpm>0.00</rpm>
</extensions>
</trkpt>
<trkpt lat="63.726886749" lon="-19.985263824">
<ele>74.027344</ele>
<time>2012-07-26T18:46:29Z</time>
<speed>3.720000</speed>
<extensions>
<speed>3.7</speed>
<temp>0.00</temp>
<bpm>0</bpm>
<rpm>0.00</rpm>
</extensions>
</trkpt>
<trkpt lat="63.726955414" lon="-19.985628128">
<ele>73.822266</ele>
<time>2012-07-26T18:46:34Z</time>
<speed>4.110000</speed>
<extensions>
<speed>4.1</speed>
<temp>0.00</temp>
<bpm>0</bpm>
<rpm>0.00</rpm>
</extensions>
</trkpt>
<trkpt lat="63.727031708" lon="-19.986013412">
<ele>72.964844</ele>
<time>2012-07-26T18:46:39Z</time>
<speed>4.330000</speed>
<extensions>
<speed>4.3</speed>
<temp>0.00</temp>
<bpm>0</bpm>
<rpm>0.00</rpm>
</extensions>
</trkpt>
<trkpt lat="63.727096558" lon="-19.986433029">
<ele>70.923828</ele>
<time>2012-07-26T18:46:44Z</time>
<speed>4.270000</speed>
<extensions>
<speed>4.3</speed>
<temp>0.00</temp>
<bpm>0</bpm>
<rpm>0.00</rpm>
</extensions>
</trkpt>
<trkpt lat="63.727172852" lon="-19.986846924">
<ele>69.642578</ele>
<time>2012-07-26T18:46:49Z</time>
<speed>4.590000</speed>
<extensions>
<speed>4.6</speed>
<temp>0.00</temp>
<bpm>0</bpm>
<rpm>0.00</rpm>
</extensions>
</trkpt>
<trkpt lat="63.727256775" lon="-19.987304688">
<ele>70.750000</ele>
<time>2012-07-26T18:46:54Z</time>
<speed>5.000000</speed>
<extensions>
<speed>5.0</speed>
<temp>0.00</temp>
<bpm>0</bpm>
<rpm>0.00</rpm>
</extensions>
</trkpt>
<trkpt lat="63.727329254" lon="-19.987806320">
<ele>71.203125</ele>
<time>2012-07-26T18:46:59Z</time>
<speed>5.260000</speed>
<extensions>
<speed>5.3</speed>
<temp>0.00</temp>
<bpm>0</bpm>
<rpm>0.00</rpm>
</extensions>
</trkpt>
<trkpt lat="63.727420807" lon="-19.988327026">
<ele>70.273438</ele>
<time>2012-07-26T18:47:04Z</time>
<speed>5.430000</speed>
<extensions>
<speed>5.4</speed>
<temp>0.00</temp>
<bpm>0</bpm>
<rpm>0.00</rpm>
</extensions>
</trkpt>
<trkpt lat="63.727485657" lon="-19.988868713">
<ele>72.425781</ele>
<time>2012-07-26T18:47:09Z</time>
<speed>5.430000</speed>
<extensions>
<speed>5.4</speed>
<temp>0.00</temp>
<bpm>0</bpm>
<rpm>0.00</rpm>
</extensions>
</trkpt>
<trkpt lat="63.727554321" lon="-19.989397049">
<ele>70.933594</ele>
<time>2012-07-26T18:47:14Z</time>
<speed>5.450000</speed>
<extensions>
<speed>5.5</speed>
<temp>0.00</temp>
<bpm>0</bpm>
<rpm>0.00</rpm>
</extensions>
</trkpt>
<trkpt lat="63.727619171" lon="-19.989900589">
<ele>69.859375</ele>
<time>2012-07-26T18:47:19Z</time>
<speed>4.840000</speed>
<extensions>
<speed>4.8</speed>
<temp>0.00</temp>
<bpm>0</bpm>
<rpm>0.00</rpm>
</extensions>
</trkpt>
<trkpt lat="63.727680206" lon="-19.990343094">
<ele>69.052734</ele>
<time>2012-07-26T18:47:24Z</time>
<speed>4.250000</speed>
<extensions>
<speed>4.3</speed>
<temp>0.00</temp>
<bpm>0</bpm>
<rpm>0.00</rpm>
</extensions>
</trkpt>
<trkpt lat="63.727725983" lon="-19.990766525">
<ele>69.539063</ele>
<time>2012-07-26T18:47:29Z</time>
<speed>4.410000</speed>
<extensions>
<speed>4.4</speed>
<temp>0.00</temp>
<bpm>0</bpm>
<rpm>0.00</rpm>
</extensions>
</trkpt>
<trkpt lat="63.727756500" lon="-19.991193771">
<ele>70.564453</ele>
<time>2012-07-26T18:47:34Z</time>
<speed>4.000000</speed>
<extensions>
<speed>4.0</speed>
<temp>0.00</temp>
<bpm>0</bpm>
<rpm>0.00</rpm>
</extensions>
</trkpt>
<trkpt lat="63.727802277" lon="-19.991577148">
<ele>71.080078</ele>
<time>2012-07-26T18:47:39Z</time>
<speed>3.930000</speed>
<extensions>
<speed>3.9</speed>
<temp>0.00</temp>
<bpm>0</bpm>
<rpm>0.00</rpm>
</extensions>
</trkpt>
<trkpt lat="63.727848053" lon="-19.991945267">
<ele>70.113281</ele>
<time>2012-07-26T18:47:44Z</time>
<speed>3.910000</speed>
<extensions>
<speed>3.9</speed>
<temp>0.00</temp>
<bpm>0</bpm>
<rpm>0.00</rpm>
</extensions>
</trkpt>
<trkpt lat="63.727878571" lon="-19.992366791">
<ele>70.101563</ele>
<time>2012-07-26T18:47:49Z</time>
<speed>3.980000</speed>
<extensions>
<speed>4.0</speed>
<temp>0.00</temp>
<bpm>0</bpm>
<rpm>0.00</rpm>
</extensions>
</trkpt>
<trkpt lat="63.727897644" lon="-19.992717743">
<ele>68.968750</ele>
<time>2012-07-26T18:47:54Z</time>
<speed>3.240000</speed>
<extensions>
<speed>3.2</speed>
<temp>0.00</temp>
<bpm>0</bpm>
<rpm>0.00</rpm>
</extensions>
</trkpt>
<trkpt lat="63.727916718" lon="-19.993036270">
<ele>68.712891</ele>
<time>2012-07-26T18:47:59Z</time>
<speed>3.680000</speed>
<extensions>
<speed>3.7</speed>
<temp>0.00</temp>
<bpm>0</bpm>
<rpm>0.00</rpm>
</extensions>
</trkpt>
<trkpt lat="63.727951050" lon="-19.993440628">
<ele>69.837891</ele>
<time>2012-07-26T18:48:04Z</time>
<speed>4.240000</speed>
<extensions>
<speed>4.2</speed>
<temp>0.00</temp>
<bpm>0</bpm>
<rpm>0.00</rpm>
</extensions>
</trkpt>
<trkpt lat="63.727985382" lon="-19.993888855">
<ele>71.025391</ele>
<time>2012-07-26T18:48:09Z</time>
<speed>4.680000</speed>
<extensions>
<speed>4.7</speed>
<temp>0.00</temp>
<bpm>0</bpm>
<rpm>0.00</rpm>
</extensions>
</trkpt>
<trkpt lat="63.728012085" lon="-19.994392395">
<ele>69.552734</ele>
<time>2012-07-26T18:48:14Z</time>
<speed>4.430000</speed>
<extensions>
<speed>4.4</speed>
<temp>0.00</temp>
<bpm>0</bpm>
<rpm>0.00</rpm>
</extensions>
</trkpt>
<trkpt lat="63.728042603" lon="-19.994815826">
<ele>67.605469</ele>
<time>2012-07-26T18:48:19Z</time>
<speed>4.300000</speed>
<extensions>
<speed>4.3</speed>
<temp>0.00</temp>
<bpm>0</bpm>
<rpm>0.00</rpm>
</extensions>
</trkpt>
<trkpt lat="63.728080750" lon="-19.995199203">
<ele>67.205078</ele>
<time>2012-07-26T18:48:24Z</time>
<speed>3.780000</speed>
<extensions>
<speed>3.8</speed>
<temp>0.00</temp>
<bpm>0</bpm>
<rpm>0.00</rpm>
</extensions>
</trkpt>
<trkpt lat="63.728092194" lon="-19.995592117">
<ele>70.146484</ele>
<time>2012-07-26T18:48:29Z</time>
<speed>5.050000</speed>
<extensions>
<speed>5.1</speed>
<temp>0.00</temp>
<bpm>0</bpm>
<rpm>0.00</rpm>
</extensions>
</trkpt>
<trkpt lat="63.728126526" lon="-19.996011734">
<ele>70.853516</ele>
<time>2012-07-26T18:48:34Z</time>
<speed>4.530000</speed>
<extensions>
<speed>4.5</speed>
<temp>0.00</temp>
<bpm>0</bpm>
<rpm>0.00</rpm>
</extensions>
</trkpt>
<trkpt lat="63.728168488" lon="-19.996480942">
<ele>71.177734</ele>
<time>2012-07-26T18:48:39Z</time>
<speed>4.830000</speed>
<extensions>
<speed>4.8</speed>
<temp>0.00</temp>
<bpm>0</bpm>
<rpm>0.00</rpm>
</extensions>
</trkpt>
<trkpt lat="63.728195190" lon="-19.996950150">
<ele>73.337891</ele>
<time>2012-07-26T18:48:44Z</time>
<speed>4.860000</speed>
<extensions>
<speed>4.9</speed>
<temp>0.00</temp>
<bpm>0</bpm>
<rpm>0.00</rpm>
</extensions>
</trkpt>
<trkpt lat="63.728233337" lon="-19.997417450">
<ele>72.091797</ele>
<time>2012-07-26T18:48:49Z</time>
<speed>5.020000</speed>
<extensions>
<speed>5.0</speed>
<temp>0.00</temp>
<bpm>0</bpm>
<rpm>0.00</rpm>
</extensions>
</trkpt>
<trkpt lat="63.728252411" lon="-19.997892380">
<ele>71.478516</ele>
<time>2012-07-26T18:48:54Z</time>
<speed>4.610000</speed>
<extensions>
<speed>4.6</speed>
<temp>0.00</temp>
<bpm>0</bpm>
<rpm>0.00</rpm>
</extensions>
</trkpt>
<trkpt lat="63.728286743" lon="-19.998371124">
<ele>68.341797</ele>
<time>2012-07-26T18:48:59Z</time>
<speed>4.650000</speed>
<extensions>
<speed>4.6</speed>
<temp>0.00</temp>
<bpm>0</bpm>
<rpm>0.00</rpm>
</extensions>
</trkpt>
<trkpt lat="63.728321075" lon="-19.998842239">
<ele>65.949219</ele>
<time>2012-07-26T18:49:04Z</time>
<speed>4.720000</speed>
<extensions>
<speed>4.7</speed>
<temp>0.00</temp>
<bpm>0</bpm>
<rpm>0.00</rpm>
</extensions>
</trkpt>
<trkpt lat="63.728351593" lon="-19.999292374">
<ele>67.304688</ele>
<time>2012-07-26T18:49:09Z</time>
<speed>4.340000</speed>
<extensions>
<speed>4.3</speed>
<temp>0.00</temp>
<bpm>0</bpm>
<rpm>0.00</rpm>
</extensions>
</trkpt>
<trkpt lat="63.728385925" lon="-19.999725342">
<ele>68.373047</ele>
<time>2012-07-26T18:49:14Z</time>
<speed>4.350000</speed>
<extensions>
<speed>4.3</speed>
<temp>0.00</temp>
<bpm>0</bpm>
<rpm>0.00</rpm>
</extensions>
</trkpt>
<trkpt lat="63.728424072" lon="-20.000122070">
<ele>67.957031</ele>
<time>2012-07-26T18:49:19Z</time>
<speed>3.770000</speed>
<extensions>
<speed>3.8</speed>
<temp>0.00</temp>
<bpm>0</bpm>
<rpm>0.00</rpm>
</extensions>
</trkpt>
<trkpt lat="63.728443146" lon="-20.000532150">
<ele>71.037109</ele>
<time>2012-07-26T18:49:24Z</time>
<speed>4.280000</speed>
<extensions>
<speed>4.3</speed>
<temp>0.00</temp>
<bpm>0</bpm>
<rpm>0.00</rpm>
</extensions>
</trkpt>
<trkpt lat="63.728466034" lon="-20.000963211">
<ele>68.726563</ele>
<time>2012-07-26T18:49:29Z</time>
<speed>4.390000</speed>
<extensions>
<speed>4.4</speed>
<temp>0.00</temp>
<bpm>0</bpm>
<rpm>0.00</rpm>
</extensions>
</trkpt>
<trkpt lat="63.728496552" lon="-20.001386642">
<ele>67.513672</ele>
<time>2012-07-26T18:49:34Z</time>
<speed>4.130000</speed>
<extensions>
<speed>4.1</speed>
<temp>0.00</temp>
<bpm>0</bpm>
<rpm>0.00</rpm>
</extensions>
</trkpt>
<trkpt lat="63.728530884" lon="-20.001810074">
<ele>65.710938</ele>
<time>2012-07-26T18:49:39Z</time>
<speed>4.310000</speed>
<extensions>
<speed>4.3</speed>
<temp>0.00</temp>
<bpm>0</bpm>
<rpm>0.00</rpm>
</extensions>
</trkpt>
<trkpt lat="63.728553772" lon="-20.002231598">
<ele>70.527344</ele>
<time>2012-07-26T18:49:44Z</time>
<speed>3.540000</speed>
<extensions>
<speed>3.5</speed>
<temp>0.00</temp>
<bpm>0</bpm>
<rpm>0.00</rpm>
</extensions>
</trkpt>
<trkpt lat="63.728557587" lon="-20.002546310">
<ele>70.593750</ele>
<time>2012-07-26T18:49:49Z</time>
<speed>3.050000</speed>
<extensions>
<speed>3.0</speed>
<temp>0.00</temp>
<bpm>0</bpm>
<rpm>0.00</rpm>
</extensions>
</trkpt>
<trkpt lat="63.728576660" lon="-20.002882004">
<ele>71.384766</ele>
<time>2012-07-26T18:49:54Z</time>
<speed>3.680000</speed>
<extensions>
<speed>3.7</speed>
<temp>0.00</temp>
<bpm>0</bpm>
<rpm>0.00</rpm>
</extensions>
</trkpt>
<trkpt lat="63.728603363" lon="-20.003259659">
<ele>69.929688</ele>
<time>2012-07-26T18:49:59Z</time>
<speed>3.950000</speed>
<extensions>
<speed>4.0</speed>
<temp>0.00</temp>
<bpm>0</bpm>
<rpm>0.00</rpm>
</extensions>
</trkpt>
<trkpt lat="63.728626251" lon="-20.003662109">
<ele>73.552734</ele>
<time>2012-07-26T18:50:04Z</time>
<speed>4.360000</speed>
<extensions>
<speed>4.4</speed>
<temp>0.00</temp>
<bpm>0</bpm>
<rpm>0.00</rpm>
</extensions>
</trkpt>
<trkpt lat="63.728660583" lon="-20.004093170">
<ele>75.398438</ele>
<time>2012-07-26T18:50:09Z</time>
<speed>4.330000</speed>
<extensions>
<speed>4.3</speed>
<temp>0.00</temp>
<bpm>0</bpm>
<rpm>0.00</rpm>
</extensions>
</trkpt>
<trkpt lat="63.728687286" lon="-20.004474640">
<ele>75.207031</ele>
<time>2012-07-26T18:50:14Z</time>
<speed>3.120000</speed>
<extensions>
<speed>3.1</speed>
<temp>0.00</temp>
<bpm>0</bpm>
<rpm>0.00</rpm>
</extensions>
</trkpt>
<trkpt lat="63.728713989" lon="-20.004842758">
<ele>76.611328</ele>
<time>2012-07-26T18:50:19Z</time>
<speed>3.980000</speed>
<extensions>
<speed>4.0</speed>
<temp>0.00</temp>
<bpm>0</bpm>
<rpm>0.00</rpm>
</extensions>
</trkpt>
<trkpt lat="63.728752136" lon="-20.005250931">
<ele>72.927734</ele>
<time>2012-07-26T18:50:24Z</time>
<speed>4.280000</speed>
<extensions>
<speed>4.3</speed>
<temp>0.00</temp>
<bpm>0</bpm>
<rpm>0.00</rpm>
</extensions>
</trkpt>
<trkpt lat="63.728797913" lon="-20.005699158">
<ele>69.351563</ele>
<time>2012-07-26T18:50:29Z</time>
<speed>4.650000</speed>
<extensions>
<speed>4.6</speed>
<temp>0.00</temp>
<bpm>0</bpm>
<rpm>0.00</rpm>
</extensions>
</trkpt>
<trkpt lat="63.728832245" lon="-20.006134033">
<ele>67.503906</ele>
<time>2012-07-26T18:50:34Z</time>
<speed>3.990000</speed>
<extensions>
<speed>4.0</speed>
<temp>0.00</temp>
<bpm>0</bpm>
<rpm>0.00</rpm>
</extensions>
</trkpt>
<trkpt lat="63.728847504" lon="-20.006500244">
<ele>67.410156</ele>
<time>2012-07-26T18:50:39Z</time>
<speed>3.780000</speed>
<extensions>
<speed>3.8</speed>
<temp>0.00</temp>
<bpm>0</bpm>
<rpm>0.00</rpm>
</extensions>
</trkpt>
<trkpt lat="63.728874207" lon="-20.006893158">
<ele>64.027344</ele>
<time>2012-07-26T18:50:44Z</time>
<speed>3.590000</speed>
<extensions>
<speed>3.6</speed>
<temp>0.00</temp>
<bpm>0</bpm>
<rpm>0.00</rpm>
</extensions>
</trkpt>
<trkpt lat="63.728893280" lon="-20.007207870">
<ele>66.386719</ele>
<time>2012-07-26T18:50:49Z</time>
<speed>3.120000</speed>
<extensions>
<speed>3.1</speed>
<temp>0.00</temp>
<bpm>0</bpm>
<rpm>0.00</rpm>
</extensions>
</trkpt>
<trkpt lat="63.728912354" lon="-20.007572174">
<ele>66.318359</ele>
<time>2012-07-26T18:50:54Z</time>
<speed>3.780000</speed>
<extensions>
<speed>3.8</speed>
<temp>0.00</temp>
<bpm>0</bpm>
<rpm>0.00</rpm>
</extensions>
</trkpt>
<trkpt lat="63.728939056" lon="-20.007987976">
<ele>67.830078</ele>
<time>2012-07-26T18:50:59Z</time>
<speed>4.130000</speed>
<extensions>
<speed>4.1</speed>
<temp>0.00</temp>
<bpm>0</bpm>
<rpm>0.00</rpm>
</extensions>
</trkpt>
<trkpt lat="63.728965759" lon="-20.008354187">
<ele>69.273438</ele>
<time>2012-07-26T18:51:04Z</time>
<speed>3.240000</speed>
<extensions>
<speed>3.2</speed>
<temp>0.00</temp>
<bpm>0</bpm>
<rpm>0.00</rpm>
</extensions>
</trkpt>
<trkpt lat="63.728988647" lon="-20.008684158">
<ele>69.308594</ele>
<time>2012-07-26T18:51:09Z</time>
<speed>3.360000</speed>
<extensions>
<speed>3.4</speed>
<temp>0.00</temp>
<bpm>0</bpm>
<rpm>0.00</rpm>
</extensions>
</trkpt>
<trkpt lat="63.729007721" lon="-20.009067535">
<ele>72.300781</ele>
<time>2012-07-26T18:51:14Z</time>
<speed>3.640000</speed>
<extensions>
<speed>3.6</speed>
<temp>0.00</temp>
<bpm>0</bpm>
<rpm>0.00</rpm>
</extensions>
</trkpt>
<trkpt lat="63.729045868" lon="-20.009481430">
<ele>70.906250</ele>
<time>2012-07-26T18:51:19Z</time>
<speed>4.430000</speed>
<extensions>
<speed>4.4</speed>
<temp>0.00</temp>
<bpm>0</bpm>
<rpm>0.00</rpm>
</extensions>
</trkpt>
<trkpt lat="63.729080200" lon="-20.009954453">
<ele>66.876953</ele>
<time>2012-07-26T18:51:24Z</time>
<speed>4.690000</speed>
<extensions>
<speed>4.7</speed>
<temp>0.00</temp>
<bpm>0</bpm>
<rpm>0.00</rpm>
</extensions>
</trkpt>
<trkpt lat="63.729110718" lon="-20.010408401">
<ele>66.554688</ele>
<time>2012-07-26T18:51:29Z</time>
<speed>4.200000</speed>
<extensions>
<speed>4.2</speed>
<temp>0.00</temp>
<bpm>0</bpm>
<rpm>0.00</rpm>
</extensions>
</trkpt>
<trkpt lat="63.729148865" lon="-20.010795593">
<ele>65.449219</ele>
<time>2012-07-26T18:51:34Z</time>
<speed>4.170000</speed>
<extensions>
<speed>4.2</speed>
<temp>0.00</temp>
<bpm>0</bpm>
<rpm>0.00</rpm>
</extensions>
</trkpt>
<trkpt lat="63.729175568" lon="-20.011232376">
<ele>66.410156</ele>
<time>2012-07-26T18:51:39Z</time>
<speed>4.790000</speed>
<extensions>
<speed>4.8</speed>
<temp>0.00</temp>
<bpm>0</bpm>
<rpm>0.00</rpm>
</extensions>
</trkpt>
<trkpt lat="63.729209900" lon="-20.011674881">
<ele>68.464844</ele>
<time>2012-07-26T18:51:44Z</time>
<speed>4.330000</speed>
<extensions>
<speed>4.3</speed>
<temp>0.00</temp>
<bpm>0</bpm>
<rpm>0.00</rpm>
</extensions>
</trkpt>
<trkpt lat="63.729232788" lon="-20.012144089">
<ele>69.207031</ele>
<time>2012-07-26T18:51:49Z</time>
<speed>4.810000</speed>
<extensions>
<speed>4.8</speed>
<temp>0.00</temp>
<bpm>0</bpm>
<rpm>0.00</rpm>
</extensions>
</trkpt>
<trkpt lat="63.729278564" lon="-20.012619019">
<ele>67.728516</ele>
<time>2012-07-26T18:51:54Z</time>
<speed>4.600000</speed>
<extensions>
<speed>4.6</speed>
<temp>0.00</temp>
<bpm>0</bpm>
<rpm>0.00</rpm>
</extensions>
</trkpt>
<trkpt lat="63.729305267" lon="-20.013074875">
<ele>66.517578</ele>
<time>2012-07-26T18:51:59Z</time>
<speed>4.530000</speed>
<extensions>
<speed>4.5</speed>
<temp>0.00</temp>
<bpm>0</bpm>
<rpm>0.00</rpm>
</extensions>
</trkpt>
<trkpt lat="63.729335785" lon="-20.013526917">
<ele>65.484375</ele>
<time>2012-07-26T18:52:04Z</time>
<speed>4.570000</speed>
<extensions>
<speed>4.6</speed>
<temp>0.00</temp>
<bpm>0</bpm>
<rpm>0.00</rpm>
</extensions>
</trkpt>
<trkpt lat="63.729373932" lon="-20.013990402">
<ele>65.226563</ele>
<time>2012-07-26T18:52:09Z</time>
<speed>4.820000</speed>
<extensions>
<speed>4.8</speed>
<temp>0.00</temp>
<bpm>0</bpm>
<rpm>0.00</rpm>
</extensions>
</trkpt>
<trkpt lat="63.729412079" lon="-20.014492035">
<ele>65.279297</ele>
<time>2012-07-26T18:52:14Z</time>
<speed>5.090000</speed>
<extensions>
<speed>5.1</speed>
<temp>0.00</temp>
<bpm>0</bpm>
<rpm>0.00</rpm>
</extensions>
</trkpt>
<trkpt lat="63.729442596" lon="-20.015012741">
<ele>64.158203</ele>
<time>2012-07-26T18:52:19Z</time>
<speed>5.300000</speed>
<extensions>
<speed>5.3</speed>
<temp>0.00</temp>
<bpm>0</bpm>
<rpm>0.00</rpm>
</extensions>
</trkpt>
<trkpt lat="63.729465485" lon="-20.015533447">
<ele>65.677734</ele>
<time>2012-07-26T18:52:24Z</time>
<speed>4.970000</speed>
<extensions>
<speed>5.0</speed>
<temp>0.00</temp>
<bpm>0</bpm>
<rpm>0.00</rpm>
</extensions>
</trkpt>
<trkpt lat="63.729499817" lon="-20.016008377">
<ele>65.689453</ele>
<time>2012-07-26T18:52:29Z</time>
<speed>4.560000</speed>
<extensions>
<speed>4.6</speed>
<temp>0.00</temp>
<bpm>0</bpm>
<rpm>0.00</rpm>
</extensions>
</trkpt>
<trkpt lat="63.729522705" lon="-20.016450882">
<ele>67.435547</ele>
<time>2012-07-26T18:52:34Z</time>
<speed>4.340000</speed>
<extensions>
<speed>4.3</speed>
<temp>0.00</temp>
<bpm>0</bpm>
<rpm>0.00</rpm>
</extensions>
</trkpt>
<trkpt lat="63.729541779" lon="-20.016910553">
<ele>67.187500</ele>
<time>2012-07-26T18:52:39Z</time>
<speed>4.430000</speed>
<extensions>
<speed>4.4</speed>
<temp>0.00</temp>
<bpm>0</bpm>
<rpm>0.00</rpm>
</extensions>
</trkpt>
<trkpt lat="63.729583740" lon="-20.017345428">
<ele>67.351563</ele>
<time>2012-07-26T18:52:44Z</time>
<speed>4.660000</speed>
<extensions>
<speed>4.7</speed>
<temp>0.00</temp>
<bpm>0</bpm>
<rpm>0.00</rpm>
</extensions>
</trkpt>
<trkpt lat="63.729618073" lon="-20.017808914">
<ele>67.828125</ele>
<time>2012-07-26T18:52:49Z</time>
<speed>4.610000</speed>
<extensions>
<speed>4.6</speed>
<temp>0.00</temp>
<bpm>0</bpm>
<rpm>0.00</rpm>
</extensions>
</trkpt>
<trkpt lat="63.729648590" lon="-20.018285751">
<ele>68.671875</ele>
<time>2012-07-26T18:52:54Z</time>
<speed>4.640000</speed>
<extensions>
<speed>4.6</speed>
<temp>0.00</temp>
<bpm>0</bpm>
<rpm>0.00</rpm>
</extensions>
</trkpt>
<trkpt lat="63.729682922" lon="-20.018739700">
<ele>66.935547</ele>
<time>2012-07-26T18:52:59Z</time>
<speed>4.520000</speed>
<extensions>
<speed>4.5</speed>
<temp>0.00</temp>
<bpm>0</bpm>
<rpm>0.00</rpm>
</extensions>
</trkpt>
<trkpt lat="63.729709625" lon="-20.019187927">
<ele>66.539063</ele>
<time>2012-07-26T18:53:04Z</time>
<speed>4.520000</speed>
<extensions>
<speed>4.5</speed>
<temp>0.00</temp>
<bpm>0</bpm>
<rpm>0.00</rpm>
</extensions>
</trkpt>
<trkpt lat="63.729747772" lon="-20.019672394">
<ele>65.939453</ele>
<time>2012-07-26T18:53:09Z</time>
<speed>5.030000</speed>
<extensions>
<speed>5.0</speed>
<temp>0.00</temp>
<bpm>0</bpm>
<rpm>0.00</rpm>
</extensions>
</trkpt>
<trkpt lat="63.729782104" lon="-20.020158768">
<ele>65.878906</ele>
<time>2012-07-26T18:53:14Z</time>
<speed>4.390000</speed>
<extensions>
<speed>4.4</speed>
<temp>0.00</temp>
<bpm>0</bpm>
<rpm>0.00</rpm>
</extensions>
</trkpt>
<trkpt lat="63.729812622" lon="-20.020610809">
<ele>64.406250</ele>
<time>2012-07-26T18:53:19Z</time>
<speed>4.750000</speed>
<extensions>
<speed>4.8</speed>
<temp>0.00</temp>
<bpm>0</bpm>
<rpm>0.00</rpm>
</extensions>
</trkpt>
<trkpt lat="63.729846954" lon="-20.021104813">
<ele>64.699219</ele>
<time>2012-07-26T18:53:24Z</time>
<speed>4.820000</speed>
<extensions>
<speed>4.8</speed>
<temp>0.00</temp>
<bpm>0</bpm>
<rpm>0.00</rpm>
</extensions>
</trkpt>
<trkpt lat="63.729881287" lon="-20.021598816">
<ele>63.089844</ele>
<time>2012-07-26T18:53:29Z</time>
<speed>4.280000</speed>
<extensions>
<speed>4.3</speed>
<temp>0.00</temp>
<bpm>0</bpm>
<rpm>0.00</rpm>
</extensions>
</trkpt>
<trkpt lat="63.729904175" lon="-20.021986008">
<ele>62.919922</ele>
<time>2012-07-26T18:53:34Z</time>
<speed>3.490000</speed>
<extensions>
<speed>3.5</speed>
<temp>0.00</temp>
<bpm>0</bpm>
<rpm>0.00</rpm>
</extensions>
</trkpt>
<trkpt lat="63.729919434" lon="-20.022323608">
<ele>65.318359</ele>
<time>2012-07-26T18:53:39Z</time>
<speed>3.790000</speed>
<extensions>
<speed>3.8</speed>
<temp>0.00</temp>
<bpm>0</bpm>
<rpm>0.00</rpm>
</extensions>
</trkpt>
<trkpt lat="63.729946136" lon="-20.022752762">
<ele>65.533203</ele>
<time>2012-07-26T18:53:44Z</time>
<speed>4.610000</speed>
<extensions>
<speed>4.6</speed>
<temp>0.00</temp>
<bpm>0</bpm>
<rpm>0.00</rpm>
</extensions>
</trkpt>
<trkpt lat="63.729988098" lon="-20.023233414">
<ele>64.414063</ele>
<time>2012-07-26T18:53:49Z</time>
<speed>5.080000</speed>
<extensions>
<speed>5.1</speed>
<temp>0.00</temp>
<bpm>0</bpm>
<rpm>0.00</rpm>
</extensions>
</trkpt>
<trkpt lat="63.730018616" lon="-20.023687363">
<ele>65.326172</ele>
<time>2012-07-26T18:53:54Z</time>
<speed>4.520000</speed>
<extensions>
<speed>4.5</speed>
<temp>0.00</temp>
<bpm>0</bpm>
<rpm>0.00</rpm>
</extensions>
</trkpt>
<trkpt lat="63.730049133" lon="-20.024154663">
<ele>65.468750</ele>
<time>2012-07-26T18:53:59Z</time>
<speed>4.380000</speed>
<extensions>
<speed>4.4</speed>
<temp>0.00</temp>
<bpm>0</bpm>
<rpm>0.00</rpm>
</extensions>
</trkpt>
<trkpt lat="63.730079651" lon="-20.024599075">
<ele>65.597656</ele>
<time>2012-07-26T18:54:04Z</time>
<speed>4.590000</speed>
<extensions>
<speed>4.6</speed>
<temp>0.00</temp>
<bpm>0</bpm>
<rpm>0.00</rpm>
</extensions>
</trkpt>
<trkpt lat="63.730113983" lon="-20.025091171">
<ele>66.429688</ele>
<time>2012-07-26T18:54:09Z</time>
<speed>5.110000</speed>
<extensions>
<speed>5.1</speed>
<temp>0.00</temp>
<bpm>0</bpm>
<rpm>0.00</rpm>
</extensions>
</trkpt>
<trkpt lat="63.730148315" lon="-20.025619507">
<ele>66.634766</ele>
<time>2012-07-26T18:54:14Z</time>
<speed>5.360000</speed>
<extensions>
<speed>5.4</speed>
<temp>0.00</temp>
<bpm>0</bpm>
<rpm>0.00</rpm>
</extensions>
</trkpt>
<trkpt lat="63.730190277" lon="-20.026102066">
<ele>66.363281</ele>
<time>2012-07-26T18:54:19Z</time>
<speed>4.490000</speed>
<extensions>
<speed>4.5</speed>
<temp>0.00</temp>
<bpm>0</bpm>
<rpm>0.00</rpm>
</extensions>
</trkpt>
<trkpt lat="63.730224609" lon="-20.026536942">
<ele>67.130859</ele>
<time>2012-07-26T18:54:24Z</time>
<speed>4.280000</speed>
<extensions>
<speed>4.3</speed>
<temp>0.00</temp>
<bpm>0</bpm>
<rpm>0.00</rpm>
</extensions>
</trkpt>
<trkpt lat="63.730255127" lon="-20.026987076">
<ele>65.673828</ele>
<time>2012-07-26T18:54:29Z</time>
<speed>4.610000</speed>
<extensions>
<speed>4.6</speed>
<temp>0.00</temp>
<bpm>0</bpm>
<rpm>0.00</rpm>
</extensions>
</trkpt>
<trkpt lat="63.730278015" lon="-20.027414322">
<ele>66.367188</ele>
<time>2012-07-26T18:54:34Z</time>
<speed>4.040000</speed>
<extensions>
<speed>4.0</speed>
<temp>0.00</temp>
<bpm>0</bpm>
<rpm>0.00</rpm>
</extensions>
</trkpt>
<trkpt lat="63.730293274" lon="-20.027729034">
<ele>65.763672</ele>
<time>2012-07-26T18:54:39Z</time>
<speed>2.340000</speed>
<extensions>
<speed>2.3</speed>
<temp>0.00</temp>
<bpm>0</bpm>
<rpm>0.00</rpm>
</extensions>
</trkpt>
<trkpt lat="63.730297089" lon="-20.027805328">
<ele>65.949219</ele>
<time>2012-07-26T18:54:44Z</time>
<speed>0.080000</speed>
<extensions>
<speed>0.1</speed>
<temp>0.00</temp>
<bpm>0</bpm>
<rpm>0.00</rpm>
</extensions>
</trkpt>
<trkpt lat="63.730293274" lon="-20.027812958">
<ele>66.453125</ele>
<time>2012-07-26T18:54:49Z</time>
<speed>0.040000</speed>
<extensions>
<speed>0.0</speed>
<temp>0.00</temp>
<bpm>0</bpm>
<rpm>0.00</rpm>
</extensions>
</trkpt>
<trkpt lat="63.730293274" lon="-20.027812958">
<ele>66.496094</ele>
<time>2012-07-26T18:54:54Z</time>
<extensions>
<speed>0.0</speed>
<temp>0.00</temp>
<bpm>0</bpm>
<rpm>0.00</rpm>
</extensions>
</trkpt>
<trkpt lat="63.730297089" lon="-20.027832031">
<ele>66.505859</ele>
<time>2012-07-26T18:54:59Z</time>
<speed>1.160000</speed>
<extensions>
<speed>1.2</speed>
<temp>0.00</temp>
<bpm>0</bpm>
<rpm>0.00</rpm>
</extensions>
</trkpt>
<trkpt lat="63.730319977" lon="-20.027994156">
<ele>67.490234</ele>
<time>2012-07-26T18:55:04Z</time>
<speed>0.860000</speed>
<extensions>
<speed>0.9</speed>
<temp>0.00</temp>
<bpm>0</bpm>
<rpm>0.00</rpm>
</extensions>
</trkpt>
<trkpt lat="63.730316162" lon="-20.027996063">
<ele>68.582031</ele>
<time>2012-07-26T18:55:09Z</time>
<speed>0.030000</speed>
<extensions>
<speed>0.0</speed>
<temp>0.00</temp>
<bpm>0</bpm>
<rpm>0.00</rpm>
</extensions>
</trkpt>
<trkpt lat="63.730319977" lon="-20.027996063">
<ele>68.779297</ele>
<time>2012-07-26T18:55:14Z</time>
<speed>0.010000</speed>
<extensions>
<speed>0.0</speed>
<temp>0.00</temp>
<bpm>0</bpm>
<rpm>0.00</rpm>
</extensions>
</trkpt>
<trkpt lat="63.730319977" lon="-20.027996063">
<ele>68.777344</ele>
<time>2012-07-26T18:55:19Z</time>
<speed>0.020000</speed>
<extensions>
<speed>0.0</speed>
<temp>0.00</temp>
<bpm>0</bpm>
<rpm>0.00</rpm>
</extensions>
</trkpt>
<trkpt lat="63.730319977" lon="-20.027996063">
<ele>68.781250</ele>
<time>2012-07-26T18:55:24Z</time>
<extensions>
<speed>0.0</speed>
<temp>0.00</temp>
<bpm>0</bpm>
<rpm>0.00</rpm>
</extensions>
</trkpt>
<trkpt lat="63.730319977" lon="-20.027996063">
<ele>68.773438</ele>
<time>2012-07-26T18:55:29Z</time>
<extensions>
<speed>0.0</speed>
<temp>0.00</temp>
<bpm>0</bpm>
<rpm>0.00</rpm>
</extensions>
</trkpt>
<trkpt lat="63.730319977" lon="-20.027997971">
<ele>68.781250</ele>
<time>2012-07-26T18:55:34Z</time>
<speed>0.060000</speed>
<extensions>
<speed>0.1</speed>
<temp>0.00</temp>
<bpm>0</bpm>
<rpm>0.00</rpm>
</extensions>
</trkpt>
<trkpt lat="63.730319977" lon="-20.027996063">
<ele>68.789063</ele>
<time>2012-07-26T18:55:39Z</time>
<speed>0.010000</speed>
<extensions>
<speed>0.0</speed>
<temp>0.00</temp>
<bpm>0</bpm>
<rpm>0.00</rpm>
</extensions>
</trkpt>
<trkpt lat="63.730319977" lon="-20.027997971">
<ele>68.791016</ele>
<time>2012-07-26T18:55:44Z</time>
<speed>0.010000</speed>
<extensions>
<speed>0.0</speed>
<temp>0.00</temp>
<bpm>0</bpm>
<rpm>0.00</rpm>
</extensions>
</trkpt>
<trkpt lat="63.730319977" lon="-20.027997971">
<ele>68.800781</ele>
<time>2012-07-26T18:55:49Z</time>
<extensions>
<speed>0.0</speed>
<temp>0.00</temp>
<bpm>0</bpm>
<rpm>0.00</rpm>
</extensions>
</trkpt>
<trkpt lat="63.730319977" lon="-20.027997971">
<ele>68.804688</ele>
<time>2012-07-26T18:55:54Z</time>
<speed>0.010000</speed>
<extensions>
<speed>0.0</speed>
<temp>0.00</temp>
<bpm>0</bpm>
<rpm>0.00</rpm>
</extensions>
</trkpt>
<trkpt lat="63.730319977" lon="-20.027997971">
<ele>68.808594</ele>
<time>2012-07-26T18:55:59Z</time>
<speed>0.010000</speed>
<extensions>
<speed>0.0</speed>
<temp>0.00</temp>
<bpm>0</bpm>
<rpm>0.00</rpm>
</extensions>
</trkpt>
<trkpt lat="63.730319977" lon="-20.027997971">
<ele>68.806641</ele>
<time>2012-07-26T18:56:04Z</time>
<extensions>
<speed>0.0</speed>
<temp>0.00</temp>
<bpm>0</bpm>
<rpm>0.00</rpm>
</extensions>
</trkpt>
<trkpt lat="63.730319977" lon="-20.027997971">
<ele>68.810547</ele>
<time>2012-07-26T18:56:09Z</time>
<extensions>
<speed>0.0</speed>
<temp>0.00</temp>
<bpm>0</bpm>
<rpm>0.00</rpm>
</extensions>
</trkpt>
<trkpt lat="63.730319977" lon="-20.027997971">
<ele>68.818359</ele>
<time>2012-07-26T18:56:14Z</time>
<extensions>
<speed>0.0</speed>
<temp>0.00</temp>
<bpm>0</bpm>
<rpm>0.00</rpm>
</extensions>
</trkpt>
<trkpt lat="63.730319977" lon="-20.027997971">
<ele>68.818359</ele>
<time>2012-07-26T18:56:19Z</time>
<extensions>
<speed>0.0</speed>
<temp>0.00</temp>
<bpm>0</bpm>
<rpm>0.00</rpm>
</extensions>
</trkpt>
<trkpt lat="63.730319977" lon="-20.027997971">
<ele>68.839844</ele>
<time>2012-07-26T18:56:24Z</time>
<extensions>
<speed>0.0</speed>
<temp>0.00</temp>
<bpm>0</bpm>
<rpm>0.00</rpm>
</extensions>
</trkpt>
<trkpt lat="63.730319977" lon="-20.027997971">
<ele>68.849609</ele>
<time>2012-07-26T18:56:29Z</time>
<speed>0.020000</speed>
<extensions>
<speed>0.0</speed>
<temp>0.00</temp>
<bpm>0</bpm>
<rpm>0.00</rpm>
</extensions>
</trkpt>
<trkpt lat="63.730319977" lon="-20.027997971">
<ele>68.847656</ele>
<time>2012-07-26T18:56:34Z</time>
<speed>0.080000</speed>
<extensions>
<speed>0.1</speed>
<temp>0.00</temp>
<bpm>0</bpm>
<rpm>0.00</rpm>
</extensions>
</trkpt>
<trkpt lat="63.730293274" lon="-20.028007507">
<ele>69.060547</ele>
<time>2012-07-26T18:56:39Z</time>
<speed>1.280000</speed>
<extensions>
<speed>1.3</speed>
<temp>0.00</temp>
<bpm>0</bpm>
<rpm>0.00</rpm>
</extensions>
</trkpt>
<trkpt lat="63.730270386" lon="-20.027980804">
<ele>69.015625</ele>
<time>2012-07-26T18:56:44Z</time>
<speed>0.050000</speed>
<extensions>
<speed>0.1</speed>
<temp>0.00</temp>
<bpm>0</bpm>
<rpm>0.00</rpm>
</extensions>
</trkpt>
<trkpt lat="63.730270386" lon="-20.027980804">
<ele>69.189453</ele>
<time>2012-07-26T18:56:49Z</time>
<speed>0.020000</speed>
<extensions>
<speed>0.0</speed>
<temp>0.00</temp>
<bpm>0</bpm>
<rpm>0.00</rpm>
</extensions>
</trkpt>
<trkpt lat="63.730266571" lon="-20.027978897">
<ele>69.275391</ele>
<time>2012-07-26T18:56:54Z</time>
<speed>0.010000</speed>
<extensions>
<speed>0.0</speed>
<temp>0.00</temp>
<bpm>0</bpm>
<rpm>0.00</rpm>
</extensions>
</trkpt>
<trkpt lat="63.730270386" lon="-20.027978897">
<ele>69.275391</ele>
<time>2012-07-26T18:56:59Z</time>
<speed>0.030000</speed>
<extensions>
<speed>0.0</speed>
<temp>0.00</temp>
<bpm>0</bpm>
<rpm>0.00</rpm>
</extensions>
</trkpt>
<trkpt lat="63.730270386" lon="-20.027978897">
<ele>69.279297</ele>
<time>2012-07-26T18:57:04Z</time>
<extensions>
<speed>0.0</speed>
<temp>0.00</temp>
<bpm>0</bpm>
<rpm>0.00</rpm>
</extensions>
</trkpt>
<trkpt lat="63.730266571" lon="-20.027978897">
<ele>69.281250</ele>
<time>2012-07-26T18:57:09Z</time>
<extensions>
<speed>0.0</speed>
<temp>0.00</temp>
<bpm>0</bpm>
<rpm>0.00</rpm>
</extensions>
</trkpt>
<trkpt lat="63.730266571" lon="-20.027978897">
<ele>69.283203</ele>
<time>2012-07-26T18:57:14Z</time>
<extensions>
<speed>0.0</speed>
<temp>0.00</temp>
<bpm>0</bpm>
<rpm>0.00</rpm>
</extensions>
</trkpt>
<trkpt lat="63.730266571" lon="-20.027978897">
<ele>69.285156</ele>
<time>2012-07-26T18:57:19Z</time>
<extensions>
<speed>0.0</speed>
<temp>0.00</temp>
<bpm>0</bpm>
<rpm>0.00</rpm>
</extensions>
</trkpt>
<trkpt lat="63.730266571" lon="-20.027978897">
<ele>69.294922</ele>
<time>2012-07-26T18:57:24Z</time>
<extensions>
<speed>0.0</speed>
<temp>0.00</temp>
<bpm>0</bpm>
<rpm>0.00</rpm>
</extensions>
</trkpt>
<trkpt lat="63.730266571" lon="-20.027980804">
<ele>69.292969</ele>
<time>2012-07-26T18:57:29Z</time>
<speed>0.010000</speed>
<extensions>
<speed>0.0</speed>
<temp>0.00</temp>
<bpm>0</bpm>
<rpm>0.00</rpm>
</extensions>
</trkpt>
<trkpt lat="63.730266571" lon="-20.027980804">
<ele>69.300781</ele>
<time>2012-07-26T18:57:34Z</time>
<extensions>
<speed>0.0</speed>
<temp>0.00</temp>
<bpm>0</bpm>
<rpm>0.00</rpm>
</extensions>
</trkpt>
<trkpt lat="63.730266571" lon="-20.027980804">
<ele>69.310547</ele>
<time>2012-07-26T18:57:39Z</time>
<extensions>
<speed>0.0</speed>
<temp>0.00</temp>
<bpm>0</bpm>
<rpm>0.00</rpm>
</extensions>
</trkpt>
<trkpt lat="63.730266571" lon="-20.027980804">
<ele>69.308594</ele>
<time>2012-07-26T18:57:44Z</time>
<extensions>
<speed>0.0</speed>
<temp>0.00</temp>
<bpm>0</bpm>
<rpm>0.00</rpm>
</extensions>
</trkpt>
<trkpt lat="63.730266571" lon="-20.027980804">
<ele>69.308594</ele>
<time>2012-07-26T18:57:49Z</time>
<extensions>
<speed>0.0</speed>
<temp>0.00</temp>
<bpm>0</bpm>
<rpm>0.00</rpm>
</extensions>
</trkpt>
<trkpt lat="63.730266571" lon="-20.027980804">
<ele>69.308594</ele>
<time>2012-07-26T18:57:54Z</time>
<speed>0.190000</speed>
<extensions>
<speed>0.2</speed>
<temp>0.00</temp>
<bpm>0</bpm>
<rpm>0.00</rpm>
</extensions>
</trkpt>
<trkpt lat="63.730266571" lon="-20.027976990">
<ele>69.285156</ele>
<time>2012-07-26T18:57:59Z</time>
<speed>0.030000</speed>
<extensions>
<speed>0.0</speed>
<temp>0.00</temp>
<bpm>0</bpm>
<rpm>0.00</rpm>
</extensions>
</trkpt>
<trkpt lat="63.730262756" lon="-20.027948380">
<ele>69.503906</ele>
<time>2012-07-26T18:58:04Z</time>
<speed>1.030000</speed>
<extensions>
<speed>1.0</speed>
<temp>0.00</temp>
<bpm>0</bpm>
<rpm>0.00</rpm>
</extensions>
</trkpt>
<trkpt lat="63.730209351" lon="-20.027833939">
<ele>68.746094</ele>
<time>2012-07-26T18:58:09Z</time>
<speed>1.510000</speed>
<extensions>
<speed>1.5</speed>
<temp>0.00</temp>
<bpm>0</bpm>
<rpm>0.00</rpm>
</extensions>
</trkpt>
<trkpt lat="63.730159760" lon="-20.027780533">
<ele>68.453125</ele>
<time>2012-07-26T18:58:14Z</time>
<speed>0.380000</speed>
<extensions>
<speed>0.4</speed>
<temp>0.00</temp>
<bpm>0</bpm>
<rpm>0.00</rpm>
</extensions>
</trkpt>
<trkpt lat="63.730155945" lon="-20.027780533">
<ele>68.521484</ele>
<time>2012-07-26T18:58:19Z</time>
<speed>0.010000</speed>
<extensions>
<speed>0.0</speed>
<temp>0.00</temp>
<bpm>0</bpm>
<rpm>0.00</rpm>
</extensions>
</trkpt>
<trkpt lat="63.730155945" lon="-20.027780533">
<ele>68.570313</ele>
<time>2012-07-26T18:58:24Z</time>
<speed>0.170000</speed>
<extensions>
<speed>0.2</speed>
<temp>0.00</temp>
<bpm>0</bpm>
<rpm>0.00</rpm>
</extensions>
</trkpt>
<trkpt lat="63.730152130" lon="-20.027767181">
<ele>69.015625</ele>
<time>2012-07-26T18:58:29Z</time>
<speed>0.660000</speed>
<extensions>
<speed>0.7</speed>
<temp>0.00</temp>
<bpm>0</bpm>
<rpm>0.00</rpm>
</extensions>
</trkpt>
<trkpt lat="63.730144501" lon="-20.027738571">
<ele>69.623047</ele>
<time>2012-07-26T18:58:34Z</time>
<speed>0.400000</speed>
<extensions>
<speed>0.4</speed>
<temp>0.00</temp>
<bpm>0</bpm>
<rpm>0.00</rpm>
</extensions>
</trkpt>
<trkpt lat="63.730148315" lon="-20.027740479">
<ele>69.607422</ele>
<time>2012-07-26T18:58:39Z</time>
<speed>0.090000</speed>
<extensions>
<speed>0.1</speed>
<temp>0.00</temp>
<bpm>0</bpm>
<rpm>0.00</rpm>
</extensions>
</trkpt>
<trkpt lat="63.730148315" lon="-20.027740479">
<ele>69.494141</ele>
<time>2012-07-26T18:58:44Z</time>
<extensions>
<speed>0.0</speed>
<temp>0.00</temp>
<bpm>0</bpm>
<rpm>0.00</rpm>
</extensions>
</trkpt>
<trkpt lat="63.730148315" lon="-20.027740479">
<ele>69.515625</ele>
<time>2012-07-26T18:58:49Z</time>
<extensions>
<speed>0.0</speed>
<temp>0.00</temp>
<bpm>0</bpm>
<rpm>0.00</rpm>
</extensions>
</trkpt>
<trkpt lat="63.730148315" lon="-20.027740479">
<ele>69.541016</ele>
<time>2012-07-26T18:58:54Z</time>
<speed>0.380000</speed>
<extensions>
<speed>0.4</speed>
<temp>0.00</temp>
<bpm>0</bpm>
<rpm>0.00</rpm>
</extensions>
</trkpt>
<trkpt lat="63.730136871" lon="-20.027730942">
<ele>69.363281</ele>
<time>2012-07-26T18:58:59Z</time>
<speed>0.030000</speed>
<extensions>
<speed>0.0</speed>
<temp>0.00</temp>
<bpm>0</bpm>
<rpm>0.00</rpm>
</extensions>
</trkpt>
<trkpt lat="63.730136871" lon="-20.027730942">
<ele>69.074219</ele>
<time>2012-07-26T18:59:04Z</time>
<speed>0.010000</speed>
<extensions>
<speed>0.0</speed>
<temp>0.00</temp>
<bpm>0</bpm>
<rpm>0.00</rpm>
</extensions>
</trkpt>
<trkpt lat="63.730136871" lon="-20.027730942">
<ele>69.083984</ele>
<time>2012-07-26T18:59:09Z</time>
<speed>0.010000</speed>
<extensions>
<speed>0.0</speed>
<temp>0.00</temp>
<bpm>0</bpm>
<rpm>0.00</rpm>
</extensions>
</trkpt>
<trkpt lat="63.730136871" lon="-20.027730942">
<ele>69.089844</ele>
<time>2012-07-26T18:59:14Z</time>
<extensions>
<speed>0.0</speed>
<temp>0.00</temp>
<bpm>0</bpm>
<rpm>0.00</rpm>
</extensions>
</trkpt>
<trkpt lat="63.730136871" lon="-20.027730942">
<ele>69.115234</ele>
<time>2012-07-26T18:59:19Z</time>
<extensions>
<speed>0.0</speed>
<temp>0.00</temp>
<bpm>0</bpm>
<rpm>0.00</rpm>
</extensions>
</trkpt>
<trkpt lat="63.730136871" lon="-20.027730942">
<ele>69.121094</ele>
<time>2012-07-26T18:59:24Z</time>
<extensions>
<speed>0.0</speed>
<temp>0.00</temp>
<bpm>0</bpm>
<rpm>0.00</rpm>
</extensions>
</trkpt>
<trkpt lat="63.730136871" lon="-20.027730942">
<ele>69.130859</ele>
<time>2012-07-26T18:59:29Z</time>
<speed>0.010000</speed>
<extensions>
<speed>0.0</speed>
<temp>0.00</temp>
<bpm>0</bpm>
<rpm>0.00</rpm>
</extensions>
</trkpt>
<trkpt lat="63.730136871" lon="-20.027730942">
<ele>69.136719</ele>
<time>2012-07-26T18:59:34Z</time>
<extensions>
<speed>0.0</speed>
<temp>0.00</temp>
<bpm>0</bpm>
<rpm>0.00</rpm>
</extensions>
</trkpt>
<trkpt lat="63.730136871" lon="-20.027730942">
<ele>69.146484</ele>
<time>2012-07-26T18:59:39Z</time>
<speed>0.010000</speed>
<extensions>
<speed>0.0</speed>
<temp>0.00</temp>
<bpm>0</bpm>
<rpm>0.00</rpm>
</extensions>
</trkpt>
<trkpt lat="63.730136871" lon="-20.027730942">
<ele>69.158203</ele>
<time>2012-07-26T18:59:44Z</time>
<extensions>
<speed>0.0</speed>
<temp>0.00</temp>
<bpm>0</bpm>
<rpm>0.00</rpm>
</extensions>
</trkpt>
<trkpt lat="63.730136871" lon="-20.027730942">
<ele>69.169922</ele>
<time>2012-07-26T18:59:49Z</time>
<extensions>
<speed>0.0</speed>
<temp>0.00</temp>
<bpm>0</bpm>
<rpm>0.00</rpm>
</extensions>
</trkpt>
<trkpt lat="63.730136871" lon="-20.027732849">
<ele>69.183594</ele>
<time>2012-07-26T18:59:54Z</time>
<speed>0.010000</speed>
<extensions>
<speed>0.0</speed>
<temp>0.00</temp>
<bpm>0</bpm>
<rpm>0.00</rpm>
</extensions>
</trkpt>
<trkpt lat="63.730136871" lon="-20.027732849">
<ele>69.193359</ele>
<time>2012-07-26T18:59:59Z</time>
<extensions>
<speed>0.0</speed>
<temp>0.00</temp>
<bpm>0</bpm>
<rpm>0.00</rpm>
</extensions>
</trkpt>
<trkpt lat="63.730136871" lon="-20.027732849">
<ele>69.203125</ele>
<time>2012-07-26T19:00:04Z</time>
<speed>0.040000</speed>
<extensions>
<speed>0.0</speed>
<temp>0.00</temp>
<bpm>0</bpm>
<rpm>0.00</rpm>
</extensions>
</trkpt>
<trkpt lat="63.730136871" lon="-20.027730942">
<ele>69.169922</ele>
<time>2012-07-26T19:00:09Z</time>
<speed>0.010000</speed>
<extensions>
<speed>0.0</speed>
<temp>0.00</temp>
<bpm>0</bpm>
<rpm>0.00</rpm>
</extensions>
</trkpt>
<trkpt lat="63.730136871" lon="-20.027730942">
<ele>69.169922</ele>
<time>2012-07-26T19:00:14Z</time>
<speed>0.020000</speed>
<extensions>
<speed>0.0</speed>
<temp>0.00</temp>
<bpm>0</bpm>
<rpm>0.00</rpm>
</extensions>
</trkpt>
<trkpt lat="63.730136871" lon="-20.027729034">
<ele>69.177734</ele>
<time>2012-07-26T19:00:19Z</time>
<speed>0.020000</speed>
<extensions>
<speed>0.0</speed>
<temp>0.00</temp>
<bpm>0</bpm>
<rpm>0.00</rpm>
</extensions>
</trkpt>
<trkpt lat="63.730136871" lon="-20.027729034">
<ele>69.181641</ele>
<time>2012-07-26T19:00:24Z</time>
<speed>0.010000</speed>
<extensions>
<speed>0.0</speed>
<temp>0.00</temp>
<bpm>0</bpm>
<rpm>0.00</rpm>
</extensions>
</trkpt>
<trkpt lat="63.730136871" lon="-20.027729034">
<ele>69.189453</ele>
<time>2012-07-26T19:00:29Z</time>
<extensions>
<speed>0.0</speed>
<temp>0.00</temp>
<bpm>0</bpm>
<rpm>0.00</rpm>
</extensions>
</trkpt>
<trkpt lat="63.730136871" lon="-20.027729034">
<ele>69.191406</ele>
<time>2012-07-26T19:00:34Z</time>
<extensions>
<speed>0.0</speed>
<temp>0.00</temp>
<bpm>0</bpm>
<rpm>0.00</rpm>
</extensions>
</trkpt>
<trkpt lat="63.730136871" lon="-20.027729034">
<ele>69.189453</ele>
<time>2012-07-26T19:00:39Z</time>
<speed>0.030000</speed>
<extensions>
<speed>0.0</speed>
<temp>0.00</temp>
<bpm>0</bpm>
<rpm>0.00</rpm>
</extensions>
</trkpt>
<trkpt lat="63.730133057" lon="-20.027729034">
<ele>69.195313</ele>
<time>2012-07-26T19:00:44Z</time>
<speed>0.010000</speed>
<extensions>
<speed>0.0</speed>
<temp>0.00</temp>
<bpm>0</bpm>
<rpm>0.00</rpm>
</extensions>
</trkpt>
<trkpt lat="63.730133057" lon="-20.027729034">
<ele>69.207031</ele>
<time>2012-07-26T19:00:49Z</time>
<extensions>
<speed>0.0</speed>
<temp>0.00</temp>
<bpm>0</bpm>
<rpm>0.00</rpm>
</extensions>
</trkpt>
<trkpt lat="63.730133057" lon="-20.027729034">
<ele>69.214844</ele>
<time>2012-07-26T19:00:54Z</time>
<speed>0.030000</speed>
<extensions>
<speed>0.0</speed>
<temp>0.00</temp>
<bpm>0</bpm>
<rpm>0.00</rpm>
</extensions>
</trkpt>
<trkpt lat="63.730133057" lon="-20.027729034">
<ele>69.218750</ele>
<time>2012-07-26T19:00:59Z</time>
<extensions>
<speed>0.0</speed>
<temp>0.00</temp>
<bpm>0</bpm>
<rpm>0.00</rpm>
</extensions>
</trkpt>
<trkpt lat="63.730133057" lon="-20.027729034">
<ele>69.220703</ele>
<time>2012-07-26T19:01:04Z</time>
<speed>0.010000</speed>
<extensions>
<speed>0.0</speed>
<temp>0.00</temp>
<bpm>0</bpm>
<rpm>0.00</rpm>
</extensions>
</trkpt>
<trkpt lat="63.730133057" lon="-20.027729034">
<ele>69.228516</ele>
<time>2012-07-26T19:01:09Z</time>
<speed>0.010000</speed>
<extensions>
<speed>0.0</speed>
<temp>0.00</temp>
<bpm>0</bpm>
<rpm>0.00</rpm>
</extensions>
</trkpt>
<trkpt lat="63.730133057" lon="-20.027729034">
<ele>69.234375</ele>
<time>2012-07-26T19:01:14Z</time>
<speed>0.010000</speed>
<extensions>
<speed>0.0</speed>
<temp>0.00</temp>
<bpm>0</bpm>
<rpm>0.00</rpm>
</extensions>
</trkpt>
<trkpt lat="63.730133057" lon="-20.027729034">
<ele>69.238281</ele>
<time>2012-07-26T19:01:19Z</time>
<speed>0.010000</speed>
<extensions>
<speed>0.0</speed>
<temp>0.00</temp>
<bpm>0</bpm>
<rpm>0.00</rpm>
</extensions>
</trkpt>
<trkpt lat="63.730133057" lon="-20.027729034">
<ele>69.248047</ele>
<time>2012-07-26T19:01:24Z</time>
<extensions>
<speed>0.0</speed>
<temp>0.00</temp>
<bpm>0</bpm>
<rpm>0.00</rpm>
</extensions>
</trkpt>
<trkpt lat="63.730133057" lon="-20.027751923">
<ele>69.611328</ele>
<time>2012-07-26T19:01:29Z</time>
<speed>0.270000</speed>
<extensions>
<speed>0.3</speed>
<temp>0.00</temp>
<bpm>0</bpm>
<rpm>0.00</rpm>
</extensions>
</trkpt>
<trkpt lat="63.730159760" lon="-20.027738571">
<ele>69.472656</ele>
<time>2012-07-26T19:01:34Z</time>
<speed>0.760000</speed>
<extensions>
<speed>0.8</speed>
<temp>0.00</temp>
<bpm>0</bpm>
<rpm>0.00</rpm>
</extensions>
</trkpt>
<trkpt lat="63.730163574" lon="-20.027744293">
<ele>69.941406</ele>
<time>2012-07-26T19:01:39Z</time>
<speed>0.170000</speed>
<extensions>
<speed>0.2</speed>
<temp>0.00</temp>
<bpm>0</bpm>
<rpm>0.00</rpm>
</extensions>
</trkpt>
<trkpt lat="63.730171204" lon="-20.027736664">
<ele>70.501953</ele>
<time>2012-07-26T19:01:44Z</time>
<speed>0.020000</speed>
<extensions>
<speed>0.0</speed>
<temp>0.00</temp>
<bpm>0</bpm>
<rpm>0.00</rpm>
</extensions>
</trkpt>
<trkpt lat="63.730171204" lon="-20.027736664">
<ele>70.552734</ele>
<time>2012-07-26T19:01:49Z</time>
<extensions>
<speed>0.0</speed>
<temp>0.00</temp>
<bpm>0</bpm>
<rpm>0.00</rpm>
</extensions>
</trkpt>
<trkpt lat="63.730178833" lon="-20.027746201">
<ele>70.634766</ele>
<time>2012-07-26T19:01:54Z</time>
<speed>1.110000</speed>
<extensions>
<speed>1.1</speed>
<temp>0.00</temp>
<bpm>0</bpm>
<rpm>0.00</rpm>
</extensions>
</trkpt>
<trkpt lat="63.730243683" lon="-20.027864456">
<ele>70.990234</ele>
<time>2012-07-26T19:01:59Z</time>
<speed>2.300000</speed>
<extensions>
<speed>2.3</speed>
<temp>0.00</temp>
<bpm>0</bpm>
<rpm>0.00</rpm>
</extensions>
</trkpt>
<trkpt lat="63.730289459" lon="-20.028099060">
<ele>72.199219</ele>
<time>2012-07-26T19:02:04Z</time>
<speed>2.440000</speed>
<extensions>
<speed>2.4</speed>
<temp>0.00</temp>
<bpm>0</bpm>
<rpm>0.00</rpm>
</extensions>
</trkpt>
<trkpt lat="63.730316162" lon="-20.028398514">
<ele>72.115234</ele>
<time>2012-07-26T19:02:09Z</time>
<speed>3.850000</speed>
<extensions>
<speed>3.8</speed>
<temp>0.00</temp>
<bpm>0</bpm>
<rpm>0.00</rpm>
</extensions>
</trkpt>
<trkpt lat="63.730346680" lon="-20.028831482">
<ele>69.423828</ele>
<time>2012-07-26T19:02:14Z</time>
<speed>4.710000</speed>
<extensions>
<speed>4.7</speed>
<temp>0.00</temp>
<bpm>0</bpm>
<rpm>0.00</rpm>
</extensions>
</trkpt>
<trkpt lat="63.730381012" lon="-20.029291153">
<ele>69.371094</ele>
<time>2012-07-26T19:02:19Z</time>
<speed>4.520000</speed>
<extensions>
<speed>4.5</speed>
<temp>0.00</temp>
<bpm>0</bpm>
<rpm>0.00</rpm>
</extensions>
</trkpt>
<trkpt lat="63.730422974" lon="-20.029796600">
<ele>69.671875</ele>
<time>2012-07-26T19:02:24Z</time>
<speed>5.520000</speed>
<extensions>
<speed>5.5</speed>
<temp>0.00</temp>
<bpm>0</bpm>
<rpm>0.00</rpm>
</extensions>
</trkpt>
<trkpt lat="63.730457306" lon="-20.030298233">
<ele>70.054688</ele>
<time>2012-07-26T19:02:29Z</time>
<speed>4.670000</speed>
<extensions>
<speed>4.7</speed>
<temp>0.00</temp>
<bpm>0</bpm>
<rpm>0.00</rpm>
</extensions>
</trkpt>
<trkpt lat="63.730487823" lon="-20.030750275">
<ele>69.205078</ele>
<time>2012-07-26T19:02:34Z</time>
<speed>4.780000</speed>
<extensions>
<speed>4.8</speed>
<temp>0.00</temp>
<bpm>0</bpm>
<rpm>0.00</rpm>
</extensions>
</trkpt>
<trkpt lat="63.730525970" lon="-20.031208038">
<ele>68.160156</ele>
<time>2012-07-26T19:02:39Z</time>
<speed>4.730000</speed>
<extensions>
<speed>4.7</speed>
<temp>0.00</temp>
<bpm>0</bpm>
<rpm>0.00</rpm>
</extensions>
</trkpt>
<trkpt lat="63.730556488" lon="-20.031677246">
<ele>67.923828</ele>
<time>2012-07-26T19:02:44Z</time>
<speed>4.530000</speed>
<extensions>
<speed>4.5</speed>
<temp>0.00</temp>
<bpm>0</bpm>
<rpm>0.00</rpm>
</extensions>
</trkpt>
<trkpt lat="63.730587006" lon="-20.032178879">
<ele>66.537109</ele>
<time>2012-07-26T19:02:49Z</time>
<speed>5.110000</speed>
<extensions>
<speed>5.1</speed>
<temp>0.00</temp>
<bpm>0</bpm>
<rpm>0.00</rpm>
</extensions>
</trkpt>
<trkpt lat="63.730621338" lon="-20.032686234">
<ele>65.966797</ele>
<time>2012-07-26T19:02:54Z</time>
<speed>4.890000</speed>
<extensions>
<speed>4.9</speed>
<temp>0.00</temp>
<bpm>0</bpm>
<rpm>0.00</rpm>
</extensions>
</trkpt>
<trkpt lat="63.730655670" lon="-20.033193588">
<ele>65.585938</ele>
<time>2012-07-26T19:02:59Z</time>
<speed>4.960000</speed>
<extensions>
<speed>5.0</speed>
<temp>0.00</temp>
<bpm>0</bpm>
<rpm>0.00</rpm>
</extensions>
</trkpt>
<trkpt lat="63.730697632" lon="-20.033691406">
<ele>64.080078</ele>
<time>2012-07-26T19:03:04Z</time>
<speed>4.730000</speed>
<extensions>
<speed>4.7</speed>
<temp>0.00</temp>
<bpm>0</bpm>
<rpm>0.00</rpm>
</extensions>
</trkpt>
<trkpt lat="63.730731964" lon="-20.034177780">
<ele>61.547852</ele>
<time>2012-07-26T19:03:09Z</time>
<speed>5.110000</speed>
<extensions>
<speed>5.1</speed>
<temp>0.00</temp>
<bpm>0</bpm>
<rpm>0.00</rpm>
</extensions>
</trkpt>
<trkpt lat="63.730766296" lon="-20.034688950">
<ele>61.704102</ele>
<time>2012-07-26T19:03:14Z</time>
<speed>5.090000</speed>
<extensions>
<speed>5.1</speed>
<temp>0.00</temp>
<bpm>0</bpm>
<rpm>0.00</rpm>
</extensions>
</trkpt>
<trkpt lat="63.730804443" lon="-20.035202026">
<ele>62.635742</ele>
<time>2012-07-26T19:03:19Z</time>
<speed>4.840000</speed>
<extensions>
<speed>4.8</speed>
<temp>0.00</temp>
<bpm>0</bpm>
<rpm>0.00</rpm>
</extensions>
</trkpt>
<trkpt lat="63.730838776" lon="-20.035667419">
<ele>61.215820</ele>
<time>2012-07-26T19:03:24Z</time>
<speed>4.730000</speed>
<extensions>
<speed>4.7</speed>
<temp>0.00</temp>
<bpm>0</bpm>
<rpm>0.00</rpm>
</extensions>
</trkpt>
<trkpt lat="63.730865479" lon="-20.036132813">
<ele>59.165039</ele>
<time>2012-07-26T19:03:29Z</time>
<speed>4.400000</speed>
<extensions>
<speed>4.4</speed>
<temp>0.00</temp>
<bpm>0</bpm>
<rpm>0.00</rpm>
</extensions>
</trkpt>
<trkpt lat="63.730899811" lon="-20.036569595">
<ele>58.239258</ele>
<time>2012-07-26T19:03:34Z</time>
<speed>4.240000</speed>
<extensions>
<speed>4.2</speed>
<temp>0.00</temp>
<bpm>0</bpm>
<rpm>0.00</rpm>
</extensions>
</trkpt>
<trkpt lat="63.730934143" lon="-20.036973953">
<ele>59.075195</ele>
<time>2012-07-26T19:03:39Z</time>
<speed>3.460000</speed>
<extensions>
<speed>3.5</speed>
<temp>0.00</temp>
<bpm>0</bpm>
<rpm>0.00</rpm>
</extensions>
</trkpt>
<trkpt lat="63.730945587" lon="-20.037229538">
<ele>59.318359</ele>
<time>2012-07-26T19:03:44Z</time>
<speed>1.990000</speed>
<extensions>
<speed>2.0</speed>
<temp>0.00</temp>
<bpm>0</bpm>
<rpm>0.00</rpm>
</extensions>
</trkpt>
<trkpt lat="63.730957031" lon="-20.037397385">
<ele>60.602539</ele>
<time>2012-07-26T19:03:49Z</time>
<speed>1.750000</speed>
<extensions>
<speed>1.8</speed>
<temp>0.00</temp>
<bpm>0</bpm>
<rpm>0.00</rpm>
</extensions>
</trkpt>
<trkpt lat="63.730968475" lon="-20.037569046">
<ele>60.315430</ele>
<time>2012-07-26T19:03:54Z</time>
<speed>2.010000</speed>
<extensions>
<speed>2.0</speed>
<temp>0.00</temp>
<bpm>0</bpm>
<rpm>0.00</rpm>
</extensions>
</trkpt>
<trkpt lat="63.730972290" lon="-20.037729263">
<ele>60.415039</ele>
<time>2012-07-26T19:03:59Z</time>
<speed>1.640000</speed>
<extensions>
<speed>1.6</speed>
<temp>0.00</temp>
<bpm>0</bpm>
<rpm>0.00</rpm>
</extensions>
</trkpt>
<trkpt lat="63.730979919" lon="-20.037910461">
<ele>58.949219</ele>
<time>2012-07-26T19:04:04Z</time>
<speed>1.760000</speed>
<extensions>
<speed>1.8</speed>
<temp>0.00</temp>
<bpm>0</bpm>
<rpm>0.00</rpm>
</extensions>
</trkpt>
<trkpt lat="63.730991364" lon="-20.038101196">
<ele>59.428711</ele>
<time>2012-07-26T19:04:09Z</time>
<speed>1.770000</speed>
<extensions>
<speed>1.8</speed>
<temp>0.00</temp>
<bpm>0</bpm>
<rpm>0.00</rpm>
</extensions>
</trkpt>
<trkpt lat="63.731018066" lon="-20.038343430">
<ele>59.451172</ele>
<time>2012-07-26T19:04:14Z</time>
<speed>3.470000</speed>
<extensions>
<speed>3.5</speed>
<temp>0.00</temp>
<bpm>0</bpm>
<rpm>0.00</rpm>
</extensions>
</trkpt>
<trkpt lat="63.731040955" lon="-20.038690567">
<ele>58.677734</ele>
<time>2012-07-26T19:04:19Z</time>
<speed>3.480000</speed>
<extensions>
<speed>3.5</speed>
<temp>0.00</temp>
<bpm>0</bpm>
<rpm>0.00</rpm>
</extensions>
</trkpt>
<trkpt lat="63.731067657" lon="-20.039056778">
<ele>57.687500</ele>
<time>2012-07-26T19:04:24Z</time>
<speed>3.470000</speed>
<extensions>
<speed>3.5</speed>
<temp>0.00</temp>
<bpm>0</bpm>
<rpm>0.00</rpm>
</extensions>
</trkpt>
<trkpt lat="63.731086731" lon="-20.039388657">
<ele>54.170898</ele>
<time>2012-07-26T19:04:29Z</time>
<speed>3.370000</speed>
<extensions>
<speed>3.4</speed>
<temp>0.00</temp>
<bpm>0</bpm>
<rpm>0.00</rpm>
</extensions>
</trkpt>
<trkpt lat="63.731105804" lon="-20.039720535">
<ele>53.752930</ele>
<time>2012-07-26T19:04:34Z</time>
<speed>3.730000</speed>
<extensions>
<speed>3.7</speed>
<temp>0.00</temp>
<bpm>0</bpm>
<rpm>0.00</rpm>
</extensions>
</trkpt>
<trkpt lat="63.731140137" lon="-20.040168762">
<ele>53.736328</ele>
<time>2012-07-26T19:04:39Z</time>
<speed>4.870000</speed>
<extensions>
<speed>4.9</speed>
<temp>0.00</temp>
<bpm>0</bpm>
<rpm>0.00</rpm>
</extensions>
</trkpt>
<trkpt lat="63.731178284" lon="-20.040670395">
<ele>53.674805</ele>
<time>2012-07-26T19:04:44Z</time>
<speed>5.180000</speed>
<extensions>
<speed>5.2</speed>
<temp>0.00</temp>
<bpm>0</bpm>
<rpm>0.00</rpm>
</extensions>
</trkpt>
<trkpt lat="63.731212616" lon="-20.041185379">
<ele>52.634766</ele>
<time>2012-07-26T19:04:49Z</time>
<speed>5.000000</speed>
<extensions>
<speed>5.0</speed>
<temp>0.00</temp>
<bpm>0</bpm>
<rpm>0.00</rpm>
</extensions>
</trkpt>
<trkpt lat="63.731246948" lon="-20.041692734">
<ele>53.113281</ele>
<time>2012-07-26T19:04:54Z</time>
<speed>4.780000</speed>
<extensions>
<speed>4.8</speed>
<temp>0.00</temp>
<bpm>0</bpm>
<rpm>0.00</rpm>
</extensions>
</trkpt>
<trkpt lat="63.731285095" lon="-20.042158127">
<ele>53.777344</ele>
<time>2012-07-26T19:04:59Z</time>
<speed>4.910000</speed>
<extensions>
<speed>4.9</speed>
<temp>0.00</temp>
<bpm>0</bpm>
<rpm>0.00</rpm>
</extensions>
</trkpt>
<trkpt lat="63.731323242" lon="-20.042644501">
<ele>53.751953</ele>
<time>2012-07-26T19:05:04Z</time>
<speed>4.750000</speed>
<extensions>
<speed>4.8</speed>
<temp>0.00</temp>
<bpm>0</bpm>
<rpm>0.00</rpm>
</extensions>
</trkpt>
<trkpt lat="63.731353760" lon="-20.043109894">
<ele>54.084961</ele>
<time>2012-07-26T19:05:09Z</time>
<speed>4.630000</speed>
<extensions>
<speed>4.6</speed>
<temp>0.00</temp>
<bpm>0</bpm>
<rpm>0.00</rpm>
</extensions>
</trkpt>
<trkpt lat="63.731376648" lon="-20.043581009">
<ele>54.100586</ele>
<time>2012-07-26T19:05:14Z</time>
<speed>4.570000</speed>
<extensions>
<speed>4.6</speed>
<temp>0.00</temp>
<bpm>0</bpm>
<rpm>0.00</rpm>
</extensions>
</trkpt>
<trkpt lat="63.731414795" lon="-20.044084549">
<ele>54.689453</ele>
<time>2012-07-26T19:05:19Z</time>
<speed>5.170000</speed>
<extensions>
<speed>5.2</speed>
<temp>0.00</temp>
<bpm>0</bpm>
<rpm>0.00</rpm>
</extensions>
</trkpt>
<trkpt lat="63.731441498" lon="-20.044584274">
<ele>53.695313</ele>
<time>2012-07-26T19:05:24Z</time>
<speed>4.860000</speed>
<extensions>
<speed>4.9</speed>
<temp>0.00</temp>
<bpm>0</bpm>
<rpm>0.00</rpm>
</extensions>
</trkpt>
<trkpt lat="63.731487274" lon="-20.045078278">
<ele>53.217773</ele>
<time>2012-07-26T19:05:29Z</time>
<speed>4.860000</speed>
<extensions>
<speed>4.9</speed>
<temp>0.00</temp>
<bpm>0</bpm>
<rpm>0.00</rpm>
</extensions>
</trkpt>
<trkpt lat="63.731517792" lon="-20.045549393">
<ele>52.862305</ele>
<time>2012-07-26T19:05:34Z</time>
<speed>4.770000</speed>
<extensions>
<speed>4.8</speed>
<temp>0.00</temp>
<bpm>0</bpm>
<rpm>0.00</rpm>
</extensions>
</trkpt>
<trkpt lat="63.731544495" lon="-20.046030045">
<ele>52.670898</ele>
<time>2012-07-26T19:05:39Z</time>
<speed>4.680000</speed>
<extensions>
<speed>4.7</speed>
<temp>0.00</temp>
<bpm>0</bpm>
<rpm>0.00</rpm>
</extensions>
</trkpt>
<trkpt lat="63.731567383" lon="-20.046510696">
<ele>50.884766</ele>
<time>2012-07-26T19:05:44Z</time>
<speed>4.640000</speed>
<extensions>
<speed>4.6</speed>
<temp>0.00</temp>
<bpm>0</bpm>
<rpm>0.00</rpm>
</extensions>
</trkpt>
<trkpt lat="63.731590271" lon="-20.046968460">
<ele>49.537109</ele>
<time>2012-07-26T19:05:49Z</time>
<speed>4.480000</speed>
<extensions>
<speed>4.5</speed>
<temp>0.00</temp>
<bpm>0</bpm>
<rpm>0.00</rpm>
</extensions>
</trkpt>
<trkpt lat="63.731628418" lon="-20.047456741">
<ele>49.368164</ele>
<time>2012-07-26T19:05:54Z</time>
<speed>5.340000</speed>
<extensions>
<speed>5.3</speed>
<temp>0.00</temp>
<bpm>0</bpm>
<rpm>0.00</rpm>
</extensions>
</trkpt>
<trkpt lat="63.731666565" lon="-20.048027039">
<ele>49.416992</ele>
<time>2012-07-26T19:05:59Z</time>
<speed>5.860000</speed>
<extensions>
<speed>5.9</speed>
<temp>0.00</temp>
<bpm>0</bpm>
<rpm>0.00</rpm>
</extensions>
</trkpt>
<trkpt lat="63.731689453" lon="-20.048664093">
<ele>49.687500</ele>
<time>2012-07-26T19:06:04Z</time>
<speed>6.410000</speed>
<extensions>
<speed>6.4</speed>
<temp>0.00</temp>
<bpm>0</bpm>
<rpm>0.00</rpm>
</extensions>
</trkpt>
<trkpt lat="63.731746674" lon="-20.049276352">
<ele>50.995117</ele>
<time>2012-07-26T19:06:09Z</time>
<speed>5.750000</speed>
<extensions>
<speed>5.8</speed>
<temp>0.00</temp>
<bpm>0</bpm>
<rpm>0.00</rpm>
</extensions>
</trkpt>
<trkpt lat="63.731800079" lon="-20.049804688">
<ele>51.429688</ele>
<time>2012-07-26T19:06:14Z</time>
<speed>5.370000</speed>
<extensions>
<speed>5.4</speed>
<temp>0.00</temp>
<bpm>0</bpm>
<rpm>0.00</rpm>
</extensions>
</trkpt>
<trkpt lat="63.731853485" lon="-20.050321579">
<ele>50.685547</ele>
<time>2012-07-26T19:06:19Z</time>
<speed>5.500000</speed>
<extensions>
<speed>5.5</speed>
<temp>0.00</temp>
<bpm>0</bpm>
<rpm>0.00</rpm>
</extensions>
</trkpt>
<trkpt lat="63.731903076" lon="-20.050849915">
<ele>50.669922</ele>
<time>2012-07-26T19:06:24Z</time>
<speed>5.190000</speed>
<extensions>
<speed>5.2</speed>
<temp>0.00</temp>
<bpm>0</bpm>
<rpm>0.00</rpm>
</extensions>
</trkpt>
<trkpt lat="63.731937408" lon="-20.051300049">
<ele>50.814453</ele>
<time>2012-07-26T19:06:29Z</time>
<speed>3.880000</speed>
<extensions>
<speed>3.9</speed>
<temp>0.00</temp>
<bpm>0</bpm>
<rpm>0.00</rpm>
</extensions>
</trkpt>
<trkpt lat="63.731956482" lon="-20.051649094">
<ele>51.859375</ele>
<time>2012-07-26T19:06:34Z</time>
<speed>3.700000</speed>
<extensions>
<speed>3.7</speed>
<temp>0.00</temp>
<bpm>0</bpm>
<rpm>0.00</rpm>
</extensions>
</trkpt>
<trkpt lat="63.731994629" lon="-20.052011490">
<ele>51.622070</ele>
<time>2012-07-26T19:06:39Z</time>
<speed>4.190000</speed>
<extensions>
<speed>4.2</speed>
<temp>0.00</temp>
<bpm>0</bpm>
<rpm>0.00</rpm>
</extensions>
</trkpt>
<trkpt lat="63.732017517" lon="-20.052440643">
<ele>51.132813</ele>
<time>2012-07-26T19:06:44Z</time>
<speed>4.420000</speed>
<extensions>
<speed>4.4</speed>
<temp>0.00</temp>
<bpm>0</bpm>
<rpm>0.00</rpm>
</extensions>
</trkpt>
<trkpt lat="63.732044220" lon="-20.052900314">
<ele>50.279297</ele>
<time>2012-07-26T19:06:49Z</time>
<speed>4.130000</speed>
<extensions>
<speed>4.1</speed>
<temp>0.00</temp>
<bpm>0</bpm>
<rpm>0.00</rpm>
</extensions>
</trkpt>
<trkpt lat="63.732082367" lon="-20.053281784">
<ele>50.964844</ele>
<time>2012-07-26T19:06:54Z</time>
<speed>3.790000</speed>
<extensions>
<speed>3.8</speed>
<temp>0.00</temp>
<bpm>0</bpm>
<rpm>0.00</rpm>
</extensions>
</trkpt>
<trkpt lat="63.732112885" lon="-20.053682327">
<ele>50.309570</ele>
<time>2012-07-26T19:06:59Z</time>
<speed>4.200000</speed>
<extensions>
<speed>4.2</speed>
<temp>0.00</temp>
<bpm>0</bpm>
<rpm>0.00</rpm>
</extensions>
</trkpt>
<trkpt lat="63.732151031" lon="-20.054151535">
<ele>50.187500</ele>
<time>2012-07-26T19:07:04Z</time>
<speed>4.950000</speed>
<extensions>
<speed>4.9</speed>
<temp>0.00</temp>
<bpm>0</bpm>
<rpm>0.00</rpm>
</extensions>
</trkpt>
<trkpt lat="63.732200623" lon="-20.054681778">
<ele>50.958008</ele>
<time>2012-07-26T19:07:09Z</time>
<speed>5.640000</speed>
<extensions>
<speed>5.6</speed>
<temp>0.00</temp>
<bpm>0</bpm>
<rpm>0.00</rpm>
</extensions>
</trkpt>
<trkpt lat="63.732250214" lon="-20.055250168">
<ele>48.888672</ele>
<time>2012-07-26T19:07:14Z</time>
<speed>5.730000</speed>
<extensions>
<speed>5.7</speed>
<temp>0.00</temp>
<bpm>0</bpm>
<rpm>0.00</rpm>
</extensions>
</trkpt>
<trkpt lat="63.732292175" lon="-20.055770874">
<ele>49.279297</ele>
<time>2012-07-26T19:07:19Z</time>
<speed>5.250000</speed>
<extensions>
<speed>5.2</speed>
<temp>0.00</temp>
<bpm>0</bpm>
<rpm>0.00</rpm>
</extensions>
</trkpt>
<trkpt lat="63.732357025" lon="-20.056346893">
<ele>52.750000</ele>
<time>2012-07-26T19:07:24Z</time>
<speed>5.620000</speed>
<extensions>
<speed>5.6</speed>
<temp>0.00</temp>
<bpm>0</bpm>
<rpm>0.00</rpm>
</extensions>
</trkpt>
<trkpt lat="63.732395172" lon="-20.056833267">
<ele>51.059570</ele>
<time>2012-07-26T19:07:29Z</time>
<speed>4.670000</speed>
<extensions>
<speed>4.7</speed>
<temp>0.00</temp>
<bpm>0</bpm>
<rpm>0.00</rpm>
</extensions>
</trkpt>
<trkpt lat="63.732444763" lon="-20.057300568">
<ele>51.440430</ele>
<time>2012-07-26T19:07:34Z</time>
<speed>4.590000</speed>
<extensions>
<speed>4.6</speed>
<temp>0.00</temp>
<bpm>0</bpm>
<rpm>0.00</rpm>
</extensions>
</trkpt>
<trkpt lat="63.732482910" lon="-20.057750702">
<ele>50.166016</ele>
<time>2012-07-26T19:07:39Z</time>
<speed>4.630000</speed>
<extensions>
<speed>4.6</speed>
<temp>0.00</temp>
<bpm>0</bpm>
<rpm>0.00</rpm>
</extensions>
</trkpt>
<trkpt lat="63.732521057" lon="-20.058174133">
<ele>47.562500</ele>
<time>2012-07-26T19:07:44Z</time>
<speed>4.310000</speed>
<extensions>
<speed>4.3</speed>
<temp>0.00</temp>
<bpm>0</bpm>
<rpm>0.00</rpm>
</extensions>
</trkpt>
<trkpt lat="63.732555389" lon="-20.058582306">
<ele>47.823242</ele>
<time>2012-07-26T19:07:49Z</time>
<speed>4.340000</speed>
<extensions>
<speed>4.3</speed>
<temp>0.00</temp>
<bpm>0</bpm>
<rpm>0.00</rpm>
</extensions>
</trkpt>
<trkpt lat="63.732593536" lon="-20.059061050">
<ele>50.505859</ele>
<time>2012-07-26T19:07:54Z</time>
<speed>4.920000</speed>
<extensions>
<speed>4.9</speed>
<temp>0.00</temp>
<bpm>0</bpm>
<rpm>0.00</rpm>
</extensions>
</trkpt>
<trkpt lat="63.732631683" lon="-20.059495926">
<ele>50.648438</ele>
<time>2012-07-26T19:07:59Z</time>
<speed>4.470000</speed>
<extensions>
<speed>4.5</speed>
<temp>0.00</temp>
<bpm>0</bpm>
<rpm>0.00</rpm>
</extensions>
</trkpt>
<trkpt lat="63.732669830" lon="-20.059928894">
<ele>49.288086</ele>
<time>2012-07-26T19:08:04Z</time>
<speed>4.240000</speed>
<extensions>
<speed>4.2</speed>
<temp>0.00</temp>
<bpm>0</bpm>
<rpm>0.00</rpm>
</extensions>
</trkpt>
<trkpt lat="63.732692719" lon="-20.060314178">
<ele>46.423828</ele>
<time>2012-07-26T19:08:09Z</time>
<speed>4.310000</speed>
<extensions>
<speed>4.3</speed>
<temp>0.00</temp>
<bpm>0</bpm>
<rpm>0.00</rpm>
</extensions>
</trkpt>
<trkpt lat="63.732730865" lon="-20.060775757">
<ele>46.005859</ele>
<time>2012-07-26T19:08:14Z</time>
<speed>5.000000</speed>
<extensions>
<speed>5.0</speed>
<temp>0.00</temp>
<bpm>0</bpm>
<rpm>0.00</rpm>
</extensions>
</trkpt>
<trkpt lat="63.732769012" lon="-20.061252594">
<ele>43.069336</ele>
<time>2012-07-26T19:08:19Z</time>
<speed>4.510000</speed>
<extensions>
<speed>4.5</speed>
<temp>0.00</temp>
<bpm>0</bpm>
<rpm>0.00</rpm>
</extensions>
</trkpt>
<trkpt lat="63.732810974" lon="-20.061668396">
<ele>41.918945</ele>
<time>2012-07-26T19:08:24Z</time>
<speed>4.310000</speed>
<extensions>
<speed>4.3</speed>
<temp>0.00</temp>
<bpm>0</bpm>
<rpm>0.00</rpm>
</extensions>
</trkpt>
<trkpt lat="63.732852936" lon="-20.062118530">
<ele>41.048828</ele>
<time>2012-07-26T19:08:29Z</time>
<speed>4.440000</speed>
<extensions>
<speed>4.4</speed>
<temp>0.00</temp>
<bpm>0</bpm>
<rpm>0.00</rpm>
</extensions>
</trkpt>
<trkpt lat="63.732891083" lon="-20.062555313">
<ele>39.261719</ele>
<time>2012-07-26T19:08:34Z</time>
<speed>4.580000</speed>
<extensions>
<speed>4.6</speed>
<temp>0.00</temp>
<bpm>0</bpm>
<rpm>0.00</rpm>
</extensions>
</trkpt>
<trkpt lat="63.732940674" lon="-20.063074112">
<ele>45.961914</ele>
<time>2012-07-26T19:08:39Z</time>
<speed>4.850000</speed>
<extensions>
<speed>4.8</speed>
<temp>0.00</temp>
<bpm>0</bpm>
<rpm>0.00</rpm>
</extensions>
</trkpt>
<trkpt lat="63.732982635" lon="-20.063560486">
<ele>51.665039</ele>
<time>2012-07-26T19:08:44Z</time>
<speed>3.930000</speed>
<extensions>
<speed>3.9</speed>
<temp>0.00</temp>
<bpm>0</bpm>
<rpm>0.00</rpm>
</extensions>
</trkpt>
<trkpt lat="63.733020782" lon="-20.063943863">
<ele>50.218750</ele>
<time>2012-07-26T19:08:49Z</time>
<speed>4.280000</speed>
<extensions>
<speed>4.3</speed>
<temp>0.00</temp>
<bpm>0</bpm>
<rpm>0.00</rpm>
</extensions>
</trkpt>
<trkpt lat="63.733062744" lon="-20.064409256">
<ele>50.330078</ele>
<time>2012-07-26T19:08:54Z</time>
<speed>5.010000</speed>
<extensions>
<speed>5.0</speed>
<temp>0.00</temp>
<bpm>0</bpm>
<rpm>0.00</rpm>
</extensions>
</trkpt>
<trkpt lat="63.733112335" lon="-20.064943314">
<ele>53.892578</ele>
<time>2012-07-26T19:08:59Z</time>
<speed>4.720000</speed>
<extensions>
<speed>4.7</speed>
<temp>0.00</temp>
<bpm>0</bpm>
<rpm>0.00</rpm>
</extensions>
</trkpt>
<trkpt lat="63.733150482" lon="-20.065361023">
<ele>53.075195</ele>
<time>2012-07-26T19:09:04Z</time>
<speed>4.560000</speed>
<extensions>
<speed>4.6</speed>
<temp>0.00</temp>
<bpm>0</bpm>
<rpm>0.00</rpm>
</extensions>
</trkpt>
<trkpt lat="63.733196259" lon="-20.065856934">
<ele>53.411133</ele>
<time>2012-07-26T19:09:09Z</time>
<speed>5.070000</speed>
<extensions>
<speed>5.1</speed>
<temp>0.00</temp>
<bpm>0</bpm>
<rpm>0.00</rpm>
</extensions>
</trkpt>
<trkpt lat="63.733234406" lon="-20.066385269">
<ele>51.857422</ele>
<time>2012-07-26T19:09:14Z</time>
<speed>5.530000</speed>
<extensions>
<speed>5.5</speed>
<temp>0.00</temp>
<bpm>0</bpm>
<rpm>0.00</rpm>
</extensions>
</trkpt>
<trkpt lat="63.733276367" lon="-20.066951752">
<ele>50.896484</ele>
<time>2012-07-26T19:09:19Z</time>
<speed>5.860000</speed>
<extensions>
<speed>5.9</speed>
<temp>0.00</temp>
<bpm>0</bpm>
<rpm>0.00</rpm>
</extensions>
</trkpt>
<trkpt lat="63.733322144" lon="-20.067472458">
<ele>51.731445</ele>
<time>2012-07-26T19:09:24Z</time>
<speed>4.770000</speed>
<extensions>
<speed>4.8</speed>
<temp>0.00</temp>
<bpm>0</bpm>
<rpm>0.00</rpm>
</extensions>
</trkpt>
<trkpt lat="63.733375549" lon="-20.067964554">
<ele>53.438477</ele>
<time>2012-07-26T19:09:29Z</time>
<speed>5.320000</speed>
<extensions>
<speed>5.3</speed>
<temp>0.00</temp>
<bpm>0</bpm>
<rpm>0.00</rpm>
</extensions>
</trkpt>
<trkpt lat="63.733428955" lon="-20.068498611">
<ele>49.252930</ele>
<time>2012-07-26T19:09:34Z</time>
<speed>5.810000</speed>
<extensions>
<speed>5.8</speed>
<temp>0.00</temp>
<bpm>0</bpm>
<rpm>0.00</rpm>
</extensions>
</trkpt>
<trkpt lat="63.733467102" lon="-20.069093704">
<ele>49.768555</ele>
<time>2012-07-26T19:09:39Z</time>
<speed>5.200000</speed>
<extensions>
<speed>5.2</speed>
<temp>0.00</temp>
<bpm>0</bpm>
<rpm>0.00</rpm>
</extensions>
</trkpt>
<trkpt lat="63.733512878" lon="-20.069557190">
<ele>48.079102</ele>
<time>2012-07-26T19:09:44Z</time>
<speed>4.280000</speed>
<extensions>
<speed>4.3</speed>
<temp>0.00</temp>
<bpm>0</bpm>
<rpm>0.00</rpm>
</extensions>
</trkpt>
<trkpt lat="63.733558655" lon="-20.070014954">
<ele>47.940430</ele>
<time>2012-07-26T19:09:49Z</time>
<speed>4.920000</speed>
<extensions>
<speed>4.9</speed>
<temp>0.00</temp>
<bpm>0</bpm>
<rpm>0.00</rpm>
</extensions>
</trkpt>
<trkpt lat="63.733585358" lon="-20.070524216">
<ele>46.331055</ele>
<time>2012-07-26T19:09:54Z</time>
<speed>4.980000</speed>
<extensions>
<speed>5.0</speed>
<temp>0.00</temp>
<bpm>0</bpm>
<rpm>0.00</rpm>
</extensions>
</trkpt>
<trkpt lat="63.733631134" lon="-20.070953369">
<ele>49.591797</ele>
<time>2012-07-26T19:09:59Z</time>
<speed>3.810000</speed>
<extensions>
<speed>3.8</speed>
<temp>0.00</temp>
<bpm>0</bpm>
<rpm>0.00</rpm>
</extensions>
</trkpt>
<trkpt lat="63.733665466" lon="-20.071279526">
<ele>51.718750</ele>
<time>2012-07-26T19:10:04Z</time>
<speed>2.840000</speed>
<extensions>
<speed>2.8</speed>
<temp>0.00</temp>
<bpm>0</bpm>
<rpm>0.00</rpm>
</extensions>
</trkpt>
<trkpt lat="63.733688354" lon="-20.071529388">
<ele>53.019531</ele>
<time>2012-07-26T19:10:09Z</time>
<speed>2.190000</speed>
<extensions>
<speed>2.2</speed>
<temp>0.00</temp>
<bpm>0</bpm>
<rpm>0.00</rpm>
</extensions>
</trkpt>
<trkpt lat="63.733715057" lon="-20.071796417">
<ele>52.347656</ele>
<time>2012-07-26T19:10:14Z</time>
<speed>3.380000</speed>
<extensions>
<speed>3.4</speed>
<temp>0.00</temp>
<bpm>0</bpm>
<rpm>0.00</rpm>
</extensions>
</trkpt>
<trkpt lat="63.733741760" lon="-20.072158813">
<ele>53.653320</ele>
<time>2012-07-26T19:10:19Z</time>
<speed>3.770000</speed>
<extensions>
<speed>3.8</speed>
<temp>0.00</temp>
<bpm>0</bpm>
<rpm>0.00</rpm>
</extensions>
</trkpt>
<trkpt lat="63.733787537" lon="-20.072551727">
<ele>51.191406</ele>
<time>2012-07-26T19:10:24Z</time>
<speed>4.280000</speed>
<extensions>
<speed>4.3</speed>
<temp>0.00</temp>
<bpm>0</bpm>
<rpm>0.00</rpm>
</extensions>
</trkpt>
<trkpt lat="63.733818054" lon="-20.073005676">
<ele>51.841797</ele>
<time>2012-07-26T19:10:29Z</time>
<speed>4.530000</speed>
<extensions>
<speed>4.5</speed>
<temp>0.00</temp>
<bpm>0</bpm>
<rpm>0.00</rpm>
</extensions>
</trkpt>
<trkpt lat="63.733852386" lon="-20.073423386">
<ele>51.990234</ele>
<time>2012-07-26T19:10:34Z</time>
<speed>3.570000</speed>
<extensions>
<speed>3.6</speed>
<temp>0.00</temp>
<bpm>0</bpm>
<rpm>0.00</rpm>
</extensions>
</trkpt>
<trkpt lat="63.733882904" lon="-20.073772430">
<ele>50.296875</ele>
<time>2012-07-26T19:10:39Z</time>
<speed>3.900000</speed>
<extensions>
<speed>3.9</speed>
<temp>0.00</temp>
<bpm>0</bpm>
<rpm>0.00</rpm>
</extensions>
</trkpt>
<trkpt lat="63.733909607" lon="-20.074203491">
<ele>49.329102</ele>
<time>2012-07-26T19:10:44Z</time>
<speed>4.590000</speed>
<extensions>
<speed>4.6</speed>
<temp>0.00</temp>
<bpm>0</bpm>
<rpm>0.00</rpm>
</extensions>
</trkpt>
<trkpt lat="63.733947754" lon="-20.074663162">
<ele>49.175781</ele>
<time>2012-07-26T19:10:49Z</time>
<speed>4.120000</speed>
<extensions>
<speed>4.1</speed>
<temp>0.00</temp>
<bpm>0</bpm>
<rpm>0.00</rpm>
</extensions>
</trkpt>
<trkpt lat="63.733974457" lon="-20.075037003">
<ele>49.835938</ele>
<time>2012-07-26T19:10:54Z</time>
<speed>3.700000</speed>
<extensions>
<speed>3.7</speed>
<temp>0.00</temp>
<bpm>0</bpm>
<rpm>0.00</rpm>
</extensions>
</trkpt>
<trkpt lat="63.733997345" lon="-20.075382233">
<ele>51.471680</ele>
<time>2012-07-26T19:10:59Z</time>
<speed>3.430000</speed>
<extensions>
<speed>3.4</speed>
<temp>0.00</temp>
<bpm>0</bpm>
<rpm>0.00</rpm>
</extensions>
</trkpt>
<trkpt lat="63.734035492" lon="-20.075750351">
<ele>50.924805</ele>
<time>2012-07-26T19:11:04Z</time>
<speed>4.410000</speed>
<extensions>
<speed>4.4</speed>
<temp>0.00</temp>
<bpm>0</bpm>
<rpm>0.00</rpm>
</extensions>
</trkpt>
<trkpt lat="63.734054565" lon="-20.076242447">
<ele>51.485352</ele>
<time>2012-07-26T19:11:09Z</time>
<speed>4.910000</speed>
<extensions>
<speed>4.9</speed>
<temp>0.00</temp>
<bpm>0</bpm>
<rpm>0.00</rpm>
</extensions>
</trkpt>
<trkpt lat="63.734077454" lon="-20.076753616">
<ele>51.641602</ele>
<time>2012-07-26T19:11:14Z</time>
<speed>5.000000</speed>
<extensions>
<speed>5.0</speed>
<temp>0.00</temp>
<bpm>0</bpm>
<rpm>0.00</rpm>
</extensions>
</trkpt>
<trkpt lat="63.734096527" lon="-20.077232361">
<ele>53.333008</ele>
<time>2012-07-26T19:11:19Z</time>
<speed>4.510000</speed>
<extensions>
<speed>4.5</speed>
<temp>0.00</temp>
<bpm>0</bpm>
<rpm>0.00</rpm>
</extensions>
</trkpt>
<trkpt lat="63.734104156" lon="-20.077701569">
<ele>52.726563</ele>
<time>2012-07-26T19:11:24Z</time>
<speed>4.800000</speed>
<extensions>
<speed>4.8</speed>
<temp>0.00</temp>
<bpm>0</bpm>
<rpm>0.00</rpm>
</extensions>
</trkpt>
<trkpt lat="63.734115601" lon="-20.078195572">
<ele>54.018555</ele>
<time>2012-07-26T19:11:29Z</time>
<speed>5.290000</speed>
<extensions>
<speed>5.3</speed>
<temp>0.00</temp>
<bpm>0</bpm>
<rpm>0.00</rpm>
</extensions>
</trkpt>
<trkpt lat="63.734104156" lon="-20.078754425">
<ele>55.344727</ele>
<time>2012-07-26T19:11:34Z</time>
<speed>5.280000</speed>
<extensions>
<speed>5.3</speed>
<temp>0.00</temp>
<bpm>0</bpm>
<rpm>0.00</rpm>
</extensions>
</trkpt>
<trkpt lat="63.734096527" lon="-20.079252243">
<ele>56.286133</ele>
<time>2012-07-26T19:11:39Z</time>
<speed>4.390000</speed>
<extensions>
<speed>4.4</speed>
<temp>0.00</temp>
<bpm>0</bpm>
<rpm>0.00</rpm>
</extensions>
</trkpt>
<trkpt lat="63.734081268" lon="-20.079652786">
<ele>56.397461</ele>
<time>2012-07-26T19:11:44Z</time>
<speed>4.200000</speed>
<extensions>
<speed>4.2</speed>
<temp>0.00</temp>
<bpm>0</bpm>
<rpm>0.00</rpm>
</extensions>
</trkpt>
<trkpt lat="63.734054565" lon="-20.080095291">
<ele>56.206055</ele>
<time>2012-07-26T19:11:49Z</time>
<speed>4.630000</speed>
<extensions>
<speed>4.6</speed>
<temp>0.00</temp>
<bpm>0</bpm>
<rpm>0.00</rpm>
</extensions>
</trkpt>
<trkpt lat="63.734020233" lon="-20.080591202">
<ele>53.583008</ele>
<time>2012-07-26T19:11:54Z</time>
<speed>4.840000</speed>
<extensions>
<speed>4.8</speed>
<temp>0.00</temp>
<bpm>0</bpm>
<rpm>0.00</rpm>
</extensions>
</trkpt>
<trkpt lat="63.733985901" lon="-20.081108093">
<ele>54.782227</ele>
<time>2012-07-26T19:11:59Z</time>
<speed>5.040000</speed>
<extensions>
<speed>5.0</speed>
<temp>0.00</temp>
<bpm>0</bpm>
<rpm>0.00</rpm>
</extensions>
</trkpt>
<trkpt lat="63.733947754" lon="-20.081628799">
<ele>56.594727</ele>
<time>2012-07-26T19:12:04Z</time>
<speed>5.340000</speed>
<extensions>
<speed>5.3</speed>
<temp>0.00</temp>
<bpm>0</bpm>
<rpm>0.00</rpm>
</extensions>
</trkpt>
<trkpt lat="63.733890533" lon="-20.082183838">
<ele>57.303711</ele>
<time>2012-07-26T19:12:09Z</time>
<speed>5.710000</speed>
<extensions>
<speed>5.7</speed>
<temp>0.00</temp>
<bpm>0</bpm>
<rpm>0.00</rpm>
</extensions>
</trkpt>
<trkpt lat="63.733833313" lon="-20.082687378">
<ele>56.113281</ele>
<time>2012-07-26T19:12:14Z</time>
<speed>4.540000</speed>
<extensions>
<speed>4.5</speed>
<temp>0.00</temp>
<bpm>0</bpm>
<rpm>0.00</rpm>
</extensions>
</trkpt>
<trkpt lat="63.733779907" lon="-20.083089828">
<ele>54.583008</ele>
<time>2012-07-26T19:12:19Z</time>
<speed>3.640000</speed>
<extensions>
<speed>3.6</speed>
<temp>0.00</temp>
<bpm>0</bpm>
<rpm>0.00</rpm>
</extensions>
</trkpt>
<trkpt lat="63.733711243" lon="-20.083387375">
<ele>52.258789</ele>
<time>2012-07-26T19:12:24Z</time>
<speed>3.770000</speed>
<extensions>
<speed>3.8</speed>
<temp>0.00</temp>
<bpm>0</bpm>
<rpm>0.00</rpm>
</extensions>
</trkpt>
<trkpt lat="63.733680725" lon="-20.083784103">
<ele>52.886719</ele>
<time>2012-07-26T19:12:29Z</time>
<speed>4.600000</speed>
<extensions>
<speed>4.6</speed>
<temp>0.00</temp>
<bpm>0</bpm>
<rpm>0.00</rpm>
</extensions>
</trkpt>
<trkpt lat="63.733596802" lon="-20.084236145">
<ele>52.901367</ele>
<time>2012-07-26T19:12:34Z</time>
<speed>5.110000</speed>
<extensions>
<speed>5.1</speed>
<temp>0.00</temp>
<bpm>0</bpm>
<rpm>0.00</rpm>
</extensions>
</trkpt>
<trkpt lat="63.733531952" lon="-20.084760666">
<ele>51.659180</ele>
<time>2012-07-26T19:12:39Z</time>
<speed>5.010000</speed>
<extensions>
<speed>5.0</speed>
<temp>0.00</temp>
<bpm>0</bpm>
<rpm>0.00</rpm>
</extensions>
</trkpt>
<trkpt lat="63.733448029" lon="-20.085262299">
<ele>51.778320</ele>
<time>2012-07-26T19:12:44Z</time>
<speed>5.540000</speed>
<extensions>
<speed>5.5</speed>
<temp>0.00</temp>
<bpm>0</bpm>
<rpm>0.00</rpm>
</extensions>
</trkpt>
<trkpt lat="63.733375549" lon="-20.085748672">
<ele>51.186523</ele>
<time>2012-07-26T19:12:49Z</time>
<speed>4.730000</speed>
<extensions>
<speed>4.7</speed>
<temp>0.00</temp>
<bpm>0</bpm>
<rpm>0.00</rpm>
</extensions>
</trkpt>
<trkpt lat="63.733329773" lon="-20.086149216">
<ele>50.860352</ele>
<time>2012-07-26T19:12:54Z</time>
<speed>3.380000</speed>
<extensions>
<speed>3.4</speed>
<temp>0.00</temp>
<bpm>0</bpm>
<rpm>0.00</rpm>
</extensions>
</trkpt>
<trkpt lat="63.733287811" lon="-20.086479187">
<ele>51.452148</ele>
<time>2012-07-26T19:12:59Z</time>
<speed>3.560000</speed>
<extensions>
<speed>3.6</speed>
<temp>0.00</temp>
<bpm>0</bpm>
<rpm>0.00</rpm>
</extensions>
</trkpt>
<trkpt lat="63.733249664" lon="-20.086893082">
<ele>53.702148</ele>
<time>2012-07-26T19:13:04Z</time>
<speed>4.630000</speed>
<extensions>
<speed>4.6</speed>
<temp>0.00</temp>
<bpm>0</bpm>
<rpm>0.00</rpm>
</extensions>
</trkpt>
<trkpt lat="63.733219147" lon="-20.087305069">
<ele>52.481445</ele>
<time>2012-07-26T19:13:09Z</time>
<speed>3.870000</speed>
<extensions>
<speed>3.9</speed>
<temp>0.00</temp>
<bpm>0</bpm>
<rpm>0.00</rpm>
</extensions>
</trkpt>
<trkpt lat="63.733196259" lon="-20.087736130">
<ele>53.006836</ele>
<time>2012-07-26T19:13:14Z</time>
<speed>4.960000</speed>
<extensions>
<speed>5.0</speed>
<temp>0.00</temp>
<bpm>0</bpm>
<rpm>0.00</rpm>
</extensions>
</trkpt>
<trkpt lat="63.733169556" lon="-20.088268280">
<ele>52.049805</ele>
<time>2012-07-26T19:13:19Z</time>
<speed>5.790000</speed>
<extensions>
<speed>5.8</speed>
<temp>0.00</temp>
<bpm>0</bpm>
<rpm>0.00</rpm>
</extensions>
</trkpt>
<trkpt lat="63.733181000" lon="-20.088800430">
<ele>52.248047</ele>
<time>2012-07-26T19:13:24Z</time>
<speed>5.160000</speed>
<extensions>
<speed>5.2</speed>
<temp>0.00</temp>
<bpm>0</bpm>
<rpm>0.00</rpm>
</extensions>
</trkpt>
<trkpt lat="63.733192444" lon="-20.089359283">
<ele>52.985352</ele>
<time>2012-07-26T19:13:29Z</time>
<speed>5.690000</speed>
<extensions>
<speed>5.7</speed>
<temp>0.00</temp>
<bpm>0</bpm>
<rpm>0.00</rpm>
</extensions>
</trkpt>
<trkpt lat="63.733222961" lon="-20.089914322">
<ele>52.970703</ele>
<time>2012-07-26T19:13:34Z</time>
<speed>5.090000</speed>
<extensions>
<speed>5.1</speed>
<temp>0.00</temp>
<bpm>0</bpm>
<rpm>0.00</rpm>
</extensions>
</trkpt>
<trkpt lat="63.733249664" lon="-20.090412140">
<ele>52.401367</ele>
<time>2012-07-26T19:13:39Z</time>
<speed>5.060000</speed>
<extensions>
<speed>5.1</speed>
<temp>0.00</temp>
<bpm>0</bpm>
<rpm>0.00</rpm>
</extensions>
</trkpt>
<trkpt lat="63.733280182" lon="-20.090927124">
<ele>52.185547</ele>
<time>2012-07-26T19:13:44Z</time>
<speed>5.310000</speed>
<extensions>
<speed>5.3</speed>
<temp>0.00</temp>
<bpm>0</bpm>
<rpm>0.00</rpm>
</extensions>
</trkpt>
<trkpt lat="63.733314514" lon="-20.091453552">
<ele>52.538086</ele>
<time>2012-07-26T19:13:49Z</time>
<speed>5.050000</speed>
<extensions>
<speed>5.1</speed>
<temp>0.00</temp>
<bpm>0</bpm>
<rpm>0.00</rpm>
</extensions>
</trkpt>
<trkpt lat="63.733345032" lon="-20.091955185">
<ele>52.317383</ele>
<time>2012-07-26T19:13:54Z</time>
<speed>4.960000</speed>
<extensions>
<speed>5.0</speed>
<temp>0.00</temp>
<bpm>0</bpm>
<rpm>0.00</rpm>
</extensions>
</trkpt>
<trkpt lat="63.733383179" lon="-20.092445374">
<ele>52.562500</ele>
<time>2012-07-26T19:13:59Z</time>
<speed>4.830000</speed>
<extensions>
<speed>4.8</speed>
<temp>0.00</temp>
<bpm>0</bpm>
<rpm>0.00</rpm>
</extensions>
</trkpt>
<trkpt lat="63.733413696" lon="-20.092920303">
<ele>51.831055</ele>
<time>2012-07-26T19:14:04Z</time>
<speed>4.770000</speed>
<extensions>
<speed>4.8</speed>
<temp>0.00</temp>
<bpm>0</bpm>
<rpm>0.00</rpm>
</extensions>
</trkpt>
<trkpt lat="63.733451843" lon="-20.093408585">
<ele>51.159180</ele>
<time>2012-07-26T19:14:09Z</time>
<speed>4.950000</speed>
<extensions>
<speed>4.9</speed>
<temp>0.00</temp>
<bpm>0</bpm>
<rpm>0.00</rpm>
</extensions>
</trkpt>
<trkpt lat="63.733482361" lon="-20.093912125">
<ele>52.036133</ele>
<time>2012-07-26T19:14:14Z</time>
<speed>5.190000</speed>
<extensions>
<speed>5.2</speed>
<temp>0.00</temp>
<bpm>0</bpm>
<rpm>0.00</rpm>
</extensions>
</trkpt>
<trkpt lat="63.733524323" lon="-20.094434738">
<ele>51.143555</ele>
<time>2012-07-26T19:14:19Z</time>
<speed>5.340000</speed>
<extensions>
<speed>5.3</speed>
<temp>0.00</temp>
<bpm>0</bpm>
<rpm>0.00</rpm>
</extensions>
</trkpt>
<trkpt lat="63.733554840" lon="-20.094905853">
<ele>50.550781</ele>
<time>2012-07-26T19:14:24Z</time>
<speed>3.910000</speed>
<extensions>
<speed>3.9</speed>
<temp>0.00</temp>
<bpm>0</bpm>
<rpm>0.00</rpm>
</extensions>
</trkpt>
<trkpt lat="63.733585358" lon="-20.095300674">
<ele>49.388672</ele>
<time>2012-07-26T19:14:29Z</time>
<speed>4.040000</speed>
<extensions>
<speed>4.0</speed>
<temp>0.00</temp>
<bpm>0</bpm>
<rpm>0.00</rpm>
</extensions>
</trkpt>
<trkpt lat="63.733627319" lon="-20.095708847">
<ele>50.997070</ele>
<time>2012-07-26T19:14:34Z</time>
<speed>3.680000</speed>
<extensions>
<speed>3.7</speed>
<temp>0.00</temp>
<bpm>0</bpm>
<rpm>0.00</rpm>
</extensions>
</trkpt>
<trkpt lat="63.733646393" lon="-20.096010208">
<ele>51.583008</ele>
<time>2012-07-26T19:14:39Z</time>
<speed>3.030000</speed>
<extensions>
<speed>3.0</speed>
<temp>0.00</temp>
<bpm>0</bpm>
<rpm>0.00</rpm>
</extensions>
</trkpt>
<trkpt lat="63.733665466" lon="-20.096374512">
<ele>49.830078</ele>
<time>2012-07-26T19:14:44Z</time>
<speed>4.020000</speed>
<extensions>
<speed>4.0</speed>
<temp>0.00</temp>
<bpm>0</bpm>
<rpm>0.00</rpm>
</extensions>
</trkpt>
<trkpt lat="63.733692169" lon="-20.096801758">
<ele>50.633789</ele>
<time>2012-07-26T19:14:49Z</time>
<speed>3.580000</speed>
<extensions>
<speed>3.6</speed>
<temp>0.00</temp>
<bpm>0</bpm>
<rpm>0.00</rpm>
</extensions>
</trkpt>
<trkpt lat="63.733718872" lon="-20.097154617">
<ele>51.172852</ele>
<time>2012-07-26T19:14:54Z</time>
<speed>3.880000</speed>
<extensions>
<speed>3.9</speed>
<temp>0.00</temp>
<bpm>0</bpm>
<rpm>0.00</rpm>
</extensions>
</trkpt>
<trkpt lat="63.733741760" lon="-20.097583771">
<ele>50.786133</ele>
<time>2012-07-26T19:14:59Z</time>
<speed>4.350000</speed>
<extensions>
<speed>4.3</speed>
<temp>0.00</temp>
<bpm>0</bpm>
<rpm>0.00</rpm>
</extensions>
</trkpt>
<trkpt lat="63.733764648" lon="-20.097972870">
<ele>51.581055</ele>
<time>2012-07-26T19:15:04Z</time>
<speed>3.390000</speed>
<extensions>
<speed>3.4</speed>
<temp>0.00</temp>
<bpm>0</bpm>
<rpm>0.00</rpm>
</extensions>
</trkpt>
<trkpt lat="63.733791351" lon="-20.098297119">
<ele>52.183594</ele>
<time>2012-07-26T19:15:09Z</time>
<speed>3.010000</speed>
<extensions>
<speed>3.0</speed>
<temp>0.00</temp>
<bpm>0</bpm>
<rpm>0.00</rpm>
</extensions>
</trkpt>
<trkpt lat="63.733810425" lon="-20.098588943">
<ele>53.547852</ele>
<time>2012-07-26T19:15:14Z</time>
<speed>2.950000</speed>
<extensions>
<speed>2.9</speed>
<temp>0.00</temp>
<bpm>0</bpm>
<rpm>0.00</rpm>
</extensions>
</trkpt>
<trkpt lat="63.733840942" lon="-20.098924637">
<ele>54.362305</ele>
<time>2012-07-26T19:15:19Z</time>
<speed>3.740000</speed>
<extensions>
<speed>3.7</speed>
<temp>0.00</temp>
<bpm>0</bpm>
<rpm>0.00</rpm>
</extensions>
</trkpt>
<trkpt lat="63.733871460" lon="-20.099348068">
<ele>56.385742</ele>
<time>2012-07-26T19:15:24Z</time>
<speed>4.530000</speed>
<extensions>
<speed>4.5</speed>
<temp>0.00</temp>
<bpm>0</bpm>
<rpm>0.00</rpm>
</extensions>
</trkpt>
<trkpt lat="63.733901978" lon="-20.099821091">
<ele>56.575195</ele>
<time>2012-07-26T19:15:29Z</time>
<speed>4.940000</speed>
<extensions>
<speed>4.9</speed>
<temp>0.00</temp>
<bpm>0</bpm>
<rpm>0.00</rpm>
</extensions>
</trkpt>
<trkpt lat="63.733928680" lon="-20.100343704">
<ele>57.315430</ele>
<time>2012-07-26T19:15:34Z</time>
<speed>5.120000</speed>
<extensions>
<speed>5.1</speed>
<temp>0.00</temp>
<bpm>0</bpm>
<rpm>0.00</rpm>
</extensions>
</trkpt>
<trkpt lat="63.733970642" lon="-20.100835800">
<ele>56.752930</ele>
<time>2012-07-26T19:15:39Z</time>
<speed>4.460000</speed>
<extensions>
<speed>4.5</speed>
<temp>0.00</temp>
<bpm>0</bpm>
<rpm>0.00</rpm>
</extensions>
</trkpt>
<trkpt lat="63.733997345" lon="-20.101247787">
<ele>59.342773</ele>
<time>2012-07-26T19:15:44Z</time>
<speed>3.990000</speed>
<extensions>
<speed>4.0</speed>
<temp>0.00</temp>
<bpm>0</bpm>
<rpm>0.00</rpm>
</extensions>
</trkpt>
<trkpt lat="63.734043121" lon="-20.101659775">
<ele>52.995117</ele>
<time>2012-07-26T19:15:49Z</time>
<speed>4.260000</speed>
<extensions>
<speed>4.3</speed>
<temp>0.00</temp>
<bpm>0</bpm>
<rpm>0.00</rpm>
</extensions>
</trkpt>
<trkpt lat="63.734066010" lon="-20.102081299">
<ele>51.625977</ele>
<time>2012-07-26T19:15:54Z</time>
<speed>4.130000</speed>
<extensions>
<speed>4.1</speed>
<temp>0.00</temp>
<bpm>0</bpm>
<rpm>0.00</rpm>
</extensions>
</trkpt>
<trkpt lat="63.734085083" lon="-20.102487564">
<ele>52.541016</ele>
<time>2012-07-26T19:15:59Z</time>
<speed>4.020000</speed>
<extensions>
<speed>4.0</speed>
<temp>0.00</temp>
<bpm>0</bpm>
<rpm>0.00</rpm>
</extensions>
</trkpt>
<trkpt lat="63.734111786" lon="-20.102882385">
<ele>55.204102</ele>
<time>2012-07-26T19:16:04Z</time>
<speed>3.480000</speed>
<extensions>
<speed>3.5</speed>
<temp>0.00</temp>
<bpm>0</bpm>
<rpm>0.00</rpm>
</extensions>
</trkpt>
<trkpt lat="63.734127045" lon="-20.103221893">
<ele>55.018555</ele>
<time>2012-07-26T19:16:09Z</time>
<speed>3.240000</speed>
<extensions>
<speed>3.2</speed>
<temp>0.00</temp>
<bpm>0</bpm>
<rpm>0.00</rpm>
</extensions>
</trkpt>
<trkpt lat="63.734146118" lon="-20.103538513">
<ele>53.854492</ele>
<time>2012-07-26T19:16:14Z</time>
<speed>3.390000</speed>
<extensions>
<speed>3.4</speed>
<temp>0.00</temp>
<bpm>0</bpm>
<rpm>0.00</rpm>
</extensions>
</trkpt>
<trkpt lat="63.734153748" lon="-20.103885651">
<ele>53.531250</ele>
<time>2012-07-26T19:16:19Z</time>
<speed>3.710000</speed>
<extensions>
<speed>3.7</speed>
<temp>0.00</temp>
<bpm>0</bpm>
<rpm>0.00</rpm>
</extensions>
</trkpt>
<trkpt lat="63.734157562" lon="-20.104257584">
<ele>55.675781</ele>
<time>2012-07-26T19:16:24Z</time>
<speed>3.420000</speed>
<extensions>
<speed>3.4</speed>
<temp>0.00</temp>
<bpm>0</bpm>
<rpm>0.00</rpm>
</extensions>
</trkpt>
<trkpt lat="63.734165192" lon="-20.104640961">
<ele>59.956055</ele>
<time>2012-07-26T19:16:29Z</time>
<speed>3.880000</speed>
<extensions>
<speed>3.9</speed>
<temp>0.00</temp>
<bpm>0</bpm>
<rpm>0.00</rpm>
</extensions>
</trkpt>
<trkpt lat="63.734157562" lon="-20.105039597">
<ele>57.938477</ele>
<time>2012-07-26T19:16:34Z</time>
<speed>4.120000</speed>
<extensions>
<speed>4.1</speed>
<temp>0.00</temp>
<bpm>0</bpm>
<rpm>0.00</rpm>
</extensions>
</trkpt>
<trkpt lat="63.734127045" lon="-20.105440140">
<ele>59.250000</ele>
<time>2012-07-26T19:16:39Z</time>
<speed>2.960000</speed>
<extensions>
<speed>3.0</speed>
<temp>0.00</temp>
<bpm>0</bpm>
<rpm>0.00</rpm>
</extensions>
</trkpt>
<trkpt lat="63.734104156" lon="-20.105720520">
<ele>61.009766</ele>
<time>2012-07-26T19:16:44Z</time>
<speed>3.390000</speed>
<extensions>
<speed>3.4</speed>
<temp>0.00</temp>
<bpm>0</bpm>
<rpm>0.00</rpm>
</extensions>
</trkpt>
<trkpt lat="63.734069824" lon="-20.106132507">
<ele>61.184570</ele>
<time>2012-07-26T19:16:49Z</time>
<speed>4.300000</speed>
<extensions>
<speed>4.3</speed>
<temp>0.00</temp>
<bpm>0</bpm>
<rpm>0.00</rpm>
</extensions>
</trkpt>
<trkpt lat="63.734024048" lon="-20.106538773">
<ele>60.313477</ele>
<time>2012-07-26T19:16:54Z</time>
<speed>4.300000</speed>
<extensions>
<speed>4.3</speed>
<temp>0.00</temp>
<bpm>0</bpm>
<rpm>0.00</rpm>
</extensions>
</trkpt>
<trkpt lat="63.733959198" lon="-20.106983185">
<ele>59.314453</ele>
<time>2012-07-26T19:16:59Z</time>
<speed>4.730000</speed>
<extensions>
<speed>4.7</speed>
<temp>0.00</temp>
<bpm>0</bpm>
<rpm>0.00</rpm>
</extensions>
</trkpt>
<trkpt lat="63.733871460" lon="-20.107429504">
<ele>58.144531</ele>
<time>2012-07-26T19:17:04Z</time>
<speed>4.740000</speed>
<extensions>
<speed>4.7</speed>
<temp>0.00</temp>
<bpm>0</bpm>
<rpm>0.00</rpm>
</extensions>
</trkpt>
<trkpt lat="63.733798981" lon="-20.107881546">
<ele>55.471680</ele>
<time>2012-07-26T19:17:09Z</time>
<speed>5.110000</speed>
<extensions>
<speed>5.1</speed>
<temp>0.00</temp>
<bpm>0</bpm>
<rpm>0.00</rpm>
</extensions>
</trkpt>
<trkpt lat="63.733711243" lon="-20.108367920">
<ele>54.907227</ele>
<time>2012-07-26T19:17:14Z</time>
<speed>5.440000</speed>
<extensions>
<speed>5.4</speed>
<temp>0.00</temp>
<bpm>0</bpm>
<rpm>0.00</rpm>
</extensions>
</trkpt>
<trkpt lat="63.733631134" lon="-20.108922958">
<ele>55.228516</ele>
<time>2012-07-26T19:17:19Z</time>
<speed>6.050000</speed>
<extensions>
<speed>6.1</speed>
<temp>0.00</temp>
<bpm>0</bpm>
<rpm>0.00</rpm>
</extensions>
</trkpt>
<trkpt lat="63.733573914" lon="-20.109577179">
<ele>56.356445</ele>
<time>2012-07-26T19:17:24Z</time>
<speed>7.460000</speed>
<extensions>
<speed>7.5</speed>
<temp>0.00</temp>
<bpm>0</bpm>
<rpm>0.00</rpm>
</extensions>
</trkpt>
<trkpt lat="63.733531952" lon="-20.110397339">
<ele>55.723633</ele>
<time>2012-07-26T19:17:29Z</time>
<speed>8.730000</speed>
<extensions>
<speed>8.7</speed>
<temp>0.00</temp>
<bpm>0</bpm>
<rpm>0.00</rpm>
</extensions>
</trkpt>
<trkpt lat="63.733493805" lon="-20.111316681">
<ele>55.281250</ele>
<time>2012-07-26T19:17:34Z</time>
<speed>9.260000</speed>
<extensions>
<speed>9.3</speed>
<temp>0.00</temp>
<bpm>0</bpm>
<rpm>0.00</rpm>
</extensions>
</trkpt>
<trkpt lat="63.733474731" lon="-20.112236023">
<ele>55.071289</ele>
<time>2012-07-26T19:17:39Z</time>
<speed>8.640000</speed>
<extensions>
<speed>8.6</speed>
<temp>0.00</temp>
<bpm>0</bpm>
<rpm>0.00</rpm>
</extensions>
</trkpt>
<trkpt lat="63.733448029" lon="-20.113040924">
<ele>55.433594</ele>
<time>2012-07-26T19:17:44Z</time>
<speed>7.440000</speed>
<extensions>
<speed>7.4</speed>
<temp>0.00</temp>
<bpm>0</bpm>
<rpm>0.00</rpm>
</extensions>
</trkpt>
<trkpt lat="63.733425140" lon="-20.113735199">
<ele>55.605469</ele>
<time>2012-07-26T19:17:49Z</time>
<speed>6.270000</speed>
<extensions>
<speed>6.3</speed>
<temp>0.00</temp>
<bpm>0</bpm>
<rpm>0.00</rpm>
</extensions>
</trkpt>
<trkpt lat="63.733398438" lon="-20.114336014">
<ele>56.158203</ele>
<time>2012-07-26T19:17:54Z</time>
<speed>5.690000</speed>
<extensions>
<speed>5.7</speed>
<temp>0.00</temp>
<bpm>0</bpm>
<rpm>0.00</rpm>
</extensions>
</trkpt>
<trkpt lat="63.733383179" lon="-20.114925385">
<ele>53.890625</ele>
<time>2012-07-26T19:17:59Z</time>
<speed>5.800000</speed>
<extensions>
<speed>5.8</speed>
<temp>0.00</temp>
<bpm>0</bpm>
<rpm>0.00</rpm>
</extensions>
</trkpt>
<trkpt lat="63.733356476" lon="-20.115545273">
<ele>52.756836</ele>
<time>2012-07-26T19:18:04Z</time>
<speed>6.280000</speed>
<extensions>
<speed>6.3</speed>
<temp>0.00</temp>
<bpm>0</bpm>
<rpm>0.00</rpm>
</extensions>
</trkpt>
<trkpt lat="63.733337402" lon="-20.116161346">
<ele>51.482422</ele>
<time>2012-07-26T19:18:09Z</time>
<speed>6.140000</speed>
<extensions>
<speed>6.1</speed>
<temp>0.00</temp>
<bpm>0</bpm>
<rpm>0.00</rpm>
</extensions>
</trkpt>
<trkpt lat="63.733318329" lon="-20.116762161">
<ele>51.162109</ele>
<time>2012-07-26T19:18:14Z</time>
<speed>5.650000</speed>
<extensions>
<speed>5.7</speed>
<temp>0.00</temp>
<bpm>0</bpm>
<rpm>0.00</rpm>
</extensions>
</trkpt>
<trkpt lat="63.733291626" lon="-20.117341995">
<ele>50.333008</ele>
<time>2012-07-26T19:18:19Z</time>
<speed>5.650000</speed>
<extensions>
<speed>5.7</speed>
<temp>0.00</temp>
<bpm>0</bpm>
<rpm>0.00</rpm>
</extensions>
</trkpt>
<trkpt lat="63.733280182" lon="-20.117891312">
<ele>52.114258</ele>
<time>2012-07-26T19:18:24Z</time>
<speed>5.150000</speed>
<extensions>
<speed>5.2</speed>
<temp>0.00</temp>
<bpm>0</bpm>
<rpm>0.00</rpm>
</extensions>
</trkpt>
<trkpt lat="63.733257294" lon="-20.118410110">
<ele>52.766602</ele>
<time>2012-07-26T19:18:29Z</time>
<speed>5.330000</speed>
<extensions>
<speed>5.3</speed>
<temp>0.00</temp>
<bpm>0</bpm>
<rpm>0.00</rpm>
</extensions>
</trkpt>
<trkpt lat="63.733238220" lon="-20.118961334">
<ele>52.286133</ele>
<time>2012-07-26T19:18:34Z</time>
<speed>5.420000</speed>
<extensions>
<speed>5.4</speed>
<temp>0.00</temp>
<bpm>0</bpm>
<rpm>0.00</rpm>
</extensions>
</trkpt>
<trkpt lat="63.733219147" lon="-20.119533539">
<ele>51.732422</ele>
<time>2012-07-26T19:18:39Z</time>
<speed>5.820000</speed>
<extensions>
<speed>5.8</speed>
<temp>0.00</temp>
<bpm>0</bpm>
<rpm>0.00</rpm>
</extensions>
</trkpt>
<trkpt lat="63.733211517" lon="-20.120119095">
<ele>51.534180</ele>
<time>2012-07-26T19:18:44Z</time>
<speed>6.140000</speed>
<extensions>
<speed>6.1</speed>
<temp>0.00</temp>
<bpm>0</bpm>
<rpm>0.00</rpm>
</extensions>
</trkpt>
<trkpt lat="63.733200073" lon="-20.120742798">
<ele>50.887695</ele>
<time>2012-07-26T19:18:49Z</time>
<speed>5.960000</speed>
<extensions>
<speed>6.0</speed>
<temp>0.00</temp>
<bpm>0</bpm>
<rpm>0.00</rpm>
</extensions>
</trkpt>
<trkpt lat="63.733207703" lon="-20.121318817">
<ele>51.207031</ele>
<time>2012-07-26T19:18:54Z</time>
<speed>5.190000</speed>
<extensions>
<speed>5.2</speed>
<temp>0.00</temp>
<bpm>0</bpm>
<rpm>0.00</rpm>
</extensions>
</trkpt>
<trkpt lat="63.733222961" lon="-20.121841431">
<ele>50.427734</ele>
<time>2012-07-26T19:18:59Z</time>
<speed>5.430000</speed>
<extensions>
<speed>5.4</speed>
<temp>0.00</temp>
<bpm>0</bpm>
<rpm>0.00</rpm>
</extensions>
</trkpt>
<trkpt lat="63.733261108" lon="-20.122404099">
<ele>48.567383</ele>
<time>2012-07-26T19:19:04Z</time>
<speed>5.760000</speed>
<extensions>
<speed>5.8</speed>
<temp>0.00</temp>
<bpm>0</bpm>
<rpm>0.00</rpm>
</extensions>
</trkpt>
<trkpt lat="63.733291626" lon="-20.122989655">
<ele>46.864258</ele>
<time>2012-07-26T19:19:09Z</time>
<speed>5.960000</speed>
<extensions>
<speed>6.0</speed>
<temp>0.00</temp>
<bpm>0</bpm>
<rpm>0.00</rpm>
</extensions>
</trkpt>
<trkpt lat="63.733333588" lon="-20.123598099">
<ele>47.614258</ele>
<time>2012-07-26T19:19:14Z</time>
<speed>6.230000</speed>
<extensions>
<speed>6.2</speed>
<temp>0.00</temp>
<bpm>0</bpm>
<rpm>0.00</rpm>
</extensions>
</trkpt>
<trkpt lat="63.733379364" lon="-20.124185562">
<ele>48.238281</ele>
<time>2012-07-26T19:19:19Z</time>
<speed>5.240000</speed>
<extensions>
<speed>5.2</speed>
<temp>0.00</temp>
<bpm>0</bpm>
<rpm>0.00</rpm>
</extensions>
</trkpt>
<trkpt lat="63.733406067" lon="-20.124679565">
<ele>46.649414</ele>
<time>2012-07-26T19:19:24Z</time>
<speed>4.500000</speed>
<extensions>
<speed>4.5</speed>
<temp>0.00</temp>
<bpm>0</bpm>
<rpm>0.00</rpm>
</extensions>
</trkpt>
<trkpt lat="63.733432770" lon="-20.125146866">
<ele>45.883789</ele>
<time>2012-07-26T19:19:29Z</time>
<speed>4.790000</speed>
<extensions>
<speed>4.8</speed>
<temp>0.00</temp>
<bpm>0</bpm>
<rpm>0.00</rpm>
</extensions>
</trkpt>
<trkpt lat="63.733463287" lon="-20.125659943">
<ele>46.051758</ele>
<time>2012-07-26T19:19:34Z</time>
<speed>5.250000</speed>
<extensions>
<speed>5.2</speed>
<temp>0.00</temp>
<bpm>0</bpm>
<rpm>0.00</rpm>
</extensions>
</trkpt>
<trkpt lat="63.733493805" lon="-20.126190186">
<ele>47.286133</ele>
<time>2012-07-26T19:19:39Z</time>
<speed>5.450000</speed>
<extensions>
<speed>5.5</speed>
<temp>0.00</temp>
<bpm>0</bpm>
<rpm>0.00</rpm>
</extensions>
</trkpt>
<trkpt lat="63.733531952" lon="-20.126722336">
<ele>46.702148</ele>
<time>2012-07-26T19:19:44Z</time>
<speed>5.130000</speed>
<extensions>
<speed>5.1</speed>
<temp>0.00</temp>
<bpm>0</bpm>
<rpm>0.00</rpm>
</extensions>
</trkpt>
<trkpt lat="63.733573914" lon="-20.127204895">
<ele>45.505859</ele>
<time>2012-07-26T19:19:49Z</time>
<speed>4.760000</speed>
<extensions>
<speed>4.8</speed>
<temp>0.00</temp>
<bpm>0</bpm>
<rpm>0.00</rpm>
</extensions>
</trkpt>
<trkpt lat="63.733612061" lon="-20.127681732">
<ele>47.051758</ele>
<time>2012-07-26T19:19:54Z</time>
<speed>5.050000</speed>
<extensions>
<speed>5.1</speed>
<temp>0.00</temp>
<bpm>0</bpm>
<rpm>0.00</rpm>
</extensions>
</trkpt>
<trkpt lat="63.733650208" lon="-20.128208160">
<ele>48.250000</ele>
<time>2012-07-26T19:19:59Z</time>
<speed>5.430000</speed>
<extensions>
<speed>5.4</speed>
<temp>0.00</temp>
<bpm>0</bpm>
<rpm>0.00</rpm>
</extensions>
</trkpt>
<trkpt lat="63.733680725" lon="-20.128755569">
<ele>49.573242</ele>
<time>2012-07-26T19:20:04Z</time>
<speed>5.080000</speed>
<extensions>
<speed>5.1</speed>
<temp>0.00</temp>
<bpm>0</bpm>
<rpm>0.00</rpm>
</extensions>
</trkpt>
<trkpt lat="63.733707428" lon="-20.129219055">
<ele>49.403320</ele>
<time>2012-07-26T19:20:09Z</time>
<speed>4.170000</speed>
<extensions>
<speed>4.2</speed>
<temp>0.00</temp>
<bpm>0</bpm>
<rpm>0.00</rpm>
</extensions>
</trkpt>
<trkpt lat="63.733726501" lon="-20.129655838">
<ele>49.566406</ele>
<time>2012-07-26T19:20:14Z</time>
<speed>4.300000</speed>
<extensions>
<speed>4.3</speed>
<temp>0.00</temp>
<bpm>0</bpm>
<rpm>0.00</rpm>
</extensions>
</trkpt>
<trkpt lat="63.733753204" lon="-20.130100250">
<ele>48.982422</ele>
<time>2012-07-26T19:20:19Z</time>
<speed>4.720000</speed>
<extensions>
<speed>4.7</speed>
<temp>0.00</temp>
<bpm>0</bpm>
<rpm>0.00</rpm>
</extensions>
</trkpt>
<trkpt lat="63.733787537" lon="-20.130592346">
<ele>45.858398</ele>
<time>2012-07-26T19:20:24Z</time>
<speed>4.690000</speed>
<extensions>
<speed>4.7</speed>
<temp>0.00</temp>
<bpm>0</bpm>
<rpm>0.00</rpm>
</extensions>
</trkpt>
<trkpt lat="63.733825684" lon="-20.131010056">
<ele>47.636719</ele>
<time>2012-07-26T19:20:29Z</time>
<speed>3.750000</speed>
<extensions>
<speed>3.8</speed>
<temp>0.00</temp>
<bpm>0</bpm>
<rpm>0.00</rpm>
</extensions>
</trkpt>
<trkpt lat="63.733852386" lon="-20.131389618">
<ele>46.757813</ele>
<time>2012-07-26T19:20:34Z</time>
<speed>4.140000</speed>
<extensions>
<speed>4.1</speed>
<temp>0.00</temp>
<bpm>0</bpm>
<rpm>0.00</rpm>
</extensions>
</trkpt>
<trkpt lat="63.733871460" lon="-20.131845474">
<ele>45.429688</ele>
<time>2012-07-26T19:20:39Z</time>
<speed>4.660000</speed>
<extensions>
<speed>4.7</speed>
<temp>0.00</temp>
<bpm>0</bpm>
<rpm>0.00</rpm>
</extensions>
</trkpt>
<trkpt lat="63.733913422" lon="-20.132326126">
<ele>48.263672</ele>
<time>2012-07-26T19:20:44Z</time>
<speed>4.980000</speed>
<extensions>
<speed>5.0</speed>
<temp>0.00</temp>
<bpm>0</bpm>
<rpm>0.00</rpm>
</extensions>
</trkpt>
<trkpt lat="63.733932495" lon="-20.132810593">
<ele>47.592773</ele>
<time>2012-07-26T19:20:49Z</time>
<speed>4.530000</speed>
<extensions>
<speed>4.5</speed>
<temp>0.00</temp>
<bpm>0</bpm>
<rpm>0.00</rpm>
</extensions>
</trkpt>
<trkpt lat="63.733959198" lon="-20.133207321">
<ele>47.787109</ele>
<time>2012-07-26T19:20:54Z</time>
<speed>3.510000</speed>
<extensions>
<speed>3.5</speed>
<temp>0.00</temp>
<bpm>0</bpm>
<rpm>0.00</rpm>
</extensions>
</trkpt>
<trkpt lat="63.733982086" lon="-20.133621216">
<ele>47.479492</ele>
<time>2012-07-26T19:20:59Z</time>
<speed>4.270000</speed>
<extensions>
<speed>4.3</speed>
<temp>0.00</temp>
<bpm>0</bpm>
<rpm>0.00</rpm>
</extensions>
</trkpt>
<trkpt lat="63.734012604" lon="-20.134042740">
<ele>48.448242</ele>
<time>2012-07-26T19:21:04Z</time>
<speed>4.420000</speed>
<extensions>
<speed>4.4</speed>
<temp>0.00</temp>
<bpm>0</bpm>
<rpm>0.00</rpm>
</extensions>
</trkpt>
<trkpt lat="63.734027863" lon="-20.134447098">
<ele>49.244141</ele>
<time>2012-07-26T19:21:09Z</time>
<speed>3.620000</speed>
<extensions>
<speed>3.6</speed>
<temp>0.00</temp>
<bpm>0</bpm>
<rpm>0.00</rpm>
</extensions>
</trkpt>
<trkpt lat="63.734050751" lon="-20.134769440">
<ele>47.216797</ele>
<time>2012-07-26T19:21:14Z</time>
<speed>2.820000</speed>
<extensions>
<speed>2.8</speed>
<temp>0.00</temp>
<bpm>0</bpm>
<rpm>0.00</rpm>
</extensions>
</trkpt>
<trkpt lat="63.734073639" lon="-20.135055542">
<ele>45.414063</ele>
<time>2012-07-26T19:21:19Z</time>
<speed>3.520000</speed>
<extensions>
<speed>3.5</speed>
<temp>0.00</temp>
<bpm>0</bpm>
<rpm>0.00</rpm>
</extensions>
</trkpt>
<trkpt lat="63.734100342" lon="-20.135450363">
<ele>48.716797</ele>
<time>2012-07-26T19:21:24Z</time>
<speed>4.300000</speed>
<extensions>
<speed>4.3</speed>
<temp>0.00</temp>
<bpm>0</bpm>
<rpm>0.00</rpm>
</extensions>
</trkpt>
<trkpt lat="63.734134674" lon="-20.135904312">
<ele>49.104492</ele>
<time>2012-07-26T19:21:29Z</time>
<speed>4.690000</speed>
<extensions>
<speed>4.7</speed>
<temp>0.00</temp>
<bpm>0</bpm>
<rpm>0.00</rpm>
</extensions>
</trkpt>
<trkpt lat="63.734165192" lon="-20.136360168">
<ele>49.114258</ele>
<time>2012-07-26T19:21:34Z</time>
<speed>4.130000</speed>
<extensions>
<speed>4.1</speed>
<temp>0.00</temp>
<bpm>0</bpm>
<rpm>0.00</rpm>
</extensions>
</trkpt>
<trkpt lat="63.734188080" lon="-20.136720657">
<ele>49.457031</ele>
<time>2012-07-26T19:21:39Z</time>
<speed>3.300000</speed>
<extensions>
<speed>3.3</speed>
<temp>0.00</temp>
<bpm>0</bpm>
<rpm>0.00</rpm>
</extensions>
</trkpt>
<trkpt lat="63.734210968" lon="-20.137096405">
<ele>49.881836</ele>
<time>2012-07-26T19:21:44Z</time>
<speed>4.320000</speed>
<extensions>
<speed>4.3</speed>
<temp>0.00</temp>
<bpm>0</bpm>
<rpm>0.00</rpm>
</extensions>
</trkpt>
<trkpt lat="63.734249115" lon="-20.137586594">
<ele>51.297852</ele>
<time>2012-07-26T19:21:49Z</time>
<speed>5.350000</speed>
<extensions>
<speed>5.4</speed>
<temp>0.00</temp>
<bpm>0</bpm>
<rpm>0.00</rpm>
</extensions>
</trkpt>
<trkpt lat="63.734294891" lon="-20.138114929">
<ele>53.041016</ele>
<time>2012-07-26T19:21:54Z</time>
<speed>5.400000</speed>
<extensions>
<speed>5.4</speed>
<temp>0.00</temp>
<bpm>0</bpm>
<rpm>0.00</rpm>
</extensions>
</trkpt>
<trkpt lat="63.734329224" lon="-20.138675690">
<ele>53.833984</ele>
<time>2012-07-26T19:21:59Z</time>
<speed>5.780000</speed>
<extensions>
<speed>5.8</speed>
<temp>0.00</temp>
<bpm>0</bpm>
<rpm>0.00</rpm>
</extensions>
</trkpt>
<trkpt lat="63.734363556" lon="-20.139270782">
<ele>55.462891</ele>
<time>2012-07-26T19:22:04Z</time>
<speed>5.890000</speed>
<extensions>
<speed>5.9</speed>
<temp>0.00</temp>
<bpm>0</bpm>
<rpm>0.00</rpm>
</extensions>
</trkpt>
<trkpt lat="63.734405518" lon="-20.139865875">
<ele>57.084961</ele>
<time>2012-07-26T19:22:09Z</time>
<speed>5.700000</speed>
<extensions>
<speed>5.7</speed>
<temp>0.00</temp>
<bpm>0</bpm>
<rpm>0.00</rpm>
</extensions>
</trkpt>
<trkpt lat="63.734436035" lon="-20.140447617">
<ele>56.189453</ele>
<time>2012-07-26T19:22:14Z</time>
<speed>5.740000</speed>
<extensions>
<speed>5.7</speed>
<temp>0.00</temp>
<bpm>0</bpm>
<rpm>0.00</rpm>
</extensions>
</trkpt>
<trkpt lat="63.734481812" lon="-20.140981674">
<ele>55.006836</ele>
<time>2012-07-26T19:22:19Z</time>
<speed>4.960000</speed>
<extensions>
<speed>5.0</speed>
<temp>0.00</temp>
<bpm>0</bpm>
<rpm>0.00</rpm>
</extensions>
</trkpt>
<trkpt lat="63.734497070" lon="-20.141431808">
<ele>52.848633</ele>
<time>2012-07-26T19:22:24Z</time>
<speed>4.220000</speed>
<extensions>
<speed>4.2</speed>
<temp>0.00</temp>
<bpm>0</bpm>
<rpm>0.00</rpm>
</extensions>
</trkpt>
<trkpt lat="63.734523773" lon="-20.141872406">
<ele>49.762695</ele>
<time>2012-07-26T19:22:29Z</time>
<speed>4.790000</speed>
<extensions>
<speed>4.8</speed>
<temp>0.00</temp>
<bpm>0</bpm>
<rpm>0.00</rpm>
</extensions>
</trkpt>
<trkpt lat="63.734550476" lon="-20.142385483">
<ele>49.601563</ele>
<time>2012-07-26T19:22:34Z</time>
<speed>5.230000</speed>
<extensions>
<speed>5.2</speed>
<temp>0.00</temp>
<bpm>0</bpm>
<rpm>0.00</rpm>
</extensions>
</trkpt>
<trkpt lat="63.734584808" lon="-20.142923355">
<ele>49.121094</ele>
<time>2012-07-26T19:22:39Z</time>
<speed>5.520000</speed>
<extensions>
<speed>5.5</speed>
<temp>0.00</temp>
<bpm>0</bpm>
<rpm>0.00</rpm>
</extensions>
</trkpt>
<trkpt lat="63.734619141" lon="-20.143426895">
<ele>47.671875</ele>
<time>2012-07-26T19:22:44Z</time>
<speed>4.650000</speed>
<extensions>
<speed>4.6</speed>
<temp>0.00</temp>
<bpm>0</bpm>
<rpm>0.00</rpm>
</extensions>
</trkpt>
<trkpt lat="63.734645844" lon="-20.143867493">
<ele>48.132813</ele>
<time>2012-07-26T19:22:49Z</time>
<speed>4.410000</speed>
<extensions>
<speed>4.4</speed>
<temp>0.00</temp>
<bpm>0</bpm>
<rpm>0.00</rpm>
</extensions>
</trkpt>
<trkpt lat="63.734676361" lon="-20.144271851">
<ele>48.226563</ele>
<time>2012-07-26T19:22:54Z</time>
<speed>3.470000</speed>
<extensions>
<speed>3.5</speed>
<temp>0.00</temp>
<bpm>0</bpm>
<rpm>0.00</rpm>
</extensions>
</trkpt>
<trkpt lat="63.734706879" lon="-20.144718170">
<ele>49.386719</ele>
<time>2012-07-26T19:22:59Z</time>
<speed>4.880000</speed>
<extensions>
<speed>4.9</speed>
<temp>0.00</temp>
<bpm>0</bpm>
<rpm>0.00</rpm>
</extensions>
</trkpt>
<trkpt lat="63.734741211" lon="-20.145248413">
<ele>51.913086</ele>
<time>2012-07-26T19:23:04Z</time>
<speed>5.470000</speed>
<extensions>
<speed>5.5</speed>
<temp>0.00</temp>
<bpm>0</bpm>
<rpm>0.00</rpm>
</extensions>
</trkpt>
<trkpt lat="63.734779358" lon="-20.145826340">
<ele>51.932617</ele>
<time>2012-07-26T19:23:09Z</time>
<speed>5.870000</speed>
<extensions>
<speed>5.9</speed>
<temp>0.00</temp>
<bpm>0</bpm>
<rpm>0.00</rpm>
</extensions>
</trkpt>
<trkpt lat="63.734813690" lon="-20.146409988">
<ele>51.922852</ele>
<time>2012-07-26T19:23:14Z</time>
<speed>6.140000</speed>
<extensions>
<speed>6.1</speed>
<temp>0.00</temp>
<bpm>0</bpm>
<rpm>0.00</rpm>
</extensions>
</trkpt>
<trkpt lat="63.734848022" lon="-20.147022247">
<ele>49.774414</ele>
<time>2012-07-26T19:23:19Z</time>
<speed>5.940000</speed>
<extensions>
<speed>5.9</speed>
<temp>0.00</temp>
<bpm>0</bpm>
<rpm>0.00</rpm>
</extensions>
</trkpt>
<trkpt lat="63.734886169" lon="-20.147583008">
<ele>49.671875</ele>
<time>2012-07-26T19:23:24Z</time>
<speed>5.200000</speed>
<extensions>
<speed>5.2</speed>
<temp>0.00</temp>
<bpm>0</bpm>
<rpm>0.00</rpm>
</extensions>
</trkpt>
<trkpt lat="63.734909058" lon="-20.148061752">
<ele>48.340820</ele>
<time>2012-07-26T19:23:29Z</time>
<speed>4.940000</speed>
<extensions>
<speed>4.9</speed>
<temp>0.00</temp>
<bpm>0</bpm>
<rpm>0.00</rpm>
</extensions>
</trkpt>
<trkpt lat="63.734947205" lon="-20.148588181">
<ele>47.051758</ele>
<time>2012-07-26T19:23:34Z</time>
<speed>5.530000</speed>
<extensions>
<speed>5.5</speed>
<temp>0.00</temp>
<bpm>0</bpm>
<rpm>0.00</rpm>
</extensions>
</trkpt>
<trkpt lat="63.734985352" lon="-20.149147034">
<ele>47.792969</ele>
<time>2012-07-26T19:23:39Z</time>
<speed>5.480000</speed>
<extensions>
<speed>5.5</speed>
<temp>0.00</temp>
<bpm>0</bpm>
<rpm>0.00</rpm>
</extensions>
</trkpt>
<trkpt lat="63.735023499" lon="-20.149682999">
<ele>47.104492</ele>
<time>2012-07-26T19:23:44Z</time>
<speed>5.460000</speed>
<extensions>
<speed>5.5</speed>
<temp>0.00</temp>
<bpm>0</bpm>
<rpm>0.00</rpm>
</extensions>
</trkpt>
<trkpt lat="63.735054016" lon="-20.150194168">
<ele>46.987305</ele>
<time>2012-07-26T19:23:49Z</time>
<speed>4.930000</speed>
<extensions>
<speed>4.9</speed>
<temp>0.00</temp>
<bpm>0</bpm>
<rpm>0.00</rpm>
</extensions>
</trkpt>
<trkpt lat="63.735076904" lon="-20.150686264">
<ele>47.283203</ele>
<time>2012-07-26T19:23:54Z</time>
<speed>4.710000</speed>
<extensions>
<speed>4.7</speed>
<temp>0.00</temp>
<bpm>0</bpm>
<rpm>0.00</rpm>
</extensions>
</trkpt>
<trkpt lat="63.735111237" lon="-20.151159286">
<ele>47.613281</ele>
<time>2012-07-26T19:23:59Z</time>
<speed>4.830000</speed>
<extensions>
<speed>4.8</speed>
<temp>0.00</temp>
<bpm>0</bpm>
<rpm>0.00</rpm>
</extensions>
</trkpt>
<trkpt lat="63.735137939" lon="-20.151603699">
<ele>45.926758</ele>
<time>2012-07-26T19:24:04Z</time>
<speed>4.030000</speed>
<extensions>
<speed>4.0</speed>
<temp>0.00</temp>
<bpm>0</bpm>
<rpm>0.00</rpm>
</extensions>
</trkpt>
<trkpt lat="63.735168457" lon="-20.151981354">
<ele>45.633789</ele>
<time>2012-07-26T19:24:09Z</time>
<speed>3.160000</speed>
<extensions>
<speed>3.2</speed>
<temp>0.00</temp>
<bpm>0</bpm>
<rpm>0.00</rpm>
</extensions>
</trkpt>
<trkpt lat="63.735195160" lon="-20.152280807">
<ele>46.821289</ele>
<time>2012-07-26T19:24:14Z</time>
<speed>3.300000</speed>
<extensions>
<speed>3.3</speed>
<temp>0.00</temp>
<bpm>0</bpm>
<rpm>0.00</rpm>
</extensions>
</trkpt>
<trkpt lat="63.735218048" lon="-20.152633667">
<ele>46.914063</ele>
<time>2012-07-26T19:24:19Z</time>
<speed>3.780000</speed>
<extensions>
<speed>3.8</speed>
<temp>0.00</temp>
<bpm>0</bpm>
<rpm>0.00</rpm>
</extensions>
</trkpt>
<trkpt lat="63.735248566" lon="-20.153064728">
<ele>44.550781</ele>
<time>2012-07-26T19:24:24Z</time>
<speed>4.370000</speed>
<extensions>
<speed>4.4</speed>
<temp>0.00</temp>
<bpm>0</bpm>
<rpm>0.00</rpm>
</extensions>
</trkpt>
<trkpt lat="63.735286713" lon="-20.153455734">
<ele>43.927734</ele>
<time>2012-07-26T19:24:29Z</time>
<speed>3.780000</speed>
<extensions>
<speed>3.8</speed>
<temp>0.00</temp>
<bpm>0</bpm>
<rpm>0.00</rpm>
</extensions>
</trkpt>
<trkpt lat="63.735340118" lon="-20.153869629">
<ele>42.410156</ele>
<time>2012-07-26T19:24:34Z</time>
<speed>4.610000</speed>
<extensions>
<speed>4.6</speed>
<temp>0.00</temp>
<bpm>0</bpm>
<rpm>0.00</rpm>
</extensions>
</trkpt>
<trkpt lat="63.735412598" lon="-20.154335022">
<ele>42.395508</ele>
<time>2012-07-26T19:24:39Z</time>
<speed>5.170000</speed>
<extensions>
<speed>5.2</speed>
<temp>0.00</temp>
<bpm>0</bpm>
<rpm>0.00</rpm>
</extensions>
</trkpt>
<trkpt lat="63.735511780" lon="-20.154838562">
<ele>42.042969</ele>
<time>2012-07-26T19:24:44Z</time>
<speed>5.740000</speed>
<extensions>
<speed>5.7</speed>
<temp>0.00</temp>
<bpm>0</bpm>
<rpm>0.00</rpm>
</extensions>
</trkpt>
<trkpt lat="63.735599518" lon="-20.155323029">
<ele>40.454102</ele>
<time>2012-07-26T19:24:49Z</time>
<speed>4.760000</speed>
<extensions>
<speed>4.8</speed>
<temp>0.00</temp>
<bpm>0</bpm>
<rpm>0.00</rpm>
</extensions>
</trkpt>
<trkpt lat="63.735687256" lon="-20.155765533">
<ele>40.982422</ele>
<time>2012-07-26T19:24:54Z</time>
<speed>5.100000</speed>
<extensions>
<speed>5.1</speed>
<temp>0.00</temp>
<bpm>0</bpm>
<rpm>0.00</rpm>
</extensions>
</trkpt>
<trkpt lat="63.735778809" lon="-20.156265259">
<ele>40.250000</ele>
<time>2012-07-26T19:24:59Z</time>
<speed>5.260000</speed>
<extensions>
<speed>5.3</speed>
<temp>0.00</temp>
<bpm>0</bpm>
<rpm>0.00</rpm>
</extensions>
</trkpt>
<trkpt lat="63.735858917" lon="-20.156700134">
<ele>40.692383</ele>
<time>2012-07-26T19:25:04Z</time>
<speed>4.140000</speed>
<extensions>
<speed>4.1</speed>
<temp>0.00</temp>
<bpm>0</bpm>
<rpm>0.00</rpm>
</extensions>
</trkpt>
<trkpt lat="63.735927582" lon="-20.157051086">
<ele>40.949219</ele>
<time>2012-07-26T19:25:09Z</time>
<speed>3.580000</speed>
<extensions>
<speed>3.6</speed>
<temp>0.00</temp>
<bpm>0</bpm>
<rpm>0.00</rpm>
</extensions>
</trkpt>
<trkpt lat="63.736007690" lon="-20.157390594">
<ele>40.149414</ele>
<time>2012-07-26T19:25:14Z</time>
<speed>4.220000</speed>
<extensions>
<speed>4.2</speed>
<temp>0.00</temp>
<bpm>0</bpm>
<rpm>0.00</rpm>
</extensions>
</trkpt>
<trkpt lat="63.736080170" lon="-20.157766342">
<ele>39.087891</ele>
<time>2012-07-26T19:25:19Z</time>
<speed>4.380000</speed>
<extensions>
<speed>4.4</speed>
<temp>0.00</temp>
<bpm>0</bpm>
<rpm>0.00</rpm>
</extensions>
</trkpt>
<trkpt lat="63.736156464" lon="-20.158195496">
<ele>39.564453</ele>
<time>2012-07-26T19:25:24Z</time>
<speed>4.450000</speed>
<extensions>
<speed>4.5</speed>
<temp>0.00</temp>
<bpm>0</bpm>
<rpm>0.00</rpm>
</extensions>
</trkpt>
<trkpt lat="63.736225128" lon="-20.158588409">
<ele>39.973633</ele>
<time>2012-07-26T19:25:29Z</time>
<speed>3.590000</speed>
<extensions>
<speed>3.6</speed>
<temp>0.00</temp>
<bpm>0</bpm>
<rpm>0.00</rpm>
</extensions>
</trkpt>
<trkpt lat="63.736293793" lon="-20.158885956">
<ele>40.099609</ele>
<time>2012-07-26T19:25:34Z</time>
<speed>2.780000</speed>
<extensions>
<speed>2.8</speed>
<temp>0.00</temp>
<bpm>0</bpm>
<rpm>0.00</rpm>
</extensions>
</trkpt>
<trkpt lat="63.736328125" lon="-20.159091949">
<ele>40.571289</ele>
<time>2012-07-26T19:25:39Z</time>
<speed>1.770000</speed>
<extensions>
<speed>1.8</speed>
<temp>0.00</temp>
<bpm>0</bpm>
<rpm>0.00</rpm>
</extensions>
</trkpt>
<trkpt lat="63.736354828" lon="-20.159212112">
<ele>41.802734</ele>
<time>2012-07-26T19:25:44Z</time>
<speed>1.710000</speed>
<extensions>
<speed>1.7</speed>
<temp>0.00</temp>
<bpm>0</bpm>
<rpm>0.00</rpm>
</extensions>
</trkpt>
<trkpt lat="63.736438751" lon="-20.159467697">
<ele>40.357422</ele>
<time>2012-07-26T19:25:49Z</time>
<speed>3.850000</speed>
<extensions>
<speed>3.8</speed>
<temp>0.00</temp>
<bpm>0</bpm>
<rpm>0.00</rpm>
</extensions>
</trkpt>
<trkpt lat="63.736537933" lon="-20.159851074">
<ele>40.593750</ele>
<time>2012-07-26T19:25:54Z</time>
<speed>4.660000</speed>
<extensions>
<speed>4.7</speed>
<temp>0.00</temp>
<bpm>0</bpm>
<rpm>0.00</rpm>
</extensions>
</trkpt>
<trkpt lat="63.736644745" lon="-20.160291672">
<ele>40.806641</ele>
<time>2012-07-26T19:25:59Z</time>
<speed>5.060000</speed>
<extensions>
<speed>5.1</speed>
<temp>0.00</temp>
<bpm>0</bpm>
<rpm>0.00</rpm>
</extensions>
</trkpt>
<trkpt lat="63.736759186" lon="-20.160755157">
<ele>40.642578</ele>
<time>2012-07-26T19:26:04Z</time>
<speed>4.860000</speed>
<extensions>
<speed>4.9</speed>
<temp>0.00</temp>
<bpm>0</bpm>
<rpm>0.00</rpm>
</extensions>
</trkpt>
<trkpt lat="63.736846924" lon="-20.161130905">
<ele>41.174805</ele>
<time>2012-07-26T19:26:09Z</time>
<speed>3.670000</speed>
<extensions>
<speed>3.7</speed>
<temp>0.00</temp>
<bpm>0</bpm>
<rpm>0.00</rpm>
</extensions>
</trkpt>
<trkpt lat="63.736927032" lon="-20.161426544">
<ele>40.263672</ele>
<time>2012-07-26T19:26:14Z</time>
<speed>3.890000</speed>
<extensions>
<speed>3.9</speed>
<temp>0.00</temp>
<bpm>0</bpm>
<rpm>0.00</rpm>
</extensions>
</trkpt>
<trkpt lat="63.737022400" lon="-20.161827087">
<ele>40.512695</ele>
<time>2012-07-26T19:26:19Z</time>
<speed>4.670000</speed>
<extensions>
<speed>4.7</speed>
<temp>0.00</temp>
<bpm>0</bpm>
<rpm>0.00</rpm>
</extensions>
</trkpt>
<trkpt lat="63.737133026" lon="-20.162248611">
<ele>40.218750</ele>
<time>2012-07-26T19:26:24Z</time>
<speed>5.080000</speed>
<extensions>
<speed>5.1</speed>
<temp>0.00</temp>
<bpm>0</bpm>
<rpm>0.00</rpm>
</extensions>
</trkpt>
<trkpt lat="63.737255096" lon="-20.162698746">
<ele>40.758789</ele>
<time>2012-07-26T19:26:29Z</time>
<speed>5.050000</speed>
<extensions>
<speed>5.1</speed>
<temp>0.00</temp>
<bpm>0</bpm>
<rpm>0.00</rpm>
</extensions>
</trkpt>
<trkpt lat="63.737358093" lon="-20.163095474">
<ele>40.555664</ele>
<time>2012-07-26T19:26:34Z</time>
<speed>4.060000</speed>
<extensions>
<speed>4.1</speed>
<temp>0.00</temp>
<bpm>0</bpm>
<rpm>0.00</rpm>
</extensions>
</trkpt>
<trkpt lat="63.737442017" lon="-20.163408279">
<ele>39.991211</ele>
<time>2012-07-26T19:26:39Z</time>
<speed>3.310000</speed>
<extensions>
<speed>3.3</speed>
<temp>0.00</temp>
<bpm>0</bpm>
<rpm>0.00</rpm>
</extensions>
</trkpt>
<trkpt lat="63.737491608" lon="-20.163648605">
<ele>39.122070</ele>
<time>2012-07-26T19:26:44Z</time>
<speed>2.420000</speed>
<extensions>
<speed>2.4</speed>
<temp>0.00</temp>
<bpm>0</bpm>
<rpm>0.00</rpm>
</extensions>
</trkpt>
<trkpt lat="63.737560272" lon="-20.163911819">
<ele>40.833008</ele>
<time>2012-07-26T19:26:49Z</time>
<speed>3.530000</speed>
<extensions>
<speed>3.5</speed>
<temp>0.00</temp>
<bpm>0</bpm>
<rpm>0.00</rpm>
</extensions>
</trkpt>
<trkpt lat="63.737648010" lon="-20.164264679">
<ele>41.454102</ele>
<time>2012-07-26T19:26:54Z</time>
<speed>4.260000</speed>
<extensions>
<speed>4.3</speed>
<temp>0.00</temp>
<bpm>0</bpm>
<rpm>0.00</rpm>
</extensions>
</trkpt>
<trkpt lat="63.737747192" lon="-20.164644241">
<ele>40.791016</ele>
<time>2012-07-26T19:26:59Z</time>
<speed>4.480000</speed>
<extensions>
<speed>4.5</speed>
<temp>0.00</temp>
<bpm>0</bpm>
<rpm>0.00</rpm>
</extensions>
</trkpt>
<trkpt lat="63.737854004" lon="-20.165067673">
<ele>40.651367</ele>
<time>2012-07-26T19:27:04Z</time>
<speed>4.840000</speed>
<extensions>
<speed>4.8</speed>
<temp>0.00</temp>
<bpm>0</bpm>
<rpm>0.00</rpm>
</extensions>
</trkpt>
<trkpt lat="63.737972260" lon="-20.165504456">
<ele>41.060547</ele>
<time>2012-07-26T19:27:09Z</time>
<speed>5.200000</speed>
<extensions>
<speed>5.2</speed>
<temp>0.00</temp>
<bpm>0</bpm>
<rpm>0.00</rpm>
</extensions>
</trkpt>
<trkpt lat="63.738098145" lon="-20.165954590">
<ele>40.007813</ele>
<time>2012-07-26T19:27:14Z</time>
<speed>5.590000</speed>
<extensions>
<speed>5.6</speed>
<temp>0.00</temp>
<bpm>0</bpm>
<rpm>0.00</rpm>
</extensions>
</trkpt>
<trkpt lat="63.738220215" lon="-20.166431427">
<ele>40.540039</ele>
<time>2012-07-26T19:27:19Z</time>
<speed>4.840000</speed>
<extensions>
<speed>4.8</speed>
<temp>0.00</temp>
<bpm>0</bpm>
<rpm>0.00</rpm>
</extensions>
</trkpt>
<trkpt lat="63.738307953" lon="-20.166778564">
<ele>40.258789</ele>
<time>2012-07-26T19:27:24Z</time>
<speed>3.240000</speed>
<extensions>
<speed>3.2</speed>
<temp>0.00</temp>
<bpm>0</bpm>
<rpm>0.00</rpm>
</extensions>
</trkpt>
<trkpt lat="63.738372803" lon="-20.167030334">
<ele>40.329102</ele>
<time>2012-07-26T19:27:29Z</time>
<speed>2.850000</speed>
<extensions>
<speed>2.9</speed>
<temp>0.00</temp>
<bpm>0</bpm>
<rpm>0.00</rpm>
</extensions>
</trkpt>
<trkpt lat="63.738433838" lon="-20.167293549">
<ele>38.796875</ele>
<time>2012-07-26T19:27:34Z</time>
<speed>3.580000</speed>
<extensions>
<speed>3.6</speed>
<temp>0.00</temp>
<bpm>0</bpm>
<rpm>0.00</rpm>
</extensions>
</trkpt>
<trkpt lat="63.738536835" lon="-20.167638779">
<ele>39.230469</ele>
<time>2012-07-26T19:27:39Z</time>
<speed>4.130000</speed>
<extensions>
<speed>4.1</speed>
<temp>0.00</temp>
<bpm>0</bpm>
<rpm>0.00</rpm>
</extensions>
</trkpt>
<trkpt lat="63.738643646" lon="-20.168029785">
<ele>40.360352</ele>
<time>2012-07-26T19:27:44Z</time>
<speed>4.670000</speed>
<extensions>
<speed>4.7</speed>
<temp>0.00</temp>
<bpm>0</bpm>
<rpm>0.00</rpm>
</extensions>
</trkpt>
<trkpt lat="63.738735199" lon="-20.168418884">
<ele>39.114258</ele>
<time>2012-07-26T19:27:49Z</time>
<speed>3.650000</speed>
<extensions>
<speed>3.7</speed>
<temp>0.00</temp>
<bpm>0</bpm>
<rpm>0.00</rpm>
</extensions>
</trkpt>
<trkpt lat="63.738819122" lon="-20.168685913">
<ele>39.821289</ele>
<time>2012-07-26T19:27:54Z</time>
<speed>3.370000</speed>
<extensions>
<speed>3.4</speed>
<temp>0.00</temp>
<bpm>0</bpm>
<rpm>0.00</rpm>
</extensions>
</trkpt>
<trkpt lat="63.738906860" lon="-20.169025421">
<ele>39.857422</ele>
<time>2012-07-26T19:27:59Z</time>
<speed>4.260000</speed>
<extensions>
<speed>4.3</speed>
<temp>0.00</temp>
<bpm>0</bpm>
<rpm>0.00</rpm>
</extensions>
</trkpt>
<trkpt lat="63.739002228" lon="-20.169395447">
<ele>40.186523</ele>
<time>2012-07-26T19:28:04Z</time>
<speed>3.690000</speed>
<extensions>
<speed>3.7</speed>
<temp>0.00</temp>
<bpm>0</bpm>
<rpm>0.00</rpm>
</extensions>
</trkpt>
<trkpt lat="63.739063263" lon="-20.169656754">
<ele>40.536133</ele>
<time>2012-07-26T19:28:09Z</time>
<speed>2.400000</speed>
<extensions>
<speed>2.4</speed>
<temp>0.00</temp>
<bpm>0</bpm>
<rpm>0.00</rpm>
</extensions>
</trkpt>
<trkpt lat="63.739120483" lon="-20.169883728">
<ele>40.627930</ele>
<time>2012-07-26T19:28:14Z</time>
<speed>3.270000</speed>
<extensions>
<speed>3.3</speed>
<temp>0.00</temp>
<bpm>0</bpm>
<rpm>0.00</rpm>
</extensions>
</trkpt>
<trkpt lat="63.739208221" lon="-20.170185089">
<ele>40.720703</ele>
<time>2012-07-26T19:28:19Z</time>
<speed>3.770000</speed>
<extensions>
<speed>3.8</speed>
<temp>0.00</temp>
<bpm>0</bpm>
<rpm>0.00</rpm>
</extensions>
</trkpt>
<trkpt lat="63.739295959" lon="-20.170537949">
<ele>39.333008</ele>
<time>2012-07-26T19:28:24Z</time>
<speed>4.170000</speed>
<extensions>
<speed>4.2</speed>
<temp>0.00</temp>
<bpm>0</bpm>
<rpm>0.00</rpm>
</extensions>
</trkpt>
<trkpt lat="63.739376068" lon="-20.170850754">
<ele>39.650391</ele>
<time>2012-07-26T19:28:29Z</time>
<speed>2.950000</speed>
<extensions>
<speed>2.9</speed>
<temp>0.00</temp>
<bpm>0</bpm>
<rpm>0.00</rpm>
</extensions>
</trkpt>
<trkpt lat="63.739448547" lon="-20.171154022">
<ele>39.392578</ele>
<time>2012-07-26T19:28:34Z</time>
<speed>4.110000</speed>
<extensions>
<speed>4.1</speed>
<temp>0.00</temp>
<bpm>0</bpm>
<rpm>0.00</rpm>
</extensions>
</trkpt>
<trkpt lat="63.739551544" lon="-20.171527863">
<ele>38.904297</ele>
<time>2012-07-26T19:28:39Z</time>
<speed>4.600000</speed>
<extensions>
<speed>4.6</speed>
<temp>0.00</temp>
<bpm>0</bpm>
<rpm>0.00</rpm>
</extensions>
</trkpt>
<trkpt lat="63.739658356" lon="-20.171930313">
<ele>41.070313</ele>
<time>2012-07-26T19:28:44Z</time>
<speed>4.550000</speed>
<extensions>
<speed>4.5</speed>
<temp>0.00</temp>
<bpm>0</bpm>
<rpm>0.00</rpm>
</extensions>
</trkpt>
<trkpt lat="63.739753723" lon="-20.172294617">
<ele>39.680664</ele>
<time>2012-07-26T19:28:49Z</time>
<speed>3.620000</speed>
<extensions>
<speed>3.6</speed>
<temp>0.00</temp>
<bpm>0</bpm>
<rpm>0.00</rpm>
</extensions>
</trkpt>
<trkpt lat="63.739826202" lon="-20.172592163">
<ele>39.792969</ele>
<time>2012-07-26T19:28:54Z</time>
<speed>3.430000</speed>
<extensions>
<speed>3.4</speed>
<temp>0.00</temp>
<bpm>0</bpm>
<rpm>0.00</rpm>
</extensions>
</trkpt>
<trkpt lat="63.739913940" lon="-20.172908783">
<ele>39.452148</ele>
<time>2012-07-26T19:28:59Z</time>
<speed>3.910000</speed>
<extensions>
<speed>3.9</speed>
<temp>0.00</temp>
<bpm>0</bpm>
<rpm>0.00</rpm>
</extensions>
</trkpt>
<trkpt lat="63.740009308" lon="-20.173246384">
<ele>39.260742</ele>
<time>2012-07-26T19:29:04Z</time>
<speed>4.340000</speed>
<extensions>
<speed>4.3</speed>
<temp>0.00</temp>
<bpm>0</bpm>
<rpm>0.00</rpm>
</extensions>
</trkpt>
<trkpt lat="63.740116119" lon="-20.173637390">
<ele>40.784180</ele>
<time>2012-07-26T19:29:09Z</time>
<speed>4.670000</speed>
<extensions>
<speed>4.7</speed>
<temp>0.00</temp>
<bpm>0</bpm>
<rpm>0.00</rpm>
</extensions>
</trkpt>
<trkpt lat="63.740203857" lon="-20.174016953">
<ele>40.365234</ele>
<time>2012-07-26T19:29:14Z</time>
<speed>3.720000</speed>
<extensions>
<speed>3.7</speed>
<temp>0.00</temp>
<bpm>0</bpm>
<rpm>0.00</rpm>
</extensions>
</trkpt>
<trkpt lat="63.740287781" lon="-20.174322128">
<ele>40.105469</ele>
<time>2012-07-26T19:29:19Z</time>
<speed>3.720000</speed>
<extensions>
<speed>3.7</speed>
<temp>0.00</temp>
<bpm>0</bpm>
<rpm>0.00</rpm>
</extensions>
</trkpt>
<trkpt lat="63.740371704" lon="-20.174661636">
<ele>39.961914</ele>
<time>2012-07-26T19:29:24Z</time>
<speed>3.940000</speed>
<extensions>
<speed>3.9</speed>
<temp>0.00</temp>
<bpm>0</bpm>
<rpm>0.00</rpm>
</extensions>
</trkpt>
<trkpt lat="63.740463257" lon="-20.175031662">
<ele>39.993164</ele>
<time>2012-07-26T19:29:29Z</time>
<speed>4.240000</speed>
<extensions>
<speed>4.2</speed>
<temp>0.00</temp>
<bpm>0</bpm>
<rpm>0.00</rpm>
</extensions>
</trkpt>
<trkpt lat="63.740558624" lon="-20.175411224">
<ele>39.745117</ele>
<time>2012-07-26T19:29:34Z</time>
<speed>4.450000</speed>
<extensions>
<speed>4.5</speed>
<temp>0.00</temp>
<bpm>0</bpm>
<rpm>0.00</rpm>
</extensions>
</trkpt>
<trkpt lat="63.740673065" lon="-20.175811768">
<ele>39.597656</ele>
<time>2012-07-26T19:29:39Z</time>
<speed>4.860000</speed>
<extensions>
<speed>4.9</speed>
<temp>0.00</temp>
<bpm>0</bpm>
<rpm>0.00</rpm>
</extensions>
</trkpt>
<trkpt lat="63.740787506" lon="-20.176235199">
<ele>39.928711</ele>
<time>2012-07-26T19:29:44Z</time>
<speed>4.880000</speed>
<extensions>
<speed>4.9</speed>
<temp>0.00</temp>
<bpm>0</bpm>
<rpm>0.00</rpm>
</extensions>
</trkpt>
<trkpt lat="63.740886688" lon="-20.176662445">
<ele>39.567383</ele>
<time>2012-07-26T19:29:49Z</time>
<speed>4.310000</speed>
<extensions>
<speed>4.3</speed>
<temp>0.00</temp>
<bpm>0</bpm>
<rpm>0.00</rpm>
</extensions>
</trkpt>
<trkpt lat="63.740970612" lon="-20.176986694">
<ele>40.255859</ele>
<time>2012-07-26T19:29:54Z</time>
<speed>3.260000</speed>
<extensions>
<speed>3.3</speed>
<temp>0.00</temp>
<bpm>0</bpm>
<rpm>0.00</rpm>
</extensions>
</trkpt>
<trkpt lat="63.741039276" lon="-20.177278519">
<ele>39.334961</ele>
<time>2012-07-26T19:29:59Z</time>
<speed>3.450000</speed>
<extensions>
<speed>3.5</speed>
<temp>0.00</temp>
<bpm>0</bpm>
<rpm>0.00</rpm>
</extensions>
</trkpt>
<trkpt lat="63.741107941" lon="-20.177597046">
<ele>39.711914</ele>
<time>2012-07-26T19:30:04Z</time>
<speed>3.870000</speed>
<extensions>
<speed>3.9</speed>
<temp>0.00</temp>
<bpm>0</bpm>
<rpm>0.00</rpm>
</extensions>
</trkpt>
<trkpt lat="63.741184235" lon="-20.177982330">
<ele>40.537109</ele>
<time>2012-07-26T19:30:09Z</time>
<speed>4.100000</speed>
<extensions>
<speed>4.1</speed>
<temp>0.00</temp>
<bpm>0</bpm>
<rpm>0.00</rpm>
</extensions>
</trkpt>
<trkpt lat="63.741275787" lon="-20.178377151">
<ele>41.446289</ele>
<time>2012-07-26T19:30:14Z</time>
<speed>4.240000</speed>
<extensions>
<speed>4.2</speed>
<temp>0.00</temp>
<bpm>0</bpm>
<rpm>0.00</rpm>
</extensions>
</trkpt>
<trkpt lat="63.741352081" lon="-20.178730011">
<ele>41.029297</ele>
<time>2012-07-26T19:30:19Z</time>
<speed>3.540000</speed>
<extensions>
<speed>3.5</speed>
<temp>0.00</temp>
<bpm>0</bpm>
<rpm>0.00</rpm>
</extensions>
</trkpt>
<trkpt lat="63.741416931" lon="-20.179031372">
<ele>40.533203</ele>
<time>2012-07-26T19:30:24Z</time>
<speed>2.810000</speed>
<extensions>
<speed>2.8</speed>
<temp>0.00</temp>
<bpm>0</bpm>
<rpm>0.00</rpm>
</extensions>
</trkpt>
<trkpt lat="63.741474152" lon="-20.179300308">
<ele>40.650391</ele>
<time>2012-07-26T19:30:29Z</time>
<speed>3.350000</speed>
<extensions>
<speed>3.4</speed>
<temp>0.00</temp>
<bpm>0</bpm>
<rpm>0.00</rpm>
</extensions>
</trkpt>
<trkpt lat="63.741535187" lon="-20.179649353">
<ele>41.296875</ele>
<time>2012-07-26T19:30:34Z</time>
<speed>3.970000</speed>
<extensions>
<speed>4.0</speed>
<temp>0.00</temp>
<bpm>0</bpm>
<rpm>0.00</rpm>
</extensions>
</trkpt>
<trkpt lat="63.741603851" lon="-20.180032730">
<ele>40.850586</ele>
<time>2012-07-26T19:30:39Z</time>
<speed>4.240000</speed>
<extensions>
<speed>4.2</speed>
<temp>0.00</temp>
<bpm>0</bpm>
<rpm>0.00</rpm>
</extensions>
</trkpt>
<trkpt lat="63.741672516" lon="-20.180452347">
<ele>40.926758</ele>
<time>2012-07-26T19:30:44Z</time>
<speed>4.460000</speed>
<extensions>
<speed>4.5</speed>
<temp>0.00</temp>
<bpm>0</bpm>
<rpm>0.00</rpm>
</extensions>
</trkpt>
<trkpt lat="63.741733551" lon="-20.180864334">
<ele>38.653320</ele>
<time>2012-07-26T19:30:49Z</time>
<speed>4.510000</speed>
<extensions>
<speed>4.5</speed>
<temp>0.00</temp>
<bpm>0</bpm>
<rpm>0.00</rpm>
</extensions>
</trkpt>
<trkpt lat="63.741802216" lon="-20.181310654">
<ele>38.339844</ele>
<time>2012-07-26T19:30:54Z</time>
<speed>4.500000</speed>
<extensions>
<speed>4.5</speed>
<temp>0.00</temp>
<bpm>0</bpm>
<rpm>0.00</rpm>
</extensions>
</trkpt>
<trkpt lat="63.741863251" lon="-20.181673050">
<ele>37.450195</ele>
<time>2012-07-26T19:30:59Z</time>
<speed>3.240000</speed>
<extensions>
<speed>3.2</speed>
<temp>0.00</temp>
<bpm>0</bpm>
<rpm>0.00</rpm>
</extensions>
</trkpt>
<trkpt lat="63.741924286" lon="-20.181976318">
<ele>37.645508</ele>
<time>2012-07-26T19:31:04Z</time>
<speed>3.880000</speed>
<extensions>
<speed>3.9</speed>
<temp>0.00</temp>
<bpm>0</bpm>
<rpm>0.00</rpm>
</extensions>
</trkpt>
<trkpt lat="63.741989136" lon="-20.182374954">
<ele>37.900391</ele>
<time>2012-07-26T19:31:09Z</time>
<speed>4.410000</speed>
<extensions>
<speed>4.4</speed>
<temp>0.00</temp>
<bpm>0</bpm>
<rpm>0.00</rpm>
</extensions>
</trkpt>
<trkpt lat="63.742050171" lon="-20.182790756">
<ele>37.905273</ele>
<time>2012-07-26T19:31:14Z</time>
<speed>4.400000</speed>
<extensions>
<speed>4.4</speed>
<temp>0.00</temp>
<bpm>0</bpm>
<rpm>0.00</rpm>
</extensions>
</trkpt>
<trkpt lat="63.742137909" lon="-20.183227539">
<ele>37.723633</ele>
<time>2012-07-26T19:31:19Z</time>
<speed>5.020000</speed>
<extensions>
<speed>5.0</speed>
<temp>0.00</temp>
<bpm>0</bpm>
<rpm>0.00</rpm>
</extensions>
</trkpt>
<trkpt lat="63.742229462" lon="-20.183673859">
<ele>37.830078</ele>
<time>2012-07-26T19:31:24Z</time>
<speed>4.390000</speed>
<extensions>
<speed>4.4</speed>
<temp>0.00</temp>
<bpm>0</bpm>
<rpm>0.00</rpm>
</extensions>
</trkpt>
<trkpt lat="63.742313385" lon="-20.184049606">
<ele>37.542969</ele>
<time>2012-07-26T19:31:29Z</time>
<speed>4.030000</speed>
<extensions>
<speed>4.0</speed>
<temp>0.00</temp>
<bpm>0</bpm>
<rpm>0.00</rpm>
</extensions>
</trkpt>
<trkpt lat="63.742389679" lon="-20.184394836">
<ele>38.502930</ele>
<time>2012-07-26T19:31:34Z</time>
<speed>3.490000</speed>
<extensions>
<speed>3.5</speed>
<temp>0.00</temp>
<bpm>0</bpm>
<rpm>0.00</rpm>
</extensions>
</trkpt>
<trkpt lat="63.742462158" lon="-20.184698105">
<ele>40.185547</ele>
<time>2012-07-26T19:31:39Z</time>
<speed>2.990000</speed>
<extensions>
<speed>3.0</speed>
<temp>0.00</temp>
<bpm>0</bpm>
<rpm>0.00</rpm>
</extensions>
</trkpt>
<trkpt lat="63.742527008" lon="-20.184959412">
<ele>40.329102</ele>
<time>2012-07-26T19:31:44Z</time>
<speed>2.850000</speed>
<extensions>
<speed>2.9</speed>
<temp>0.00</temp>
<bpm>0</bpm>
<rpm>0.00</rpm>
</extensions>
</trkpt>
<trkpt lat="63.742580414" lon="-20.185199738">
<ele>39.619141</ele>
<time>2012-07-26T19:31:49Z</time>
<speed>2.450000</speed>
<extensions>
<speed>2.4</speed>
<temp>0.00</temp>
<bpm>0</bpm>
<rpm>0.00</rpm>
</extensions>
</trkpt>
<trkpt lat="63.742652893" lon="-20.185501099">
<ele>37.347656</ele>
<time>2012-07-26T19:31:54Z</time>
<speed>3.630000</speed>
<extensions>
<speed>3.6</speed>
<temp>0.00</temp>
<bpm>0</bpm>
<rpm>0.00</rpm>
</extensions>
</trkpt>
<trkpt lat="63.742733002" lon="-20.185831070">
<ele>38.453125</ele>
<time>2012-07-26T19:31:59Z</time>
<speed>3.900000</speed>
<extensions>
<speed>3.9</speed>
<temp>0.00</temp>
<bpm>0</bpm>
<rpm>0.00</rpm>
</extensions>
</trkpt>
<trkpt lat="63.742820740" lon="-20.186204910">
<ele>40.104492</ele>
<time>2012-07-26T19:32:04Z</time>
<speed>4.200000</speed>
<extensions>
<speed>4.2</speed>
<temp>0.00</temp>
<bpm>0</bpm>
<rpm>0.00</rpm>
</extensions>
</trkpt>
<trkpt lat="63.742908478" lon="-20.186576843">
<ele>40.985352</ele>
<time>2012-07-26T19:32:09Z</time>
<speed>4.060000</speed>
<extensions>
<speed>4.1</speed>
<temp>0.00</temp>
<bpm>0</bpm>
<rpm>0.00</rpm>
</extensions>
</trkpt>
<trkpt lat="63.743003845" lon="-20.186935425">
<ele>39.500000</ele>
<time>2012-07-26T19:32:14Z</time>
<speed>3.990000</speed>
<extensions>
<speed>4.0</speed>
<temp>0.00</temp>
<bpm>0</bpm>
<rpm>0.00</rpm>
</extensions>
</trkpt>
<trkpt lat="63.743080139" lon="-20.187261581">
<ele>38.834961</ele>
<time>2012-07-26T19:32:19Z</time>
<speed>3.680000</speed>
<extensions>
<speed>3.7</speed>
<temp>0.00</temp>
<bpm>0</bpm>
<rpm>0.00</rpm>
</extensions>
</trkpt>
<trkpt lat="63.743164063" lon="-20.187572479">
<ele>38.269531</ele>
<time>2012-07-26T19:32:24Z</time>
<speed>3.310000</speed>
<extensions>
<speed>3.3</speed>
<temp>0.00</temp>
<bpm>0</bpm>
<rpm>0.00</rpm>
</extensions>
</trkpt>
<trkpt lat="63.743228912" lon="-20.187828064">
<ele>37.855469</ele>
<time>2012-07-26T19:32:29Z</time>
<speed>2.990000</speed>
<extensions>
<speed>3.0</speed>
<temp>0.00</temp>
<bpm>0</bpm>
<rpm>0.00</rpm>
</extensions>
</trkpt>
<trkpt lat="63.743278503" lon="-20.188045502">
<ele>39.185547</ele>
<time>2012-07-26T19:32:34Z</time>
<speed>1.860000</speed>
<extensions>
<speed>1.9</speed>
<temp>0.00</temp>
<bpm>0</bpm>
<rpm>0.00</rpm>
</extensions>
</trkpt>
<trkpt lat="63.743316650" lon="-20.188207626">
<ele>39.482422</ele>
<time>2012-07-26T19:32:39Z</time>
<speed>3.000000</speed>
<extensions>
<speed>3.0</speed>
<temp>0.00</temp>
<bpm>0</bpm>
<rpm>0.00</rpm>
</extensions>
</trkpt>
<trkpt lat="63.743385315" lon="-20.188518524">
<ele>40.596680</ele>
<time>2012-07-26T19:32:44Z</time>
<speed>3.740000</speed>
<extensions>
<speed>3.7</speed>
<temp>0.00</temp>
<bpm>0</bpm>
<rpm>0.00</rpm>
</extensions>
</trkpt>
<trkpt lat="63.743476868" lon="-20.188852310">
<ele>41.514648</ele>
<time>2012-07-26T19:32:49Z</time>
<speed>3.750000</speed>
<extensions>
<speed>3.8</speed>
<temp>0.00</temp>
<bpm>0</bpm>
<rpm>0.00</rpm>
</extensions>
</trkpt>
<trkpt lat="63.743549347" lon="-20.189182281">
<ele>41.410156</ele>
<time>2012-07-26T19:32:54Z</time>
<speed>3.730000</speed>
<extensions>
<speed>3.7</speed>
<temp>0.00</temp>
<bpm>0</bpm>
<rpm>0.00</rpm>
</extensions>
</trkpt>
<trkpt lat="63.743633270" lon="-20.189514160">
<ele>42.185547</ele>
<time>2012-07-26T19:32:59Z</time>
<speed>3.780000</speed>
<extensions>
<speed>3.8</speed>
<temp>0.00</temp>
<bpm>0</bpm>
<rpm>0.00</rpm>
</extensions>
</trkpt>
<trkpt lat="63.743713379" lon="-20.189851761">
<ele>42.569336</ele>
<time>2012-07-26T19:33:04Z</time>
<speed>3.270000</speed>
<extensions>
<speed>3.3</speed>
<temp>0.00</temp>
<bpm>0</bpm>
<rpm>0.00</rpm>
</extensions>
</trkpt>
<trkpt lat="63.743766785" lon="-20.190084457">
<ele>40.899414</ele>
<time>2012-07-26T19:33:09Z</time>
<speed>2.810000</speed>
<extensions>
<speed>2.8</speed>
<temp>0.00</temp>
<bpm>0</bpm>
<rpm>0.00</rpm>
</extensions>
</trkpt>
<trkpt lat="63.743831635" lon="-20.190357208">
<ele>41.333008</ele>
<time>2012-07-26T19:33:14Z</time>
<speed>3.110000</speed>
<extensions>
<speed>3.1</speed>
<temp>0.00</temp>
<bpm>0</bpm>
<rpm>0.00</rpm>
</extensions>
</trkpt>
<trkpt lat="63.743896484" lon="-20.190626144">
<ele>39.936523</ele>
<time>2012-07-26T19:33:19Z</time>
<speed>3.040000</speed>
<extensions>
<speed>3.0</speed>
<temp>0.00</temp>
<bpm>0</bpm>
<rpm>0.00</rpm>
</extensions>
</trkpt>
<trkpt lat="63.743949890" lon="-20.190868378">
<ele>39.545898</ele>
<time>2012-07-26T19:33:24Z</time>
<speed>2.050000</speed>
<extensions>
<speed>2.1</speed>
<temp>0.00</temp>
<bpm>0</bpm>
<rpm>0.00</rpm>
</extensions>
</trkpt>
<trkpt lat="63.743991852" lon="-20.191057205">
<ele>39.199219</ele>
<time>2012-07-26T19:33:29Z</time>
<speed>2.590000</speed>
<extensions>
<speed>2.6</speed>
<temp>0.00</temp>
<bpm>0</bpm>
<rpm>0.00</rpm>
</extensions>
</trkpt>
<trkpt lat="63.744056702" lon="-20.191314697">
<ele>40.726563</ele>
<time>2012-07-26T19:33:34Z</time>
<speed>2.830000</speed>
<extensions>
<speed>2.8</speed>
<temp>0.00</temp>
<bpm>0</bpm>
<rpm>0.00</rpm>
</extensions>
</trkpt>
<trkpt lat="63.744125366" lon="-20.191555023">
<ele>42.855469</ele>
<time>2012-07-26T19:33:39Z</time>
<speed>2.750000</speed>
<extensions>
<speed>2.7</speed>
<temp>0.00</temp>
<bpm>0</bpm>
<rpm>0.00</rpm>
</extensions>
</trkpt>
<trkpt lat="63.744171143" lon="-20.191818237">
<ele>44.299805</ele>
<time>2012-07-26T19:33:44Z</time>
<speed>2.620000</speed>
<extensions>
<speed>2.6</speed>
<temp>0.00</temp>
<bpm>0</bpm>
<rpm>0.00</rpm>
</extensions>
</trkpt>
<trkpt lat="63.744228363" lon="-20.192085266">
<ele>45.338867</ele>
<time>2012-07-26T19:33:49Z</time>
<speed>3.000000</speed>
<extensions>
<speed>3.0</speed>
<temp>0.00</temp>
<bpm>0</bpm>
<rpm>0.00</rpm>
</extensions>
</trkpt>
<trkpt lat="63.744285583" lon="-20.192375183">
<ele>44.468750</ele>
<time>2012-07-26T19:33:54Z</time>
<speed>3.120000</speed>
<extensions>
<speed>3.1</speed>
<temp>0.00</temp>
<bpm>0</bpm>
<rpm>0.00</rpm>
</extensions>
</trkpt>
<trkpt lat="63.744338989" lon="-20.192661285">
<ele>41.584961</ele>
<time>2012-07-26T19:33:59Z</time>
<speed>3.210000</speed>
<extensions>
<speed>3.2</speed>
<temp>0.00</temp>
<bpm>0</bpm>
<rpm>0.00</rpm>
</extensions>
</trkpt>
<trkpt lat="63.744388580" lon="-20.192934036">
<ele>42.505859</ele>
<time>2012-07-26T19:34:04Z</time>
<speed>2.020000</speed>
<extensions>
<speed>2.0</speed>
<temp>0.00</temp>
<bpm>0</bpm>
<rpm>0.00</rpm>
</extensions>
</trkpt>
<trkpt lat="63.744407654" lon="-20.193086624">
<ele>44.028320</ele>
<time>2012-07-26T19:34:09Z</time>
<speed>2.100000</speed>
<extensions>
<speed>2.1</speed>
<temp>0.00</temp>
<bpm>0</bpm>
<rpm>0.00</rpm>
</extensions>
</trkpt>
<trkpt lat="63.744453430" lon="-20.193326950">
<ele>43.471680</ele>
<time>2012-07-26T19:34:14Z</time>
<speed>2.860000</speed>
<extensions>
<speed>2.9</speed>
<temp>0.00</temp>
<bpm>0</bpm>
<rpm>0.00</rpm>
</extensions>
</trkpt>
<trkpt lat="63.744487762" lon="-20.193622589">
<ele>44.867188</ele>
<time>2012-07-26T19:34:19Z</time>
<speed>3.040000</speed>
<extensions>
<speed>3.0</speed>
<temp>0.00</temp>
<bpm>0</bpm>
<rpm>0.00</rpm>
</extensions>
</trkpt>
<trkpt lat="63.744525909" lon="-20.193920135">
<ele>47.389648</ele>
<time>2012-07-26T19:34:24Z</time>
<speed>2.300000</speed>
<extensions>
<speed>2.3</speed>
<temp>0.00</temp>
<bpm>0</bpm>
<rpm>0.00</rpm>
</extensions>
</trkpt>
<trkpt lat="63.744560242" lon="-20.194044113">
<ele>48.157227</ele>
<time>2012-07-26T19:34:29Z</time>
<speed>1.790000</speed>
<extensions>
<speed>1.8</speed>
<temp>0.00</temp>
<bpm>0</bpm>
<rpm>0.00</rpm>
</extensions>
</trkpt>
<trkpt lat="63.744590759" lon="-20.194330215">
<ele>48.271484</ele>
<time>2012-07-26T19:34:34Z</time>
<speed>3.270000</speed>
<extensions>
<speed>3.3</speed>
<temp>0.00</temp>
<bpm>0</bpm>
<rpm>0.00</rpm>
</extensions>
</trkpt>
<trkpt lat="63.744636536" lon="-20.194650650">
<ele>49.608398</ele>
<time>2012-07-26T19:34:39Z</time>
<speed>2.840000</speed>
<extensions>
<speed>2.8</speed>
<temp>0.00</temp>
<bpm>0</bpm>
<rpm>0.00</rpm>
</extensions>
</trkpt>
<trkpt lat="63.744689941" lon="-20.194934845">
<ele>48.873047</ele>
<time>2012-07-26T19:34:44Z</time>
<speed>3.180000</speed>
<extensions>
<speed>3.2</speed>
<temp>0.00</temp>
<bpm>0</bpm>
<rpm>0.00</rpm>
</extensions>
</trkpt>
<trkpt lat="63.744739532" lon="-20.195247650">
<ele>48.417969</ele>
<time>2012-07-26T19:34:49Z</time>
<speed>3.160000</speed>
<extensions>
<speed>3.2</speed>
<temp>0.00</temp>
<bpm>0</bpm>
<rpm>0.00</rpm>
</extensions>
</trkpt>
<trkpt lat="63.744781494" lon="-20.195566177">
<ele>50.291992</ele>
<time>2012-07-26T19:34:54Z</time>
<speed>3.270000</speed>
<extensions>
<speed>3.3</speed>
<temp>0.00</temp>
<bpm>0</bpm>
<rpm>0.00</rpm>
</extensions>
</trkpt>
<trkpt lat="63.744808197" lon="-20.195806503">
<ele>51.581055</ele>
<time>2012-07-26T19:34:59Z</time>
<speed>2.590000</speed>
<extensions>
<speed>2.6</speed>
<temp>0.00</temp>
<bpm>0</bpm>
<rpm>0.00</rpm>
</extensions>
</trkpt>
<trkpt lat="63.744861603" lon="-20.196113586">
<ele>53.111328</ele>
<time>2012-07-26T19:35:04Z</time>
<speed>3.480000</speed>
<extensions>
<speed>3.5</speed>
<temp>0.00</temp>
<bpm>0</bpm>
<rpm>0.00</rpm>
</extensions>
</trkpt>
<trkpt lat="63.744941711" lon="-20.196403503">
<ele>55.474609</ele>
<time>2012-07-26T19:35:09Z</time>
<speed>2.360000</speed>
<extensions>
<speed>2.4</speed>
<temp>0.00</temp>
<bpm>0</bpm>
<rpm>0.00</rpm>
</extensions>
</trkpt>
<trkpt lat="63.744979858" lon="-20.196563721">
<ele>55.518555</ele>
<time>2012-07-26T19:35:14Z</time>
<speed>1.990000</speed>
<extensions>
<speed>2.0</speed>
<temp>0.00</temp>
<bpm>0</bpm>
<rpm>0.00</rpm>
</extensions>
</trkpt>
<trkpt lat="63.745033264" lon="-20.196784973">
<ele>55.354492</ele>
<time>2012-07-26T19:35:19Z</time>
<speed>2.650000</speed>
<extensions>
<speed>2.6</speed>
<temp>0.00</temp>
<bpm>0</bpm>
<rpm>0.00</rpm>
</extensions>
</trkpt>
<trkpt lat="63.745094299" lon="-20.197010040">
<ele>54.704102</ele>
<time>2012-07-26T19:35:24Z</time>
<speed>2.800000</speed>
<extensions>
<speed>2.8</speed>
<temp>0.00</temp>
<bpm>0</bpm>
<rpm>0.00</rpm>
</extensions>
</trkpt>
<trkpt lat="63.745155334" lon="-20.197252274">
<ele>55.362305</ele>
<time>2012-07-26T19:35:29Z</time>
<speed>2.430000</speed>
<extensions>
<speed>2.4</speed>
<temp>0.00</temp>
<bpm>0</bpm>
<rpm>0.00</rpm>
</extensions>
</trkpt>
<trkpt lat="63.745193481" lon="-20.197381973">
<ele>56.267578</ele>
<time>2012-07-26T19:35:34Z</time>
<speed>0.290000</speed>
<extensions>
<speed>0.3</speed>
<temp>0.00</temp>
<bpm>0</bpm>
<rpm>0.00</rpm>
</extensions>
</trkpt>
<trkpt lat="63.745197296" lon="-20.197385788">
<ele>56.503906</ele>
<time>2012-07-26T19:35:39Z</time>
<speed>0.090000</speed>
<extensions>
<speed>0.1</speed>
<temp>0.00</temp>
<bpm>0</bpm>
<rpm>0.00</rpm>
</extensions>
</trkpt>
<trkpt lat="63.745197296" lon="-20.197387695">
<ele>56.427734</ele>
<time>2012-07-26T19:35:44Z</time>
<speed>0.040000</speed>
<extensions>
<speed>0.0</speed>
<temp>0.00</temp>
<bpm>0</bpm>
<rpm>0.00</rpm>
</extensions>
</trkpt>
<trkpt lat="63.745197296" lon="-20.197387695">
<ele>56.385742</ele>
<time>2012-07-26T19:35:49Z</time>
<speed>0.050000</speed>
<extensions>
<speed>0.1</speed>
<temp>0.00</temp>
<bpm>0</bpm>
<rpm>0.00</rpm>
</extensions>
</trkpt>
<trkpt lat="63.745201111" lon="-20.197387695">
<ele>56.349609</ele>
<time>2012-07-26T19:35:54Z</time>
<speed>0.020000</speed>
<extensions>
<speed>0.0</speed>
<temp>0.00</temp>
<bpm>0</bpm>
<rpm>0.00</rpm>
</extensions>
</trkpt>
<trkpt lat="63.745201111" lon="-20.197387695">
<ele>56.390625</ele>
<time>2012-07-26T19:35:59Z</time>
<speed>0.030000</speed>
<extensions>
<speed>0.0</speed>
<temp>0.00</temp>
<bpm>0</bpm>
<rpm>0.00</rpm>
</extensions>
</trkpt>
<trkpt lat="63.745201111" lon="-20.197391510">
<ele>56.392578</ele>
<time>2012-07-26T19:36:04Z</time>
<extensions>
<speed>0.0</speed>
<temp>0.00</temp>
<bpm>0</bpm>
<rpm>0.00</rpm>
</extensions>
</trkpt>
<trkpt lat="63.745201111" lon="-20.197395325">
<ele>56.378906</ele>
<time>2012-07-26T19:36:09Z</time>
<speed>0.010000</speed>
<extensions>
<speed>0.0</speed>
<temp>0.00</temp>
<bpm>0</bpm>
<rpm>0.00</rpm>
</extensions>
</trkpt>
<trkpt lat="63.745201111" lon="-20.197395325">
<ele>56.379883</ele>
<time>2012-07-26T19:36:14Z</time>
<extensions>
<speed>0.0</speed>
<temp>0.00</temp>
<bpm>0</bpm>
<rpm>0.00</rpm>
</extensions>
</trkpt>
<trkpt lat="63.745201111" lon="-20.197395325">
<ele>56.382813</ele>
<time>2012-07-26T19:36:19Z</time>
<speed>0.010000</speed>
<extensions>
<speed>0.0</speed>
<temp>0.00</temp>
<bpm>0</bpm>
<rpm>0.00</rpm>
</extensions>
</trkpt>
<trkpt lat="63.745201111" lon="-20.197395325">
<ele>56.375977</ele>
<time>2012-07-26T19:36:24Z</time>
<extensions>
<speed>0.0</speed>
<temp>0.00</temp>
<bpm>0</bpm>
<rpm>0.00</rpm>
</extensions>
</trkpt>
<trkpt lat="63.745201111" lon="-20.197395325">
<ele>56.382813</ele>
<time>2012-07-26T19:36:29Z</time>
<speed>0.010000</speed>
<extensions>
<speed>0.0</speed>
<temp>0.00</temp>
<bpm>0</bpm>
<rpm>0.00</rpm>
</extensions>
</trkpt>
<trkpt lat="63.745201111" lon="-20.197393417">
<ele>56.395508</ele>
<time>2012-07-26T19:36:34Z</time>
<extensions>
<speed>0.0</speed>
<temp>0.00</temp>
<bpm>0</bpm>
<rpm>0.00</rpm>
</extensions>
</trkpt>
<trkpt lat="63.745201111" lon="-20.197393417">
<ele>56.414063</ele>
<time>2012-07-26T19:36:39Z</time>
<extensions>
<speed>0.0</speed>
<temp>0.00</temp>
<bpm>0</bpm>
<rpm>0.00</rpm>
</extensions>
</trkpt>
<trkpt lat="63.745201111" lon="-20.197393417">
<ele>56.423828</ele>
<time>2012-07-26T19:36:44Z</time>
<extensions>
<speed>0.0</speed>
<temp>0.00</temp>
<bpm>0</bpm>
<rpm>0.00</rpm>
</extensions>
</trkpt>
<trkpt lat="63.745201111" lon="-20.197393417">
<ele>56.430664</ele>
<time>2012-07-26T19:36:49Z</time>
<speed>0.020000</speed>
<extensions>
<speed>0.0</speed>
<temp>0.00</temp>
<bpm>0</bpm>
<rpm>0.00</rpm>
</extensions>
</trkpt>
<trkpt lat="63.745201111" lon="-20.197393417">
<ele>56.423828</ele>
<time>2012-07-26T19:36:54Z</time>
<extensions>
<speed>0.0</speed>
<temp>0.00</temp>
<bpm>0</bpm>
<rpm>0.00</rpm>
</extensions>
</trkpt>
<trkpt lat="63.745201111" lon="-20.197393417">
<ele>56.436523</ele>
<time>2012-07-26T19:36:59Z</time>
<extensions>
<speed>0.0</speed>
<temp>0.00</temp>
<bpm>0</bpm>
<rpm>0.00</rpm>
</extensions>
</trkpt>
<trkpt lat="63.745201111" lon="-20.197393417">
<ele>56.448242</ele>
<time>2012-07-26T19:37:04Z</time>
<extensions>
<speed>0.0</speed>
<temp>0.00</temp>
<bpm>0</bpm>
<rpm>0.00</rpm>
</extensions>
</trkpt>
<trkpt lat="63.745201111" lon="-20.197391510">
<ele>56.433594</ele>
<time>2012-07-26T19:37:09Z</time>
<speed>0.010000</speed>
<extensions>
<speed>0.0</speed>
<temp>0.00</temp>
<bpm>0</bpm>
<rpm>0.00</rpm>
</extensions>
</trkpt>
<trkpt lat="63.745201111" lon="-20.197391510">
<ele>56.430664</ele>
<time>2012-07-26T19:37:14Z</time>
<speed>0.010000</speed>
<extensions>
<speed>0.0</speed>
<temp>0.00</temp>
<bpm>0</bpm>
<rpm>0.00</rpm>
</extensions>
</trkpt>
<trkpt lat="63.745201111" lon="-20.197393417">
<ele>56.446289</ele>
<time>2012-07-26T19:37:19Z</time>
<extensions>
<speed>0.0</speed>
<temp>0.00</temp>
<bpm>0</bpm>
<rpm>0.00</rpm>
</extensions>
</trkpt>
<trkpt lat="63.745201111" lon="-20.197391510">
<ele>56.444336</ele>
<time>2012-07-26T19:37:24Z</time>
<speed>0.020000</speed>
<extensions>
<speed>0.0</speed>
<temp>0.00</temp>
<bpm>0</bpm>
<rpm>0.00</rpm>
</extensions>
</trkpt>
<trkpt lat="63.745201111" lon="-20.197391510">
<ele>56.427734</ele>
<time>2012-07-26T19:37:29Z</time>
<extensions>
<speed>0.0</speed>
<temp>0.00</temp>
<bpm>0</bpm>
<rpm>0.00</rpm>
</extensions>
</trkpt>
<trkpt lat="63.745201111" lon="-20.197391510">
<ele>56.431641</ele>
<time>2012-07-26T19:37:34Z</time>
<speed>0.020000</speed>
<extensions>
<speed>0.0</speed>
<temp>0.00</temp>
<bpm>0</bpm>
<rpm>0.00</rpm>
</extensions>
</trkpt>
<trkpt lat="63.745201111" lon="-20.197393417">
<ele>56.427734</ele>
<time>2012-07-26T19:37:39Z</time>
<speed>0.020000</speed>
<extensions>
<speed>0.0</speed>
<temp>0.00</temp>
<bpm>0</bpm>
<rpm>0.00</rpm>
</extensions>
</trkpt>
<trkpt lat="63.745201111" lon="-20.197393417">
<ele>56.411133</ele>
<time>2012-07-26T19:37:44Z</time>
<speed>0.030000</speed>
<extensions>
<speed>0.0</speed>
<temp>0.00</temp>
<bpm>0</bpm>
<rpm>0.00</rpm>
</extensions>
</trkpt>
<trkpt lat="63.745201111" lon="-20.197393417">
<ele>56.427734</ele>
<time>2012-07-26T19:37:49Z</time>
<speed>0.020000</speed>
<extensions>
<speed>0.0</speed>
<temp>0.00</temp>
<bpm>0</bpm>
<rpm>0.00</rpm>
</extensions>
</trkpt>
<trkpt lat="63.745201111" lon="-20.197393417">
<ele>56.422852</ele>
<time>2012-07-26T19:37:54Z</time>
<speed>0.030000</speed>
<extensions>
<speed>0.0</speed>
<temp>0.00</temp>
<bpm>0</bpm>
<rpm>0.00</rpm>
</extensions>
</trkpt>
<trkpt lat="63.745201111" lon="-20.197391510">
<ele>56.399414</ele>
<time>2012-07-26T19:37:59Z</time>
<speed>0.010000</speed>
<extensions>
<speed>0.0</speed>
<temp>0.00</temp>
<bpm>0</bpm>
<rpm>0.00</rpm>
</extensions>
</trkpt>
<trkpt lat="63.745201111" lon="-20.197391510">
<ele>56.368164</ele>
<time>2012-07-26T19:38:04Z</time>
<speed>0.010000</speed>
<extensions>
<speed>0.0</speed>
<temp>0.00</temp>
<bpm>0</bpm>
<rpm>0.00</rpm>
</extensions>
</trkpt>
<trkpt lat="63.745212555" lon="-20.197418213">
<ele>56.458008</ele>
<time>2012-07-26T19:38:09Z</time>
<speed>1.740000</speed>
<extensions>
<speed>1.7</speed>
<temp>0.00</temp>
<bpm>0</bpm>
<rpm>0.00</rpm>
</extensions>
</trkpt>
<trkpt lat="63.745265961" lon="-20.197628021">
<ele>57.179688</ele>
<time>2012-07-26T19:38:14Z</time>
<speed>2.700000</speed>
<extensions>
<speed>2.7</speed>
<temp>0.00</temp>
<bpm>0</bpm>
<rpm>0.00</rpm>
</extensions>
</trkpt>
<trkpt lat="63.745349884" lon="-20.197910309">
<ele>56.894531</ele>
<time>2012-07-26T19:38:19Z</time>
<speed>3.300000</speed>
<extensions>
<speed>3.3</speed>
<temp>0.00</temp>
<bpm>0</bpm>
<rpm>0.00</rpm>
</extensions>
</trkpt>
<trkpt lat="63.745445251" lon="-20.198219299">
<ele>57.487305</ele>
<time>2012-07-26T19:38:24Z</time>
<speed>3.780000</speed>
<extensions>
<speed>3.8</speed>
<temp>0.00</temp>
<bpm>0</bpm>
<rpm>0.00</rpm>
</extensions>
</trkpt>
<trkpt lat="63.745563507" lon="-20.198589325">
<ele>56.185547</ele>
<time>2012-07-26T19:38:29Z</time>
<speed>4.820000</speed>
<extensions>
<speed>4.8</speed>
<temp>0.00</temp>
<bpm>0</bpm>
<rpm>0.00</rpm>
</extensions>
</trkpt>
<trkpt lat="63.745712280" lon="-20.199029922">
<ele>53.671875</ele>
<time>2012-07-26T19:38:34Z</time>
<speed>6.160000</speed>
<extensions>
<speed>6.2</speed>
<temp>0.00</temp>
<bpm>0</bpm>
<rpm>0.00</rpm>
</extensions>
</trkpt>
<trkpt lat="63.745914459" lon="-20.199596405">
<ele>52.536133</ele>
<time>2012-07-26T19:38:39Z</time>
<speed>7.830000</speed>
<extensions>
<speed>7.8</speed>
<temp>0.00</temp>
<bpm>0</bpm>
<rpm>0.00</rpm>
</extensions>
</trkpt>
<trkpt lat="63.746154785" lon="-20.200248718">
<ele>46.672852</ele>
<time>2012-07-26T19:38:44Z</time>
<speed>9.000000</speed>
<extensions>
<speed>9.0</speed>
<temp>0.00</temp>
<bpm>0</bpm>
<rpm>0.00</rpm>
</extensions>
</trkpt>
<trkpt lat="63.746421814" lon="-20.200996399">
<ele>43.713867</ele>
<time>2012-07-26T19:38:49Z</time>
<speed>9.830000</speed>
<extensions>
<speed>9.8</speed>
<temp>0.00</temp>
<bpm>0</bpm>
<rpm>0.00</rpm>
</extensions>
</trkpt>
<trkpt lat="63.746719360" lon="-20.201784134">
<ele>43.488281</ele>
<time>2012-07-26T19:38:54Z</time>
<speed>9.880000</speed>
<extensions>
<speed>9.9</speed>
<temp>0.00</temp>
<bpm>0</bpm>
<rpm>0.00</rpm>
</extensions>
</trkpt>
<trkpt lat="63.746994019" lon="-20.202529907">
<ele>43.020508</ele>
<time>2012-07-26T19:38:59Z</time>
<speed>9.350000</speed>
<extensions>
<speed>9.3</speed>
<temp>0.00</temp>
<bpm>0</bpm>
<rpm>0.00</rpm>
</extensions>
</trkpt>
<trkpt lat="63.747261047" lon="-20.203231812">
<ele>43.594727</ele>
<time>2012-07-26T19:39:04Z</time>
<speed>8.560000</speed>
<extensions>
<speed>8.6</speed>
<temp>0.00</temp>
<bpm>0</bpm>
<rpm>0.00</rpm>
</extensions>
</trkpt>
<trkpt lat="63.747489929" lon="-20.203849792">
<ele>44.131836</ele>
<time>2012-07-26T19:39:09Z</time>
<speed>7.350000</speed>
<extensions>
<speed>7.3</speed>
<temp>0.00</temp>
<bpm>0</bpm>
<rpm>0.00</rpm>
</extensions>
</trkpt>
<trkpt lat="63.747673035" lon="-20.204351425">
<ele>44.178711</ele>
<time>2012-07-26T19:39:14Z</time>
<speed>5.870000</speed>
<extensions>
<speed>5.9</speed>
<temp>0.00</temp>
<bpm>0</bpm>
<rpm>0.00</rpm>
</extensions>
</trkpt>
<trkpt lat="63.747837067" lon="-20.204809189">
<ele>44.812500</ele>
<time>2012-07-26T19:39:19Z</time>
<speed>5.840000</speed>
<extensions>
<speed>5.8</speed>
<temp>0.00</temp>
<bpm>0</bpm>
<rpm>0.00</rpm>
</extensions>
</trkpt>
<trkpt lat="63.747993469" lon="-20.205284119">
<ele>43.922852</ele>
<time>2012-07-26T19:39:24Z</time>
<speed>5.780000</speed>
<extensions>
<speed>5.8</speed>
<temp>0.00</temp>
<bpm>0</bpm>
<rpm>0.00</rpm>
</extensions>
</trkpt>
<trkpt lat="63.748130798" lon="-20.205724716">
<ele>43.352539</ele>
<time>2012-07-26T19:39:29Z</time>
<speed>4.690000</speed>
<extensions>
<speed>4.7</speed>
<temp>0.00</temp>
<bpm>0</bpm>
<rpm>0.00</rpm>
</extensions>
</trkpt>
<trkpt lat="63.748241425" lon="-20.206092834">
<ele>41.303711</ele>
<time>2012-07-26T19:39:34Z</time>
<speed>4.510000</speed>
<extensions>
<speed>4.5</speed>
<temp>0.00</temp>
<bpm>0</bpm>
<rpm>0.00</rpm>
</extensions>
</trkpt>
<trkpt lat="63.748363495" lon="-20.206468582">
<ele>41.497070</ele>
<time>2012-07-26T19:39:39Z</time>
<speed>4.960000</speed>
<extensions>
<speed>5.0</speed>
<temp>0.00</temp>
<bpm>0</bpm>
<rpm>0.00</rpm>
</extensions>
</trkpt>
<trkpt lat="63.748500824" lon="-20.206901550">
<ele>41.356445</ele>
<time>2012-07-26T19:39:44Z</time>
<speed>5.420000</speed>
<extensions>
<speed>5.4</speed>
<temp>0.00</temp>
<bpm>0</bpm>
<rpm>0.00</rpm>
</extensions>
</trkpt>
<trkpt lat="63.748634338" lon="-20.207378387">
<ele>43.913086</ele>
<time>2012-07-26T19:39:49Z</time>
<speed>4.900000</speed>
<extensions>
<speed>4.9</speed>
<temp>0.00</temp>
<bpm>0</bpm>
<rpm>0.00</rpm>
</extensions>
</trkpt>
<trkpt lat="63.748764038" lon="-20.207769394">
<ele>48.706055</ele>
<time>2012-07-26T19:39:54Z</time>
<speed>4.780000</speed>
<extensions>
<speed>4.8</speed>
<temp>0.00</temp>
<bpm>0</bpm>
<rpm>0.00</rpm>
</extensions>
</trkpt>
<trkpt lat="63.748874664" lon="-20.208213806">
<ele>46.460938</ele>
<time>2012-07-26T19:39:59Z</time>
<speed>5.590000</speed>
<extensions>
<speed>5.6</speed>
<temp>0.00</temp>
<bpm>0</bpm>
<rpm>0.00</rpm>
</extensions>
</trkpt>
<trkpt lat="63.749000549" lon="-20.208639145">
<ele>41.318359</ele>
<time>2012-07-26T19:40:04Z</time>
<speed>4.690000</speed>
<extensions>
<speed>4.7</speed>
<temp>0.00</temp>
<bpm>0</bpm>
<rpm>0.00</rpm>
</extensions>
</trkpt>
<trkpt lat="63.749092102" lon="-20.209020615">
<ele>39.134766</ele>
<time>2012-07-26T19:40:09Z</time>
<speed>4.310000</speed>
<extensions>
<speed>4.3</speed>
<temp>0.00</temp>
<bpm>0</bpm>
<rpm>0.00</rpm>
</extensions>
</trkpt>
<trkpt lat="63.749214172" lon="-20.209405899">
<ele>41.816406</ele>
<time>2012-07-26T19:40:14Z</time>
<speed>4.710000</speed>
<extensions>
<speed>4.7</speed>
<temp>0.00</temp>
<bpm>0</bpm>
<rpm>0.00</rpm>
</extensions>
</trkpt>
<trkpt lat="63.749332428" lon="-20.209835052">
<ele>43.353516</ele>
<time>2012-07-26T19:40:19Z</time>
<speed>5.260000</speed>
<extensions>
<speed>5.3</speed>
<temp>0.00</temp>
<bpm>0</bpm>
<rpm>0.00</rpm>
</extensions>
</trkpt>
<trkpt lat="63.749435425" lon="-20.210247040">
<ele>40.276367</ele>
<time>2012-07-26T19:40:24Z</time>
<speed>4.220000</speed>
<extensions>
<speed>4.2</speed>
<temp>0.00</temp>
<bpm>0</bpm>
<rpm>0.00</rpm>
</extensions>
</trkpt>
<trkpt lat="63.749526978" lon="-20.210584641">
<ele>41.884766</ele>
<time>2012-07-26T19:40:29Z</time>
<speed>3.840000</speed>
<extensions>
<speed>3.8</speed>
<temp>0.00</temp>
<bpm>0</bpm>
<rpm>0.00</rpm>
</extensions>
</trkpt>
<trkpt lat="63.749645233" lon="-20.210979462">
<ele>42.905273</ele>
<time>2012-07-26T19:40:34Z</time>
<speed>5.260000</speed>
<extensions>
<speed>5.3</speed>
<temp>0.00</temp>
<bpm>0</bpm>
<rpm>0.00</rpm>
</extensions>
</trkpt>
<trkpt lat="63.749778748" lon="-20.211448669">
<ele>41.469727</ele>
<time>2012-07-26T19:40:39Z</time>
<speed>5.120000</speed>
<extensions>
<speed>5.1</speed>
<temp>0.00</temp>
<bpm>0</bpm>
<rpm>0.00</rpm>
</extensions>
</trkpt>
<trkpt lat="63.749877930" lon="-20.211847305">
<ele>35.974609</ele>
<time>2012-07-26T19:40:44Z</time>
<speed>4.900000</speed>
<extensions>
<speed>4.9</speed>
<temp>0.00</temp>
<bpm>0</bpm>
<rpm>0.00</rpm>
</extensions>
</trkpt>
<trkpt lat="63.750003815" lon="-20.212305069">
<ele>33.217773</ele>
<time>2012-07-26T19:40:49Z</time>
<speed>5.680000</speed>
<extensions>
<speed>5.7</speed>
<temp>0.00</temp>
<bpm>0</bpm>
<rpm>0.00</rpm>
</extensions>
</trkpt>
<trkpt lat="63.750129700" lon="-20.212749481">
<ele>32.704102</ele>
<time>2012-07-26T19:40:54Z</time>
<speed>4.690000</speed>
<extensions>
<speed>4.7</speed>
<temp>0.00</temp>
<bpm>0</bpm>
<rpm>0.00</rpm>
</extensions>
</trkpt>
<trkpt lat="63.750251770" lon="-20.213148117">
<ele>35.645508</ele>
<time>2012-07-26T19:40:59Z</time>
<speed>5.220000</speed>
<extensions>
<speed>5.2</speed>
<temp>0.00</temp>
<bpm>0</bpm>
<rpm>0.00</rpm>
</extensions>
</trkpt>
<trkpt lat="63.750385284" lon="-20.213634491">
<ele>38.210938</ele>
<time>2012-07-26T19:41:04Z</time>
<speed>5.730000</speed>
<extensions>
<speed>5.7</speed>
<temp>0.00</temp>
<bpm>0</bpm>
<rpm>0.00</rpm>
</extensions>
</trkpt>
<trkpt lat="63.750526428" lon="-20.214105606">
<ele>42.642578</ele>
<time>2012-07-26T19:41:09Z</time>
<speed>5.020000</speed>
<extensions>
<speed>5.0</speed>
<temp>0.00</temp>
<bpm>0</bpm>
<rpm>0.00</rpm>
</extensions>
</trkpt>
<trkpt lat="63.750663757" lon="-20.214561462">
<ele>45.885742</ele>
<time>2012-07-26T19:41:14Z</time>
<speed>5.800000</speed>
<extensions>
<speed>5.8</speed>
<temp>0.00</temp>
<bpm>0</bpm>
<rpm>0.00</rpm>
</extensions>
</trkpt>
<trkpt lat="63.750766754" lon="-20.215089798">
<ele>44.243164</ele>
<time>2012-07-26T19:41:19Z</time>
<speed>5.450000</speed>
<extensions>
<speed>5.5</speed>
<temp>0.00</temp>
<bpm>0</bpm>
<rpm>0.00</rpm>
</extensions>
</trkpt>
<trkpt lat="63.750831604" lon="-20.215578079">
<ele>43.602539</ele>
<time>2012-07-26T19:41:24Z</time>
<speed>4.720000</speed>
<extensions>
<speed>4.7</speed>
<temp>0.00</temp>
<bpm>0</bpm>
<rpm>0.00</rpm>
</extensions>
</trkpt>
<trkpt lat="63.750862122" lon="-20.216020584">
<ele>44.491211</ele>
<time>2012-07-26T19:41:29Z</time>
<speed>4.720000</speed>
<extensions>
<speed>4.7</speed>
<temp>0.00</temp>
<bpm>0</bpm>
<rpm>0.00</rpm>
</extensions>
</trkpt>
<trkpt lat="63.750904083" lon="-20.216522217">
<ele>42.265625</ele>
<time>2012-07-26T19:41:34Z</time>
<speed>5.410000</speed>
<extensions>
<speed>5.4</speed>
<temp>0.00</temp>
<bpm>0</bpm>
<rpm>0.00</rpm>
</extensions>
</trkpt>
<trkpt lat="63.750942230" lon="-20.217130661">
<ele>42.015625</ele>
<time>2012-07-26T19:41:39Z</time>
<speed>6.500000</speed>
<extensions>
<speed>6.5</speed>
<temp>0.00</temp>
<bpm>0</bpm>
<rpm>0.00</rpm>
</extensions>
</trkpt>
<trkpt lat="63.750968933" lon="-20.217760086">
<ele>41.846680</ele>
<time>2012-07-26T19:41:44Z</time>
<speed>5.750000</speed>
<extensions>
<speed>5.8</speed>
<temp>0.00</temp>
<bpm>0</bpm>
<rpm>0.00</rpm>
</extensions>
</trkpt>
<trkpt lat="63.751010895" lon="-20.218255997">
<ele>45.368164</ele>
<time>2012-07-26T19:41:49Z</time>
<speed>4.590000</speed>
<extensions>
<speed>4.6</speed>
<temp>0.00</temp>
<bpm>0</bpm>
<rpm>0.00</rpm>
</extensions>
</trkpt>
<trkpt lat="63.751033783" lon="-20.218727112">
<ele>46.193359</ele>
<time>2012-07-26T19:41:54Z</time>
<speed>4.790000</speed>
<extensions>
<speed>4.8</speed>
<temp>0.00</temp>
<bpm>0</bpm>
<rpm>0.00</rpm>
</extensions>
</trkpt>
<trkpt lat="63.751071930" lon="-20.219234467">
<ele>46.610352</ele>
<time>2012-07-26T19:41:59Z</time>
<speed>5.310000</speed>
<extensions>
<speed>5.3</speed>
<temp>0.00</temp>
<bpm>0</bpm>
<rpm>0.00</rpm>
</extensions>
</trkpt>
<trkpt lat="63.751091003" lon="-20.219799042">
<ele>44.693359</ele>
<time>2012-07-26T19:42:04Z</time>
<speed>5.720000</speed>
<extensions>
<speed>5.7</speed>
<temp>0.00</temp>
<bpm>0</bpm>
<rpm>0.00</rpm>
</extensions>
</trkpt>
<trkpt lat="63.751125336" lon="-20.220371246">
<ele>42.540039</ele>
<time>2012-07-26T19:42:09Z</time>
<speed>5.880000</speed>
<extensions>
<speed>5.9</speed>
<temp>0.00</temp>
<bpm>0</bpm>
<rpm>0.00</rpm>
</extensions>
</trkpt>
<trkpt lat="63.751171112" lon="-20.220964432">
<ele>43.751953</ele>
<time>2012-07-26T19:42:14Z</time>
<speed>5.770000</speed>
<extensions>
<speed>5.8</speed>
<temp>0.00</temp>
<bpm>0</bpm>
<rpm>0.00</rpm>
</extensions>
</trkpt>
<trkpt lat="63.751201630" lon="-20.221492767">
<ele>45.240234</ele>
<time>2012-07-26T19:42:19Z</time>
<speed>5.320000</speed>
<extensions>
<speed>5.3</speed>
<temp>0.00</temp>
<bpm>0</bpm>
<rpm>0.00</rpm>
</extensions>
</trkpt>
<trkpt lat="63.751216888" lon="-20.222038269">
<ele>47.593750</ele>
<time>2012-07-26T19:42:24Z</time>
<speed>5.100000</speed>
<extensions>
<speed>5.1</speed>
<temp>0.00</temp>
<bpm>0</bpm>
<rpm>0.00</rpm>
</extensions>
</trkpt>
<trkpt lat="63.751224518" lon="-20.222515106">
<ele>50.681641</ele>
<time>2012-07-26T19:42:29Z</time>
<speed>3.410000</speed>
<extensions>
<speed>3.4</speed>
<temp>0.00</temp>
<bpm>0</bpm>
<rpm>0.00</rpm>
</extensions>
</trkpt>
<trkpt lat="63.751224518" lon="-20.222579956">
<ele>53.502930</ele>
<time>2012-07-26T19:42:34Z</time>
<speed>0.040000</speed>
<extensions>
<speed>0.0</speed>
<temp>0.00</temp>
<bpm>0</bpm>
<rpm>0.00</rpm>
</extensions>
</trkpt>
<trkpt lat="63.751224518" lon="-20.222711563">
<ele>54.699219</ele>
<time>2012-07-26T19:42:39Z</time>
<speed>2.440000</speed>
<extensions>
<speed>2.4</speed>
<temp>0.00</temp>
<bpm>0</bpm>
<rpm>0.00</rpm>
</extensions>
</trkpt>
<trkpt lat="63.751209259" lon="-20.223085403">
<ele>53.009766</ele>
<time>2012-07-26T19:42:44Z</time>
<speed>4.240000</speed>
<extensions>
<speed>4.2</speed>
<temp>0.00</temp>
<bpm>0</bpm>
<rpm>0.00</rpm>
</extensions>
</trkpt>
<trkpt lat="63.751163483" lon="-20.223514557">
<ele>48.689453</ele>
<time>2012-07-26T19:42:49Z</time>
<speed>4.500000</speed>
<extensions>
<speed>4.5</speed>
<temp>0.00</temp>
<bpm>0</bpm>
<rpm>0.00</rpm>
</extensions>
</trkpt>
<trkpt lat="63.751121521" lon="-20.223949432">
<ele>47.835938</ele>
<time>2012-07-26T19:42:54Z</time>
<speed>4.190000</speed>
<extensions>
<speed>4.2</speed>
<temp>0.00</temp>
<bpm>0</bpm>
<rpm>0.00</rpm>
</extensions>
</trkpt>
<trkpt lat="63.751060486" lon="-20.224321365">
<ele>48.411133</ele>
<time>2012-07-26T19:42:59Z</time>
<speed>3.420000</speed>
<extensions>
<speed>3.4</speed>
<temp>0.00</temp>
<bpm>0</bpm>
<rpm>0.00</rpm>
</extensions>
</trkpt>
<trkpt lat="63.751045227" lon="-20.224578857">
<ele>50.923828</ele>
<time>2012-07-26T19:43:04Z</time>
<speed>2.410000</speed>
<extensions>
<speed>2.4</speed>
<temp>0.00</temp>
<bpm>0</bpm>
<rpm>0.00</rpm>
</extensions>
</trkpt>
<trkpt lat="63.751018524" lon="-20.224664688">
<ele>51.449219</ele>
<time>2012-07-26T19:43:09Z</time>
<speed>0.250000</speed>
<extensions>
<speed>0.2</speed>
<temp>0.00</temp>
<bpm>0</bpm>
<rpm>0.00</rpm>
</extensions>
</trkpt>
<trkpt lat="63.751010895" lon="-20.224668503">
<ele>51.850586</ele>
<time>2012-07-26T19:43:14Z</time>
<speed>0.080000</speed>
<extensions>
<speed>0.1</speed>
<temp>0.00</temp>
<bpm>0</bpm>
<rpm>0.00</rpm>
</extensions>
</trkpt>
<trkpt lat="63.750984192" lon="-20.224687576">
<ele>51.903320</ele>
<time>2012-07-26T19:43:19Z</time>
<speed>2.140000</speed>
<extensions>
<speed>2.1</speed>
<temp>0.00</temp>
<bpm>0</bpm>
<rpm>0.00</rpm>
</extensions>
</trkpt>
<trkpt lat="63.750885010" lon="-20.224874496">
<ele>51.076172</ele>
<time>2012-07-26T19:43:24Z</time>
<speed>3.760000</speed>
<extensions>
<speed>3.8</speed>
<temp>0.00</temp>
<bpm>0</bpm>
<rpm>0.00</rpm>
</extensions>
</trkpt>
<trkpt lat="63.750755310" lon="-20.224916458">
<ele>49.451172</ele>
<time>2012-07-26T19:43:29Z</time>
<speed>3.600000</speed>
<extensions>
<speed>3.6</speed>
<temp>0.00</temp>
<bpm>0</bpm>
<rpm>0.00</rpm>
</extensions>
</trkpt>
<trkpt lat="63.750587463" lon="-20.224992752">
<ele>47.509766</ele>
<time>2012-07-26T19:43:34Z</time>
<speed>4.080000</speed>
<extensions>
<speed>4.1</speed>
<temp>0.00</temp>
<bpm>0</bpm>
<rpm>0.00</rpm>
</extensions>
</trkpt>
<trkpt lat="63.750461578" lon="-20.225238800">
<ele>46.333008</ele>
<time>2012-07-26T19:43:39Z</time>
<speed>3.120000</speed>
<extensions>
<speed>3.1</speed>
<temp>0.00</temp>
<bpm>0</bpm>
<rpm>0.00</rpm>
</extensions>
</trkpt>
<trkpt lat="63.750385284" lon="-20.225294113">
<ele>47.219727</ele>
<time>2012-07-26T19:43:44Z</time>
<speed>0.440000</speed>
<extensions>
<speed>0.4</speed>
<temp>0.00</temp>
<bpm>0</bpm>
<rpm>0.00</rpm>
</extensions>
</trkpt>
<trkpt lat="63.750385284" lon="-20.225296021">
<ele>47.275391</ele>
<time>2012-07-26T19:43:49Z</time>
<speed>0.100000</speed>
<extensions>
<speed>0.1</speed>
<temp>0.00</temp>
<bpm>0</bpm>
<rpm>0.00</rpm>
</extensions>
</trkpt>
<trkpt lat="63.750389099" lon="-20.225322723">
<ele>47.209961</ele>
<time>2012-07-26T19:43:54Z</time>
<speed>0.700000</speed>
<extensions>
<speed>0.7</speed>
<temp>0.00</temp>
<bpm>0</bpm>
<rpm>0.00</rpm>
</extensions>
</trkpt>
<trkpt lat="63.750442505" lon="-20.225265503">
<ele>46.811523</ele>
<time>2012-07-26T19:43:59Z</time>
<speed>2.290000</speed>
<extensions>
<speed>2.3</speed>
<temp>0.00</temp>
<bpm>0</bpm>
<rpm>0.00</rpm>
</extensions>
</trkpt>
<trkpt lat="63.750541687" lon="-20.225017548">
<ele>46.541016</ele>
<time>2012-07-26T19:44:04Z</time>
<speed>2.920000</speed>
<extensions>
<speed>2.9</speed>
<temp>0.00</temp>
<bpm>0</bpm>
<rpm>0.00</rpm>
</extensions>
</trkpt>
<trkpt lat="63.750656128" lon="-20.224822998">
<ele>45.491211</ele>
<time>2012-07-26T19:44:09Z</time>
<speed>3.000000</speed>
<extensions>
<speed>3.0</speed>
<temp>0.00</temp>
<bpm>0</bpm>
<rpm>0.00</rpm>
</extensions>
</trkpt>
<trkpt lat="63.750724792" lon="-20.224817276">
<ele>45.781250</ele>
<time>2012-07-26T19:44:14Z</time>
<speed>0.010000</speed>
<extensions>
<speed>0.0</speed>
<temp>0.00</temp>
<bpm>0</bpm>
<rpm>0.00</rpm>
</extensions>
</trkpt>
<trkpt lat="63.750724792" lon="-20.224807739">
<ele>45.872070</ele>
<time>2012-07-26T19:44:19Z</time>
<extensions>
<speed>0.0</speed>
<temp>0.00</temp>
<bpm>0</bpm>
<rpm>0.00</rpm>
</extensions>
</trkpt>
<trkpt lat="63.750728607" lon="-20.224807739">
<ele>45.827148</ele>
<time>2012-07-26T19:44:24Z</time>
<speed>0.210000</speed>
<extensions>
<speed>0.2</speed>
<temp>0.00</temp>
<bpm>0</bpm>
<rpm>0.00</rpm>
</extensions>
</trkpt>
<trkpt lat="63.750728607" lon="-20.224807739">
<ele>45.996094</ele>
<time>2012-07-26T19:44:29Z</time>
<speed>0.010000</speed>
<extensions>
<speed>0.0</speed>
<temp>0.00</temp>
<bpm>0</bpm>
<rpm>0.00</rpm>
</extensions>
</trkpt>
<trkpt lat="63.750778198" lon="-20.224802017">
<ele>46.143555</ele>
<time>2012-07-26T19:44:34Z</time>
<speed>2.250000</speed>
<extensions>
<speed>2.3</speed>
<temp>0.00</temp>
<bpm>0</bpm>
<rpm>0.00</rpm>
</extensions>
</trkpt>
<trkpt lat="63.750873566" lon="-20.224842072">
<ele>45.634766</ele>
<time>2012-07-26T19:44:39Z</time>
<speed>1.410000</speed>
<extensions>
<speed>1.4</speed>
<temp>0.00</temp>
<bpm>0</bpm>
<rpm>0.00</rpm>
</extensions>
</trkpt>
<trkpt lat="63.750926971" lon="-20.224832535">
<ele>46.198242</ele>
<time>2012-07-26T19:44:44Z</time>
<speed>1.530000</speed>
<extensions>
<speed>1.5</speed>
<temp>0.00</temp>
<bpm>0</bpm>
<rpm>0.00</rpm>
</extensions>
</trkpt>
<trkpt lat="63.750919342" lon="-20.224685669">
<ele>45.676758</ele>
<time>2012-07-26T19:44:49Z</time>
<speed>1.930000</speed>
<extensions>
<speed>1.9</speed>
<temp>0.00</temp>
<bpm>0</bpm>
<rpm>0.00</rpm>
</extensions>
</trkpt>
<trkpt lat="63.750934601" lon="-20.224498749">
<ele>45.565430</ele>
<time>2012-07-26T19:44:54Z</time>
<speed>1.370000</speed>
<extensions>
<speed>1.4</speed>
<temp>0.00</temp>
<bpm>0</bpm>
<rpm>0.00</rpm>
</extensions>
</trkpt>
<trkpt lat="63.750968933" lon="-20.224321365">
<ele>44.898438</ele>
<time>2012-07-26T19:44:59Z</time>
<speed>2.480000</speed>
<extensions>
<speed>2.5</speed>
<temp>0.00</temp>
<bpm>0</bpm>
<rpm>0.00</rpm>
</extensions>
</trkpt>
<trkpt lat="63.750995636" lon="-20.224014282">
<ele>44.303711</ele>
<time>2012-07-26T19:45:04Z</time>
<speed>3.320000</speed>
<extensions>
<speed>3.3</speed>
<temp>0.00</temp>
<bpm>0</bpm>
<rpm>0.00</rpm>
</extensions>
</trkpt>
<trkpt lat="63.751018524" lon="-20.223726273">
<ele>43.314453</ele>
<time>2012-07-26T19:45:09Z</time>
<speed>2.480000</speed>
<extensions>
<speed>2.5</speed>
<temp>0.00</temp>
<bpm>0</bpm>
<rpm>0.00</rpm>
</extensions>
</trkpt>
<trkpt lat="63.751049042" lon="-20.223443985">
<ele>42.360352</ele>
<time>2012-07-26T19:45:14Z</time>
<speed>2.980000</speed>
<extensions>
<speed>3.0</speed>
<temp>0.00</temp>
<bpm>0</bpm>
<rpm>0.00</rpm>
</extensions>
</trkpt>
<trkpt lat="63.751083374" lon="-20.223194122">
<ele>43.196289</ele>
<time>2012-07-26T19:45:19Z</time>
<speed>2.450000</speed>
<extensions>
<speed>2.4</speed>
<temp>0.00</temp>
<bpm>0</bpm>
<rpm>0.00</rpm>
</extensions>
</trkpt>
<trkpt lat="63.751071930" lon="-20.223043442">
<ele>44.824219</ele>
<time>2012-07-26T19:45:24Z</time>
<speed>1.610000</speed>
<extensions>
<speed>1.6</speed>
<temp>0.00</temp>
<bpm>0</bpm>
<rpm>0.00</rpm>
</extensions>
</trkpt>
<trkpt lat="63.751026154" lon="-20.222908020">
<ele>44.549805</ele>
<time>2012-07-26T19:45:29Z</time>
<speed>2.110000</speed>
<extensions>
<speed>2.1</speed>
<temp>0.00</temp>
<bpm>0</bpm>
<rpm>0.00</rpm>
</extensions>
</trkpt>
<trkpt lat="63.751098633" lon="-20.222864151">
<ele>41.983398</ele>
<time>2012-07-26T19:45:34Z</time>
<speed>1.860000</speed>
<extensions>
<speed>1.9</speed>
<temp>0.00</temp>
<bpm>0</bpm>
<rpm>0.00</rpm>
</extensions>
</trkpt>
<trkpt lat="63.751174927" lon="-20.222982407">
<ele>41.086914</ele>
<time>2012-07-26T19:45:39Z</time>
<speed>2.040000</speed>
<extensions>
<speed>2.0</speed>
<temp>0.00</temp>
<bpm>0</bpm>
<rpm>0.00</rpm>
</extensions>
</trkpt>
<trkpt lat="63.751186371" lon="-20.223075867">
<ele>39.756836</ele>
<time>2012-07-26T19:45:44Z</time>
<speed>0.040000</speed>
<extensions>
<speed>0.0</speed>
<temp>0.00</temp>
<bpm>0</bpm>
<rpm>0.00</rpm>
</extensions>
</trkpt>
<trkpt lat="63.751186371" lon="-20.223075867">
<ele>39.808594</ele>
<time>2012-07-26T19:45:49Z</time>
<speed>0.100000</speed>
<extensions>
<speed>0.1</speed>
<temp>0.00</temp>
<bpm>0</bpm>
<rpm>0.00</rpm>
</extensions>
</trkpt>
<trkpt lat="63.751186371" lon="-20.223081589">
<ele>39.689453</ele>
<time>2012-07-26T19:45:54Z</time>
<speed>0.040000</speed>
<extensions>
<speed>0.0</speed>
<temp>0.00</temp>
<bpm>0</bpm>
<rpm>0.00</rpm>
</extensions>
</trkpt>
<trkpt lat="63.751186371" lon="-20.223083496">
<ele>39.712891</ele>
<time>2012-07-26T19:45:59Z</time>
<speed>0.050000</speed>
<extensions>
<speed>0.1</speed>
<temp>0.00</temp>
<bpm>0</bpm>
<rpm>0.00</rpm>
</extensions>
</trkpt>
<trkpt lat="63.751186371" lon="-20.223087311">
<ele>39.741211</ele>
<time>2012-07-26T19:46:04Z</time>
<speed>0.060000</speed>
<extensions>
<speed>0.1</speed>
<temp>0.00</temp>
<bpm>0</bpm>
<rpm>0.00</rpm>
</extensions>
</trkpt>
<trkpt lat="63.751186371" lon="-20.223091125">
<ele>39.743164</ele>
<time>2012-07-26T19:46:09Z</time>
<speed>0.060000</speed>
<extensions>
<speed>0.1</speed>
<temp>0.00</temp>
<bpm>0</bpm>
<rpm>0.00</rpm>
</extensions>
</trkpt>
<trkpt lat="63.751186371" lon="-20.223094940">
<ele>39.754883</ele>
<time>2012-07-26T19:46:14Z</time>
<speed>0.030000</speed>
<extensions>
<speed>0.0</speed>
<temp>0.00</temp>
<bpm>0</bpm>
<rpm>0.00</rpm>
</extensions>
</trkpt>
<trkpt lat="63.751186371" lon="-20.223094940">
<ele>39.766602</ele>
<time>2012-07-26T19:46:19Z</time>
<speed>0.040000</speed>
<extensions>
<speed>0.0</speed>
<temp>0.00</temp>
<bpm>0</bpm>
<rpm>0.00</rpm>
</extensions>
</trkpt>
<trkpt lat="63.751186371" lon="-20.223093033">
<ele>39.802734</ele>
<time>2012-07-26T19:46:24Z</time>
<speed>0.010000</speed>
<extensions>
<speed>0.0</speed>
<temp>0.00</temp>
<bpm>0</bpm>
<rpm>0.00</rpm>
</extensions>
</trkpt>
<trkpt lat="63.751186371" lon="-20.223093033">
<ele>39.829102</ele>
<time>2012-07-26T19:46:29Z</time>
<speed>0.010000</speed>
<extensions>
<speed>0.0</speed>
<temp>0.00</temp>
<bpm>0</bpm>
<rpm>0.00</rpm>
</extensions>
</trkpt>
<trkpt lat="63.751186371" lon="-20.223093033">
<ele>39.838867</ele>
<time>2012-07-26T19:46:34Z</time>
<speed>0.010000</speed>
<extensions>
<speed>0.0</speed>
<temp>0.00</temp>
<bpm>0</bpm>
<rpm>0.00</rpm>
</extensions>
</trkpt>
<trkpt lat="63.751186371" lon="-20.223093033">
<ele>39.841797</ele>
<time>2012-07-26T19:46:39Z</time>
<speed>0.010000</speed>
<extensions>
<speed>0.0</speed>
<temp>0.00</temp>
<bpm>0</bpm>
<rpm>0.00</rpm>
</extensions>
</trkpt>
<trkpt lat="63.751182556" lon="-20.223112106">
<ele>39.835938</ele>
<time>2012-07-26T19:46:44Z</time>
<speed>1.380000</speed>
<extensions>
<speed>1.4</speed>
<temp>0.00</temp>
<bpm>0</bpm>
<rpm>0.00</rpm>
</extensions>
</trkpt>
<trkpt lat="63.751182556" lon="-20.222904205">
<ele>39.977539</ele>
<time>2012-07-26T19:46:49Z</time>
<speed>2.700000</speed>
<extensions>
<speed>2.7</speed>
<temp>0.00</temp>
<bpm>0</bpm>
<rpm>0.00</rpm>
</extensions>
</trkpt>
<trkpt lat="63.751281738" lon="-20.222805023">
<ele>40.934570</ele>
<time>2012-07-26T19:46:54Z</time>
<speed>3.020000</speed>
<extensions>
<speed>3.0</speed>
<temp>0.00</temp>
<bpm>0</bpm>
<rpm>0.00</rpm>
</extensions>
</trkpt>
<trkpt lat="63.751434326" lon="-20.222740173">
<ele>41.466797</ele>
<time>2012-07-26T19:46:59Z</time>
<speed>3.210000</speed>
<extensions>
<speed>3.2</speed>
<temp>0.00</temp>
<bpm>0</bpm>
<rpm>0.00</rpm>
</extensions>
</trkpt>
<trkpt lat="63.751560211" lon="-20.222766876">
<ele>41.583008</ele>
<time>2012-07-26T19:47:04Z</time>
<speed>2.530000</speed>
<extensions>
<speed>2.5</speed>
<temp>0.00</temp>
<bpm>0</bpm>
<rpm>0.00</rpm>
</extensions>
</trkpt>
<trkpt lat="63.751461029" lon="-20.222982407">
<ele>41.058594</ele>
<time>2012-07-26T19:47:09Z</time>
<speed>3.790000</speed>
<extensions>
<speed>3.8</speed>
<temp>0.00</temp>
<bpm>0</bpm>
<rpm>0.00</rpm>
</extensions>
</trkpt>
<trkpt lat="63.751285553" lon="-20.223026276">
<ele>41.092773</ele>
<time>2012-07-26T19:47:14Z</time>
<speed>3.600000</speed>
<extensions>
<speed>3.6</speed>
<temp>0.00</temp>
<bpm>0</bpm>
<rpm>0.00</rpm>
</extensions>
</trkpt>
<trkpt lat="63.751255035" lon="-20.223407745">
<ele>39.663086</ele>
<time>2012-07-26T19:47:19Z</time>
<speed>4.450000</speed>
<extensions>
<speed>4.5</speed>
<temp>0.00</temp>
<bpm>0</bpm>
<rpm>0.00</rpm>
</extensions>
</trkpt>
<trkpt lat="63.751289368" lon="-20.223840714">
<ele>39.018555</ele>
<time>2012-07-26T19:47:24Z</time>
<speed>4.130000</speed>
<extensions>
<speed>4.1</speed>
<temp>0.00</temp>
<bpm>0</bpm>
<rpm>0.00</rpm>
</extensions>
</trkpt>
<trkpt lat="63.751327515" lon="-20.224206924">
<ele>39.263672</ele>
<time>2012-07-26T19:47:29Z</time>
<speed>3.490000</speed>
<extensions>
<speed>3.5</speed>
<temp>0.00</temp>
<bpm>0</bpm>
<rpm>0.00</rpm>
</extensions>
</trkpt>
<trkpt lat="63.751346588" lon="-20.224529266">
<ele>42.958008</ele>
<time>2012-07-26T19:47:34Z</time>
<speed>3.030000</speed>
<extensions>
<speed>3.0</speed>
<temp>0.00</temp>
<bpm>0</bpm>
<rpm>0.00</rpm>
</extensions>
</trkpt>
<trkpt lat="63.751380920" lon="-20.224861145">
<ele>48.566406</ele>
<time>2012-07-26T19:47:39Z</time>
<speed>3.450000</speed>
<extensions>
<speed>3.5</speed>
<temp>0.00</temp>
<bpm>0</bpm>
<rpm>0.00</rpm>
</extensions>
</trkpt>
<trkpt lat="63.751396179" lon="-20.225194931">
<ele>49.151367</ele>
<time>2012-07-26T19:47:44Z</time>
<speed>3.080000</speed>
<extensions>
<speed>3.1</speed>
<temp>0.00</temp>
<bpm>0</bpm>
<rpm>0.00</rpm>
</extensions>
</trkpt>
<trkpt lat="63.751422882" lon="-20.225437164">
<ele>50.384766</ele>
<time>2012-07-26T19:47:49Z</time>
<speed>1.360000</speed>
<extensions>
<speed>1.4</speed>
<temp>0.00</temp>
<bpm>0</bpm>
<rpm>0.00</rpm>
</extensions>
</trkpt>
<trkpt lat="63.751419067" lon="-20.225540161">
<ele>45.703125</ele>
<time>2012-07-26T19:47:54Z</time>
<speed>0.150000</speed>
<extensions>
<speed>0.2</speed>
<temp>0.00</temp>
<bpm>0</bpm>
<rpm>0.00</rpm>
</extensions>
</trkpt>
<trkpt lat="63.751422882" lon="-20.225551605">
<ele>45.301758</ele>
<time>2012-07-26T19:47:59Z</time>
<speed>0.270000</speed>
<extensions>
<speed>0.3</speed>
<temp>0.00</temp>
<bpm>0</bpm>
<rpm>0.00</rpm>
</extensions>
</trkpt>
<trkpt lat="63.751419067" lon="-20.225570679">
<ele>45.371094</ele>
<time>2012-07-26T19:48:04Z</time>
<speed>0.090000</speed>
<extensions>
<speed>0.1</speed>
<temp>0.00</temp>
<bpm>0</bpm>
<rpm>0.00</rpm>
</extensions>
</trkpt>
<trkpt lat="63.751419067" lon="-20.225574493">
<ele>45.417969</ele>
<time>2012-07-26T19:48:09Z</time>
<speed>0.040000</speed>
<extensions>
<speed>0.0</speed>
<temp>0.00</temp>
<bpm>0</bpm>
<rpm>0.00</rpm>
</extensions>
</trkpt>
<trkpt lat="63.751419067" lon="-20.225572586">
<ele>45.399414</ele>
<time>2012-07-26T19:48:14Z</time>
<speed>0.040000</speed>
<extensions>
<speed>0.0</speed>
<temp>0.00</temp>
<bpm>0</bpm>
<rpm>0.00</rpm>
</extensions>
</trkpt>
<trkpt lat="63.751422882" lon="-20.225570679">
<ele>45.375977</ele>
<time>2012-07-26T19:48:19Z</time>
<speed>0.010000</speed>
<extensions>
<speed>0.0</speed>
<temp>0.00</temp>
<bpm>0</bpm>
<rpm>0.00</rpm>
</extensions>
</trkpt>
<trkpt lat="63.751422882" lon="-20.225570679">
<ele>45.323242</ele>
<time>2012-07-26T19:48:24Z</time>
<extensions>
<speed>0.0</speed>
<temp>0.00</temp>
<bpm>0</bpm>
<rpm>0.00</rpm>
</extensions>
</trkpt>
<trkpt lat="63.751422882" lon="-20.225570679">
<ele>45.323242</ele>
<time>2012-07-26T19:48:29Z</time>
<speed>0.040000</speed>
<extensions>
<speed>0.0</speed>
<temp>0.00</temp>
<bpm>0</bpm>
<rpm>0.00</rpm>
</extensions>
</trkpt>
<trkpt lat="63.751422882" lon="-20.225570679">
<ele>45.329102</ele>
<time>2012-07-26T19:48:34Z</time>
<speed>0.010000</speed>
<extensions>
<speed>0.0</speed>
<temp>0.00</temp>
<bpm>0</bpm>
<rpm>0.00</rpm>
</extensions>
</trkpt>
<trkpt lat="63.751422882" lon="-20.225570679">
<ele>45.301758</ele>
<time>2012-07-26T19:48:39Z</time>
<speed>0.010000</speed>
<extensions>
<speed>0.0</speed>
<temp>0.00</temp>
<bpm>0</bpm>
<rpm>0.00</rpm>
</extensions>
</trkpt>
<trkpt lat="63.751422882" lon="-20.225570679">
<ele>45.265625</ele>
<time>2012-07-26T19:48:44Z</time>
<extensions>
<speed>0.0</speed>
<temp>0.00</temp>
<bpm>0</bpm>
<rpm>0.00</rpm>
</extensions>
</trkpt>
<trkpt lat="63.751422882" lon="-20.225570679">
<ele>45.217773</ele>
<time>2012-07-26T19:48:49Z</time>
<speed>0.010000</speed>
<extensions>
<speed>0.0</speed>
<temp>0.00</temp>
<bpm>0</bpm>
<rpm>0.00</rpm>
</extensions>
</trkpt>
<trkpt lat="63.751422882" lon="-20.225568771">
<ele>45.208984</ele>
<time>2012-07-26T19:48:54Z</time>
<speed>0.010000</speed>
<extensions>
<speed>0.0</speed>
<temp>0.00</temp>
<bpm>0</bpm>
<rpm>0.00</rpm>
</extensions>
</trkpt>
<trkpt lat="63.751422882" lon="-20.225568771">
<ele>45.214844</ele>
<time>2012-07-26T19:48:59Z</time>
<extensions>
<speed>0.0</speed>
<temp>0.00</temp>
<bpm>0</bpm>
<rpm>0.00</rpm>
</extensions>
</trkpt>
<trkpt lat="63.751422882" lon="-20.225568771">
<ele>45.220703</ele>
<time>2012-07-26T19:49:04Z</time>
<extensions>
<speed>0.0</speed>
<temp>0.00</temp>
<bpm>0</bpm>
<rpm>0.00</rpm>
</extensions>
</trkpt>
<trkpt lat="63.751422882" lon="-20.225568771">
<ele>45.211914</ele>
<time>2012-07-26T19:49:09Z</time>
<speed>0.020000</speed>
<extensions>
<speed>0.0</speed>
<temp>0.00</temp>
<bpm>0</bpm>
<rpm>0.00</rpm>
</extensions>
</trkpt>
<trkpt lat="63.751422882" lon="-20.225568771">
<ele>45.215820</ele>
<time>2012-07-26T19:49:14Z</time>
<speed>0.010000</speed>
<extensions>
<speed>0.0</speed>
<temp>0.00</temp>
<bpm>0</bpm>
<rpm>0.00</rpm>
</extensions>
</trkpt>
<trkpt lat="63.751422882" lon="-20.225568771">
<ele>45.233398</ele>
<time>2012-07-26T19:49:19Z</time>
<speed>0.010000</speed>
<extensions>
<speed>0.0</speed>
<temp>0.00</temp>
<bpm>0</bpm>
<rpm>0.00</rpm>
</extensions>
</trkpt>
<trkpt lat="63.751422882" lon="-20.225566864">
<ele>45.245117</ele>
<time>2012-07-26T19:49:24Z</time>
<speed>0.010000</speed>
<extensions>
<speed>0.0</speed>
<temp>0.00</temp>
<bpm>0</bpm>
<rpm>0.00</rpm>
</extensions>
</trkpt>
<trkpt lat="63.751422882" lon="-20.225566864">
<ele>45.252930</ele>
<time>2012-07-26T19:49:29Z</time>
<speed>0.010000</speed>
<extensions>
<speed>0.0</speed>
<temp>0.00</temp>
<bpm>0</bpm>
<rpm>0.00</rpm>
</extensions>
</trkpt>
<trkpt lat="63.751422882" lon="-20.225566864">
<ele>45.243164</ele>
<time>2012-07-26T19:49:34Z</time>
<speed>0.010000</speed>
<extensions>
<speed>0.0</speed>
<temp>0.00</temp>
<bpm>0</bpm>
<rpm>0.00</rpm>
</extensions>
</trkpt>
<trkpt lat="63.751422882" lon="-20.225566864">
<ele>45.218750</ele>
<time>2012-07-26T19:49:39Z</time>
<extensions>
<speed>0.0</speed>
<temp>0.00</temp>
<bpm>0</bpm>
<rpm>0.00</rpm>
</extensions>
</trkpt>
<trkpt lat="63.751422882" lon="-20.225566864">
<ele>45.201172</ele>
<time>2012-07-26T19:49:44Z</time>
<extensions>
<speed>0.0</speed>
<temp>0.00</temp>
<bpm>0</bpm>
<rpm>0.00</rpm>
</extensions>
</trkpt>
<trkpt lat="63.751422882" lon="-20.225566864">
<ele>45.185547</ele>
<time>2012-07-26T19:49:49Z</time>
<extensions>
<speed>0.0</speed>
<temp>0.00</temp>
<bpm>0</bpm>
<rpm>0.00</rpm>
</extensions>
</trkpt>
<trkpt lat="63.751422882" lon="-20.225566864">
<ele>45.172852</ele>
<time>2012-07-26T19:49:54Z</time>
<extensions>
<speed>0.0</speed>
<temp>0.00</temp>
<bpm>0</bpm>
<rpm>0.00</rpm>
</extensions>
</trkpt>
<trkpt lat="63.751422882" lon="-20.225566864">
<ele>45.148438</ele>
<time>2012-07-26T19:49:59Z</time>
<extensions>
<speed>0.0</speed>
<temp>0.00</temp>
<bpm>0</bpm>
<rpm>0.00</rpm>
</extensions>
</trkpt>
<trkpt lat="63.751419067" lon="-20.225566864">
<ele>45.144531</ele>
<time>2012-07-26T19:50:04Z</time>
<extensions>
<speed>0.0</speed>
<temp>0.00</temp>
<bpm>0</bpm>
<rpm>0.00</rpm>
</extensions>
</trkpt>
<trkpt lat="63.751419067" lon="-20.225566864">
<ele>45.149414</ele>
<time>2012-07-26T19:50:09Z</time>
<extensions>
<speed>0.0</speed>
<temp>0.00</temp>
<bpm>0</bpm>
<rpm>0.00</rpm>
</extensions>
</trkpt>
<trkpt lat="63.751419067" lon="-20.225564957">
<ele>45.156250</ele>
<time>2012-07-26T19:50:14Z</time>
<speed>0.010000</speed>
<extensions>
<speed>0.0</speed>
<temp>0.00</temp>
<bpm>0</bpm>
<rpm>0.00</rpm>
</extensions>
</trkpt>
<trkpt lat="63.751419067" lon="-20.225564957">
<ele>45.168945</ele>
<time>2012-07-26T19:50:19Z</time>
<extensions>
<speed>0.0</speed>
<temp>0.00</temp>
<bpm>0</bpm>
<rpm>0.00</rpm>
</extensions>
</trkpt>
<trkpt lat="63.751419067" lon="-20.225564957">
<ele>45.173828</ele>
<time>2012-07-26T19:50:24Z</time>
<speed>0.010000</speed>
<extensions>
<speed>0.0</speed>
<temp>0.00</temp>
<bpm>0</bpm>
<rpm>0.00</rpm>
</extensions>
</trkpt>
<trkpt lat="63.751419067" lon="-20.225563049">
<ele>45.192383</ele>
<time>2012-07-26T19:50:29Z</time>
<extensions>
<speed>0.0</speed>
<temp>0.00</temp>
<bpm>0</bpm>
<rpm>0.00</rpm>
</extensions>
</trkpt>
<trkpt lat="63.751419067" lon="-20.225563049">
<ele>45.204102</ele>
<time>2012-07-26T19:50:34Z</time>
<speed>0.010000</speed>
<extensions>
<speed>0.0</speed>
<temp>0.00</temp>
<bpm>0</bpm>
<rpm>0.00</rpm>
</extensions>
</trkpt>
<trkpt lat="63.751419067" lon="-20.225563049">
<ele>45.210938</ele>
<time>2012-07-26T19:50:39Z</time>
<extensions>
<speed>0.0</speed>
<temp>0.00</temp>
<bpm>0</bpm>
<rpm>0.00</rpm>
</extensions>
</trkpt>
<trkpt lat="63.751419067" lon="-20.225563049">
<ele>45.208008</ele>
<time>2012-07-26T19:50:44Z</time>
<speed>0.010000</speed>
<extensions>
<speed>0.0</speed>
<temp>0.00</temp>
<bpm>0</bpm>
<rpm>0.00</rpm>
</extensions>
</trkpt>
<trkpt lat="63.751419067" lon="-20.225563049">
<ele>45.203125</ele>
<time>2012-07-26T19:50:49Z</time>
<extensions>
<speed>0.0</speed>
<temp>0.00</temp>
<bpm>0</bpm>
<rpm>0.00</rpm>
</extensions>
</trkpt>
<trkpt lat="63.751419067" lon="-20.225563049">
<ele>45.210938</ele>
<time>2012-07-26T19:50:54Z</time>
<speed>0.010000</speed>
<extensions>
<speed>0.0</speed>
<temp>0.00</temp>
<bpm>0</bpm>
<rpm>0.00</rpm>
</extensions>
</trkpt>
<trkpt lat="63.751419067" lon="-20.225561142">
<ele>45.203125</ele>
<time>2012-07-26T19:50:59Z</time>
<extensions>
<speed>0.0</speed>
<temp>0.00</temp>
<bpm>0</bpm>
<rpm>0.00</rpm>
</extensions>
</trkpt>
<trkpt lat="63.751419067" lon="-20.225561142">
<ele>45.201172</ele>
<time>2012-07-26T19:51:04Z</time>
<extensions>
<speed>0.0</speed>
<temp>0.00</temp>
<bpm>0</bpm>
<rpm>0.00</rpm>
</extensions>
</trkpt>
<trkpt lat="63.751419067" lon="-20.225561142">
<ele>45.183594</ele>
<time>2012-07-26T19:51:09Z</time>
<speed>0.010000</speed>
<extensions>
<speed>0.0</speed>
<temp>0.00</temp>
<bpm>0</bpm>
<rpm>0.00</rpm>
</extensions>
</trkpt>
<trkpt lat="63.751419067" lon="-20.225561142">
<ele>45.166992</ele>
<time>2012-07-26T19:51:14Z</time>
<extensions>
<speed>0.0</speed>
<temp>0.00</temp>
<bpm>0</bpm>
<rpm>0.00</rpm>
</extensions>
</trkpt>
<trkpt lat="63.751419067" lon="-20.225561142">
<ele>45.154297</ele>
<time>2012-07-26T19:51:19Z</time>
<extensions>
<speed>0.0</speed>
<temp>0.00</temp>
<bpm>0</bpm>
<rpm>0.00</rpm>
</extensions>
</trkpt>
<trkpt lat="63.751419067" lon="-20.225561142">
<ele>45.145508</ele>
<time>2012-07-26T19:51:24Z</time>
<extensions>
<speed>0.0</speed>
<temp>0.00</temp>
<bpm>0</bpm>
<rpm>0.00</rpm>
</extensions>
</trkpt>
<trkpt lat="63.751419067" lon="-20.225561142">
<ele>45.136719</ele>
<time>2012-07-26T19:51:29Z</time>
<extensions>
<speed>0.0</speed>
<temp>0.00</temp>
<bpm>0</bpm>
<rpm>0.00</rpm>
</extensions>
</trkpt>
<trkpt lat="63.751419067" lon="-20.225559235">
<ele>45.125000</ele>
<time>2012-07-26T19:51:34Z</time>
<extensions>
<speed>0.0</speed>
<temp>0.00</temp>
<bpm>0</bpm>
<rpm>0.00</rpm>
</extensions>
</trkpt>
<trkpt lat="63.751422882" lon="-20.225559235">
<ele>45.120117</ele>
<time>2012-07-26T19:51:39Z</time>
<speed>0.070000</speed>
<extensions>
<speed>0.1</speed>
<temp>0.00</temp>
<bpm>0</bpm>
<rpm>0.00</rpm>
</extensions>
</trkpt>
<trkpt lat="63.751422882" lon="-20.225538254">
<ele>45.286133</ele>
<time>2012-07-26T19:51:44Z</time>
<extensions>
<speed>0.0</speed>
<temp>0.00</temp>
<bpm>0</bpm>
<rpm>0.00</rpm>
</extensions>
</trkpt>
<trkpt lat="63.751422882" lon="-20.225536346">
<ele>45.262695</ele>
<time>2012-07-26T19:51:49Z</time>
<extensions>
<speed>0.0</speed>
<temp>0.00</temp>
<bpm>0</bpm>
<rpm>0.00</rpm>
</extensions>
</trkpt>
<trkpt lat="63.751422882" lon="-20.225536346">
<ele>45.264648</ele>
<time>2012-07-26T19:51:54Z</time>
<speed>0.010000</speed>
<extensions>
<speed>0.0</speed>
<temp>0.00</temp>
<bpm>0</bpm>
<rpm>0.00</rpm>
</extensions>
</trkpt>
<trkpt lat="63.751426697" lon="-20.225536346">
<ele>45.260742</ele>
<time>2012-07-26T19:51:59Z</time>
<extensions>
<speed>0.0</speed>
<temp>0.00</temp>
<bpm>0</bpm>
<rpm>0.00</rpm>
</extensions>
</trkpt>
<trkpt lat="63.751426697" lon="-20.225536346">
<ele>45.252930</ele>
<time>2012-07-26T19:52:04Z</time>
<extensions>
<speed>0.0</speed>
<temp>0.00</temp>
<bpm>0</bpm>
<rpm>0.00</rpm>
</extensions>
</trkpt>
<trkpt lat="63.751426697" lon="-20.225534439">
<ele>45.251953</ele>
<time>2012-07-26T19:52:09Z</time>
<extensions>
<speed>0.0</speed>
<temp>0.00</temp>
<bpm>0</bpm>
<rpm>0.00</rpm>
</extensions>
</trkpt>
<trkpt lat="63.751426697" lon="-20.225534439">
<ele>45.250977</ele>
<time>2012-07-26T19:52:14Z</time>
<extensions>
<speed>0.0</speed>
<temp>0.00</temp>
<bpm>0</bpm>
<rpm>0.00</rpm>
</extensions>
</trkpt>
<trkpt lat="63.751426697" lon="-20.225534439">
<ele>45.258789</ele>
<time>2012-07-26T19:52:19Z</time>
<speed>0.020000</speed>
<extensions>
<speed>0.0</speed>
<temp>0.00</temp>
<bpm>0</bpm>
<rpm>0.00</rpm>
</extensions>
</trkpt>
<trkpt lat="63.751426697" lon="-20.225534439">
<ele>45.260742</ele>
<time>2012-07-26T19:52:24Z</time>
<extensions>
<speed>0.0</speed>
<temp>0.00</temp>
<bpm>0</bpm>
<rpm>0.00</rpm>
</extensions>
</trkpt>
<trkpt lat="63.751426697" lon="-20.225532532">
<ele>45.267578</ele>
<time>2012-07-26T19:52:29Z</time>
<extensions>
<speed>0.0</speed>
<temp>0.00</temp>
<bpm>0</bpm>
<rpm>0.00</rpm>
</extensions>
</trkpt>
<trkpt lat="63.751426697" lon="-20.225532532">
<ele>45.273438</ele>
<time>2012-07-26T19:52:34Z</time>
<extensions>
<speed>0.0</speed>
<temp>0.00</temp>
<bpm>0</bpm>
<rpm>0.00</rpm>
</extensions>
</trkpt>
<trkpt lat="63.751426697" lon="-20.225532532">
<ele>45.281250</ele>
<time>2012-07-26T19:52:39Z</time>
<speed>0.010000</speed>
<extensions>
<speed>0.0</speed>
<temp>0.00</temp>
<bpm>0</bpm>
<rpm>0.00</rpm>
</extensions>
</trkpt>
<trkpt lat="63.751426697" lon="-20.225532532">
<ele>45.283203</ele>
<time>2012-07-26T19:52:44Z</time>
<extensions>
<speed>0.0</speed>
<temp>0.00</temp>
<bpm>0</bpm>
<rpm>0.00</rpm>
</extensions>
</trkpt>
<trkpt lat="63.751426697" lon="-20.225532532">
<ele>45.283203</ele>
<time>2012-07-26T19:52:49Z</time>
<extensions>
<speed>0.0</speed>
<temp>0.00</temp>
<bpm>0</bpm>
<rpm>0.00</rpm>
</extensions>
</trkpt>
<trkpt lat="63.751434326" lon="-20.225631714">
<ele>45.410156</ele>
<time>2012-07-26T19:52:54Z</time>
<speed>2.710000</speed>
<extensions>
<speed>2.7</speed>
<temp>0.00</temp>
<bpm>0</bpm>
<rpm>0.00</rpm>
</extensions>
</trkpt>
<trkpt lat="63.751472473" lon="-20.226026535">
<ele>45.857422</ele>
<time>2012-07-26T19:52:59Z</time>
<speed>3.800000</speed>
<extensions>
<speed>3.8</speed>
<temp>0.00</temp>
<bpm>0</bpm>
<rpm>0.00</rpm>
</extensions>
</trkpt>
<trkpt lat="63.751510620" lon="-20.226451874">
<ele>47.554688</ele>
<time>2012-07-26T19:53:04Z</time>
<speed>4.590000</speed>
<extensions>
<speed>4.6</speed>
<temp>0.00</temp>
<bpm>0</bpm>
<rpm>0.00</rpm>
</extensions>
</trkpt>
<trkpt lat="63.751556396" lon="-20.226972580">
<ele>51.775391</ele>
<time>2012-07-26T19:53:09Z</time>
<speed>4.760000</speed>
<extensions>
<speed>4.8</speed>
<temp>0.00</temp>
<bpm>0</bpm>
<rpm>0.00</rpm>
</extensions>
</trkpt>
<trkpt lat="63.751598358" lon="-20.227437973">
<ele>58.380859</ele>
<time>2012-07-26T19:53:14Z</time>
<speed>4.310000</speed>
<extensions>
<speed>4.3</speed>
<temp>0.00</temp>
<bpm>0</bpm>
<rpm>0.00</rpm>
</extensions>
</trkpt>
<trkpt lat="63.751628876" lon="-20.227968216">
<ele>63.368164</ele>
<time>2012-07-26T19:53:19Z</time>
<speed>6.140000</speed>
<extensions>
<speed>6.1</speed>
<temp>0.00</temp>
<bpm>0</bpm>
<rpm>0.00</rpm>
</extensions>
</trkpt>
<trkpt lat="63.751682281" lon="-20.228544235">
<ele>67.851563</ele>
<time>2012-07-26T19:53:24Z</time>
<speed>5.090000</speed>
<extensions>
<speed>5.1</speed>
<temp>0.00</temp>
<bpm>0</bpm>
<rpm>0.00</rpm>
</extensions>
</trkpt>
<trkpt lat="63.751720428" lon="-20.229057312">
<ele>69.837891</ele>
<time>2012-07-26T19:53:29Z</time>
<speed>5.510000</speed>
<extensions>
<speed>5.5</speed>
<temp>0.00</temp>
<bpm>0</bpm>
<rpm>0.00</rpm>
</extensions>
</trkpt>
<trkpt lat="63.751750946" lon="-20.229604721">
<ele>74.775391</ele>
<time>2012-07-26T19:53:34Z</time>
<speed>4.910000</speed>
<extensions>
<speed>4.9</speed>
<temp>0.00</temp>
<bpm>0</bpm>
<rpm>0.00</rpm>
</extensions>
</trkpt>
<trkpt lat="63.751789093" lon="-20.230104446">
<ele>78.607422</ele>
<time>2012-07-26T19:53:39Z</time>
<speed>5.450000</speed>
<extensions>
<speed>5.5</speed>
<temp>0.00</temp>
<bpm>0</bpm>
<rpm>0.00</rpm>
</extensions>
</trkpt>
<trkpt lat="63.751834869" lon="-20.230686188">
<ele>81.712891</ele>
<time>2012-07-26T19:53:44Z</time>
<speed>5.070000</speed>
<extensions>
<speed>5.1</speed>
<temp>0.00</temp>
<bpm>0</bpm>
<rpm>0.00</rpm>
</extensions>
</trkpt>
<trkpt lat="63.751861572" lon="-20.231231689">
<ele>81.154297</ele>
<time>2012-07-26T19:53:49Z</time>
<speed>6.100000</speed>
<extensions>
<speed>6.1</speed>
<temp>0.00</temp>
<bpm>0</bpm>
<rpm>0.00</rpm>
</extensions>
</trkpt>
<trkpt lat="63.751884460" lon="-20.231756210">
<ele>78.312500</ele>
<time>2012-07-26T19:53:54Z</time>
<speed>3.760000</speed>
<extensions>
<speed>3.8</speed>
<temp>0.00</temp>
<bpm>0</bpm>
<rpm>0.00</rpm>
</extensions>
</trkpt>
<trkpt lat="63.751911163" lon="-20.232139587">
<ele>75.173828</ele>
<time>2012-07-26T19:53:59Z</time>
<speed>3.690000</speed>
<extensions>
<speed>3.7</speed>
<temp>0.00</temp>
<bpm>0</bpm>
<rpm>0.00</rpm>
</extensions>
</trkpt>
<trkpt lat="63.751937866" lon="-20.232511520">
<ele>78.048828</ele>
<time>2012-07-26T19:54:04Z</time>
<speed>4.250000</speed>
<extensions>
<speed>4.3</speed>
<temp>0.00</temp>
<bpm>0</bpm>
<rpm>0.00</rpm>
</extensions>
</trkpt>
<trkpt lat="63.751953125" lon="-20.232999802">
<ele>73.214844</ele>
<time>2012-07-26T19:54:09Z</time>
<speed>5.960000</speed>
<extensions>
<speed>6.0</speed>
<temp>0.00</temp>
<bpm>0</bpm>
<rpm>0.00</rpm>
</extensions>
</trkpt>
<trkpt lat="63.751926422" lon="-20.233539581">
<ele>65.460938</ele>
<time>2012-07-26T19:54:14Z</time>
<speed>4.580000</speed>
<extensions>
<speed>4.6</speed>
<temp>0.00</temp>
<bpm>0</bpm>
<rpm>0.00</rpm>
</extensions>
</trkpt>
<trkpt lat="63.751815796" lon="-20.234062195">
<ele>56.638672</ele>
<time>2012-07-26T19:54:19Z</time>
<speed>5.490000</speed>
<extensions>
<speed>5.5</speed>
<temp>0.00</temp>
<bpm>0</bpm>
<rpm>0.00</rpm>
</extensions>
</trkpt>
<trkpt lat="63.751670837" lon="-20.234508514">
<ele>47.680664</ele>
<time>2012-07-26T19:54:24Z</time>
<speed>4.900000</speed>
<extensions>
<speed>4.9</speed>
<temp>0.00</temp>
<bpm>0</bpm>
<rpm>0.00</rpm>
</extensions>
</trkpt>
<trkpt lat="63.751522064" lon="-20.234916687">
<ele>40.478516</ele>
<time>2012-07-26T19:54:29Z</time>
<speed>4.750000</speed>
<extensions>
<speed>4.8</speed>
<temp>0.00</temp>
<bpm>0</bpm>
<rpm>0.00</rpm>
</extensions>
</trkpt>
<trkpt lat="63.751438141" lon="-20.235260010">
<ele>39.277344</ele>
<time>2012-07-26T19:54:34Z</time>
<speed>3.110000</speed>
<extensions>
<speed>3.1</speed>
<temp>0.00</temp>
<bpm>0</bpm>
<rpm>0.00</rpm>
</extensions>
</trkpt>
<trkpt lat="63.751346588" lon="-20.235452652">
<ele>37.414063</ele>
<time>2012-07-26T19:54:39Z</time>
<speed>3.010000</speed>
<extensions>
<speed>3.0</speed>
<temp>0.00</temp>
<bpm>0</bpm>
<rpm>0.00</rpm>
</extensions>
</trkpt>
<trkpt lat="63.751258850" lon="-20.235544205">
<ele>36.388672</ele>
<time>2012-07-26T19:54:44Z</time>
<speed>1.010000</speed>
<extensions>
<speed>1.0</speed>
<temp>0.00</temp>
<bpm>0</bpm>
<rpm>0.00</rpm>
</extensions>
</trkpt>
<trkpt lat="63.751220703" lon="-20.235481262">
<ele>35.158203</ele>
<time>2012-07-26T19:54:49Z</time>
<speed>2.760000</speed>
<extensions>
<speed>2.8</speed>
<temp>0.00</temp>
<bpm>0</bpm>
<rpm>0.00</rpm>
</extensions>
</trkpt>
<trkpt lat="63.751087189" lon="-20.235225677">
<ele>36.774414</ele>
<time>2012-07-26T19:54:54Z</time>
<speed>3.750000</speed>
<extensions>
<speed>3.8</speed>
<temp>0.00</temp>
<bpm>0</bpm>
<rpm>0.00</rpm>
</extensions>
</trkpt>
<trkpt lat="63.750938416" lon="-20.235008240">
<ele>34.942383</ele>
<time>2012-07-26T19:54:59Z</time>
<speed>3.630000</speed>
<extensions>
<speed>3.6</speed>
<temp>0.00</temp>
<bpm>0</bpm>
<rpm>0.00</rpm>
</extensions>
</trkpt>
<trkpt lat="63.750804901" lon="-20.234807968">
<ele>34.312500</ele>
<time>2012-07-26T19:55:04Z</time>
<speed>3.020000</speed>
<extensions>
<speed>3.0</speed>
<temp>0.00</temp>
<bpm>0</bpm>
<rpm>0.00</rpm>
</extensions>
</trkpt>
<trkpt lat="63.750717163" lon="-20.234642029">
<ele>35.945313</ele>
<time>2012-07-26T19:55:09Z</time>
<speed>2.920000</speed>
<extensions>
<speed>2.9</speed>
<temp>0.00</temp>
<bpm>0</bpm>
<rpm>0.00</rpm>
</extensions>
</trkpt>
<trkpt lat="63.750579834" lon="-20.234460831">
<ele>33.965820</ele>
<time>2012-07-26T19:55:14Z</time>
<speed>3.320000</speed>
<extensions>
<speed>3.3</speed>
<temp>0.00</temp>
<bpm>0</bpm>
<rpm>0.00</rpm>
</extensions>
</trkpt>
<trkpt lat="63.750476837" lon="-20.234283447">
<ele>35.327148</ele>
<time>2012-07-26T19:55:19Z</time>
<speed>3.030000</speed>
<extensions>
<speed>3.0</speed>
<temp>0.00</temp>
<bpm>0</bpm>
<rpm>0.00</rpm>
</extensions>
</trkpt>
<trkpt lat="63.750373840" lon="-20.234138489">
<ele>39.017578</ele>
<time>2012-07-26T19:55:24Z</time>
<speed>2.680000</speed>
<extensions>
<speed>2.7</speed>
<temp>0.00</temp>
<bpm>0</bpm>
<rpm>0.00</rpm>
</extensions>
</trkpt>
<trkpt lat="63.750274658" lon="-20.233997345">
<ele>39.971680</ele>
<time>2012-07-26T19:55:29Z</time>
<speed>2.340000</speed>
<extensions>
<speed>2.3</speed>
<temp>0.00</temp>
<bpm>0</bpm>
<rpm>0.00</rpm>
</extensions>
</trkpt>
<trkpt lat="63.750171661" lon="-20.233877182">
<ele>38.275391</ele>
<time>2012-07-26T19:55:34Z</time>
<speed>2.210000</speed>
<extensions>
<speed>2.2</speed>
<temp>0.00</temp>
<bpm>0</bpm>
<rpm>0.00</rpm>
</extensions>
</trkpt>
<trkpt lat="63.750072479" lon="-20.233699799">
<ele>35.924805</ele>
<time>2012-07-26T19:55:39Z</time>
<speed>3.490000</speed>
<extensions>
<speed>3.5</speed>
<temp>0.00</temp>
<bpm>0</bpm>
<rpm>0.00</rpm>
</extensions>
</trkpt>
<trkpt lat="63.749946594" lon="-20.233522415">
<ele>36.200195</ele>
<time>2012-07-26T19:55:44Z</time>
<speed>3.170000</speed>
<extensions>
<speed>3.2</speed>
<temp>0.00</temp>
<bpm>0</bpm>
<rpm>0.00</rpm>
</extensions>
</trkpt>
<trkpt lat="63.749820709" lon="-20.233339310">
<ele>35.837891</ele>
<time>2012-07-26T19:55:49Z</time>
<speed>3.240000</speed>
<extensions>
<speed>3.2</speed>
<temp>0.00</temp>
<bpm>0</bpm>
<rpm>0.00</rpm>
</extensions>
</trkpt>
<trkpt lat="63.749725342" lon="-20.233215332">
<ele>39.158203</ele>
<time>2012-07-26T19:55:54Z</time>
<speed>1.730000</speed>
<extensions>
<speed>1.7</speed>
<temp>0.00</temp>
<bpm>0</bpm>
<rpm>0.00</rpm>
</extensions>
</trkpt>
<trkpt lat="63.749664307" lon="-20.233091354">
<ele>43.296875</ele>
<time>2012-07-26T19:55:59Z</time>
<speed>1.520000</speed>
<extensions>
<speed>1.5</speed>
<temp>0.00</temp>
<bpm>0</bpm>
<rpm>0.00</rpm>
</extensions>
</trkpt>
<trkpt lat="63.749584198" lon="-20.232986450">
<ele>42.618164</ele>
<time>2012-07-26T19:56:04Z</time>
<speed>2.310000</speed>
<extensions>
<speed>2.3</speed>
<temp>0.00</temp>
<bpm>0</bpm>
<rpm>0.00</rpm>
</extensions>
</trkpt>
<trkpt lat="63.749492645" lon="-20.232835770">
<ele>41.119141</ele>
<time>2012-07-26T19:56:09Z</time>
<speed>2.850000</speed>
<extensions>
<speed>2.9</speed>
<temp>0.00</temp>
<bpm>0</bpm>
<rpm>0.00</rpm>
</extensions>
</trkpt>
<trkpt lat="63.749397278" lon="-20.232677460">
<ele>42.360352</ele>
<time>2012-07-26T19:56:14Z</time>
<speed>2.210000</speed>
<extensions>
<speed>2.2</speed>
<temp>0.00</temp>
<bpm>0</bpm>
<rpm>0.00</rpm>
</extensions>
</trkpt>
<trkpt lat="63.749336243" lon="-20.232477188">
<ele>45.051758</ele>
<time>2012-07-26T19:56:19Z</time>
<speed>2.460000</speed>
<extensions>
<speed>2.5</speed>
<temp>0.00</temp>
<bpm>0</bpm>
<rpm>0.00</rpm>
</extensions>
</trkpt>
<trkpt lat="63.749473572" lon="-20.232505798">
<ele>46.574219</ele>
<time>2012-07-26T19:56:24Z</time>
<speed>3.410000</speed>
<extensions>
<speed>3.4</speed>
<temp>0.00</temp>
<bpm>0</bpm>
<rpm>0.00</rpm>
</extensions>
</trkpt>
<trkpt lat="63.749618530" lon="-20.232648849">
<ele>41.801758</ele>
<time>2012-07-26T19:56:29Z</time>
<speed>4.290000</speed>
<extensions>
<speed>4.3</speed>
<temp>0.00</temp>
<bpm>0</bpm>
<rpm>0.00</rpm>
</extensions>
</trkpt>
<trkpt lat="63.749786377" lon="-20.232862473">
<ele>39.819336</ele>
<time>2012-07-26T19:56:34Z</time>
<speed>4.770000</speed>
<extensions>
<speed>4.8</speed>
<temp>0.00</temp>
<bpm>0</bpm>
<rpm>0.00</rpm>
</extensions>
</trkpt>
<trkpt lat="63.749935150" lon="-20.233104706">
<ele>39.764648</ele>
<time>2012-07-26T19:56:39Z</time>
<speed>3.680000</speed>
<extensions>
<speed>3.7</speed>
<temp>0.00</temp>
<bpm>0</bpm>
<rpm>0.00</rpm>
</extensions>
</trkpt>
<trkpt lat="63.750038147" lon="-20.233125687">
<ele>38.867188</ele>
<time>2012-07-26T19:56:44Z</time>
<speed>1.480000</speed>
<extensions>
<speed>1.5</speed>
<temp>0.00</temp>
<bpm>0</bpm>
<rpm>0.00</rpm>
</extensions>
</trkpt>
<trkpt lat="63.750167847" lon="-20.233087540">
<ele>37.541992</ele>
<time>2012-07-26T19:56:49Z</time>
<speed>3.490000</speed>
<extensions>
<speed>3.5</speed>
<temp>0.00</temp>
<bpm>0</bpm>
<rpm>0.00</rpm>
</extensions>
</trkpt>
<trkpt lat="63.750289917" lon="-20.233100891">
<ele>37.213867</ele>
<time>2012-07-26T19:56:54Z</time>
<speed>2.820000</speed>
<extensions>
<speed>2.8</speed>
<temp>0.00</temp>
<bpm>0</bpm>
<rpm>0.00</rpm>
</extensions>
</trkpt>
<trkpt lat="63.750411987" lon="-20.233280182">
<ele>37.982422</ele>
<time>2012-07-26T19:56:59Z</time>
<speed>2.740000</speed>
<extensions>
<speed>2.7</speed>
<temp>0.00</temp>
<bpm>0</bpm>
<rpm>0.00</rpm>
</extensions>
</trkpt>
<trkpt lat="63.750507355" lon="-20.233234406">
<ele>37.907227</ele>
<time>2012-07-26T19:57:04Z</time>
<speed>2.180000</speed>
<extensions>
<speed>2.2</speed>
<temp>0.00</temp>
<bpm>0</bpm>
<rpm>0.00</rpm>
</extensions>
</trkpt>
<trkpt lat="63.750587463" lon="-20.233118057">
<ele>38.819336</ele>
<time>2012-07-26T19:57:09Z</time>
<speed>1.740000</speed>
<extensions>
<speed>1.7</speed>
<temp>0.00</temp>
<bpm>0</bpm>
<rpm>0.00</rpm>
</extensions>
</trkpt>
<trkpt lat="63.750621796" lon="-20.233001709">
<ele>39.363281</ele>
<time>2012-07-26T19:57:14Z</time>
<speed>1.240000</speed>
<extensions>
<speed>1.2</speed>
<temp>0.00</temp>
<bpm>0</bpm>
<rpm>0.00</rpm>
</extensions>
</trkpt>
<trkpt lat="63.750579834" lon="-20.232990265">
<ele>38.198242</ele>
<time>2012-07-26T19:57:19Z</time>
<speed>1.470000</speed>
<extensions>
<speed>1.5</speed>
<temp>0.00</temp>
<bpm>0</bpm>
<rpm>0.00</rpm>
</extensions>
</trkpt>
<trkpt lat="63.750534058" lon="-20.233125687">
<ele>36.688477</ele>
<time>2012-07-26T19:57:24Z</time>
<speed>1.120000</speed>
<extensions>
<speed>1.1</speed>
<temp>0.00</temp>
<bpm>0</bpm>
<rpm>0.00</rpm>
</extensions>
</trkpt>
<trkpt lat="63.750553131" lon="-20.233127594">
<ele>36.901367</ele>
<time>2012-07-26T19:57:29Z</time>
<speed>0.010000</speed>
<extensions>
<speed>0.0</speed>
<temp>0.00</temp>
<bpm>0</bpm>
<rpm>0.00</rpm>
</extensions>
</trkpt>
<trkpt lat="63.750553131" lon="-20.233129501">
<ele>36.701172</ele>
<time>2012-07-26T19:57:34Z</time>
<speed>0.040000</speed>
<extensions>
<speed>0.0</speed>
<temp>0.00</temp>
<bpm>0</bpm>
<rpm>0.00</rpm>
</extensions>
</trkpt>
<trkpt lat="63.750556946" lon="-20.233110428">
<ele>36.880859</ele>
<time>2012-07-26T19:57:39Z</time>
<speed>0.970000</speed>
<extensions>
<speed>1.0</speed>
<temp>0.00</temp>
<bpm>0</bpm>
<rpm>0.00</rpm>
</extensions>
</trkpt>
<trkpt lat="63.750553131" lon="-20.232995987">
<ele>36.321289</ele>
<time>2012-07-26T19:57:44Z</time>
<speed>1.290000</speed>
<extensions>
<speed>1.3</speed>
<temp>0.00</temp>
<bpm>0</bpm>
<rpm>0.00</rpm>
</extensions>
</trkpt>
<trkpt lat="63.750503540" lon="-20.232896805">
<ele>37.718750</ele>
<time>2012-07-26T19:57:49Z</time>
<speed>1.350000</speed>
<extensions>
<speed>1.4</speed>
<temp>0.00</temp>
<bpm>0</bpm>
<rpm>0.00</rpm>
</extensions>
</trkpt>
<trkpt lat="63.750450134" lon="-20.232831955">
<ele>36.789063</ele>
<time>2012-07-26T19:57:54Z</time>
<speed>0.380000</speed>
<extensions>
<speed>0.4</speed>
<temp>0.00</temp>
<bpm>0</bpm>
<rpm>0.00</rpm>
</extensions>
</trkpt>
<trkpt lat="63.750453949" lon="-20.232831955">
<ele>36.597656</ele>
<time>2012-07-26T19:57:59Z</time>
<speed>0.060000</speed>
<extensions>
<speed>0.1</speed>
<temp>0.00</temp>
<bpm>0</bpm>
<rpm>0.00</rpm>
</extensions>
</trkpt>
<trkpt lat="63.750457764" lon="-20.232833862">
<ele>36.538086</ele>
<time>2012-07-26T19:58:04Z</time>
<speed>0.070000</speed>
<extensions>
<speed>0.1</speed>
<temp>0.00</temp>
<bpm>0</bpm>
<rpm>0.00</rpm>
</extensions>
</trkpt>
<trkpt lat="63.750453949" lon="-20.232833862">
<ele>36.166992</ele>
<time>2012-07-26T19:58:09Z</time>
<speed>0.220000</speed>
<extensions>
<speed>0.2</speed>
<temp>0.00</temp>
<bpm>0</bpm>
<rpm>0.00</rpm>
</extensions>
</trkpt>
<trkpt lat="63.750453949" lon="-20.232828140">
<ele>35.757813</ele>
<time>2012-07-26T19:58:14Z</time>
<extensions>
<speed>0.0</speed>
<temp>0.00</temp>
<bpm>0</bpm>
<rpm>0.00</rpm>
</extensions>
</trkpt>
<trkpt lat="63.750453949" lon="-20.232828140">
<ele>35.709961</ele>
<time>2012-07-26T19:58:19Z</time>
<speed>0.010000</speed>
<extensions>
<speed>0.0</speed>
<temp>0.00</temp>
<bpm>0</bpm>
<rpm>0.00</rpm>
</extensions>
</trkpt>
<trkpt lat="63.750453949" lon="-20.232828140">
<ele>35.661133</ele>
<time>2012-07-26T19:58:24Z</time>
<speed>0.100000</speed>
<extensions>
<speed>0.1</speed>
<temp>0.00</temp>
<bpm>0</bpm>
<rpm>0.00</rpm>
</extensions>
</trkpt>
<trkpt lat="63.750461578" lon="-20.232799530">
<ele>35.729492</ele>
<time>2012-07-26T19:58:29Z</time>
<speed>0.290000</speed>
<extensions>
<speed>0.3</speed>
<temp>0.00</temp>
<bpm>0</bpm>
<rpm>0.00</rpm>
</extensions>
</trkpt>
<trkpt lat="63.750541687" lon="-20.232784271">
<ele>35.211914</ele>
<time>2012-07-26T19:58:34Z</time>
<speed>3.290000</speed>
<extensions>
<speed>3.3</speed>
<temp>0.00</temp>
<bpm>0</bpm>
<rpm>0.00</rpm>
</extensions>
</trkpt>
<trkpt lat="63.750663757" lon="-20.232835770">
<ele>35.075195</ele>
<time>2012-07-26T19:58:39Z</time>
<speed>3.000000</speed>
<extensions>
<speed>3.0</speed>
<temp>0.00</temp>
<bpm>0</bpm>
<rpm>0.00</rpm>
</extensions>
</trkpt>
<trkpt lat="63.750831604" lon="-20.232864380">
<ele>36.857422</ele>
<time>2012-07-26T19:58:44Z</time>
<speed>2.940000</speed>
<extensions>
<speed>2.9</speed>
<temp>0.00</temp>
<bpm>0</bpm>
<rpm>0.00</rpm>
</extensions>
</trkpt>
<trkpt lat="63.750957489" lon="-20.232826233">
<ele>37.687500</ele>
<time>2012-07-26T19:58:49Z</time>
<speed>2.700000</speed>
<extensions>
<speed>2.7</speed>
<temp>0.00</temp>
<bpm>0</bpm>
<rpm>0.00</rpm>
</extensions>
</trkpt>
<trkpt lat="63.751087189" lon="-20.232717514">
<ele>40.435547</ele>
<time>2012-07-26T19:58:54Z</time>
<speed>3.320000</speed>
<extensions>
<speed>3.3</speed>
<temp>0.00</temp>
<bpm>0</bpm>
<rpm>0.00</rpm>
</extensions>
</trkpt>
<trkpt lat="63.751224518" lon="-20.232593536">
<ele>40.478516</ele>
<time>2012-07-26T19:58:59Z</time>
<speed>3.430000</speed>
<extensions>
<speed>3.4</speed>
<temp>0.00</temp>
<bpm>0</bpm>
<rpm>0.00</rpm>
</extensions>
</trkpt>
<trkpt lat="63.751346588" lon="-20.232446671">
<ele>39.963867</ele>
<time>2012-07-26T19:59:04Z</time>
<speed>2.640000</speed>
<extensions>
<speed>2.6</speed>
<temp>0.00</temp>
<bpm>0</bpm>
<rpm>0.00</rpm>
</extensions>
</trkpt>
<trkpt lat="63.751453400" lon="-20.232313156">
<ele>37.415039</ele>
<time>2012-07-26T19:59:09Z</time>
<speed>2.030000</speed>
<extensions>
<speed>2.0</speed>
<temp>0.00</temp>
<bpm>0</bpm>
<rpm>0.00</rpm>
</extensions>
</trkpt>
<trkpt lat="63.751506805" lon="-20.232196808">
<ele>36.610352</ele>
<time>2012-07-26T19:59:14Z</time>
<speed>1.280000</speed>
<extensions>
<speed>1.3</speed>
<temp>0.00</temp>
<bpm>0</bpm>
<rpm>0.00</rpm>
</extensions>
</trkpt>
<trkpt lat="63.751514435" lon="-20.232173920">
<ele>36.356445</ele>
<time>2012-07-26T19:59:19Z</time>
<speed>0.310000</speed>
<extensions>
<speed>0.3</speed>
<temp>0.00</temp>
<bpm>0</bpm>
<rpm>0.00</rpm>
</extensions>
</trkpt>
<trkpt lat="63.751514435" lon="-20.232173920">
<ele>36.204102</ele>
<time>2012-07-26T19:59:24Z</time>
<speed>0.040000</speed>
<extensions>
<speed>0.0</speed>
<temp>0.00</temp>
<bpm>0</bpm>
<rpm>0.00</rpm>
</extensions>
</trkpt>
<trkpt lat="63.751514435" lon="-20.232175827">
<ele>36.041016</ele>
<time>2012-07-26T19:59:29Z</time>
<speed>0.100000</speed>
<extensions>
<speed>0.1</speed>
<temp>0.00</temp>
<bpm>0</bpm>
<rpm>0.00</rpm>
</extensions>
</trkpt>
<trkpt lat="63.751518250" lon="-20.232179642">
<ele>35.990234</ele>
<time>2012-07-26T19:59:34Z</time>
<speed>0.020000</speed>
<extensions>
<speed>0.0</speed>
<temp>0.00</temp>
<bpm>0</bpm>
<rpm>0.00</rpm>
</extensions>
</trkpt>
<trkpt lat="63.751514435" lon="-20.232177734">
<ele>35.863281</ele>
<time>2012-07-26T19:59:39Z</time>
<speed>0.080000</speed>
<extensions>
<speed>0.1</speed>
<temp>0.00</temp>
<bpm>0</bpm>
<rpm>0.00</rpm>
</extensions>
</trkpt>
<trkpt lat="63.751514435" lon="-20.232177734">
<ele>35.813477</ele>
<time>2012-07-26T19:59:44Z</time>
<speed>0.150000</speed>
<extensions>
<speed>0.2</speed>
<temp>0.00</temp>
<bpm>0</bpm>
<rpm>0.00</rpm>
</extensions>
</trkpt>
<trkpt lat="63.751525879" lon="-20.232173920">
<ele>35.625977</ele>
<time>2012-07-26T19:59:49Z</time>
<speed>0.230000</speed>
<extensions>
<speed>0.2</speed>
<temp>0.00</temp>
<bpm>0</bpm>
<rpm>0.00</rpm>
</extensions>
</trkpt>
<trkpt lat="63.751525879" lon="-20.232185364">
<ele>35.495117</ele>
<time>2012-07-26T19:59:54Z</time>
<speed>0.330000</speed>
<extensions>
<speed>0.3</speed>
<temp>0.00</temp>
<bpm>0</bpm>
<rpm>0.00</rpm>
</extensions>
</trkpt>
<trkpt lat="63.751453400" lon="-20.232299805">
<ele>35.570313</ele>
<time>2012-07-26T19:59:59Z</time>
<speed>3.610000</speed>
<extensions>
<speed>3.6</speed>
<temp>0.00</temp>
<bpm>0</bpm>
<rpm>0.00</rpm>
</extensions>
</trkpt>
<trkpt lat="63.751293182" lon="-20.232521057">
<ele>36.904297</ele>
<time>2012-07-26T20:00:04Z</time>
<speed>3.960000</speed>
<extensions>
<speed>4.0</speed>
<temp>0.00</temp>
<bpm>0</bpm>
<rpm>0.00</rpm>
</extensions>
</trkpt>
<trkpt lat="63.751132965" lon="-20.232706070">
<ele>38.320313</ele>
<time>2012-07-26T20:00:09Z</time>
<speed>3.690000</speed>
<extensions>
<speed>3.7</speed>
<temp>0.00</temp>
<bpm>0</bpm>
<rpm>0.00</rpm>
</extensions>
</trkpt>
<trkpt lat="63.750976563" lon="-20.232830048">
<ele>38.761719</ele>
<time>2012-07-26T20:00:14Z</time>
<speed>3.850000</speed>
<extensions>
<speed>3.8</speed>
<temp>0.00</temp>
<bpm>0</bpm>
<rpm>0.00</rpm>
</extensions>
</trkpt>
<trkpt lat="63.750827789" lon="-20.232856750">
<ele>38.140625</ele>
<time>2012-07-26T20:00:19Z</time>
<speed>3.480000</speed>
<extensions>
<speed>3.5</speed>
<temp>0.00</temp>
<bpm>0</bpm>
<rpm>0.00</rpm>
</extensions>
</trkpt>
<trkpt lat="63.750682831" lon="-20.232896805">
<ele>37.799805</ele>
<time>2012-07-26T20:00:24Z</time>
<speed>2.940000</speed>
<extensions>
<speed>2.9</speed>
<temp>0.00</temp>
<bpm>0</bpm>
<rpm>0.00</rpm>
</extensions>
</trkpt>
<trkpt lat="63.750545502" lon="-20.233102798">
<ele>36.533203</ele>
<time>2012-07-26T20:00:29Z</time>
<speed>3.250000</speed>
<extensions>
<speed>3.2</speed>
<temp>0.00</temp>
<bpm>0</bpm>
<rpm>0.00</rpm>
</extensions>
</trkpt>
<trkpt lat="63.750511169" lon="-20.233398438">
<ele>39.623047</ele>
<time>2012-07-26T20:00:34Z</time>
<speed>2.400000</speed>
<extensions>
<speed>2.4</speed>
<temp>0.00</temp>
<bpm>0</bpm>
<rpm>0.00</rpm>
</extensions>
</trkpt>
<trkpt lat="63.750602722" lon="-20.233551025">
<ele>38.057617</ele>
<time>2012-07-26T20:00:39Z</time>
<speed>1.540000</speed>
<extensions>
<speed>1.5</speed>
<temp>0.00</temp>
<bpm>0</bpm>
<rpm>0.00</rpm>
</extensions>
</trkpt>
<trkpt lat="63.750720978" lon="-20.233621597">
<ele>35.234375</ele>
<time>2012-07-26T20:00:44Z</time>
<speed>3.110000</speed>
<extensions>
<speed>3.1</speed>
<temp>0.00</temp>
<bpm>0</bpm>
<rpm>0.00</rpm>
</extensions>
</trkpt>
<trkpt lat="63.750843048" lon="-20.233778000">
<ele>35.916992</ele>
<time>2012-07-26T20:00:49Z</time>
<speed>3.050000</speed>
<extensions>
<speed>3.0</speed>
<temp>0.00</temp>
<bpm>0</bpm>
<rpm>0.00</rpm>
</extensions>
</trkpt>
<trkpt lat="63.750907898" lon="-20.234088898">
<ele>38.416992</ele>
<time>2012-07-26T20:00:54Z</time>
<speed>3.590000</speed>
<extensions>
<speed>3.6</speed>
<temp>0.00</temp>
<bpm>0</bpm>
<rpm>0.00</rpm>
</extensions>
</trkpt>
<trkpt lat="63.751022339" lon="-20.234390259">
<ele>37.734375</ele>
<time>2012-07-26T20:00:59Z</time>
<speed>3.940000</speed>
<extensions>
<speed>3.9</speed>
<temp>0.00</temp>
<bpm>0</bpm>
<rpm>0.00</rpm>
</extensions>
</trkpt>
<trkpt lat="63.751144409" lon="-20.234619141">
<ele>39.730469</ele>
<time>2012-07-26T20:01:04Z</time>
<speed>3.620000</speed>
<extensions>
<speed>3.6</speed>
<temp>0.00</temp>
<bpm>0</bpm>
<rpm>0.00</rpm>
</extensions>
</trkpt>
<trkpt lat="63.751277924" lon="-20.234832764">
<ele>42.626953</ele>
<time>2012-07-26T20:01:09Z</time>
<speed>3.630000</speed>
<extensions>
<speed>3.6</speed>
<temp>0.00</temp>
<bpm>0</bpm>
<rpm>0.00</rpm>
</extensions>
</trkpt>
<trkpt lat="63.751380920" lon="-20.235069275">
<ele>41.121094</ele>
<time>2012-07-26T20:01:14Z</time>
<speed>3.240000</speed>
<extensions>
<speed>3.2</speed>
<temp>0.00</temp>
<bpm>0</bpm>
<rpm>0.00</rpm>
</extensions>
</trkpt>
<trkpt lat="63.751369476" lon="-20.235397339">
<ele>41.658203</ele>
<time>2012-07-26T20:01:19Z</time>
<speed>3.210000</speed>
<extensions>
<speed>3.2</speed>
<temp>0.00</temp>
<bpm>0</bpm>
<rpm>0.00</rpm>
</extensions>
</trkpt>
<trkpt lat="63.751296997" lon="-20.235612869">
<ele>37.726563</ele>
<time>2012-07-26T20:01:24Z</time>
<speed>3.580000</speed>
<extensions>
<speed>3.6</speed>
<temp>0.00</temp>
<bpm>0</bpm>
<rpm>0.00</rpm>
</extensions>
</trkpt>
<trkpt lat="63.751213074" lon="-20.235877991">
<ele>37.518555</ele>
<time>2012-07-26T20:01:29Z</time>
<speed>2.380000</speed>
<extensions>
<speed>2.4</speed>
<temp>0.00</temp>
<bpm>0</bpm>
<rpm>0.00</rpm>
</extensions>
</trkpt>
<trkpt lat="63.751167297" lon="-20.236095428">
<ele>36.769531</ele>
<time>2012-07-26T20:01:34Z</time>
<speed>2.760000</speed>
<extensions>
<speed>2.8</speed>
<temp>0.00</temp>
<bpm>0</bpm>
<rpm>0.00</rpm>
</extensions>
</trkpt>
<trkpt lat="63.751052856" lon="-20.236394882">
<ele>34.612305</ele>
<time>2012-07-26T20:01:39Z</time>
<speed>3.490000</speed>
<extensions>
<speed>3.5</speed>
<temp>0.00</temp>
<bpm>0</bpm>
<rpm>0.00</rpm>
</extensions>
</trkpt>
<trkpt lat="63.750965118" lon="-20.236631393">
<ele>32.025391</ele>
<time>2012-07-26T20:01:44Z</time>
<speed>3.310000</speed>
<extensions>
<speed>3.3</speed>
<temp>0.00</temp>
<bpm>0</bpm>
<rpm>0.00</rpm>
</extensions>
</trkpt>
<trkpt lat="63.750831604" lon="-20.236848831">
<ele>32.237305</ele>
<time>2012-07-26T20:01:49Z</time>
<speed>4.140000</speed>
<extensions>
<speed>4.1</speed>
<temp>0.00</temp>
<bpm>0</bpm>
<rpm>0.00</rpm>
</extensions>
</trkpt>
<trkpt lat="63.750667572" lon="-20.237150192">
<ele>33.193359</ele>
<time>2012-07-26T20:01:54Z</time>
<speed>5.300000</speed>
<extensions>
<speed>5.3</speed>
<temp>0.00</temp>
<bpm>0</bpm>
<rpm>0.00</rpm>
</extensions>
</trkpt>
<trkpt lat="63.750537872" lon="-20.237592697">
<ele>31.912109</ele>
<time>2012-07-26T20:01:59Z</time>
<speed>4.810000</speed>
<extensions>
<speed>4.8</speed>
<temp>0.00</temp>
<bpm>0</bpm>
<rpm>0.00</rpm>
</extensions>
</trkpt>
<trkpt lat="63.750457764" lon="-20.238044739">
<ele>32.160156</ele>
<time>2012-07-26T20:02:04Z</time>
<speed>5.430000</speed>
<extensions>
<speed>5.4</speed>
<temp>0.00</temp>
<bpm>0</bpm>
<rpm>0.00</rpm>
</extensions>
</trkpt>
<trkpt lat="63.750373840" lon="-20.238582611">
<ele>31.884766</ele>
<time>2012-07-26T20:02:09Z</time>
<speed>5.470000</speed>
<extensions>
<speed>5.5</speed>
<temp>0.00</temp>
<bpm>0</bpm>
<rpm>0.00</rpm>
</extensions>
</trkpt>
<trkpt lat="63.750293732" lon="-20.239025116">
<ele>33.141602</ele>
<time>2012-07-26T20:02:14Z</time>
<speed>3.590000</speed>
<extensions>
<speed>3.6</speed>
<temp>0.00</temp>
<bpm>0</bpm>
<rpm>0.00</rpm>
</extensions>
</trkpt>
<trkpt lat="63.750137329" lon="-20.238925934">
<ele>37.360352</ele>
<time>2012-07-26T20:02:19Z</time>
<speed>4.240000</speed>
<extensions>
<speed>4.2</speed>
<temp>0.00</temp>
<bpm>0</bpm>
<rpm>0.00</rpm>
</extensions>
</trkpt>
<trkpt lat="63.750030518" lon="-20.238613129">
<ele>39.036133</ele>
<time>2012-07-26T20:02:24Z</time>
<speed>3.280000</speed>
<extensions>
<speed>3.3</speed>
<temp>0.00</temp>
<bpm>0</bpm>
<rpm>0.00</rpm>
</extensions>
</trkpt>
<trkpt lat="63.749946594" lon="-20.238433838">
<ele>41.831055</ele>
<time>2012-07-26T20:02:29Z</time>
<speed>2.260000</speed>
<extensions>
<speed>2.3</speed>
<temp>0.00</temp>
<bpm>0</bpm>
<rpm>0.00</rpm>
</extensions>
</trkpt>
<trkpt lat="63.749877930" lon="-20.238693237">
<ele>43.414063</ele>
<time>2012-07-26T20:02:34Z</time>
<speed>3.760000</speed>
<extensions>
<speed>3.8</speed>
<temp>0.00</temp>
<bpm>0</bpm>
<rpm>0.00</rpm>
</extensions>
</trkpt>
<trkpt lat="63.749813080" lon="-20.239078522">
<ele>41.022461</ele>
<time>2012-07-26T20:02:39Z</time>
<speed>4.320000</speed>
<extensions>
<speed>4.3</speed>
<temp>0.00</temp>
<bpm>0</bpm>
<rpm>0.00</rpm>
</extensions>
</trkpt>
<trkpt lat="63.749744415" lon="-20.239513397">
<ele>40.733398</ele>
<time>2012-07-26T20:02:44Z</time>
<speed>4.240000</speed>
<extensions>
<speed>4.2</speed>
<temp>0.00</temp>
<bpm>0</bpm>
<rpm>0.00</rpm>
</extensions>
</trkpt>
<trkpt lat="63.749706268" lon="-20.239845276">
<ele>38.450195</ele>
<time>2012-07-26T20:02:49Z</time>
<speed>2.050000</speed>
<extensions>
<speed>2.1</speed>
<temp>0.00</temp>
<bpm>0</bpm>
<rpm>0.00</rpm>
</extensions>
</trkpt>
<trkpt lat="63.749710083" lon="-20.239967346">
<ele>38.719727</ele>
<time>2012-07-26T20:02:54Z</time>
<speed>1.300000</speed>
<extensions>
<speed>1.3</speed>
<temp>0.00</temp>
<bpm>0</bpm>
<rpm>0.00</rpm>
</extensions>
</trkpt>
<trkpt lat="63.749744415" lon="-20.239856720">
<ele>38.723633</ele>
<time>2012-07-26T20:02:59Z</time>
<speed>2.280000</speed>
<extensions>
<speed>2.3</speed>
<temp>0.00</temp>
<bpm>0</bpm>
<rpm>0.00</rpm>
</extensions>
</trkpt>
<trkpt lat="63.749740601" lon="-20.239587784">
<ele>40.079102</ele>
<time>2012-07-26T20:03:04Z</time>
<speed>3.350000</speed>
<extensions>
<speed>3.4</speed>
<temp>0.00</temp>
<bpm>0</bpm>
<rpm>0.00</rpm>
</extensions>
</trkpt>
<trkpt lat="63.749778748" lon="-20.239271164">
<ele>39.891602</ele>
<time>2012-07-26T20:03:09Z</time>
<speed>2.670000</speed>
<extensions>
<speed>2.7</speed>
<temp>0.00</temp>
<bpm>0</bpm>
<rpm>0.00</rpm>
</extensions>
</trkpt>
<trkpt lat="63.749794006" lon="-20.239068985">
<ele>39.605469</ele>
<time>2012-07-26T20:03:14Z</time>
<speed>1.500000</speed>
<extensions>
<speed>1.5</speed>
<temp>0.00</temp>
<bpm>0</bpm>
<rpm>0.00</rpm>
</extensions>
</trkpt>
<trkpt lat="63.749828339" lon="-20.238941193">
<ele>39.594727</ele>
<time>2012-07-26T20:03:19Z</time>
<speed>2.070000</speed>
<extensions>
<speed>2.1</speed>
<temp>0.00</temp>
<bpm>0</bpm>
<rpm>0.00</rpm>
</extensions>
</trkpt>
<trkpt lat="63.749851227" lon="-20.238748550">
<ele>39.189453</ele>
<time>2012-07-26T20:03:24Z</time>
<speed>1.730000</speed>
<extensions>
<speed>1.7</speed>
<temp>0.00</temp>
<bpm>0</bpm>
<rpm>0.00</rpm>
</extensions>
</trkpt>
<trkpt lat="63.749835968" lon="-20.238632202">
<ele>39.647461</ele>
<time>2012-07-26T20:03:29Z</time>
<speed>0.930000</speed>
<extensions>
<speed>0.9</speed>
<temp>0.00</temp>
<bpm>0</bpm>
<rpm>0.00</rpm>
</extensions>
</trkpt>
<trkpt lat="63.749851227" lon="-20.238515854">
<ele>40.876953</ele>
<time>2012-07-26T20:03:34Z</time>
<speed>2.020000</speed>
<extensions>
<speed>2.0</speed>
<temp>0.00</temp>
<bpm>0</bpm>
<rpm>0.00</rpm>
</extensions>
</trkpt>
<trkpt lat="63.749908447" lon="-20.238550186">
<ele>40.796875</ele>
<time>2012-07-26T20:03:39Z</time>
<speed>0.950000</speed>
<extensions>
<speed>1.0</speed>
<temp>0.00</temp>
<bpm>0</bpm>
<rpm>0.00</rpm>
</extensions>
</trkpt>
<trkpt lat="63.749923706" lon="-20.238592148">
<ele>40.638672</ele>
<time>2012-07-26T20:03:44Z</time>
<speed>0.150000</speed>
<extensions>
<speed>0.2</speed>
<temp>0.00</temp>
<bpm>0</bpm>
<rpm>0.00</rpm>
</extensions>
</trkpt>
<trkpt lat="63.749923706" lon="-20.238597870">
<ele>39.913086</ele>
<time>2012-07-26T20:03:49Z</time>
<speed>0.080000</speed>
<extensions>
<speed>0.1</speed>
<temp>0.00</temp>
<bpm>0</bpm>
<rpm>0.00</rpm>
</extensions>
</trkpt>
<trkpt lat="63.749919891" lon="-20.238599777">
<ele>39.351563</ele>
<time>2012-07-26T20:03:54Z</time>
<speed>0.030000</speed>
<extensions>
<speed>0.0</speed>
<temp>0.00</temp>
<bpm>0</bpm>
<rpm>0.00</rpm>
</extensions>
</trkpt>
<trkpt lat="63.749919891" lon="-20.238597870">
<ele>38.955078</ele>
<time>2012-07-26T20:03:59Z</time>
<speed>0.010000</speed>
<extensions>
<speed>0.0</speed>
<temp>0.00</temp>
<bpm>0</bpm>
<rpm>0.00</rpm>
</extensions>
</trkpt>
<trkpt lat="63.749916077" lon="-20.238597870">
<ele>38.844727</ele>
<time>2012-07-26T20:04:04Z</time>
<speed>0.010000</speed>
<extensions>
<speed>0.0</speed>
<temp>0.00</temp>
<bpm>0</bpm>
<rpm>0.00</rpm>
</extensions>
</trkpt>
<trkpt lat="63.749916077" lon="-20.238597870">
<ele>38.852539</ele>
<time>2012-07-26T20:04:09Z</time>
<speed>0.010000</speed>
<extensions>
<speed>0.0</speed>
<temp>0.00</temp>
<bpm>0</bpm>
<rpm>0.00</rpm>
</extensions>
</trkpt>
<trkpt lat="63.749916077" lon="-20.238597870">
<ele>38.872070</ele>
<time>2012-07-26T20:04:14Z</time>
<speed>0.010000</speed>
<extensions>
<speed>0.0</speed>
<temp>0.00</temp>
<bpm>0</bpm>
<rpm>0.00</rpm>
</extensions>
</trkpt>
<trkpt lat="63.749916077" lon="-20.238597870">
<ele>38.883789</ele>
<time>2012-07-26T20:04:19Z</time>
<extensions>
<speed>0.0</speed>
<temp>0.00</temp>
<bpm>0</bpm>
<rpm>0.00</rpm>
</extensions>
</trkpt>
<trkpt lat="63.749916077" lon="-20.238597870">
<ele>38.892578</ele>
<time>2012-07-26T20:04:24Z</time>
<speed>0.010000</speed>
<extensions>
<speed>0.0</speed>
<temp>0.00</temp>
<bpm>0</bpm>
<rpm>0.00</rpm>
</extensions>
</trkpt>
<trkpt lat="63.749916077" lon="-20.238597870">
<ele>38.911133</ele>
<time>2012-07-26T20:04:29Z</time>
<speed>0.010000</speed>
<extensions>
<speed>0.0</speed>
<temp>0.00</temp>
<bpm>0</bpm>
<rpm>0.00</rpm>
</extensions>
</trkpt>
<trkpt lat="63.749916077" lon="-20.238597870">
<ele>38.924805</ele>
<time>2012-07-26T20:04:34Z</time>
<extensions>
<speed>0.0</speed>
<temp>0.00</temp>
<bpm>0</bpm>
<rpm>0.00</rpm>
</extensions>
</trkpt>
<trkpt lat="63.749916077" lon="-20.238597870">
<ele>38.941406</ele>
<time>2012-07-26T20:04:39Z</time>
<speed>0.010000</speed>
<extensions>
<speed>0.0</speed>
<temp>0.00</temp>
<bpm>0</bpm>
<rpm>0.00</rpm>
</extensions>
</trkpt>
<trkpt lat="63.749916077" lon="-20.238597870">
<ele>38.936523</ele>
<time>2012-07-26T20:04:44Z</time>
<speed>0.010000</speed>
<extensions>
<speed>0.0</speed>
<temp>0.00</temp>
<bpm>0</bpm>
<rpm>0.00</rpm>
</extensions>
</trkpt>
<trkpt lat="63.749916077" lon="-20.238597870">
<ele>38.934570</ele>
<time>2012-07-26T20:04:49Z</time>
<extensions>
<speed>0.0</speed>
<temp>0.00</temp>
<bpm>0</bpm>
<rpm>0.00</rpm>
</extensions>
</trkpt>
<trkpt lat="63.749916077" lon="-20.238597870">
<ele>38.924805</ele>
<time>2012-07-26T20:04:54Z</time>
<speed>0.020000</speed>
<extensions>
<speed>0.0</speed>
<temp>0.00</temp>
<bpm>0</bpm>
<rpm>0.00</rpm>
</extensions>
</trkpt>
<trkpt lat="63.749916077" lon="-20.238597870">
<ele>38.940430</ele>
<time>2012-07-26T20:04:59Z</time>
<extensions>
<speed>0.0</speed>
<temp>0.00</temp>
<bpm>0</bpm>
<rpm>0.00</rpm>
</extensions>
</trkpt>
<trkpt lat="63.749916077" lon="-20.238597870">
<ele>38.961914</ele>
<time>2012-07-26T20:05:04Z</time>
<extensions>
<speed>0.0</speed>
<temp>0.00</temp>
<bpm>0</bpm>
<rpm>0.00</rpm>
</extensions>
</trkpt>
<trkpt lat="63.749916077" lon="-20.238597870">
<ele>38.958008</ele>
<time>2012-07-26T20:05:09Z</time>
<extensions>
<speed>0.0</speed>
<temp>0.00</temp>
<bpm>0</bpm>
<rpm>0.00</rpm>
</extensions>
</trkpt>
<trkpt lat="63.749916077" lon="-20.238597870">
<ele>38.960938</ele>
<time>2012-07-26T20:05:14Z</time>
<speed>0.010000</speed>
<extensions>
<speed>0.0</speed>
<temp>0.00</temp>
<bpm>0</bpm>
<rpm>0.00</rpm>
</extensions>
</trkpt>
<trkpt lat="63.749916077" lon="-20.238595963">
<ele>38.958984</ele>
<time>2012-07-26T20:05:19Z</time>
<speed>0.010000</speed>
<extensions>
<speed>0.0</speed>
<temp>0.00</temp>
<bpm>0</bpm>
<rpm>0.00</rpm>
</extensions>
</trkpt>
<trkpt lat="63.749916077" lon="-20.238595963">
<ele>38.958008</ele>
<time>2012-07-26T20:05:24Z</time>
<extensions>
<speed>0.0</speed>
<temp>0.00</temp>
<bpm>0</bpm>
<rpm>0.00</rpm>
</extensions>
</trkpt>
<trkpt lat="63.749916077" lon="-20.238595963">
<ele>38.968750</ele>
<time>2012-07-26T20:05:29Z</time>
<speed>0.010000</speed>
<extensions>
<speed>0.0</speed>
<temp>0.00</temp>
<bpm>0</bpm>
<rpm>0.00</rpm>
</extensions>
</trkpt>
<trkpt lat="63.749916077" lon="-20.238595963">
<ele>38.970703</ele>
<time>2012-07-26T20:05:34Z</time>
<speed>0.010000</speed>
<extensions>
<speed>0.0</speed>
<temp>0.00</temp>
<bpm>0</bpm>
<rpm>0.00</rpm>
</extensions>
</trkpt>
<trkpt lat="63.749916077" lon="-20.238595963">
<ele>39.003906</ele>
<time>2012-07-26T20:05:39Z</time>
<extensions>
<speed>0.0</speed>
<temp>0.00</temp>
<bpm>0</bpm>
<rpm>0.00</rpm>
</extensions>
</trkpt>
<trkpt lat="63.749916077" lon="-20.238595963">
<ele>39.035156</ele>
<time>2012-07-26T20:05:44Z</time>
<speed>0.010000</speed>
<extensions>
<speed>0.0</speed>
<temp>0.00</temp>
<bpm>0</bpm>
<rpm>0.00</rpm>
</extensions>
</trkpt>
<trkpt lat="63.749916077" lon="-20.238595963">
<ele>39.039063</ele>
<time>2012-07-26T20:05:49Z</time>
<extensions>
<speed>0.0</speed>
<temp>0.00</temp>
<bpm>0</bpm>
<rpm>0.00</rpm>
</extensions>
</trkpt>
<trkpt lat="63.749916077" lon="-20.238595963">
<ele>39.048828</ele>
<time>2012-07-26T20:05:54Z</time>
<extensions>
<speed>0.0</speed>
<temp>0.00</temp>
<bpm>0</bpm>
<rpm>0.00</rpm>
</extensions>
</trkpt>
<trkpt lat="63.749916077" lon="-20.238595963">
<ele>39.078125</ele>
<time>2012-07-26T20:05:59Z</time>
<extensions>
<speed>0.0</speed>
<temp>0.00</temp>
<bpm>0</bpm>
<rpm>0.00</rpm>
</extensions>
</trkpt>
<trkpt lat="63.749916077" lon="-20.238595963">
<ele>39.075195</ele>
<time>2012-07-26T20:06:04Z</time>
<extensions>
<speed>0.0</speed>
<temp>0.00</temp>
<bpm>0</bpm>
<rpm>0.00</rpm>
</extensions>
</trkpt>
<trkpt lat="63.749916077" lon="-20.238595963">
<ele>39.073242</ele>
<time>2012-07-26T20:06:09Z</time>
<extensions>
<speed>0.0</speed>
<temp>0.00</temp>
<bpm>0</bpm>
<rpm>0.00</rpm>
</extensions>
</trkpt>
<trkpt lat="63.749916077" lon="-20.238595963">
<ele>39.094727</ele>
<time>2012-07-26T20:06:14Z</time>
<extensions>
<speed>0.0</speed>
<temp>0.00</temp>
<bpm>0</bpm>
<rpm>0.00</rpm>
</extensions>
</trkpt>
<trkpt lat="63.749916077" lon="-20.238595963">
<ele>39.120117</ele>
<time>2012-07-26T20:06:19Z</time>
<extensions>
<speed>0.0</speed>
<temp>0.00</temp>
<bpm>0</bpm>
<rpm>0.00</rpm>
</extensions>
</trkpt>
<trkpt lat="63.749916077" lon="-20.238595963">
<ele>39.140625</ele>
<time>2012-07-26T20:06:24Z</time>
<extensions>
<speed>0.0</speed>
<temp>0.00</temp>
<bpm>0</bpm>
<rpm>0.00</rpm>
</extensions>
</trkpt>
<trkpt lat="63.749916077" lon="-20.238595963">
<ele>39.158203</ele>
<time>2012-07-26T20:06:29Z</time>
<speed>0.010000</speed>
<extensions>
<speed>0.0</speed>
<temp>0.00</temp>
<bpm>0</bpm>
<rpm>0.00</rpm>
</extensions>
</trkpt>
<trkpt lat="63.749954224" lon="-20.238655090">
<ele>39.181641</ele>
<time>2012-07-26T20:06:34Z</time>
<speed>2.870000</speed>
<extensions>
<speed>2.9</speed>
<temp>0.00</temp>
<bpm>0</bpm>
<rpm>0.00</rpm>
</extensions>
</trkpt>
<trkpt lat="63.750095367" lon="-20.238870621">
<ele>40.353516</ele>
<time>2012-07-26T20:06:39Z</time>
<speed>3.500000</speed>
<extensions>
<speed>3.5</speed>
<temp>0.00</temp>
<bpm>0</bpm>
<rpm>0.00</rpm>
</extensions>
</trkpt>
<trkpt lat="63.750232697" lon="-20.239019394">
<ele>40.304688</ele>
<time>2012-07-26T20:06:44Z</time>
<speed>3.150000</speed>
<extensions>
<speed>3.2</speed>
<temp>0.00</temp>
<bpm>0</bpm>
<rpm>0.00</rpm>
</extensions>
</trkpt>
<trkpt lat="63.750301361" lon="-20.238971710">
<ele>41.038086</ele>
<time>2012-07-26T20:06:49Z</time>
<speed>1.040000</speed>
<extensions>
<speed>1.0</speed>
<temp>0.00</temp>
<bpm>0</bpm>
<rpm>0.00</rpm>
</extensions>
</trkpt>
<trkpt lat="63.750312805" lon="-20.238945007">
<ele>41.106445</ele>
<time>2012-07-26T20:06:54Z</time>
<speed>0.040000</speed>
<extensions>
<speed>0.0</speed>
<temp>0.00</temp>
<bpm>0</bpm>
<rpm>0.00</rpm>
</extensions>
</trkpt>
<trkpt lat="63.750324249" lon="-20.238897324">
<ele>40.936523</ele>
<time>2012-07-26T20:06:59Z</time>
<speed>1.780000</speed>
<extensions>
<speed>1.8</speed>
<temp>0.00</temp>
<bpm>0</bpm>
<rpm>0.00</rpm>
</extensions>
</trkpt>
<trkpt lat="63.750362396" lon="-20.238685608">
<ele>40.129883</ele>
<time>2012-07-26T20:07:04Z</time>
<speed>2.040000</speed>
<extensions>
<speed>2.0</speed>
<temp>0.00</temp>
<bpm>0</bpm>
<rpm>0.00</rpm>
</extensions>
</trkpt>
<trkpt lat="63.750408173" lon="-20.238473892">
<ele>40.125000</ele>
<time>2012-07-26T20:07:09Z</time>
<speed>2.720000</speed>
<extensions>
<speed>2.7</speed>
<temp>0.00</temp>
<bpm>0</bpm>
<rpm>0.00</rpm>
</extensions>
</trkpt>
<trkpt lat="63.750446320" lon="-20.238187790">
<ele>39.019531</ele>
<time>2012-07-26T20:07:14Z</time>
<speed>2.660000</speed>
<extensions>
<speed>2.7</speed>
<temp>0.00</temp>
<bpm>0</bpm>
<rpm>0.00</rpm>
</extensions>
</trkpt>
<trkpt lat="63.750499725" lon="-20.237884521">
<ele>39.621094</ele>
<time>2012-07-26T20:07:19Z</time>
<speed>3.460000</speed>
<extensions>
<speed>3.5</speed>
<temp>0.00</temp>
<bpm>0</bpm>
<rpm>0.00</rpm>
</extensions>
</trkpt>
<trkpt lat="63.750545502" lon="-20.237560272">
<ele>38.834961</ele>
<time>2012-07-26T20:07:24Z</time>
<speed>3.230000</speed>
<extensions>
<speed>3.2</speed>
<temp>0.00</temp>
<bpm>0</bpm>
<rpm>0.00</rpm>
</extensions>
</trkpt>
<trkpt lat="63.750579834" lon="-20.237356186">
<ele>38.795898</ele>
<time>2012-07-26T20:07:29Z</time>
<speed>0.030000</speed>
<extensions>
<speed>0.0</speed>
<temp>0.00</temp>
<bpm>0</bpm>
<rpm>0.00</rpm>
</extensions>
</trkpt>
<trkpt lat="63.750579834" lon="-20.237358093">
<ele>39.002930</ele>
<time>2012-07-26T20:07:34Z</time>
<extensions>
<speed>0.0</speed>
<temp>0.00</temp>
<bpm>0</bpm>
<rpm>0.00</rpm>
</extensions>
</trkpt>
<trkpt lat="63.750579834" lon="-20.237354279">
<ele>38.940430</ele>
<time>2012-07-26T20:07:39Z</time>
<speed>0.010000</speed>
<extensions>
<speed>0.0</speed>
<temp>0.00</temp>
<bpm>0</bpm>
<rpm>0.00</rpm>
</extensions>
</trkpt>
<trkpt lat="63.750579834" lon="-20.237342834">
<ele>38.888672</ele>
<time>2012-07-26T20:07:44Z</time>
<speed>0.420000</speed>
<extensions>
<speed>0.4</speed>
<temp>0.00</temp>
<bpm>0</bpm>
<rpm>0.00</rpm>
</extensions>
</trkpt>
<trkpt lat="63.750583649" lon="-20.237331390">
<ele>38.836914</ele>
<time>2012-07-26T20:07:49Z</time>
<extensions>
<speed>0.0</speed>
<temp>0.00</temp>
<bpm>0</bpm>
<rpm>0.00</rpm>
</extensions>
</trkpt>
<trkpt lat="63.750583649" lon="-20.237331390">
<ele>38.836914</ele>
<time>2012-07-26T20:07:54Z</time>
<extensions>
<speed>0.0</speed>
<temp>0.00</temp>
<bpm>0</bpm>
<rpm>0.00</rpm>
</extensions>
</trkpt>
<trkpt lat="63.750583649" lon="-20.237331390">
<ele>38.813477</ele>
<time>2012-07-26T20:07:59Z</time>
<speed>0.010000</speed>
<extensions>
<speed>0.0</speed>
<temp>0.00</temp>
<bpm>0</bpm>
<rpm>0.00</rpm>
</extensions>
</trkpt>
<trkpt lat="63.750583649" lon="-20.237331390">
<ele>38.815430</ele>
<time>2012-07-26T20:08:04Z</time>
<speed>0.010000</speed>
<extensions>
<speed>0.0</speed>
<temp>0.00</temp>
<bpm>0</bpm>
<rpm>0.00</rpm>
</extensions>
</trkpt>
<trkpt lat="63.750583649" lon="-20.237331390">
<ele>38.821289</ele>
<time>2012-07-26T20:08:09Z</time>
<extensions>
<speed>0.0</speed>
<temp>0.00</temp>
<bpm>0</bpm>
<rpm>0.00</rpm>
</extensions>
</trkpt>
<trkpt lat="63.750583649" lon="-20.237331390">
<ele>38.827148</ele>
<time>2012-07-26T20:08:14Z</time>
<speed>0.010000</speed>
<extensions>
<speed>0.0</speed>
<temp>0.00</temp>
<bpm>0</bpm>
<rpm>0.00</rpm>
</extensions>
</trkpt>
<trkpt lat="63.750583649" lon="-20.237333298">
<ele>38.833008</ele>
<time>2012-07-26T20:08:19Z</time>
<speed>0.030000</speed>
<extensions>
<speed>0.0</speed>
<temp>0.00</temp>
<bpm>0</bpm>
<rpm>0.00</rpm>
</extensions>
</trkpt>
<trkpt lat="63.750591278" lon="-20.237329483">
<ele>38.900391</ele>
<time>2012-07-26T20:08:24Z</time>
<speed>1.460000</speed>
<extensions>
<speed>1.5</speed>
<temp>0.00</temp>
<bpm>0</bpm>
<rpm>0.00</rpm>
</extensions>
</trkpt>
<trkpt lat="63.750549316" lon="-20.237569809">
<ele>39.070313</ele>
<time>2012-07-26T20:08:29Z</time>
<speed>3.550000</speed>
<extensions>
<speed>3.5</speed>
<temp>0.00</temp>
<bpm>0</bpm>
<rpm>0.00</rpm>
</extensions>
</trkpt>
<trkpt lat="63.750492096" lon="-20.237894058">
<ele>39.752930</ele>
<time>2012-07-26T20:08:34Z</time>
<speed>3.080000</speed>
<extensions>
<speed>3.1</speed>
<temp>0.00</temp>
<bpm>0</bpm>
<rpm>0.00</rpm>
</extensions>
</trkpt>
<trkpt lat="63.750434875" lon="-20.238208771">
<ele>41.044922</ele>
<time>2012-07-26T20:08:39Z</time>
<speed>3.740000</speed>
<extensions>
<speed>3.7</speed>
<temp>0.00</temp>
<bpm>0</bpm>
<rpm>0.00</rpm>
</extensions>
</trkpt>
<trkpt lat="63.750385284" lon="-20.238533020">
<ele>41.802734</ele>
<time>2012-07-26T20:08:44Z</time>
<speed>3.060000</speed>
<extensions>
<speed>3.1</speed>
<temp>0.00</temp>
<bpm>0</bpm>
<rpm>0.00</rpm>
</extensions>
</trkpt>
<trkpt lat="63.750331879" lon="-20.238824844">
<ele>39.923828</ele>
<time>2012-07-26T20:08:49Z</time>
<speed>2.970000</speed>
<extensions>
<speed>3.0</speed>
<temp>0.00</temp>
<bpm>0</bpm>
<rpm>0.00</rpm>
</extensions>
</trkpt>
<trkpt lat="63.750255585" lon="-20.239038467">
<ele>38.422852</ele>
<time>2012-07-26T20:08:54Z</time>
<speed>3.880000</speed>
<extensions>
<speed>3.9</speed>
<temp>0.00</temp>
<bpm>0</bpm>
<rpm>0.00</rpm>
</extensions>
</trkpt>
<trkpt lat="63.750091553" lon="-20.238910675">
<ele>36.646484</ele>
<time>2012-07-26T20:08:59Z</time>
<speed>3.630000</speed>
<extensions>
<speed>3.6</speed>
<temp>0.00</temp>
<bpm>0</bpm>
<rpm>0.00</rpm>
</extensions>
</trkpt>
<trkpt lat="63.749958038" lon="-20.238792419">
<ele>37.941406</ele>
<time>2012-07-26T20:09:04Z</time>
<speed>3.000000</speed>
<extensions>
<speed>3.0</speed>
<temp>0.00</temp>
<bpm>0</bpm>
<rpm>0.00</rpm>
</extensions>
</trkpt>
<trkpt lat="63.749855042" lon="-20.238824844">
<ele>38.166992</ele>
<time>2012-07-26T20:09:09Z</time>
<speed>2.160000</speed>
<extensions>
<speed>2.2</speed>
<temp>0.00</temp>
<bpm>0</bpm>
<rpm>0.00</rpm>
</extensions>
</trkpt>
<trkpt lat="63.749828339" lon="-20.238975525">
<ele>37.157227</ele>
<time>2012-07-26T20:09:14Z</time>
<speed>1.080000</speed>
<extensions>
<speed>1.1</speed>
<temp>0.00</temp>
<bpm>0</bpm>
<rpm>0.00</rpm>
</extensions>
</trkpt>
<trkpt lat="63.749813080" lon="-20.239107132">
<ele>37.602539</ele>
<time>2012-07-26T20:09:19Z</time>
<speed>1.690000</speed>
<extensions>
<speed>1.7</speed>
<temp>0.00</temp>
<bpm>0</bpm>
<rpm>0.00</rpm>
</extensions>
</trkpt>
<trkpt lat="63.749786377" lon="-20.239315033">
<ele>38.914063</ele>
<time>2012-07-26T20:09:24Z</time>
<speed>2.310000</speed>
<extensions>
<speed>2.3</speed>
<temp>0.00</temp>
<bpm>0</bpm>
<rpm>0.00</rpm>
</extensions>
</trkpt>
<trkpt lat="63.749755859" lon="-20.239498138">
<ele>37.197266</ele>
<time>2012-07-26T20:09:29Z</time>
<speed>1.670000</speed>
<extensions>
<speed>1.7</speed>
<temp>0.00</temp>
<bpm>0</bpm>
<rpm>0.00</rpm>
</extensions>
</trkpt>
<trkpt lat="63.749725342" lon="-20.239721298">
<ele>36.336914</ele>
<time>2012-07-26T20:09:34Z</time>
<speed>2.320000</speed>
<extensions>
<speed>2.3</speed>
<temp>0.00</temp>
<bpm>0</bpm>
<rpm>0.00</rpm>
</extensions>
</trkpt>
<trkpt lat="63.749694824" lon="-20.239915848">
<ele>37.892578</ele>
<time>2012-07-26T20:09:39Z</time>
<speed>1.670000</speed>
<extensions>
<speed>1.7</speed>
<temp>0.00</temp>
<bpm>0</bpm>
<rpm>0.00</rpm>
</extensions>
</trkpt>
<trkpt lat="63.749637604" lon="-20.239988327">
<ele>37.261719</ele>
<time>2012-07-26T20:09:44Z</time>
<speed>1.780000</speed>
<extensions>
<speed>1.8</speed>
<temp>0.00</temp>
<bpm>0</bpm>
<rpm>0.00</rpm>
</extensions>
</trkpt>
<trkpt lat="63.749614716" lon="-20.240018845">
<ele>38.469727</ele>
<time>2012-07-26T20:09:49Z</time>
<speed>0.170000</speed>
<extensions>
<speed>0.2</speed>
<temp>0.00</temp>
<bpm>0</bpm>
<rpm>0.00</rpm>
</extensions>
</trkpt>
<trkpt lat="63.749614716" lon="-20.240028381">
<ele>38.861328</ele>
<time>2012-07-26T20:09:54Z</time>
<speed>0.010000</speed>
<extensions>
<speed>0.0</speed>
<temp>0.00</temp>
<bpm>0</bpm>
<rpm>0.00</rpm>
</extensions>
</trkpt>
<trkpt lat="63.749614716" lon="-20.240028381">
<ele>38.829102</ele>
<time>2012-07-26T20:09:59Z</time>
<extensions>
<speed>0.0</speed>
<temp>0.00</temp>
<bpm>0</bpm>
<rpm>0.00</rpm>
</extensions>
</trkpt>
<trkpt lat="63.749614716" lon="-20.240028381">
<ele>38.888672</ele>
<time>2012-07-26T20:10:04Z</time>
<extensions>
<speed>0.0</speed>
<temp>0.00</temp>
<bpm>0</bpm>
<rpm>0.00</rpm>
</extensions>
</trkpt>
<trkpt lat="63.749610901" lon="-20.240024567">
<ele>38.959961</ele>
<time>2012-07-26T20:10:09Z</time>
<speed>0.080000</speed>
<extensions>
<speed>0.1</speed>
<temp>0.00</temp>
<bpm>0</bpm>
<rpm>0.00</rpm>
</extensions>
</trkpt>
<trkpt lat="63.749610901" lon="-20.240022659">
<ele>38.888672</ele>
<time>2012-07-26T20:10:14Z</time>
<extensions>
<speed>0.0</speed>
<temp>0.00</temp>
<bpm>0</bpm>
<rpm>0.00</rpm>
</extensions>
</trkpt>
<trkpt lat="63.749610901" lon="-20.240022659">
<ele>38.906250</ele>
<time>2012-07-26T20:10:19Z</time>
<speed>0.010000</speed>
<extensions>
<speed>0.0</speed>
<temp>0.00</temp>
<bpm>0</bpm>
<rpm>0.00</rpm>
</extensions>
</trkpt>
<trkpt lat="63.749610901" lon="-20.240024567">
<ele>38.971680</ele>
<time>2012-07-26T20:10:24Z</time>
<speed>0.010000</speed>
<extensions>
<speed>0.0</speed>
<temp>0.00</temp>
<bpm>0</bpm>
<rpm>0.00</rpm>
</extensions>
</trkpt>
<trkpt lat="63.749610901" lon="-20.240024567">
<ele>39.016602</ele>
<time>2012-07-26T20:10:29Z</time>
<extensions>
<speed>0.0</speed>
<temp>0.00</temp>
<bpm>0</bpm>
<rpm>0.00</rpm>
</extensions>
</trkpt>
<trkpt lat="63.749610901" lon="-20.240024567">
<ele>39.059570</ele>
<time>2012-07-26T20:10:34Z</time>
<extensions>
<speed>0.0</speed>
<temp>0.00</temp>
<bpm>0</bpm>
<rpm>0.00</rpm>
</extensions>
</trkpt>
<trkpt lat="63.749610901" lon="-20.240024567">
<ele>39.111328</ele>
<time>2012-07-26T20:10:39Z</time>
<extensions>
<speed>0.0</speed>
<temp>0.00</temp>
<bpm>0</bpm>
<rpm>0.00</rpm>
</extensions>
</trkpt>
<trkpt lat="63.749610901" lon="-20.240024567">
<ele>39.154297</ele>
<time>2012-07-26T20:10:44Z</time>
<extensions>
<speed>0.0</speed>
<temp>0.00</temp>
<bpm>0</bpm>
<rpm>0.00</rpm>
</extensions>
</trkpt>
<trkpt lat="63.749610901" lon="-20.240024567">
<ele>39.207031</ele>
<time>2012-07-26T20:10:49Z</time>
<extensions>
<speed>0.0</speed>
<temp>0.00</temp>
<bpm>0</bpm>
<rpm>0.00</rpm>
</extensions>
</trkpt>
<trkpt lat="63.749610901" lon="-20.240024567">
<ele>39.260742</ele>
<time>2012-07-26T20:10:54Z</time>
<extensions>
<speed>0.0</speed>
<temp>0.00</temp>
<bpm>0</bpm>
<rpm>0.00</rpm>
</extensions>
</trkpt>
<trkpt lat="63.749610901" lon="-20.240024567">
<ele>39.306641</ele>
<time>2012-07-26T20:10:59Z</time>
<extensions>
<speed>0.0</speed>
<temp>0.00</temp>
<bpm>0</bpm>
<rpm>0.00</rpm>
</extensions>
</trkpt>
<trkpt lat="63.749610901" lon="-20.240024567">
<ele>39.335938</ele>
<time>2012-07-26T20:11:04Z</time>
<extensions>
<speed>0.0</speed>
<temp>0.00</temp>
<bpm>0</bpm>
<rpm>0.00</rpm>
</extensions>
</trkpt>
<trkpt lat="63.749610901" lon="-20.240024567">
<ele>39.359375</ele>
<time>2012-07-26T20:11:09Z</time>
<extensions>
<speed>0.0</speed>
<temp>0.00</temp>
<bpm>0</bpm>
<rpm>0.00</rpm>
</extensions>
</trkpt>
<trkpt lat="63.749610901" lon="-20.240024567">
<ele>39.374023</ele>
<time>2012-07-26T20:11:14Z</time>
<extensions>
<speed>0.0</speed>
<temp>0.00</temp>
<bpm>0</bpm>
<rpm>0.00</rpm>
</extensions>
</trkpt>
<trkpt lat="63.749610901" lon="-20.240024567">
<ele>39.381836</ele>
<time>2012-07-26T20:11:19Z</time>
<extensions>
<speed>0.0</speed>
<temp>0.00</temp>
<bpm>0</bpm>
<rpm>0.00</rpm>
</extensions>
</trkpt>
<trkpt lat="63.749610901" lon="-20.240022659">
<ele>39.394531</ele>
<time>2012-07-26T20:11:24Z</time>
<extensions>
<speed>0.0</speed>
<temp>0.00</temp>
<bpm>0</bpm>
<rpm>0.00</rpm>
</extensions>
</trkpt>
<trkpt lat="63.749610901" lon="-20.240022659">
<ele>39.411133</ele>
<time>2012-07-26T20:11:29Z</time>
<extensions>
<speed>0.0</speed>
<temp>0.00</temp>
<bpm>0</bpm>
<rpm>0.00</rpm>
</extensions>
</trkpt>
<trkpt lat="63.749610901" lon="-20.240022659">
<ele>39.434570</ele>
<time>2012-07-26T20:11:34Z</time>
<speed>0.010000</speed>
<extensions>
<speed>0.0</speed>
<temp>0.00</temp>
<bpm>0</bpm>
<rpm>0.00</rpm>
</extensions>
</trkpt>
<trkpt lat="63.749610901" lon="-20.240022659">
<ele>39.464844</ele>
<time>2012-07-26T20:11:39Z</time>
<extensions>
<speed>0.0</speed>
<temp>0.00</temp>
<bpm>0</bpm>
<rpm>0.00</rpm>
</extensions>
</trkpt>
<trkpt lat="63.749610901" lon="-20.240022659">
<ele>39.492188</ele>
<time>2012-07-26T20:11:44Z</time>
<extensions>
<speed>0.0</speed>
<temp>0.00</temp>
<bpm>0</bpm>
<rpm>0.00</rpm>
</extensions>
</trkpt>
<trkpt lat="63.749610901" lon="-20.240022659">
<ele>39.537109</ele>
<time>2012-07-26T20:11:49Z</time>
<extensions>
<speed>0.0</speed>
<temp>0.00</temp>
<bpm>0</bpm>
<rpm>0.00</rpm>
</extensions>
</trkpt>
<trkpt lat="63.749610901" lon="-20.240024567">
<ele>39.557617</ele>
<time>2012-07-26T20:11:54Z</time>
<extensions>
<speed>0.0</speed>
<temp>0.00</temp>
<bpm>0</bpm>
<rpm>0.00</rpm>
</extensions>
</trkpt>
<trkpt lat="63.749610901" lon="-20.240024567">
<ele>39.575195</ele>
<time>2012-07-26T20:11:59Z</time>
<extensions>
<speed>0.0</speed>
<temp>0.00</temp>
<bpm>0</bpm>
<rpm>0.00</rpm>
</extensions>
</trkpt>
<trkpt lat="63.749610901" lon="-20.240024567">
<ele>39.595703</ele>
<time>2012-07-26T20:12:04Z</time>
<extensions>
<speed>0.0</speed>
<temp>0.00</temp>
<bpm>0</bpm>
<rpm>0.00</rpm>
</extensions>
</trkpt>
<trkpt lat="63.749610901" lon="-20.240024567">
<ele>39.615234</ele>
<time>2012-07-26T20:12:09Z</time>
<extensions>
<speed>0.0</speed>
<temp>0.00</temp>
<bpm>0</bpm>
<rpm>0.00</rpm>
</extensions>
</trkpt>
<trkpt lat="63.749610901" lon="-20.240024567">
<ele>39.643555</ele>
<time>2012-07-26T20:12:14Z</time>
<speed>0.020000</speed>
<extensions>
<speed>0.0</speed>
<temp>0.00</temp>
<bpm>0</bpm>
<rpm>0.00</rpm>
</extensions>
</trkpt>
<trkpt lat="63.749610901" lon="-20.240022659">
<ele>39.664063</ele>
<time>2012-07-26T20:12:19Z</time>
<extensions>
<speed>0.0</speed>
<temp>0.00</temp>
<bpm>0</bpm>
<rpm>0.00</rpm>
</extensions>
</trkpt>
<trkpt lat="63.749610901" lon="-20.240022659">
<ele>39.699219</ele>
<time>2012-07-26T20:12:24Z</time>
<extensions>
<speed>0.0</speed>
<temp>0.00</temp>
<bpm>0</bpm>
<rpm>0.00</rpm>
</extensions>
</trkpt>
<trkpt lat="63.749610901" lon="-20.240024567">
<ele>39.721680</ele>
<time>2012-07-26T20:12:29Z</time>
<speed>0.010000</speed>
<extensions>
<speed>0.0</speed>
<temp>0.00</temp>
<bpm>0</bpm>
<rpm>0.00</rpm>
</extensions>
</trkpt>
<trkpt lat="63.749610901" lon="-20.240024567">
<ele>39.741211</ele>
<time>2012-07-26T20:12:34Z</time>
<speed>0.120000</speed>
<extensions>
<speed>0.1</speed>
<temp>0.00</temp>
<bpm>0</bpm>
<rpm>0.00</rpm>
</extensions>
</trkpt>
<trkpt lat="63.749607086" lon="-20.240011215">
<ele>39.556641</ele>
<time>2012-07-26T20:12:39Z</time>
<speed>0.110000</speed>
<extensions>
<speed>0.1</speed>
<temp>0.00</temp>
<bpm>0</bpm>
<rpm>0.00</rpm>
</extensions>
</trkpt>
<trkpt lat="63.749607086" lon="-20.239999771">
<ele>39.184570</ele>
<time>2012-07-26T20:12:44Z</time>
<speed>0.130000</speed>
<extensions>
<speed>0.1</speed>
<temp>0.00</temp>
<bpm>0</bpm>
<rpm>0.00</rpm>
</extensions>
</trkpt>
<trkpt lat="63.749607086" lon="-20.239995956">
<ele>39.086914</ele>
<time>2012-07-26T20:12:49Z</time>
<speed>0.020000</speed>
<extensions>
<speed>0.0</speed>
<temp>0.00</temp>
<bpm>0</bpm>
<rpm>0.00</rpm>
</extensions>
</trkpt>
<trkpt lat="63.749607086" lon="-20.239995956">
<ele>39.101563</ele>
<time>2012-07-26T20:12:54Z</time>
<speed>0.040000</speed>
<extensions>
<speed>0.0</speed>
<temp>0.00</temp>
<bpm>0</bpm>
<rpm>0.00</rpm>
</extensions>
</trkpt>
<trkpt lat="63.749607086" lon="-20.239995956">
<ele>39.115234</ele>
<time>2012-07-26T20:12:59Z</time>
<speed>0.020000</speed>
<extensions>
<speed>0.0</speed>
<temp>0.00</temp>
<bpm>0</bpm>
<rpm>0.00</rpm>
</extensions>
</trkpt>
<trkpt lat="63.749607086" lon="-20.239995956">
<ele>39.125000</ele>
<time>2012-07-26T20:13:04Z</time>
<speed>0.030000</speed>
<extensions>
<speed>0.0</speed>
<temp>0.00</temp>
<bpm>0</bpm>
<rpm>0.00</rpm>
</extensions>
</trkpt>
<trkpt lat="63.749607086" lon="-20.239995956">
<ele>39.143555</ele>
<time>2012-07-26T20:13:09Z</time>
<speed>0.010000</speed>
<extensions>
<speed>0.0</speed>
<temp>0.00</temp>
<bpm>0</bpm>
<rpm>0.00</rpm>
</extensions>
</trkpt>
<trkpt lat="63.749607086" lon="-20.239995956">
<ele>39.179688</ele>
<time>2012-07-26T20:13:14Z</time>
<speed>0.010000</speed>
<extensions>
<speed>0.0</speed>
<temp>0.00</temp>
<bpm>0</bpm>
<rpm>0.00</rpm>
</extensions>
</trkpt>
<trkpt lat="63.749607086" lon="-20.239995956">
<ele>39.208008</ele>
<time>2012-07-26T20:13:19Z</time>
<speed>0.010000</speed>
<extensions>
<speed>0.0</speed>
<temp>0.00</temp>
<bpm>0</bpm>
<rpm>0.00</rpm>
</extensions>
</trkpt>
<trkpt lat="63.749607086" lon="-20.239995956">
<ele>39.219727</ele>
<time>2012-07-26T20:13:24Z</time>
<speed>0.010000</speed>
<extensions>
<speed>0.0</speed>
<temp>0.00</temp>
<bpm>0</bpm>
<rpm>0.00</rpm>
</extensions>
</trkpt>
<trkpt lat="63.749607086" lon="-20.239995956">
<ele>39.229492</ele>
<time>2012-07-26T20:13:29Z</time>
<speed>0.010000</speed>
<extensions>
<speed>0.0</speed>
<temp>0.00</temp>
<bpm>0</bpm>
<rpm>0.00</rpm>
</extensions>
</trkpt>
<trkpt lat="63.749607086" lon="-20.239995956">
<ele>39.237305</ele>
<time>2012-07-26T20:13:34Z</time>
<speed>0.010000</speed>
<extensions>
<speed>0.0</speed>
<temp>0.00</temp>
<bpm>0</bpm>
<rpm>0.00</rpm>
</extensions>
</trkpt>
<trkpt lat="63.749607086" lon="-20.239997864">
<ele>39.236328</ele>
<time>2012-07-26T20:13:39Z</time>
<extensions>
<speed>0.0</speed>
<temp>0.00</temp>
<bpm>0</bpm>
<rpm>0.00</rpm>
</extensions>
</trkpt>
<trkpt lat="63.749607086" lon="-20.239997864">
<ele>39.257813</ele>
<time>2012-07-26T20:13:44Z</time>
<extensions>
<speed>0.0</speed>
<temp>0.00</temp>
<bpm>0</bpm>
<rpm>0.00</rpm>
</extensions>
</trkpt>
<trkpt lat="63.749607086" lon="-20.239997864">
<ele>39.268555</ele>
<time>2012-07-26T20:13:49Z</time>
<extensions>
<speed>0.0</speed>
<temp>0.00</temp>
<bpm>0</bpm>
<rpm>0.00</rpm>
</extensions>
</trkpt>
<trkpt lat="63.749607086" lon="-20.239997864">
<ele>39.288086</ele>
<time>2012-07-26T20:13:54Z</time>
<speed>0.010000</speed>
<extensions>
<speed>0.0</speed>
<temp>0.00</temp>
<bpm>0</bpm>
<rpm>0.00</rpm>
</extensions>
</trkpt>
<trkpt lat="63.749607086" lon="-20.239995956">
<ele>39.302734</ele>
<time>2012-07-26T20:13:59Z</time>
<speed>0.020000</speed>
<extensions>
<speed>0.0</speed>
<temp>0.00</temp>
<bpm>0</bpm>
<rpm>0.00</rpm>
</extensions>
</trkpt>
<trkpt lat="63.749607086" lon="-20.239995956">
<ele>39.294922</ele>
<time>2012-07-26T20:14:04Z</time>
<speed>0.010000</speed>
<extensions>
<speed>0.0</speed>
<temp>0.00</temp>
<bpm>0</bpm>
<rpm>0.00</rpm>
</extensions>
</trkpt>
<trkpt lat="63.749607086" lon="-20.239995956">
<ele>39.294922</ele>
<time>2012-07-26T20:14:09Z</time>
<speed>0.010000</speed>
<extensions>
<speed>0.0</speed>
<temp>0.00</temp>
<bpm>0</bpm>
<rpm>0.00</rpm>
</extensions>
</trkpt>
<trkpt lat="63.749607086" lon="-20.239995956">
<ele>39.301758</ele>
<time>2012-07-26T20:14:14Z</time>
<extensions>
<speed>0.0</speed>
<temp>0.00</temp>
<bpm>0</bpm>
<rpm>0.00</rpm>
</extensions>
</trkpt>
<trkpt lat="63.749607086" lon="-20.239997864">
<ele>39.346680</ele>
<time>2012-07-26T20:14:19Z</time>
<speed>0.020000</speed>
<extensions>
<speed>0.0</speed>
<temp>0.00</temp>
<bpm>0</bpm>
<rpm>0.00</rpm>
</extensions>
</trkpt>
<trkpt lat="63.749607086" lon="-20.239997864">
<ele>39.375977</ele>
<time>2012-07-26T20:14:24Z</time>
<extensions>
<speed>0.0</speed>
<temp>0.00</temp>
<bpm>0</bpm>
<rpm>0.00</rpm>
</extensions>
</trkpt>
<trkpt lat="63.749607086" lon="-20.239997864">
<ele>39.385742</ele>
<time>2012-07-26T20:14:29Z</time>
<speed>0.020000</speed>
<extensions>
<speed>0.0</speed>
<temp>0.00</temp>
<bpm>0</bpm>
<rpm>0.00</rpm>
</extensions>
</trkpt>
<trkpt lat="63.749607086" lon="-20.239997864">
<ele>39.403320</ele>
<time>2012-07-26T20:14:34Z</time>
<speed>0.010000</speed>
<extensions>
<speed>0.0</speed>
<temp>0.00</temp>
<bpm>0</bpm>
<rpm>0.00</rpm>
</extensions>
</trkpt>
<trkpt lat="63.749607086" lon="-20.239997864">
<ele>39.416992</ele>
<time>2012-07-26T20:14:39Z</time>
<extensions>
<speed>0.0</speed>
<temp>0.00</temp>
<bpm>0</bpm>
<rpm>0.00</rpm>
</extensions>
</trkpt>
<trkpt lat="63.749607086" lon="-20.239997864">
<ele>39.419922</ele>
<time>2012-07-26T20:14:44Z</time>
<speed>0.020000</speed>
<extensions>
<speed>0.0</speed>
<temp>0.00</temp>
<bpm>0</bpm>
<rpm>0.00</rpm>
</extensions>
</trkpt>
<trkpt lat="63.749607086" lon="-20.239997864">
<ele>39.417969</ele>
<time>2012-07-26T20:14:49Z</time>
<extensions>
<speed>0.0</speed>
<temp>0.00</temp>
<bpm>0</bpm>
<rpm>0.00</rpm>
</extensions>
</trkpt>
<trkpt lat="63.749603271" lon="-20.239995956">
<ele>39.421875</ele>
<time>2012-07-26T20:14:54Z</time>
<speed>0.030000</speed>
<extensions>
<speed>0.0</speed>
<temp>0.00</temp>
<bpm>0</bpm>
<rpm>0.00</rpm>
</extensions>
</trkpt>
<trkpt lat="63.749603271" lon="-20.239997864">
<ele>39.418945</ele>
<time>2012-07-26T20:14:59Z</time>
<speed>0.010000</speed>
<extensions>
<speed>0.0</speed>
<temp>0.00</temp>
<bpm>0</bpm>
<rpm>0.00</rpm>
</extensions>
</trkpt>
<trkpt lat="63.749603271" lon="-20.239997864">
<ele>39.416992</ele>
<time>2012-07-26T20:15:04Z</time>
<speed>0.010000</speed>
<extensions>
<speed>0.0</speed>
<temp>0.00</temp>
<bpm>0</bpm>
<rpm>0.00</rpm>
</extensions>
</trkpt>
<trkpt lat="63.749603271" lon="-20.239997864">
<ele>39.419922</ele>
<time>2012-07-26T20:15:09Z</time>
<extensions>
<speed>0.0</speed>
<temp>0.00</temp>
<bpm>0</bpm>
<rpm>0.00</rpm>
</extensions>
</trkpt>
<trkpt lat="63.749603271" lon="-20.239997864">
<ele>39.424805</ele>
<time>2012-07-26T20:15:14Z</time>
<extensions>
<speed>0.0</speed>
<temp>0.00</temp>
<bpm>0</bpm>
<rpm>0.00</rpm>
</extensions>
</trkpt>
<trkpt lat="63.749603271" lon="-20.239997864">
<ele>39.437500</ele>
<time>2012-07-26T20:15:19Z</time>
<extensions>
<speed>0.0</speed>
<temp>0.00</temp>
<bpm>0</bpm>
<rpm>0.00</rpm>
</extensions>
</trkpt>
<trkpt lat="63.749603271" lon="-20.239997864">
<ele>39.445313</ele>
<time>2012-07-26T20:15:24Z</time>
<extensions>
<speed>0.0</speed>
<temp>0.00</temp>
<bpm>0</bpm>
<rpm>0.00</rpm>
</extensions>
</trkpt>
<trkpt lat="63.749603271" lon="-20.239997864">
<ele>39.449219</ele>
<time>2012-07-26T20:15:29Z</time>
<extensions>
<speed>0.0</speed>
<temp>0.00</temp>
<bpm>0</bpm>
<rpm>0.00</rpm>
</extensions>
</trkpt>
<trkpt lat="63.749603271" lon="-20.239997864">
<ele>39.459961</ele>
<time>2012-07-26T20:15:34Z</time>
<extensions>
<speed>0.0</speed>
<temp>0.00</temp>
<bpm>0</bpm>
<rpm>0.00</rpm>
</extensions>
</trkpt>
<trkpt lat="63.749603271" lon="-20.239997864">
<ele>39.467773</ele>
<time>2012-07-26T20:15:39Z</time>
<extensions>
<speed>0.0</speed>
<temp>0.00</temp>
<bpm>0</bpm>
<rpm>0.00</rpm>
</extensions>
</trkpt>
<trkpt lat="63.749603271" lon="-20.239997864">
<ele>39.476563</ele>
<time>2012-07-26T20:15:44Z</time>
<extensions>
<speed>0.0</speed>
<temp>0.00</temp>
<bpm>0</bpm>
<rpm>0.00</rpm>
</extensions>
</trkpt>
<trkpt lat="63.749603271" lon="-20.239997864">
<ele>39.485352</ele>
<time>2012-07-26T20:15:49Z</time>
<extensions>
<speed>0.0</speed>
<temp>0.00</temp>
<bpm>0</bpm>
<rpm>0.00</rpm>
</extensions>
</trkpt>
<trkpt lat="63.749603271" lon="-20.239997864">
<ele>39.491211</ele>
<time>2012-07-26T20:15:54Z</time>
<extensions>
<speed>0.0</speed>
<temp>0.00</temp>
<bpm>0</bpm>
<rpm>0.00</rpm>
</extensions>
</trkpt>
<trkpt lat="63.749603271" lon="-20.239997864">
<ele>39.498047</ele>
<time>2012-07-26T20:15:59Z</time>
<extensions>
<speed>0.0</speed>
<temp>0.00</temp>
<bpm>0</bpm>
<rpm>0.00</rpm>
</extensions>
</trkpt>
<trkpt lat="63.749603271" lon="-20.239997864">
<ele>39.501953</ele>
<time>2012-07-26T20:16:04Z</time>
<extensions>
<speed>0.0</speed>
<temp>0.00</temp>
<bpm>0</bpm>
<rpm>0.00</rpm>
</extensions>
</trkpt>
<trkpt lat="63.749603271" lon="-20.239997864">
<ele>39.503906</ele>
<time>2012-07-26T20:16:09Z</time>
<extensions>
<speed>0.0</speed>
<temp>0.00</temp>
<bpm>0</bpm>
<rpm>0.00</rpm>
</extensions>
</trkpt>
<trkpt lat="63.749603271" lon="-20.239997864">
<ele>39.504883</ele>
<time>2012-07-26T20:16:14Z</time>
<speed>0.010000</speed>
<extensions>
<speed>0.0</speed>
<temp>0.00</temp>
<bpm>0</bpm>
<rpm>0.00</rpm>
</extensions>
</trkpt>
<trkpt lat="63.749603271" lon="-20.239997864">
<ele>39.508789</ele>
<time>2012-07-26T20:16:19Z</time>
<extensions>
<speed>0.0</speed>
<temp>0.00</temp>
<bpm>0</bpm>
<rpm>0.00</rpm>
</extensions>
</trkpt>
<trkpt lat="63.749603271" lon="-20.239999771">
<ele>39.509766</ele>
<time>2012-07-26T20:16:24Z</time>
<extensions>
<speed>0.0</speed>
<temp>0.00</temp>
<bpm>0</bpm>
<rpm>0.00</rpm>
</extensions>
</trkpt>
<trkpt lat="63.749603271" lon="-20.239999771">
<ele>39.513672</ele>
<time>2012-07-26T20:16:29Z</time>
<extensions>
<speed>0.0</speed>
<temp>0.00</temp>
<bpm>0</bpm>
<rpm>0.00</rpm>
</extensions>
</trkpt>
<trkpt lat="63.749603271" lon="-20.239999771">
<ele>39.521484</ele>
<time>2012-07-26T20:16:34Z</time>
<extensions>
<speed>0.0</speed>
<temp>0.00</temp>
<bpm>0</bpm>
<rpm>0.00</rpm>
</extensions>
</trkpt>
<trkpt lat="63.749603271" lon="-20.239999771">
<ele>39.525391</ele>
<time>2012-07-26T20:16:39Z</time>
<extensions>
<speed>0.0</speed>
<temp>0.00</temp>
<bpm>0</bpm>
<rpm>0.00</rpm>
</extensions>
</trkpt>
<trkpt lat="63.749603271" lon="-20.239999771">
<ele>39.532227</ele>
<time>2012-07-26T20:16:44Z</time>
<extensions>
<speed>0.0</speed>
<temp>0.00</temp>
<bpm>0</bpm>
<rpm>0.00</rpm>
</extensions>
</trkpt>
<trkpt lat="63.749603271" lon="-20.239999771">
<ele>39.538086</ele>
<time>2012-07-26T20:16:49Z</time>
<extensions>
<speed>0.0</speed>
<temp>0.00</temp>
<bpm>0</bpm>
<rpm>0.00</rpm>
</extensions>
</trkpt>
<trkpt lat="63.749599457" lon="-20.239999771">
<ele>39.544922</ele>
<time>2012-07-26T20:16:54Z</time>
<extensions>
<speed>0.0</speed>
<temp>0.00</temp>
<bpm>0</bpm>
<rpm>0.00</rpm>
</extensions>
</trkpt>
<trkpt lat="63.749599457" lon="-20.239999771">
<ele>39.547852</ele>
<time>2012-07-26T20:16:59Z</time>
<extensions>
<speed>0.0</speed>
<temp>0.00</temp>
<bpm>0</bpm>
<rpm>0.00</rpm>
</extensions>
</trkpt>
<trkpt lat="63.749599457" lon="-20.239999771">
<ele>39.556641</ele>
<time>2012-07-26T20:17:04Z</time>
<extensions>
<speed>0.0</speed>
<temp>0.00</temp>
<bpm>0</bpm>
<rpm>0.00</rpm>
</extensions>
</trkpt>
<trkpt lat="63.749599457" lon="-20.239999771">
<ele>39.562500</ele>
<time>2012-07-26T20:17:09Z</time>
<extensions>
<speed>0.0</speed>
<temp>0.00</temp>
<bpm>0</bpm>
<rpm>0.00</rpm>
</extensions>
</trkpt>
<trkpt lat="63.749599457" lon="-20.239999771">
<ele>39.564453</ele>
<time>2012-07-26T20:17:14Z</time>
<extensions>
<speed>0.0</speed>
<temp>0.00</temp>
<bpm>0</bpm>
<rpm>0.00</rpm>
</extensions>
</trkpt>
<trkpt lat="63.749599457" lon="-20.239999771">
<ele>39.564453</ele>
<time>2012-07-26T20:17:19Z</time>
<extensions>
<speed>0.0</speed>
<temp>0.00</temp>
<bpm>0</bpm>
<rpm>0.00</rpm>
</extensions>
</trkpt>
<trkpt lat="63.749599457" lon="-20.239999771">
<ele>39.566406</ele>
<time>2012-07-26T20:17:24Z</time>
<speed>0.020000</speed>
<extensions>
<speed>0.0</speed>
<temp>0.00</temp>
<bpm>0</bpm>
<rpm>0.00</rpm>
</extensions>
</trkpt>
<trkpt lat="63.749599457" lon="-20.240001678">
<ele>39.560547</ele>
<time>2012-07-26T20:17:29Z</time>
<speed>0.010000</speed>
<extensions>
<speed>0.0</speed>
<temp>0.00</temp>
<bpm>0</bpm>
<rpm>0.00</rpm>
</extensions>
</trkpt>
<trkpt lat="63.749599457" lon="-20.240001678">
<ele>39.563477</ele>
<time>2012-07-26T20:17:34Z</time>
<extensions>
<speed>0.0</speed>
<temp>0.00</temp>
<bpm>0</bpm>
<rpm>0.00</rpm>
</extensions>
</trkpt>
<trkpt lat="63.749599457" lon="-20.240001678">
<ele>39.567383</ele>
<time>2012-07-26T20:17:39Z</time>
<extensions>
<speed>0.0</speed>
<temp>0.00</temp>
<bpm>0</bpm>
<rpm>0.00</rpm>
</extensions>
</trkpt>
<trkpt lat="63.749599457" lon="-20.240001678">
<ele>39.573242</ele>
<time>2012-07-26T20:17:44Z</time>
<extensions>
<speed>0.0</speed>
<temp>0.00</temp>
<bpm>0</bpm>
<rpm>0.00</rpm>
</extensions>
</trkpt>
<trkpt lat="63.749599457" lon="-20.240001678">
<ele>39.583984</ele>
<time>2012-07-26T20:17:49Z</time>
<extensions>
<speed>0.0</speed>
<temp>0.00</temp>
<bpm>0</bpm>
<rpm>0.00</rpm>
</extensions>
</trkpt>
<trkpt lat="63.749599457" lon="-20.240001678">
<ele>39.593750</ele>
<time>2012-07-26T20:17:54Z</time>
<extensions>
<speed>0.0</speed>
<temp>0.00</temp>
<bpm>0</bpm>
<rpm>0.00</rpm>
</extensions>
</trkpt>
<trkpt lat="63.749599457" lon="-20.240001678">
<ele>39.609375</ele>
<time>2012-07-26T20:17:59Z</time>
<extensions>
<speed>0.0</speed>
<temp>0.00</temp>
<bpm>0</bpm>
<rpm>0.00</rpm>
</extensions>
</trkpt>
<trkpt lat="63.749599457" lon="-20.240001678">
<ele>39.613281</ele>
<time>2012-07-26T20:18:04Z</time>
<speed>0.030000</speed>
<extensions>
<speed>0.0</speed>
<temp>0.00</temp>
<bpm>0</bpm>
<rpm>0.00</rpm>
</extensions>
</trkpt>
<trkpt lat="63.749599457" lon="-20.240001678">
<ele>39.619141</ele>
<time>2012-07-26T20:18:09Z</time>
<speed>0.010000</speed>
<extensions>
<speed>0.0</speed>
<temp>0.00</temp>
<bpm>0</bpm>
<rpm>0.00</rpm>
</extensions>
</trkpt>
<trkpt lat="63.749599457" lon="-20.240001678">
<ele>39.621094</ele>
<time>2012-07-26T20:18:14Z</time>
<extensions>
<speed>0.0</speed>
<temp>0.00</temp>
<bpm>0</bpm>
<rpm>0.00</rpm>
</extensions>
</trkpt>
<trkpt lat="63.749599457" lon="-20.240001678">
<ele>39.623047</ele>
<time>2012-07-26T20:18:19Z</time>
<speed>0.010000</speed>
<extensions>
<speed>0.0</speed>
<temp>0.00</temp>
<bpm>0</bpm>
<rpm>0.00</rpm>
</extensions>
</trkpt>
<trkpt lat="63.749599457" lon="-20.240001678">
<ele>39.627930</ele>
<time>2012-07-26T20:18:24Z</time>
<extensions>
<speed>0.0</speed>
<temp>0.00</temp>
<bpm>0</bpm>
<rpm>0.00</rpm>
</extensions>
</trkpt>
<trkpt lat="63.749599457" lon="-20.240001678">
<ele>39.634766</ele>
<time>2012-07-26T20:18:29Z</time>
<extensions>
<speed>0.0</speed>
<temp>0.00</temp>
<bpm>0</bpm>
<rpm>0.00</rpm>
</extensions>
</trkpt>
<trkpt lat="63.749599457" lon="-20.240001678">
<ele>39.645508</ele>
<time>2012-07-26T20:18:34Z</time>
<extensions>
<speed>0.0</speed>
<temp>0.00</temp>
<bpm>0</bpm>
<rpm>0.00</rpm>
</extensions>
</trkpt>
<trkpt lat="63.749599457" lon="-20.240001678">
<ele>39.649414</ele>
<time>2012-07-26T20:18:39Z</time>
<extensions>
<speed>0.0</speed>
<temp>0.00</temp>
<bpm>0</bpm>
<rpm>0.00</rpm>
</extensions>
</trkpt>
<trkpt lat="63.749599457" lon="-20.240001678">
<ele>39.656250</ele>
<time>2012-07-26T20:18:44Z</time>
<speed>0.010000</speed>
<extensions>
<speed>0.0</speed>
<temp>0.00</temp>
<bpm>0</bpm>
<rpm>0.00</rpm>
</extensions>
</trkpt>
<trkpt lat="63.749599457" lon="-20.240001678">
<ele>39.664063</ele>
<time>2012-07-26T20:18:49Z</time>
<extensions>
<speed>0.0</speed>
<temp>0.00</temp>
<bpm>0</bpm>
<rpm>0.00</rpm>
</extensions>
</trkpt>
<trkpt lat="63.749599457" lon="-20.240001678">
<ele>39.666992</ele>
<time>2012-07-26T20:18:54Z</time>
<extensions>
<speed>0.0</speed>
<temp>0.00</temp>
<bpm>0</bpm>
<rpm>0.00</rpm>
</extensions>
</trkpt>
<trkpt lat="63.749599457" lon="-20.240001678">
<ele>39.670898</ele>
<time>2012-07-26T20:18:59Z</time>
<extensions>
<speed>0.0</speed>
<temp>0.00</temp>
<bpm>0</bpm>
<rpm>0.00</rpm>
</extensions>
</trkpt>
<trkpt lat="63.749599457" lon="-20.240001678">
<ele>39.675781</ele>
<time>2012-07-26T20:19:04Z</time>
<extensions>
<speed>0.0</speed>
<temp>0.00</temp>
<bpm>0</bpm>
<rpm>0.00</rpm>
</extensions>
</trkpt>
<trkpt lat="63.749599457" lon="-20.240001678">
<ele>39.681641</ele>
<time>2012-07-26T20:19:09Z</time>
<extensions>
<speed>0.0</speed>
<temp>0.00</temp>
<bpm>0</bpm>
<rpm>0.00</rpm>
</extensions>
</trkpt>
<trkpt lat="63.749599457" lon="-20.240001678">
<ele>39.688477</ele>
<time>2012-07-26T20:19:14Z</time>
<extensions>
<speed>0.0</speed>
<temp>0.00</temp>
<bpm>0</bpm>
<rpm>0.00</rpm>
</extensions>
</trkpt>
<trkpt lat="63.749599457" lon="-20.240001678">
<ele>39.693359</ele>
<time>2012-07-26T20:19:19Z</time>
<extensions>
<speed>0.0</speed>
<temp>0.00</temp>
<bpm>0</bpm>
<rpm>0.00</rpm>
</extensions>
</trkpt>
<trkpt lat="63.749599457" lon="-20.240001678">
<ele>39.699219</ele>
<time>2012-07-26T20:19:24Z</time>
<extensions>
<speed>0.0</speed>
<temp>0.00</temp>
<bpm>0</bpm>
<rpm>0.00</rpm>
</extensions>
</trkpt>
<trkpt lat="63.749599457" lon="-20.240001678">
<ele>39.703125</ele>
<time>2012-07-26T20:19:29Z</time>
<extensions>
<speed>0.0</speed>
<temp>0.00</temp>
<bpm>0</bpm>
<rpm>0.00</rpm>
</extensions>
</trkpt>
<trkpt lat="63.749599457" lon="-20.240001678">
<ele>39.714844</ele>
<time>2012-07-26T20:19:34Z</time>
<extensions>
<speed>0.0</speed>
<temp>0.00</temp>
<bpm>0</bpm>
<rpm>0.00</rpm>
</extensions>
</trkpt>
<trkpt lat="63.749599457" lon="-20.240001678">
<ele>39.716797</ele>
<time>2012-07-26T20:19:39Z</time>
<speed>0.010000</speed>
<extensions>
<speed>0.0</speed>
<temp>0.00</temp>
<bpm>0</bpm>
<rpm>0.00</rpm>
</extensions>
</trkpt>
<trkpt lat="63.749599457" lon="-20.240003586">
<ele>39.718750</ele>
<time>2012-07-26T20:19:44Z</time>
<extensions>
<speed>0.0</speed>
<temp>0.00</temp>
<bpm>0</bpm>
<rpm>0.00</rpm>
</extensions>
</trkpt>
<trkpt lat="63.749599457" lon="-20.240003586">
<ele>39.731445</ele>
<time>2012-07-26T20:19:49Z</time>
<extensions>
<speed>0.0</speed>
<temp>0.00</temp>
<bpm>0</bpm>
<rpm>0.00</rpm>
</extensions>
</trkpt>
<trkpt lat="63.749599457" lon="-20.240003586">
<ele>39.739258</ele>
<time>2012-07-26T20:19:54Z</time>
<extensions>
<speed>0.0</speed>
<temp>0.00</temp>
<bpm>0</bpm>
<rpm>0.00</rpm>
</extensions>
</trkpt>
<trkpt lat="63.749599457" lon="-20.240003586">
<ele>39.742188</ele>
<time>2012-07-26T20:19:59Z</time>
<extensions>
<speed>0.0</speed>
<temp>0.00</temp>
<bpm>0</bpm>
<rpm>0.00</rpm>
</extensions>
</trkpt>
<trkpt lat="63.749595642" lon="-20.240003586">
<ele>39.753906</ele>
<time>2012-07-26T20:20:04Z</time>
<extensions>
<speed>0.0</speed>
<temp>0.00</temp>
<bpm>0</bpm>
<rpm>0.00</rpm>
</extensions>
</trkpt>
<trkpt lat="63.749595642" lon="-20.240003586">
<ele>39.763672</ele>
<time>2012-07-26T20:20:09Z</time>
<speed>0.010000</speed>
<extensions>
<speed>0.0</speed>
<temp>0.00</temp>
<bpm>0</bpm>
<rpm>0.00</rpm>
</extensions>
</trkpt>
<trkpt lat="63.749595642" lon="-20.240003586">
<ele>39.775391</ele>
<time>2012-07-26T20:20:14Z</time>
<speed>0.010000</speed>
<extensions>
<speed>0.0</speed>
<temp>0.00</temp>
<bpm>0</bpm>
<rpm>0.00</rpm>
</extensions>
</trkpt>
<trkpt lat="63.749595642" lon="-20.240003586">
<ele>39.782227</ele>
<time>2012-07-26T20:20:19Z</time>
<speed>0.010000</speed>
<extensions>
<speed>0.0</speed>
<temp>0.00</temp>
<bpm>0</bpm>
<rpm>0.00</rpm>
</extensions>
</trkpt>
<trkpt lat="63.749595642" lon="-20.240003586">
<ele>39.789063</ele>
<time>2012-07-26T20:20:24Z</time>
<speed>0.010000</speed>
<extensions>
<speed>0.0</speed>
<temp>0.00</temp>
<bpm>0</bpm>
<rpm>0.00</rpm>
</extensions>
</trkpt>
<trkpt lat="63.749595642" lon="-20.240003586">
<ele>39.796875</ele>
<time>2012-07-26T20:20:29Z</time>
<extensions>
<speed>0.0</speed>
<temp>0.00</temp>
<bpm>0</bpm>
<rpm>0.00</rpm>
</extensions>
</trkpt>
<trkpt lat="63.749595642" lon="-20.240003586">
<ele>39.807617</ele>
<time>2012-07-26T20:20:34Z</time>
<extensions>
<speed>0.0</speed>
<temp>0.00</temp>
<bpm>0</bpm>
<rpm>0.00</rpm>
</extensions>
</trkpt>
<trkpt lat="63.749595642" lon="-20.240005493">
<ele>39.818359</ele>
<time>2012-07-26T20:20:39Z</time>
<speed>0.010000</speed>
<extensions>
<speed>0.0</speed>
<temp>0.00</temp>
<bpm>0</bpm>
<rpm>0.00</rpm>
</extensions>
</trkpt>
<trkpt lat="63.749595642" lon="-20.240005493">
<ele>39.825195</ele>
<time>2012-07-26T20:20:44Z</time>
<speed>0.020000</speed>
<extensions>
<speed>0.0</speed>
<temp>0.00</temp>
<bpm>0</bpm>
<rpm>0.00</rpm>
</extensions>
</trkpt>
<trkpt lat="63.749595642" lon="-20.240003586">
<ele>39.829102</ele>
<time>2012-07-26T20:20:49Z</time>
<speed>0.010000</speed>
<extensions>
<speed>0.0</speed>
<temp>0.00</temp>
<bpm>0</bpm>
<rpm>0.00</rpm>
</extensions>
</trkpt>
<trkpt lat="63.749595642" lon="-20.240003586">
<ele>39.824219</ele>
<time>2012-07-26T20:20:54Z</time>
<speed>0.010000</speed>
<extensions>
<speed>0.0</speed>
<temp>0.00</temp>
<bpm>0</bpm>
<rpm>0.00</rpm>
</extensions>
</trkpt>
<trkpt lat="63.749595642" lon="-20.240003586">
<ele>39.821289</ele>
<time>2012-07-26T20:20:59Z</time>
<extensions>
<speed>0.0</speed>
<temp>0.00</temp>
<bpm>0</bpm>
<rpm>0.00</rpm>
</extensions>
</trkpt>
<trkpt lat="63.749595642" lon="-20.240003586">
<ele>39.824219</ele>
<time>2012-07-26T20:21:04Z</time>
<extensions>
<speed>0.0</speed>
<temp>0.00</temp>
<bpm>0</bpm>
<rpm>0.00</rpm>
</extensions>
</trkpt>
<trkpt lat="63.749595642" lon="-20.240003586">
<ele>39.827148</ele>
<time>2012-07-26T20:21:09Z</time>
<extensions>
<speed>0.0</speed>
<temp>0.00</temp>
<bpm>0</bpm>
<rpm>0.00</rpm>
</extensions>
</trkpt>
<trkpt lat="63.749595642" lon="-20.240003586">
<ele>39.827148</ele>
<time>2012-07-26T20:21:14Z</time>
<extensions>
<speed>0.0</speed>
<temp>0.00</temp>
<bpm>0</bpm>
<rpm>0.00</rpm>
</extensions>
</trkpt>
<trkpt lat="63.749595642" lon="-20.240003586">
<ele>39.841797</ele>
<time>2012-07-26T20:21:19Z</time>
<speed>0.010000</speed>
<extensions>
<speed>0.0</speed>
<temp>0.00</temp>
<bpm>0</bpm>
<rpm>0.00</rpm>
</extensions>
</trkpt>
<trkpt lat="63.749595642" lon="-20.240003586">
<ele>39.848633</ele>
<time>2012-07-26T20:21:24Z</time>
<speed>0.010000</speed>
<extensions>
<speed>0.0</speed>
<temp>0.00</temp>
<bpm>0</bpm>
<rpm>0.00</rpm>
</extensions>
</trkpt>
<trkpt lat="63.749595642" lon="-20.240003586">
<ele>39.866211</ele>
<time>2012-07-26T20:21:29Z</time>
<extensions>
<speed>0.0</speed>
<temp>0.00</temp>
<bpm>0</bpm>
<rpm>0.00</rpm>
</extensions>
</trkpt>
<trkpt lat="63.749595642" lon="-20.240003586">
<ele>39.875000</ele>
<time>2012-07-26T20:21:34Z</time>
<extensions>
<speed>0.0</speed>
<temp>0.00</temp>
<bpm>0</bpm>
<rpm>0.00</rpm>
</extensions>
</trkpt>
<trkpt lat="63.749595642" lon="-20.240003586">
<ele>39.884766</ele>
<time>2012-07-26T20:21:39Z</time>
<speed>0.030000</speed>
<extensions>
<speed>0.0</speed>
<temp>0.00</temp>
<bpm>0</bpm>
<rpm>0.00</rpm>
</extensions>
</trkpt>
<trkpt lat="63.749595642" lon="-20.240003586">
<ele>39.888672</ele>
<time>2012-07-26T20:21:44Z</time>
<speed>0.010000</speed>
<extensions>
<speed>0.0</speed>
<temp>0.00</temp>
<bpm>0</bpm>
<rpm>0.00</rpm>
</extensions>
</trkpt>
<trkpt lat="63.749595642" lon="-20.240003586">
<ele>39.900391</ele>
<time>2012-07-26T20:21:49Z</time>
<speed>0.020000</speed>
<extensions>
<speed>0.0</speed>
<temp>0.00</temp>
<bpm>0</bpm>
<rpm>0.00</rpm>
</extensions>
</trkpt>
<trkpt lat="63.749595642" lon="-20.240003586">
<ele>39.912109</ele>
<time>2012-07-26T20:21:54Z</time>
<speed>0.040000</speed>
<extensions>
<speed>0.0</speed>
<temp>0.00</temp>
<bpm>0</bpm>
<rpm>0.00</rpm>
</extensions>
</trkpt>
<trkpt lat="63.749595642" lon="-20.240003586">
<ele>39.921875</ele>
<time>2012-07-26T20:21:59Z</time>
<speed>0.010000</speed>
<extensions>
<speed>0.0</speed>
<temp>0.00</temp>
<bpm>0</bpm>
<rpm>0.00</rpm>
</extensions>
</trkpt>
<trkpt lat="63.749595642" lon="-20.240003586">
<ele>39.933594</ele>
<time>2012-07-26T20:22:04Z</time>
<extensions>
<speed>0.0</speed>
<temp>0.00</temp>
<bpm>0</bpm>
<rpm>0.00</rpm>
</extensions>
</trkpt>
<trkpt lat="63.749595642" lon="-20.240003586">
<ele>39.942383</ele>
<time>2012-07-26T20:22:09Z</time>
<extensions>
<speed>0.0</speed>
<temp>0.00</temp>
<bpm>0</bpm>
<rpm>0.00</rpm>
</extensions>
</trkpt>
<trkpt lat="63.749595642" lon="-20.240003586">
<ele>39.955078</ele>
<time>2012-07-26T20:22:14Z</time>
<extensions>
<speed>0.0</speed>
<temp>0.00</temp>
<bpm>0</bpm>
<rpm>0.00</rpm>
</extensions>
</trkpt>
<trkpt lat="63.749595642" lon="-20.240003586">
<ele>39.958984</ele>
<time>2012-07-26T20:22:19Z</time>
<extensions>
<speed>0.0</speed>
<temp>0.00</temp>
<bpm>0</bpm>
<rpm>0.00</rpm>
</extensions>
</trkpt>
<trkpt lat="63.749595642" lon="-20.240003586">
<ele>39.969727</ele>
<time>2012-07-26T20:22:24Z</time>
<extensions>
<speed>0.0</speed>
<temp>0.00</temp>
<bpm>0</bpm>
<rpm>0.00</rpm>
</extensions>
</trkpt>
<trkpt lat="63.749595642" lon="-20.240003586">
<ele>39.973633</ele>
<time>2012-07-26T20:22:29Z</time>
<speed>0.010000</speed>
<extensions>
<speed>0.0</speed>
<temp>0.00</temp>
<bpm>0</bpm>
<rpm>0.00</rpm>
</extensions>
</trkpt>
<trkpt lat="63.749595642" lon="-20.240003586">
<ele>39.982422</ele>
<time>2012-07-26T20:22:34Z</time>
<extensions>
<speed>0.0</speed>
<temp>0.00</temp>
<bpm>0</bpm>
<rpm>0.00</rpm>
</extensions>
</trkpt>
<trkpt lat="63.749595642" lon="-20.240003586">
<ele>39.983398</ele>
<time>2012-07-26T20:22:39Z</time>
<extensions>
<speed>0.0</speed>
<temp>0.00</temp>
<bpm>0</bpm>
<rpm>0.00</rpm>
</extensions>
</trkpt>
<trkpt lat="63.749595642" lon="-20.240003586">
<ele>39.989258</ele>
<time>2012-07-26T20:22:44Z</time>
<extensions>
<speed>0.0</speed>
<temp>0.00</temp>
<bpm>0</bpm>
<rpm>0.00</rpm>
</extensions>
</trkpt>
<trkpt lat="63.749595642" lon="-20.240003586">
<ele>39.990234</ele>
<time>2012-07-26T20:22:49Z</time>
<extensions>
<speed>0.0</speed>
<temp>0.00</temp>
<bpm>0</bpm>
<rpm>0.00</rpm>
</extensions>
</trkpt>
<trkpt lat="63.749595642" lon="-20.240001678">
<ele>39.991211</ele>
<time>2012-07-26T20:22:54Z</time>
<extensions>
<speed>0.0</speed>
<temp>0.00</temp>
<bpm>0</bpm>
<rpm>0.00</rpm>
</extensions>
</trkpt>
<trkpt lat="63.749595642" lon="-20.240001678">
<ele>39.996094</ele>
<time>2012-07-26T20:22:59Z</time>
<extensions>
<speed>0.0</speed>
<temp>0.00</temp>
<bpm>0</bpm>
<rpm>0.00</rpm>
</extensions>
</trkpt>
<trkpt lat="63.749595642" lon="-20.240001678">
<ele>40.003906</ele>
<time>2012-07-26T20:23:04Z</time>
<extensions>
<speed>0.0</speed>
<temp>0.00</temp>
<bpm>0</bpm>
<rpm>0.00</rpm>
</extensions>
</trkpt>
<trkpt lat="63.749595642" lon="-20.240001678">
<ele>40.009766</ele>
<time>2012-07-26T20:23:09Z</time>
<speed>0.010000</speed>
<extensions>
<speed>0.0</speed>
<temp>0.00</temp>
<bpm>0</bpm>
<rpm>0.00</rpm>
</extensions>
</trkpt>
<trkpt lat="63.749595642" lon="-20.240001678">
<ele>40.016602</ele>
<time>2012-07-26T20:23:14Z</time>
<extensions>
<speed>0.0</speed>
<temp>0.00</temp>
<bpm>0</bpm>
<rpm>0.00</rpm>
</extensions>
</trkpt>
<trkpt lat="63.749595642" lon="-20.240001678">
<ele>40.024414</ele>
<time>2012-07-26T20:23:19Z</time>
<speed>0.010000</speed>
<extensions>
<speed>0.0</speed>
<temp>0.00</temp>
<bpm>0</bpm>
<rpm>0.00</rpm>
</extensions>
</trkpt>
<trkpt lat="63.749595642" lon="-20.240001678">
<ele>40.027344</ele>
<time>2012-07-26T20:23:24Z</time>
<extensions>
<speed>0.0</speed>
<temp>0.00</temp>
<bpm>0</bpm>
<rpm>0.00</rpm>
</extensions>
</trkpt>
<trkpt lat="63.749595642" lon="-20.240001678">
<ele>40.042969</ele>
<time>2012-07-26T20:23:29Z</time>
<extensions>
<speed>0.0</speed>
<temp>0.00</temp>
<bpm>0</bpm>
<rpm>0.00</rpm>
</extensions>
</trkpt>
<trkpt lat="63.749595642" lon="-20.240001678">
<ele>40.054688</ele>
<time>2012-07-26T20:23:34Z</time>
<speed>0.010000</speed>
<extensions>
<speed>0.0</speed>
<temp>0.00</temp>
<bpm>0</bpm>
<rpm>0.00</rpm>
</extensions>
</trkpt>
<trkpt lat="63.749595642" lon="-20.240001678">
<ele>40.068359</ele>
<time>2012-07-26T20:23:39Z</time>
<extensions>
<speed>0.0</speed>
<temp>0.00</temp>
<bpm>0</bpm>
<rpm>0.00</rpm>
</extensions>
</trkpt>
<trkpt lat="63.749595642" lon="-20.240001678">
<ele>40.075195</ele>
<time>2012-07-26T20:23:44Z</time>
<speed>0.020000</speed>
<extensions>
<speed>0.0</speed>
<temp>0.00</temp>
<bpm>0</bpm>
<rpm>0.00</rpm>
</extensions>
</trkpt>
<trkpt lat="63.749591827" lon="-20.240001678">
<ele>40.083984</ele>
<time>2012-07-26T20:23:49Z</time>
<speed>0.020000</speed>
<extensions>
<speed>0.0</speed>
<temp>0.00</temp>
<bpm>0</bpm>
<rpm>0.00</rpm>
</extensions>
</trkpt>
<trkpt lat="63.749591827" lon="-20.240001678">
<ele>40.088867</ele>
<time>2012-07-26T20:23:54Z</time>
<speed>0.010000</speed>
<extensions>
<speed>0.0</speed>
<temp>0.00</temp>
<bpm>0</bpm>
<rpm>0.00</rpm>
</extensions>
</trkpt>
<trkpt lat="63.749591827" lon="-20.240001678">
<ele>40.098633</ele>
<time>2012-07-26T20:23:59Z</time>
<speed>0.010000</speed>
<extensions>
<speed>0.0</speed>
<temp>0.00</temp>
<bpm>0</bpm>
<rpm>0.00</rpm>
</extensions>
</trkpt>
<trkpt lat="63.749591827" lon="-20.240001678">
<ele>40.100586</ele>
<time>2012-07-26T20:24:04Z</time>
<extensions>
<speed>0.0</speed>
<temp>0.00</temp>
<bpm>0</bpm>
<rpm>0.00</rpm>
</extensions>
</trkpt>
<trkpt lat="63.749591827" lon="-20.240001678">
<ele>40.092773</ele>
<time>2012-07-26T20:24:09Z</time>
<speed>0.040000</speed>
<extensions>
<speed>0.0</speed>
<temp>0.00</temp>
<bpm>0</bpm>
<rpm>0.00</rpm>
</extensions>
</trkpt>
<trkpt lat="63.749591827" lon="-20.240001678">
<ele>40.103516</ele>
<time>2012-07-26T20:24:14Z</time>
<extensions>
<speed>0.0</speed>
<temp>0.00</temp>
<bpm>0</bpm>
<rpm>0.00</rpm>
</extensions>
</trkpt>
<trkpt lat="63.749591827" lon="-20.240001678">
<ele>40.110352</ele>
<time>2012-07-26T20:24:19Z</time>
<extensions>
<speed>0.0</speed>
<temp>0.00</temp>
<bpm>0</bpm>
<rpm>0.00</rpm>
</extensions>
</trkpt>
<trkpt lat="63.749591827" lon="-20.240001678">
<ele>40.111328</ele>
<time>2012-07-26T20:24:24Z</time>
<extensions>
<speed>0.0</speed>
<temp>0.00</temp>
<bpm>0</bpm>
<rpm>0.00</rpm>
</extensions>
</trkpt>
<trkpt lat="63.749591827" lon="-20.240001678">
<ele>40.108398</ele>
<time>2012-07-26T20:24:29Z</time>
<speed>0.010000</speed>
<extensions>
<speed>0.0</speed>
<temp>0.00</temp>
<bpm>0</bpm>
<rpm>0.00</rpm>
</extensions>
</trkpt>
<trkpt lat="63.749591827" lon="-20.240001678">
<ele>40.111328</ele>
<time>2012-07-26T20:24:34Z</time>
<extensions>
<speed>0.0</speed>
<temp>0.00</temp>
<bpm>0</bpm>
<rpm>0.00</rpm>
</extensions>
</trkpt>
<trkpt lat="63.749591827" lon="-20.240001678">
<ele>40.115234</ele>
<time>2012-07-26T20:24:39Z</time>
<extensions>
<speed>0.0</speed>
<temp>0.00</temp>
<bpm>0</bpm>
<rpm>0.00</rpm>
</extensions>
</trkpt>
<trkpt lat="63.749591827" lon="-20.240001678">
<ele>40.116211</ele>
<time>2012-07-26T20:24:44Z</time>
<extensions>
<speed>0.0</speed>
<temp>0.00</temp>
<bpm>0</bpm>
<rpm>0.00</rpm>
</extensions>
</trkpt>
<trkpt lat="63.749591827" lon="-20.240001678">
<ele>40.111328</ele>
<time>2012-07-26T20:24:49Z</time>
<extensions>
<speed>0.0</speed>
<temp>0.00</temp>
<bpm>0</bpm>
<rpm>0.00</rpm>
</extensions>
</trkpt>
<trkpt lat="63.749591827" lon="-20.240001678">
<ele>40.113281</ele>
<time>2012-07-26T20:24:54Z</time>
<speed>0.020000</speed>
<extensions>
<speed>0.0</speed>
<temp>0.00</temp>
<bpm>0</bpm>
<rpm>0.00</rpm>
</extensions>
</trkpt>
<trkpt lat="63.749591827" lon="-20.240001678">
<ele>40.112305</ele>
<time>2012-07-26T20:24:59Z</time>
<extensions>
<speed>0.0</speed>
<temp>0.00</temp>
<bpm>0</bpm>
<rpm>0.00</rpm>
</extensions>
</trkpt>
<trkpt lat="63.749591827" lon="-20.240001678">
<ele>40.121094</ele>
<time>2012-07-26T20:25:04Z</time>
<speed>0.050000</speed>
<extensions>
<speed>0.1</speed>
<temp>0.00</temp>
<bpm>0</bpm>
<rpm>0.00</rpm>
</extensions>
</trkpt>
<trkpt lat="63.749595642" lon="-20.240001678">
<ele>40.115234</ele>
<time>2012-07-26T20:25:09Z</time>
<speed>0.010000</speed>
<extensions>
<speed>0.0</speed>
<temp>0.00</temp>
<bpm>0</bpm>
<rpm>0.00</rpm>
</extensions>
</trkpt>
<trkpt lat="63.749591827" lon="-20.240001678">
<ele>40.124023</ele>
<time>2012-07-26T20:25:14Z</time>
<extensions>
<speed>0.0</speed>
<temp>0.00</temp>
<bpm>0</bpm>
<rpm>0.00</rpm>
</extensions>
</trkpt>
<trkpt lat="63.749591827" lon="-20.240001678">
<ele>40.121094</ele>
<time>2012-07-26T20:25:19Z</time>
<speed>0.010000</speed>
<extensions>
<speed>0.0</speed>
<temp>0.00</temp>
<bpm>0</bpm>
<rpm>0.00</rpm>
</extensions>
</trkpt>
<trkpt lat="63.749591827" lon="-20.240003586">
<ele>40.123047</ele>
<time>2012-07-26T20:25:24Z</time>
<speed>0.020000</speed>
<extensions>
<speed>0.0</speed>
<temp>0.00</temp>
<bpm>0</bpm>
<rpm>0.00</rpm>
</extensions>
</trkpt>
<trkpt lat="63.749591827" lon="-20.240003586">
<ele>40.121094</ele>
<time>2012-07-26T20:25:29Z</time>
<speed>0.010000</speed>
<extensions>
<speed>0.0</speed>
<temp>0.00</temp>
<bpm>0</bpm>
<rpm>0.00</rpm>
</extensions>
</trkpt>
<trkpt lat="63.749591827" lon="-20.240003586">
<ele>40.119141</ele>
<time>2012-07-26T20:25:34Z</time>
<extensions>
<speed>0.0</speed>
<temp>0.00</temp>
<bpm>0</bpm>
<rpm>0.00</rpm>
</extensions>
</trkpt>
<trkpt lat="63.749591827" lon="-20.240003586">
<ele>40.116211</ele>
<time>2012-07-26T20:25:39Z</time>
<speed>0.010000</speed>
<extensions>
<speed>0.0</speed>
<temp>0.00</temp>
<bpm>0</bpm>
<rpm>0.00</rpm>
</extensions>
</trkpt>
<trkpt lat="63.749591827" lon="-20.240003586">
<ele>40.119141</ele>
<time>2012-07-26T20:25:44Z</time>
<extensions>
<speed>0.0</speed>
<temp>0.00</temp>
<bpm>0</bpm>
<rpm>0.00</rpm>
</extensions>
</trkpt>
<trkpt lat="63.749591827" lon="-20.240003586">
<ele>40.117188</ele>
<time>2012-07-26T20:25:49Z</time>
<speed>0.020000</speed>
<extensions>
<speed>0.0</speed>
<temp>0.00</temp>
<bpm>0</bpm>
<rpm>0.00</rpm>
</extensions>
</trkpt>
<trkpt lat="63.749591827" lon="-20.240003586">
<ele>40.124023</ele>
<time>2012-07-26T20:25:54Z</time>
<extensions>
<speed>0.0</speed>
<temp>0.00</temp>
<bpm>0</bpm>
<rpm>0.00</rpm>
</extensions>
</trkpt>
<trkpt lat="63.749591827" lon="-20.240003586">
<ele>40.127930</ele>
<time>2012-07-26T20:25:59Z</time>
<speed>0.010000</speed>
<extensions>
<speed>0.0</speed>
<temp>0.00</temp>
<bpm>0</bpm>
<rpm>0.00</rpm>
</extensions>
</trkpt>
<trkpt lat="63.749591827" lon="-20.240003586">
<ele>40.129883</ele>
<time>2012-07-26T20:26:04Z</time>
<extensions>
<speed>0.0</speed>
<temp>0.00</temp>
<bpm>0</bpm>
<rpm>0.00</rpm>
</extensions>
</trkpt>
<trkpt lat="63.749591827" lon="-20.240005493">
<ele>40.130859</ele>
<time>2012-07-26T20:26:09Z</time>
<extensions>
<speed>0.0</speed>
<temp>0.00</temp>
<bpm>0</bpm>
<rpm>0.00</rpm>
</extensions>
</trkpt>
<trkpt lat="63.749591827" lon="-20.240005493">
<ele>40.133789</ele>
<time>2012-07-26T20:26:14Z</time>
<extensions>
<speed>0.0</speed>
<temp>0.00</temp>
<bpm>0</bpm>
<rpm>0.00</rpm>
</extensions>
</trkpt>
<trkpt lat="63.749591827" lon="-20.240005493">
<ele>40.142578</ele>
<time>2012-07-26T20:26:19Z</time>
<speed>0.010000</speed>
<extensions>
<speed>0.0</speed>
<temp>0.00</temp>
<bpm>0</bpm>
<rpm>0.00</rpm>
</extensions>
</trkpt>
<trkpt lat="63.749591827" lon="-20.240005493">
<ele>40.159180</ele>
<time>2012-07-26T20:26:24Z</time>
<extensions>
<speed>0.0</speed>
<temp>0.00</temp>
<bpm>0</bpm>
<rpm>0.00</rpm>
</extensions>
</trkpt>
<trkpt lat="63.749591827" lon="-20.240005493">
<ele>40.161133</ele>
<time>2012-07-26T20:26:29Z</time>
<extensions>
<speed>0.0</speed>
<temp>0.00</temp>
<bpm>0</bpm>
<rpm>0.00</rpm>
</extensions>
</trkpt>
<trkpt lat="63.749591827" lon="-20.240005493">
<ele>40.170898</ele>
<time>2012-07-26T20:26:34Z</time>
<extensions>
<speed>0.0</speed>
<temp>0.00</temp>
<bpm>0</bpm>
<rpm>0.00</rpm>
</extensions>
</trkpt>
<trkpt lat="63.749591827" lon="-20.240005493">
<ele>40.179688</ele>
<time>2012-07-26T20:26:39Z</time>
<speed>0.010000</speed>
<extensions>
<speed>0.0</speed>
<temp>0.00</temp>
<bpm>0</bpm>
<rpm>0.00</rpm>
</extensions>
</trkpt>
<trkpt lat="63.749591827" lon="-20.240005493">
<ele>40.180664</ele>
<time>2012-07-26T20:26:44Z</time>
<extensions>
<speed>0.0</speed>
<temp>0.00</temp>
<bpm>0</bpm>
<rpm>0.00</rpm>
</extensions>
</trkpt>
<trkpt lat="63.749591827" lon="-20.240005493">
<ele>40.178711</ele>
<time>2012-07-26T20:26:49Z</time>
<speed>0.010000</speed>
<extensions>
<speed>0.0</speed>
<temp>0.00</temp>
<bpm>0</bpm>
<rpm>0.00</rpm>
</extensions>
</trkpt>
<trkpt lat="63.749591827" lon="-20.240005493">
<ele>40.180664</ele>
<time>2012-07-26T20:26:54Z</time>
<extensions>
<speed>0.0</speed>
<temp>0.00</temp>
<bpm>0</bpm>
<rpm>0.00</rpm>
</extensions>
</trkpt>
<trkpt lat="63.749591827" lon="-20.240005493">
<ele>40.185547</ele>
<time>2012-07-26T20:26:59Z</time>
<extensions>
<speed>0.0</speed>
<temp>0.00</temp>
<bpm>0</bpm>
<rpm>0.00</rpm>
</extensions>
</trkpt>
<trkpt lat="63.749591827" lon="-20.240005493">
<ele>40.187500</ele>
<time>2012-07-26T20:27:04Z</time>
<extensions>
<speed>0.0</speed>
<temp>0.00</temp>
<bpm>0</bpm>
<rpm>0.00</rpm>
</extensions>
</trkpt>
<trkpt lat="63.749591827" lon="-20.240005493">
<ele>40.196289</ele>
<time>2012-07-26T20:27:09Z</time>
<speed>0.010000</speed>
<extensions>
<speed>0.0</speed>
<temp>0.00</temp>
<bpm>0</bpm>
<rpm>0.00</rpm>
</extensions>
</trkpt>
<trkpt lat="63.749591827" lon="-20.240007401">
<ele>40.194336</ele>
<time>2012-07-26T20:27:14Z</time>
<extensions>
<speed>0.0</speed>
<temp>0.00</temp>
<bpm>0</bpm>
<rpm>0.00</rpm>
</extensions>
</trkpt>
<trkpt lat="63.749591827" lon="-20.240007401">
<ele>40.188477</ele>
<time>2012-07-26T20:27:19Z</time>
<speed>0.010000</speed>
<extensions>
<speed>0.0</speed>
<temp>0.00</temp>
<bpm>0</bpm>
<rpm>0.00</rpm>
</extensions>
</trkpt>
<trkpt lat="63.749591827" lon="-20.240007401">
<ele>40.185547</ele>
<time>2012-07-26T20:27:24Z</time>
<speed>0.010000</speed>
<extensions>
<speed>0.0</speed>
<temp>0.00</temp>
<bpm>0</bpm>
<rpm>0.00</rpm>
</extensions>
</trkpt>
<trkpt lat="63.749591827" lon="-20.240007401">
<ele>40.191406</ele>
<time>2012-07-26T20:27:29Z</time>
<speed>0.010000</speed>
<extensions>
<speed>0.0</speed>
<temp>0.00</temp>
<bpm>0</bpm>
<rpm>0.00</rpm>
</extensions>
</trkpt>
<trkpt lat="63.749591827" lon="-20.240007401">
<ele>40.192383</ele>
<time>2012-07-26T20:27:34Z</time>
<extensions>
<speed>0.0</speed>
<temp>0.00</temp>
<bpm>0</bpm>
<rpm>0.00</rpm>
</extensions>
</trkpt>
<trkpt lat="63.749591827" lon="-20.240007401">
<ele>40.192383</ele>
<time>2012-07-26T20:27:39Z</time>
<speed>0.010000</speed>
<extensions>
<speed>0.0</speed>
<temp>0.00</temp>
<bpm>0</bpm>
<rpm>0.00</rpm>
</extensions>
</trkpt>
<trkpt lat="63.749591827" lon="-20.240007401">
<ele>40.180664</ele>
<time>2012-07-26T20:27:44Z</time>
<extensions>
<speed>0.0</speed>
<temp>0.00</temp>
<bpm>0</bpm>
<rpm>0.00</rpm>
</extensions>
</trkpt>
<trkpt lat="63.749591827" lon="-20.240007401">
<ele>40.187500</ele>
<time>2012-07-26T20:27:49Z</time>
<speed>0.020000</speed>
<extensions>
<speed>0.0</speed>
<temp>0.00</temp>
<bpm>0</bpm>
<rpm>0.00</rpm>
</extensions>
</trkpt>
<trkpt lat="63.749591827" lon="-20.240007401">
<ele>40.185547</ele>
<time>2012-07-26T20:27:54Z</time>
<speed>0.020000</speed>
<extensions>
<speed>0.0</speed>
<temp>0.00</temp>
<bpm>0</bpm>
<rpm>0.00</rpm>
</extensions>
</trkpt>
<trkpt lat="63.749591827" lon="-20.240009308">
<ele>40.184570</ele>
<time>2012-07-26T20:27:59Z</time>
<extensions>
<speed>0.0</speed>
<temp>0.00</temp>
<bpm>0</bpm>
<rpm>0.00</rpm>
</extensions>
</trkpt>
<trkpt lat="63.749591827" lon="-20.240009308">
<ele>40.189453</ele>
<time>2012-07-26T20:28:04Z</time>
<extensions>
<speed>0.0</speed>
<temp>0.00</temp>
<bpm>0</bpm>
<rpm>0.00</rpm>
</extensions>
</trkpt>
<trkpt lat="63.749591827" lon="-20.240009308">
<ele>40.189453</ele>
<time>2012-07-26T20:28:09Z</time>
<speed>0.010000</speed>
<extensions>
<speed>0.0</speed>
<temp>0.00</temp>
<bpm>0</bpm>
<rpm>0.00</rpm>
</extensions>
</trkpt>
<trkpt lat="63.749591827" lon="-20.240009308">
<ele>40.190430</ele>
<time>2012-07-26T20:28:14Z</time>
<speed>0.010000</speed>
<extensions>
<speed>0.0</speed>
<temp>0.00</temp>
<bpm>0</bpm>
<rpm>0.00</rpm>
</extensions>
</trkpt>
<trkpt lat="63.749591827" lon="-20.240009308">
<ele>40.197266</ele>
<time>2012-07-26T20:28:19Z</time>
<speed>0.020000</speed>
<extensions>
<speed>0.0</speed>
<temp>0.00</temp>
<bpm>0</bpm>
<rpm>0.00</rpm>
</extensions>
</trkpt>
<trkpt lat="63.749591827" lon="-20.240009308">
<ele>40.211914</ele>
<time>2012-07-26T20:28:24Z</time>
<extensions>
<speed>0.0</speed>
<temp>0.00</temp>
<bpm>0</bpm>
<rpm>0.00</rpm>
</extensions>
</trkpt>
<trkpt lat="63.749591827" lon="-20.240009308">
<ele>40.223633</ele>
<time>2012-07-26T20:28:29Z</time>
<speed>0.010000</speed>
<extensions>
<speed>0.0</speed>
<temp>0.00</temp>
<bpm>0</bpm>
<rpm>0.00</rpm>
</extensions>
</trkpt>
<trkpt lat="63.749591827" lon="-20.240009308">
<ele>40.236328</ele>
<time>2012-07-26T20:28:34Z</time>
<speed>0.010000</speed>
<extensions>
<speed>0.0</speed>
<temp>0.00</temp>
<bpm>0</bpm>
<rpm>0.00</rpm>
</extensions>
</trkpt>
<trkpt lat="63.749591827" lon="-20.240009308">
<ele>40.250000</ele>
<time>2012-07-26T20:28:39Z</time>
<extensions>
<speed>0.0</speed>
<temp>0.00</temp>
<bpm>0</bpm>
<rpm>0.00</rpm>
</extensions>
</trkpt>
<trkpt lat="63.749591827" lon="-20.240009308">
<ele>40.262695</ele>
<time>2012-07-26T20:28:44Z</time>
<speed>0.010000</speed>
<extensions>
<speed>0.0</speed>
<temp>0.00</temp>
<bpm>0</bpm>
<rpm>0.00</rpm>
</extensions>
</trkpt>
<trkpt lat="63.749591827" lon="-20.240009308">
<ele>40.273438</ele>
<time>2012-07-26T20:28:49Z</time>
<extensions>
<speed>0.0</speed>
<temp>0.00</temp>
<bpm>0</bpm>
<rpm>0.00</rpm>
</extensions>
</trkpt>
<trkpt lat="63.749591827" lon="-20.240009308">
<ele>40.283203</ele>
<time>2012-07-26T20:28:54Z</time>
<extensions>
<speed>0.0</speed>
<temp>0.00</temp>
<bpm>0</bpm>
<rpm>0.00</rpm>
</extensions>
</trkpt>
<trkpt lat="63.749591827" lon="-20.240009308">
<ele>40.290039</ele>
<time>2012-07-26T20:28:59Z</time>
<extensions>
<speed>0.0</speed>
<temp>0.00</temp>
<bpm>0</bpm>
<rpm>0.00</rpm>
</extensions>
</trkpt>
<trkpt lat="63.749591827" lon="-20.240009308">
<ele>40.297852</ele>
<time>2012-07-26T20:29:04Z</time>
<extensions>
<speed>0.0</speed>
<temp>0.00</temp>
<bpm>0</bpm>
<rpm>0.00</rpm>
</extensions>
</trkpt>
<trkpt lat="63.749591827" lon="-20.240009308">
<ele>40.303711</ele>
<time>2012-07-26T20:29:09Z</time>
<extensions>
<speed>0.0</speed>
<temp>0.00</temp>
<bpm>0</bpm>
<rpm>0.00</rpm>
</extensions>
</trkpt>
<trkpt lat="63.749591827" lon="-20.240009308">
<ele>40.306641</ele>
<time>2012-07-26T20:29:14Z</time>
<speed>0.010000</speed>
<extensions>
<speed>0.0</speed>
<temp>0.00</temp>
<bpm>0</bpm>
<rpm>0.00</rpm>
</extensions>
</trkpt>
<trkpt lat="63.749591827" lon="-20.240009308">
<ele>40.310547</ele>
<time>2012-07-26T20:29:19Z</time>
<extensions>
<speed>0.0</speed>
<temp>0.00</temp>
<bpm>0</bpm>
<rpm>0.00</rpm>
</extensions>
</trkpt>
<trkpt lat="63.749591827" lon="-20.240011215">
<ele>40.320313</ele>
<time>2012-07-26T20:29:24Z</time>
<extensions>
<speed>0.0</speed>
<temp>0.00</temp>
<bpm>0</bpm>
<rpm>0.00</rpm>
</extensions>
</trkpt>
<trkpt lat="63.749591827" lon="-20.240009308">
<ele>40.325195</ele>
<time>2012-07-26T20:29:29Z</time>
<speed>0.010000</speed>
<extensions>
<speed>0.0</speed>
<temp>0.00</temp>
<bpm>0</bpm>
<rpm>0.00</rpm>
</extensions>
</trkpt>
<trkpt lat="63.749591827" lon="-20.240009308">
<ele>40.336914</ele>
<time>2012-07-26T20:29:34Z</time>
<speed>0.020000</speed>
<extensions>
<speed>0.0</speed>
<temp>0.00</temp>
<bpm>0</bpm>
<rpm>0.00</rpm>
</extensions>
</trkpt>
<trkpt lat="63.749591827" lon="-20.240009308">
<ele>40.342773</ele>
<time>2012-07-26T20:29:39Z</time>
<extensions>
<speed>0.0</speed>
<temp>0.00</temp>
<bpm>0</bpm>
<rpm>0.00</rpm>
</extensions>
</trkpt>
<trkpt lat="63.749591827" lon="-20.240011215">
<ele>40.345703</ele>
<time>2012-07-26T20:29:44Z</time>
<speed>0.010000</speed>
<extensions>
<speed>0.0</speed>
<temp>0.00</temp>
<bpm>0</bpm>
<rpm>0.00</rpm>
</extensions>
</trkpt>
<trkpt lat="63.749591827" lon="-20.240011215">
<ele>40.344727</ele>
<time>2012-07-26T20:29:49Z</time>
<speed>0.020000</speed>
<extensions>
<speed>0.0</speed>
<temp>0.00</temp>
<bpm>0</bpm>
<rpm>0.00</rpm>
</extensions>
</trkpt>
<trkpt lat="63.749591827" lon="-20.240011215">
<ele>40.339844</ele>
<time>2012-07-26T20:29:54Z</time>
<extensions>
<speed>0.0</speed>
<temp>0.00</temp>
<bpm>0</bpm>
<rpm>0.00</rpm>
</extensions>
</trkpt>
<trkpt lat="63.749591827" lon="-20.240011215">
<ele>40.342773</ele>
<time>2012-07-26T20:29:59Z</time>
<speed>0.010000</speed>
<extensions>
<speed>0.0</speed>
<temp>0.00</temp>
<bpm>0</bpm>
<rpm>0.00</rpm>
</extensions>
</trkpt>
<trkpt lat="63.749591827" lon="-20.240011215">
<ele>40.337891</ele>
<time>2012-07-26T20:30:04Z</time>
<speed>0.010000</speed>
<extensions>
<speed>0.0</speed>
<temp>0.00</temp>
<bpm>0</bpm>
<rpm>0.00</rpm>
</extensions>
</trkpt>
<trkpt lat="63.749591827" lon="-20.240011215">
<ele>40.339844</ele>
<time>2012-07-26T20:30:09Z</time>
<speed>0.010000</speed>
<extensions>
<speed>0.0</speed>
<temp>0.00</temp>
<bpm>0</bpm>
<rpm>0.00</rpm>
</extensions>
</trkpt>
<trkpt lat="63.749591827" lon="-20.240011215">
<ele>40.346680</ele>
<time>2012-07-26T20:30:14Z</time>
<extensions>
<speed>0.0</speed>
<temp>0.00</temp>
<bpm>0</bpm>
<rpm>0.00</rpm>
</extensions>
</trkpt>
<trkpt lat="63.749591827" lon="-20.240011215">
<ele>40.353516</ele>
<time>2012-07-26T20:30:19Z</time>
<speed>0.010000</speed>
<extensions>
<speed>0.0</speed>
<temp>0.00</temp>
<bpm>0</bpm>
<rpm>0.00</rpm>
</extensions>
</trkpt>
<trkpt lat="63.749591827" lon="-20.240011215">
<ele>40.366211</ele>
<time>2012-07-26T20:30:24Z</time>
<extensions>
<speed>0.0</speed>
<temp>0.00</temp>
<bpm>0</bpm>
<rpm>0.00</rpm>
</extensions>
</trkpt>
<trkpt lat="63.749591827" lon="-20.240011215">
<ele>40.374023</ele>
<time>2012-07-26T20:30:29Z</time>
<speed>0.010000</speed>
<extensions>
<speed>0.0</speed>
<temp>0.00</temp>
<bpm>0</bpm>
<rpm>0.00</rpm>
</extensions>
</trkpt>
<trkpt lat="63.749591827" lon="-20.240011215">
<ele>40.375000</ele>
<time>2012-07-26T20:30:34Z</time>
<extensions>
<speed>0.0</speed>
<temp>0.00</temp>
<bpm>0</bpm>
<rpm>0.00</rpm>
</extensions>
</trkpt>
<trkpt lat="63.749591827" lon="-20.240011215">
<ele>40.374023</ele>
<time>2012-07-26T20:30:39Z</time>
<extensions>
<speed>0.0</speed>
<temp>0.00</temp>
<bpm>0</bpm>
<rpm>0.00</rpm>
</extensions>
</trkpt>
<trkpt lat="63.749591827" lon="-20.240011215">
<ele>40.381836</ele>
<time>2012-07-26T20:30:44Z</time>
<speed>0.010000</speed>
<extensions>
<speed>0.0</speed>
<temp>0.00</temp>
<bpm>0</bpm>
<rpm>0.00</rpm>
</extensions>
</trkpt>
<trkpt lat="63.749591827" lon="-20.240011215">
<ele>40.386719</ele>
<time>2012-07-26T20:30:49Z</time>
<extensions>
<speed>0.0</speed>
<temp>0.00</temp>
<bpm>0</bpm>
<rpm>0.00</rpm>
</extensions>
</trkpt>
<trkpt lat="63.749591827" lon="-20.240011215">
<ele>40.386719</ele>
<time>2012-07-26T20:30:54Z</time>
<speed>0.010000</speed>
<extensions>
<speed>0.0</speed>
<temp>0.00</temp>
<bpm>0</bpm>
<rpm>0.00</rpm>
</extensions>
</trkpt>
<trkpt lat="63.749591827" lon="-20.240011215">
<ele>40.385742</ele>
<time>2012-07-26T20:30:59Z</time>
<extensions>
<speed>0.0</speed>
<temp>0.00</temp>
<bpm>0</bpm>
<rpm>0.00</rpm>
</extensions>
</trkpt>
<trkpt lat="63.749591827" lon="-20.240011215">
<ele>40.379883</ele>
<time>2012-07-26T20:31:04Z</time>
<extensions>
<speed>0.0</speed>
<temp>0.00</temp>
<bpm>0</bpm>
<rpm>0.00</rpm>
</extensions>
</trkpt>
<trkpt lat="63.749591827" lon="-20.240011215">
<ele>40.385742</ele>
<time>2012-07-26T20:31:09Z</time>
<speed>0.010000</speed>
<extensions>
<speed>0.0</speed>
<temp>0.00</temp>
<bpm>0</bpm>
<rpm>0.00</rpm>
</extensions>
</trkpt>
<trkpt lat="63.749591827" lon="-20.240011215">
<ele>40.393555</ele>
<time>2012-07-26T20:31:14Z</time>
<extensions>
<speed>0.0</speed>
<temp>0.00</temp>
<bpm>0</bpm>
<rpm>0.00</rpm>
</extensions>
</trkpt>
<trkpt lat="63.749591827" lon="-20.240013123">
<ele>40.400391</ele>
<time>2012-07-26T20:31:19Z</time>
<extensions>
<speed>0.0</speed>
<temp>0.00</temp>
<bpm>0</bpm>
<rpm>0.00</rpm>
</extensions>
</trkpt>
<trkpt lat="63.749588013" lon="-20.240013123">
<ele>40.403320</ele>
<time>2012-07-26T20:31:24Z</time>
<speed>0.010000</speed>
<extensions>
<speed>0.0</speed>
<temp>0.00</temp>
<bpm>0</bpm>
<rpm>0.00</rpm>
</extensions>
</trkpt>
<trkpt lat="63.749588013" lon="-20.240013123">
<ele>40.405273</ele>
<time>2012-07-26T20:31:29Z</time>
<speed>0.010000</speed>
<extensions>
<speed>0.0</speed>
<temp>0.00</temp>
<bpm>0</bpm>
<rpm>0.00</rpm>
</extensions>
</trkpt>
<trkpt lat="63.749588013" lon="-20.240013123">
<ele>40.404297</ele>
<time>2012-07-26T20:31:34Z</time>
<extensions>
<speed>0.0</speed>
<temp>0.00</temp>
<bpm>0</bpm>
<rpm>0.00</rpm>
</extensions>
</trkpt>
<trkpt lat="63.749588013" lon="-20.240013123">
<ele>40.406250</ele>
<time>2012-07-26T20:31:39Z</time>
<extensions>
<speed>0.0</speed>
<temp>0.00</temp>
<bpm>0</bpm>
<rpm>0.00</rpm>
</extensions>
</trkpt>
<trkpt lat="63.749588013" lon="-20.240013123">
<ele>40.395508</ele>
<time>2012-07-26T20:31:44Z</time>
<extensions>
<speed>0.0</speed>
<temp>0.00</temp>
<bpm>0</bpm>
<rpm>0.00</rpm>
</extensions>
</trkpt>
<trkpt lat="63.749588013" lon="-20.240013123">
<ele>40.396484</ele>
<time>2012-07-26T20:31:49Z</time>
<speed>0.010000</speed>
<extensions>
<speed>0.0</speed>
<temp>0.00</temp>
<bpm>0</bpm>
<rpm>0.00</rpm>
</extensions>
</trkpt>
<trkpt lat="63.749588013" lon="-20.240013123">
<ele>40.383789</ele>
<time>2012-07-26T20:31:54Z</time>
<extensions>
<speed>0.0</speed>
<temp>0.00</temp>
<bpm>0</bpm>
<rpm>0.00</rpm>
</extensions>
</trkpt>
<trkpt lat="63.749588013" lon="-20.240013123">
<ele>40.376953</ele>
<time>2012-07-26T20:31:59Z</time>
<speed>0.010000</speed>
<extensions>
<speed>0.0</speed>
<temp>0.00</temp>
<bpm>0</bpm>
<rpm>0.00</rpm>
</extensions>
</trkpt>
<trkpt lat="63.749588013" lon="-20.240015030">
<ele>40.366211</ele>
<time>2012-07-26T20:32:04Z</time>
<extensions>
<speed>0.0</speed>
<temp>0.00</temp>
<bpm>0</bpm>
<rpm>0.00</rpm>
</extensions>
</trkpt>
<trkpt lat="63.749588013" lon="-20.240015030">
<ele>40.362305</ele>
<time>2012-07-26T20:32:09Z</time>
<speed>0.010000</speed>
<extensions>
<speed>0.0</speed>
<temp>0.00</temp>
<bpm>0</bpm>
<rpm>0.00</rpm>
</extensions>
</trkpt>
<trkpt lat="63.749588013" lon="-20.240015030">
<ele>40.360352</ele>
<time>2012-07-26T20:32:14Z</time>
<speed>0.010000</speed>
<extensions>
<speed>0.0</speed>
<temp>0.00</temp>
<bpm>0</bpm>
<rpm>0.00</rpm>
</extensions>
</trkpt>
<trkpt lat="63.749588013" lon="-20.240015030">
<ele>40.352539</ele>
<time>2012-07-26T20:32:19Z</time>
<extensions>
<speed>0.0</speed>
<temp>0.00</temp>
<bpm>0</bpm>
<rpm>0.00</rpm>
</extensions>
</trkpt>
<trkpt lat="63.749588013" lon="-20.240015030">
<ele>40.351563</ele>
<time>2012-07-26T20:32:24Z</time>
<extensions>
<speed>0.0</speed>
<temp>0.00</temp>
<bpm>0</bpm>
<rpm>0.00</rpm>
</extensions>
</trkpt>
<trkpt lat="63.749588013" lon="-20.240015030">
<ele>40.351563</ele>
<time>2012-07-26T20:32:29Z</time>
<speed>0.010000</speed>
<extensions>
<speed>0.0</speed>
<temp>0.00</temp>
<bpm>0</bpm>
<rpm>0.00</rpm>
</extensions>
</trkpt>
<trkpt lat="63.749588013" lon="-20.240015030">
<ele>40.349609</ele>
<time>2012-07-26T20:32:34Z</time>
<speed>0.010000</speed>
<extensions>
<speed>0.0</speed>
<temp>0.00</temp>
<bpm>0</bpm>
<rpm>0.00</rpm>
</extensions>
</trkpt>
<trkpt lat="63.749588013" lon="-20.240015030">
<ele>40.347656</ele>
<time>2012-07-26T20:32:39Z</time>
<extensions>
<speed>0.0</speed>
<temp>0.00</temp>
<bpm>0</bpm>
<rpm>0.00</rpm>
</extensions>
</trkpt>
<trkpt lat="63.749588013" lon="-20.240015030">
<ele>40.351563</ele>
<time>2012-07-26T20:32:44Z</time>
<speed>0.020000</speed>
<extensions>
<speed>0.0</speed>
<temp>0.00</temp>
<bpm>0</bpm>
<rpm>0.00</rpm>
</extensions>
</trkpt>
<trkpt lat="63.749588013" lon="-20.240015030">
<ele>40.353516</ele>
<time>2012-07-26T20:32:49Z</time>
<speed>0.010000</speed>
<extensions>
<speed>0.0</speed>
<temp>0.00</temp>
<bpm>0</bpm>
<rpm>0.00</rpm>
</extensions>
</trkpt>
<trkpt lat="63.749588013" lon="-20.240015030">
<ele>40.340820</ele>
<time>2012-07-26T20:32:54Z</time>
<extensions>
<speed>0.0</speed>
<temp>0.00</temp>
<bpm>0</bpm>
<rpm>0.00</rpm>
</extensions>
</trkpt>
<trkpt lat="63.749588013" lon="-20.240015030">
<ele>40.346680</ele>
<time>2012-07-26T20:32:59Z</time>
<speed>0.010000</speed>
<extensions>
<speed>0.0</speed>
<temp>0.00</temp>
<bpm>0</bpm>
<rpm>0.00</rpm>
</extensions>
</trkpt>
<trkpt lat="63.749588013" lon="-20.240015030">
<ele>40.348633</ele>
<time>2012-07-26T20:33:04Z</time>
<extensions>
<speed>0.0</speed>
<temp>0.00</temp>
<bpm>0</bpm>
<rpm>0.00</rpm>
</extensions>
</trkpt>
<trkpt lat="63.749588013" lon="-20.240015030">
<ele>40.351563</ele>
<time>2012-07-26T20:33:09Z</time>
<speed>0.010000</speed>
<extensions>
<speed>0.0</speed>
<temp>0.00</temp>
<bpm>0</bpm>
<rpm>0.00</rpm>
</extensions>
</trkpt>
<trkpt lat="63.749588013" lon="-20.240015030">
<ele>40.360352</ele>
<time>2012-07-26T20:33:14Z</time>
<extensions>
<speed>0.0</speed>
<temp>0.00</temp>
<bpm>0</bpm>
<rpm>0.00</rpm>
</extensions>
</trkpt>
<trkpt lat="63.749588013" lon="-20.240015030">
<ele>40.371094</ele>
<time>2012-07-26T20:33:19Z</time>
<extensions>
<speed>0.0</speed>
<temp>0.00</temp>
<bpm>0</bpm>
<rpm>0.00</rpm>
</extensions>
</trkpt>
<trkpt lat="63.749588013" lon="-20.240015030">
<ele>40.375977</ele>
<time>2012-07-26T20:33:24Z</time>
<speed>0.010000</speed>
<extensions>
<speed>0.0</speed>
<temp>0.00</temp>
<bpm>0</bpm>
<rpm>0.00</rpm>
</extensions>
</trkpt>
<trkpt lat="63.749588013" lon="-20.240015030">
<ele>40.381836</ele>
<time>2012-07-26T20:33:29Z</time>
<speed>0.010000</speed>
<extensions>
<speed>0.0</speed>
<temp>0.00</temp>
<bpm>0</bpm>
<rpm>0.00</rpm>
</extensions>
</trkpt>
<trkpt lat="63.749588013" lon="-20.240015030">
<ele>40.378906</ele>
<time>2012-07-26T20:33:34Z</time>
<extensions>
<speed>0.0</speed>
<temp>0.00</temp>
<bpm>0</bpm>
<rpm>0.00</rpm>
</extensions>
</trkpt>
<trkpt lat="63.749588013" lon="-20.240015030">
<ele>40.377930</ele>
<time>2012-07-26T20:33:39Z</time>
<speed>0.010000</speed>
<extensions>
<speed>0.0</speed>
<temp>0.00</temp>
<bpm>0</bpm>
<rpm>0.00</rpm>
</extensions>
</trkpt>
<trkpt lat="63.749588013" lon="-20.240015030">
<ele>40.380859</ele>
<time>2012-07-26T20:33:44Z</time>
<speed>0.010000</speed>
<extensions>
<speed>0.0</speed>
<temp>0.00</temp>
<bpm>0</bpm>
<rpm>0.00</rpm>
</extensions>
</trkpt>
<trkpt lat="63.749588013" lon="-20.240015030">
<ele>40.381836</ele>
<time>2012-07-26T20:33:49Z</time>
<speed>0.010000</speed>
<extensions>
<speed>0.0</speed>
<temp>0.00</temp>
<bpm>0</bpm>
<rpm>0.00</rpm>
</extensions>
</trkpt>
<trkpt lat="63.749588013" lon="-20.240015030">
<ele>40.385742</ele>
<time>2012-07-26T20:33:54Z</time>
<speed>0.010000</speed>
<extensions>
<speed>0.0</speed>
<temp>0.00</temp>
<bpm>0</bpm>
<rpm>0.00</rpm>
</extensions>
</trkpt>
<trkpt lat="63.749588013" lon="-20.240015030">
<ele>40.380859</ele>
<time>2012-07-26T20:33:59Z</time>
<extensions>
<speed>0.0</speed>
<temp>0.00</temp>
<bpm>0</bpm>
<rpm>0.00</rpm>
</extensions>
</trkpt>
<trkpt lat="63.749588013" lon="-20.240015030">
<ele>40.386719</ele>
<time>2012-07-26T20:34:04Z</time>
<speed>0.010000</speed>
<extensions>
<speed>0.0</speed>
<temp>0.00</temp>
<bpm>0</bpm>
<rpm>0.00</rpm>
</extensions>
</trkpt>
<trkpt lat="63.749588013" lon="-20.240015030">
<ele>40.383789</ele>
<time>2012-07-26T20:34:09Z</time>
<speed>0.010000</speed>
<extensions>
<speed>0.0</speed>
<temp>0.00</temp>
<bpm>0</bpm>
<rpm>0.00</rpm>
</extensions>
</trkpt>
<trkpt lat="63.749588013" lon="-20.240015030">
<ele>40.380859</ele>
<time>2012-07-26T20:34:14Z</time>
<extensions>
<speed>0.0</speed>
<temp>0.00</temp>
<bpm>0</bpm>
<rpm>0.00</rpm>
</extensions>
</trkpt>
<trkpt lat="63.749588013" lon="-20.240015030">
<ele>40.378906</ele>
<time>2012-07-26T20:34:19Z</time>
<speed>0.010000</speed>
<extensions>
<speed>0.0</speed>
<temp>0.00</temp>
<bpm>0</bpm>
<rpm>0.00</rpm>
</extensions>
</trkpt>
<trkpt lat="63.749588013" lon="-20.240015030">
<ele>40.381836</ele>
<time>2012-07-26T20:34:24Z</time>
<extensions>
<speed>0.0</speed>
<temp>0.00</temp>
<bpm>0</bpm>
<rpm>0.00</rpm>
</extensions>
</trkpt>
<trkpt lat="63.749588013" lon="-20.240016937">
<ele>40.378906</ele>
<time>2012-07-26T20:34:29Z</time>
<extensions>
<speed>0.0</speed>
<temp>0.00</temp>
<bpm>0</bpm>
<rpm>0.00</rpm>
</extensions>
</trkpt>
<trkpt lat="63.749588013" lon="-20.240016937">
<ele>40.379883</ele>
<time>2012-07-26T20:34:34Z</time>
<extensions>
<speed>0.0</speed>
<temp>0.00</temp>
<bpm>0</bpm>
<rpm>0.00</rpm>
</extensions>
</trkpt>
<trkpt lat="63.749588013" lon="-20.240016937">
<ele>40.376953</ele>
<time>2012-07-26T20:34:39Z</time>
<extensions>
<speed>0.0</speed>
<temp>0.00</temp>
<bpm>0</bpm>
<rpm>0.00</rpm>
</extensions>
</trkpt>
<trkpt lat="63.749588013" lon="-20.240016937">
<ele>40.372070</ele>
<time>2012-07-26T20:34:44Z</time>
<extensions>
<speed>0.0</speed>
<temp>0.00</temp>
<bpm>0</bpm>
<rpm>0.00</rpm>
</extensions>
</trkpt>
<trkpt lat="63.749588013" lon="-20.240016937">
<ele>40.372070</ele>
<time>2012-07-26T20:34:49Z</time>
<extensions>
<speed>0.0</speed>
<temp>0.00</temp>
<bpm>0</bpm>
<rpm>0.00</rpm>
</extensions>
</trkpt>
<trkpt lat="63.749588013" lon="-20.240016937">
<ele>40.373047</ele>
<time>2012-07-26T20:34:54Z</time>
<extensions>
<speed>0.0</speed>
<temp>0.00</temp>
<bpm>0</bpm>
<rpm>0.00</rpm>
</extensions>
</trkpt>
<trkpt lat="63.749588013" lon="-20.240016937">
<ele>40.371094</ele>
<time>2012-07-26T20:34:59Z</time>
<extensions>
<speed>0.0</speed>
<temp>0.00</temp>
<bpm>0</bpm>
<rpm>0.00</rpm>
</extensions>
</trkpt>
<trkpt lat="63.749588013" lon="-20.240016937">
<ele>40.371094</ele>
<time>2012-07-26T20:35:04Z</time>
<extensions>
<speed>0.0</speed>
<temp>0.00</temp>
<bpm>0</bpm>
<rpm>0.00</rpm>
</extensions>
</trkpt>
<trkpt lat="63.749588013" lon="-20.240016937">
<ele>40.369141</ele>
<time>2012-07-26T20:35:09Z</time>
<speed>0.010000</speed>
<extensions>
<speed>0.0</speed>
<temp>0.00</temp>
<bpm>0</bpm>
<rpm>0.00</rpm>
</extensions>
</trkpt>
<trkpt lat="63.749588013" lon="-20.240016937">
<ele>40.369141</ele>
<time>2012-07-26T20:35:14Z</time>
<speed>0.010000</speed>
<extensions>
<speed>0.0</speed>
<temp>0.00</temp>
<bpm>0</bpm>
<rpm>0.00</rpm>
</extensions>
</trkpt>
<trkpt lat="63.749588013" lon="-20.240016937">
<ele>40.371094</ele>
<time>2012-07-26T20:35:19Z</time>
<extensions>
<speed>0.0</speed>
<temp>0.00</temp>
<bpm>0</bpm>
<rpm>0.00</rpm>
</extensions>
</trkpt>
<trkpt lat="63.749588013" lon="-20.240016937">
<ele>40.371094</ele>
<time>2012-07-26T20:35:24Z</time>
<speed>0.010000</speed>
<extensions>
<speed>0.0</speed>
<temp>0.00</temp>
<bpm>0</bpm>
<rpm>0.00</rpm>
</extensions>
</trkpt>
<trkpt lat="63.749588013" lon="-20.240016937">
<ele>40.366211</ele>
<time>2012-07-26T20:35:29Z</time>
<extensions>
<speed>0.0</speed>
<temp>0.00</temp>
<bpm>0</bpm>
<rpm>0.00</rpm>
</extensions>
</trkpt>
<trkpt lat="63.749588013" lon="-20.240016937">
<ele>40.361328</ele>
<time>2012-07-26T20:35:34Z</time>
<extensions>
<speed>0.0</speed>
<temp>0.00</temp>
<bpm>0</bpm>
<rpm>0.00</rpm>
</extensions>
</trkpt>
<trkpt lat="63.749588013" lon="-20.240016937">
<ele>40.363281</ele>
<time>2012-07-26T20:35:39Z</time>
<extensions>
<speed>0.0</speed>
<temp>0.00</temp>
<bpm>0</bpm>
<rpm>0.00</rpm>
</extensions>
</trkpt>
<trkpt lat="63.749591827" lon="-20.240016937">
<ele>40.362305</ele>
<time>2012-07-26T20:35:44Z</time>
<speed>0.010000</speed>
<extensions>
<speed>0.0</speed>
<temp>0.00</temp>
<bpm>0</bpm>
<rpm>0.00</rpm>
</extensions>
</trkpt>
<trkpt lat="63.749591827" lon="-20.240016937">
<ele>40.361328</ele>
<time>2012-07-26T20:35:49Z</time>
<extensions>
<speed>0.0</speed>
<temp>0.00</temp>
<bpm>0</bpm>
<rpm>0.00</rpm>
</extensions>
</trkpt>
<trkpt lat="63.749591827" lon="-20.240016937">
<ele>40.359375</ele>
<time>2012-07-26T20:35:54Z</time>
<extensions>
<speed>0.0</speed>
<temp>0.00</temp>
<bpm>0</bpm>
<rpm>0.00</rpm>
</extensions>
</trkpt>
<trkpt lat="63.749591827" lon="-20.240016937">
<ele>40.357422</ele>
<time>2012-07-26T20:35:59Z</time>
<extensions>
<speed>0.0</speed>
<temp>0.00</temp>
<bpm>0</bpm>
<rpm>0.00</rpm>
</extensions>
</trkpt>
<trkpt lat="63.749591827" lon="-20.240016937">
<ele>40.347656</ele>
<time>2012-07-26T20:36:04Z</time>
<extensions>
<speed>0.0</speed>
<temp>0.00</temp>
<bpm>0</bpm>
<rpm>0.00</rpm>
</extensions>
</trkpt>
<trkpt lat="63.749591827" lon="-20.240016937">
<ele>40.346680</ele>
<time>2012-07-26T20:36:09Z</time>
<extensions>
<speed>0.0</speed>
<temp>0.00</temp>
<bpm>0</bpm>
<rpm>0.00</rpm>
</extensions>
</trkpt>
<trkpt lat="63.749591827" lon="-20.240018845">
<ele>40.345703</ele>
<time>2012-07-26T20:36:14Z</time>
<extensions>
<speed>0.0</speed>
<temp>0.00</temp>
<bpm>0</bpm>
<rpm>0.00</rpm>
</extensions>
</trkpt>
<trkpt lat="63.749591827" lon="-20.240018845">
<ele>40.340820</ele>
<time>2012-07-26T20:36:19Z</time>
<speed>0.010000</speed>
<extensions>
<speed>0.0</speed>
<temp>0.00</temp>
<bpm>0</bpm>
<rpm>0.00</rpm>
</extensions>
</trkpt>
<trkpt lat="63.749591827" lon="-20.240018845">
<ele>40.336914</ele>
<time>2012-07-26T20:36:24Z</time>
<extensions>
<speed>0.0</speed>
<temp>0.00</temp>
<bpm>0</bpm>
<rpm>0.00</rpm>
</extensions>
</trkpt>
<trkpt lat="63.749591827" lon="-20.240018845">
<ele>40.331055</ele>
<time>2012-07-26T20:36:29Z</time>
<speed>0.010000</speed>
<extensions>
<speed>0.0</speed>
<temp>0.00</temp>
<bpm>0</bpm>
<rpm>0.00</rpm>
</extensions>
</trkpt>
<trkpt lat="63.749591827" lon="-20.240018845">
<ele>40.324219</ele>
<time>2012-07-26T20:36:34Z</time>
<extensions>
<speed>0.0</speed>
<temp>0.00</temp>
<bpm>0</bpm>
<rpm>0.00</rpm>
</extensions>
</trkpt>
<trkpt lat="63.749591827" lon="-20.240018845">
<ele>40.314453</ele>
<time>2012-07-26T20:36:39Z</time>
<speed>0.010000</speed>
<extensions>
<speed>0.0</speed>
<temp>0.00</temp>
<bpm>0</bpm>
<rpm>0.00</rpm>
</extensions>
</trkpt>
<trkpt lat="63.749591827" lon="-20.240018845">
<ele>40.311523</ele>
<time>2012-07-26T20:36:44Z</time>
<extensions>
<speed>0.0</speed>
<temp>0.00</temp>
<bpm>0</bpm>
<rpm>0.00</rpm>
</extensions>
</trkpt>
<trkpt lat="63.749591827" lon="-20.240018845">
<ele>40.304688</ele>
<time>2012-07-26T20:36:49Z</time>
<speed>0.020000</speed>
<extensions>
<speed>0.0</speed>
<temp>0.00</temp>
<bpm>0</bpm>
<rpm>0.00</rpm>
</extensions>
</trkpt>
<trkpt lat="63.749591827" lon="-20.240018845">
<ele>40.299805</ele>
<time>2012-07-26T20:36:54Z</time>
<extensions>
<speed>0.0</speed>
<temp>0.00</temp>
<bpm>0</bpm>
<rpm>0.00</rpm>
</extensions>
</trkpt>
<trkpt lat="63.749591827" lon="-20.240018845">
<ele>40.293945</ele>
<time>2012-07-26T20:36:59Z</time>
<extensions>
<speed>0.0</speed>
<temp>0.00</temp>
<bpm>0</bpm>
<rpm>0.00</rpm>
</extensions>
</trkpt>
<trkpt lat="63.749591827" lon="-20.240018845">
<ele>40.291016</ele>
<time>2012-07-26T20:37:04Z</time>
<speed>0.010000</speed>
<extensions>
<speed>0.0</speed>
<temp>0.00</temp>
<bpm>0</bpm>
<rpm>0.00</rpm>
</extensions>
</trkpt>
<trkpt lat="63.749591827" lon="-20.240018845">
<ele>40.288086</ele>
<time>2012-07-26T20:37:09Z</time>
<speed>0.010000</speed>
<extensions>
<speed>0.0</speed>
<temp>0.00</temp>
<bpm>0</bpm>
<rpm>0.00</rpm>
</extensions>
</trkpt>
<trkpt lat="63.749591827" lon="-20.240018845">
<ele>40.284180</ele>
<time>2012-07-26T20:37:14Z</time>
<speed>0.010000</speed>
<extensions>
<speed>0.0</speed>
<temp>0.00</temp>
<bpm>0</bpm>
<rpm>0.00</rpm>
</extensions>
</trkpt>
<trkpt lat="63.749591827" lon="-20.240020752">
<ele>40.280273</ele>
<time>2012-07-26T20:37:19Z</time>
<extensions>
<speed>0.0</speed>
<temp>0.00</temp>
<bpm>0</bpm>
<rpm>0.00</rpm>
</extensions>
</trkpt>
<trkpt lat="63.749591827" lon="-20.240020752">
<ele>40.280273</ele>
<time>2012-07-26T20:37:24Z</time>
<extensions>
<speed>0.0</speed>
<temp>0.00</temp>
<bpm>0</bpm>
<rpm>0.00</rpm>
</extensions>
</trkpt>
<trkpt lat="63.749591827" lon="-20.240020752">
<ele>40.278320</ele>
<time>2012-07-26T20:37:29Z</time>
<extensions>
<speed>0.0</speed>
<temp>0.00</temp>
<bpm>0</bpm>
<rpm>0.00</rpm>
</extensions>
</trkpt>
<trkpt lat="63.749591827" lon="-20.240020752">
<ele>40.276367</ele>
<time>2012-07-26T20:37:34Z</time>
<extensions>
<speed>0.0</speed>
<temp>0.00</temp>
<bpm>0</bpm>
<rpm>0.00</rpm>
</extensions>
</trkpt>
<trkpt lat="63.749591827" lon="-20.240020752">
<ele>40.270508</ele>
<time>2012-07-26T20:37:39Z</time>
<extensions>
<speed>0.0</speed>
<temp>0.00</temp>
<bpm>0</bpm>
<rpm>0.00</rpm>
</extensions>
</trkpt>
<trkpt lat="63.749591827" lon="-20.240020752">
<ele>40.267578</ele>
<time>2012-07-26T20:37:44Z</time>
<extensions>
<speed>0.0</speed>
<temp>0.00</temp>
<bpm>0</bpm>
<rpm>0.00</rpm>
</extensions>
</trkpt>
<trkpt lat="63.749591827" lon="-20.240020752">
<ele>40.267578</ele>
<time>2012-07-26T20:37:49Z</time>
<speed>0.010000</speed>
<extensions>
<speed>0.0</speed>
<temp>0.00</temp>
<bpm>0</bpm>
<rpm>0.00</rpm>
</extensions>
</trkpt>
<trkpt lat="63.749591827" lon="-20.240020752">
<ele>40.264648</ele>
<time>2012-07-26T20:37:54Z</time>
<speed>0.010000</speed>
<extensions>
<speed>0.0</speed>
<temp>0.00</temp>
<bpm>0</bpm>
<rpm>0.00</rpm>
</extensions>
</trkpt>
<trkpt lat="63.749591827" lon="-20.240020752">
<ele>40.264648</ele>
<time>2012-07-26T20:37:59Z</time>
<speed>0.010000</speed>
<extensions>
<speed>0.0</speed>
<temp>0.00</temp>
<bpm>0</bpm>
<rpm>0.00</rpm>
</extensions>
</trkpt>
<trkpt lat="63.749591827" lon="-20.240020752">
<ele>40.263672</ele>
<time>2012-07-26T20:38:04Z</time>
<extensions>
<speed>0.0</speed>
<temp>0.00</temp>
<bpm>0</bpm>
<rpm>0.00</rpm>
</extensions>
</trkpt>
<trkpt lat="63.749591827" lon="-20.240020752">
<ele>40.263672</ele>
<time>2012-07-26T20:38:09Z</time>
<extensions>
<speed>0.0</speed>
<temp>0.00</temp>
<bpm>0</bpm>
<rpm>0.00</rpm>
</extensions>
</trkpt>
<trkpt lat="63.749591827" lon="-20.240020752">
<ele>40.260742</ele>
<time>2012-07-26T20:38:14Z</time>
<extensions>
<speed>0.0</speed>
<temp>0.00</temp>
<bpm>0</bpm>
<rpm>0.00</rpm>
</extensions>
</trkpt>
<trkpt lat="63.749591827" lon="-20.240020752">
<ele>40.261719</ele>
<time>2012-07-26T20:38:19Z</time>
<extensions>
<speed>0.0</speed>
<temp>0.00</temp>
<bpm>0</bpm>
<rpm>0.00</rpm>
</extensions>
</trkpt>
<trkpt lat="63.749591827" lon="-20.240020752">
<ele>40.256836</ele>
<time>2012-07-26T20:38:24Z</time>
<extensions>
<speed>0.0</speed>
<temp>0.00</temp>
<bpm>0</bpm>
<rpm>0.00</rpm>
</extensions>
</trkpt>
<trkpt lat="63.749591827" lon="-20.240020752">
<ele>40.257813</ele>
<time>2012-07-26T20:38:29Z</time>
<extensions>
<speed>0.0</speed>
<temp>0.00</temp>
<bpm>0</bpm>
<rpm>0.00</rpm>
</extensions>
</trkpt>
<trkpt lat="63.749591827" lon="-20.240020752">
<ele>40.252930</ele>
<time>2012-07-26T20:38:34Z</time>
<extensions>
<speed>0.0</speed>
<temp>0.00</temp>
<bpm>0</bpm>
<rpm>0.00</rpm>
</extensions>
</trkpt>
<trkpt lat="63.749591827" lon="-20.240020752">
<ele>40.254883</ele>
<time>2012-07-26T20:38:39Z</time>
<extensions>
<speed>0.0</speed>
<temp>0.00</temp>
<bpm>0</bpm>
<rpm>0.00</rpm>
</extensions>
</trkpt>
<trkpt lat="63.749591827" lon="-20.240020752">
<ele>40.259766</ele>
<time>2012-07-26T20:38:44Z</time>
<extensions>
<speed>0.0</speed>
<temp>0.00</temp>
<bpm>0</bpm>
<rpm>0.00</rpm>
</extensions>
</trkpt>
<trkpt lat="63.749591827" lon="-20.240020752">
<ele>40.257813</ele>
<time>2012-07-26T20:38:49Z</time>
<extensions>
<speed>0.0</speed>
<temp>0.00</temp>
<bpm>0</bpm>
<rpm>0.00</rpm>
</extensions>
</trkpt>
<trkpt lat="63.749591827" lon="-20.240020752">
<ele>40.262695</ele>
<time>2012-07-26T20:38:54Z</time>
<extensions>
<speed>0.0</speed>
<temp>0.00</temp>
<bpm>0</bpm>
<rpm>0.00</rpm>
</extensions>
</trkpt>
<trkpt lat="63.749591827" lon="-20.240020752">
<ele>40.263672</ele>
<time>2012-07-26T20:38:59Z</time>
<extensions>
<speed>0.0</speed>
<temp>0.00</temp>
<bpm>0</bpm>
<rpm>0.00</rpm>
</extensions>
</trkpt>
<trkpt lat="63.749591827" lon="-20.240020752">
<ele>40.263672</ele>
<time>2012-07-26T20:39:04Z</time>
<extensions>
<speed>0.0</speed>
<temp>0.00</temp>
<bpm>0</bpm>
<rpm>0.00</rpm>
</extensions>
</trkpt>
<trkpt lat="63.749591827" lon="-20.240020752">
<ele>40.260742</ele>
<time>2012-07-26T20:39:09Z</time>
<speed>0.010000</speed>
<extensions>
<speed>0.0</speed>
<temp>0.00</temp>
<bpm>0</bpm>
<rpm>0.00</rpm>
</extensions>
</trkpt>
<trkpt lat="63.749591827" lon="-20.240020752">
<ele>40.258789</ele>
<time>2012-07-26T20:39:14Z</time>
<extensions>
<speed>0.0</speed>
<temp>0.00</temp>
<bpm>0</bpm>
<rpm>0.00</rpm>
</extensions>
</trkpt>
<trkpt lat="63.749591827" lon="-20.240020752">
<ele>40.259766</ele>
<time>2012-07-26T20:39:19Z</time>
<extensions>
<speed>0.0</speed>
<temp>0.00</temp>
<bpm>0</bpm>
<rpm>0.00</rpm>
</extensions>
</trkpt>
<trkpt lat="63.749591827" lon="-20.240020752">
<ele>40.260742</ele>
<time>2012-07-26T20:39:24Z</time>
<speed>0.010000</speed>
<extensions>
<speed>0.0</speed>
<temp>0.00</temp>
<bpm>0</bpm>
<rpm>0.00</rpm>
</extensions>
</trkpt>
<trkpt lat="63.749591827" lon="-20.240020752">
<ele>40.263672</ele>
<time>2012-07-26T20:39:29Z</time>
<speed>0.010000</speed>
<extensions>
<speed>0.0</speed>
<temp>0.00</temp>
<bpm>0</bpm>
<rpm>0.00</rpm>
</extensions>
</trkpt>
<trkpt lat="63.749591827" lon="-20.240020752">
<ele>40.265625</ele>
<time>2012-07-26T20:39:34Z</time>
<speed>0.010000</speed>
<extensions>
<speed>0.0</speed>
<temp>0.00</temp>
<bpm>0</bpm>
<rpm>0.00</rpm>
</extensions>
</trkpt>
<trkpt lat="63.749591827" lon="-20.240020752">
<ele>40.262695</ele>
<time>2012-07-26T20:39:39Z</time>
<speed>0.010000</speed>
<extensions>
<speed>0.0</speed>
<temp>0.00</temp>
<bpm>0</bpm>
<rpm>0.00</rpm>
</extensions>
</trkpt>
<trkpt lat="63.749591827" lon="-20.240020752">
<ele>40.274414</ele>
<time>2012-07-26T20:39:44Z</time>
<extensions>
<speed>0.0</speed>
<temp>0.00</temp>
<bpm>0</bpm>
<rpm>0.00</rpm>
</extensions>
</trkpt>
<trkpt lat="63.749591827" lon="-20.240020752">
<ele>40.277344</ele>
<time>2012-07-26T20:39:49Z</time>
<extensions>
<speed>0.0</speed>
<temp>0.00</temp>
<bpm>0</bpm>
<rpm>0.00</rpm>
</extensions>
</trkpt>
<trkpt lat="63.749591827" lon="-20.240020752">
<ele>40.273438</ele>
<time>2012-07-26T20:39:54Z</time>
<speed>0.010000</speed>
<extensions>
<speed>0.0</speed>
<temp>0.00</temp>
<bpm>0</bpm>
<rpm>0.00</rpm>
</extensions>
</trkpt>
<trkpt lat="63.749591827" lon="-20.240020752">
<ele>40.271484</ele>
<time>2012-07-26T20:39:59Z</time>
<speed>0.010000</speed>
<extensions>
<speed>0.0</speed>
<temp>0.00</temp>
<bpm>0</bpm>
<rpm>0.00</rpm>
</extensions>
</trkpt>
<trkpt lat="63.749591827" lon="-20.240020752">
<ele>40.267578</ele>
<time>2012-07-26T20:40:04Z</time>
<extensions>
<speed>0.0</speed>
<temp>0.00</temp>
<bpm>0</bpm>
<rpm>0.00</rpm>
</extensions>
</trkpt>
<trkpt lat="63.749591827" lon="-20.240020752">
<ele>40.264648</ele>
<time>2012-07-26T20:40:09Z</time>
<extensions>
<speed>0.0</speed>
<temp>0.00</temp>
<bpm>0</bpm>
<rpm>0.00</rpm>
</extensions>
</trkpt>
<trkpt lat="63.749591827" lon="-20.240020752">
<ele>40.260742</ele>
<time>2012-07-26T20:40:14Z</time>
<speed>0.010000</speed>
<extensions>
<speed>0.0</speed>
<temp>0.00</temp>
<bpm>0</bpm>
<rpm>0.00</rpm>
</extensions>
</trkpt>
<trkpt lat="63.749591827" lon="-20.240020752">
<ele>40.260742</ele>
<time>2012-07-26T20:40:19Z</time>
<extensions>
<speed>0.0</speed>
<temp>0.00</temp>
<bpm>0</bpm>
<rpm>0.00</rpm>
</extensions>
</trkpt>
<trkpt lat="63.749591827" lon="-20.240020752">
<ele>40.247070</ele>
<time>2012-07-26T20:40:24Z</time>
<speed>0.010000</speed>
<extensions>
<speed>0.0</speed>
<temp>0.00</temp>
<bpm>0</bpm>
<rpm>0.00</rpm>
</extensions>
</trkpt>
<trkpt lat="63.749591827" lon="-20.240022659">
<ele>40.244141</ele>
<time>2012-07-26T20:40:29Z</time>
<extensions>
<speed>0.0</speed>
<temp>0.00</temp>
<bpm>0</bpm>
<rpm>0.00</rpm>
</extensions>
</trkpt>
<trkpt lat="63.749591827" lon="-20.240022659">
<ele>40.245117</ele>
<time>2012-07-26T20:40:34Z</time>
<extensions>
<speed>0.0</speed>
<temp>0.00</temp>
<bpm>0</bpm>
<rpm>0.00</rpm>
</extensions>
</trkpt>
<trkpt lat="63.749591827" lon="-20.240022659">
<ele>40.238281</ele>
<time>2012-07-26T20:40:39Z</time>
<extensions>
<speed>0.0</speed>
<temp>0.00</temp>
<bpm>0</bpm>
<rpm>0.00</rpm>
</extensions>
</trkpt>
<trkpt lat="63.749591827" lon="-20.240022659">
<ele>40.237305</ele>
<time>2012-07-26T20:40:44Z</time>
<extensions>
<speed>0.0</speed>
<temp>0.00</temp>
<bpm>0</bpm>
<rpm>0.00</rpm>
</extensions>
</trkpt>
<trkpt lat="63.749591827" lon="-20.240022659">
<ele>40.231445</ele>
<time>2012-07-26T20:40:49Z</time>
<extensions>
<speed>0.0</speed>
<temp>0.00</temp>
<bpm>0</bpm>
<rpm>0.00</rpm>
</extensions>
</trkpt>
<trkpt lat="63.749591827" lon="-20.240022659">
<ele>40.223633</ele>
<time>2012-07-26T20:40:54Z</time>
<extensions>
<speed>0.0</speed>
<temp>0.00</temp>
<bpm>0</bpm>
<rpm>0.00</rpm>
</extensions>
</trkpt>
<trkpt lat="63.749591827" lon="-20.240022659">
<ele>40.224609</ele>
<time>2012-07-26T20:40:59Z</time>
<extensions>
<speed>0.0</speed>
<temp>0.00</temp>
<bpm>0</bpm>
<rpm>0.00</rpm>
</extensions>
</trkpt>
<trkpt lat="63.749591827" lon="-20.240022659">
<ele>40.224609</ele>
<time>2012-07-26T20:41:04Z</time>
<speed>0.010000</speed>
<extensions>
<speed>0.0</speed>
<temp>0.00</temp>
<bpm>0</bpm>
<rpm>0.00</rpm>
</extensions>
</trkpt>
<trkpt lat="63.749591827" lon="-20.240022659">
<ele>40.218750</ele>
<time>2012-07-26T20:41:09Z</time>
<extensions>
<speed>0.0</speed>
<temp>0.00</temp>
<bpm>0</bpm>
<rpm>0.00</rpm>
</extensions>
</trkpt>
<trkpt lat="63.749591827" lon="-20.240022659">
<ele>40.210938</ele>
<time>2012-07-26T20:41:14Z</time>
<extensions>
<speed>0.0</speed>
<temp>0.00</temp>
<bpm>0</bpm>
<rpm>0.00</rpm>
</extensions>
</trkpt>
<trkpt lat="63.749591827" lon="-20.240022659">
<ele>40.212891</ele>
<time>2012-07-26T20:41:19Z</time>
<extensions>
<speed>0.0</speed>
<temp>0.00</temp>
<bpm>0</bpm>
<rpm>0.00</rpm>
</extensions>
</trkpt>
<trkpt lat="63.749591827" lon="-20.240022659">
<ele>40.209961</ele>
<time>2012-07-26T20:41:24Z</time>
<extensions>
<speed>0.0</speed>
<temp>0.00</temp>
<bpm>0</bpm>
<rpm>0.00</rpm>
</extensions>
</trkpt>
<trkpt lat="63.749591827" lon="-20.240022659">
<ele>40.208008</ele>
<time>2012-07-26T20:41:29Z</time>
<extensions>
<speed>0.0</speed>
<temp>0.00</temp>
<bpm>0</bpm>
<rpm>0.00</rpm>
</extensions>
</trkpt>
<trkpt lat="63.749591827" lon="-20.240022659">
<ele>40.207031</ele>
<time>2012-07-26T20:41:34Z</time>
<extensions>
<speed>0.0</speed>
<temp>0.00</temp>
<bpm>0</bpm>
<rpm>0.00</rpm>
</extensions>
</trkpt>
<trkpt lat="63.749591827" lon="-20.240024567">
<ele>40.212891</ele>
<time>2012-07-26T20:41:39Z</time>
<speed>0.010000</speed>
<extensions>
<speed>0.0</speed>
<temp>0.00</temp>
<bpm>0</bpm>
<rpm>0.00</rpm>
</extensions>
</trkpt>
<trkpt lat="63.749591827" lon="-20.240024567">
<ele>40.211914</ele>
<time>2012-07-26T20:41:44Z</time>
<speed>0.010000</speed>
<extensions>
<speed>0.0</speed>
<temp>0.00</temp>
<bpm>0</bpm>
<rpm>0.00</rpm>
</extensions>
</trkpt>
<trkpt lat="63.749591827" lon="-20.240024567">
<ele>40.212891</ele>
<time>2012-07-26T20:41:49Z</time>
<extensions>
<speed>0.0</speed>
<temp>0.00</temp>
<bpm>0</bpm>
<rpm>0.00</rpm>
</extensions>
</trkpt>
<trkpt lat="63.749591827" lon="-20.240024567">
<ele>40.212891</ele>
<time>2012-07-26T20:41:54Z</time>
<extensions>
<speed>0.0</speed>
<temp>0.00</temp>
<bpm>0</bpm>
<rpm>0.00</rpm>
</extensions>
</trkpt>
<trkpt lat="63.749591827" lon="-20.240024567">
<ele>40.210938</ele>
<time>2012-07-26T20:41:59Z</time>
<extensions>
<speed>0.0</speed>
<temp>0.00</temp>
<bpm>0</bpm>
<rpm>0.00</rpm>
</extensions>
</trkpt>
<trkpt lat="63.749591827" lon="-20.240024567">
<ele>40.210938</ele>
<time>2012-07-26T20:42:04Z</time>
<extensions>
<speed>0.0</speed>
<temp>0.00</temp>
<bpm>0</bpm>
<rpm>0.00</rpm>
</extensions>
</trkpt>
<trkpt lat="63.749591827" lon="-20.240024567">
<ele>40.208008</ele>
<time>2012-07-26T20:42:09Z</time>
<extensions>
<speed>0.0</speed>
<temp>0.00</temp>
<bpm>0</bpm>
<rpm>0.00</rpm>
</extensions>
</trkpt>
<trkpt lat="63.749591827" lon="-20.240024567">
<ele>40.207031</ele>
<time>2012-07-26T20:42:14Z</time>
<extensions>
<speed>0.0</speed>
<temp>0.00</temp>
<bpm>0</bpm>
<rpm>0.00</rpm>
</extensions>
</trkpt>
<trkpt lat="63.749591827" lon="-20.240024567">
<ele>40.203125</ele>
<time>2012-07-26T20:42:19Z</time>
<extensions>
<speed>0.0</speed>
<temp>0.00</temp>
<bpm>0</bpm>
<rpm>0.00</rpm>
</extensions>
</trkpt>
<trkpt lat="63.749591827" lon="-20.240024567">
<ele>40.201172</ele>
<time>2012-07-26T20:42:24Z</time>
<extensions>
<speed>0.0</speed>
<temp>0.00</temp>
<bpm>0</bpm>
<rpm>0.00</rpm>
</extensions>
</trkpt>
<trkpt lat="63.749591827" lon="-20.240024567">
<ele>40.200195</ele>
<time>2012-07-26T20:42:29Z</time>
<extensions>
<speed>0.0</speed>
<temp>0.00</temp>
<bpm>0</bpm>
<rpm>0.00</rpm>
</extensions>
</trkpt>
<trkpt lat="63.749591827" lon="-20.240024567">
<ele>40.200195</ele>
<time>2012-07-26T20:42:34Z</time>
<extensions>
<speed>0.0</speed>
<temp>0.00</temp>
<bpm>0</bpm>
<rpm>0.00</rpm>
</extensions>
</trkpt>
<trkpt lat="63.749591827" lon="-20.240026474">
<ele>40.199219</ele>
<time>2012-07-26T20:42:39Z</time>
<extensions>
<speed>0.0</speed>
<temp>0.00</temp>
<bpm>0</bpm>
<rpm>0.00</rpm>
</extensions>
</trkpt>
<trkpt lat="63.749588013" lon="-20.240026474">
<ele>40.205078</ele>
<time>2012-07-26T20:42:44Z</time>
<extensions>
<speed>0.0</speed>
<temp>0.00</temp>
<bpm>0</bpm>
<rpm>0.00</rpm>
</extensions>
</trkpt>
<trkpt lat="63.749588013" lon="-20.240026474">
<ele>40.204102</ele>
<time>2012-07-26T20:42:49Z</time>
<extensions>
<speed>0.0</speed>
<temp>0.00</temp>
<bpm>0</bpm>
<rpm>0.00</rpm>
</extensions>
</trkpt>
<trkpt lat="63.749588013" lon="-20.240026474">
<ele>40.207031</ele>
<time>2012-07-26T20:42:54Z</time>
<speed>0.010000</speed>
<extensions>
<speed>0.0</speed>
<temp>0.00</temp>
<bpm>0</bpm>
<rpm>0.00</rpm>
</extensions>
</trkpt>
<trkpt lat="63.749588013" lon="-20.240026474">
<ele>40.212891</ele>
<time>2012-07-26T20:42:59Z</time>
<extensions>
<speed>0.0</speed>
<temp>0.00</temp>
<bpm>0</bpm>
<rpm>0.00</rpm>
</extensions>
</trkpt>
<trkpt lat="63.749588013" lon="-20.240026474">
<ele>40.214844</ele>
<time>2012-07-26T20:43:04Z</time>
<extensions>
<speed>0.0</speed>
<temp>0.00</temp>
<bpm>0</bpm>
<rpm>0.00</rpm>
</extensions>
</trkpt>
<trkpt lat="63.749588013" lon="-20.240026474">
<ele>40.217773</ele>
<time>2012-07-26T20:43:09Z</time>
<extensions>
<speed>0.0</speed>
<temp>0.00</temp>
<bpm>0</bpm>
<rpm>0.00</rpm>
</extensions>
</trkpt>
<trkpt lat="63.749588013" lon="-20.240026474">
<ele>40.213867</ele>
<time>2012-07-26T20:43:14Z</time>
<extensions>
<speed>0.0</speed>
<temp>0.00</temp>
<bpm>0</bpm>
<rpm>0.00</rpm>
</extensions>
</trkpt>
<trkpt lat="63.749588013" lon="-20.240026474">
<ele>40.218750</ele>
<time>2012-07-26T20:43:19Z</time>
<extensions>
<speed>0.0</speed>
<temp>0.00</temp>
<bpm>0</bpm>
<rpm>0.00</rpm>
</extensions>
</trkpt>
<trkpt lat="63.749588013" lon="-20.240026474">
<ele>40.221680</ele>
<time>2012-07-26T20:43:24Z</time>
<speed>0.010000</speed>
<extensions>
<speed>0.0</speed>
<temp>0.00</temp>
<bpm>0</bpm>
<rpm>0.00</rpm>
</extensions>
</trkpt>
<trkpt lat="63.749588013" lon="-20.240026474">
<ele>40.224609</ele>
<time>2012-07-26T20:43:29Z</time>
<speed>0.010000</speed>
<extensions>
<speed>0.0</speed>
<temp>0.00</temp>
<bpm>0</bpm>
<rpm>0.00</rpm>
</extensions>
</trkpt>
<trkpt lat="63.749588013" lon="-20.240026474">
<ele>40.224609</ele>
<time>2012-07-26T20:43:34Z</time>
<extensions>
<speed>0.0</speed>
<temp>0.00</temp>
<bpm>0</bpm>
<rpm>0.00</rpm>
</extensions>
</trkpt>
<trkpt lat="63.749588013" lon="-20.240026474">
<ele>40.224609</ele>
<time>2012-07-26T20:43:39Z</time>
<extensions>
<speed>0.0</speed>
<temp>0.00</temp>
<bpm>0</bpm>
<rpm>0.00</rpm>
</extensions>
</trkpt>
<trkpt lat="63.749588013" lon="-20.240026474">
<ele>40.225586</ele>
<time>2012-07-26T20:43:44Z</time>
<extensions>
<speed>0.0</speed>
<temp>0.00</temp>
<bpm>0</bpm>
<rpm>0.00</rpm>
</extensions>
</trkpt>
<trkpt lat="63.749588013" lon="-20.240026474">
<ele>40.227539</ele>
<time>2012-07-26T20:43:49Z</time>
<extensions>
<speed>0.0</speed>
<temp>0.00</temp>
<bpm>0</bpm>
<rpm>0.00</rpm>
</extensions>
</trkpt>
<trkpt lat="63.749588013" lon="-20.240026474">
<ele>40.228516</ele>
<time>2012-07-26T20:43:54Z</time>
<speed>0.010000</speed>
<extensions>
<speed>0.0</speed>
<temp>0.00</temp>
<bpm>0</bpm>
<rpm>0.00</rpm>
</extensions>
</trkpt>
<trkpt lat="63.749588013" lon="-20.240026474">
<ele>40.229492</ele>
<time>2012-07-26T20:43:59Z</time>
<speed>0.020000</speed>
<extensions>
<speed>0.0</speed>
<temp>0.00</temp>
<bpm>0</bpm>
<rpm>0.00</rpm>
</extensions>
</trkpt>
<trkpt lat="63.749588013" lon="-20.240026474">
<ele>40.233398</ele>
<time>2012-07-26T20:44:04Z</time>
<extensions>
<speed>0.0</speed>
<temp>0.00</temp>
<bpm>0</bpm>
<rpm>0.00</rpm>
</extensions>
</trkpt>
<trkpt lat="63.749588013" lon="-20.240026474">
<ele>40.232422</ele>
<time>2012-07-26T20:44:09Z</time>
<extensions>
<speed>0.0</speed>
<temp>0.00</temp>
<bpm>0</bpm>
<rpm>0.00</rpm>
</extensions>
</trkpt>
<trkpt lat="63.749588013" lon="-20.240026474">
<ele>40.229492</ele>
<time>2012-07-26T20:44:14Z</time>
<extensions>
<speed>0.0</speed>
<temp>0.00</temp>
<bpm>0</bpm>
<rpm>0.00</rpm>
</extensions>
</trkpt>
<trkpt lat="63.749588013" lon="-20.240026474">
<ele>40.230469</ele>
<time>2012-07-26T20:44:19Z</time>
<extensions>
<speed>0.0</speed>
<temp>0.00</temp>
<bpm>0</bpm>
<rpm>0.00</rpm>
</extensions>
</trkpt>
<trkpt lat="63.749588013" lon="-20.240026474">
<ele>40.233398</ele>
<time>2012-07-26T20:44:24Z</time>
<extensions>
<speed>0.0</speed>
<temp>0.00</temp>
<bpm>0</bpm>
<rpm>0.00</rpm>
</extensions>
</trkpt>
<trkpt lat="63.749588013" lon="-20.240026474">
<ele>40.234375</ele>
<time>2012-07-26T20:44:29Z</time>
<speed>0.010000</speed>
<extensions>
<speed>0.0</speed>
<temp>0.00</temp>
<bpm>0</bpm>
<rpm>0.00</rpm>
</extensions>
</trkpt>
<trkpt lat="63.749588013" lon="-20.240026474">
<ele>40.239258</ele>
<time>2012-07-26T20:44:34Z</time>
<extensions>
<speed>0.0</speed>
<temp>0.00</temp>
<bpm>0</bpm>
<rpm>0.00</rpm>
</extensions>
</trkpt>
<trkpt lat="63.749588013" lon="-20.240026474">
<ele>40.244141</ele>
<time>2012-07-26T20:44:39Z</time>
<extensions>
<speed>0.0</speed>
<temp>0.00</temp>
<bpm>0</bpm>
<rpm>0.00</rpm>
</extensions>
</trkpt>
<trkpt lat="63.749588013" lon="-20.240026474">
<ele>40.248047</ele>
<time>2012-07-26T20:44:44Z</time>
<extensions>
<speed>0.0</speed>
<temp>0.00</temp>
<bpm>0</bpm>
<rpm>0.00</rpm>
</extensions>
</trkpt>
<trkpt lat="63.749588013" lon="-20.240026474">
<ele>40.255859</ele>
<time>2012-07-26T20:44:49Z</time>
<extensions>
<speed>0.0</speed>
<temp>0.00</temp>
<bpm>0</bpm>
<rpm>0.00</rpm>
</extensions>
</trkpt>
<trkpt lat="63.749588013" lon="-20.240026474">
<ele>40.255859</ele>
<time>2012-07-26T20:44:54Z</time>
<extensions>
<speed>0.0</speed>
<temp>0.00</temp>
<bpm>0</bpm>
<rpm>0.00</rpm>
</extensions>
</trkpt>
<trkpt lat="63.749588013" lon="-20.240026474">
<ele>40.260742</ele>
<time>2012-07-26T20:44:59Z</time>
<extensions>
<speed>0.0</speed>
<temp>0.00</temp>
<bpm>0</bpm>
<rpm>0.00</rpm>
</extensions>
</trkpt>
<trkpt lat="63.749588013" lon="-20.240026474">
<ele>40.262695</ele>
<time>2012-07-26T20:45:04Z</time>
<extensions>
<speed>0.0</speed>
<temp>0.00</temp>
<bpm>0</bpm>
<rpm>0.00</rpm>
</extensions>
</trkpt>
<trkpt lat="63.749588013" lon="-20.240026474">
<ele>40.260742</ele>
<time>2012-07-26T20:45:09Z</time>
<extensions>
<speed>0.0</speed>
<temp>0.00</temp>
<bpm>0</bpm>
<rpm>0.00</rpm>
</extensions>
</trkpt>
<trkpt lat="63.749588013" lon="-20.240026474">
<ele>40.258789</ele>
<time>2012-07-26T20:45:14Z</time>
<extensions>
<speed>0.0</speed>
<temp>0.00</temp>
<bpm>0</bpm>
<rpm>0.00</rpm>
</extensions>
</trkpt>
<trkpt lat="63.749588013" lon="-20.240026474">
<ele>40.261719</ele>
<time>2012-07-26T20:45:19Z</time>
<speed>0.010000</speed>
<extensions>
<speed>0.0</speed>
<temp>0.00</temp>
<bpm>0</bpm>
<rpm>0.00</rpm>
</extensions>
</trkpt>
<trkpt lat="63.749588013" lon="-20.240026474">
<ele>40.260742</ele>
<time>2012-07-26T20:45:24Z</time>
<extensions>
<speed>0.0</speed>
<temp>0.00</temp>
<bpm>0</bpm>
<rpm>0.00</rpm>
</extensions>
</trkpt>
<trkpt lat="63.749588013" lon="-20.240026474">
<ele>40.254883</ele>
<time>2012-07-26T20:45:29Z</time>
<extensions>
<speed>0.0</speed>
<temp>0.00</temp>
<bpm>0</bpm>
<rpm>0.00</rpm>
</extensions>
</trkpt>
<trkpt lat="63.749588013" lon="-20.240026474">
<ele>40.255859</ele>
<time>2012-07-26T20:45:34Z</time>
<extensions>
<speed>0.0</speed>
<temp>0.00</temp>
<bpm>0</bpm>
<rpm>0.00</rpm>
</extensions>
</trkpt>
<trkpt lat="63.749588013" lon="-20.240026474">
<ele>40.248047</ele>
<time>2012-07-26T20:45:39Z</time>
<extensions>
<speed>0.0</speed>
<temp>0.00</temp>
<bpm>0</bpm>
<rpm>0.00</rpm>
</extensions>
</trkpt>
<trkpt lat="63.749588013" lon="-20.240026474">
<ele>40.243164</ele>
<time>2012-07-26T20:45:44Z</time>
<extensions>
<speed>0.0</speed>
<temp>0.00</temp>
<bpm>0</bpm>
<rpm>0.00</rpm>
</extensions>
</trkpt>
<trkpt lat="63.749588013" lon="-20.240026474">
<ele>40.240234</ele>
<time>2012-07-26T20:45:49Z</time>
<speed>0.010000</speed>
<extensions>
<speed>0.0</speed>
<temp>0.00</temp>
<bpm>0</bpm>
<rpm>0.00</rpm>
</extensions>
</trkpt>
<trkpt lat="63.749588013" lon="-20.240026474">
<ele>40.235352</ele>
<time>2012-07-26T20:45:54Z</time>
<speed>0.010000</speed>
<extensions>
<speed>0.0</speed>
<temp>0.00</temp>
<bpm>0</bpm>
<rpm>0.00</rpm>
</extensions>
</trkpt>
<trkpt lat="63.749588013" lon="-20.240026474">
<ele>40.230469</ele>
<time>2012-07-26T20:45:59Z</time>
<speed>0.010000</speed>
<extensions>
<speed>0.0</speed>
<temp>0.00</temp>
<bpm>0</bpm>
<rpm>0.00</rpm>
</extensions>
</trkpt>
<trkpt lat="63.749588013" lon="-20.240026474">
<ele>40.224609</ele>
<time>2012-07-26T20:46:04Z</time>
<extensions>
<speed>0.0</speed>
<temp>0.00</temp>
<bpm>0</bpm>
<rpm>0.00</rpm>
</extensions>
</trkpt>
<trkpt lat="63.749588013" lon="-20.240028381">
<ele>40.217773</ele>
<time>2012-07-26T20:46:09Z</time>
<extensions>
<speed>0.0</speed>
<temp>0.00</temp>
<bpm>0</bpm>
<rpm>0.00</rpm>
</extensions>
</trkpt>
<trkpt lat="63.749588013" lon="-20.240028381">
<ele>40.210938</ele>
<time>2012-07-26T20:46:14Z</time>
<extensions>
<speed>0.0</speed>
<temp>0.00</temp>
<bpm>0</bpm>
<rpm>0.00</rpm>
</extensions>
</trkpt>
<trkpt lat="63.749588013" lon="-20.240028381">
<ele>40.204102</ele>
<time>2012-07-26T20:46:19Z</time>
<extensions>
<speed>0.0</speed>
<temp>0.00</temp>
<bpm>0</bpm>
<rpm>0.00</rpm>
</extensions>
</trkpt>
<trkpt lat="63.749588013" lon="-20.240028381">
<ele>40.197266</ele>
<time>2012-07-26T20:46:24Z</time>
<extensions>
<speed>0.0</speed>
<temp>0.00</temp>
<bpm>0</bpm>
<rpm>0.00</rpm>
</extensions>
</trkpt>
<trkpt lat="63.749588013" lon="-20.240028381">
<ele>40.189453</ele>
<time>2012-07-26T20:46:29Z</time>
<extensions>
<speed>0.0</speed>
<temp>0.00</temp>
<bpm>0</bpm>
<rpm>0.00</rpm>
</extensions>
</trkpt>
<trkpt lat="63.749588013" lon="-20.240028381">
<ele>40.189453</ele>
<time>2012-07-26T20:46:34Z</time>
<extensions>
<speed>0.0</speed>
<temp>0.00</temp>
<bpm>0</bpm>
<rpm>0.00</rpm>
</extensions>
</trkpt>
<trkpt lat="63.749588013" lon="-20.240028381">
<ele>40.182617</ele>
<time>2012-07-26T20:46:39Z</time>
<extensions>
<speed>0.0</speed>
<temp>0.00</temp>
<bpm>0</bpm>
<rpm>0.00</rpm>
</extensions>
</trkpt>
<trkpt lat="63.749588013" lon="-20.240028381">
<ele>40.175781</ele>
<time>2012-07-26T20:46:44Z</time>
<speed>0.020000</speed>
<extensions>
<speed>0.0</speed>
<temp>0.00</temp>
<bpm>0</bpm>
<rpm>0.00</rpm>
</extensions>
</trkpt>
<trkpt lat="63.749588013" lon="-20.240028381">
<ele>40.177734</ele>
<time>2012-07-26T20:46:49Z</time>
<speed>0.010000</speed>
<extensions>
<speed>0.0</speed>
<temp>0.00</temp>
<bpm>0</bpm>
<rpm>0.00</rpm>
</extensions>
</trkpt>
<trkpt lat="63.749588013" lon="-20.240028381">
<ele>40.175781</ele>
<time>2012-07-26T20:46:54Z</time>
<speed>0.010000</speed>
<extensions>
<speed>0.0</speed>
<temp>0.00</temp>
<bpm>0</bpm>
<rpm>0.00</rpm>
</extensions>
</trkpt>
<trkpt lat="63.749588013" lon="-20.240028381">
<ele>40.166992</ele>
<time>2012-07-26T20:46:59Z</time>
<speed>0.010000</speed>
<extensions>
<speed>0.0</speed>
<temp>0.00</temp>
<bpm>0</bpm>
<rpm>0.00</rpm>
</extensions>
</trkpt>
<trkpt lat="63.749588013" lon="-20.240028381">
<ele>40.162109</ele>
<time>2012-07-26T20:47:04Z</time>
<speed>0.010000</speed>
<extensions>
<speed>0.0</speed>
<temp>0.00</temp>
<bpm>0</bpm>
<rpm>0.00</rpm>
</extensions>
</trkpt>
<trkpt lat="63.749588013" lon="-20.240028381">
<ele>40.163086</ele>
<time>2012-07-26T20:47:09Z</time>
<speed>0.010000</speed>
<extensions>
<speed>0.0</speed>
<temp>0.00</temp>
<bpm>0</bpm>
<rpm>0.00</rpm>
</extensions>
</trkpt>
<trkpt lat="63.749588013" lon="-20.240028381">
<ele>40.165039</ele>
<time>2012-07-26T20:47:14Z</time>
<extensions>
<speed>0.0</speed>
<temp>0.00</temp>
<bpm>0</bpm>
<rpm>0.00</rpm>
</extensions>
</trkpt>
<trkpt lat="63.749588013" lon="-20.240028381">
<ele>40.179688</ele>
<time>2012-07-26T20:47:19Z</time>
<speed>0.010000</speed>
<extensions>
<speed>0.0</speed>
<temp>0.00</temp>
<bpm>0</bpm>
<rpm>0.00</rpm>
</extensions>
</trkpt>
<trkpt lat="63.749588013" lon="-20.240028381">
<ele>40.180664</ele>
<time>2012-07-26T20:47:24Z</time>
<speed>0.010000</speed>
<extensions>
<speed>0.0</speed>
<temp>0.00</temp>
<bpm>0</bpm>
<rpm>0.00</rpm>
</extensions>
</trkpt>
<trkpt lat="63.749588013" lon="-20.240028381">
<ele>40.182617</ele>
<time>2012-07-26T20:47:29Z</time>
<speed>0.010000</speed>
<extensions>
<speed>0.0</speed>
<temp>0.00</temp>
<bpm>0</bpm>
<rpm>0.00</rpm>
</extensions>
</trkpt>
<trkpt lat="63.749588013" lon="-20.240028381">
<ele>40.193359</ele>
<time>2012-07-26T20:47:34Z</time>
<speed>0.010000</speed>
<extensions>
<speed>0.0</speed>
<temp>0.00</temp>
<bpm>0</bpm>
<rpm>0.00</rpm>
</extensions>
</trkpt>
<trkpt lat="63.749588013" lon="-20.240028381">
<ele>40.193359</ele>
<time>2012-07-26T20:47:39Z</time>
<speed>0.010000</speed>
<extensions>
<speed>0.0</speed>
<temp>0.00</temp>
<bpm>0</bpm>
<rpm>0.00</rpm>
</extensions>
</trkpt>
<trkpt lat="63.749588013" lon="-20.240028381">
<ele>40.199219</ele>
<time>2012-07-26T20:47:44Z</time>
<speed>0.010000</speed>
<extensions>
<speed>0.0</speed>
<temp>0.00</temp>
<bpm>0</bpm>
<rpm>0.00</rpm>
</extensions>
</trkpt>
<trkpt lat="63.749588013" lon="-20.240028381">
<ele>40.195313</ele>
<time>2012-07-26T20:47:49Z</time>
<speed>0.010000</speed>
<extensions>
<speed>0.0</speed>
<temp>0.00</temp>
<bpm>0</bpm>
<rpm>0.00</rpm>
</extensions>
</trkpt>
<trkpt lat="63.749588013" lon="-20.240028381">
<ele>40.193359</ele>
<time>2012-07-26T20:47:54Z</time>
<extensions>
<speed>0.0</speed>
<temp>0.00</temp>
<bpm>0</bpm>
<rpm>0.00</rpm>
</extensions>
</trkpt>
<trkpt lat="63.749588013" lon="-20.240028381">
<ele>40.197266</ele>
<time>2012-07-26T20:47:59Z</time>
<speed>0.010000</speed>
<extensions>
<speed>0.0</speed>
<temp>0.00</temp>
<bpm>0</bpm>
<rpm>0.00</rpm>
</extensions>
</trkpt>
<trkpt lat="63.749588013" lon="-20.240028381">
<ele>40.202148</ele>
<time>2012-07-26T20:48:04Z</time>
<speed>0.010000</speed>
<extensions>
<speed>0.0</speed>
<temp>0.00</temp>
<bpm>0</bpm>
<rpm>0.00</rpm>
</extensions>
</trkpt>
<trkpt lat="63.749588013" lon="-20.240026474">
<ele>40.198242</ele>
<time>2012-07-26T20:48:09Z</time>
<extensions>
<speed>0.0</speed>
<temp>0.00</temp>
<bpm>0</bpm>
<rpm>0.00</rpm>
</extensions>
</trkpt>
<trkpt lat="63.749588013" lon="-20.240026474">
<ele>40.191406</ele>
<time>2012-07-26T20:48:14Z</time>
<extensions>
<speed>0.0</speed>
<temp>0.00</temp>
<bpm>0</bpm>
<rpm>0.00</rpm>
</extensions>
</trkpt>
<trkpt lat="63.749588013" lon="-20.240026474">
<ele>40.196289</ele>
<time>2012-07-26T20:48:19Z</time>
<extensions>
<speed>0.0</speed>
<temp>0.00</temp>
<bpm>0</bpm>
<rpm>0.00</rpm>
</extensions>
</trkpt>
<trkpt lat="63.749588013" lon="-20.240026474">
<ele>40.207031</ele>
<time>2012-07-26T20:48:24Z</time>
<speed>0.010000</speed>
<extensions>
<speed>0.0</speed>
<temp>0.00</temp>
<bpm>0</bpm>
<rpm>0.00</rpm>
</extensions>
</trkpt>
<trkpt lat="63.749588013" lon="-20.240026474">
<ele>40.201172</ele>
<time>2012-07-26T20:48:29Z</time>
<extensions>
<speed>0.0</speed>
<temp>0.00</temp>
<bpm>0</bpm>
<rpm>0.00</rpm>
</extensions>
</trkpt>
<trkpt lat="63.749588013" lon="-20.240026474">
<ele>40.204102</ele>
<time>2012-07-26T20:48:34Z</time>
<extensions>
<speed>0.0</speed>
<temp>0.00</temp>
<bpm>0</bpm>
<rpm>0.00</rpm>
</extensions>
</trkpt>
<trkpt lat="63.749588013" lon="-20.240026474">
<ele>40.200195</ele>
<time>2012-07-26T20:48:39Z</time>
<extensions>
<speed>0.0</speed>
<temp>0.00</temp>
<bpm>0</bpm>
<rpm>0.00</rpm>
</extensions>
</trkpt>
<trkpt lat="63.749588013" lon="-20.240026474">
<ele>40.198242</ele>
<time>2012-07-26T20:48:44Z</time>
<speed>0.010000</speed>
<extensions>
<speed>0.0</speed>
<temp>0.00</temp>
<bpm>0</bpm>
<rpm>0.00</rpm>
</extensions>
</trkpt>
<trkpt lat="63.749588013" lon="-20.240026474">
<ele>40.192383</ele>
<time>2012-07-26T20:48:49Z</time>
<speed>0.010000</speed>
<extensions>
<speed>0.0</speed>
<temp>0.00</temp>
<bpm>0</bpm>
<rpm>0.00</rpm>
</extensions>
</trkpt>
<trkpt lat="63.749588013" lon="-20.240026474">
<ele>40.185547</ele>
<time>2012-07-26T20:48:54Z</time>
<extensions>
<speed>0.0</speed>
<temp>0.00</temp>
<bpm>0</bpm>
<rpm>0.00</rpm>
</extensions>
</trkpt>
<trkpt lat="63.749588013" lon="-20.240026474">
<ele>40.174805</ele>
<time>2012-07-26T20:48:59Z</time>
<extensions>
<speed>0.0</speed>
<temp>0.00</temp>
<bpm>0</bpm>
<rpm>0.00</rpm>
</extensions>
</trkpt>
<trkpt lat="63.749588013" lon="-20.240026474">
<ele>40.166992</ele>
<time>2012-07-26T20:49:04Z</time>
<speed>0.010000</speed>
<extensions>
<speed>0.0</speed>
<temp>0.00</temp>
<bpm>0</bpm>
<rpm>0.00</rpm>
</extensions>
</trkpt>
<trkpt lat="63.749588013" lon="-20.240026474">
<ele>40.171875</ele>
<time>2012-07-26T20:49:09Z</time>
<speed>0.020000</speed>
<extensions>
<speed>0.0</speed>
<temp>0.00</temp>
<bpm>0</bpm>
<rpm>0.00</rpm>
</extensions>
</trkpt>
<trkpt lat="63.749588013" lon="-20.240026474">
<ele>40.173828</ele>
<time>2012-07-26T20:49:14Z</time>
<speed>0.010000</speed>
<extensions>
<speed>0.0</speed>
<temp>0.00</temp>
<bpm>0</bpm>
<rpm>0.00</rpm>
</extensions>
</trkpt>
<trkpt lat="63.749588013" lon="-20.240026474">
<ele>40.175781</ele>
<time>2012-07-26T20:49:19Z</time>
<extensions>
<speed>0.0</speed>
<temp>0.00</temp>
<bpm>0</bpm>
<rpm>0.00</rpm>
</extensions>
</trkpt>
<trkpt lat="63.749588013" lon="-20.240026474">
<ele>40.175781</ele>
<time>2012-07-26T20:49:24Z</time>
<speed>0.010000</speed>
<extensions>
<speed>0.0</speed>
<temp>0.00</temp>
<bpm>0</bpm>
<rpm>0.00</rpm>
</extensions>
</trkpt>
<trkpt lat="63.749588013" lon="-20.240026474">
<ele>40.175781</ele>
<time>2012-07-26T20:49:29Z</time>
<speed>0.010000</speed>
<extensions>
<speed>0.0</speed>
<temp>0.00</temp>
<bpm>0</bpm>
<rpm>0.00</rpm>
</extensions>
</trkpt>
<trkpt lat="63.749588013" lon="-20.240026474">
<ele>40.175781</ele>
<time>2012-07-26T20:49:34Z</time>
<extensions>
<speed>0.0</speed>
<temp>0.00</temp>
<bpm>0</bpm>
<rpm>0.00</rpm>
</extensions>
</trkpt>
<trkpt lat="63.749588013" lon="-20.240026474">
<ele>40.169922</ele>
<time>2012-07-26T20:49:39Z</time>
<extensions>
<speed>0.0</speed>
<temp>0.00</temp>
<bpm>0</bpm>
<rpm>0.00</rpm>
</extensions>
</trkpt>
<trkpt lat="63.749588013" lon="-20.240026474">
<ele>40.165039</ele>
<time>2012-07-26T20:49:44Z</time>
<extensions>
<speed>0.0</speed>
<temp>0.00</temp>
<bpm>0</bpm>
<rpm>0.00</rpm>
</extensions>
</trkpt>
<trkpt lat="63.749588013" lon="-20.240026474">
<ele>40.164063</ele>
<time>2012-07-26T20:49:49Z</time>
<speed>0.010000</speed>
<extensions>
<speed>0.0</speed>
<temp>0.00</temp>
<bpm>0</bpm>
<rpm>0.00</rpm>
</extensions>
</trkpt>
<trkpt lat="63.749588013" lon="-20.240026474">
<ele>40.170898</ele>
<time>2012-07-26T20:49:54Z</time>
<speed>0.010000</speed>
<extensions>
<speed>0.0</speed>
<temp>0.00</temp>
<bpm>0</bpm>
<rpm>0.00</rpm>
</extensions>
</trkpt>
<trkpt lat="63.749588013" lon="-20.240026474">
<ele>40.172852</ele>
<time>2012-07-26T20:49:59Z</time>
<speed>0.010000</speed>
<extensions>
<speed>0.0</speed>
<temp>0.00</temp>
<bpm>0</bpm>
<rpm>0.00</rpm>
</extensions>
</trkpt>
<trkpt lat="63.749588013" lon="-20.240026474">
<ele>40.172852</ele>
<time>2012-07-26T20:50:04Z</time>
<extensions>
<speed>0.0</speed>
<temp>0.00</temp>
<bpm>0</bpm>
<rpm>0.00</rpm>
</extensions>
</trkpt>
<trkpt lat="63.749588013" lon="-20.240026474">
<ele>40.175781</ele>
<time>2012-07-26T20:50:09Z</time>
<extensions>
<speed>0.0</speed>
<temp>0.00</temp>
<bpm>0</bpm>
<rpm>0.00</rpm>
</extensions>
</trkpt>
<trkpt lat="63.749588013" lon="-20.240026474">
<ele>40.176758</ele>
<time>2012-07-26T20:50:14Z</time>
<extensions>
<speed>0.0</speed>
<temp>0.00</temp>
<bpm>0</bpm>
<rpm>0.00</rpm>
</extensions>
</trkpt>
<trkpt lat="63.749588013" lon="-20.240026474">
<ele>40.173828</ele>
<time>2012-07-26T20:50:19Z</time>
<extensions>
<speed>0.0</speed>
<temp>0.00</temp>
<bpm>0</bpm>
<rpm>0.00</rpm>
</extensions>
</trkpt>
<trkpt lat="63.749588013" lon="-20.240026474">
<ele>40.178711</ele>
<time>2012-07-26T20:50:24Z</time>
<speed>0.010000</speed>
<extensions>
<speed>0.0</speed>
<temp>0.00</temp>
<bpm>0</bpm>
<rpm>0.00</rpm>
</extensions>
</trkpt>
<trkpt lat="63.749588013" lon="-20.240026474">
<ele>40.180664</ele>
<time>2012-07-26T20:50:29Z</time>
<extensions>
<speed>0.0</speed>
<temp>0.00</temp>
<bpm>0</bpm>
<rpm>0.00</rpm>
</extensions>
</trkpt>
<trkpt lat="63.749588013" lon="-20.240026474">
<ele>40.189453</ele>
<time>2012-07-26T20:50:34Z</time>
<speed>0.010000</speed>
<extensions>
<speed>0.0</speed>
<temp>0.00</temp>
<bpm>0</bpm>
<rpm>0.00</rpm>
</extensions>
</trkpt>
<trkpt lat="63.749588013" lon="-20.240026474">
<ele>40.188477</ele>
<time>2012-07-26T20:50:39Z</time>
<extensions>
<speed>0.0</speed>
<temp>0.00</temp>
<bpm>0</bpm>
<rpm>0.00</rpm>
</extensions>
</trkpt>
<trkpt lat="63.749588013" lon="-20.240026474">
<ele>40.193359</ele>
<time>2012-07-26T20:50:44Z</time>
<extensions>
<speed>0.0</speed>
<temp>0.00</temp>
<bpm>0</bpm>
<rpm>0.00</rpm>
</extensions>
</trkpt>
<trkpt lat="63.749588013" lon="-20.240026474">
<ele>40.197266</ele>
<time>2012-07-26T20:50:49Z</time>
<extensions>
<speed>0.0</speed>
<temp>0.00</temp>
<bpm>0</bpm>
<rpm>0.00</rpm>
</extensions>
</trkpt>
<trkpt lat="63.749588013" lon="-20.240026474">
<ele>40.204102</ele>
<time>2012-07-26T20:50:54Z</time>
<extensions>
<speed>0.0</speed>
<temp>0.00</temp>
<bpm>0</bpm>
<rpm>0.00</rpm>
</extensions>
</trkpt>
<trkpt lat="63.749588013" lon="-20.240026474">
<ele>40.206055</ele>
<time>2012-07-26T20:50:59Z</time>
<extensions>
<speed>0.0</speed>
<temp>0.00</temp>
<bpm>0</bpm>
<rpm>0.00</rpm>
</extensions>
</trkpt>
<trkpt lat="63.749588013" lon="-20.240026474">
<ele>40.208008</ele>
<time>2012-07-26T20:51:04Z</time>
<extensions>
<speed>0.0</speed>
<temp>0.00</temp>
<bpm>0</bpm>
<rpm>0.00</rpm>
</extensions>
</trkpt>
<trkpt lat="63.749588013" lon="-20.240026474">
<ele>40.211914</ele>
<time>2012-07-26T20:51:09Z</time>
<extensions>
<speed>0.0</speed>
<temp>0.00</temp>
<bpm>0</bpm>
<rpm>0.00</rpm>
</extensions>
</trkpt>
<trkpt lat="63.749588013" lon="-20.240026474">
<ele>40.214844</ele>
<time>2012-07-26T20:51:14Z</time>
<extensions>
<speed>0.0</speed>
<temp>0.00</temp>
<bpm>0</bpm>
<rpm>0.00</rpm>
</extensions>
</trkpt>
<trkpt lat="63.749588013" lon="-20.240026474">
<ele>40.215820</ele>
<time>2012-07-26T20:51:19Z</time>
<extensions>
<speed>0.0</speed>
<temp>0.00</temp>
<bpm>0</bpm>
<rpm>0.00</rpm>
</extensions>
</trkpt>
<trkpt lat="63.749588013" lon="-20.240026474">
<ele>40.214844</ele>
<time>2012-07-26T20:51:24Z</time>
<extensions>
<speed>0.0</speed>
<temp>0.00</temp>
<bpm>0</bpm>
<rpm>0.00</rpm>
</extensions>
</trkpt>
<trkpt lat="63.749588013" lon="-20.240026474">
<ele>40.221680</ele>
<time>2012-07-26T20:51:29Z</time>
<extensions>
<speed>0.0</speed>
<temp>0.00</temp>
<bpm>0</bpm>
<rpm>0.00</rpm>
</extensions>
</trkpt>
<trkpt lat="63.749588013" lon="-20.240026474">
<ele>40.228516</ele>
<time>2012-07-26T20:51:34Z</time>
<extensions>
<speed>0.0</speed>
<temp>0.00</temp>
<bpm>0</bpm>
<rpm>0.00</rpm>
</extensions>
</trkpt>
<trkpt lat="63.749588013" lon="-20.240026474">
<ele>40.226563</ele>
<time>2012-07-26T20:51:39Z</time>
<extensions>
<speed>0.0</speed>
<temp>0.00</temp>
<bpm>0</bpm>
<rpm>0.00</rpm>
</extensions>
</trkpt>
<trkpt lat="63.749588013" lon="-20.240026474">
<ele>40.232422</ele>
<time>2012-07-26T20:51:44Z</time>
<extensions>
<speed>0.0</speed>
<temp>0.00</temp>
<bpm>0</bpm>
<rpm>0.00</rpm>
</extensions>
</trkpt>
<trkpt lat="63.749588013" lon="-20.240026474">
<ele>40.228516</ele>
<time>2012-07-26T20:51:49Z</time>
<speed>0.010000</speed>
<extensions>
<speed>0.0</speed>
<temp>0.00</temp>
<bpm>0</bpm>
<rpm>0.00</rpm>
</extensions>
</trkpt>
<trkpt lat="63.749588013" lon="-20.240026474">
<ele>40.220703</ele>
<time>2012-07-26T20:51:54Z</time>
<speed>0.010000</speed>
<extensions>
<speed>0.0</speed>
<temp>0.00</temp>
<bpm>0</bpm>
<rpm>0.00</rpm>
</extensions>
</trkpt>
<trkpt lat="63.749588013" lon="-20.240026474">
<ele>40.216797</ele>
<time>2012-07-26T20:51:59Z</time>
<extensions>
<speed>0.0</speed>
<temp>0.00</temp>
<bpm>0</bpm>
<rpm>0.00</rpm>
</extensions>
</trkpt>
<trkpt lat="63.749588013" lon="-20.240026474">
<ele>40.217773</ele>
<time>2012-07-26T20:52:04Z</time>
<extensions>
<speed>0.0</speed>
<temp>0.00</temp>
<bpm>0</bpm>
<rpm>0.00</rpm>
</extensions>
</trkpt>
<trkpt lat="63.749588013" lon="-20.240026474">
<ele>40.211914</ele>
<time>2012-07-26T20:52:09Z</time>
<speed>0.010000</speed>
<extensions>
<speed>0.0</speed>
<temp>0.00</temp>
<bpm>0</bpm>
<rpm>0.00</rpm>
</extensions>
</trkpt>
<trkpt lat="63.749588013" lon="-20.240026474">
<ele>40.208984</ele>
<time>2012-07-26T20:52:14Z</time>
<speed>0.010000</speed>
<extensions>
<speed>0.0</speed>
<temp>0.00</temp>
<bpm>0</bpm>
<rpm>0.00</rpm>
</extensions>
</trkpt>
<trkpt lat="63.749588013" lon="-20.240026474">
<ele>40.208008</ele>
<time>2012-07-26T20:52:19Z</time>
<extensions>
<speed>0.0</speed>
<temp>0.00</temp>
<bpm>0</bpm>
<rpm>0.00</rpm>
</extensions>
</trkpt>
<trkpt lat="63.749588013" lon="-20.240026474">
<ele>40.211914</ele>
<time>2012-07-26T20:52:24Z</time>
<extensions>
<speed>0.0</speed>
<temp>0.00</temp>
<bpm>0</bpm>
<rpm>0.00</rpm>
</extensions>
</trkpt>
<trkpt lat="63.749588013" lon="-20.240026474">
<ele>40.213867</ele>
<time>2012-07-26T20:52:29Z</time>
<extensions>
<speed>0.0</speed>
<temp>0.00</temp>
<bpm>0</bpm>
<rpm>0.00</rpm>
</extensions>
</trkpt>
<trkpt lat="63.749588013" lon="-20.240026474">
<ele>40.221680</ele>
<time>2012-07-26T20:52:34Z</time>
<extensions>
<speed>0.0</speed>
<temp>0.00</temp>
<bpm>0</bpm>
<rpm>0.00</rpm>
</extensions>
</trkpt>
<trkpt lat="63.749588013" lon="-20.240026474">
<ele>40.224609</ele>
<time>2012-07-26T20:52:39Z</time>
<extensions>
<speed>0.0</speed>
<temp>0.00</temp>
<bpm>0</bpm>
<rpm>0.00</rpm>
</extensions>
</trkpt>
<trkpt lat="63.749588013" lon="-20.240026474">
<ele>40.231445</ele>
<time>2012-07-26T20:52:44Z</time>
<speed>0.010000</speed>
<extensions>
<speed>0.0</speed>
<temp>0.00</temp>
<bpm>0</bpm>
<rpm>0.00</rpm>
</extensions>
</trkpt>
<trkpt lat="63.749588013" lon="-20.240026474">
<ele>40.234375</ele>
<time>2012-07-26T20:52:49Z</time>
<extensions>
<speed>0.0</speed>
<temp>0.00</temp>
<bpm>0</bpm>
<rpm>0.00</rpm>
</extensions>
</trkpt>
<trkpt lat="63.749588013" lon="-20.240026474">
<ele>40.231445</ele>
<time>2012-07-26T20:52:54Z</time>
<extensions>
<speed>0.0</speed>
<temp>0.00</temp>
<bpm>0</bpm>
<rpm>0.00</rpm>
</extensions>
</trkpt>
<trkpt lat="63.749588013" lon="-20.240026474">
<ele>40.230469</ele>
<time>2012-07-26T20:52:59Z</time>
<extensions>
<speed>0.0</speed>
<temp>0.00</temp>
<bpm>0</bpm>
<rpm>0.00</rpm>
</extensions>
</trkpt>
<trkpt lat="63.749588013" lon="-20.240026474">
<ele>40.235352</ele>
<time>2012-07-26T20:53:04Z</time>
<extensions>
<speed>0.0</speed>
<temp>0.00</temp>
<bpm>0</bpm>
<rpm>0.00</rpm>
</extensions>
</trkpt>
<trkpt lat="63.749588013" lon="-20.240026474">
<ele>40.240234</ele>
<time>2012-07-26T20:53:09Z</time>
<extensions>
<speed>0.0</speed>
<temp>0.00</temp>
<bpm>0</bpm>
<rpm>0.00</rpm>
</extensions>
</trkpt>
<trkpt lat="63.749588013" lon="-20.240026474">
<ele>40.249023</ele>
<time>2012-07-26T20:53:14Z</time>
<extensions>
<speed>0.0</speed>
<temp>0.00</temp>
<bpm>0</bpm>
<rpm>0.00</rpm>
</extensions>
</trkpt>
<trkpt lat="63.749588013" lon="-20.240026474">
<ele>40.245117</ele>
<time>2012-07-26T20:53:19Z</time>
<speed>0.010000</speed>
<extensions>
<speed>0.0</speed>
<temp>0.00</temp>
<bpm>0</bpm>
<rpm>0.00</rpm>
</extensions>
</trkpt>
<trkpt lat="63.749584198" lon="-20.240026474">
<ele>40.250977</ele>
<time>2012-07-26T20:53:24Z</time>
<extensions>
<speed>0.0</speed>
<temp>0.00</temp>
<bpm>0</bpm>
<rpm>0.00</rpm>
</extensions>
</trkpt>
<trkpt lat="63.749584198" lon="-20.240026474">
<ele>40.259766</ele>
<time>2012-07-26T20:53:29Z</time>
<speed>0.010000</speed>
<extensions>
<speed>0.0</speed>
<temp>0.00</temp>
<bpm>0</bpm>
<rpm>0.00</rpm>
</extensions>
</trkpt>
<trkpt lat="63.749584198" lon="-20.240026474">
<ele>40.266602</ele>
<time>2012-07-26T20:53:34Z</time>
<extensions>
<speed>0.0</speed>
<temp>0.00</temp>
<bpm>0</bpm>
<rpm>0.00</rpm>
</extensions>
</trkpt>
<trkpt lat="63.749584198" lon="-20.240026474">
<ele>40.266602</ele>
<time>2012-07-26T20:53:39Z</time>
<extensions>
<speed>0.0</speed>
<temp>0.00</temp>
<bpm>0</bpm>
<rpm>0.00</rpm>
</extensions>
</trkpt>
<trkpt lat="63.749584198" lon="-20.240026474">
<ele>40.269531</ele>
<time>2012-07-26T20:53:44Z</time>
<extensions>
<speed>0.0</speed>
<temp>0.00</temp>
<bpm>0</bpm>
<rpm>0.00</rpm>
</extensions>
</trkpt>
<trkpt lat="63.749584198" lon="-20.240026474">
<ele>40.281250</ele>
<time>2012-07-26T20:53:49Z</time>
<extensions>
<speed>0.0</speed>
<temp>0.00</temp>
<bpm>0</bpm>
<rpm>0.00</rpm>
</extensions>
</trkpt>
<trkpt lat="63.749584198" lon="-20.240026474">
<ele>40.285156</ele>
<time>2012-07-26T20:53:54Z</time>
<extensions>
<speed>0.0</speed>
<temp>0.00</temp>
<bpm>0</bpm>
<rpm>0.00</rpm>
</extensions>
</trkpt>
<trkpt lat="63.749584198" lon="-20.240026474">
<ele>40.288086</ele>
<time>2012-07-26T20:53:59Z</time>
<extensions>
<speed>0.0</speed>
<temp>0.00</temp>
<bpm>0</bpm>
<rpm>0.00</rpm>
</extensions>
</trkpt>
<trkpt lat="63.749584198" lon="-20.240024567">
<ele>40.297852</ele>
<time>2012-07-26T20:54:04Z</time>
<extensions>
<speed>0.0</speed>
<temp>0.00</temp>
<bpm>0</bpm>
<rpm>0.00</rpm>
</extensions>
</trkpt>
<trkpt lat="63.749584198" lon="-20.240024567">
<ele>40.299805</ele>
<time>2012-07-26T20:54:09Z</time>
<extensions>
<speed>0.0</speed>
<temp>0.00</temp>
<bpm>0</bpm>
<rpm>0.00</rpm>
</extensions>
</trkpt>
<trkpt lat="63.749584198" lon="-20.240024567">
<ele>40.305664</ele>
<time>2012-07-26T20:54:14Z</time>
<extensions>
<speed>0.0</speed>
<temp>0.00</temp>
<bpm>0</bpm>
<rpm>0.00</rpm>
</extensions>
</trkpt>
<trkpt lat="63.749584198" lon="-20.240024567">
<ele>40.312500</ele>
<time>2012-07-26T20:54:19Z</time>
<extensions>
<speed>0.0</speed>
<temp>0.00</temp>
<bpm>0</bpm>
<rpm>0.00</rpm>
</extensions>
</trkpt>
<trkpt lat="63.749584198" lon="-20.240024567">
<ele>40.315430</ele>
<time>2012-07-26T20:54:24Z</time>
<extensions>
<speed>0.0</speed>
<temp>0.00</temp>
<bpm>0</bpm>
<rpm>0.00</rpm>
</extensions>
</trkpt>
<trkpt lat="63.749584198" lon="-20.240024567">
<ele>40.323242</ele>
<time>2012-07-26T20:54:29Z</time>
<extensions>
<speed>0.0</speed>
<temp>0.00</temp>
<bpm>0</bpm>
<rpm>0.00</rpm>
</extensions>
</trkpt>
<trkpt lat="63.749584198" lon="-20.240024567">
<ele>40.334961</ele>
<time>2012-07-26T20:54:34Z</time>
<extensions>
<speed>0.0</speed>
<temp>0.00</temp>
<bpm>0</bpm>
<rpm>0.00</rpm>
</extensions>
</trkpt>
<trkpt lat="63.749584198" lon="-20.240024567">
<ele>40.345703</ele>
<time>2012-07-26T20:54:39Z</time>
<extensions>
<speed>0.0</speed>
<temp>0.00</temp>
<bpm>0</bpm>
<rpm>0.00</rpm>
</extensions>
</trkpt>
<trkpt lat="63.749584198" lon="-20.240024567">
<ele>40.367188</ele>
<time>2012-07-26T20:54:44Z</time>
<extensions>
<speed>0.0</speed>
<temp>0.00</temp>
<bpm>0</bpm>
<rpm>0.00</rpm>
</extensions>
</trkpt>
<trkpt lat="63.749584198" lon="-20.240024567">
<ele>40.382813</ele>
<time>2012-07-26T20:54:49Z</time>
<extensions>
<speed>0.0</speed>
<temp>0.00</temp>
<bpm>0</bpm>
<rpm>0.00</rpm>
</extensions>
</trkpt>
<trkpt lat="63.749584198" lon="-20.240024567">
<ele>40.400391</ele>
<time>2012-07-26T20:54:54Z</time>
<extensions>
<speed>0.0</speed>
<temp>0.00</temp>
<bpm>0</bpm>
<rpm>0.00</rpm>
</extensions>
</trkpt>
<trkpt lat="63.749584198" lon="-20.240024567">
<ele>40.395508</ele>
<time>2012-07-26T20:54:59Z</time>
<speed>0.010000</speed>
<extensions>
<speed>0.0</speed>
<temp>0.00</temp>
<bpm>0</bpm>
<rpm>0.00</rpm>
</extensions>
</trkpt>
<trkpt lat="63.749584198" lon="-20.240024567">
<ele>40.406250</ele>
<time>2012-07-26T20:55:04Z</time>
<extensions>
<speed>0.0</speed>
<temp>0.00</temp>
<bpm>0</bpm>
<rpm>0.00</rpm>
</extensions>
</trkpt>
<trkpt lat="63.749584198" lon="-20.240024567">
<ele>40.414063</ele>
<time>2012-07-26T20:55:09Z</time>
<extensions>
<speed>0.0</speed>
<temp>0.00</temp>
<bpm>0</bpm>
<rpm>0.00</rpm>
</extensions>
</trkpt>
<trkpt lat="63.749584198" lon="-20.240024567">
<ele>40.422852</ele>
<time>2012-07-26T20:55:14Z</time>
<extensions>
<speed>0.0</speed>
<temp>0.00</temp>
<bpm>0</bpm>
<rpm>0.00</rpm>
</extensions>
</trkpt>
<trkpt lat="63.749584198" lon="-20.240024567">
<ele>40.429688</ele>
<time>2012-07-26T20:55:19Z</time>
<extensions>
<speed>0.0</speed>
<temp>0.00</temp>
<bpm>0</bpm>
<rpm>0.00</rpm>
</extensions>
</trkpt>
<trkpt lat="63.749584198" lon="-20.240024567">
<ele>40.427734</ele>
<time>2012-07-26T20:55:24Z</time>
<extensions>
<speed>0.0</speed>
<temp>0.00</temp>
<bpm>0</bpm>
<rpm>0.00</rpm>
</extensions>
</trkpt>
<trkpt lat="63.749584198" lon="-20.240024567">
<ele>40.429688</ele>
<time>2012-07-26T20:55:29Z</time>
<extensions>
<speed>0.0</speed>
<temp>0.00</temp>
<bpm>0</bpm>
<rpm>0.00</rpm>
</extensions>
</trkpt>
<trkpt lat="63.749584198" lon="-20.240024567">
<ele>40.430664</ele>
<time>2012-07-26T20:55:34Z</time>
<extensions>
<speed>0.0</speed>
<temp>0.00</temp>
<bpm>0</bpm>
<rpm>0.00</rpm>
</extensions>
</trkpt>
<trkpt lat="63.749584198" lon="-20.240024567">
<ele>40.435547</ele>
<time>2012-07-26T20:55:39Z</time>
<speed>0.010000</speed>
<extensions>
<speed>0.0</speed>
<temp>0.00</temp>
<bpm>0</bpm>
<rpm>0.00</rpm>
</extensions>
</trkpt>
<trkpt lat="63.749584198" lon="-20.240024567">
<ele>40.436523</ele>
<time>2012-07-26T20:55:44Z</time>
<speed>0.010000</speed>
<extensions>
<speed>0.0</speed>
<temp>0.00</temp>
<bpm>0</bpm>
<rpm>0.00</rpm>
</extensions>
</trkpt>
<trkpt lat="63.749584198" lon="-20.240024567">
<ele>40.434570</ele>
<time>2012-07-26T20:55:49Z</time>
<extensions>
<speed>0.0</speed>
<temp>0.00</temp>
<bpm>0</bpm>
<rpm>0.00</rpm>
</extensions>
</trkpt>
<trkpt lat="63.749584198" lon="-20.240024567">
<ele>40.437500</ele>
<time>2012-07-26T20:55:54Z</time>
<extensions>
<speed>0.0</speed>
<temp>0.00</temp>
<bpm>0</bpm>
<rpm>0.00</rpm>
</extensions>
</trkpt>
<trkpt lat="63.749584198" lon="-20.240024567">
<ele>40.443359</ele>
<time>2012-07-26T20:55:59Z</time>
<extensions>
<speed>0.0</speed>
<temp>0.00</temp>
<bpm>0</bpm>
<rpm>0.00</rpm>
</extensions>
</trkpt>
<trkpt lat="63.749584198" lon="-20.240024567">
<ele>40.450195</ele>
<time>2012-07-26T20:56:04Z</time>
<extensions>
<speed>0.0</speed>
<temp>0.00</temp>
<bpm>0</bpm>
<rpm>0.00</rpm>
</extensions>
</trkpt>
<trkpt lat="63.749584198" lon="-20.240024567">
<ele>40.465820</ele>
<time>2012-07-26T20:56:09Z</time>
<extensions>
<speed>0.0</speed>
<temp>0.00</temp>
<bpm>0</bpm>
<rpm>0.00</rpm>
</extensions>
</trkpt>
<trkpt lat="63.749584198" lon="-20.240024567">
<ele>40.475586</ele>
<time>2012-07-26T20:56:14Z</time>
<extensions>
<speed>0.0</speed>
<temp>0.00</temp>
<bpm>0</bpm>
<rpm>0.00</rpm>
</extensions>
</trkpt>
<trkpt lat="63.749584198" lon="-20.240022659">
<ele>40.482422</ele>
<time>2012-07-26T20:56:19Z</time>
<extensions>
<speed>0.0</speed>
<temp>0.00</temp>
<bpm>0</bpm>
<rpm>0.00</rpm>
</extensions>
</trkpt>
<trkpt lat="63.749584198" lon="-20.240022659">
<ele>40.484375</ele>
<time>2012-07-26T20:56:24Z</time>
<extensions>
<speed>0.0</speed>
<temp>0.00</temp>
<bpm>0</bpm>
<rpm>0.00</rpm>
</extensions>
</trkpt>
<trkpt lat="63.749584198" lon="-20.240022659">
<ele>40.486328</ele>
<time>2012-07-26T20:56:29Z</time>
<extensions>
<speed>0.0</speed>
<temp>0.00</temp>
<bpm>0</bpm>
<rpm>0.00</rpm>
</extensions>
</trkpt>
<trkpt lat="63.749584198" lon="-20.240022659">
<ele>40.498047</ele>
<time>2012-07-26T20:56:34Z</time>
<speed>0.010000</speed>
<extensions>
<speed>0.0</speed>
<temp>0.00</temp>
<bpm>0</bpm>
<rpm>0.00</rpm>
</extensions>
</trkpt>
<trkpt lat="63.749584198" lon="-20.240022659">
<ele>40.497070</ele>
<time>2012-07-26T20:56:39Z</time>
<extensions>
<speed>0.0</speed>
<temp>0.00</temp>
<bpm>0</bpm>
<rpm>0.00</rpm>
</extensions>
</trkpt>
<trkpt lat="63.749584198" lon="-20.240022659">
<ele>40.500977</ele>
<time>2012-07-26T20:56:44Z</time>
<extensions>
<speed>0.0</speed>
<temp>0.00</temp>
<bpm>0</bpm>
<rpm>0.00</rpm>
</extensions>
</trkpt>
<trkpt lat="63.749584198" lon="-20.240022659">
<ele>40.502930</ele>
<time>2012-07-26T20:56:49Z</time>
<extensions>
<speed>0.0</speed>
<temp>0.00</temp>
<bpm>0</bpm>
<rpm>0.00</rpm>
</extensions>
</trkpt>
<trkpt lat="63.749584198" lon="-20.240022659">
<ele>40.508789</ele>
<time>2012-07-26T20:56:54Z</time>
<extensions>
<speed>0.0</speed>
<temp>0.00</temp>
<bpm>0</bpm>
<rpm>0.00</rpm>
</extensions>
</trkpt>
<trkpt lat="63.749584198" lon="-20.240022659">
<ele>40.529297</ele>
<time>2012-07-26T20:56:59Z</time>
<speed>0.010000</speed>
<extensions>
<speed>0.0</speed>
<temp>0.00</temp>
<bpm>0</bpm>
<rpm>0.00</rpm>
</extensions>
</trkpt>
<trkpt lat="63.749584198" lon="-20.240022659">
<ele>40.535156</ele>
<time>2012-07-26T20:57:04Z</time>
<speed>0.010000</speed>
<extensions>
<speed>0.0</speed>
<temp>0.00</temp>
<bpm>0</bpm>
<rpm>0.00</rpm>
</extensions>
</trkpt>
<trkpt lat="63.749584198" lon="-20.240022659">
<ele>40.523438</ele>
<time>2012-07-26T20:57:09Z</time>
<extensions>
<speed>0.0</speed>
<temp>0.00</temp>
<bpm>0</bpm>
<rpm>0.00</rpm>
</extensions>
</trkpt>
<trkpt lat="63.749584198" lon="-20.240022659">
<ele>40.530273</ele>
<time>2012-07-26T20:57:14Z</time>
<speed>0.010000</speed>
<extensions>
<speed>0.0</speed>
<temp>0.00</temp>
<bpm>0</bpm>
<rpm>0.00</rpm>
</extensions>
</trkpt>
<trkpt lat="63.749584198" lon="-20.240022659">
<ele>40.547852</ele>
<time>2012-07-26T20:57:19Z</time>
<speed>0.010000</speed>
<extensions>
<speed>0.0</speed>
<temp>0.00</temp>
<bpm>0</bpm>
<rpm>0.00</rpm>
</extensions>
</trkpt>
<trkpt lat="63.749584198" lon="-20.240022659">
<ele>40.553711</ele>
<time>2012-07-26T20:57:24Z</time>
<speed>0.010000</speed>
<extensions>
<speed>0.0</speed>
<temp>0.00</temp>
<bpm>0</bpm>
<rpm>0.00</rpm>
</extensions>
</trkpt>
<trkpt lat="63.749584198" lon="-20.240022659">
<ele>40.583984</ele>
<time>2012-07-26T20:57:29Z</time>
<speed>0.010000</speed>
<extensions>
<speed>0.0</speed>
<temp>0.00</temp>
<bpm>0</bpm>
<rpm>0.00</rpm>
</extensions>
</trkpt>
<trkpt lat="63.749584198" lon="-20.240020752">
<ele>40.621094</ele>
<time>2012-07-26T20:57:34Z</time>
<extensions>
<speed>0.0</speed>
<temp>0.00</temp>
<bpm>0</bpm>
<rpm>0.00</rpm>
</extensions>
</trkpt>
<trkpt lat="63.749584198" lon="-20.240020752">
<ele>40.660156</ele>
<time>2012-07-26T20:57:39Z</time>
<extensions>
<speed>0.0</speed>
<temp>0.00</temp>
<bpm>0</bpm>
<rpm>0.00</rpm>
</extensions>
</trkpt>
<trkpt lat="63.749584198" lon="-20.240020752">
<ele>40.704102</ele>
<time>2012-07-26T20:57:44Z</time>
<extensions>
<speed>0.0</speed>
<temp>0.00</temp>
<bpm>0</bpm>
<rpm>0.00</rpm>
</extensions>
</trkpt>
<trkpt lat="63.749584198" lon="-20.240020752">
<ele>40.744141</ele>
<time>2012-07-26T20:57:49Z</time>
<extensions>
<speed>0.0</speed>
<temp>0.00</temp>
<bpm>0</bpm>
<rpm>0.00</rpm>
</extensions>
</trkpt>
<trkpt lat="63.749584198" lon="-20.240020752">
<ele>40.742188</ele>
<time>2012-07-26T20:57:54Z</time>
<speed>0.020000</speed>
<extensions>
<speed>0.0</speed>
<temp>0.00</temp>
<bpm>0</bpm>
<rpm>0.00</rpm>
</extensions>
</trkpt>
<trkpt lat="63.749584198" lon="-20.240020752">
<ele>40.775391</ele>
<time>2012-07-26T20:57:59Z</time>
<extensions>
<speed>0.0</speed>
<temp>0.00</temp>
<bpm>0</bpm>
<rpm>0.00</rpm>
</extensions>
</trkpt>
<trkpt lat="63.749584198" lon="-20.240020752">
<ele>40.781250</ele>
<time>2012-07-26T20:58:04Z</time>
<extensions>
<speed>0.0</speed>
<temp>0.00</temp>
<bpm>0</bpm>
<rpm>0.00</rpm>
</extensions>
</trkpt>
<trkpt lat="63.749584198" lon="-20.240018845">
<ele>40.778320</ele>
<time>2012-07-26T20:58:09Z</time>
<speed>0.010000</speed>
<extensions>
<speed>0.0</speed>
<temp>0.00</temp>
<bpm>0</bpm>
<rpm>0.00</rpm>
</extensions>
</trkpt>
<trkpt lat="63.749584198" lon="-20.240018845">
<ele>40.791016</ele>
<time>2012-07-26T20:58:14Z</time>
<speed>0.010000</speed>
<extensions>
<speed>0.0</speed>
<temp>0.00</temp>
<bpm>0</bpm>
<rpm>0.00</rpm>
</extensions>
</trkpt>
<trkpt lat="63.749584198" lon="-20.240018845">
<ele>40.805664</ele>
<time>2012-07-26T20:58:19Z</time>
<extensions>
<speed>0.0</speed>
<temp>0.00</temp>
<bpm>0</bpm>
<rpm>0.00</rpm>
</extensions>
</trkpt>
<trkpt lat="63.749584198" lon="-20.240018845">
<ele>40.796875</ele>
<time>2012-07-26T20:58:24Z</time>
<extensions>
<speed>0.0</speed>
<temp>0.00</temp>
<bpm>0</bpm>
<rpm>0.00</rpm>
</extensions>
</trkpt>
<trkpt lat="63.749584198" lon="-20.240018845">
<ele>40.761719</ele>
<time>2012-07-26T20:58:29Z</time>
<extensions>
<speed>0.0</speed>
<temp>0.00</temp>
<bpm>0</bpm>
<rpm>0.00</rpm>
</extensions>
</trkpt>
<trkpt lat="63.749584198" lon="-20.240018845">
<ele>40.718750</ele>
<time>2012-07-26T20:58:34Z</time>
<speed>0.010000</speed>
<extensions>
<speed>0.0</speed>
<temp>0.00</temp>
<bpm>0</bpm>
<rpm>0.00</rpm>
</extensions>
</trkpt>
<trkpt lat="63.749584198" lon="-20.240018845">
<ele>40.692383</ele>
<time>2012-07-26T20:58:39Z</time>
<extensions>
<speed>0.0</speed>
<temp>0.00</temp>
<bpm>0</bpm>
<rpm>0.00</rpm>
</extensions>
</trkpt>
<trkpt lat="63.749584198" lon="-20.240018845">
<ele>40.670898</ele>
<time>2012-07-26T20:58:44Z</time>
<speed>0.010000</speed>
<extensions>
<speed>0.0</speed>
<temp>0.00</temp>
<bpm>0</bpm>
<rpm>0.00</rpm>
</extensions>
</trkpt>
<trkpt lat="63.749584198" lon="-20.240018845">
<ele>40.664063</ele>
<time>2012-07-26T20:58:49Z</time>
<extensions>
<speed>0.0</speed>
<temp>0.00</temp>
<bpm>0</bpm>
<rpm>0.00</rpm>
</extensions>
</trkpt>
<trkpt lat="63.749584198" lon="-20.240016937">
<ele>40.650391</ele>
<time>2012-07-26T20:58:54Z</time>
<speed>0.010000</speed>
<extensions>
<speed>0.0</speed>
<temp>0.00</temp>
<bpm>0</bpm>
<rpm>0.00</rpm>
</extensions>
</trkpt>
<trkpt lat="63.749584198" lon="-20.240016937">
<ele>40.649414</ele>
<time>2012-07-26T20:58:59Z</time>
<extensions>
<speed>0.0</speed>
<temp>0.00</temp>
<bpm>0</bpm>
<rpm>0.00</rpm>
</extensions>
</trkpt>
<trkpt lat="63.749584198" lon="-20.240016937">
<ele>40.642578</ele>
<time>2012-07-26T20:59:04Z</time>
<extensions>
<speed>0.0</speed>
<temp>0.00</temp>
<bpm>0</bpm>
<rpm>0.00</rpm>
</extensions>
</trkpt>
<trkpt lat="63.749584198" lon="-20.240016937">
<ele>40.652344</ele>
<time>2012-07-26T20:59:09Z</time>
<speed>0.010000</speed>
<extensions>
<speed>0.0</speed>
<temp>0.00</temp>
<bpm>0</bpm>
<rpm>0.00</rpm>
</extensions>
</trkpt>
<trkpt lat="63.749584198" lon="-20.240016937">
<ele>40.666016</ele>
<time>2012-07-26T20:59:14Z</time>
<speed>0.010000</speed>
<extensions>
<speed>0.0</speed>
<temp>0.00</temp>
<bpm>0</bpm>
<rpm>0.00</rpm>
</extensions>
</trkpt>
<trkpt lat="63.749584198" lon="-20.240016937">
<ele>40.664063</ele>
<time>2012-07-26T20:59:19Z</time>
<speed>0.010000</speed>
<extensions>
<speed>0.0</speed>
<temp>0.00</temp>
<bpm>0</bpm>
<rpm>0.00</rpm>
</extensions>
</trkpt>
<trkpt lat="63.749584198" lon="-20.240016937">
<ele>40.661133</ele>
<time>2012-07-26T20:59:24Z</time>
<speed>0.010000</speed>
<extensions>
<speed>0.0</speed>
<temp>0.00</temp>
<bpm>0</bpm>
<rpm>0.00</rpm>
</extensions>
</trkpt>
<trkpt lat="63.749584198" lon="-20.240016937">
<ele>40.672852</ele>
<time>2012-07-26T20:59:29Z</time>
<extensions>
<speed>0.0</speed>
<temp>0.00</temp>
<bpm>0</bpm>
<rpm>0.00</rpm>
</extensions>
</trkpt>
<trkpt lat="63.749584198" lon="-20.240016937">
<ele>40.670898</ele>
<time>2012-07-26T20:59:34Z</time>
<speed>0.010000</speed>
<extensions>
<speed>0.0</speed>
<temp>0.00</temp>
<bpm>0</bpm>
<rpm>0.00</rpm>
</extensions>
</trkpt>
<trkpt lat="63.749584198" lon="-20.240016937">
<ele>40.664063</ele>
<time>2012-07-26T20:59:39Z</time>
<speed>0.010000</speed>
<extensions>
<speed>0.0</speed>
<temp>0.00</temp>
<bpm>0</bpm>
<rpm>0.00</rpm>
</extensions>
</trkpt>
<trkpt lat="63.749584198" lon="-20.240016937">
<ele>40.669922</ele>
<time>2012-07-26T20:59:44Z</time>
<speed>0.010000</speed>
<extensions>
<speed>0.0</speed>
<temp>0.00</temp>
<bpm>0</bpm>
<rpm>0.00</rpm>
</extensions>
</trkpt>
<trkpt lat="63.749584198" lon="-20.240016937">
<ele>40.651367</ele>
<time>2012-07-26T20:59:49Z</time>
<speed>0.010000</speed>
<extensions>
<speed>0.0</speed>
<temp>0.00</temp>
<bpm>0</bpm>
<rpm>0.00</rpm>
</extensions>
</trkpt>
<trkpt lat="63.749584198" lon="-20.240016937">
<ele>40.654297</ele>
<time>2012-07-26T20:59:54Z</time>
<extensions>
<speed>0.0</speed>
<temp>0.00</temp>
<bpm>0</bpm>
<rpm>0.00</rpm>
</extensions>
</trkpt>
<trkpt lat="63.749584198" lon="-20.240016937">
<ele>40.649414</ele>
<time>2012-07-26T20:59:59Z</time>
<speed>0.010000</speed>
<extensions>
<speed>0.0</speed>
<temp>0.00</temp>
<bpm>0</bpm>
<rpm>0.00</rpm>
</extensions>
</trkpt>
<trkpt lat="63.749584198" lon="-20.240016937">
<ele>40.645508</ele>
<time>2012-07-26T21:00:04Z</time>
<extensions>
<speed>0.0</speed>
<temp>0.00</temp>
<bpm>0</bpm>
<rpm>0.00</rpm>
</extensions>
</trkpt>
<trkpt lat="63.749584198" lon="-20.240016937">
<ele>40.641602</ele>
<time>2012-07-26T21:00:09Z</time>
<extensions>
<speed>0.0</speed>
<temp>0.00</temp>
<bpm>0</bpm>
<rpm>0.00</rpm>
</extensions>
</trkpt>
<trkpt lat="63.749584198" lon="-20.240016937">
<ele>40.634766</ele>
<time>2012-07-26T21:00:14Z</time>
<extensions>
<speed>0.0</speed>
<temp>0.00</temp>
<bpm>0</bpm>
<rpm>0.00</rpm>
</extensions>
</trkpt>
<trkpt lat="63.749584198" lon="-20.240016937">
<ele>40.630859</ele>
<time>2012-07-26T21:00:19Z</time>
<speed>0.010000</speed>
<extensions>
<speed>0.0</speed>
<temp>0.00</temp>
<bpm>0</bpm>
<rpm>0.00</rpm>
</extensions>
</trkpt>
<trkpt lat="63.749584198" lon="-20.240016937">
<ele>40.625977</ele>
<time>2012-07-26T21:00:24Z</time>
<speed>0.020000</speed>
<extensions>
<speed>0.0</speed>
<temp>0.00</temp>
<bpm>0</bpm>
<rpm>0.00</rpm>
</extensions>
</trkpt>
<trkpt lat="63.749584198" lon="-20.240016937">
<ele>40.622070</ele>
<time>2012-07-26T21:00:29Z</time>
<extensions>
<speed>0.0</speed>
<temp>0.00</temp>
<bpm>0</bpm>
<rpm>0.00</rpm>
</extensions>
</trkpt>
<trkpt lat="63.749584198" lon="-20.240016937">
<ele>40.614258</ele>
<time>2012-07-26T21:00:34Z</time>
<extensions>
<speed>0.0</speed>
<temp>0.00</temp>
<bpm>0</bpm>
<rpm>0.00</rpm>
</extensions>
</trkpt>
<trkpt lat="63.749584198" lon="-20.240016937">
<ele>40.604492</ele>
<time>2012-07-26T21:00:39Z</time>
<speed>0.010000</speed>
<extensions>
<speed>0.0</speed>
<temp>0.00</temp>
<bpm>0</bpm>
<rpm>0.00</rpm>
</extensions>
</trkpt>
<trkpt lat="63.749584198" lon="-20.240016937">
<ele>40.592773</ele>
<time>2012-07-26T21:00:44Z</time>
<speed>0.010000</speed>
<extensions>
<speed>0.0</speed>
<temp>0.00</temp>
<bpm>0</bpm>
<rpm>0.00</rpm>
</extensions>
</trkpt>
<trkpt lat="63.749584198" lon="-20.240016937">
<ele>40.587891</ele>
<time>2012-07-26T21:00:49Z</time>
<speed>0.010000</speed>
<extensions>
<speed>0.0</speed>
<temp>0.00</temp>
<bpm>0</bpm>
<rpm>0.00</rpm>
</extensions>
</trkpt>
<trkpt lat="63.749584198" lon="-20.240016937">
<ele>40.577148</ele>
<time>2012-07-26T21:00:54Z</time>
<extensions>
<speed>0.0</speed>
<temp>0.00</temp>
<bpm>0</bpm>
<rpm>0.00</rpm>
</extensions>
</trkpt>
<trkpt lat="63.749584198" lon="-20.240016937">
<ele>40.573242</ele>
<time>2012-07-26T21:00:59Z</time>
<extensions>
<speed>0.0</speed>
<temp>0.00</temp>
<bpm>0</bpm>
<rpm>0.00</rpm>
</extensions>
</trkpt>
<trkpt lat="63.749584198" lon="-20.240016937">
<ele>40.568359</ele>
<time>2012-07-26T21:01:04Z</time>
<extensions>
<speed>0.0</speed>
<temp>0.00</temp>
<bpm>0</bpm>
<rpm>0.00</rpm>
</extensions>
</trkpt>
<trkpt lat="63.749584198" lon="-20.240016937">
<ele>40.574219</ele>
<time>2012-07-26T21:01:09Z</time>
<extensions>
<speed>0.0</speed>
<temp>0.00</temp>
<bpm>0</bpm>
<rpm>0.00</rpm>
</extensions>
</trkpt>
<trkpt lat="63.749584198" lon="-20.240016937">
<ele>40.575195</ele>
<time>2012-07-26T21:01:14Z</time>
<speed>0.010000</speed>
<extensions>
<speed>0.0</speed>
<temp>0.00</temp>
<bpm>0</bpm>
<rpm>0.00</rpm>
</extensions>
</trkpt>
<trkpt lat="63.749584198" lon="-20.240016937">
<ele>40.578125</ele>
<time>2012-07-26T21:01:19Z</time>
<extensions>
<speed>0.0</speed>
<temp>0.00</temp>
<bpm>0</bpm>
<rpm>0.00</rpm>
</extensions>
</trkpt>
<trkpt lat="63.749584198" lon="-20.240016937">
<ele>40.588867</ele>
<time>2012-07-26T21:01:24Z</time>
<extensions>
<speed>0.0</speed>
<temp>0.00</temp>
<bpm>0</bpm>
<rpm>0.00</rpm>
</extensions>
</trkpt>
<trkpt lat="63.749584198" lon="-20.240016937">
<ele>40.596680</ele>
<time>2012-07-26T21:01:29Z</time>
<speed>0.020000</speed>
<extensions>
<speed>0.0</speed>
<temp>0.00</temp>
<bpm>0</bpm>
<rpm>0.00</rpm>
</extensions>
</trkpt>
<trkpt lat="63.749584198" lon="-20.240016937">
<ele>40.599609</ele>
<time>2012-07-26T21:01:34Z</time>
<speed>0.010000</speed>
<extensions>
<speed>0.0</speed>
<temp>0.00</temp>
<bpm>0</bpm>
<rpm>0.00</rpm>
</extensions>
</trkpt>
<trkpt lat="63.749584198" lon="-20.240016937">
<ele>40.592773</ele>
<time>2012-07-26T21:01:39Z</time>
<speed>0.010000</speed>
<extensions>
<speed>0.0</speed>
<temp>0.00</temp>
<bpm>0</bpm>
<rpm>0.00</rpm>
</extensions>
</trkpt>
<trkpt lat="63.749584198" lon="-20.240016937">
<ele>40.597656</ele>
<time>2012-07-26T21:01:44Z</time>
<extensions>
<speed>0.0</speed>
<temp>0.00</temp>
<bpm>0</bpm>
<rpm>0.00</rpm>
</extensions>
</trkpt>
<trkpt lat="63.749584198" lon="-20.240016937">
<ele>40.601563</ele>
<time>2012-07-26T21:01:49Z</time>
<extensions>
<speed>0.0</speed>
<temp>0.00</temp>
<bpm>0</bpm>
<rpm>0.00</rpm>
</extensions>
</trkpt>
<trkpt lat="63.749584198" lon="-20.240016937">
<ele>40.599609</ele>
<time>2012-07-26T21:01:54Z</time>
<extensions>
<speed>0.0</speed>
<temp>0.00</temp>
<bpm>0</bpm>
<rpm>0.00</rpm>
</extensions>
</trkpt>
<trkpt lat="63.749584198" lon="-20.240016937">
<ele>40.597656</ele>
<time>2012-07-26T21:01:59Z</time>
<extensions>
<speed>0.0</speed>
<temp>0.00</temp>
<bpm>0</bpm>
<rpm>0.00</rpm>
</extensions>
</trkpt>
<trkpt lat="63.749584198" lon="-20.240016937">
<ele>40.589844</ele>
<time>2012-07-26T21:02:04Z</time>
<extensions>
<speed>0.0</speed>
<temp>0.00</temp>
<bpm>0</bpm>
<rpm>0.00</rpm>
</extensions>
</trkpt>
<trkpt lat="63.749584198" lon="-20.240016937">
<ele>40.591797</ele>
<time>2012-07-26T21:02:09Z</time>
<speed>0.010000</speed>
<extensions>
<speed>0.0</speed>
<temp>0.00</temp>
<bpm>0</bpm>
<rpm>0.00</rpm>
</extensions>
</trkpt>
<trkpt lat="63.749584198" lon="-20.240016937">
<ele>40.589844</ele>
<time>2012-07-26T21:02:14Z</time>
<speed>0.010000</speed>
<extensions>
<speed>0.0</speed>
<temp>0.00</temp>
<bpm>0</bpm>
<rpm>0.00</rpm>
</extensions>
</trkpt>
<trkpt lat="63.749584198" lon="-20.240016937">
<ele>40.587891</ele>
<time>2012-07-26T21:02:19Z</time>
<extensions>
<speed>0.0</speed>
<temp>0.00</temp>
<bpm>0</bpm>
<rpm>0.00</rpm>
</extensions>
</trkpt>
<trkpt lat="63.749584198" lon="-20.240016937">
<ele>40.585938</ele>
<time>2012-07-26T21:02:24Z</time>
<extensions>
<speed>0.0</speed>
<temp>0.00</temp>
<bpm>0</bpm>
<rpm>0.00</rpm>
</extensions>
</trkpt>
<trkpt lat="63.749584198" lon="-20.240016937">
<ele>40.586914</ele>
<time>2012-07-26T21:02:29Z</time>
<speed>0.010000</speed>
<extensions>
<speed>0.0</speed>
<temp>0.00</temp>
<bpm>0</bpm>
<rpm>0.00</rpm>
</extensions>
</trkpt>
<trkpt lat="63.749584198" lon="-20.240016937">
<ele>40.580078</ele>
<time>2012-07-26T21:02:34Z</time>
<extensions>
<speed>0.0</speed>
<temp>0.00</temp>
<bpm>0</bpm>
<rpm>0.00</rpm>
</extensions>
</trkpt>
<trkpt lat="63.749584198" lon="-20.240016937">
<ele>40.577148</ele>
<time>2012-07-26T21:02:39Z</time>
<extensions>
<speed>0.0</speed>
<temp>0.00</temp>
<bpm>0</bpm>
<rpm>0.00</rpm>
</extensions>
</trkpt>
<trkpt lat="63.749584198" lon="-20.240016937">
<ele>40.568359</ele>
<time>2012-07-26T21:02:44Z</time>
<extensions>
<speed>0.0</speed>
<temp>0.00</temp>
<bpm>0</bpm>
<rpm>0.00</rpm>
</extensions>
</trkpt>
<trkpt lat="63.749584198" lon="-20.240018845">
<ele>40.565430</ele>
<time>2012-07-26T21:02:49Z</time>
<extensions>
<speed>0.0</speed>
<temp>0.00</temp>
<bpm>0</bpm>
<rpm>0.00</rpm>
</extensions>
</trkpt>
<trkpt lat="63.749584198" lon="-20.240016937">
<ele>40.560547</ele>
<time>2012-07-26T21:02:54Z</time>
<speed>0.010000</speed>
<extensions>
<speed>0.0</speed>
<temp>0.00</temp>
<bpm>0</bpm>
<rpm>0.00</rpm>
</extensions>
</trkpt>
<trkpt lat="63.749584198" lon="-20.240016937">
<ele>40.551758</ele>
<time>2012-07-26T21:02:59Z</time>
<speed>0.010000</speed>
<extensions>
<speed>0.0</speed>
<temp>0.00</temp>
<bpm>0</bpm>
<rpm>0.00</rpm>
</extensions>
</trkpt>
<trkpt lat="63.749584198" lon="-20.240016937">
<ele>40.551758</ele>
<time>2012-07-26T21:03:04Z</time>
<speed>0.010000</speed>
<extensions>
<speed>0.0</speed>
<temp>0.00</temp>
<bpm>0</bpm>
<rpm>0.00</rpm>
</extensions>
</trkpt>
<trkpt lat="63.749584198" lon="-20.240016937">
<ele>40.552734</ele>
<time>2012-07-26T21:03:09Z</time>
<extensions>
<speed>0.0</speed>
<temp>0.00</temp>
<bpm>0</bpm>
<rpm>0.00</rpm>
</extensions>
</trkpt>
<trkpt lat="63.749584198" lon="-20.240016937">
<ele>40.555664</ele>
<time>2012-07-26T21:03:14Z</time>
<extensions>
<speed>0.0</speed>
<temp>0.00</temp>
<bpm>0</bpm>
<rpm>0.00</rpm>
</extensions>
</trkpt>
<trkpt lat="63.749584198" lon="-20.240016937">
<ele>40.552734</ele>
<time>2012-07-26T21:03:19Z</time>
<speed>0.010000</speed>
<extensions>
<speed>0.0</speed>
<temp>0.00</temp>
<bpm>0</bpm>
<rpm>0.00</rpm>
</extensions>
</trkpt>
<trkpt lat="63.749584198" lon="-20.240016937">
<ele>40.554688</ele>
<time>2012-07-26T21:03:24Z</time>
<extensions>
<speed>0.0</speed>
<temp>0.00</temp>
<bpm>0</bpm>
<rpm>0.00</rpm>
</extensions>
</trkpt>
<trkpt lat="63.749584198" lon="-20.240016937">
<ele>40.550781</ele>
<time>2012-07-26T21:03:29Z</time>
<extensions>
<speed>0.0</speed>
<temp>0.00</temp>
<bpm>0</bpm>
<rpm>0.00</rpm>
</extensions>
</trkpt>
<trkpt lat="63.749584198" lon="-20.240016937">
<ele>40.545898</ele>
<time>2012-07-26T21:03:34Z</time>
<speed>0.010000</speed>
<extensions>
<speed>0.0</speed>
<temp>0.00</temp>
<bpm>0</bpm>
<rpm>0.00</rpm>
</extensions>
</trkpt>
<trkpt lat="63.749584198" lon="-20.240016937">
<ele>40.542969</ele>
<time>2012-07-26T21:03:39Z</time>
<speed>0.010000</speed>
<extensions>
<speed>0.0</speed>
<temp>0.00</temp>
<bpm>0</bpm>
<rpm>0.00</rpm>
</extensions>
</trkpt>
<trkpt lat="63.749584198" lon="-20.240018845">
<ele>40.538086</ele>
<time>2012-07-26T21:03:44Z</time>
<speed>0.010000</speed>
<extensions>
<speed>0.0</speed>
<temp>0.00</temp>
<bpm>0</bpm>
<rpm>0.00</rpm>
</extensions>
</trkpt>
<trkpt lat="63.749584198" lon="-20.240018845">
<ele>40.533203</ele>
<time>2012-07-26T21:03:49Z</time>
<speed>0.010000</speed>
<extensions>
<speed>0.0</speed>
<temp>0.00</temp>
<bpm>0</bpm>
<rpm>0.00</rpm>
</extensions>
</trkpt>
<trkpt lat="63.749584198" lon="-20.240018845">
<ele>40.538086</ele>
<time>2012-07-26T21:03:54Z</time>
<extensions>
<speed>0.0</speed>
<temp>0.00</temp>
<bpm>0</bpm>
<rpm>0.00</rpm>
</extensions>
</trkpt>
<trkpt lat="63.749584198" lon="-20.240018845">
<ele>40.547852</ele>
<time>2012-07-26T21:03:59Z</time>
<speed>0.020000</speed>
<extensions>
<speed>0.0</speed>
<temp>0.00</temp>
<bpm>0</bpm>
<rpm>0.00</rpm>
</extensions>
</trkpt>
<trkpt lat="63.749584198" lon="-20.240018845">
<ele>40.557617</ele>
<time>2012-07-26T21:04:04Z</time>
<extensions>
<speed>0.0</speed>
<temp>0.00</temp>
<bpm>0</bpm>
<rpm>0.00</rpm>
</extensions>
</trkpt>
<trkpt lat="63.749584198" lon="-20.240018845">
<ele>40.563477</ele>
<time>2012-07-26T21:04:09Z</time>
<speed>0.010000</speed>
<extensions>
<speed>0.0</speed>
<temp>0.00</temp>
<bpm>0</bpm>
<rpm>0.00</rpm>
</extensions>
</trkpt>
<trkpt lat="63.749584198" lon="-20.240018845">
<ele>40.569336</ele>
<time>2012-07-26T21:04:14Z</time>
<speed>0.010000</speed>
<extensions>
<speed>0.0</speed>
<temp>0.00</temp>
<bpm>0</bpm>
<rpm>0.00</rpm>
</extensions>
</trkpt>
<trkpt lat="63.749584198" lon="-20.240018845">
<ele>40.567383</ele>
<time>2012-07-26T21:04:19Z</time>
<speed>0.010000</speed>
<extensions>
<speed>0.0</speed>
<temp>0.00</temp>
<bpm>0</bpm>
<rpm>0.00</rpm>
</extensions>
</trkpt>
<trkpt lat="63.749584198" lon="-20.240018845">
<ele>40.564453</ele>
<time>2012-07-26T21:04:24Z</time>
<extensions>
<speed>0.0</speed>
<temp>0.00</temp>
<bpm>0</bpm>
<rpm>0.00</rpm>
</extensions>
</trkpt>
<trkpt lat="63.749584198" lon="-20.240018845">
<ele>40.575195</ele>
<time>2012-07-26T21:04:29Z</time>
<speed>0.010000</speed>
<extensions>
<speed>0.0</speed>
<temp>0.00</temp>
<bpm>0</bpm>
<rpm>0.00</rpm>
</extensions>
</trkpt>
<trkpt lat="63.749584198" lon="-20.240018845">
<ele>40.569336</ele>
<time>2012-07-26T21:04:34Z</time>
<extensions>
<speed>0.0</speed>
<temp>0.00</temp>
<bpm>0</bpm>
<rpm>0.00</rpm>
</extensions>
</trkpt>
<trkpt lat="63.749584198" lon="-20.240018845">
<ele>40.563477</ele>
<time>2012-07-26T21:04:39Z</time>
<extensions>
<speed>0.0</speed>
<temp>0.00</temp>
<bpm>0</bpm>
<rpm>0.00</rpm>
</extensions>
</trkpt>
<trkpt lat="63.749584198" lon="-20.240018845">
<ele>40.561523</ele>
<time>2012-07-26T21:04:44Z</time>
<speed>0.010000</speed>
<extensions>
<speed>0.0</speed>
<temp>0.00</temp>
<bpm>0</bpm>
<rpm>0.00</rpm>
</extensions>
</trkpt>
<trkpt lat="63.749584198" lon="-20.240018845">
<ele>40.553711</ele>
<time>2012-07-26T21:04:49Z</time>
<speed>0.010000</speed>
<extensions>
<speed>0.0</speed>
<temp>0.00</temp>
<bpm>0</bpm>
<rpm>0.00</rpm>
</extensions>
</trkpt>
<trkpt lat="63.749584198" lon="-20.240018845">
<ele>40.550781</ele>
<time>2012-07-26T21:04:54Z</time>
<speed>0.010000</speed>
<extensions>
<speed>0.0</speed>
<temp>0.00</temp>
<bpm>0</bpm>
<rpm>0.00</rpm>
</extensions>
</trkpt>
<trkpt lat="63.749584198" lon="-20.240018845">
<ele>40.548828</ele>
<time>2012-07-26T21:04:59Z</time>
<speed>0.010000</speed>
<extensions>
<speed>0.0</speed>
<temp>0.00</temp>
<bpm>0</bpm>
<rpm>0.00</rpm>
</extensions>
</trkpt>
<trkpt lat="63.749584198" lon="-20.240018845">
<ele>40.545898</ele>
<time>2012-07-26T21:05:04Z</time>
<extensions>
<speed>0.0</speed>
<temp>0.00</temp>
<bpm>0</bpm>
<rpm>0.00</rpm>
</extensions>
</trkpt>
<trkpt lat="63.749584198" lon="-20.240018845">
<ele>40.548828</ele>
<time>2012-07-26T21:05:09Z</time>
<extensions>
<speed>0.0</speed>
<temp>0.00</temp>
<bpm>0</bpm>
<rpm>0.00</rpm>
</extensions>
</trkpt>
<trkpt lat="63.749584198" lon="-20.240018845">
<ele>40.553711</ele>
<time>2012-07-26T21:05:14Z</time>
<extensions>
<speed>0.0</speed>
<temp>0.00</temp>
<bpm>0</bpm>
<rpm>0.00</rpm>
</extensions>
</trkpt>
<trkpt lat="63.749584198" lon="-20.240018845">
<ele>40.551758</ele>
<time>2012-07-26T21:05:19Z</time>
<extensions>
<speed>0.0</speed>
<temp>0.00</temp>
<bpm>0</bpm>
<rpm>0.00</rpm>
</extensions>
</trkpt>
<trkpt lat="63.749584198" lon="-20.240018845">
<ele>40.564453</ele>
<time>2012-07-26T21:05:24Z</time>
<extensions>
<speed>0.0</speed>
<temp>0.00</temp>
<bpm>0</bpm>
<rpm>0.00</rpm>
</extensions>
</trkpt>
<trkpt lat="63.749584198" lon="-20.240018845">
<ele>40.571289</ele>
<time>2012-07-26T21:05:29Z</time>
<extensions>
<speed>0.0</speed>
<temp>0.00</temp>
<bpm>0</bpm>
<rpm>0.00</rpm>
</extensions>
</trkpt>
<trkpt lat="63.749584198" lon="-20.240018845">
<ele>40.577148</ele>
<time>2012-07-26T21:05:34Z</time>
<extensions>
<speed>0.0</speed>
<temp>0.00</temp>
<bpm>0</bpm>
<rpm>0.00</rpm>
</extensions>
</trkpt>
<trkpt lat="63.749584198" lon="-20.240018845">
<ele>40.584961</ele>
<time>2012-07-26T21:05:39Z</time>
<extensions>
<speed>0.0</speed>
<temp>0.00</temp>
<bpm>0</bpm>
<rpm>0.00</rpm>
</extensions>
</trkpt>
<trkpt lat="63.749584198" lon="-20.240018845">
<ele>40.589844</ele>
<time>2012-07-26T21:05:44Z</time>
<extensions>
<speed>0.0</speed>
<temp>0.00</temp>
<bpm>0</bpm>
<rpm>0.00</rpm>
</extensions>
</trkpt>
<trkpt lat="63.749584198" lon="-20.240018845">
<ele>40.594727</ele>
<time>2012-07-26T21:05:49Z</time>
<extensions>
<speed>0.0</speed>
<temp>0.00</temp>
<bpm>0</bpm>
<rpm>0.00</rpm>
</extensions>
</trkpt>
<trkpt lat="63.749584198" lon="-20.240018845">
<ele>40.604492</ele>
<time>2012-07-26T21:05:54Z</time>
<extensions>
<speed>0.0</speed>
<temp>0.00</temp>
<bpm>0</bpm>
<rpm>0.00</rpm>
</extensions>
</trkpt>
<trkpt lat="63.749584198" lon="-20.240018845">
<ele>40.614258</ele>
<time>2012-07-26T21:05:59Z</time>
<speed>0.010000</speed>
<extensions>
<speed>0.0</speed>
<temp>0.00</temp>
<bpm>0</bpm>
<rpm>0.00</rpm>
</extensions>
</trkpt>
<trkpt lat="63.749584198" lon="-20.240018845">
<ele>40.621094</ele>
<time>2012-07-26T21:06:04Z</time>
<speed>0.010000</speed>
<extensions>
<speed>0.0</speed>
<temp>0.00</temp>
<bpm>0</bpm>
<rpm>0.00</rpm>
</extensions>
</trkpt>
<trkpt lat="63.749584198" lon="-20.240018845">
<ele>40.625977</ele>
<time>2012-07-26T21:06:09Z</time>
<speed>0.030000</speed>
<extensions>
<speed>0.0</speed>
<temp>0.00</temp>
<bpm>0</bpm>
<rpm>0.00</rpm>
</extensions>
</trkpt>
<trkpt lat="63.749584198" lon="-20.240018845">
<ele>40.636719</ele>
<time>2012-07-26T21:06:14Z</time>
<speed>0.010000</speed>
<extensions>
<speed>0.0</speed>
<temp>0.00</temp>
<bpm>0</bpm>
<rpm>0.00</rpm>
</extensions>
</trkpt>
<trkpt lat="63.749584198" lon="-20.240018845">
<ele>40.638672</ele>
<time>2012-07-26T21:06:19Z</time>
<speed>0.010000</speed>
<extensions>
<speed>0.0</speed>
<temp>0.00</temp>
<bpm>0</bpm>
<rpm>0.00</rpm>
</extensions>
</trkpt>
<trkpt lat="63.749584198" lon="-20.240018845">
<ele>40.633789</ele>
<time>2012-07-26T21:06:24Z</time>
<speed>0.010000</speed>
<extensions>
<speed>0.0</speed>
<temp>0.00</temp>
<bpm>0</bpm>
<rpm>0.00</rpm>
</extensions>
</trkpt>
<trkpt lat="63.749584198" lon="-20.240018845">
<ele>40.633789</ele>
<time>2012-07-26T21:06:29Z</time>
<speed>0.010000</speed>
<extensions>
<speed>0.0</speed>
<temp>0.00</temp>
<bpm>0</bpm>
<rpm>0.00</rpm>
</extensions>
</trkpt>
<trkpt lat="63.749584198" lon="-20.240018845">
<ele>40.629883</ele>
<time>2012-07-26T21:06:34Z</time>
<extensions>
<speed>0.0</speed>
<temp>0.00</temp>
<bpm>0</bpm>
<rpm>0.00</rpm>
</extensions>
</trkpt>
<trkpt lat="63.749584198" lon="-20.240018845">
<ele>40.626953</ele>
<time>2012-07-26T21:06:39Z</time>
<extensions>
<speed>0.0</speed>
<temp>0.00</temp>
<bpm>0</bpm>
<rpm>0.00</rpm>
</extensions>
</trkpt>
<trkpt lat="63.749584198" lon="-20.240018845">
<ele>40.625977</ele>
<time>2012-07-26T21:06:44Z</time>
<extensions>
<speed>0.0</speed>
<temp>0.00</temp>
<bpm>0</bpm>
<rpm>0.00</rpm>
</extensions>
</trkpt>
<trkpt lat="63.749584198" lon="-20.240018845">
<ele>40.623047</ele>
<time>2012-07-26T21:06:49Z</time>
<extensions>
<speed>0.0</speed>
<temp>0.00</temp>
<bpm>0</bpm>
<rpm>0.00</rpm>
</extensions>
</trkpt>
<trkpt lat="63.749584198" lon="-20.240018845">
<ele>40.629883</ele>
<time>2012-07-26T21:06:54Z</time>
<extensions>
<speed>0.0</speed>
<temp>0.00</temp>
<bpm>0</bpm>
<rpm>0.00</rpm>
</extensions>
</trkpt>
<trkpt lat="63.749584198" lon="-20.240018845">
<ele>40.628906</ele>
<time>2012-07-26T21:06:59Z</time>
<speed>0.010000</speed>
<extensions>
<speed>0.0</speed>
<temp>0.00</temp>
<bpm>0</bpm>
<rpm>0.00</rpm>
</extensions>
</trkpt>
<trkpt lat="63.749584198" lon="-20.240018845">
<ele>40.621094</ele>
<time>2012-07-26T21:07:04Z</time>
<speed>0.010000</speed>
<extensions>
<speed>0.0</speed>
<temp>0.00</temp>
<bpm>0</bpm>
<rpm>0.00</rpm>
</extensions>
</trkpt>
<trkpt lat="63.749584198" lon="-20.240018845">
<ele>40.617188</ele>
<time>2012-07-26T21:07:09Z</time>
<speed>0.010000</speed>
<extensions>
<speed>0.0</speed>
<temp>0.00</temp>
<bpm>0</bpm>
<rpm>0.00</rpm>
</extensions>
</trkpt>
<trkpt lat="63.749584198" lon="-20.240018845">
<ele>40.615234</ele>
<time>2012-07-26T21:07:14Z</time>
<speed>0.010000</speed>
<extensions>
<speed>0.0</speed>
<temp>0.00</temp>
<bpm>0</bpm>
<rpm>0.00</rpm>
</extensions>
</trkpt>
<trkpt lat="63.749584198" lon="-20.240018845">
<ele>40.616211</ele>
<time>2012-07-26T21:07:19Z</time>
<speed>0.010000</speed>
<extensions>
<speed>0.0</speed>
<temp>0.00</temp>
<bpm>0</bpm>
<rpm>0.00</rpm>
</extensions>
</trkpt>
<trkpt lat="63.749584198" lon="-20.240018845">
<ele>40.619141</ele>
<time>2012-07-26T21:07:24Z</time>
<speed>0.010000</speed>
<extensions>
<speed>0.0</speed>
<temp>0.00</temp>
<bpm>0</bpm>
<rpm>0.00</rpm>
</extensions>
</trkpt>
<trkpt lat="63.749584198" lon="-20.240018845">
<ele>40.621094</ele>
<time>2012-07-26T21:07:29Z</time>
<speed>0.020000</speed>
<extensions>
<speed>0.0</speed>
<temp>0.00</temp>
<bpm>0</bpm>
<rpm>0.00</rpm>
</extensions>
</trkpt>
<trkpt lat="63.749584198" lon="-20.240018845">
<ele>40.626953</ele>
<time>2012-07-26T21:07:34Z</time>
<extensions>
<speed>0.0</speed>
<temp>0.00</temp>
<bpm>0</bpm>
<rpm>0.00</rpm>
</extensions>
</trkpt>
<trkpt lat="63.749584198" lon="-20.240018845">
<ele>40.630859</ele>
<time>2012-07-26T21:07:39Z</time>
<speed>0.010000</speed>
<extensions>
<speed>0.0</speed>
<temp>0.00</temp>
<bpm>0</bpm>
<rpm>0.00</rpm>
</extensions>
</trkpt>
<trkpt lat="63.749584198" lon="-20.240018845">
<ele>40.631836</ele>
<time>2012-07-26T21:07:44Z</time>
<speed>0.010000</speed>
<extensions>
<speed>0.0</speed>
<temp>0.00</temp>
<bpm>0</bpm>
<rpm>0.00</rpm>
</extensions>
</trkpt>
<trkpt lat="63.749584198" lon="-20.240018845">
<ele>40.628906</ele>
<time>2012-07-26T21:07:49Z</time>
<extensions>
<speed>0.0</speed>
<temp>0.00</temp>
<bpm>0</bpm>
<rpm>0.00</rpm>
</extensions>
</trkpt>
<trkpt lat="63.749584198" lon="-20.240018845">
<ele>40.629883</ele>
<time>2012-07-26T21:07:54Z</time>
<extensions>
<speed>0.0</speed>
<temp>0.00</temp>
<bpm>0</bpm>
<rpm>0.00</rpm>
</extensions>
</trkpt>
<trkpt lat="63.749584198" lon="-20.240018845">
<ele>40.628906</ele>
<time>2012-07-26T21:07:59Z</time>
<extensions>
<speed>0.0</speed>
<temp>0.00</temp>
<bpm>0</bpm>
<rpm>0.00</rpm>
</extensions>
</trkpt>
<trkpt lat="63.749584198" lon="-20.240018845">
<ele>40.624023</ele>
<time>2012-07-26T21:08:04Z</time>
<speed>0.010000</speed>
<extensions>
<speed>0.0</speed>
<temp>0.00</temp>
<bpm>0</bpm>
<rpm>0.00</rpm>
</extensions>
</trkpt>
<trkpt lat="63.749584198" lon="-20.240018845">
<ele>40.632813</ele>
<time>2012-07-26T21:08:09Z</time>
<extensions>
<speed>0.0</speed>
<temp>0.00</temp>
<bpm>0</bpm>
<rpm>0.00</rpm>
</extensions>
</trkpt>
<trkpt lat="63.749584198" lon="-20.240018845">
<ele>40.633789</ele>
<time>2012-07-26T21:08:14Z</time>
<extensions>
<speed>0.0</speed>
<temp>0.00</temp>
<bpm>0</bpm>
<rpm>0.00</rpm>
</extensions>
</trkpt>
<trkpt lat="63.749584198" lon="-20.240018845">
<ele>40.634766</ele>
<time>2012-07-26T21:08:19Z</time>
<extensions>
<speed>0.0</speed>
<temp>0.00</temp>
<bpm>0</bpm>
<rpm>0.00</rpm>
</extensions>
</trkpt>
<trkpt lat="63.749584198" lon="-20.240018845">
<ele>40.640625</ele>
<time>2012-07-26T21:08:24Z</time>
<speed>0.010000</speed>
<extensions>
<speed>0.0</speed>
<temp>0.00</temp>
<bpm>0</bpm>
<rpm>0.00</rpm>
</extensions>
</trkpt>
<trkpt lat="63.749584198" lon="-20.240018845">
<ele>40.644531</ele>
<time>2012-07-26T21:08:29Z</time>
<extensions>
<speed>0.0</speed>
<temp>0.00</temp>
<bpm>0</bpm>
<rpm>0.00</rpm>
</extensions>
</trkpt>
<trkpt lat="63.749584198" lon="-20.240018845">
<ele>40.645508</ele>
<time>2012-07-26T21:08:34Z</time>
<speed>0.010000</speed>
<extensions>
<speed>0.0</speed>
<temp>0.00</temp>
<bpm>0</bpm>
<rpm>0.00</rpm>
</extensions>
</trkpt>
<trkpt lat="63.749584198" lon="-20.240018845">
<ele>40.657227</ele>
<time>2012-07-26T21:08:39Z</time>
<speed>0.010000</speed>
<extensions>
<speed>0.0</speed>
<temp>0.00</temp>
<bpm>0</bpm>
<rpm>0.00</rpm>
</extensions>
</trkpt>
<trkpt lat="63.749584198" lon="-20.240018845">
<ele>40.663086</ele>
<time>2012-07-26T21:08:44Z</time>
<extensions>
<speed>0.0</speed>
<temp>0.00</temp>
<bpm>0</bpm>
<rpm>0.00</rpm>
</extensions>
</trkpt>
<trkpt lat="63.749584198" lon="-20.240018845">
<ele>40.670898</ele>
<time>2012-07-26T21:08:49Z</time>
<extensions>
<speed>0.0</speed>
<temp>0.00</temp>
<bpm>0</bpm>
<rpm>0.00</rpm>
</extensions>
</trkpt>
<trkpt lat="63.749584198" lon="-20.240018845">
<ele>40.682617</ele>
<time>2012-07-26T21:08:54Z</time>
<extensions>
<speed>0.0</speed>
<temp>0.00</temp>
<bpm>0</bpm>
<rpm>0.00</rpm>
</extensions>
</trkpt>
<trkpt lat="63.749584198" lon="-20.240018845">
<ele>40.689453</ele>
<time>2012-07-26T21:08:59Z</time>
<extensions>
<speed>0.0</speed>
<temp>0.00</temp>
<bpm>0</bpm>
<rpm>0.00</rpm>
</extensions>
</trkpt>
<trkpt lat="63.749584198" lon="-20.240018845">
<ele>40.692383</ele>
<time>2012-07-26T21:09:04Z</time>
<extensions>
<speed>0.0</speed>
<temp>0.00</temp>
<bpm>0</bpm>
<rpm>0.00</rpm>
</extensions>
</trkpt>
<trkpt lat="63.749584198" lon="-20.240018845">
<ele>40.693359</ele>
<time>2012-07-26T21:09:09Z</time>
<speed>0.010000</speed>
<extensions>
<speed>0.0</speed>
<temp>0.00</temp>
<bpm>0</bpm>
<rpm>0.00</rpm>
</extensions>
</trkpt>
<trkpt lat="63.749584198" lon="-20.240018845">
<ele>40.688477</ele>
<time>2012-07-26T21:09:14Z</time>
<extensions>
<speed>0.0</speed>
<temp>0.00</temp>
<bpm>0</bpm>
<rpm>0.00</rpm>
</extensions>
</trkpt>
<trkpt lat="63.749584198" lon="-20.240018845">
<ele>40.685547</ele>
<time>2012-07-26T21:09:19Z</time>
<speed>0.010000</speed>
<extensions>
<speed>0.0</speed>
<temp>0.00</temp>
<bpm>0</bpm>
<rpm>0.00</rpm>
</extensions>
</trkpt>
<trkpt lat="63.749584198" lon="-20.240018845">
<ele>40.681641</ele>
<time>2012-07-26T21:09:24Z</time>
<speed>0.010000</speed>
<extensions>
<speed>0.0</speed>
<temp>0.00</temp>
<bpm>0</bpm>
<rpm>0.00</rpm>
</extensions>
</trkpt>
<trkpt lat="63.749584198" lon="-20.240018845">
<ele>40.677734</ele>
<time>2012-07-26T21:09:29Z</time>
<extensions>
<speed>0.0</speed>
<temp>0.00</temp>
<bpm>0</bpm>
<rpm>0.00</rpm>
</extensions>
</trkpt>
<trkpt lat="63.749584198" lon="-20.240018845">
<ele>40.676758</ele>
<time>2012-07-26T21:09:34Z</time>
<extensions>
<speed>0.0</speed>
<temp>0.00</temp>
<bpm>0</bpm>
<rpm>0.00</rpm>
</extensions>
</trkpt>
<trkpt lat="63.749584198" lon="-20.240018845">
<ele>40.675781</ele>
<time>2012-07-26T21:09:39Z</time>
<extensions>
<speed>0.0</speed>
<temp>0.00</temp>
<bpm>0</bpm>
<rpm>0.00</rpm>
</extensions>
</trkpt>
<trkpt lat="63.749584198" lon="-20.240018845">
<ele>40.673828</ele>
<time>2012-07-26T21:09:44Z</time>
<extensions>
<speed>0.0</speed>
<temp>0.00</temp>
<bpm>0</bpm>
<rpm>0.00</rpm>
</extensions>
</trkpt>
<trkpt lat="63.749584198" lon="-20.240018845">
<ele>40.671875</ele>
<time>2012-07-26T21:09:49Z</time>
<extensions>
<speed>0.0</speed>
<temp>0.00</temp>
<bpm>0</bpm>
<rpm>0.00</rpm>
</extensions>
</trkpt>
<trkpt lat="63.749584198" lon="-20.240018845">
<ele>40.666992</ele>
<time>2012-07-26T21:09:54Z</time>
<extensions>
<speed>0.0</speed>
<temp>0.00</temp>
<bpm>0</bpm>
<rpm>0.00</rpm>
</extensions>
</trkpt>
<trkpt lat="63.749584198" lon="-20.240018845">
<ele>40.660156</ele>
<time>2012-07-26T21:09:59Z</time>
<speed>0.010000</speed>
<extensions>
<speed>0.0</speed>
<temp>0.00</temp>
<bpm>0</bpm>
<rpm>0.00</rpm>
</extensions>
</trkpt>
<trkpt lat="63.749584198" lon="-20.240018845">
<ele>40.657227</ele>
<time>2012-07-26T21:10:04Z</time>
<extensions>
<speed>0.0</speed>
<temp>0.00</temp>
<bpm>0</bpm>
<rpm>0.00</rpm>
</extensions>
</trkpt>
<trkpt lat="63.749588013" lon="-20.240018845">
<ele>40.658203</ele>
<time>2012-07-26T21:10:09Z</time>
<speed>0.010000</speed>
<extensions>
<speed>0.0</speed>
<temp>0.00</temp>
<bpm>0</bpm>
<rpm>0.00</rpm>
</extensions>
</trkpt>
<trkpt lat="63.749588013" lon="-20.240018845">
<ele>40.653320</ele>
<time>2012-07-26T21:10:14Z</time>
<extensions>
<speed>0.0</speed>
<temp>0.00</temp>
<bpm>0</bpm>
<rpm>0.00</rpm>
</extensions>
</trkpt>
<trkpt lat="63.749588013" lon="-20.240018845">
<ele>40.651367</ele>
<time>2012-07-26T21:10:19Z</time>
<extensions>
<speed>0.0</speed>
<temp>0.00</temp>
<bpm>0</bpm>
<rpm>0.00</rpm>
</extensions>
</trkpt>
<trkpt lat="63.749588013" lon="-20.240018845">
<ele>40.647461</ele>
<time>2012-07-26T21:10:24Z</time>
<extensions>
<speed>0.0</speed>
<temp>0.00</temp>
<bpm>0</bpm>
<rpm>0.00</rpm>
</extensions>
</trkpt>
<trkpt lat="63.749588013" lon="-20.240018845">
<ele>40.648438</ele>
<time>2012-07-26T21:10:29Z</time>
<extensions>
<speed>0.0</speed>
<temp>0.00</temp>
<bpm>0</bpm>
<rpm>0.00</rpm>
</extensions>
</trkpt>
<trkpt lat="63.749588013" lon="-20.240018845">
<ele>40.648438</ele>
<time>2012-07-26T21:10:34Z</time>
<speed>0.010000</speed>
<extensions>
<speed>0.0</speed>
<temp>0.00</temp>
<bpm>0</bpm>
<rpm>0.00</rpm>
</extensions>
</trkpt>
<trkpt lat="63.749588013" lon="-20.240018845">
<ele>40.644531</ele>
<time>2012-07-26T21:10:39Z</time>
<extensions>
<speed>0.0</speed>
<temp>0.00</temp>
<bpm>0</bpm>
<rpm>0.00</rpm>
</extensions>
</trkpt>
<trkpt lat="63.749588013" lon="-20.240018845">
<ele>40.650391</ele>
<time>2012-07-26T21:10:44Z</time>
<speed>0.010000</speed>
<extensions>
<speed>0.0</speed>
<temp>0.00</temp>
<bpm>0</bpm>
<rpm>0.00</rpm>
</extensions>
</trkpt>
<trkpt lat="63.749588013" lon="-20.240016937">
<ele>40.646484</ele>
<time>2012-07-26T21:10:49Z</time>
<extensions>
<speed>0.0</speed>
<temp>0.00</temp>
<bpm>0</bpm>
<rpm>0.00</rpm>
</extensions>
</trkpt>
<trkpt lat="63.749588013" lon="-20.240016937">
<ele>40.648438</ele>
<time>2012-07-26T21:10:54Z</time>
<extensions>
<speed>0.0</speed>
<temp>0.00</temp>
<bpm>0</bpm>
<rpm>0.00</rpm>
</extensions>
</trkpt>
<trkpt lat="63.749588013" lon="-20.240016937">
<ele>40.647461</ele>
<time>2012-07-26T21:10:59Z</time>
<extensions>
<speed>0.0</speed>
<temp>0.00</temp>
<bpm>0</bpm>
<rpm>0.00</rpm>
</extensions>
</trkpt>
<trkpt lat="63.749588013" lon="-20.240016937">
<ele>40.656250</ele>
<time>2012-07-26T21:11:04Z</time>
<speed>0.010000</speed>
<extensions>
<speed>0.0</speed>
<temp>0.00</temp>
<bpm>0</bpm>
<rpm>0.00</rpm>
</extensions>
</trkpt>
<trkpt lat="63.749588013" lon="-20.240016937">
<ele>40.659180</ele>
<time>2012-07-26T21:11:09Z</time>
<speed>0.010000</speed>
<extensions>
<speed>0.0</speed>
<temp>0.00</temp>
<bpm>0</bpm>
<rpm>0.00</rpm>
</extensions>
</trkpt>
<trkpt lat="63.749588013" lon="-20.240016937">
<ele>40.658203</ele>
<time>2012-07-26T21:11:14Z</time>
<extensions>
<speed>0.0</speed>
<temp>0.00</temp>
<bpm>0</bpm>
<rpm>0.00</rpm>
</extensions>
</trkpt>
<trkpt lat="63.749588013" lon="-20.240016937">
<ele>40.662109</ele>
<time>2012-07-26T21:11:19Z</time>
<extensions>
<speed>0.0</speed>
<temp>0.00</temp>
<bpm>0</bpm>
<rpm>0.00</rpm>
</extensions>
</trkpt>
<trkpt lat="63.749588013" lon="-20.240016937">
<ele>40.666016</ele>
<time>2012-07-26T21:11:24Z</time>
<speed>0.020000</speed>
<extensions>
<speed>0.0</speed>
<temp>0.00</temp>
<bpm>0</bpm>
<rpm>0.00</rpm>
</extensions>
</trkpt>
<trkpt lat="63.749588013" lon="-20.240016937">
<ele>40.675781</ele>
<time>2012-07-26T21:11:29Z</time>
<speed>0.020000</speed>
<extensions>
<speed>0.0</speed>
<temp>0.00</temp>
<bpm>0</bpm>
<rpm>0.00</rpm>
</extensions>
</trkpt>
<trkpt lat="63.749588013" lon="-20.240016937">
<ele>40.679688</ele>
<time>2012-07-26T21:11:34Z</time>
<extensions>
<speed>0.0</speed>
<temp>0.00</temp>
<bpm>0</bpm>
<rpm>0.00</rpm>
</extensions>
</trkpt>
<trkpt lat="63.749588013" lon="-20.240016937">
<ele>40.688477</ele>
<time>2012-07-26T21:11:39Z</time>
<speed>0.010000</speed>
<extensions>
<speed>0.0</speed>
<temp>0.00</temp>
<bpm>0</bpm>
<rpm>0.00</rpm>
</extensions>
</trkpt>
<trkpt lat="63.749588013" lon="-20.240016937">
<ele>40.696289</ele>
<time>2012-07-26T21:11:44Z</time>
<extensions>
<speed>0.0</speed>
<temp>0.00</temp>
<bpm>0</bpm>
<rpm>0.00</rpm>
</extensions>
</trkpt>
<trkpt lat="63.749588013" lon="-20.240016937">
<ele>40.704102</ele>
<time>2012-07-26T21:11:49Z</time>
<speed>0.010000</speed>
<extensions>
<speed>0.0</speed>
<temp>0.00</temp>
<bpm>0</bpm>
<rpm>0.00</rpm>
</extensions>
</trkpt>
<trkpt lat="63.749588013" lon="-20.240016937">
<ele>40.704102</ele>
<time>2012-07-26T21:11:54Z</time>
<extensions>
<speed>0.0</speed>
<temp>0.00</temp>
<bpm>0</bpm>
<rpm>0.00</rpm>
</extensions>
</trkpt>
<trkpt lat="63.749588013" lon="-20.240016937">
<ele>40.708008</ele>
<time>2012-07-26T21:11:59Z</time>
<speed>0.010000</speed>
<extensions>
<speed>0.0</speed>
<temp>0.00</temp>
<bpm>0</bpm>
<rpm>0.00</rpm>
</extensions>
</trkpt>
<trkpt lat="63.749588013" lon="-20.240016937">
<ele>40.715820</ele>
<time>2012-07-26T21:12:04Z</time>
<extensions>
<speed>0.0</speed>
<temp>0.00</temp>
<bpm>0</bpm>
<rpm>0.00</rpm>
</extensions>
</trkpt>
<trkpt lat="63.749588013" lon="-20.240016937">
<ele>40.720703</ele>
<time>2012-07-26T21:12:09Z</time>
<extensions>
<speed>0.0</speed>
<temp>0.00</temp>
<bpm>0</bpm>
<rpm>0.00</rpm>
</extensions>
</trkpt>
<trkpt lat="63.749588013" lon="-20.240016937">
<ele>40.728516</ele>
<time>2012-07-26T21:12:14Z</time>
<speed>0.010000</speed>
<extensions>
<speed>0.0</speed>
<temp>0.00</temp>
<bpm>0</bpm>
<rpm>0.00</rpm>
</extensions>
</trkpt>
<trkpt lat="63.749588013" lon="-20.240016937">
<ele>40.742188</ele>
<time>2012-07-26T21:12:19Z</time>
<extensions>
<speed>0.0</speed>
<temp>0.00</temp>
<bpm>0</bpm>
<rpm>0.00</rpm>
</extensions>
</trkpt>
<trkpt lat="63.749588013" lon="-20.240016937">
<ele>40.757813</ele>
<time>2012-07-26T21:12:24Z</time>
<speed>0.010000</speed>
<extensions>
<speed>0.0</speed>
<temp>0.00</temp>
<bpm>0</bpm>
<rpm>0.00</rpm>
</extensions>
</trkpt>
<trkpt lat="63.749588013" lon="-20.240016937">
<ele>40.763672</ele>
<time>2012-07-26T21:12:29Z</time>
<extensions>
<speed>0.0</speed>
<temp>0.00</temp>
<bpm>0</bpm>
<rpm>0.00</rpm>
</extensions>
</trkpt>
<trkpt lat="63.749588013" lon="-20.240015030">
<ele>40.780273</ele>
<time>2012-07-26T21:12:34Z</time>
<speed>0.010000</speed>
<extensions>
<speed>0.0</speed>
<temp>0.00</temp>
<bpm>0</bpm>
<rpm>0.00</rpm>
</extensions>
</trkpt>
<trkpt lat="63.749588013" lon="-20.240015030">
<ele>40.794922</ele>
<time>2012-07-26T21:12:39Z</time>
<speed>0.010000</speed>
<extensions>
<speed>0.0</speed>
<temp>0.00</temp>
<bpm>0</bpm>
<rpm>0.00</rpm>
</extensions>
</trkpt>
<trkpt lat="63.749588013" lon="-20.240015030">
<ele>40.808594</ele>
<time>2012-07-26T21:12:44Z</time>
<extensions>
<speed>0.0</speed>
<temp>0.00</temp>
<bpm>0</bpm>
<rpm>0.00</rpm>
</extensions>
</trkpt>
<trkpt lat="63.749588013" lon="-20.240015030">
<ele>40.818359</ele>
<time>2012-07-26T21:12:49Z</time>
<extensions>
<speed>0.0</speed>
<temp>0.00</temp>
<bpm>0</bpm>
<rpm>0.00</rpm>
</extensions>
</trkpt>
<trkpt lat="63.749588013" lon="-20.240015030">
<ele>40.827148</ele>
<time>2012-07-26T21:12:54Z</time>
<extensions>
<speed>0.0</speed>
<temp>0.00</temp>
<bpm>0</bpm>
<rpm>0.00</rpm>
</extensions>
</trkpt>
<trkpt lat="63.749588013" lon="-20.240015030">
<ele>40.837891</ele>
<time>2012-07-26T21:12:59Z</time>
<speed>0.010000</speed>
<extensions>
<speed>0.0</speed>
<temp>0.00</temp>
<bpm>0</bpm>
<rpm>0.00</rpm>
</extensions>
</trkpt>
<trkpt lat="63.749588013" lon="-20.240015030">
<ele>40.855469</ele>
<time>2012-07-26T21:13:04Z</time>
<speed>0.020000</speed>
<extensions>
<speed>0.0</speed>
<temp>0.00</temp>
<bpm>0</bpm>
<rpm>0.00</rpm>
</extensions>
</trkpt>
<trkpt lat="63.749588013" lon="-20.240015030">
<ele>40.867188</ele>
<time>2012-07-26T21:13:09Z</time>
<speed>0.020000</speed>
<extensions>
<speed>0.0</speed>
<temp>0.00</temp>
<bpm>0</bpm>
<rpm>0.00</rpm>
</extensions>
</trkpt>
<trkpt lat="63.749588013" lon="-20.240015030">
<ele>40.876953</ele>
<time>2012-07-26T21:13:14Z</time>
<extensions>
<speed>0.0</speed>
<temp>0.00</temp>
<bpm>0</bpm>
<rpm>0.00</rpm>
</extensions>
</trkpt>
<trkpt lat="63.749588013" lon="-20.240015030">
<ele>40.884766</ele>
<time>2012-07-26T21:13:19Z</time>
<speed>0.010000</speed>
<extensions>
<speed>0.0</speed>
<temp>0.00</temp>
<bpm>0</bpm>
<rpm>0.00</rpm>
</extensions>
</trkpt>
<trkpt lat="63.749588013" lon="-20.240015030">
<ele>40.888672</ele>
<time>2012-07-26T21:13:24Z</time>
<speed>0.020000</speed>
<extensions>
<speed>0.0</speed>
<temp>0.00</temp>
<bpm>0</bpm>
<rpm>0.00</rpm>
</extensions>
</trkpt>
<trkpt lat="63.749588013" lon="-20.240015030">
<ele>40.898438</ele>
<time>2012-07-26T21:13:29Z</time>
<speed>0.010000</speed>
<extensions>
<speed>0.0</speed>
<temp>0.00</temp>
<bpm>0</bpm>
<rpm>0.00</rpm>
</extensions>
</trkpt>
<trkpt lat="63.749588013" lon="-20.240015030">
<ele>40.913086</ele>
<time>2012-07-26T21:13:34Z</time>
<extensions>
<speed>0.0</speed>
<temp>0.00</temp>
<bpm>0</bpm>
<rpm>0.00</rpm>
</extensions>
</trkpt>
<trkpt lat="63.749588013" lon="-20.240015030">
<ele>40.922852</ele>
<time>2012-07-26T21:13:39Z</time>
<speed>0.010000</speed>
<extensions>
<speed>0.0</speed>
<temp>0.00</temp>
<bpm>0</bpm>
<rpm>0.00</rpm>
</extensions>
</trkpt>
<trkpt lat="63.749588013" lon="-20.240015030">
<ele>40.938477</ele>
<time>2012-07-26T21:13:44Z</time>
<extensions>
<speed>0.0</speed>
<temp>0.00</temp>
<bpm>0</bpm>
<rpm>0.00</rpm>
</extensions>
</trkpt>
<trkpt lat="63.749588013" lon="-20.240015030">
<ele>40.949219</ele>
<time>2012-07-26T21:13:49Z</time>
<speed>0.010000</speed>
<extensions>
<speed>0.0</speed>
<temp>0.00</temp>
<bpm>0</bpm>
<rpm>0.00</rpm>
</extensions>
</trkpt>
<trkpt lat="63.749588013" lon="-20.240013123">
<ele>40.955078</ele>
<time>2012-07-26T21:13:54Z</time>
<speed>0.010000</speed>
<extensions>
<speed>0.0</speed>
<temp>0.00</temp>
<bpm>0</bpm>
<rpm>0.00</rpm>
</extensions>
</trkpt>
<trkpt lat="63.749584198" lon="-20.240013123">
<ele>40.963867</ele>
<time>2012-07-26T21:13:59Z</time>
<extensions>
<speed>0.0</speed>
<temp>0.00</temp>
<bpm>0</bpm>
<rpm>0.00</rpm>
</extensions>
</trkpt>
<trkpt lat="63.749584198" lon="-20.240013123">
<ele>40.979492</ele>
<time>2012-07-26T21:14:04Z</time>
<extensions>
<speed>0.0</speed>
<temp>0.00</temp>
<bpm>0</bpm>
<rpm>0.00</rpm>
</extensions>
</trkpt>
<trkpt lat="63.749584198" lon="-20.240013123">
<ele>40.988281</ele>
<time>2012-07-26T21:14:09Z</time>
<extensions>
<speed>0.0</speed>
<temp>0.00</temp>
<bpm>0</bpm>
<rpm>0.00</rpm>
</extensions>
</trkpt>
<trkpt lat="63.749584198" lon="-20.240013123">
<ele>41.003906</ele>
<time>2012-07-26T21:14:14Z</time>
<extensions>
<speed>0.0</speed>
<temp>0.00</temp>
<bpm>0</bpm>
<rpm>0.00</rpm>
</extensions>
</trkpt>
<trkpt lat="63.749584198" lon="-20.240013123">
<ele>41.011719</ele>
<time>2012-07-26T21:14:19Z</time>
<extensions>
<speed>0.0</speed>
<temp>0.00</temp>
<bpm>0</bpm>
<rpm>0.00</rpm>
</extensions>
</trkpt>
<trkpt lat="63.749584198" lon="-20.240013123">
<ele>41.019531</ele>
<time>2012-07-26T21:14:24Z</time>
<speed>0.020000</speed>
<extensions>
<speed>0.0</speed>
<temp>0.00</temp>
<bpm>0</bpm>
<rpm>0.00</rpm>
</extensions>
</trkpt>
<trkpt lat="63.749584198" lon="-20.240011215">
<ele>41.024414</ele>
<time>2012-07-26T21:14:29Z</time>
<extensions>
<speed>0.0</speed>
<temp>0.00</temp>
<bpm>0</bpm>
<rpm>0.00</rpm>
</extensions>
</trkpt>
<trkpt lat="63.749584198" lon="-20.240011215">
<ele>41.025391</ele>
<time>2012-07-26T21:14:34Z</time>
<extensions>
<speed>0.0</speed>
<temp>0.00</temp>
<bpm>0</bpm>
<rpm>0.00</rpm>
</extensions>
</trkpt>
<trkpt lat="63.749584198" lon="-20.240011215">
<ele>41.030273</ele>
<time>2012-07-26T21:14:39Z</time>
<extensions>
<speed>0.0</speed>
<temp>0.00</temp>
<bpm>0</bpm>
<rpm>0.00</rpm>
</extensions>
</trkpt>
<trkpt lat="63.749584198" lon="-20.240011215">
<ele>41.038086</ele>
<time>2012-07-26T21:14:44Z</time>
<extensions>
<speed>0.0</speed>
<temp>0.00</temp>
<bpm>0</bpm>
<rpm>0.00</rpm>
</extensions>
</trkpt>
<trkpt lat="63.749584198" lon="-20.240011215">
<ele>41.044922</ele>
<time>2012-07-26T21:14:49Z</time>
<speed>0.010000</speed>
<extensions>
<speed>0.0</speed>
<temp>0.00</temp>
<bpm>0</bpm>
<rpm>0.00</rpm>
</extensions>
</trkpt>
<trkpt lat="63.749584198" lon="-20.240011215">
<ele>41.049805</ele>
<time>2012-07-26T21:14:54Z</time>
<extensions>
<speed>0.0</speed>
<temp>0.00</temp>
<bpm>0</bpm>
<rpm>0.00</rpm>
</extensions>
</trkpt>
<trkpt lat="63.749584198" lon="-20.240011215">
<ele>41.049805</ele>
<time>2012-07-26T21:14:59Z</time>
<extensions>
<speed>0.0</speed>
<temp>0.00</temp>
<bpm>0</bpm>
<rpm>0.00</rpm>
</extensions>
</trkpt>
<trkpt lat="63.749584198" lon="-20.240011215">
<ele>41.049805</ele>
<time>2012-07-26T21:15:04Z</time>
<speed>0.030000</speed>
<extensions>
<speed>0.0</speed>
<temp>0.00</temp>
<bpm>0</bpm>
<rpm>0.00</rpm>
</extensions>
</trkpt>
<trkpt lat="63.749584198" lon="-20.240011215">
<ele>41.051758</ele>
<time>2012-07-26T21:15:09Z</time>
<extensions>
<speed>0.0</speed>
<temp>0.00</temp>
<bpm>0</bpm>
<rpm>0.00</rpm>
</extensions>
</trkpt>
<trkpt lat="63.749584198" lon="-20.240011215">
<ele>41.055664</ele>
<time>2012-07-26T21:15:14Z</time>
<extensions>
<speed>0.0</speed>
<temp>0.00</temp>
<bpm>0</bpm>
<rpm>0.00</rpm>
</extensions>
</trkpt>
<trkpt lat="63.749584198" lon="-20.240011215">
<ele>41.057617</ele>
<time>2012-07-26T21:15:19Z</time>
<extensions>
<speed>0.0</speed>
<temp>0.00</temp>
<bpm>0</bpm>
<rpm>0.00</rpm>
</extensions>
</trkpt>
<trkpt lat="63.749584198" lon="-20.240011215">
<ele>41.059570</ele>
<time>2012-07-26T21:15:24Z</time>
<extensions>
<speed>0.0</speed>
<temp>0.00</temp>
<bpm>0</bpm>
<rpm>0.00</rpm>
</extensions>
</trkpt>
<trkpt lat="63.749584198" lon="-20.240011215">
<ele>41.062500</ele>
<time>2012-07-26T21:15:29Z</time>
<extensions>
<speed>0.0</speed>
<temp>0.00</temp>
<bpm>0</bpm>
<rpm>0.00</rpm>
</extensions>
</trkpt>
<trkpt lat="63.749584198" lon="-20.240011215">
<ele>41.064453</ele>
<time>2012-07-26T21:15:34Z</time>
<extensions>
<speed>0.0</speed>
<temp>0.00</temp>
<bpm>0</bpm>
<rpm>0.00</rpm>
</extensions>
</trkpt>
<trkpt lat="63.749584198" lon="-20.240011215">
<ele>41.058594</ele>
<time>2012-07-26T21:15:39Z</time>
<extensions>
<speed>0.0</speed>
<temp>0.00</temp>
<bpm>0</bpm>
<rpm>0.00</rpm>
</extensions>
</trkpt>
<trkpt lat="63.749584198" lon="-20.240011215">
<ele>41.062500</ele>
<time>2012-07-26T21:15:44Z</time>
<speed>0.010000</speed>
<extensions>
<speed>0.0</speed>
<temp>0.00</temp>
<bpm>0</bpm>
<rpm>0.00</rpm>
</extensions>
</trkpt>
<trkpt lat="63.749584198" lon="-20.240011215">
<ele>41.061523</ele>
<time>2012-07-26T21:15:49Z</time>
<extensions>
<speed>0.0</speed>
<temp>0.00</temp>
<bpm>0</bpm>
<rpm>0.00</rpm>
</extensions>
</trkpt>
<trkpt lat="63.749584198" lon="-20.240011215">
<ele>41.064453</ele>
<time>2012-07-26T21:15:54Z</time>
<extensions>
<speed>0.0</speed>
<temp>0.00</temp>
<bpm>0</bpm>
<rpm>0.00</rpm>
</extensions>
</trkpt>
<trkpt lat="63.749584198" lon="-20.240011215">
<ele>41.061523</ele>
<time>2012-07-26T21:15:59Z</time>
<speed>0.030000</speed>
<extensions>
<speed>0.0</speed>
<temp>0.00</temp>
<bpm>0</bpm>
<rpm>0.00</rpm>
</extensions>
</trkpt>
<trkpt lat="63.749584198" lon="-20.240011215">
<ele>41.059570</ele>
<time>2012-07-26T21:16:04Z</time>
<speed>0.010000</speed>
<extensions>
<speed>0.0</speed>
<temp>0.00</temp>
<bpm>0</bpm>
<rpm>0.00</rpm>
</extensions>
</trkpt>
<trkpt lat="63.749584198" lon="-20.240011215">
<ele>41.057617</ele>
<time>2012-07-26T21:16:09Z</time>
<extensions>
<speed>0.0</speed>
<temp>0.00</temp>
<bpm>0</bpm>
<rpm>0.00</rpm>
</extensions>
</trkpt>
<trkpt lat="63.749584198" lon="-20.240011215">
<ele>41.060547</ele>
<time>2012-07-26T21:16:14Z</time>
<speed>0.010000</speed>
<extensions>
<speed>0.0</speed>
<temp>0.00</temp>
<bpm>0</bpm>
<rpm>0.00</rpm>
</extensions>
</trkpt>
<trkpt lat="63.749584198" lon="-20.240011215">
<ele>41.066406</ele>
<time>2012-07-26T21:16:19Z</time>
<extensions>
<speed>0.0</speed>
<temp>0.00</temp>
<bpm>0</bpm>
<rpm>0.00</rpm>
</extensions>
</trkpt>
<trkpt lat="63.749584198" lon="-20.240011215">
<ele>41.075195</ele>
<time>2012-07-26T21:16:24Z</time>
<speed>0.010000</speed>
<extensions>
<speed>0.0</speed>
<temp>0.00</temp>
<bpm>0</bpm>
<rpm>0.00</rpm>
</extensions>
</trkpt>
<trkpt lat="63.749584198" lon="-20.240011215">
<ele>41.073242</ele>
<time>2012-07-26T21:16:29Z</time>
<extensions>
<speed>0.0</speed>
<temp>0.00</temp>
<bpm>0</bpm>
<rpm>0.00</rpm>
</extensions>
</trkpt>
<trkpt lat="63.749588013" lon="-20.240009308">
<ele>41.079102</ele>
<time>2012-07-26T21:16:34Z</time>
<extensions>
<speed>0.0</speed>
<temp>0.00</temp>
<bpm>0</bpm>
<rpm>0.00</rpm>
</extensions>
</trkpt>
<trkpt lat="63.749588013" lon="-20.240009308">
<ele>41.081055</ele>
<time>2012-07-26T21:16:39Z</time>
<extensions>
<speed>0.0</speed>
<temp>0.00</temp>
<bpm>0</bpm>
<rpm>0.00</rpm>
</extensions>
</trkpt>
<trkpt lat="63.749588013" lon="-20.240009308">
<ele>41.080078</ele>
<time>2012-07-26T21:16:44Z</time>
<speed>0.010000</speed>
<extensions>
<speed>0.0</speed>
<temp>0.00</temp>
<bpm>0</bpm>
<rpm>0.00</rpm>
</extensions>
</trkpt>
<trkpt lat="63.749588013" lon="-20.240009308">
<ele>41.080078</ele>
<time>2012-07-26T21:16:49Z</time>
<extensions>
<speed>0.0</speed>
<temp>0.00</temp>
<bpm>0</bpm>
<rpm>0.00</rpm>
</extensions>
</trkpt>
<trkpt lat="63.749588013" lon="-20.240009308">
<ele>41.081055</ele>
<time>2012-07-26T21:16:54Z</time>
<extensions>
<speed>0.0</speed>
<temp>0.00</temp>
<bpm>0</bpm>
<rpm>0.00</rpm>
</extensions>
</trkpt>
<trkpt lat="63.749588013" lon="-20.240009308">
<ele>41.074219</ele>
<time>2012-07-26T21:16:59Z</time>
<extensions>
<speed>0.0</speed>
<temp>0.00</temp>
<bpm>0</bpm>
<rpm>0.00</rpm>
</extensions>
</trkpt>
<trkpt lat="63.749588013" lon="-20.240009308">
<ele>41.068359</ele>
<time>2012-07-26T21:17:04Z</time>
<extensions>
<speed>0.0</speed>
<temp>0.00</temp>
<bpm>0</bpm>
<rpm>0.00</rpm>
</extensions>
</trkpt>
<trkpt lat="63.749588013" lon="-20.240009308">
<ele>41.062500</ele>
<time>2012-07-26T21:17:09Z</time>
<speed>0.010000</speed>
<extensions>
<speed>0.0</speed>
<temp>0.00</temp>
<bpm>0</bpm>
<rpm>0.00</rpm>
</extensions>
</trkpt>
<trkpt lat="63.749588013" lon="-20.240009308">
<ele>41.056641</ele>
<time>2012-07-26T21:17:14Z</time>
<extensions>
<speed>0.0</speed>
<temp>0.00</temp>
<bpm>0</bpm>
<rpm>0.00</rpm>
</extensions>
</trkpt>
<trkpt lat="63.749588013" lon="-20.240009308">
<ele>41.049805</ele>
<time>2012-07-26T21:17:19Z</time>
<extensions>
<speed>0.0</speed>
<temp>0.00</temp>
<bpm>0</bpm>
<rpm>0.00</rpm>
</extensions>
</trkpt>
<trkpt lat="63.749588013" lon="-20.240009308">
<ele>41.051758</ele>
<time>2012-07-26T21:17:24Z</time>
<extensions>
<speed>0.0</speed>
<temp>0.00</temp>
<bpm>0</bpm>
<rpm>0.00</rpm>
</extensions>
</trkpt>
<trkpt lat="63.749588013" lon="-20.240009308">
<ele>41.051758</ele>
<time>2012-07-26T21:17:29Z</time>
<extensions>
<speed>0.0</speed>
<temp>0.00</temp>
<bpm>0</bpm>
<rpm>0.00</rpm>
</extensions>
</trkpt>
<trkpt lat="63.749588013" lon="-20.240009308">
<ele>41.046875</ele>
<time>2012-07-26T21:17:34Z</time>
<extensions>
<speed>0.0</speed>
<temp>0.00</temp>
<bpm>0</bpm>
<rpm>0.00</rpm>
</extensions>
</trkpt>
<trkpt lat="63.749588013" lon="-20.240009308">
<ele>41.041016</ele>
<time>2012-07-26T21:17:39Z</time>
<extensions>
<speed>0.0</speed>
<temp>0.00</temp>
<bpm>0</bpm>
<rpm>0.00</rpm>
</extensions>
</trkpt>
<trkpt lat="63.749588013" lon="-20.240009308">
<ele>41.040039</ele>
<time>2012-07-26T21:17:44Z</time>
<speed>0.010000</speed>
<extensions>
<speed>0.0</speed>
<temp>0.00</temp>
<bpm>0</bpm>
<rpm>0.00</rpm>
</extensions>
</trkpt>
<trkpt lat="63.749588013" lon="-20.240009308">
<ele>41.033203</ele>
<time>2012-07-26T21:17:49Z</time>
<extensions>
<speed>0.0</speed>
<temp>0.00</temp>
<bpm>0</bpm>
<rpm>0.00</rpm>
</extensions>
</trkpt>
<trkpt lat="63.749588013" lon="-20.240009308">
<ele>41.034180</ele>
<time>2012-07-26T21:17:54Z</time>
<extensions>
<speed>0.0</speed>
<temp>0.00</temp>
<bpm>0</bpm>
<rpm>0.00</rpm>
</extensions>
</trkpt>
<trkpt lat="63.749588013" lon="-20.240009308">
<ele>41.030273</ele>
<time>2012-07-26T21:17:59Z</time>
<extensions>
<speed>0.0</speed>
<temp>0.00</temp>
<bpm>0</bpm>
<rpm>0.00</rpm>
</extensions>
</trkpt>
<trkpt lat="63.749588013" lon="-20.240009308">
<ele>41.029297</ele>
<time>2012-07-26T21:18:04Z</time>
<extensions>
<speed>0.0</speed>
<temp>0.00</temp>
<bpm>0</bpm>
<rpm>0.00</rpm>
</extensions>
</trkpt>
<trkpt lat="63.749588013" lon="-20.240009308">
<ele>41.024414</ele>
<time>2012-07-26T21:18:09Z</time>
<speed>0.020000</speed>
<extensions>
<speed>0.0</speed>
<temp>0.00</temp>
<bpm>0</bpm>
<rpm>0.00</rpm>
</extensions>
</trkpt>
<trkpt lat="63.749588013" lon="-20.240009308">
<ele>41.027344</ele>
<time>2012-07-26T21:18:14Z</time>
<extensions>
<speed>0.0</speed>
<temp>0.00</temp>
<bpm>0</bpm>
<rpm>0.00</rpm>
</extensions>
</trkpt>
<trkpt lat="63.749588013" lon="-20.240009308">
<ele>41.031250</ele>
<time>2012-07-26T21:18:19Z</time>
<extensions>
<speed>0.0</speed>
<temp>0.00</temp>
<bpm>0</bpm>
<rpm>0.00</rpm>
</extensions>
</trkpt>
<trkpt lat="63.749588013" lon="-20.240009308">
<ele>41.027344</ele>
<time>2012-07-26T21:18:24Z</time>
<extensions>
<speed>0.0</speed>
<temp>0.00</temp>
<bpm>0</bpm>
<rpm>0.00</rpm>
</extensions>
</trkpt>
<trkpt lat="63.749588013" lon="-20.240009308">
<ele>41.031250</ele>
<time>2012-07-26T21:18:29Z</time>
<extensions>
<speed>0.0</speed>
<temp>0.00</temp>
<bpm>0</bpm>
<rpm>0.00</rpm>
</extensions>
</trkpt>
<trkpt lat="63.749588013" lon="-20.240009308">
<ele>41.024414</ele>
<time>2012-07-26T21:18:34Z</time>
<extensions>
<speed>0.0</speed>
<temp>0.00</temp>
<bpm>0</bpm>
<rpm>0.00</rpm>
</extensions>
</trkpt>
<trkpt lat="63.749588013" lon="-20.240009308">
<ele>41.025391</ele>
<time>2012-07-26T21:18:39Z</time>
<extensions>
<speed>0.0</speed>
<temp>0.00</temp>
<bpm>0</bpm>
<rpm>0.00</rpm>
</extensions>
</trkpt>
<trkpt lat="63.749588013" lon="-20.240009308">
<ele>41.014648</ele>
<time>2012-07-26T21:18:44Z</time>
<extensions>
<speed>0.0</speed>
<temp>0.00</temp>
<bpm>0</bpm>
<rpm>0.00</rpm>
</extensions>
</trkpt>
<trkpt lat="63.749588013" lon="-20.240009308">
<ele>41.009766</ele>
<time>2012-07-26T21:18:49Z</time>
<speed>0.010000</speed>
<extensions>
<speed>0.0</speed>
<temp>0.00</temp>
<bpm>0</bpm>
<rpm>0.00</rpm>
</extensions>
</trkpt>
<trkpt lat="63.749588013" lon="-20.240009308">
<ele>41.005859</ele>
<time>2012-07-26T21:18:54Z</time>
<speed>0.010000</speed>
<extensions>
<speed>0.0</speed>
<temp>0.00</temp>
<bpm>0</bpm>
<rpm>0.00</rpm>
</extensions>
</trkpt>
<trkpt lat="63.749588013" lon="-20.240009308">
<ele>41.000000</ele>
<time>2012-07-26T21:18:59Z</time>
<speed>0.010000</speed>
<extensions>
<speed>0.0</speed>
<temp>0.00</temp>
<bpm>0</bpm>
<rpm>0.00</rpm>
</extensions>
</trkpt>
<trkpt lat="63.749588013" lon="-20.240009308">
<ele>41.001953</ele>
<time>2012-07-26T21:19:04Z</time>
<extensions>
<speed>0.0</speed>
<temp>0.00</temp>
<bpm>0</bpm>
<rpm>0.00</rpm>
</extensions>
</trkpt>
<trkpt lat="63.749588013" lon="-20.240009308">
<ele>40.989258</ele>
<time>2012-07-26T21:19:09Z</time>
<extensions>
<speed>0.0</speed>
<temp>0.00</temp>
<bpm>0</bpm>
<rpm>0.00</rpm>
</extensions>
</trkpt>
<trkpt lat="63.749588013" lon="-20.240009308">
<ele>40.978516</ele>
<time>2012-07-26T21:19:14Z</time>
<speed>0.010000</speed>
<extensions>
<speed>0.0</speed>
<temp>0.00</temp>
<bpm>0</bpm>
<rpm>0.00</rpm>
</extensions>
</trkpt>
<trkpt lat="63.749588013" lon="-20.240009308">
<ele>40.969727</ele>
<time>2012-07-26T21:19:19Z</time>
<speed>0.010000</speed>
<extensions>
<speed>0.0</speed>
<temp>0.00</temp>
<bpm>0</bpm>
<rpm>0.00</rpm>
</extensions>
</trkpt>
<trkpt lat="63.749588013" lon="-20.240009308">
<ele>40.971680</ele>
<time>2012-07-26T21:19:24Z</time>
<extensions>
<speed>0.0</speed>
<temp>0.00</temp>
<bpm>0</bpm>
<rpm>0.00</rpm>
</extensions>
</trkpt>
<trkpt lat="63.749588013" lon="-20.240011215">
<ele>40.974609</ele>
<time>2012-07-26T21:19:29Z</time>
<extensions>
<speed>0.0</speed>
<temp>0.00</temp>
<bpm>0</bpm>
<rpm>0.00</rpm>
</extensions>
</trkpt>
<trkpt lat="63.749588013" lon="-20.240011215">
<ele>40.973633</ele>
<time>2012-07-26T21:19:34Z</time>
<speed>0.010000</speed>
<extensions>
<speed>0.0</speed>
<temp>0.00</temp>
<bpm>0</bpm>
<rpm>0.00</rpm>
</extensions>
</trkpt>
<trkpt lat="63.749588013" lon="-20.240011215">
<ele>40.971680</ele>
<time>2012-07-26T21:19:39Z</time>
<extensions>
<speed>0.0</speed>
<temp>0.00</temp>
<bpm>0</bpm>
<rpm>0.00</rpm>
</extensions>
</trkpt>
<trkpt lat="63.749588013" lon="-20.240011215">
<ele>40.968750</ele>
<time>2012-07-26T21:19:44Z</time>
<extensions>
<speed>0.0</speed>
<temp>0.00</temp>
<bpm>0</bpm>
<rpm>0.00</rpm>
</extensions>
</trkpt>
<trkpt lat="63.749588013" lon="-20.240011215">
<ele>40.967773</ele>
<time>2012-07-26T21:19:49Z</time>
<extensions>
<speed>0.0</speed>
<temp>0.00</temp>
<bpm>0</bpm>
<rpm>0.00</rpm>
</extensions>
</trkpt>
<trkpt lat="63.749588013" lon="-20.240011215">
<ele>40.958984</ele>
<time>2012-07-26T21:19:54Z</time>
<extensions>
<speed>0.0</speed>
<temp>0.00</temp>
<bpm>0</bpm>
<rpm>0.00</rpm>
</extensions>
</trkpt>
<trkpt lat="63.749588013" lon="-20.240013123">
<ele>40.955078</ele>
<time>2012-07-26T21:19:59Z</time>
<extensions>
<speed>0.0</speed>
<temp>0.00</temp>
<bpm>0</bpm>
<rpm>0.00</rpm>
</extensions>
</trkpt>
<trkpt lat="63.749588013" lon="-20.240011215">
<ele>40.947266</ele>
<time>2012-07-26T21:20:04Z</time>
<extensions>
<speed>0.0</speed>
<temp>0.00</temp>
<bpm>0</bpm>
<rpm>0.00</rpm>
</extensions>
</trkpt>
<trkpt lat="63.749588013" lon="-20.240013123">
<ele>40.946289</ele>
<time>2012-07-26T21:20:09Z</time>
<extensions>
<speed>0.0</speed>
<temp>0.00</temp>
<bpm>0</bpm>
<rpm>0.00</rpm>
</extensions>
</trkpt>
<trkpt lat="63.749588013" lon="-20.240013123">
<ele>40.949219</ele>
<time>2012-07-26T21:20:14Z</time>
<extensions>
<speed>0.0</speed>
<temp>0.00</temp>
<bpm>0</bpm>
<rpm>0.00</rpm>
</extensions>
</trkpt>
<trkpt lat="63.749588013" lon="-20.240013123">
<ele>40.948242</ele>
<time>2012-07-26T21:20:19Z</time>
<extensions>
<speed>0.0</speed>
<temp>0.00</temp>
<bpm>0</bpm>
<rpm>0.00</rpm>
</extensions>
</trkpt>
<trkpt lat="63.749588013" lon="-20.240013123">
<ele>40.946289</ele>
<time>2012-07-26T21:20:24Z</time>
<speed>0.010000</speed>
<extensions>
<speed>0.0</speed>
<temp>0.00</temp>
<bpm>0</bpm>
<rpm>0.00</rpm>
</extensions>
</trkpt>
<trkpt lat="63.749588013" lon="-20.240013123">
<ele>40.942383</ele>
<time>2012-07-26T21:20:29Z</time>
<extensions>
<speed>0.0</speed>
<temp>0.00</temp>
<bpm>0</bpm>
<rpm>0.00</rpm>
</extensions>
</trkpt>
<trkpt lat="63.749588013" lon="-20.240013123">
<ele>40.931641</ele>
<time>2012-07-26T21:20:34Z</time>
<extensions>
<speed>0.0</speed>
<temp>0.00</temp>
<bpm>0</bpm>
<rpm>0.00</rpm>
</extensions>
</trkpt>
<trkpt lat="63.749588013" lon="-20.240013123">
<ele>40.928711</ele>
<time>2012-07-26T21:20:39Z</time>
<extensions>
<speed>0.0</speed>
<temp>0.00</temp>
<bpm>0</bpm>
<rpm>0.00</rpm>
</extensions>
</trkpt>
<trkpt lat="63.749588013" lon="-20.240013123">
<ele>40.921875</ele>
<time>2012-07-26T21:20:44Z</time>
<speed>0.010000</speed>
<extensions>
<speed>0.0</speed>
<temp>0.00</temp>
<bpm>0</bpm>
<rpm>0.00</rpm>
</extensions>
</trkpt>
<trkpt lat="63.749588013" lon="-20.240013123">
<ele>40.918945</ele>
<time>2012-07-26T21:20:49Z</time>
<speed>0.010000</speed>
<extensions>
<speed>0.0</speed>
<temp>0.00</temp>
<bpm>0</bpm>
<rpm>0.00</rpm>
</extensions>
</trkpt>
<trkpt lat="63.749588013" lon="-20.240013123">
<ele>40.917969</ele>
<time>2012-07-26T21:20:54Z</time>
<speed>0.010000</speed>
<extensions>
<speed>0.0</speed>
<temp>0.00</temp>
<bpm>0</bpm>
<rpm>0.00</rpm>
</extensions>
</trkpt>
<trkpt lat="63.749588013" lon="-20.240015030">
<ele>40.917969</ele>
<time>2012-07-26T21:20:59Z</time>
<extensions>
<speed>0.0</speed>
<temp>0.00</temp>
<bpm>0</bpm>
<rpm>0.00</rpm>
</extensions>
</trkpt>
<trkpt lat="63.749588013" lon="-20.240015030">
<ele>40.916016</ele>
<time>2012-07-26T21:21:04Z</time>
<extensions>
<speed>0.0</speed>
<temp>0.00</temp>
<bpm>0</bpm>
<rpm>0.00</rpm>
</extensions>
</trkpt>
<trkpt lat="63.749588013" lon="-20.240015030">
<ele>40.915039</ele>
<time>2012-07-26T21:21:09Z</time>
<speed>0.010000</speed>
<extensions>
<speed>0.0</speed>
<temp>0.00</temp>
<bpm>0</bpm>
<rpm>0.00</rpm>
</extensions>
</trkpt>
<trkpt lat="63.749588013" lon="-20.240015030">
<ele>40.909180</ele>
<time>2012-07-26T21:21:14Z</time>
<extensions>
<speed>0.0</speed>
<temp>0.00</temp>
<bpm>0</bpm>
<rpm>0.00</rpm>
</extensions>
</trkpt>
<trkpt lat="63.749588013" lon="-20.240015030">
<ele>40.905273</ele>
<time>2012-07-26T21:21:19Z</time>
<speed>0.010000</speed>
<extensions>
<speed>0.0</speed>
<temp>0.00</temp>
<bpm>0</bpm>
<rpm>0.00</rpm>
</extensions>
</trkpt>
<trkpt lat="63.749588013" lon="-20.240015030">
<ele>40.907227</ele>
<time>2012-07-26T21:21:24Z</time>
<extensions>
<speed>0.0</speed>
<temp>0.00</temp>
<bpm>0</bpm>
<rpm>0.00</rpm>
</extensions>
</trkpt>
<trkpt lat="63.749588013" lon="-20.240015030">
<ele>40.895508</ele>
<time>2012-07-26T21:21:29Z</time>
<extensions>
<speed>0.0</speed>
<temp>0.00</temp>
<bpm>0</bpm>
<rpm>0.00</rpm>
</extensions>
</trkpt>
<trkpt lat="63.749588013" lon="-20.240016937">
<ele>40.891602</ele>
<time>2012-07-26T21:21:34Z</time>
<extensions>
<speed>0.0</speed>
<temp>0.00</temp>
<bpm>0</bpm>
<rpm>0.00</rpm>
</extensions>
</trkpt>
<trkpt lat="63.749588013" lon="-20.240016937">
<ele>40.881836</ele>
<time>2012-07-26T21:21:39Z</time>
<speed>0.030000</speed>
<extensions>
<speed>0.0</speed>
<temp>0.00</temp>
<bpm>0</bpm>
<rpm>0.00</rpm>
</extensions>
</trkpt>
<trkpt lat="63.749588013" lon="-20.240016937">
<ele>40.865234</ele>
<time>2012-07-26T21:21:44Z</time>
<speed>0.010000</speed>
<extensions>
<speed>0.0</speed>
<temp>0.00</temp>
<bpm>0</bpm>
<rpm>0.00</rpm>
</extensions>
</trkpt>
<trkpt lat="63.749588013" lon="-20.240016937">
<ele>40.849609</ele>
<time>2012-07-26T21:21:49Z</time>
<speed>0.010000</speed>
<extensions>
<speed>0.0</speed>
<temp>0.00</temp>
<bpm>0</bpm>
<rpm>0.00</rpm>
</extensions>
</trkpt>
<trkpt lat="63.749588013" lon="-20.240016937">
<ele>40.832031</ele>
<time>2012-07-26T21:21:54Z</time>
<speed>0.020000</speed>
<extensions>
<speed>0.0</speed>
<temp>0.00</temp>
<bpm>0</bpm>
<rpm>0.00</rpm>
</extensions>
</trkpt>
<trkpt lat="63.749588013" lon="-20.240016937">
<ele>40.819336</ele>
<time>2012-07-26T21:21:59Z</time>
<speed>0.020000</speed>
<extensions>
<speed>0.0</speed>
<temp>0.00</temp>
<bpm>0</bpm>
<rpm>0.00</rpm>
</extensions>
</trkpt>
<trkpt lat="63.749588013" lon="-20.240016937">
<ele>40.812500</ele>
<time>2012-07-26T21:22:04Z</time>
<speed>0.010000</speed>
<extensions>
<speed>0.0</speed>
<temp>0.00</temp>
<bpm>0</bpm>
<rpm>0.00</rpm>
</extensions>
</trkpt>
<trkpt lat="63.749588013" lon="-20.240016937">
<ele>40.806641</ele>
<time>2012-07-26T21:22:09Z</time>
<speed>0.020000</speed>
<extensions>
<speed>0.0</speed>
<temp>0.00</temp>
<bpm>0</bpm>
<rpm>0.00</rpm>
</extensions>
</trkpt>
<trkpt lat="63.749588013" lon="-20.240016937">
<ele>40.796875</ele>
<time>2012-07-26T21:22:14Z</time>
<speed>0.010000</speed>
<extensions>
<speed>0.0</speed>
<temp>0.00</temp>
<bpm>0</bpm>
<rpm>0.00</rpm>
</extensions>
</trkpt>
<trkpt lat="63.749588013" lon="-20.240018845">
<ele>40.787109</ele>
<time>2012-07-26T21:22:19Z</time>
<extensions>
<speed>0.0</speed>
<temp>0.00</temp>
<bpm>0</bpm>
<rpm>0.00</rpm>
</extensions>
</trkpt>
<trkpt lat="63.749591827" lon="-20.240018845">
<ele>40.769531</ele>
<time>2012-07-26T21:22:24Z</time>
<speed>0.010000</speed>
<extensions>
<speed>0.0</speed>
<temp>0.00</temp>
<bpm>0</bpm>
<rpm>0.00</rpm>
</extensions>
</trkpt>
<trkpt lat="63.749591827" lon="-20.240018845">
<ele>40.770508</ele>
<time>2012-07-26T21:22:29Z</time>
<extensions>
<speed>0.0</speed>
<temp>0.00</temp>
<bpm>0</bpm>
<rpm>0.00</rpm>
</extensions>
</trkpt>
<trkpt lat="63.749591827" lon="-20.240018845">
<ele>40.766602</ele>
<time>2012-07-26T21:22:34Z</time>
<extensions>
<speed>0.0</speed>
<temp>0.00</temp>
<bpm>0</bpm>
<rpm>0.00</rpm>
</extensions>
</trkpt>
<trkpt lat="63.749591827" lon="-20.240018845">
<ele>40.768555</ele>
<time>2012-07-26T21:22:39Z</time>
<speed>0.020000</speed>
<extensions>
<speed>0.0</speed>
<temp>0.00</temp>
<bpm>0</bpm>
<rpm>0.00</rpm>
</extensions>
</trkpt>
<trkpt lat="63.749591827" lon="-20.240018845">
<ele>40.778320</ele>
<time>2012-07-26T21:22:44Z</time>
<extensions>
<speed>0.0</speed>
<temp>0.00</temp>
<bpm>0</bpm>
<rpm>0.00</rpm>
</extensions>
</trkpt>
<trkpt lat="63.749591827" lon="-20.240018845">
<ele>40.779297</ele>
<time>2012-07-26T21:22:49Z</time>
<extensions>
<speed>0.0</speed>
<temp>0.00</temp>
<bpm>0</bpm>
<rpm>0.00</rpm>
</extensions>
</trkpt>
<trkpt lat="63.749591827" lon="-20.240018845">
<ele>40.785156</ele>
<time>2012-07-26T21:22:54Z</time>
<speed>0.010000</speed>
<extensions>
<speed>0.0</speed>
<temp>0.00</temp>
<bpm>0</bpm>
<rpm>0.00</rpm>
</extensions>
</trkpt>
<trkpt lat="63.749591827" lon="-20.240018845">
<ele>40.784180</ele>
<time>2012-07-26T21:22:59Z</time>
<speed>0.020000</speed>
<extensions>
<speed>0.0</speed>
<temp>0.00</temp>
<bpm>0</bpm>
<rpm>0.00</rpm>
</extensions>
</trkpt>
<trkpt lat="63.749591827" lon="-20.240018845">
<ele>40.785156</ele>
<time>2012-07-26T21:23:04Z</time>
<speed>0.030000</speed>
<extensions>
<speed>0.0</speed>
<temp>0.00</temp>
<bpm>0</bpm>
<rpm>0.00</rpm>
</extensions>
</trkpt>
<trkpt lat="63.749591827" lon="-20.240018845">
<ele>40.782227</ele>
<time>2012-07-26T21:23:09Z</time>
<speed>0.010000</speed>
<extensions>
<speed>0.0</speed>
<temp>0.00</temp>
<bpm>0</bpm>
<rpm>0.00</rpm>
</extensions>
</trkpt>
<trkpt lat="63.749591827" lon="-20.240018845">
<ele>40.771484</ele>
<time>2012-07-26T21:23:14Z</time>
<speed>0.010000</speed>
<extensions>
<speed>0.0</speed>
<temp>0.00</temp>
<bpm>0</bpm>
<rpm>0.00</rpm>
</extensions>
</trkpt>
<trkpt lat="63.749591827" lon="-20.240018845">
<ele>40.777344</ele>
<time>2012-07-26T21:23:19Z</time>
<extensions>
<speed>0.0</speed>
<temp>0.00</temp>
<bpm>0</bpm>
<rpm>0.00</rpm>
</extensions>
</trkpt>
<trkpt lat="63.749591827" lon="-20.240018845">
<ele>40.784180</ele>
<time>2012-07-26T21:23:24Z</time>
<extensions>
<speed>0.0</speed>
<temp>0.00</temp>
<bpm>0</bpm>
<rpm>0.00</rpm>
</extensions>
</trkpt>
<trkpt lat="63.749591827" lon="-20.240018845">
<ele>40.790039</ele>
<time>2012-07-26T21:23:29Z</time>
<extensions>
<speed>0.0</speed>
<temp>0.00</temp>
<bpm>0</bpm>
<rpm>0.00</rpm>
</extensions>
</trkpt>
<trkpt lat="63.749591827" lon="-20.240018845">
<ele>40.797852</ele>
<time>2012-07-26T21:23:34Z</time>
<speed>0.010000</speed>
<extensions>
<speed>0.0</speed>
<temp>0.00</temp>
<bpm>0</bpm>
<rpm>0.00</rpm>
</extensions>
</trkpt>
<trkpt lat="63.749591827" lon="-20.240018845">
<ele>40.804688</ele>
<time>2012-07-26T21:23:39Z</time>
<extensions>
<speed>0.0</speed>
<temp>0.00</temp>
<bpm>0</bpm>
<rpm>0.00</rpm>
</extensions>
</trkpt>
<trkpt lat="63.749591827" lon="-20.240018845">
<ele>40.808594</ele>
<time>2012-07-26T21:23:44Z</time>
<speed>0.020000</speed>
<extensions>
<speed>0.0</speed>
<temp>0.00</temp>
<bpm>0</bpm>
<rpm>0.00</rpm>
</extensions>
</trkpt>
<trkpt lat="63.749591827" lon="-20.240018845">
<ele>40.804688</ele>
<time>2012-07-26T21:23:49Z</time>
<extensions>
<speed>0.0</speed>
<temp>0.00</temp>
<bpm>0</bpm>
<rpm>0.00</rpm>
</extensions>
</trkpt>
<trkpt lat="63.749591827" lon="-20.240018845">
<ele>40.802734</ele>
<time>2012-07-26T21:23:54Z</time>
<extensions>
<speed>0.0</speed>
<temp>0.00</temp>
<bpm>0</bpm>
<rpm>0.00</rpm>
</extensions>
</trkpt>
<trkpt lat="63.749591827" lon="-20.240018845">
<ele>40.808594</ele>
<time>2012-07-26T21:23:59Z</time>
<extensions>
<speed>0.0</speed>
<temp>0.00</temp>
<bpm>0</bpm>
<rpm>0.00</rpm>
</extensions>
</trkpt>
<trkpt lat="63.749591827" lon="-20.240018845">
<ele>40.809570</ele>
<time>2012-07-26T21:24:04Z</time>
<extensions>
<speed>0.0</speed>
<temp>0.00</temp>
<bpm>0</bpm>
<rpm>0.00</rpm>
</extensions>
</trkpt>
<trkpt lat="63.749591827" lon="-20.240018845">
<ele>40.814453</ele>
<time>2012-07-26T21:24:09Z</time>
<extensions>
<speed>0.0</speed>
<temp>0.00</temp>
<bpm>0</bpm>
<rpm>0.00</rpm>
</extensions>
</trkpt>
<trkpt lat="63.749591827" lon="-20.240018845">
<ele>40.815430</ele>
<time>2012-07-26T21:24:14Z</time>
<extensions>
<speed>0.0</speed>
<temp>0.00</temp>
<bpm>0</bpm>
<rpm>0.00</rpm>
</extensions>
</trkpt>
<trkpt lat="63.749591827" lon="-20.240018845">
<ele>40.812500</ele>
<time>2012-07-26T21:24:19Z</time>
<extensions>
<speed>0.0</speed>
<temp>0.00</temp>
<bpm>0</bpm>
<rpm>0.00</rpm>
</extensions>
</trkpt>
<trkpt lat="63.749591827" lon="-20.240018845">
<ele>40.813477</ele>
<time>2012-07-26T21:24:24Z</time>
<speed>0.010000</speed>
<extensions>
<speed>0.0</speed>
<temp>0.00</temp>
<bpm>0</bpm>
<rpm>0.00</rpm>
</extensions>
</trkpt>
<trkpt lat="63.749591827" lon="-20.240018845">
<ele>40.808594</ele>
<time>2012-07-26T21:24:29Z</time>
<extensions>
<speed>0.0</speed>
<temp>0.00</temp>
<bpm>0</bpm>
<rpm>0.00</rpm>
</extensions>
</trkpt>
<trkpt lat="63.749591827" lon="-20.240018845">
<ele>40.810547</ele>
<time>2012-07-26T21:24:34Z</time>
<extensions>
<speed>0.0</speed>
<temp>0.00</temp>
<bpm>0</bpm>
<rpm>0.00</rpm>
</extensions>
</trkpt>
<trkpt lat="63.749591827" lon="-20.240018845">
<ele>40.811523</ele>
<time>2012-07-26T21:24:39Z</time>
<extensions>
<speed>0.0</speed>
<temp>0.00</temp>
<bpm>0</bpm>
<rpm>0.00</rpm>
</extensions>
</trkpt>
<trkpt lat="63.749591827" lon="-20.240018845">
<ele>40.817383</ele>
<time>2012-07-26T21:24:44Z</time>
<extensions>
<speed>0.0</speed>
<temp>0.00</temp>
<bpm>0</bpm>
<rpm>0.00</rpm>
</extensions>
</trkpt>
<trkpt lat="63.749591827" lon="-20.240018845">
<ele>40.812500</ele>
<time>2012-07-26T21:24:49Z</time>
<extensions>
<speed>0.0</speed>
<temp>0.00</temp>
<bpm>0</bpm>
<rpm>0.00</rpm>
</extensions>
</trkpt>
<trkpt lat="63.749591827" lon="-20.240018845">
<ele>40.813477</ele>
<time>2012-07-26T21:24:54Z</time>
<extensions>
<speed>0.0</speed>
<temp>0.00</temp>
<bpm>0</bpm>
<rpm>0.00</rpm>
</extensions>
</trkpt>
<trkpt lat="63.749591827" lon="-20.240018845">
<ele>40.807617</ele>
<time>2012-07-26T21:24:59Z</time>
<extensions>
<speed>0.0</speed>
<temp>0.00</temp>
<bpm>0</bpm>
<rpm>0.00</rpm>
</extensions>
</trkpt>
<trkpt lat="63.749591827" lon="-20.240020752">
<ele>40.801758</ele>
<time>2012-07-26T21:25:04Z</time>
<extensions>
<speed>0.0</speed>
<temp>0.00</temp>
<bpm>0</bpm>
<rpm>0.00</rpm>
</extensions>
</trkpt>
<trkpt lat="63.749591827" lon="-20.240020752">
<ele>40.791992</ele>
<time>2012-07-26T21:25:09Z</time>
<extensions>
<speed>0.0</speed>
<temp>0.00</temp>
<bpm>0</bpm>
<rpm>0.00</rpm>
</extensions>
</trkpt>
<trkpt lat="63.749591827" lon="-20.240020752">
<ele>40.787109</ele>
<time>2012-07-26T21:25:14Z</time>
<extensions>
<speed>0.0</speed>
<temp>0.00</temp>
<bpm>0</bpm>
<rpm>0.00</rpm>
</extensions>
</trkpt>
<trkpt lat="63.749591827" lon="-20.240020752">
<ele>40.773438</ele>
<time>2012-07-26T21:25:19Z</time>
<extensions>
<speed>0.0</speed>
<temp>0.00</temp>
<bpm>0</bpm>
<rpm>0.00</rpm>
</extensions>
</trkpt>
<trkpt lat="63.749591827" lon="-20.240020752">
<ele>40.760742</ele>
<time>2012-07-26T21:25:24Z</time>
<extensions>
<speed>0.0</speed>
<temp>0.00</temp>
<bpm>0</bpm>
<rpm>0.00</rpm>
</extensions>
</trkpt>
<trkpt lat="63.749591827" lon="-20.240020752">
<ele>40.754883</ele>
<time>2012-07-26T21:25:29Z</time>
<speed>0.020000</speed>
<extensions>
<speed>0.0</speed>
<temp>0.00</temp>
<bpm>0</bpm>
<rpm>0.00</rpm>
</extensions>
</trkpt>
<trkpt lat="63.749591827" lon="-20.240020752">
<ele>40.745117</ele>
<time>2012-07-26T21:25:34Z</time>
<extensions>
<speed>0.0</speed>
<temp>0.00</temp>
<bpm>0</bpm>
<rpm>0.00</rpm>
</extensions>
</trkpt>
<trkpt lat="63.749591827" lon="-20.240020752">
<ele>40.736328</ele>
<time>2012-07-26T21:25:39Z</time>
<extensions>
<speed>0.0</speed>
<temp>0.00</temp>
<bpm>0</bpm>
<rpm>0.00</rpm>
</extensions>
</trkpt>
<trkpt lat="63.749591827" lon="-20.240020752">
<ele>40.729492</ele>
<time>2012-07-26T21:25:44Z</time>
<extensions>
<speed>0.0</speed>
<temp>0.00</temp>
<bpm>0</bpm>
<rpm>0.00</rpm>
</extensions>
</trkpt>
<trkpt lat="63.749591827" lon="-20.240020752">
<ele>40.717773</ele>
<time>2012-07-26T21:25:49Z</time>
<speed>0.010000</speed>
<extensions>
<speed>0.0</speed>
<temp>0.00</temp>
<bpm>0</bpm>
<rpm>0.00</rpm>
</extensions>
</trkpt>
<trkpt lat="63.749591827" lon="-20.240020752">
<ele>40.708984</ele>
<time>2012-07-26T21:25:54Z</time>
<extensions>
<speed>0.0</speed>
<temp>0.00</temp>
<bpm>0</bpm>
<rpm>0.00</rpm>
</extensions>
</trkpt>
<trkpt lat="63.749591827" lon="-20.240022659">
<ele>40.697266</ele>
<time>2012-07-26T21:25:59Z</time>
<speed>0.010000</speed>
<extensions>
<speed>0.0</speed>
<temp>0.00</temp>
<bpm>0</bpm>
<rpm>0.00</rpm>
</extensions>
</trkpt>
<trkpt lat="63.749591827" lon="-20.240022659">
<ele>40.687500</ele>
<time>2012-07-26T21:26:04Z</time>
<speed>0.010000</speed>
<extensions>
<speed>0.0</speed>
<temp>0.00</temp>
<bpm>0</bpm>
<rpm>0.00</rpm>
</extensions>
</trkpt>
<trkpt lat="63.749591827" lon="-20.240022659">
<ele>40.677734</ele>
<time>2012-07-26T21:26:09Z</time>
<speed>0.010000</speed>
<extensions>
<speed>0.0</speed>
<temp>0.00</temp>
<bpm>0</bpm>
<rpm>0.00</rpm>
</extensions>
</trkpt>
<trkpt lat="63.749591827" lon="-20.240022659">
<ele>40.677734</ele>
<time>2012-07-26T21:26:14Z</time>
<speed>0.010000</speed>
<extensions>
<speed>0.0</speed>
<temp>0.00</temp>
<bpm>0</bpm>
<rpm>0.00</rpm>
</extensions>
</trkpt>
<trkpt lat="63.749591827" lon="-20.240022659">
<ele>40.670898</ele>
<time>2012-07-26T21:26:19Z</time>
<speed>0.010000</speed>
<extensions>
<speed>0.0</speed>
<temp>0.00</temp>
<bpm>0</bpm>
<rpm>0.00</rpm>
</extensions>
</trkpt>
<trkpt lat="63.749591827" lon="-20.240022659">
<ele>40.670898</ele>
<time>2012-07-26T21:26:24Z</time>
<speed>0.010000</speed>
<extensions>
<speed>0.0</speed>
<temp>0.00</temp>
<bpm>0</bpm>
<rpm>0.00</rpm>
</extensions>
</trkpt>
<trkpt lat="63.749591827" lon="-20.240022659">
<ele>40.667969</ele>
<time>2012-07-26T21:26:29Z</time>
<speed>0.020000</speed>
<extensions>
<speed>0.0</speed>
<temp>0.00</temp>
<bpm>0</bpm>
<rpm>0.00</rpm>
</extensions>
</trkpt>
<trkpt lat="63.749591827" lon="-20.240022659">
<ele>40.664063</ele>
<time>2012-07-26T21:26:34Z</time>
<extensions>
<speed>0.0</speed>
<temp>0.00</temp>
<bpm>0</bpm>
<rpm>0.00</rpm>
</extensions>
</trkpt>
<trkpt lat="63.749591827" lon="-20.240022659">
<ele>40.662109</ele>
<time>2012-07-26T21:26:39Z</time>
<extensions>
<speed>0.0</speed>
<temp>0.00</temp>
<bpm>0</bpm>
<rpm>0.00</rpm>
</extensions>
</trkpt>
<trkpt lat="63.749591827" lon="-20.240022659">
<ele>40.656250</ele>
<time>2012-07-26T21:26:44Z</time>
<extensions>
<speed>0.0</speed>
<temp>0.00</temp>
<bpm>0</bpm>
<rpm>0.00</rpm>
</extensions>
</trkpt>
<trkpt lat="63.749591827" lon="-20.240022659">
<ele>40.652344</ele>
<time>2012-07-26T21:26:49Z</time>
<extensions>
<speed>0.0</speed>
<temp>0.00</temp>
<bpm>0</bpm>
<rpm>0.00</rpm>
</extensions>
</trkpt>
<trkpt lat="63.749591827" lon="-20.240022659">
<ele>40.649414</ele>
<time>2012-07-26T21:26:54Z</time>
<extensions>
<speed>0.0</speed>
<temp>0.00</temp>
<bpm>0</bpm>
<rpm>0.00</rpm>
</extensions>
</trkpt>
<trkpt lat="63.749591827" lon="-20.240022659">
<ele>40.646484</ele>
<time>2012-07-26T21:26:59Z</time>
<extensions>
<speed>0.0</speed>
<temp>0.00</temp>
<bpm>0</bpm>
<rpm>0.00</rpm>
</extensions>
</trkpt>
<trkpt lat="63.749591827" lon="-20.240022659">
<ele>40.640625</ele>
<time>2012-07-26T21:27:04Z</time>
<speed>0.010000</speed>
<extensions>
<speed>0.0</speed>
<temp>0.00</temp>
<bpm>0</bpm>
<rpm>0.00</rpm>
</extensions>
</trkpt>
<trkpt lat="63.749591827" lon="-20.240022659">
<ele>40.629883</ele>
<time>2012-07-26T21:27:09Z</time>
<extensions>
<speed>0.0</speed>
<temp>0.00</temp>
<bpm>0</bpm>
<rpm>0.00</rpm>
</extensions>
</trkpt>
<trkpt lat="63.749591827" lon="-20.240022659">
<ele>40.626953</ele>
<time>2012-07-26T21:27:14Z</time>
<speed>0.010000</speed>
<extensions>
<speed>0.0</speed>
<temp>0.00</temp>
<bpm>0</bpm>
<rpm>0.00</rpm>
</extensions>
</trkpt>
<trkpt lat="63.749591827" lon="-20.240022659">
<ele>40.622070</ele>
<time>2012-07-26T21:27:19Z</time>
<extensions>
<speed>0.0</speed>
<temp>0.00</temp>
<bpm>0</bpm>
<rpm>0.00</rpm>
</extensions>
</trkpt>
<trkpt lat="63.749591827" lon="-20.240022659">
<ele>40.616211</ele>
<time>2012-07-26T21:27:24Z</time>
<extensions>
<speed>0.0</speed>
<temp>0.00</temp>
<bpm>0</bpm>
<rpm>0.00</rpm>
</extensions>
</trkpt>
<trkpt lat="63.749591827" lon="-20.240022659">
<ele>40.613281</ele>
<time>2012-07-26T21:27:29Z</time>
<speed>0.020000</speed>
<extensions>
<speed>0.0</speed>
<temp>0.00</temp>
<bpm>0</bpm>
<rpm>0.00</rpm>
</extensions>
</trkpt>
<trkpt lat="63.749591827" lon="-20.240022659">
<ele>40.612305</ele>
<time>2012-07-26T21:27:34Z</time>
<extensions>
<speed>0.0</speed>
<temp>0.00</temp>
<bpm>0</bpm>
<rpm>0.00</rpm>
</extensions>
</trkpt>
<trkpt lat="63.749591827" lon="-20.240022659">
<ele>40.608398</ele>
<time>2012-07-26T21:27:39Z</time>
<speed>0.010000</speed>
<extensions>
<speed>0.0</speed>
<temp>0.00</temp>
<bpm>0</bpm>
<rpm>0.00</rpm>
</extensions>
</trkpt>
<trkpt lat="63.749591827" lon="-20.240022659">
<ele>40.607422</ele>
<time>2012-07-26T21:27:44Z</time>
<speed>0.010000</speed>
<extensions>
<speed>0.0</speed>
<temp>0.00</temp>
<bpm>0</bpm>
<rpm>0.00</rpm>
</extensions>
</trkpt>
<trkpt lat="63.749591827" lon="-20.240022659">
<ele>40.601563</ele>
<time>2012-07-26T21:27:49Z</time>
<extensions>
<speed>0.0</speed>
<temp>0.00</temp>
<bpm>0</bpm>
<rpm>0.00</rpm>
</extensions>
</trkpt>
<trkpt lat="63.749591827" lon="-20.240022659">
<ele>40.597656</ele>
<time>2012-07-26T21:27:54Z</time>
<speed>0.010000</speed>
<extensions>
<speed>0.0</speed>
<temp>0.00</temp>
<bpm>0</bpm>
<rpm>0.00</rpm>
</extensions>
</trkpt>
<trkpt lat="63.749591827" lon="-20.240022659">
<ele>40.586914</ele>
<time>2012-07-26T21:27:59Z</time>
<extensions>
<speed>0.0</speed>
<temp>0.00</temp>
<bpm>0</bpm>
<rpm>0.00</rpm>
</extensions>
</trkpt>
<trkpt lat="63.749591827" lon="-20.240022659">
<ele>40.574219</ele>
<time>2012-07-26T21:28:04Z</time>
<extensions>
<speed>0.0</speed>
<temp>0.00</temp>
<bpm>0</bpm>
<rpm>0.00</rpm>
</extensions>
</trkpt>
<trkpt lat="63.749591827" lon="-20.240022659">
<ele>40.561523</ele>
<time>2012-07-26T21:28:09Z</time>
<extensions>
<speed>0.0</speed>
<temp>0.00</temp>
<bpm>0</bpm>
<rpm>0.00</rpm>
</extensions>
</trkpt>
<trkpt lat="63.749591827" lon="-20.240022659">
<ele>40.548828</ele>
<time>2012-07-26T21:28:14Z</time>
<speed>0.010000</speed>
<extensions>
<speed>0.0</speed>
<temp>0.00</temp>
<bpm>0</bpm>
<rpm>0.00</rpm>
</extensions>
</trkpt>
<trkpt lat="63.749591827" lon="-20.240022659">
<ele>40.539063</ele>
<time>2012-07-26T21:28:19Z</time>
<extensions>
<speed>0.0</speed>
<temp>0.00</temp>
<bpm>0</bpm>
<rpm>0.00</rpm>
</extensions>
</trkpt>
<trkpt lat="63.749591827" lon="-20.240024567">
<ele>40.527344</ele>
<time>2012-07-26T21:28:24Z</time>
<extensions>
<speed>0.0</speed>
<temp>0.00</temp>
<bpm>0</bpm>
<rpm>0.00</rpm>
</extensions>
</trkpt>
<trkpt lat="63.749591827" lon="-20.240024567">
<ele>40.518555</ele>
<time>2012-07-26T21:28:29Z</time>
<extensions>
<speed>0.0</speed>
<temp>0.00</temp>
<bpm>0</bpm>
<rpm>0.00</rpm>
</extensions>
</trkpt>
<trkpt lat="63.749591827" lon="-20.240024567">
<ele>40.510742</ele>
<time>2012-07-26T21:28:34Z</time>
<extensions>
<speed>0.0</speed>
<temp>0.00</temp>
<bpm>0</bpm>
<rpm>0.00</rpm>
</extensions>
</trkpt>
<trkpt lat="63.749591827" lon="-20.240024567">
<ele>40.502930</ele>
<time>2012-07-26T21:28:39Z</time>
<extensions>
<speed>0.0</speed>
<temp>0.00</temp>
<bpm>0</bpm>
<rpm>0.00</rpm>
</extensions>
</trkpt>
<trkpt lat="63.749591827" lon="-20.240024567">
<ele>40.494141</ele>
<time>2012-07-26T21:28:44Z</time>
<speed>0.010000</speed>
<extensions>
<speed>0.0</speed>
<temp>0.00</temp>
<bpm>0</bpm>
<rpm>0.00</rpm>
</extensions>
</trkpt>
<trkpt lat="63.749591827" lon="-20.240024567">
<ele>40.485352</ele>
<time>2012-07-26T21:28:49Z</time>
<extensions>
<speed>0.0</speed>
<temp>0.00</temp>
<bpm>0</bpm>
<rpm>0.00</rpm>
</extensions>
</trkpt>
<trkpt lat="63.749591827" lon="-20.240024567">
<ele>40.478516</ele>
<time>2012-07-26T21:28:54Z</time>
<speed>0.010000</speed>
<extensions>
<speed>0.0</speed>
<temp>0.00</temp>
<bpm>0</bpm>
<rpm>0.00</rpm>
</extensions>
</trkpt>
<trkpt lat="63.749591827" lon="-20.240024567">
<ele>40.472656</ele>
<time>2012-07-26T21:28:59Z</time>
<extensions>
<speed>0.0</speed>
<temp>0.00</temp>
<bpm>0</bpm>
<rpm>0.00</rpm>
</extensions>
</trkpt>
<trkpt lat="63.749591827" lon="-20.240024567">
<ele>40.461914</ele>
<time>2012-07-26T21:29:04Z</time>
<extensions>
<speed>0.0</speed>
<temp>0.00</temp>
<bpm>0</bpm>
<rpm>0.00</rpm>
</extensions>
</trkpt>
<trkpt lat="63.749591827" lon="-20.240024567">
<ele>40.450195</ele>
<time>2012-07-26T21:29:09Z</time>
<extensions>
<speed>0.0</speed>
<temp>0.00</temp>
<bpm>0</bpm>
<rpm>0.00</rpm>
</extensions>
</trkpt>
<trkpt lat="63.749591827" lon="-20.240024567">
<ele>40.446289</ele>
<time>2012-07-26T21:29:14Z</time>
<extensions>
<speed>0.0</speed>
<temp>0.00</temp>
<bpm>0</bpm>
<rpm>0.00</rpm>
</extensions>
</trkpt>
<trkpt lat="63.749591827" lon="-20.240024567">
<ele>40.435547</ele>
<time>2012-07-26T21:29:19Z</time>
<extensions>
<speed>0.0</speed>
<temp>0.00</temp>
<bpm>0</bpm>
<rpm>0.00</rpm>
</extensions>
</trkpt>
<trkpt lat="63.749591827" lon="-20.240024567">
<ele>40.426758</ele>
<time>2012-07-26T21:29:24Z</time>
<speed>0.010000</speed>
<extensions>
<speed>0.0</speed>
<temp>0.00</temp>
<bpm>0</bpm>
<rpm>0.00</rpm>
</extensions>
</trkpt>
<trkpt lat="63.749591827" lon="-20.240024567">
<ele>40.419922</ele>
<time>2012-07-26T21:29:29Z</time>
<extensions>
<speed>0.0</speed>
<temp>0.00</temp>
<bpm>0</bpm>
<rpm>0.00</rpm>
</extensions>
</trkpt>
<trkpt lat="63.749591827" lon="-20.240024567">
<ele>40.415039</ele>
<time>2012-07-26T21:29:34Z</time>
<extensions>
<speed>0.0</speed>
<temp>0.00</temp>
<bpm>0</bpm>
<rpm>0.00</rpm>
</extensions>
</trkpt>
<trkpt lat="63.749591827" lon="-20.240024567">
<ele>40.407227</ele>
<time>2012-07-26T21:29:39Z</time>
<speed>0.010000</speed>
<extensions>
<speed>0.0</speed>
<temp>0.00</temp>
<bpm>0</bpm>
<rpm>0.00</rpm>
</extensions>
</trkpt>
<trkpt lat="63.749591827" lon="-20.240024567">
<ele>40.405273</ele>
<time>2012-07-26T21:29:44Z</time>
<speed>0.010000</speed>
<extensions>
<speed>0.0</speed>
<temp>0.00</temp>
<bpm>0</bpm>
<rpm>0.00</rpm>
</extensions>
</trkpt>
<trkpt lat="63.749591827" lon="-20.240024567">
<ele>40.393555</ele>
<time>2012-07-26T21:29:49Z</time>
<extensions>
<speed>0.0</speed>
<temp>0.00</temp>
<bpm>0</bpm>
<rpm>0.00</rpm>
</extensions>
</trkpt>
<trkpt lat="63.749591827" lon="-20.240024567">
<ele>40.387695</ele>
<time>2012-07-26T21:29:54Z</time>
<extensions>
<speed>0.0</speed>
<temp>0.00</temp>
<bpm>0</bpm>
<rpm>0.00</rpm>
</extensions>
</trkpt>
<trkpt lat="63.749591827" lon="-20.240024567">
<ele>40.380859</ele>
<time>2012-07-26T21:29:59Z</time>
<extensions>
<speed>0.0</speed>
<temp>0.00</temp>
<bpm>0</bpm>
<rpm>0.00</rpm>
</extensions>
</trkpt>
<trkpt lat="63.749591827" lon="-20.240024567">
<ele>40.375977</ele>
<time>2012-07-26T21:30:04Z</time>
<extensions>
<speed>0.0</speed>
<temp>0.00</temp>
<bpm>0</bpm>
<rpm>0.00</rpm>
</extensions>
</trkpt>
<trkpt lat="63.749591827" lon="-20.240024567">
<ele>40.371094</ele>
<time>2012-07-26T21:30:09Z</time>
<extensions>
<speed>0.0</speed>
<temp>0.00</temp>
<bpm>0</bpm>
<rpm>0.00</rpm>
</extensions>
</trkpt>
<trkpt lat="63.749591827" lon="-20.240024567">
<ele>40.368164</ele>
<time>2012-07-26T21:30:14Z</time>
<extensions>
<speed>0.0</speed>
<temp>0.00</temp>
<bpm>0</bpm>
<rpm>0.00</rpm>
</extensions>
</trkpt>
<trkpt lat="63.749591827" lon="-20.240024567">
<ele>40.367188</ele>
<time>2012-07-26T21:30:19Z</time>
<speed>0.010000</speed>
<extensions>
<speed>0.0</speed>
<temp>0.00</temp>
<bpm>0</bpm>
<rpm>0.00</rpm>
</extensions>
</trkpt>
<trkpt lat="63.749591827" lon="-20.240024567">
<ele>40.363281</ele>
<time>2012-07-26T21:30:24Z</time>
<extensions>
<speed>0.0</speed>
<temp>0.00</temp>
<bpm>0</bpm>
<rpm>0.00</rpm>
</extensions>
</trkpt>
<trkpt lat="63.749591827" lon="-20.240024567">
<ele>40.360352</ele>
<time>2012-07-26T21:30:29Z</time>
<extensions>
<speed>0.0</speed>
<temp>0.00</temp>
<bpm>0</bpm>
<rpm>0.00</rpm>
</extensions>
</trkpt>
<trkpt lat="63.749591827" lon="-20.240024567">
<ele>40.352539</ele>
<time>2012-07-26T21:30:34Z</time>
<extensions>
<speed>0.0</speed>
<temp>0.00</temp>
<bpm>0</bpm>
<rpm>0.00</rpm>
</extensions>
</trkpt>
<trkpt lat="63.749591827" lon="-20.240024567">
<ele>40.357422</ele>
<time>2012-07-26T21:30:39Z</time>
<speed>0.010000</speed>
<extensions>
<speed>0.0</speed>
<temp>0.00</temp>
<bpm>0</bpm>
<rpm>0.00</rpm>
</extensions>
</trkpt>
<trkpt lat="63.749591827" lon="-20.240024567">
<ele>40.348633</ele>
<time>2012-07-26T21:30:44Z</time>
<speed>0.010000</speed>
<extensions>
<speed>0.0</speed>
<temp>0.00</temp>
<bpm>0</bpm>
<rpm>0.00</rpm>
</extensions>
</trkpt>
<trkpt lat="63.749591827" lon="-20.240024567">
<ele>40.344727</ele>
<time>2012-07-26T21:30:49Z</time>
<extensions>
<speed>0.0</speed>
<temp>0.00</temp>
<bpm>0</bpm>
<rpm>0.00</rpm>
</extensions>
</trkpt>
<trkpt lat="63.749591827" lon="-20.240024567">
<ele>40.333008</ele>
<time>2012-07-26T21:30:54Z</time>
<extensions>
<speed>0.0</speed>
<temp>0.00</temp>
<bpm>0</bpm>
<rpm>0.00</rpm>
</extensions>
</trkpt>
<trkpt lat="63.749591827" lon="-20.240024567">
<ele>40.328125</ele>
<time>2012-07-26T21:30:59Z</time>
<extensions>
<speed>0.0</speed>
<temp>0.00</temp>
<bpm>0</bpm>
<rpm>0.00</rpm>
</extensions>
</trkpt>
<trkpt lat="63.749591827" lon="-20.240024567">
<ele>40.316406</ele>
<time>2012-07-26T21:31:04Z</time>
<extensions>
<speed>0.0</speed>
<temp>0.00</temp>
<bpm>0</bpm>
<rpm>0.00</rpm>
</extensions>
</trkpt>
<trkpt lat="63.749591827" lon="-20.240024567">
<ele>40.311523</ele>
<time>2012-07-26T21:31:09Z</time>
<extensions>
<speed>0.0</speed>
<temp>0.00</temp>
<bpm>0</bpm>
<rpm>0.00</rpm>
</extensions>
</trkpt>
<trkpt lat="63.749591827" lon="-20.240024567">
<ele>40.301758</ele>
<time>2012-07-26T21:31:14Z</time>
<speed>0.010000</speed>
<extensions>
<speed>0.0</speed>
<temp>0.00</temp>
<bpm>0</bpm>
<rpm>0.00</rpm>
</extensions>
</trkpt>
<trkpt lat="63.749591827" lon="-20.240024567">
<ele>40.290039</ele>
<time>2012-07-26T21:31:19Z</time>
<extensions>
<speed>0.0</speed>
<temp>0.00</temp>
<bpm>0</bpm>
<rpm>0.00</rpm>
</extensions>
</trkpt>
<trkpt lat="63.749591827" lon="-20.240024567">
<ele>40.278320</ele>
<time>2012-07-26T21:31:24Z</time>
<speed>0.010000</speed>
<extensions>
<speed>0.0</speed>
<temp>0.00</temp>
<bpm>0</bpm>
<rpm>0.00</rpm>
</extensions>
</trkpt>
<trkpt lat="63.749591827" lon="-20.240024567">
<ele>40.262695</ele>
<time>2012-07-26T21:31:29Z</time>
<speed>0.020000</speed>
<extensions>
<speed>0.0</speed>
<temp>0.00</temp>
<bpm>0</bpm>
<rpm>0.00</rpm>
</extensions>
</trkpt>
<trkpt lat="63.749591827" lon="-20.240024567">
<ele>40.249023</ele>
<time>2012-07-26T21:31:34Z</time>
<extensions>
<speed>0.0</speed>
<temp>0.00</temp>
<bpm>0</bpm>
<rpm>0.00</rpm>
</extensions>
</trkpt>
<trkpt lat="63.749591827" lon="-20.240024567">
<ele>40.238281</ele>
<time>2012-07-26T21:31:39Z</time>
<speed>0.010000</speed>
<extensions>
<speed>0.0</speed>
<temp>0.00</temp>
<bpm>0</bpm>
<rpm>0.00</rpm>
</extensions>
</trkpt>
<trkpt lat="63.749591827" lon="-20.240024567">
<ele>40.231445</ele>
<time>2012-07-26T21:31:44Z</time>
<extensions>
<speed>0.0</speed>
<temp>0.00</temp>
<bpm>0</bpm>
<rpm>0.00</rpm>
</extensions>
</trkpt>
<trkpt lat="63.749591827" lon="-20.240024567">
<ele>40.225586</ele>
<time>2012-07-26T21:31:49Z</time>
<extensions>
<speed>0.0</speed>
<temp>0.00</temp>
<bpm>0</bpm>
<rpm>0.00</rpm>
</extensions>
</trkpt>
<trkpt lat="63.749591827" lon="-20.240024567">
<ele>40.215820</ele>
<time>2012-07-26T21:31:54Z</time>
<extensions>
<speed>0.0</speed>
<temp>0.00</temp>
<bpm>0</bpm>
<rpm>0.00</rpm>
</extensions>
</trkpt>
<trkpt lat="63.749591827" lon="-20.240024567">
<ele>40.208008</ele>
<time>2012-07-26T21:31:59Z</time>
<speed>0.010000</speed>
<extensions>
<speed>0.0</speed>
<temp>0.00</temp>
<bpm>0</bpm>
<rpm>0.00</rpm>
</extensions>
</trkpt>
<trkpt lat="63.749591827" lon="-20.240024567">
<ele>40.196289</ele>
<time>2012-07-26T21:32:04Z</time>
<speed>0.010000</speed>
<extensions>
<speed>0.0</speed>
<temp>0.00</temp>
<bpm>0</bpm>
<rpm>0.00</rpm>
</extensions>
</trkpt>
<trkpt lat="63.749591827" lon="-20.240024567">
<ele>40.185547</ele>
<time>2012-07-26T21:32:09Z</time>
<extensions>
<speed>0.0</speed>
<temp>0.00</temp>
<bpm>0</bpm>
<rpm>0.00</rpm>
</extensions>
</trkpt>
<trkpt lat="63.749591827" lon="-20.240024567">
<ele>40.180664</ele>
<time>2012-07-26T21:32:14Z</time>
<extensions>
<speed>0.0</speed>
<temp>0.00</temp>
<bpm>0</bpm>
<rpm>0.00</rpm>
</extensions>
</trkpt>
<trkpt lat="63.749591827" lon="-20.240024567">
<ele>40.173828</ele>
<time>2012-07-26T21:32:19Z</time>
<extensions>
<speed>0.0</speed>
<temp>0.00</temp>
<bpm>0</bpm>
<rpm>0.00</rpm>
</extensions>
</trkpt>
<trkpt lat="63.749591827" lon="-20.240024567">
<ele>40.168945</ele>
<time>2012-07-26T21:32:24Z</time>
<extensions>
<speed>0.0</speed>
<temp>0.00</temp>
<bpm>0</bpm>
<rpm>0.00</rpm>
</extensions>
</trkpt>
<trkpt lat="63.749591827" lon="-20.240024567">
<ele>40.157227</ele>
<time>2012-07-26T21:32:29Z</time>
<extensions>
<speed>0.0</speed>
<temp>0.00</temp>
<bpm>0</bpm>
<rpm>0.00</rpm>
</extensions>
</trkpt>
<trkpt lat="63.749591827" lon="-20.240024567">
<ele>40.150391</ele>
<time>2012-07-26T21:32:34Z</time>
<extensions>
<speed>0.0</speed>
<temp>0.00</temp>
<bpm>0</bpm>
<rpm>0.00</rpm>
</extensions>
</trkpt>
<trkpt lat="63.749591827" lon="-20.240024567">
<ele>40.141602</ele>
<time>2012-07-26T21:32:39Z</time>
<extensions>
<speed>0.0</speed>
<temp>0.00</temp>
<bpm>0</bpm>
<rpm>0.00</rpm>
</extensions>
</trkpt>
<trkpt lat="63.749591827" lon="-20.240024567">
<ele>40.125977</ele>
<time>2012-07-26T21:32:44Z</time>
<speed>0.010000</speed>
<extensions>
<speed>0.0</speed>
<temp>0.00</temp>
<bpm>0</bpm>
<rpm>0.00</rpm>
</extensions>
</trkpt>
<trkpt lat="63.749591827" lon="-20.240024567">
<ele>40.111328</ele>
<time>2012-07-26T21:32:49Z</time>
<speed>0.010000</speed>
<extensions>
<speed>0.0</speed>
<temp>0.00</temp>
<bpm>0</bpm>
<rpm>0.00</rpm>
</extensions>
</trkpt>
<trkpt lat="63.749591827" lon="-20.240024567">
<ele>40.101563</ele>
<time>2012-07-26T21:32:54Z</time>
<speed>0.010000</speed>
<extensions>
<speed>0.0</speed>
<temp>0.00</temp>
<bpm>0</bpm>
<rpm>0.00</rpm>
</extensions>
</trkpt>
<trkpt lat="63.749591827" lon="-20.240024567">
<ele>40.085938</ele>
<time>2012-07-26T21:32:59Z</time>
<extensions>
<speed>0.0</speed>
<temp>0.00</temp>
<bpm>0</bpm>
<rpm>0.00</rpm>
</extensions>
</trkpt>
<trkpt lat="63.749591827" lon="-20.240024567">
<ele>40.072266</ele>
<time>2012-07-26T21:33:04Z</time>
<extensions>
<speed>0.0</speed>
<temp>0.00</temp>
<bpm>0</bpm>
<rpm>0.00</rpm>
</extensions>
</trkpt>
<trkpt lat="63.749591827" lon="-20.240024567">
<ele>40.060547</ele>
<time>2012-07-26T21:33:09Z</time>
<extensions>
<speed>0.0</speed>
<temp>0.00</temp>
<bpm>0</bpm>
<rpm>0.00</rpm>
</extensions>
</trkpt>
<trkpt lat="63.749591827" lon="-20.240024567">
<ele>40.048828</ele>
<time>2012-07-26T21:33:14Z</time>
<speed>0.010000</speed>
<extensions>
<speed>0.0</speed>
<temp>0.00</temp>
<bpm>0</bpm>
<rpm>0.00</rpm>
</extensions>
</trkpt>
<trkpt lat="63.749591827" lon="-20.240024567">
<ele>40.033203</ele>
<time>2012-07-26T21:33:19Z</time>
<extensions>
<speed>0.0</speed>
<temp>0.00</temp>
<bpm>0</bpm>
<rpm>0.00</rpm>
</extensions>
</trkpt>
<trkpt lat="63.749591827" lon="-20.240024567">
<ele>40.019531</ele>
<time>2012-07-26T21:33:24Z</time>
<extensions>
<speed>0.0</speed>
<temp>0.00</temp>
<bpm>0</bpm>
<rpm>0.00</rpm>
</extensions>
</trkpt>
<trkpt lat="63.749591827" lon="-20.240024567">
<ele>40.006836</ele>
<time>2012-07-26T21:33:29Z</time>
<extensions>
<speed>0.0</speed>
<temp>0.00</temp>
<bpm>0</bpm>
<rpm>0.00</rpm>
</extensions>
</trkpt>
<trkpt lat="63.749591827" lon="-20.240024567">
<ele>39.994141</ele>
<time>2012-07-26T21:33:34Z</time>
<extensions>
<speed>0.0</speed>
<temp>0.00</temp>
<bpm>0</bpm>
<rpm>0.00</rpm>
</extensions>
</trkpt>
<trkpt lat="63.749591827" lon="-20.240024567">
<ele>39.986328</ele>
<time>2012-07-26T21:33:39Z</time>
<extensions>
<speed>0.0</speed>
<temp>0.00</temp>
<bpm>0</bpm>
<rpm>0.00</rpm>
</extensions>
</trkpt>
<trkpt lat="63.749591827" lon="-20.240026474">
<ele>39.980469</ele>
<time>2012-07-26T21:33:44Z</time>
<extensions>
<speed>0.0</speed>
<temp>0.00</temp>
<bpm>0</bpm>
<rpm>0.00</rpm>
</extensions>
</trkpt>
<trkpt lat="63.749591827" lon="-20.240026474">
<ele>39.973633</ele>
<time>2012-07-26T21:33:49Z</time>
<speed>0.020000</speed>
<extensions>
<speed>0.0</speed>
<temp>0.00</temp>
<bpm>0</bpm>
<rpm>0.00</rpm>
</extensions>
</trkpt>
<trkpt lat="63.749591827" lon="-20.240026474">
<ele>39.964844</ele>
<time>2012-07-26T21:33:54Z</time>
<extensions>
<speed>0.0</speed>
<temp>0.00</temp>
<bpm>0</bpm>
<rpm>0.00</rpm>
</extensions>
</trkpt>
<trkpt lat="63.749591827" lon="-20.240026474">
<ele>39.954102</ele>
<time>2012-07-26T21:33:59Z</time>
<extensions>
<speed>0.0</speed>
<temp>0.00</temp>
<bpm>0</bpm>
<rpm>0.00</rpm>
</extensions>
</trkpt>
<trkpt lat="63.749591827" lon="-20.240026474">
<ele>39.940430</ele>
<time>2012-07-26T21:34:04Z</time>
<extensions>
<speed>0.0</speed>
<temp>0.00</temp>
<bpm>0</bpm>
<rpm>0.00</rpm>
</extensions>
</trkpt>
<trkpt lat="63.749591827" lon="-20.240026474">
<ele>39.927734</ele>
<time>2012-07-26T21:34:09Z</time>
<extensions>
<speed>0.0</speed>
<temp>0.00</temp>
<bpm>0</bpm>
<rpm>0.00</rpm>
</extensions>
</trkpt>
<trkpt lat="63.749591827" lon="-20.240026474">
<ele>39.917969</ele>
<time>2012-07-26T21:34:14Z</time>
<extensions>
<speed>0.0</speed>
<temp>0.00</temp>
<bpm>0</bpm>
<rpm>0.00</rpm>
</extensions>
</trkpt>
<trkpt lat="63.749591827" lon="-20.240026474">
<ele>39.907227</ele>
<time>2012-07-26T21:34:19Z</time>
<speed>0.010000</speed>
<extensions>
<speed>0.0</speed>
<temp>0.00</temp>
<bpm>0</bpm>
<rpm>0.00</rpm>
</extensions>
</trkpt>
<trkpt lat="63.749591827" lon="-20.240026474">
<ele>39.893555</ele>
<time>2012-07-26T21:34:24Z</time>
<extensions>
<speed>0.0</speed>
<temp>0.00</temp>
<bpm>0</bpm>
<rpm>0.00</rpm>
</extensions>
</trkpt>
<trkpt lat="63.749591827" lon="-20.240026474">
<ele>39.884766</ele>
<time>2012-07-26T21:34:29Z</time>
<extensions>
<speed>0.0</speed>
<temp>0.00</temp>
<bpm>0</bpm>
<rpm>0.00</rpm>
</extensions>
</trkpt>
<trkpt lat="63.749591827" lon="-20.240026474">
<ele>39.874023</ele>
<time>2012-07-26T21:34:34Z</time>
<extensions>
<speed>0.0</speed>
<temp>0.00</temp>
<bpm>0</bpm>
<rpm>0.00</rpm>
</extensions>
</trkpt>
<trkpt lat="63.749591827" lon="-20.240026474">
<ele>39.864258</ele>
<time>2012-07-26T21:34:39Z</time>
<speed>0.010000</speed>
<extensions>
<speed>0.0</speed>
<temp>0.00</temp>
<bpm>0</bpm>
<rpm>0.00</rpm>
</extensions>
</trkpt>
<trkpt lat="63.749591827" lon="-20.240026474">
<ele>39.852539</ele>
<time>2012-07-26T21:34:44Z</time>
<extensions>
<speed>0.0</speed>
<temp>0.00</temp>
<bpm>0</bpm>
<rpm>0.00</rpm>
</extensions>
</trkpt>
<trkpt lat="63.749591827" lon="-20.240026474">
<ele>39.841797</ele>
<time>2012-07-26T21:34:49Z</time>
<extensions>
<speed>0.0</speed>
<temp>0.00</temp>
<bpm>0</bpm>
<rpm>0.00</rpm>
</extensions>
</trkpt>
<trkpt lat="63.749591827" lon="-20.240026474">
<ele>39.829102</ele>
<time>2012-07-26T21:34:54Z</time>
<speed>0.010000</speed>
<extensions>
<speed>0.0</speed>
<temp>0.00</temp>
<bpm>0</bpm>
<rpm>0.00</rpm>
</extensions>
</trkpt>
<trkpt lat="63.749591827" lon="-20.240026474">
<ele>39.814453</ele>
<time>2012-07-26T21:34:59Z</time>
<extensions>
<speed>0.0</speed>
<temp>0.00</temp>
<bpm>0</bpm>
<rpm>0.00</rpm>
</extensions>
</trkpt>
<trkpt lat="63.749591827" lon="-20.240026474">
<ele>39.799805</ele>
<time>2012-07-26T21:35:04Z</time>
<extensions>
<speed>0.0</speed>
<temp>0.00</temp>
<bpm>0</bpm>
<rpm>0.00</rpm>
</extensions>
</trkpt>
<trkpt lat="63.749591827" lon="-20.240026474">
<ele>39.790039</ele>
<time>2012-07-26T21:35:09Z</time>
<extensions>
<speed>0.0</speed>
<temp>0.00</temp>
<bpm>0</bpm>
<rpm>0.00</rpm>
</extensions>
</trkpt>
<trkpt lat="63.749591827" lon="-20.240026474">
<ele>39.779297</ele>
<time>2012-07-26T21:35:14Z</time>
<extensions>
<speed>0.0</speed>
<temp>0.00</temp>
<bpm>0</bpm>
<rpm>0.00</rpm>
</extensions>
</trkpt>
<trkpt lat="63.749591827" lon="-20.240026474">
<ele>39.771484</ele>
<time>2012-07-26T21:35:19Z</time>
<extensions>
<speed>0.0</speed>
<temp>0.00</temp>
<bpm>0</bpm>
<rpm>0.00</rpm>
</extensions>
</trkpt>
<trkpt lat="63.749591827" lon="-20.240026474">
<ele>39.763672</ele>
<time>2012-07-26T21:35:24Z</time>
<speed>0.010000</speed>
<extensions>
<speed>0.0</speed>
<temp>0.00</temp>
<bpm>0</bpm>
<rpm>0.00</rpm>
</extensions>
</trkpt>
<trkpt lat="63.749591827" lon="-20.240026474">
<ele>39.753906</ele>
<time>2012-07-26T21:35:29Z</time>
<extensions>
<speed>0.0</speed>
<temp>0.00</temp>
<bpm>0</bpm>
<rpm>0.00</rpm>
</extensions>
</trkpt>
<trkpt lat="63.749591827" lon="-20.240026474">
<ele>39.741211</ele>
<time>2012-07-26T21:35:34Z</time>
<extensions>
<speed>0.0</speed>
<temp>0.00</temp>
<bpm>0</bpm>
<rpm>0.00</rpm>
</extensions>
</trkpt>
<trkpt lat="63.749591827" lon="-20.240026474">
<ele>39.729492</ele>
<time>2012-07-26T21:35:39Z</time>
<speed>0.010000</speed>
<extensions>
<speed>0.0</speed>
<temp>0.00</temp>
<bpm>0</bpm>
<rpm>0.00</rpm>
</extensions>
</trkpt>
<trkpt lat="63.749591827" lon="-20.240026474">
<ele>39.716797</ele>
<time>2012-07-26T21:35:44Z</time>
<extensions>
<speed>0.0</speed>
<temp>0.00</temp>
<bpm>0</bpm>
<rpm>0.00</rpm>
</extensions>
</trkpt>
<trkpt lat="63.749591827" lon="-20.240026474">
<ele>39.708008</ele>
<time>2012-07-26T21:35:49Z</time>
<speed>0.010000</speed>
<extensions>
<speed>0.0</speed>
<temp>0.00</temp>
<bpm>0</bpm>
<rpm>0.00</rpm>
</extensions>
</trkpt>
<trkpt lat="63.749591827" lon="-20.240026474">
<ele>39.698242</ele>
<time>2012-07-26T21:35:54Z</time>
<extensions>
<speed>0.0</speed>
<temp>0.00</temp>
<bpm>0</bpm>
<rpm>0.00</rpm>
</extensions>
</trkpt>
<trkpt lat="63.749591827" lon="-20.240026474">
<ele>39.687500</ele>
<time>2012-07-26T21:35:59Z</time>
<extensions>
<speed>0.0</speed>
<temp>0.00</temp>
<bpm>0</bpm>
<rpm>0.00</rpm>
</extensions>
</trkpt>
<trkpt lat="63.749591827" lon="-20.240024567">
<ele>39.678711</ele>
<time>2012-07-26T21:36:04Z</time>
<extensions>
<speed>0.0</speed>
<temp>0.00</temp>
<bpm>0</bpm>
<rpm>0.00</rpm>
</extensions>
</trkpt>
<trkpt lat="63.749591827" lon="-20.240024567">
<ele>39.670898</ele>
<time>2012-07-26T21:36:09Z</time>
<extensions>
<speed>0.0</speed>
<temp>0.00</temp>
<bpm>0</bpm>
<rpm>0.00</rpm>
</extensions>
</trkpt>
<trkpt lat="63.749591827" lon="-20.240026474">
<ele>39.656250</ele>
<time>2012-07-26T21:36:14Z</time>
<extensions>
<speed>0.0</speed>
<temp>0.00</temp>
<bpm>0</bpm>
<rpm>0.00</rpm>
</extensions>
</trkpt>
<trkpt lat="63.749591827" lon="-20.240026474">
<ele>39.648438</ele>
<time>2012-07-26T21:36:19Z</time>
<extensions>
<speed>0.0</speed>
<temp>0.00</temp>
<bpm>0</bpm>
<rpm>0.00</rpm>
</extensions>
</trkpt>
<trkpt lat="63.749591827" lon="-20.240026474">
<ele>39.640625</ele>
<time>2012-07-26T21:36:24Z</time>
<extensions>
<speed>0.0</speed>
<temp>0.00</temp>
<bpm>0</bpm>
<rpm>0.00</rpm>
</extensions>
</trkpt>
<trkpt lat="63.749591827" lon="-20.240026474">
<ele>39.625977</ele>
<time>2012-07-26T21:36:29Z</time>
<speed>0.010000</speed>
<extensions>
<speed>0.0</speed>
<temp>0.00</temp>
<bpm>0</bpm>
<rpm>0.00</rpm>
</extensions>
</trkpt>
<trkpt lat="63.749591827" lon="-20.240024567">
<ele>39.611328</ele>
<time>2012-07-26T21:36:34Z</time>
<extensions>
<speed>0.0</speed>
<temp>0.00</temp>
<bpm>0</bpm>
<rpm>0.00</rpm>
</extensions>
</trkpt>
<trkpt lat="63.749591827" lon="-20.240026474">
<ele>39.597656</ele>
<time>2012-07-26T21:36:39Z</time>
<extensions>
<speed>0.0</speed>
<temp>0.00</temp>
<bpm>0</bpm>
<rpm>0.00</rpm>
</extensions>
</trkpt>
<trkpt lat="63.749591827" lon="-20.240026474">
<ele>39.580078</ele>
<time>2012-07-26T21:36:44Z</time>
<extensions>
<speed>0.0</speed>
<temp>0.00</temp>
<bpm>0</bpm>
<rpm>0.00</rpm>
</extensions>
</trkpt>
<trkpt lat="63.749591827" lon="-20.240026474">
<ele>39.565430</ele>
<time>2012-07-26T21:36:49Z</time>
<extensions>
<speed>0.0</speed>
<temp>0.00</temp>
<bpm>0</bpm>
<rpm>0.00</rpm>
</extensions>
</trkpt>
<trkpt lat="63.749591827" lon="-20.240026474">
<ele>39.556641</ele>
<time>2012-07-26T21:36:54Z</time>
<extensions>
<speed>0.0</speed>
<temp>0.00</temp>
<bpm>0</bpm>
<rpm>0.00</rpm>
</extensions>
</trkpt>
<trkpt lat="63.749591827" lon="-20.240026474">
<ele>39.544922</ele>
<time>2012-07-26T21:36:59Z</time>
<speed>0.010000</speed>
<extensions>
<speed>0.0</speed>
<temp>0.00</temp>
<bpm>0</bpm>
<rpm>0.00</rpm>
</extensions>
</trkpt>
<trkpt lat="63.749591827" lon="-20.240026474">
<ele>39.534180</ele>
<time>2012-07-26T21:37:04Z</time>
<extensions>
<speed>0.0</speed>
<temp>0.00</temp>
<bpm>0</bpm>
<rpm>0.00</rpm>
</extensions>
</trkpt>
<trkpt lat="63.749591827" lon="-20.240026474">
<ele>39.525391</ele>
<time>2012-07-26T21:37:09Z</time>
<speed>0.010000</speed>
<extensions>
<speed>0.0</speed>
<temp>0.00</temp>
<bpm>0</bpm>
<rpm>0.00</rpm>
</extensions>
</trkpt>
<trkpt lat="63.749591827" lon="-20.240026474">
<ele>39.507813</ele>
<time>2012-07-26T21:37:14Z</time>
<extensions>
<speed>0.0</speed>
<temp>0.00</temp>
<bpm>0</bpm>
<rpm>0.00</rpm>
</extensions>
</trkpt>
<trkpt lat="63.749591827" lon="-20.240026474">
<ele>39.491211</ele>
<time>2012-07-26T21:37:19Z</time>
<extensions>
<speed>0.0</speed>
<temp>0.00</temp>
<bpm>0</bpm>
<rpm>0.00</rpm>
</extensions>
</trkpt>
<trkpt lat="63.749591827" lon="-20.240026474">
<ele>39.486328</ele>
<time>2012-07-26T21:37:24Z</time>
<extensions>
<speed>0.0</speed>
<temp>0.00</temp>
<bpm>0</bpm>
<rpm>0.00</rpm>
</extensions>
</trkpt>
<trkpt lat="63.749591827" lon="-20.240026474">
<ele>39.475586</ele>
<time>2012-07-26T21:37:29Z</time>
<extensions>
<speed>0.0</speed>
<temp>0.00</temp>
<bpm>0</bpm>
<rpm>0.00</rpm>
</extensions>
</trkpt>
<trkpt lat="63.749591827" lon="-20.240026474">
<ele>39.459961</ele>
<time>2012-07-26T21:37:34Z</time>
<extensions>
<speed>0.0</speed>
<temp>0.00</temp>
<bpm>0</bpm>
<rpm>0.00</rpm>
</extensions>
</trkpt>
<trkpt lat="63.749591827" lon="-20.240026474">
<ele>39.454102</ele>
<time>2012-07-26T21:37:39Z</time>
<speed>0.010000</speed>
<extensions>
<speed>0.0</speed>
<temp>0.00</temp>
<bpm>0</bpm>
<rpm>0.00</rpm>
</extensions>
</trkpt>
<trkpt lat="63.749591827" lon="-20.240026474">
<ele>39.434570</ele>
<time>2012-07-26T21:37:44Z</time>
<extensions>
<speed>0.0</speed>
<temp>0.00</temp>
<bpm>0</bpm>
<rpm>0.00</rpm>
</extensions>
</trkpt>
<trkpt lat="63.749591827" lon="-20.240026474">
<ele>39.422852</ele>
<time>2012-07-26T21:37:49Z</time>
<extensions>
<speed>0.0</speed>
<temp>0.00</temp>
<bpm>0</bpm>
<rpm>0.00</rpm>
</extensions>
</trkpt>
<trkpt lat="63.749591827" lon="-20.240026474">
<ele>39.410156</ele>
<time>2012-07-26T21:37:54Z</time>
<extensions>
<speed>0.0</speed>
<temp>0.00</temp>
<bpm>0</bpm>
<rpm>0.00</rpm>
</extensions>
</trkpt>
<trkpt lat="63.749591827" lon="-20.240026474">
<ele>39.399414</ele>
<time>2012-07-26T21:37:59Z</time>
<extensions>
<speed>0.0</speed>
<temp>0.00</temp>
<bpm>0</bpm>
<rpm>0.00</rpm>
</extensions>
</trkpt>
<trkpt lat="63.749591827" lon="-20.240026474">
<ele>39.389648</ele>
<time>2012-07-26T21:38:04Z</time>
<extensions>
<speed>0.0</speed>
<temp>0.00</temp>
<bpm>0</bpm>
<rpm>0.00</rpm>
</extensions>
</trkpt>
<trkpt lat="63.749591827" lon="-20.240026474">
<ele>39.381836</ele>
<time>2012-07-26T21:38:09Z</time>
<extensions>
<speed>0.0</speed>
<temp>0.00</temp>
<bpm>0</bpm>
<rpm>0.00</rpm>
</extensions>
</trkpt>
<trkpt lat="63.749591827" lon="-20.240026474">
<ele>39.364258</ele>
<time>2012-07-26T21:38:14Z</time>
<extensions>
<speed>0.0</speed>
<temp>0.00</temp>
<bpm>0</bpm>
<rpm>0.00</rpm>
</extensions>
</trkpt>
<trkpt lat="63.749591827" lon="-20.240026474">
<ele>39.352539</ele>
<time>2012-07-26T21:38:19Z</time>
<speed>0.010000</speed>
<extensions>
<speed>0.0</speed>
<temp>0.00</temp>
<bpm>0</bpm>
<rpm>0.00</rpm>
</extensions>
</trkpt>
<trkpt lat="63.749591827" lon="-20.240026474">
<ele>39.336914</ele>
<time>2012-07-26T21:38:24Z</time>
<extensions>
<speed>0.0</speed>
<temp>0.00</temp>
<bpm>0</bpm>
<rpm>0.00</rpm>
</extensions>
</trkpt>
<trkpt lat="63.749591827" lon="-20.240026474">
<ele>39.329102</ele>
<time>2012-07-26T21:38:29Z</time>
<extensions>
<speed>0.0</speed>
<temp>0.00</temp>
<bpm>0</bpm>
<rpm>0.00</rpm>
</extensions>
</trkpt>
<trkpt lat="63.749591827" lon="-20.240026474">
<ele>39.317383</ele>
<time>2012-07-26T21:38:34Z</time>
<extensions>
<speed>0.0</speed>
<temp>0.00</temp>
<bpm>0</bpm>
<rpm>0.00</rpm>
</extensions>
</trkpt>
<trkpt lat="63.749591827" lon="-20.240026474">
<ele>39.304688</ele>
<time>2012-07-26T21:38:39Z</time>
<extensions>
<speed>0.0</speed>
<temp>0.00</temp>
<bpm>0</bpm>
<rpm>0.00</rpm>
</extensions>
</trkpt>
<trkpt lat="63.749591827" lon="-20.240026474">
<ele>39.293945</ele>
<time>2012-07-26T21:38:44Z</time>
<speed>0.010000</speed>
<extensions>
<speed>0.0</speed>
<temp>0.00</temp>
<bpm>0</bpm>
<rpm>0.00</rpm>
</extensions>
</trkpt>
<trkpt lat="63.749591827" lon="-20.240026474">
<ele>39.283203</ele>
<time>2012-07-26T21:38:49Z</time>
<extensions>
<speed>0.0</speed>
<temp>0.00</temp>
<bpm>0</bpm>
<rpm>0.00</rpm>
</extensions>
</trkpt>
<trkpt lat="63.749591827" lon="-20.240026474">
<ele>39.269531</ele>
<time>2012-07-26T21:38:54Z</time>
<extensions>
<speed>0.0</speed>
<temp>0.00</temp>
<bpm>0</bpm>
<rpm>0.00</rpm>
</extensions>
</trkpt>
<trkpt lat="63.749591827" lon="-20.240026474">
<ele>39.256836</ele>
<time>2012-07-26T21:38:59Z</time>
<speed>0.010000</speed>
<extensions>
<speed>0.0</speed>
<temp>0.00</temp>
<bpm>0</bpm>
<rpm>0.00</rpm>
</extensions>
</trkpt>
<trkpt lat="63.749591827" lon="-20.240026474">
<ele>39.239258</ele>
<time>2012-07-26T21:39:04Z</time>
<speed>0.010000</speed>
<extensions>
<speed>0.0</speed>
<temp>0.00</temp>
<bpm>0</bpm>
<rpm>0.00</rpm>
</extensions>
</trkpt>
<trkpt lat="63.749591827" lon="-20.240026474">
<ele>39.229492</ele>
<time>2012-07-26T21:39:09Z</time>
<extensions>
<speed>0.0</speed>
<temp>0.00</temp>
<bpm>0</bpm>
<rpm>0.00</rpm>
</extensions>
</trkpt>
<trkpt lat="63.749591827" lon="-20.240028381">
<ele>39.214844</ele>
<time>2012-07-26T21:39:14Z</time>
<extensions>
<speed>0.0</speed>
<temp>0.00</temp>
<bpm>0</bpm>
<rpm>0.00</rpm>
</extensions>
</trkpt>
<trkpt lat="63.749591827" lon="-20.240028381">
<ele>39.203125</ele>
<time>2012-07-26T21:39:19Z</time>
<speed>0.010000</speed>
<extensions>
<speed>0.0</speed>
<temp>0.00</temp>
<bpm>0</bpm>
<rpm>0.00</rpm>
</extensions>
</trkpt>
<trkpt lat="63.749591827" lon="-20.240028381">
<ele>39.188477</ele>
<time>2012-07-26T21:39:24Z</time>
<speed>0.010000</speed>
<extensions>
<speed>0.0</speed>
<temp>0.00</temp>
<bpm>0</bpm>
<rpm>0.00</rpm>
</extensions>
</trkpt>
<trkpt lat="63.749591827" lon="-20.240028381">
<ele>39.173828</ele>
<time>2012-07-26T21:39:29Z</time>
<speed>0.010000</speed>
<extensions>
<speed>0.0</speed>
<temp>0.00</temp>
<bpm>0</bpm>
<rpm>0.00</rpm>
</extensions>
</trkpt>
<trkpt lat="63.749591827" lon="-20.240028381">
<ele>39.165039</ele>
<time>2012-07-26T21:39:34Z</time>
<extensions>
<speed>0.0</speed>
<temp>0.00</temp>
<bpm>0</bpm>
<rpm>0.00</rpm>
</extensions>
</trkpt>
<trkpt lat="63.749591827" lon="-20.240028381">
<ele>39.152344</ele>
<time>2012-07-26T21:39:39Z</time>
<speed>0.010000</speed>
<extensions>
<speed>0.0</speed>
<temp>0.00</temp>
<bpm>0</bpm>
<rpm>0.00</rpm>
</extensions>
</trkpt>
<trkpt lat="63.749591827" lon="-20.240028381">
<ele>39.138672</ele>
<time>2012-07-26T21:39:44Z</time>
<extensions>
<speed>0.0</speed>
<temp>0.00</temp>
<bpm>0</bpm>
<rpm>0.00</rpm>
</extensions>
</trkpt>
<trkpt lat="63.749591827" lon="-20.240028381">
<ele>39.128906</ele>
<time>2012-07-26T21:39:49Z</time>
<extensions>
<speed>0.0</speed>
<temp>0.00</temp>
<bpm>0</bpm>
<rpm>0.00</rpm>
</extensions>
</trkpt>
<trkpt lat="63.749591827" lon="-20.240028381">
<ele>39.116211</ele>
<time>2012-07-26T21:39:54Z</time>
<extensions>
<speed>0.0</speed>
<temp>0.00</temp>
<bpm>0</bpm>
<rpm>0.00</rpm>
</extensions>
</trkpt>
<trkpt lat="63.749591827" lon="-20.240028381">
<ele>39.099609</ele>
<time>2012-07-26T21:39:59Z</time>
<extensions>
<speed>0.0</speed>
<temp>0.00</temp>
<bpm>0</bpm>
<rpm>0.00</rpm>
</extensions>
</trkpt>
<trkpt lat="63.749591827" lon="-20.240028381">
<ele>39.085938</ele>
<time>2012-07-26T21:40:04Z</time>
<extensions>
<speed>0.0</speed>
<temp>0.00</temp>
<bpm>0</bpm>
<rpm>0.00</rpm>
</extensions>
</trkpt>
<trkpt lat="63.749591827" lon="-20.240028381">
<ele>39.071289</ele>
<time>2012-07-26T21:40:09Z</time>
<extensions>
<speed>0.0</speed>
<temp>0.00</temp>
<bpm>0</bpm>
<rpm>0.00</rpm>
</extensions>
</trkpt>
<trkpt lat="63.749591827" lon="-20.240028381">
<ele>39.056641</ele>
<time>2012-07-26T21:40:14Z</time>
<extensions>
<speed>0.0</speed>
<temp>0.00</temp>
<bpm>0</bpm>
<rpm>0.00</rpm>
</extensions>
</trkpt>
<trkpt lat="63.749591827" lon="-20.240028381">
<ele>39.041992</ele>
<time>2012-07-26T21:40:19Z</time>
<extensions>
<speed>0.0</speed>
<temp>0.00</temp>
<bpm>0</bpm>
<rpm>0.00</rpm>
</extensions>
</trkpt>
<trkpt lat="63.749591827" lon="-20.240028381">
<ele>39.029297</ele>
<time>2012-07-26T21:40:24Z</time>
<extensions>
<speed>0.0</speed>
<temp>0.00</temp>
<bpm>0</bpm>
<rpm>0.00</rpm>
</extensions>
</trkpt>
<trkpt lat="63.749591827" lon="-20.240028381">
<ele>39.012695</ele>
<time>2012-07-26T21:40:29Z</time>
<extensions>
<speed>0.0</speed>
<temp>0.00</temp>
<bpm>0</bpm>
<rpm>0.00</rpm>
</extensions>
</trkpt>
<trkpt lat="63.749591827" lon="-20.240028381">
<ele>38.994141</ele>
<time>2012-07-26T21:40:34Z</time>
<speed>0.010000</speed>
<extensions>
<speed>0.0</speed>
<temp>0.00</temp>
<bpm>0</bpm>
<rpm>0.00</rpm>
</extensions>
</trkpt>
<trkpt lat="63.749591827" lon="-20.240028381">
<ele>38.974609</ele>
<time>2012-07-26T21:40:39Z</time>
<extensions>
<speed>0.0</speed>
<temp>0.00</temp>
<bpm>0</bpm>
<rpm>0.00</rpm>
</extensions>
</trkpt>
<trkpt lat="63.749591827" lon="-20.240028381">
<ele>38.959961</ele>
<time>2012-07-26T21:40:44Z</time>
<speed>0.010000</speed>
<extensions>
<speed>0.0</speed>
<temp>0.00</temp>
<bpm>0</bpm>
<rpm>0.00</rpm>
</extensions>
</trkpt>
<trkpt lat="63.749591827" lon="-20.240028381">
<ele>38.947266</ele>
<time>2012-07-26T21:40:49Z</time>
<speed>0.020000</speed>
<extensions>
<speed>0.0</speed>
<temp>0.00</temp>
<bpm>0</bpm>
<rpm>0.00</rpm>
</extensions>
</trkpt>
<trkpt lat="63.749591827" lon="-20.240028381">
<ele>38.921875</ele>
<time>2012-07-26T21:40:54Z</time>
<extensions>
<speed>0.0</speed>
<temp>0.00</temp>
<bpm>0</bpm>
<rpm>0.00</rpm>
</extensions>
</trkpt>
<trkpt lat="63.749591827" lon="-20.240028381">
<ele>38.901367</ele>
<time>2012-07-26T21:40:59Z</time>
<extensions>
<speed>0.0</speed>
<temp>0.00</temp>
<bpm>0</bpm>
<rpm>0.00</rpm>
</extensions>
</trkpt>
<trkpt lat="63.749591827" lon="-20.240028381">
<ele>38.877930</ele>
<time>2012-07-26T21:41:04Z</time>
<extensions>
<speed>0.0</speed>
<temp>0.00</temp>
<bpm>0</bpm>
<rpm>0.00</rpm>
</extensions>
</trkpt>
<trkpt lat="63.749591827" lon="-20.240028381">
<ele>38.856445</ele>
<time>2012-07-26T21:41:09Z</time>
<extensions>
<speed>0.0</speed>
<temp>0.00</temp>
<bpm>0</bpm>
<rpm>0.00</rpm>
</extensions>
</trkpt>
<trkpt lat="63.749591827" lon="-20.240028381">
<ele>38.839844</ele>
<time>2012-07-26T21:41:14Z</time>
<extensions>
<speed>0.0</speed>
<temp>0.00</temp>
<bpm>0</bpm>
<rpm>0.00</rpm>
</extensions>
</trkpt>
<trkpt lat="63.749591827" lon="-20.240028381">
<ele>38.822266</ele>
<time>2012-07-26T21:41:19Z</time>
<extensions>
<speed>0.0</speed>
<temp>0.00</temp>
<bpm>0</bpm>
<rpm>0.00</rpm>
</extensions>
</trkpt>
<trkpt lat="63.749591827" lon="-20.240028381">
<ele>38.804688</ele>
<time>2012-07-26T21:41:24Z</time>
<extensions>
<speed>0.0</speed>
<temp>0.00</temp>
<bpm>0</bpm>
<rpm>0.00</rpm>
</extensions>
</trkpt>
<trkpt lat="63.749591827" lon="-20.240028381">
<ele>38.790039</ele>
<time>2012-07-26T21:41:29Z</time>
<extensions>
<speed>0.0</speed>
<temp>0.00</temp>
<bpm>0</bpm>
<rpm>0.00</rpm>
</extensions>
</trkpt>
<trkpt lat="63.749591827" lon="-20.240028381">
<ele>38.775391</ele>
<time>2012-07-26T21:41:34Z</time>
<extensions>
<speed>0.0</speed>
<temp>0.00</temp>
<bpm>0</bpm>
<rpm>0.00</rpm>
</extensions>
</trkpt>
<trkpt lat="63.749591827" lon="-20.240028381">
<ele>38.759766</ele>
<time>2012-07-26T21:41:39Z</time>
<extensions>
<speed>0.0</speed>
<temp>0.00</temp>
<bpm>0</bpm>
<rpm>0.00</rpm>
</extensions>
</trkpt>
<trkpt lat="63.749591827" lon="-20.240028381">
<ele>38.746094</ele>
<time>2012-07-26T21:41:44Z</time>
<extensions>
<speed>0.0</speed>
<temp>0.00</temp>
<bpm>0</bpm>
<rpm>0.00</rpm>
</extensions>
</trkpt>
<trkpt lat="63.749591827" lon="-20.240028381">
<ele>38.731445</ele>
<time>2012-07-26T21:41:49Z</time>
<extensions>
<speed>0.0</speed>
<temp>0.00</temp>
<bpm>0</bpm>
<rpm>0.00</rpm>
</extensions>
</trkpt>
<trkpt lat="63.749591827" lon="-20.240028381">
<ele>38.722656</ele>
<time>2012-07-26T21:41:54Z</time>
<extensions>
<speed>0.0</speed>
<temp>0.00</temp>
<bpm>0</bpm>
<rpm>0.00</rpm>
</extensions>
</trkpt>
<trkpt lat="63.749591827" lon="-20.240028381">
<ele>38.709961</ele>
<time>2012-07-26T21:41:59Z</time>
<extensions>
<speed>0.0</speed>
<temp>0.00</temp>
<bpm>0</bpm>
<rpm>0.00</rpm>
</extensions>
</trkpt>
<trkpt lat="63.749591827" lon="-20.240028381">
<ele>38.699219</ele>
<time>2012-07-26T21:42:04Z</time>
<extensions>
<speed>0.0</speed>
<temp>0.00</temp>
<bpm>0</bpm>
<rpm>0.00</rpm>
</extensions>
</trkpt>
<trkpt lat="63.749591827" lon="-20.240030289">
<ele>38.690430</ele>
<time>2012-07-26T21:42:09Z</time>
<extensions>
<speed>0.0</speed>
<temp>0.00</temp>
<bpm>0</bpm>
<rpm>0.00</rpm>
</extensions>
</trkpt>
<trkpt lat="63.749591827" lon="-20.240030289">
<ele>38.681641</ele>
<time>2012-07-26T21:42:14Z</time>
<extensions>
<speed>0.0</speed>
<temp>0.00</temp>
<bpm>0</bpm>
<rpm>0.00</rpm>
</extensions>
</trkpt>
<trkpt lat="63.749591827" lon="-20.240030289">
<ele>38.666992</ele>
<time>2012-07-26T21:42:19Z</time>
<extensions>
<speed>0.0</speed>
<temp>0.00</temp>
<bpm>0</bpm>
<rpm>0.00</rpm>
</extensions>
</trkpt>
<trkpt lat="63.749591827" lon="-20.240030289">
<ele>38.657227</ele>
<time>2012-07-26T21:42:24Z</time>
<extensions>
<speed>0.0</speed>
<temp>0.00</temp>
<bpm>0</bpm>
<rpm>0.00</rpm>
</extensions>
</trkpt>
<trkpt lat="63.749591827" lon="-20.240030289">
<ele>38.649414</ele>
<time>2012-07-26T21:42:29Z</time>
<extensions>
<speed>0.0</speed>
<temp>0.00</temp>
<bpm>0</bpm>
<rpm>0.00</rpm>
</extensions>
</trkpt>
<trkpt lat="63.749591827" lon="-20.240030289">
<ele>38.642578</ele>
<time>2012-07-26T21:42:34Z</time>
<speed>0.010000</speed>
<extensions>
<speed>0.0</speed>
<temp>0.00</temp>
<bpm>0</bpm>
<rpm>0.00</rpm>
</extensions>
</trkpt>
<trkpt lat="63.749591827" lon="-20.240030289">
<ele>38.633789</ele>
<time>2012-07-26T21:42:39Z</time>
<extensions>
<speed>0.0</speed>
<temp>0.00</temp>
<bpm>0</bpm>
<rpm>0.00</rpm>
</extensions>
</trkpt>
<trkpt lat="63.749591827" lon="-20.240030289">
<ele>38.628906</ele>
<time>2012-07-26T21:42:44Z</time>
<extensions>
<speed>0.0</speed>
<temp>0.00</temp>
<bpm>0</bpm>
<rpm>0.00</rpm>
</extensions>
</trkpt>
<trkpt lat="63.749591827" lon="-20.240030289">
<ele>38.625977</ele>
<time>2012-07-26T21:42:49Z</time>
<extensions>
<speed>0.0</speed>
<temp>0.00</temp>
<bpm>0</bpm>
<rpm>0.00</rpm>
</extensions>
</trkpt>
<trkpt lat="63.749591827" lon="-20.240030289">
<ele>38.614258</ele>
<time>2012-07-26T21:42:54Z</time>
<extensions>
<speed>0.0</speed>
<temp>0.00</temp>
<bpm>0</bpm>
<rpm>0.00</rpm>
</extensions>
</trkpt>
<trkpt lat="63.749591827" lon="-20.240030289">
<ele>38.607422</ele>
<time>2012-07-26T21:42:59Z</time>
<extensions>
<speed>0.0</speed>
<temp>0.00</temp>
<bpm>0</bpm>
<rpm>0.00</rpm>
</extensions>
</trkpt>
<trkpt lat="63.749591827" lon="-20.240030289">
<ele>38.597656</ele>
<time>2012-07-26T21:43:04Z</time>
<speed>0.010000</speed>
<extensions>
<speed>0.0</speed>
<temp>0.00</temp>
<bpm>0</bpm>
<rpm>0.00</rpm>
</extensions>
</trkpt>
<trkpt lat="63.749591827" lon="-20.240030289">
<ele>38.582031</ele>
<time>2012-07-26T21:43:09Z</time>
<extensions>
<speed>0.0</speed>
<temp>0.00</temp>
<bpm>0</bpm>
<rpm>0.00</rpm>
</extensions>
</trkpt>
<trkpt lat="63.749591827" lon="-20.240030289">
<ele>38.571289</ele>
<time>2012-07-26T21:43:14Z</time>
<extensions>
<speed>0.0</speed>
<temp>0.00</temp>
<bpm>0</bpm>
<rpm>0.00</rpm>
</extensions>
</trkpt>
<trkpt lat="63.749591827" lon="-20.240030289">
<ele>38.555664</ele>
<time>2012-07-26T21:43:19Z</time>
<extensions>
<speed>0.0</speed>
<temp>0.00</temp>
<bpm>0</bpm>
<rpm>0.00</rpm>
</extensions>
</trkpt>
<trkpt lat="63.749591827" lon="-20.240030289">
<ele>38.544922</ele>
<time>2012-07-26T21:43:24Z</time>
<extensions>
<speed>0.0</speed>
<temp>0.00</temp>
<bpm>0</bpm>
<rpm>0.00</rpm>
</extensions>
</trkpt>
<trkpt lat="63.749591827" lon="-20.240030289">
<ele>38.530273</ele>
<time>2012-07-26T21:43:29Z</time>
<extensions>
<speed>0.0</speed>
<temp>0.00</temp>
<bpm>0</bpm>
<rpm>0.00</rpm>
</extensions>
</trkpt>
<trkpt lat="63.749591827" lon="-20.240030289">
<ele>38.520508</ele>
<time>2012-07-26T21:43:34Z</time>
<extensions>
<speed>0.0</speed>
<temp>0.00</temp>
<bpm>0</bpm>
<rpm>0.00</rpm>
</extensions>
</trkpt>
<trkpt lat="63.749591827" lon="-20.240030289">
<ele>38.506836</ele>
<time>2012-07-26T21:43:39Z</time>
<extensions>
<speed>0.0</speed>
<temp>0.00</temp>
<bpm>0</bpm>
<rpm>0.00</rpm>
</extensions>
</trkpt>
<trkpt lat="63.749591827" lon="-20.240030289">
<ele>38.499023</ele>
<time>2012-07-26T21:43:44Z</time>
<extensions>
<speed>0.0</speed>
<temp>0.00</temp>
<bpm>0</bpm>
<rpm>0.00</rpm>
</extensions>
</trkpt>
<trkpt lat="63.749591827" lon="-20.240030289">
<ele>38.487305</ele>
<time>2012-07-26T21:43:49Z</time>
<extensions>
<speed>0.0</speed>
<temp>0.00</temp>
<bpm>0</bpm>
<rpm>0.00</rpm>
</extensions>
</trkpt>
<trkpt lat="63.749591827" lon="-20.240030289">
<ele>38.474609</ele>
<time>2012-07-26T21:43:54Z</time>
<extensions>
<speed>0.0</speed>
<temp>0.00</temp>
<bpm>0</bpm>
<rpm>0.00</rpm>
</extensions>
</trkpt>
<trkpt lat="63.749591827" lon="-20.240030289">
<ele>38.469727</ele>
<time>2012-07-26T21:43:59Z</time>
<extensions>
<speed>0.0</speed>
<temp>0.00</temp>
<bpm>0</bpm>
<rpm>0.00</rpm>
</extensions>
</trkpt>
<trkpt lat="63.749591827" lon="-20.240030289">
<ele>38.456055</ele>
<time>2012-07-26T21:44:04Z</time>
<extensions>
<speed>0.0</speed>
<temp>0.00</temp>
<bpm>0</bpm>
<rpm>0.00</rpm>
</extensions>
</trkpt>
<trkpt lat="63.749591827" lon="-20.240030289">
<ele>38.444336</ele>
<time>2012-07-26T21:44:09Z</time>
<extensions>
<speed>0.0</speed>
<temp>0.00</temp>
<bpm>0</bpm>
<rpm>0.00</rpm>
</extensions>
</trkpt>
<trkpt lat="63.749591827" lon="-20.240030289">
<ele>38.436523</ele>
<time>2012-07-26T21:44:14Z</time>
<extensions>
<speed>0.0</speed>
<temp>0.00</temp>
<bpm>0</bpm>
<rpm>0.00</rpm>
</extensions>
</trkpt>
<trkpt lat="63.749591827" lon="-20.240030289">
<ele>38.427734</ele>
<time>2012-07-26T21:44:19Z</time>
<extensions>
<speed>0.0</speed>
<temp>0.00</temp>
<bpm>0</bpm>
<rpm>0.00</rpm>
</extensions>
</trkpt>
<trkpt lat="63.749591827" lon="-20.240030289">
<ele>38.422852</ele>
<time>2012-07-26T21:44:24Z</time>
<extensions>
<speed>0.0</speed>
<temp>0.00</temp>
<bpm>0</bpm>
<rpm>0.00</rpm>
</extensions>
</trkpt>
<trkpt lat="63.749591827" lon="-20.240030289">
<ele>38.417969</ele>
<time>2012-07-26T21:44:29Z</time>
<extensions>
<speed>0.0</speed>
<temp>0.00</temp>
<bpm>0</bpm>
<rpm>0.00</rpm>
</extensions>
</trkpt>
<trkpt lat="63.749591827" lon="-20.240030289">
<ele>38.415039</ele>
<time>2012-07-26T21:44:34Z</time>
<speed>0.010000</speed>
<extensions>
<speed>0.0</speed>
<temp>0.00</temp>
<bpm>0</bpm>
<rpm>0.00</rpm>
</extensions>
</trkpt>
<trkpt lat="63.749591827" lon="-20.240030289">
<ele>38.409180</ele>
<time>2012-07-26T21:44:39Z</time>
<extensions>
<speed>0.0</speed>
<temp>0.00</temp>
<bpm>0</bpm>
<rpm>0.00</rpm>
</extensions>
</trkpt>
<trkpt lat="63.749591827" lon="-20.240030289">
<ele>38.399414</ele>
<time>2012-07-26T21:44:44Z</time>
<extensions>
<speed>0.0</speed>
<temp>0.00</temp>
<bpm>0</bpm>
<rpm>0.00</rpm>
</extensions>
</trkpt>
<trkpt lat="63.749591827" lon="-20.240030289">
<ele>38.387695</ele>
<time>2012-07-26T21:44:49Z</time>
<extensions>
<speed>0.0</speed>
<temp>0.00</temp>
<bpm>0</bpm>
<rpm>0.00</rpm>
</extensions>
</trkpt>
<trkpt lat="63.749591827" lon="-20.240030289">
<ele>38.377930</ele>
<time>2012-07-26T21:44:54Z</time>
<speed>0.010000</speed>
<extensions>
<speed>0.0</speed>
<temp>0.00</temp>
<bpm>0</bpm>
<rpm>0.00</rpm>
</extensions>
</trkpt>
<trkpt lat="63.749591827" lon="-20.240030289">
<ele>38.367188</ele>
<time>2012-07-26T21:44:59Z</time>
<extensions>
<speed>0.0</speed>
<temp>0.00</temp>
<bpm>0</bpm>
<rpm>0.00</rpm>
</extensions>
</trkpt>
<trkpt lat="63.749591827" lon="-20.240030289">
<ele>38.355469</ele>
<time>2012-07-26T21:45:04Z</time>
<speed>0.010000</speed>
<extensions>
<speed>0.0</speed>
<temp>0.00</temp>
<bpm>0</bpm>
<rpm>0.00</rpm>
</extensions>
</trkpt>
<trkpt lat="63.749591827" lon="-20.240030289">
<ele>38.343750</ele>
<time>2012-07-26T21:45:09Z</time>
<speed>0.010000</speed>
<extensions>
<speed>0.0</speed>
<temp>0.00</temp>
<bpm>0</bpm>
<rpm>0.00</rpm>
</extensions>
</trkpt>
<trkpt lat="63.749591827" lon="-20.240030289">
<ele>38.333984</ele>
<time>2012-07-26T21:45:14Z</time>
<extensions>
<speed>0.0</speed>
<temp>0.00</temp>
<bpm>0</bpm>
<rpm>0.00</rpm>
</extensions>
</trkpt>
<trkpt lat="63.749591827" lon="-20.240030289">
<ele>38.324219</ele>
<time>2012-07-26T21:45:19Z</time>
<extensions>
<speed>0.0</speed>
<temp>0.00</temp>
<bpm>0</bpm>
<rpm>0.00</rpm>
</extensions>
</trkpt>
<trkpt lat="63.749591827" lon="-20.240030289">
<ele>38.316406</ele>
<time>2012-07-26T21:45:24Z</time>
<extensions>
<speed>0.0</speed>
<temp>0.00</temp>
<bpm>0</bpm>
<rpm>0.00</rpm>
</extensions>
</trkpt>
<trkpt lat="63.749591827" lon="-20.240030289">
<ele>38.306641</ele>
<time>2012-07-26T21:45:29Z</time>
<speed>0.010000</speed>
<extensions>
<speed>0.0</speed>
<temp>0.00</temp>
<bpm>0</bpm>
<rpm>0.00</rpm>
</extensions>
</trkpt>
<trkpt lat="63.749591827" lon="-20.240030289">
<ele>38.297852</ele>
<time>2012-07-26T21:45:34Z</time>
<extensions>
<speed>0.0</speed>
<temp>0.00</temp>
<bpm>0</bpm>
<rpm>0.00</rpm>
</extensions>
</trkpt>
<trkpt lat="63.749591827" lon="-20.240030289">
<ele>38.286133</ele>
<time>2012-07-26T21:45:39Z</time>
<extensions>
<speed>0.0</speed>
<temp>0.00</temp>
<bpm>0</bpm>
<rpm>0.00</rpm>
</extensions>
</trkpt>
<trkpt lat="63.749591827" lon="-20.240030289">
<ele>38.281250</ele>
<time>2012-07-26T21:45:44Z</time>
<extensions>
<speed>0.0</speed>
<temp>0.00</temp>
<bpm>0</bpm>
<rpm>0.00</rpm>
</extensions>
</trkpt>
<trkpt lat="63.749591827" lon="-20.240030289">
<ele>38.271484</ele>
<time>2012-07-26T21:45:49Z</time>
<extensions>
<speed>0.0</speed>
<temp>0.00</temp>
<bpm>0</bpm>
<rpm>0.00</rpm>
</extensions>
</trkpt>
<trkpt lat="63.749591827" lon="-20.240030289">
<ele>38.267578</ele>
<time>2012-07-26T21:45:54Z</time>
<extensions>
<speed>0.0</speed>
<temp>0.00</temp>
<bpm>0</bpm>
<rpm>0.00</rpm>
</extensions>
</trkpt>
<trkpt lat="63.749591827" lon="-20.240030289">
<ele>38.264648</ele>
<time>2012-07-26T21:45:59Z</time>
<extensions>
<speed>0.0</speed>
<temp>0.00</temp>
<bpm>0</bpm>
<rpm>0.00</rpm>
</extensions>
</trkpt>
<trkpt lat="63.749591827" lon="-20.240030289">
<ele>38.260742</ele>
<time>2012-07-26T21:46:04Z</time>
<extensions>
<speed>0.0</speed>
<temp>0.00</temp>
<bpm>0</bpm>
<rpm>0.00</rpm>
</extensions>
</trkpt>
<trkpt lat="63.749591827" lon="-20.240030289">
<ele>38.256836</ele>
<time>2012-07-26T21:46:09Z</time>
<extensions>
<speed>0.0</speed>
<temp>0.00</temp>
<bpm>0</bpm>
<rpm>0.00</rpm>
</extensions>
</trkpt>
<trkpt lat="63.749591827" lon="-20.240030289">
<ele>38.252930</ele>
<time>2012-07-26T21:46:14Z</time>
<extensions>
<speed>0.0</speed>
<temp>0.00</temp>
<bpm>0</bpm>
<rpm>0.00</rpm>
</extensions>
</trkpt>
<trkpt lat="63.749591827" lon="-20.240030289">
<ele>38.241211</ele>
<time>2012-07-26T21:46:19Z</time>
<speed>0.010000</speed>
<extensions>
<speed>0.0</speed>
<temp>0.00</temp>
<bpm>0</bpm>
<rpm>0.00</rpm>
</extensions>
</trkpt>
<trkpt lat="63.749591827" lon="-20.240030289">
<ele>38.235352</ele>
<time>2012-07-26T21:46:24Z</time>
<extensions>
<speed>0.0</speed>
<temp>0.00</temp>
<bpm>0</bpm>
<rpm>0.00</rpm>
</extensions>
</trkpt>
<trkpt lat="63.749591827" lon="-20.240032196">
<ele>38.233398</ele>
<time>2012-07-26T21:46:29Z</time>
<extensions>
<speed>0.0</speed>
<temp>0.00</temp>
<bpm>0</bpm>
<rpm>0.00</rpm>
</extensions>
</trkpt>
<trkpt lat="63.749591827" lon="-20.240032196">
<ele>38.222656</ele>
<time>2012-07-26T21:46:34Z</time>
<extensions>
<speed>0.0</speed>
<temp>0.00</temp>
<bpm>0</bpm>
<rpm>0.00</rpm>
</extensions>
</trkpt>
<trkpt lat="63.749591827" lon="-20.240032196">
<ele>38.209961</ele>
<time>2012-07-26T21:46:39Z</time>
<extensions>
<speed>0.0</speed>
<temp>0.00</temp>
<bpm>0</bpm>
<rpm>0.00</rpm>
</extensions>
</trkpt>
<trkpt lat="63.749591827" lon="-20.240032196">
<ele>38.209961</ele>
<time>2012-07-26T21:46:44Z</time>
<extensions>
<speed>0.0</speed>
<temp>0.00</temp>
<bpm>0</bpm>
<rpm>0.00</rpm>
</extensions>
</trkpt>
<trkpt lat="63.749591827" lon="-20.240032196">
<ele>38.193359</ele>
<time>2012-07-26T21:46:49Z</time>
<extensions>
<speed>0.0</speed>
<temp>0.00</temp>
<bpm>0</bpm>
<rpm>0.00</rpm>
</extensions>
</trkpt>
<trkpt lat="63.749591827" lon="-20.240032196">
<ele>38.183594</ele>
<time>2012-07-26T21:46:54Z</time>
<extensions>
<speed>0.0</speed>
<temp>0.00</temp>
<bpm>0</bpm>
<rpm>0.00</rpm>
</extensions>
</trkpt>
<trkpt lat="63.749591827" lon="-20.240032196">
<ele>38.174805</ele>
<time>2012-07-26T21:46:59Z</time>
<extensions>
<speed>0.0</speed>
<temp>0.00</temp>
<bpm>0</bpm>
<rpm>0.00</rpm>
</extensions>
</trkpt>
<trkpt lat="63.749591827" lon="-20.240032196">
<ele>38.166016</ele>
<time>2012-07-26T21:47:04Z</time>
<speed>0.010000</speed>
<extensions>
<speed>0.0</speed>
<temp>0.00</temp>
<bpm>0</bpm>
<rpm>0.00</rpm>
</extensions>
</trkpt>
<trkpt lat="63.749591827" lon="-20.240032196">
<ele>38.154297</ele>
<time>2012-07-26T21:47:09Z</time>
<extensions>
<speed>0.0</speed>
<temp>0.00</temp>
<bpm>0</bpm>
<rpm>0.00</rpm>
</extensions>
</trkpt>
<trkpt lat="63.749591827" lon="-20.240032196">
<ele>38.146484</ele>
<time>2012-07-26T21:47:14Z</time>
<speed>0.010000</speed>
<extensions>
<speed>0.0</speed>
<temp>0.00</temp>
<bpm>0</bpm>
<rpm>0.00</rpm>
</extensions>
</trkpt>
<trkpt lat="63.749591827" lon="-20.240032196">
<ele>38.122070</ele>
<time>2012-07-26T21:47:19Z</time>
<extensions>
<speed>0.0</speed>
<temp>0.00</temp>
<bpm>0</bpm>
<rpm>0.00</rpm>
</extensions>
</trkpt>
<trkpt lat="63.749591827" lon="-20.240032196">
<ele>38.119141</ele>
<time>2012-07-26T21:47:24Z</time>
<extensions>
<speed>0.0</speed>
<temp>0.00</temp>
<bpm>0</bpm>
<rpm>0.00</rpm>
</extensions>
</trkpt>
<trkpt lat="63.749588013" lon="-20.240034103">
<ele>38.105469</ele>
<time>2012-07-26T21:47:29Z</time>
<extensions>
<speed>0.0</speed>
<temp>0.00</temp>
<bpm>0</bpm>
<rpm>0.00</rpm>
</extensions>
</trkpt>
<trkpt lat="63.749588013" lon="-20.240034103">
<ele>38.086914</ele>
<time>2012-07-26T21:47:34Z</time>
<extensions>
<speed>0.0</speed>
<temp>0.00</temp>
<bpm>0</bpm>
<rpm>0.00</rpm>
</extensions>
</trkpt>
<trkpt lat="63.749588013" lon="-20.240034103">
<ele>38.084961</ele>
<time>2012-07-26T21:47:39Z</time>
<extensions>
<speed>0.0</speed>
<temp>0.00</temp>
<bpm>0</bpm>
<rpm>0.00</rpm>
</extensions>
</trkpt>
<trkpt lat="63.749588013" lon="-20.240032196">
<ele>38.089844</ele>
<time>2012-07-26T21:47:44Z</time>
<extensions>
<speed>0.0</speed>
<temp>0.00</temp>
<bpm>0</bpm>
<rpm>0.00</rpm>
</extensions>
</trkpt>
<trkpt lat="63.749588013" lon="-20.240032196">
<ele>38.090820</ele>
<time>2012-07-26T21:47:49Z</time>
<extensions>
<speed>0.0</speed>
<temp>0.00</temp>
<bpm>0</bpm>
<rpm>0.00</rpm>
</extensions>
</trkpt>
<trkpt lat="63.749588013" lon="-20.240034103">
<ele>38.078125</ele>
<time>2012-07-26T21:47:54Z</time>
<extensions>
<speed>0.0</speed>
<temp>0.00</temp>
<bpm>0</bpm>
<rpm>0.00</rpm>
</extensions>
</trkpt>
<trkpt lat="63.749588013" lon="-20.240034103">
<ele>38.052734</ele>
<time>2012-07-26T21:47:59Z</time>
<extensions>
<speed>0.0</speed>
<temp>0.00</temp>
<bpm>0</bpm>
<rpm>0.00</rpm>
</extensions>
</trkpt>
<trkpt lat="63.749588013" lon="-20.240034103">
<ele>38.030273</ele>
<time>2012-07-26T21:48:04Z</time>
<speed>0.020000</speed>
<extensions>
<speed>0.0</speed>
<temp>0.00</temp>
<bpm>0</bpm>
<rpm>0.00</rpm>
</extensions>
</trkpt>
<trkpt lat="63.749588013" lon="-20.240032196">
<ele>38.012695</ele>
<time>2012-07-26T21:48:09Z</time>
<extensions>
<speed>0.0</speed>
<temp>0.00</temp>
<bpm>0</bpm>
<rpm>0.00</rpm>
</extensions>
</trkpt>
<trkpt lat="63.749588013" lon="-20.240032196">
<ele>37.987305</ele>
<time>2012-07-26T21:48:14Z</time>
<extensions>
<speed>0.0</speed>
<temp>0.00</temp>
<bpm>0</bpm>
<rpm>0.00</rpm>
</extensions>
</trkpt>
<trkpt lat="63.749588013" lon="-20.240032196">
<ele>37.966797</ele>
<time>2012-07-26T21:48:19Z</time>
<extensions>
<speed>0.0</speed>
<temp>0.00</temp>
<bpm>0</bpm>
<rpm>0.00</rpm>
</extensions>
</trkpt>
<trkpt lat="63.749588013" lon="-20.240032196">
<ele>37.950195</ele>
<time>2012-07-26T21:48:24Z</time>
<extensions>
<speed>0.0</speed>
<temp>0.00</temp>
<bpm>0</bpm>
<rpm>0.00</rpm>
</extensions>
</trkpt>
<trkpt lat="63.749588013" lon="-20.240032196">
<ele>37.946289</ele>
<time>2012-07-26T21:48:29Z</time>
<speed>0.010000</speed>
<extensions>
<speed>0.0</speed>
<temp>0.00</temp>
<bpm>0</bpm>
<rpm>0.00</rpm>
</extensions>
</trkpt>
<trkpt lat="63.749588013" lon="-20.240032196">
<ele>37.953125</ele>
<time>2012-07-26T21:48:34Z</time>
<extensions>
<speed>0.0</speed>
<temp>0.00</temp>
<bpm>0</bpm>
<rpm>0.00</rpm>
</extensions>
</trkpt>
<trkpt lat="63.749588013" lon="-20.240032196">
<ele>37.956055</ele>
<time>2012-07-26T21:48:39Z</time>
<extensions>
<speed>0.0</speed>
<temp>0.00</temp>
<bpm>0</bpm>
<rpm>0.00</rpm>
</extensions>
</trkpt>
<trkpt lat="63.749588013" lon="-20.240032196">
<ele>37.949219</ele>
<time>2012-07-26T21:48:44Z</time>
<extensions>
<speed>0.0</speed>
<temp>0.00</temp>
<bpm>0</bpm>
<rpm>0.00</rpm>
</extensions>
</trkpt>
<trkpt lat="63.749588013" lon="-20.240032196">
<ele>37.932617</ele>
<time>2012-07-26T21:48:49Z</time>
<extensions>
<speed>0.0</speed>
<temp>0.00</temp>
<bpm>0</bpm>
<rpm>0.00</rpm>
</extensions>
</trkpt>
<trkpt lat="63.749588013" lon="-20.240032196">
<ele>37.936523</ele>
<time>2012-07-26T21:48:54Z</time>
<extensions>
<speed>0.0</speed>
<temp>0.00</temp>
<bpm>0</bpm>
<rpm>0.00</rpm>
</extensions>
</trkpt>
<trkpt lat="63.749588013" lon="-20.240032196">
<ele>37.934570</ele>
<time>2012-07-26T21:48:59Z</time>
<speed>0.010000</speed>
<extensions>
<speed>0.0</speed>
<temp>0.00</temp>
<bpm>0</bpm>
<rpm>0.00</rpm>
</extensions>
</trkpt>
<trkpt lat="63.749588013" lon="-20.240032196">
<ele>37.915039</ele>
<time>2012-07-26T21:49:04Z</time>
<speed>0.010000</speed>
<extensions>
<speed>0.0</speed>
<temp>0.00</temp>
<bpm>0</bpm>
<rpm>0.00</rpm>
</extensions>
</trkpt>
<trkpt lat="63.749588013" lon="-20.240032196">
<ele>37.916992</ele>
<time>2012-07-26T21:49:09Z</time>
<extensions>
<speed>0.0</speed>
<temp>0.00</temp>
<bpm>0</bpm>
<rpm>0.00</rpm>
</extensions>
</trkpt>
<trkpt lat="63.749588013" lon="-20.240032196">
<ele>37.903320</ele>
<time>2012-07-26T21:49:14Z</time>
<speed>0.010000</speed>
<extensions>
<speed>0.0</speed>
<temp>0.00</temp>
<bpm>0</bpm>
<rpm>0.00</rpm>
</extensions>
</trkpt>
<trkpt lat="63.749588013" lon="-20.240032196">
<ele>37.901367</ele>
<time>2012-07-26T21:49:19Z</time>
<extensions>
<speed>0.0</speed>
<temp>0.00</temp>
<bpm>0</bpm>
<rpm>0.00</rpm>
</extensions>
</trkpt>
<trkpt lat="63.749588013" lon="-20.240032196">
<ele>37.884766</ele>
<time>2012-07-26T21:49:24Z</time>
<extensions>
<speed>0.0</speed>
<temp>0.00</temp>
<bpm>0</bpm>
<rpm>0.00</rpm>
</extensions>
</trkpt>
<trkpt lat="63.749588013" lon="-20.240032196">
<ele>37.884766</ele>
<time>2012-07-26T21:49:29Z</time>
<extensions>
<speed>0.0</speed>
<temp>0.00</temp>
<bpm>0</bpm>
<rpm>0.00</rpm>
</extensions>
</trkpt>
<trkpt lat="63.749588013" lon="-20.240034103">
<ele>37.873047</ele>
<time>2012-07-26T21:49:34Z</time>
<speed>0.010000</speed>
<extensions>
<speed>0.0</speed>
<temp>0.00</temp>
<bpm>0</bpm>
<rpm>0.00</rpm>
</extensions>
</trkpt>
<trkpt lat="63.749588013" lon="-20.240034103">
<ele>37.867188</ele>
<time>2012-07-26T21:49:39Z</time>
<extensions>
<speed>0.0</speed>
<temp>0.00</temp>
<bpm>0</bpm>
<rpm>0.00</rpm>
</extensions>
</trkpt>
<trkpt lat="63.749588013" lon="-20.240034103">
<ele>37.864258</ele>
<time>2012-07-26T21:49:44Z</time>
<extensions>
<speed>0.0</speed>
<temp>0.00</temp>
<bpm>0</bpm>
<rpm>0.00</rpm>
</extensions>
</trkpt>
<trkpt lat="63.749588013" lon="-20.240034103">
<ele>37.855469</ele>
<time>2012-07-26T21:49:49Z</time>
<speed>0.010000</speed>
<extensions>
<speed>0.0</speed>
<temp>0.00</temp>
<bpm>0</bpm>
<rpm>0.00</rpm>
</extensions>
</trkpt>
<trkpt lat="63.749588013" lon="-20.240034103">
<ele>37.845703</ele>
<time>2012-07-26T21:49:54Z</time>
<extensions>
<speed>0.0</speed>
<temp>0.00</temp>
<bpm>0</bpm>
<rpm>0.00</rpm>
</extensions>
</trkpt>
<trkpt lat="63.749588013" lon="-20.240034103">
<ele>37.851563</ele>
<time>2012-07-26T21:49:59Z</time>
<extensions>
<speed>0.0</speed>
<temp>0.00</temp>
<bpm>0</bpm>
<rpm>0.00</rpm>
</extensions>
</trkpt>
<trkpt lat="63.749588013" lon="-20.240034103">
<ele>37.846680</ele>
<time>2012-07-26T21:50:04Z</time>
<speed>0.020000</speed>
<extensions>
<speed>0.0</speed>
<temp>0.00</temp>
<bpm>0</bpm>
<rpm>0.00</rpm>
</extensions>
</trkpt>
<trkpt lat="63.749588013" lon="-20.240034103">
<ele>37.838867</ele>
<time>2012-07-26T21:50:09Z</time>
<extensions>
<speed>0.0</speed>
<temp>0.00</temp>
<bpm>0</bpm>
<rpm>0.00</rpm>
</extensions>
</trkpt>
<trkpt lat="63.749588013" lon="-20.240034103">
<ele>37.834961</ele>
<time>2012-07-26T21:50:14Z</time>
<speed>0.010000</speed>
<extensions>
<speed>0.0</speed>
<temp>0.00</temp>
<bpm>0</bpm>
<rpm>0.00</rpm>
</extensions>
</trkpt>
<trkpt lat="63.749588013" lon="-20.240034103">
<ele>37.825195</ele>
<time>2012-07-26T21:50:19Z</time>
<extensions>
<speed>0.0</speed>
<temp>0.00</temp>
<bpm>0</bpm>
<rpm>0.00</rpm>
</extensions>
</trkpt>
<trkpt lat="63.749588013" lon="-20.240034103">
<ele>37.811523</ele>
<time>2012-07-26T21:50:24Z</time>
<extensions>
<speed>0.0</speed>
<temp>0.00</temp>
<bpm>0</bpm>
<rpm>0.00</rpm>
</extensions>
</trkpt>
<trkpt lat="63.749588013" lon="-20.240034103">
<ele>37.805664</ele>
<time>2012-07-26T21:50:29Z</time>
<extensions>
<speed>0.0</speed>
<temp>0.00</temp>
<bpm>0</bpm>
<rpm>0.00</rpm>
</extensions>
</trkpt>
<trkpt lat="63.749588013" lon="-20.240034103">
<ele>37.798828</ele>
<time>2012-07-26T21:50:34Z</time>
<extensions>
<speed>0.0</speed>
<temp>0.00</temp>
<bpm>0</bpm>
<rpm>0.00</rpm>
</extensions>
</trkpt>
<trkpt lat="63.749588013" lon="-20.240034103">
<ele>37.788086</ele>
<time>2012-07-26T21:50:39Z</time>
<extensions>
<speed>0.0</speed>
<temp>0.00</temp>
<bpm>0</bpm>
<rpm>0.00</rpm>
</extensions>
</trkpt>
<trkpt lat="63.749588013" lon="-20.240034103">
<ele>37.783203</ele>
<time>2012-07-26T21:50:44Z</time>
<extensions>
<speed>0.0</speed>
<temp>0.00</temp>
<bpm>0</bpm>
<rpm>0.00</rpm>
</extensions>
</trkpt>
<trkpt lat="63.749588013" lon="-20.240034103">
<ele>37.777344</ele>
<time>2012-07-26T21:50:49Z</time>
<extensions>
<speed>0.0</speed>
<temp>0.00</temp>
<bpm>0</bpm>
<rpm>0.00</rpm>
</extensions>
</trkpt>
<trkpt lat="63.749588013" lon="-20.240034103">
<ele>37.769531</ele>
<time>2012-07-26T21:50:54Z</time>
<extensions>
<speed>0.0</speed>
<temp>0.00</temp>
<bpm>0</bpm>
<rpm>0.00</rpm>
</extensions>
</trkpt>
<trkpt lat="63.749584198" lon="-20.240034103">
<ele>37.765625</ele>
<time>2012-07-26T21:50:59Z</time>
<extensions>
<speed>0.0</speed>
<temp>0.00</temp>
<bpm>0</bpm>
<rpm>0.00</rpm>
</extensions>
</trkpt>
<trkpt lat="63.749584198" lon="-20.240034103">
<ele>37.759766</ele>
<time>2012-07-26T21:51:04Z</time>
<extensions>
<speed>0.0</speed>
<temp>0.00</temp>
<bpm>0</bpm>
<rpm>0.00</rpm>
</extensions>
</trkpt>
<trkpt lat="63.749584198" lon="-20.240034103">
<ele>37.752930</ele>
<time>2012-07-26T21:51:09Z</time>
<extensions>
<speed>0.0</speed>
<temp>0.00</temp>
<bpm>0</bpm>
<rpm>0.00</rpm>
</extensions>
</trkpt>
<trkpt lat="63.749584198" lon="-20.240034103">
<ele>37.745117</ele>
<time>2012-07-26T21:51:14Z</time>
<extensions>
<speed>0.0</speed>
<temp>0.00</temp>
<bpm>0</bpm>
<rpm>0.00</rpm>
</extensions>
</trkpt>
<trkpt lat="63.749584198" lon="-20.240034103">
<ele>37.737305</ele>
<time>2012-07-26T21:51:19Z</time>
<extensions>
<speed>0.0</speed>
<temp>0.00</temp>
<bpm>0</bpm>
<rpm>0.00</rpm>
</extensions>
</trkpt>
<trkpt lat="63.749584198" lon="-20.240034103">
<ele>37.724609</ele>
<time>2012-07-26T21:51:24Z</time>
<extensions>
<speed>0.0</speed>
<temp>0.00</temp>
<bpm>0</bpm>
<rpm>0.00</rpm>
</extensions>
</trkpt>
<trkpt lat="63.749584198" lon="-20.240034103">
<ele>37.715820</ele>
<time>2012-07-26T21:51:29Z</time>
<speed>0.010000</speed>
<extensions>
<speed>0.0</speed>
<temp>0.00</temp>
<bpm>0</bpm>
<rpm>0.00</rpm>
</extensions>
</trkpt>
<trkpt lat="63.749584198" lon="-20.240034103">
<ele>37.707031</ele>
<time>2012-07-26T21:51:34Z</time>
<extensions>
<speed>0.0</speed>
<temp>0.00</temp>
<bpm>0</bpm>
<rpm>0.00</rpm>
</extensions>
</trkpt>
<trkpt lat="63.749584198" lon="-20.240034103">
<ele>37.699219</ele>
<time>2012-07-26T21:51:39Z</time>
<extensions>
<speed>0.0</speed>
<temp>0.00</temp>
<bpm>0</bpm>
<rpm>0.00</rpm>
</extensions>
</trkpt>
<trkpt lat="63.749584198" lon="-20.240034103">
<ele>37.687500</ele>
<time>2012-07-26T21:51:44Z</time>
<extensions>
<speed>0.0</speed>
<temp>0.00</temp>
<bpm>0</bpm>
<rpm>0.00</rpm>
</extensions>
</trkpt>
<trkpt lat="63.749584198" lon="-20.240034103">
<ele>37.677734</ele>
<time>2012-07-26T21:51:49Z</time>
<extensions>
<speed>0.0</speed>
<temp>0.00</temp>
<bpm>0</bpm>
<rpm>0.00</rpm>
</extensions>
</trkpt>
<trkpt lat="63.749584198" lon="-20.240034103">
<ele>37.667969</ele>
<time>2012-07-26T21:51:54Z</time>
<extensions>
<speed>0.0</speed>
<temp>0.00</temp>
<bpm>0</bpm>
<rpm>0.00</rpm>
</extensions>
</trkpt>
<trkpt lat="63.749584198" lon="-20.240034103">
<ele>37.662109</ele>
<time>2012-07-26T21:51:59Z</time>
<extensions>
<speed>0.0</speed>
<temp>0.00</temp>
<bpm>0</bpm>
<rpm>0.00</rpm>
</extensions>
</trkpt>
<trkpt lat="63.749584198" lon="-20.240034103">
<ele>37.654297</ele>
<time>2012-07-26T21:52:04Z</time>
<extensions>
<speed>0.0</speed>
<temp>0.00</temp>
<bpm>0</bpm>
<rpm>0.00</rpm>
</extensions>
</trkpt>
<trkpt lat="63.749584198" lon="-20.240034103">
<ele>37.650391</ele>
<time>2012-07-26T21:52:09Z</time>
<extensions>
<speed>0.0</speed>
<temp>0.00</temp>
<bpm>0</bpm>
<rpm>0.00</rpm>
</extensions>
</trkpt>
<trkpt lat="63.749584198" lon="-20.240036011">
<ele>37.645508</ele>
<time>2012-07-26T21:52:14Z</time>
<extensions>
<speed>0.0</speed>
<temp>0.00</temp>
<bpm>0</bpm>
<rpm>0.00</rpm>
</extensions>
</trkpt>
<trkpt lat="63.749584198" lon="-20.240036011">
<ele>37.639648</ele>
<time>2012-07-26T21:52:19Z</time>
<extensions>
<speed>0.0</speed>
<temp>0.00</temp>
<bpm>0</bpm>
<rpm>0.00</rpm>
</extensions>
</trkpt>
<trkpt lat="63.749584198" lon="-20.240036011">
<ele>37.635742</ele>
<time>2012-07-26T21:52:24Z</time>
<extensions>
<speed>0.0</speed>
<temp>0.00</temp>
<bpm>0</bpm>
<rpm>0.00</rpm>
</extensions>
</trkpt>
<trkpt lat="63.749584198" lon="-20.240036011">
<ele>37.626953</ele>
<time>2012-07-26T21:52:29Z</time>
<extensions>
<speed>0.0</speed>
<temp>0.00</temp>
<bpm>0</bpm>
<rpm>0.00</rpm>
</extensions>
</trkpt>
<trkpt lat="63.749584198" lon="-20.240036011">
<ele>37.622070</ele>
<time>2012-07-26T21:52:34Z</time>
<extensions>
<speed>0.0</speed>
<temp>0.00</temp>
<bpm>0</bpm>
<rpm>0.00</rpm>
</extensions>
</trkpt>
<trkpt lat="63.749584198" lon="-20.240036011">
<ele>37.620117</ele>
<time>2012-07-26T21:52:39Z</time>
<speed>0.010000</speed>
<extensions>
<speed>0.0</speed>
<temp>0.00</temp>
<bpm>0</bpm>
<rpm>0.00</rpm>
</extensions>
</trkpt>
<trkpt lat="63.749584198" lon="-20.240036011">
<ele>37.616211</ele>
<time>2012-07-26T21:52:44Z</time>
<extensions>
<speed>0.0</speed>
<temp>0.00</temp>
<bpm>0</bpm>
<rpm>0.00</rpm>
</extensions>
</trkpt>
<trkpt lat="63.749584198" lon="-20.240036011">
<ele>37.609375</ele>
<time>2012-07-26T21:52:49Z</time>
<speed>0.010000</speed>
<extensions>
<speed>0.0</speed>
<temp>0.00</temp>
<bpm>0</bpm>
<rpm>0.00</rpm>
</extensions>
</trkpt>
<trkpt lat="63.749584198" lon="-20.240036011">
<ele>37.605469</ele>
<time>2012-07-26T21:52:54Z</time>
<extensions>
<speed>0.0</speed>
<temp>0.00</temp>
<bpm>0</bpm>
<rpm>0.00</rpm>
</extensions>
</trkpt>
<trkpt lat="63.749584198" lon="-20.240036011">
<ele>37.602539</ele>
<time>2012-07-26T21:52:59Z</time>
<extensions>
<speed>0.0</speed>
<temp>0.00</temp>
<bpm>0</bpm>
<rpm>0.00</rpm>
</extensions>
</trkpt>
<trkpt lat="63.749584198" lon="-20.240036011">
<ele>37.594727</ele>
<time>2012-07-26T21:53:04Z</time>
<extensions>
<speed>0.0</speed>
<temp>0.00</temp>
<bpm>0</bpm>
<rpm>0.00</rpm>
</extensions>
</trkpt>
<trkpt lat="63.749584198" lon="-20.240036011">
<ele>37.583984</ele>
<time>2012-07-26T21:53:09Z</time>
<extensions>
<speed>0.0</speed>
<temp>0.00</temp>
<bpm>0</bpm>
<rpm>0.00</rpm>
</extensions>
</trkpt>
<trkpt lat="63.749584198" lon="-20.240036011">
<ele>37.576172</ele>
<time>2012-07-26T21:53:14Z</time>
<extensions>
<speed>0.0</speed>
<temp>0.00</temp>
<bpm>0</bpm>
<rpm>0.00</rpm>
</extensions>
</trkpt>
<trkpt lat="63.749584198" lon="-20.240036011">
<ele>37.566406</ele>
<time>2012-07-26T21:53:19Z</time>
<extensions>
<speed>0.0</speed>
<temp>0.00</temp>
<bpm>0</bpm>
<rpm>0.00</rpm>
</extensions>
</trkpt>
<trkpt lat="63.749584198" lon="-20.240036011">
<ele>37.552734</ele>
<time>2012-07-26T21:53:24Z</time>
<extensions>
<speed>0.0</speed>
<temp>0.00</temp>
<bpm>0</bpm>
<rpm>0.00</rpm>
</extensions>
</trkpt>
<trkpt lat="63.749584198" lon="-20.240036011">
<ele>37.537109</ele>
<time>2012-07-26T21:53:29Z</time>
<speed>0.010000</speed>
<extensions>
<speed>0.0</speed>
<temp>0.00</temp>
<bpm>0</bpm>
<rpm>0.00</rpm>
</extensions>
</trkpt>
<trkpt lat="63.749584198" lon="-20.240037918">
<ele>37.521484</ele>
<time>2012-07-26T21:53:34Z</time>
<extensions>
<speed>0.0</speed>
<temp>0.00</temp>
<bpm>0</bpm>
<rpm>0.00</rpm>
</extensions>
</trkpt>
<trkpt lat="63.749584198" lon="-20.240037918">
<ele>37.508789</ele>
<time>2012-07-26T21:53:39Z</time>
<extensions>
<speed>0.0</speed>
<temp>0.00</temp>
<bpm>0</bpm>
<rpm>0.00</rpm>
</extensions>
</trkpt>
<trkpt lat="63.749584198" lon="-20.240037918">
<ele>37.495117</ele>
<time>2012-07-26T21:53:44Z</time>
<extensions>
<speed>0.0</speed>
<temp>0.00</temp>
<bpm>0</bpm>
<rpm>0.00</rpm>
</extensions>
</trkpt>
<trkpt lat="63.749584198" lon="-20.240037918">
<ele>37.483398</ele>
<time>2012-07-26T21:53:49Z</time>
<speed>0.010000</speed>
<extensions>
<speed>0.0</speed>
<temp>0.00</temp>
<bpm>0</bpm>
<rpm>0.00</rpm>
</extensions>
</trkpt>
<trkpt lat="63.749584198" lon="-20.240037918">
<ele>37.472656</ele>
<time>2012-07-26T21:53:54Z</time>
<speed>0.010000</speed>
<extensions>
<speed>0.0</speed>
<temp>0.00</temp>
<bpm>0</bpm>
<rpm>0.00</rpm>
</extensions>
</trkpt>
<trkpt lat="63.749584198" lon="-20.240037918">
<ele>37.465820</ele>
<time>2012-07-26T21:53:59Z</time>
<extensions>
<speed>0.0</speed>
<temp>0.00</temp>
<bpm>0</bpm>
<rpm>0.00</rpm>
</extensions>
</trkpt>
<trkpt lat="63.749584198" lon="-20.240036011">
<ele>37.463867</ele>
<time>2012-07-26T21:54:04Z</time>
<speed>0.010000</speed>
<extensions>
<speed>0.0</speed>
<temp>0.00</temp>
<bpm>0</bpm>
<rpm>0.00</rpm>
</extensions>
</trkpt>
<trkpt lat="63.749584198" lon="-20.240036011">
<ele>37.458984</ele>
<time>2012-07-26T21:54:09Z</time>
<extensions>
<speed>0.0</speed>
<temp>0.00</temp>
<bpm>0</bpm>
<rpm>0.00</rpm>
</extensions>
</trkpt>
<trkpt lat="63.749584198" lon="-20.240036011">
<ele>37.450195</ele>
<time>2012-07-26T21:54:14Z</time>
<extensions>
<speed>0.0</speed>
<temp>0.00</temp>
<bpm>0</bpm>
<rpm>0.00</rpm>
</extensions>
</trkpt>
<trkpt lat="63.749584198" lon="-20.240036011">
<ele>37.442383</ele>
<time>2012-07-26T21:54:19Z</time>
<extensions>
<speed>0.0</speed>
<temp>0.00</temp>
<bpm>0</bpm>
<rpm>0.00</rpm>
</extensions>
</trkpt>
<trkpt lat="63.749584198" lon="-20.240036011">
<ele>37.438477</ele>
<time>2012-07-26T21:54:24Z</time>
<extensions>
<speed>0.0</speed>
<temp>0.00</temp>
<bpm>0</bpm>
<rpm>0.00</rpm>
</extensions>
</trkpt>
<trkpt lat="63.749584198" lon="-20.240036011">
<ele>37.436523</ele>
<time>2012-07-26T21:54:29Z</time>
<extensions>
<speed>0.0</speed>
<temp>0.00</temp>
<bpm>0</bpm>
<rpm>0.00</rpm>
</extensions>
</trkpt>
<trkpt lat="63.749584198" lon="-20.240036011">
<ele>37.429688</ele>
<time>2012-07-26T21:54:34Z</time>
<extensions>
<speed>0.0</speed>
<temp>0.00</temp>
<bpm>0</bpm>
<rpm>0.00</rpm>
</extensions>
</trkpt>
<trkpt lat="63.749584198" lon="-20.240036011">
<ele>37.423828</ele>
<time>2012-07-26T21:54:39Z</time>
<extensions>
<speed>0.0</speed>
<temp>0.00</temp>
<bpm>0</bpm>
<rpm>0.00</rpm>
</extensions>
</trkpt>
<trkpt lat="63.749584198" lon="-20.240036011">
<ele>37.415039</ele>
<time>2012-07-26T21:54:44Z</time>
<extensions>
<speed>0.0</speed>
<temp>0.00</temp>
<bpm>0</bpm>
<rpm>0.00</rpm>
</extensions>
</trkpt>
<trkpt lat="63.749584198" lon="-20.240036011">
<ele>37.400391</ele>
<time>2012-07-26T21:54:49Z</time>
<speed>0.010000</speed>
<extensions>
<speed>0.0</speed>
<temp>0.00</temp>
<bpm>0</bpm>
<rpm>0.00</rpm>
</extensions>
</trkpt>
<trkpt lat="63.749584198" lon="-20.240036011">
<ele>37.390625</ele>
<time>2012-07-26T21:54:54Z</time>
<extensions>
<speed>0.0</speed>
<temp>0.00</temp>
<bpm>0</bpm>
<rpm>0.00</rpm>
</extensions>
</trkpt>
<trkpt lat="63.749584198" lon="-20.240036011">
<ele>37.384766</ele>
<time>2012-07-26T21:54:59Z</time>
<extensions>
<speed>0.0</speed>
<temp>0.00</temp>
<bpm>0</bpm>
<rpm>0.00</rpm>
</extensions>
</trkpt>
<trkpt lat="63.749580383" lon="-20.240036011">
<ele>37.375000</ele>
<time>2012-07-26T21:55:04Z</time>
<extensions>
<speed>0.0</speed>
<temp>0.00</temp>
<bpm>0</bpm>
<rpm>0.00</rpm>
</extensions>
</trkpt>
<trkpt lat="63.749580383" lon="-20.240036011">
<ele>37.366211</ele>
<time>2012-07-26T21:55:09Z</time>
<extensions>
<speed>0.0</speed>
<temp>0.00</temp>
<bpm>0</bpm>
<rpm>0.00</rpm>
</extensions>
</trkpt>
<trkpt lat="63.749580383" lon="-20.240036011">
<ele>37.363281</ele>
<time>2012-07-26T21:55:14Z</time>
<extensions>
<speed>0.0</speed>
<temp>0.00</temp>
<bpm>0</bpm>
<rpm>0.00</rpm>
</extensions>
</trkpt>
<trkpt lat="63.749580383" lon="-20.240036011">
<ele>37.358398</ele>
<time>2012-07-26T21:55:19Z</time>
<extensions>
<speed>0.0</speed>
<temp>0.00</temp>
<bpm>0</bpm>
<rpm>0.00</rpm>
</extensions>
</trkpt>
<trkpt lat="63.749580383" lon="-20.240036011">
<ele>37.347656</ele>
<time>2012-07-26T21:55:24Z</time>
<extensions>
<speed>0.0</speed>
<temp>0.00</temp>
<bpm>0</bpm>
<rpm>0.00</rpm>
</extensions>
</trkpt>
<trkpt lat="63.749580383" lon="-20.240036011">
<ele>37.339844</ele>
<time>2012-07-26T21:55:29Z</time>
<extensions>
<speed>0.0</speed>
<temp>0.00</temp>
<bpm>0</bpm>
<rpm>0.00</rpm>
</extensions>
</trkpt>
<trkpt lat="63.749580383" lon="-20.240036011">
<ele>37.334961</ele>
<time>2012-07-26T21:55:34Z</time>
<extensions>
<speed>0.0</speed>
<temp>0.00</temp>
<bpm>0</bpm>
<rpm>0.00</rpm>
</extensions>
</trkpt>
<trkpt lat="63.749580383" lon="-20.240036011">
<ele>37.327148</ele>
<time>2012-07-26T21:55:39Z</time>
<extensions>
<speed>0.0</speed>
<temp>0.00</temp>
<bpm>0</bpm>
<rpm>0.00</rpm>
</extensions>
</trkpt>
<trkpt lat="63.749580383" lon="-20.240036011">
<ele>37.319336</ele>
<time>2012-07-26T21:55:44Z</time>
<speed>0.010000</speed>
<extensions>
<speed>0.0</speed>
<temp>0.00</temp>
<bpm>0</bpm>
<rpm>0.00</rpm>
</extensions>
</trkpt>
<trkpt lat="63.749580383" lon="-20.240036011">
<ele>37.309570</ele>
<time>2012-07-26T21:55:49Z</time>
<extensions>
<speed>0.0</speed>
<temp>0.00</temp>
<bpm>0</bpm>
<rpm>0.00</rpm>
</extensions>
</trkpt>
<trkpt lat="63.749580383" lon="-20.240036011">
<ele>37.306641</ele>
<time>2012-07-26T21:55:54Z</time>
<extensions>
<speed>0.0</speed>
<temp>0.00</temp>
<bpm>0</bpm>
<rpm>0.00</rpm>
</extensions>
</trkpt>
<trkpt lat="63.749580383" lon="-20.240036011">
<ele>37.300781</ele>
<time>2012-07-26T21:55:59Z</time>
<extensions>
<speed>0.0</speed>
<temp>0.00</temp>
<bpm>0</bpm>
<rpm>0.00</rpm>
</extensions>
</trkpt>
<trkpt lat="63.749580383" lon="-20.240036011">
<ele>37.288086</ele>
<time>2012-07-26T21:56:04Z</time>
<extensions>
<speed>0.0</speed>
<temp>0.00</temp>
<bpm>0</bpm>
<rpm>0.00</rpm>
</extensions>
</trkpt>
<trkpt lat="63.749580383" lon="-20.240037918">
<ele>37.282227</ele>
<time>2012-07-26T21:56:09Z</time>
<speed>0.010000</speed>
<extensions>
<speed>0.0</speed>
<temp>0.00</temp>
<bpm>0</bpm>
<rpm>0.00</rpm>
</extensions>
</trkpt>
<trkpt lat="63.749580383" lon="-20.240037918">
<ele>37.272461</ele>
<time>2012-07-26T21:56:14Z</time>
<speed>0.010000</speed>
<extensions>
<speed>0.0</speed>
<temp>0.00</temp>
<bpm>0</bpm>
<rpm>0.00</rpm>
</extensions>
</trkpt>
<trkpt lat="63.749580383" lon="-20.240037918">
<ele>37.262695</ele>
<time>2012-07-26T21:56:19Z</time>
<extensions>
<speed>0.0</speed>
<temp>0.00</temp>
<bpm>0</bpm>
<rpm>0.00</rpm>
</extensions>
</trkpt>
<trkpt lat="63.749580383" lon="-20.240037918">
<ele>37.250977</ele>
<time>2012-07-26T21:56:24Z</time>
<extensions>
<speed>0.0</speed>
<temp>0.00</temp>
<bpm>0</bpm>
<rpm>0.00</rpm>
</extensions>
</trkpt>
<trkpt lat="63.749580383" lon="-20.240037918">
<ele>37.243164</ele>
<time>2012-07-26T21:56:29Z</time>
<speed>0.010000</speed>
<extensions>
<speed>0.0</speed>
<temp>0.00</temp>
<bpm>0</bpm>
<rpm>0.00</rpm>
</extensions>
</trkpt>
<trkpt lat="63.749580383" lon="-20.240037918">
<ele>37.240234</ele>
<time>2012-07-26T21:56:34Z</time>
<extensions>
<speed>0.0</speed>
<temp>0.00</temp>
<bpm>0</bpm>
<rpm>0.00</rpm>
</extensions>
</trkpt>
<trkpt lat="63.749580383" lon="-20.240037918">
<ele>37.231445</ele>
<time>2012-07-26T21:56:39Z</time>
<extensions>
<speed>0.0</speed>
<temp>0.00</temp>
<bpm>0</bpm>
<rpm>0.00</rpm>
</extensions>
</trkpt>
<trkpt lat="63.749580383" lon="-20.240037918">
<ele>37.222656</ele>
<time>2012-07-26T21:56:44Z</time>
<extensions>
<speed>0.0</speed>
<temp>0.00</temp>
<bpm>0</bpm>
<rpm>0.00</rpm>
</extensions>
</trkpt>
<trkpt lat="63.749580383" lon="-20.240037918">
<ele>37.219727</ele>
<time>2012-07-26T21:56:49Z</time>
<speed>0.010000</speed>
<extensions>
<speed>0.0</speed>
<temp>0.00</temp>
<bpm>0</bpm>
<rpm>0.00</rpm>
</extensions>
</trkpt>
<trkpt lat="63.749580383" lon="-20.240037918">
<ele>37.211914</ele>
<time>2012-07-26T21:56:54Z</time>
<extensions>
<speed>0.0</speed>
<temp>0.00</temp>
<bpm>0</bpm>
<rpm>0.00</rpm>
</extensions>
</trkpt>
<trkpt lat="63.749580383" lon="-20.240037918">
<ele>37.206055</ele>
<time>2012-07-26T21:56:59Z</time>
<extensions>
<speed>0.0</speed>
<temp>0.00</temp>
<bpm>0</bpm>
<rpm>0.00</rpm>
</extensions>
</trkpt>
<trkpt lat="63.749580383" lon="-20.240037918">
<ele>37.201172</ele>
<time>2012-07-26T21:57:04Z</time>
<extensions>
<speed>0.0</speed>
<temp>0.00</temp>
<bpm>0</bpm>
<rpm>0.00</rpm>
</extensions>
</trkpt>
<trkpt lat="63.749580383" lon="-20.240037918">
<ele>37.199219</ele>
<time>2012-07-26T21:57:09Z</time>
<extensions>
<speed>0.0</speed>
<temp>0.00</temp>
<bpm>0</bpm>
<rpm>0.00</rpm>
</extensions>
</trkpt>
<trkpt lat="63.749580383" lon="-20.240037918">
<ele>37.192383</ele>
<time>2012-07-26T21:57:14Z</time>
<extensions>
<speed>0.0</speed>
<temp>0.00</temp>
<bpm>0</bpm>
<rpm>0.00</rpm>
</extensions>
</trkpt>
<trkpt lat="63.749580383" lon="-20.240037918">
<ele>37.191406</ele>
<time>2012-07-26T21:57:19Z</time>
<extensions>
<speed>0.0</speed>
<temp>0.00</temp>
<bpm>0</bpm>
<rpm>0.00</rpm>
</extensions>
</trkpt>
<trkpt lat="63.749580383" lon="-20.240037918">
<ele>37.187500</ele>
<time>2012-07-26T21:57:24Z</time>
<speed>0.010000</speed>
<extensions>
<speed>0.0</speed>
<temp>0.00</temp>
<bpm>0</bpm>
<rpm>0.00</rpm>
</extensions>
</trkpt>
<trkpt lat="63.749580383" lon="-20.240037918">
<ele>37.186523</ele>
<time>2012-07-26T21:57:29Z</time>
<extensions>
<speed>0.0</speed>
<temp>0.00</temp>
<bpm>0</bpm>
<rpm>0.00</rpm>
</extensions>
</trkpt>
<trkpt lat="63.749580383" lon="-20.240037918">
<ele>37.182617</ele>
<time>2012-07-26T21:57:34Z</time>
<extensions>
<speed>0.0</speed>
<temp>0.00</temp>
<bpm>0</bpm>
<rpm>0.00</rpm>
</extensions>
</trkpt>
<trkpt lat="63.749580383" lon="-20.240037918">
<ele>37.178711</ele>
<time>2012-07-26T21:57:39Z</time>
<extensions>
<speed>0.0</speed>
<temp>0.00</temp>
<bpm>0</bpm>
<rpm>0.00</rpm>
</extensions>
</trkpt>
<trkpt lat="63.749580383" lon="-20.240037918">
<ele>37.173828</ele>
<time>2012-07-26T21:57:44Z</time>
<extensions>
<speed>0.0</speed>
<temp>0.00</temp>
<bpm>0</bpm>
<rpm>0.00</rpm>
</extensions>
</trkpt>
<trkpt lat="63.749580383" lon="-20.240037918">
<ele>37.168945</ele>
<time>2012-07-26T21:57:49Z</time>
<extensions>
<speed>0.0</speed>
<temp>0.00</temp>
<bpm>0</bpm>
<rpm>0.00</rpm>
</extensions>
</trkpt>
<trkpt lat="63.749580383" lon="-20.240037918">
<ele>37.166992</ele>
<time>2012-07-26T21:57:54Z</time>
<speed>0.010000</speed>
<extensions>
<speed>0.0</speed>
<temp>0.00</temp>
<bpm>0</bpm>
<rpm>0.00</rpm>
</extensions>
</trkpt>
<trkpt lat="63.749580383" lon="-20.240037918">
<ele>37.162109</ele>
<time>2012-07-26T21:57:59Z</time>
<speed>0.010000</speed>
<extensions>
<speed>0.0</speed>
<temp>0.00</temp>
<bpm>0</bpm>
<rpm>0.00</rpm>
</extensions>
</trkpt>
<trkpt lat="63.749580383" lon="-20.240037918">
<ele>37.158203</ele>
<time>2012-07-26T21:58:04Z</time>
<extensions>
<speed>0.0</speed>
<temp>0.00</temp>
<bpm>0</bpm>
<rpm>0.00</rpm>
</extensions>
</trkpt>
<trkpt lat="63.749580383" lon="-20.240037918">
<ele>37.153320</ele>
<time>2012-07-26T21:58:09Z</time>
<extensions>
<speed>0.0</speed>
<temp>0.00</temp>
<bpm>0</bpm>
<rpm>0.00</rpm>
</extensions>
</trkpt>
<trkpt lat="63.749580383" lon="-20.240037918">
<ele>37.152344</ele>
<time>2012-07-26T21:58:14Z</time>
<extensions>
<speed>0.0</speed>
<temp>0.00</temp>
<bpm>0</bpm>
<rpm>0.00</rpm>
</extensions>
</trkpt>
<trkpt lat="63.749580383" lon="-20.240037918">
<ele>37.148438</ele>
<time>2012-07-26T21:58:19Z</time>
<extensions>
<speed>0.0</speed>
<temp>0.00</temp>
<bpm>0</bpm>
<rpm>0.00</rpm>
</extensions>
</trkpt>
<trkpt lat="63.749580383" lon="-20.240037918">
<ele>37.148438</ele>
<time>2012-07-26T21:58:24Z</time>
<extensions>
<speed>0.0</speed>
<temp>0.00</temp>
<bpm>0</bpm>
<rpm>0.00</rpm>
</extensions>
</trkpt>
<trkpt lat="63.749580383" lon="-20.240037918">
<ele>37.146484</ele>
<time>2012-07-26T21:58:29Z</time>
<extensions>
<speed>0.0</speed>
<temp>0.00</temp>
<bpm>0</bpm>
<rpm>0.00</rpm>
</extensions>
</trkpt>
<trkpt lat="63.749580383" lon="-20.240037918">
<ele>37.143555</ele>
<time>2012-07-26T21:58:34Z</time>
<extensions>
<speed>0.0</speed>
<temp>0.00</temp>
<bpm>0</bpm>
<rpm>0.00</rpm>
</extensions>
</trkpt>
<trkpt lat="63.749580383" lon="-20.240037918">
<ele>37.143555</ele>
<time>2012-07-26T21:58:39Z</time>
<extensions>
<speed>0.0</speed>
<temp>0.00</temp>
<bpm>0</bpm>
<rpm>0.00</rpm>
</extensions>
</trkpt>
<trkpt lat="63.749580383" lon="-20.240037918">
<ele>37.152344</ele>
<time>2012-07-26T21:58:44Z</time>
<extensions>
<speed>0.0</speed>
<temp>0.00</temp>
<bpm>0</bpm>
<rpm>0.00</rpm>
</extensions>
</trkpt>
<trkpt lat="63.749580383" lon="-20.240037918">
<ele>37.149414</ele>
<time>2012-07-26T21:58:49Z</time>
<extensions>
<speed>0.0</speed>
<temp>0.00</temp>
<bpm>0</bpm>
<rpm>0.00</rpm>
</extensions>
</trkpt>
<trkpt lat="63.749580383" lon="-20.240037918">
<ele>37.148438</ele>
<time>2012-07-26T21:58:54Z</time>
<extensions>
<speed>0.0</speed>
<temp>0.00</temp>
<bpm>0</bpm>
<rpm>0.00</rpm>
</extensions>
</trkpt>
<trkpt lat="63.749580383" lon="-20.240037918">
<ele>37.153320</ele>
<time>2012-07-26T21:58:59Z</time>
<extensions>
<speed>0.0</speed>
<temp>0.00</temp>
<bpm>0</bpm>
<rpm>0.00</rpm>
</extensions>
</trkpt>
<trkpt lat="63.749580383" lon="-20.240037918">
<ele>37.154297</ele>
<time>2012-07-26T21:59:04Z</time>
<extensions>
<speed>0.0</speed>
<temp>0.00</temp>
<bpm>0</bpm>
<rpm>0.00</rpm>
</extensions>
</trkpt>
<trkpt lat="63.749580383" lon="-20.240037918">
<ele>37.150391</ele>
<time>2012-07-26T21:59:09Z</time>
<extensions>
<speed>0.0</speed>
<temp>0.00</temp>
<bpm>0</bpm>
<rpm>0.00</rpm>
</extensions>
</trkpt>
<trkpt lat="63.749580383" lon="-20.240037918">
<ele>37.154297</ele>
<time>2012-07-26T21:59:14Z</time>
<extensions>
<speed>0.0</speed>
<temp>0.00</temp>
<bpm>0</bpm>
<rpm>0.00</rpm>
</extensions>
</trkpt>
<trkpt lat="63.749580383" lon="-20.240037918">
<ele>37.156250</ele>
<time>2012-07-26T21:59:19Z</time>
<extensions>
<speed>0.0</speed>
<temp>0.00</temp>
<bpm>0</bpm>
<rpm>0.00</rpm>
</extensions>
</trkpt>
<trkpt lat="63.749576569" lon="-20.240037918">
<ele>37.157227</ele>
<time>2012-07-26T21:59:24Z</time>
<extensions>
<speed>0.0</speed>
<temp>0.00</temp>
<bpm>0</bpm>
<rpm>0.00</rpm>
</extensions>
</trkpt>
<trkpt lat="63.749576569" lon="-20.240037918">
<ele>37.163086</ele>
<time>2012-07-26T21:59:29Z</time>
<extensions>
<speed>0.0</speed>
<temp>0.00</temp>
<bpm>0</bpm>
<rpm>0.00</rpm>
</extensions>
</trkpt>
<trkpt lat="63.749576569" lon="-20.240037918">
<ele>37.164063</ele>
<time>2012-07-26T21:59:34Z</time>
<extensions>
<speed>0.0</speed>
<temp>0.00</temp>
<bpm>0</bpm>
<rpm>0.00</rpm>
</extensions>
</trkpt>
<trkpt lat="63.749576569" lon="-20.240037918">
<ele>37.163086</ele>
<time>2012-07-26T21:59:39Z</time>
<extensions>
<speed>0.0</speed>
<temp>0.00</temp>
<bpm>0</bpm>
<rpm>0.00</rpm>
</extensions>
</trkpt>
<trkpt lat="63.749576569" lon="-20.240037918">
<ele>37.168945</ele>
<time>2012-07-26T21:59:44Z</time>
<speed>0.010000</speed>
<extensions>
<speed>0.0</speed>
<temp>0.00</temp>
<bpm>0</bpm>
<rpm>0.00</rpm>
</extensions>
</trkpt>
<trkpt lat="63.749576569" lon="-20.240037918">
<ele>37.172852</ele>
<time>2012-07-26T21:59:49Z</time>
<extensions>
<speed>0.0</speed>
<temp>0.00</temp>
<bpm>0</bpm>
<rpm>0.00</rpm>
</extensions>
</trkpt>
<trkpt lat="63.749576569" lon="-20.240037918">
<ele>37.174805</ele>
<time>2012-07-26T21:59:54Z</time>
<extensions>
<speed>0.0</speed>
<temp>0.00</temp>
<bpm>0</bpm>
<rpm>0.00</rpm>
</extensions>
</trkpt>
<trkpt lat="63.749576569" lon="-20.240037918">
<ele>37.174805</ele>
<time>2012-07-26T21:59:59Z</time>
<extensions>
<speed>0.0</speed>
<temp>0.00</temp>
<bpm>0</bpm>
<rpm>0.00</rpm>
</extensions>
</trkpt>
<trkpt lat="63.749576569" lon="-20.240037918">
<ele>37.165039</ele>
<time>2012-07-26T22:00:04Z</time>
<extensions>
<speed>0.0</speed>
<temp>0.00</temp>
<bpm>0</bpm>
<rpm>0.00</rpm>
</extensions>
</trkpt>
<trkpt lat="63.749576569" lon="-20.240037918">
<ele>37.158203</ele>
<time>2012-07-26T22:00:09Z</time>
<extensions>
<speed>0.0</speed>
<temp>0.00</temp>
<bpm>0</bpm>
<rpm>0.00</rpm>
</extensions>
</trkpt>
<trkpt lat="63.749576569" lon="-20.240037918">
<ele>37.153320</ele>
<time>2012-07-26T22:00:14Z</time>
<speed>0.010000</speed>
<extensions>
<speed>0.0</speed>
<temp>0.00</temp>
<bpm>0</bpm>
<rpm>0.00</rpm>
</extensions>
</trkpt>
<trkpt lat="63.749576569" lon="-20.240036011">
<ele>37.146484</ele>
<time>2012-07-26T22:00:19Z</time>
<extensions>
<speed>0.0</speed>
<temp>0.00</temp>
<bpm>0</bpm>
<rpm>0.00</rpm>
</extensions>
</trkpt>
<trkpt lat="63.749576569" lon="-20.240036011">
<ele>37.135742</ele>
<time>2012-07-26T22:00:24Z</time>
<extensions>
<speed>0.0</speed>
<temp>0.00</temp>
<bpm>0</bpm>
<rpm>0.00</rpm>
</extensions>
</trkpt>
<trkpt lat="63.749576569" lon="-20.240036011">
<ele>37.125977</ele>
<time>2012-07-26T22:00:29Z</time>
<extensions>
<speed>0.0</speed>
<temp>0.00</temp>
<bpm>0</bpm>
<rpm>0.00</rpm>
</extensions>
</trkpt>
<trkpt lat="63.749576569" lon="-20.240036011">
<ele>37.119141</ele>
<time>2012-07-26T22:00:34Z</time>
<speed>0.010000</speed>
<extensions>
<speed>0.0</speed>
<temp>0.00</temp>
<bpm>0</bpm>
<rpm>0.00</rpm>
</extensions>
</trkpt>
<trkpt lat="63.749576569" lon="-20.240036011">
<ele>37.108398</ele>
<time>2012-07-26T22:00:39Z</time>
<extensions>
<speed>0.0</speed>
<temp>0.00</temp>
<bpm>0</bpm>
<rpm>0.00</rpm>
</extensions>
</trkpt>
<trkpt lat="63.749576569" lon="-20.240036011">
<ele>37.098633</ele>
<time>2012-07-26T22:00:44Z</time>
<extensions>
<speed>0.0</speed>
<temp>0.00</temp>
<bpm>0</bpm>
<rpm>0.00</rpm>
</extensions>
</trkpt>
<trkpt lat="63.749576569" lon="-20.240036011">
<ele>37.085938</ele>
<time>2012-07-26T22:00:49Z</time>
<speed>0.010000</speed>
<extensions>
<speed>0.0</speed>
<temp>0.00</temp>
<bpm>0</bpm>
<rpm>0.00</rpm>
</extensions>
</trkpt>
<trkpt lat="63.749576569" lon="-20.240036011">
<ele>37.074219</ele>
<time>2012-07-26T22:00:54Z</time>
<extensions>
<speed>0.0</speed>
<temp>0.00</temp>
<bpm>0</bpm>
<rpm>0.00</rpm>
</extensions>
</trkpt>
<trkpt lat="63.749576569" lon="-20.240036011">
<ele>37.059570</ele>
<time>2012-07-26T22:00:59Z</time>
<extensions>
<speed>0.0</speed>
<temp>0.00</temp>
<bpm>0</bpm>
<rpm>0.00</rpm>
</extensions>
</trkpt>
<trkpt lat="63.749576569" lon="-20.240037918">
<ele>37.051758</ele>
<time>2012-07-26T22:01:04Z</time>
<extensions>
<speed>0.0</speed>
<temp>0.00</temp>
<bpm>0</bpm>
<rpm>0.00</rpm>
</extensions>
</trkpt>
<trkpt lat="63.749576569" lon="-20.240037918">
<ele>37.041016</ele>
<time>2012-07-26T22:01:09Z</time>
<extensions>
<speed>0.0</speed>
<temp>0.00</temp>
<bpm>0</bpm>
<rpm>0.00</rpm>
</extensions>
</trkpt>
<trkpt lat="63.749576569" lon="-20.240037918">
<ele>37.031250</ele>
<time>2012-07-26T22:01:14Z</time>
<extensions>
<speed>0.0</speed>
<temp>0.00</temp>
<bpm>0</bpm>
<rpm>0.00</rpm>
</extensions>
</trkpt>
<trkpt lat="63.749576569" lon="-20.240037918">
<ele>37.015625</ele>
<time>2012-07-26T22:01:19Z</time>
<extensions>
<speed>0.0</speed>
<temp>0.00</temp>
<bpm>0</bpm>
<rpm>0.00</rpm>
</extensions>
</trkpt>
<trkpt lat="63.749576569" lon="-20.240037918">
<ele>37.000000</ele>
<time>2012-07-26T22:01:24Z</time>
<extensions>
<speed>0.0</speed>
<temp>0.00</temp>
<bpm>0</bpm>
<rpm>0.00</rpm>
</extensions>
</trkpt>
<trkpt lat="63.749576569" lon="-20.240037918">
<ele>36.983398</ele>
<time>2012-07-26T22:01:29Z</time>
<extensions>
<speed>0.0</speed>
<temp>0.00</temp>
<bpm>0</bpm>
<rpm>0.00</rpm>
</extensions>
</trkpt>
<trkpt lat="63.749576569" lon="-20.240037918">
<ele>36.959961</ele>
<time>2012-07-26T22:01:34Z</time>
<extensions>
<speed>0.0</speed>
<temp>0.00</temp>
<bpm>0</bpm>
<rpm>0.00</rpm>
</extensions>
</trkpt>
<trkpt lat="63.749576569" lon="-20.240037918">
<ele>36.950195</ele>
<time>2012-07-26T22:01:39Z</time>
<extensions>
<speed>0.0</speed>
<temp>0.00</temp>
<bpm>0</bpm>
<rpm>0.00</rpm>
</extensions>
</trkpt>
<trkpt lat="63.749576569" lon="-20.240037918">
<ele>36.932617</ele>
<time>2012-07-26T22:01:44Z</time>
<extensions>
<speed>0.0</speed>
<temp>0.00</temp>
<bpm>0</bpm>
<rpm>0.00</rpm>
</extensions>
</trkpt>
<trkpt lat="63.749576569" lon="-20.240037918">
<ele>36.919922</ele>
<time>2012-07-26T22:01:49Z</time>
<extensions>
<speed>0.0</speed>
<temp>0.00</temp>
<bpm>0</bpm>
<rpm>0.00</rpm>
</extensions>
</trkpt>
<trkpt lat="63.749576569" lon="-20.240037918">
<ele>36.904297</ele>
<time>2012-07-26T22:01:54Z</time>
<speed>0.010000</speed>
<extensions>
<speed>0.0</speed>
<temp>0.00</temp>
<bpm>0</bpm>
<rpm>0.00</rpm>
</extensions>
</trkpt>
<trkpt lat="63.749576569" lon="-20.240037918">
<ele>36.893555</ele>
<time>2012-07-26T22:01:59Z</time>
<speed>0.010000</speed>
<extensions>
<speed>0.0</speed>
<temp>0.00</temp>
<bpm>0</bpm>
<rpm>0.00</rpm>
</extensions>
</trkpt>
<trkpt lat="63.749576569" lon="-20.240037918">
<ele>36.881836</ele>
<time>2012-07-26T22:02:04Z</time>
<extensions>
<speed>0.0</speed>
<temp>0.00</temp>
<bpm>0</bpm>
<rpm>0.00</rpm>
</extensions>
</trkpt>
<trkpt lat="63.749576569" lon="-20.240036011">
<ele>36.868164</ele>
<time>2012-07-26T22:02:09Z</time>
<extensions>
<speed>0.0</speed>
<temp>0.00</temp>
<bpm>0</bpm>
<rpm>0.00</rpm>
</extensions>
</trkpt>
<trkpt lat="63.749576569" lon="-20.240036011">
<ele>36.852539</ele>
<time>2012-07-26T22:02:14Z</time>
<extensions>
<speed>0.0</speed>
<temp>0.00</temp>
<bpm>0</bpm>
<rpm>0.00</rpm>
</extensions>
</trkpt>
<trkpt lat="63.749576569" lon="-20.240036011">
<ele>36.839844</ele>
<time>2012-07-26T22:02:19Z</time>
<speed>0.010000</speed>
<extensions>
<speed>0.0</speed>
<temp>0.00</temp>
<bpm>0</bpm>
<rpm>0.00</rpm>
</extensions>
</trkpt>
<trkpt lat="63.749576569" lon="-20.240036011">
<ele>36.829102</ele>
<time>2012-07-26T22:02:24Z</time>
<extensions>
<speed>0.0</speed>
<temp>0.00</temp>
<bpm>0</bpm>
<rpm>0.00</rpm>
</extensions>
</trkpt>
<trkpt lat="63.749576569" lon="-20.240036011">
<ele>36.821289</ele>
<time>2012-07-26T22:02:29Z</time>
<extensions>
<speed>0.0</speed>
<temp>0.00</temp>
<bpm>0</bpm>
<rpm>0.00</rpm>
</extensions>
</trkpt>
<trkpt lat="63.749576569" lon="-20.240036011">
<ele>36.819336</ele>
<time>2012-07-26T22:02:34Z</time>
<extensions>
<speed>0.0</speed>
<temp>0.00</temp>
<bpm>0</bpm>
<rpm>0.00</rpm>
</extensions>
</trkpt>
<trkpt lat="63.749576569" lon="-20.240036011">
<ele>36.813477</ele>
<time>2012-07-26T22:02:39Z</time>
<extensions>
<speed>0.0</speed>
<temp>0.00</temp>
<bpm>0</bpm>
<rpm>0.00</rpm>
</extensions>
</trkpt>
<trkpt lat="63.749576569" lon="-20.240036011">
<ele>36.805664</ele>
<time>2012-07-26T22:02:44Z</time>
<speed>0.010000</speed>
<extensions>
<speed>0.0</speed>
<temp>0.00</temp>
<bpm>0</bpm>
<rpm>0.00</rpm>
</extensions>
</trkpt>
<trkpt lat="63.749576569" lon="-20.240034103">
<ele>36.798828</ele>
<time>2012-07-26T22:02:49Z</time>
<speed>0.010000</speed>
<extensions>
<speed>0.0</speed>
<temp>0.00</temp>
<bpm>0</bpm>
<rpm>0.00</rpm>
</extensions>
</trkpt>
<trkpt lat="63.749576569" lon="-20.240034103">
<ele>36.792969</ele>
<time>2012-07-26T22:02:54Z</time>
<extensions>
<speed>0.0</speed>
<temp>0.00</temp>
<bpm>0</bpm>
<rpm>0.00</rpm>
</extensions>
</trkpt>
<trkpt lat="63.749576569" lon="-20.240034103">
<ele>36.793945</ele>
<time>2012-07-26T22:02:59Z</time>
<speed>0.010000</speed>
<extensions>
<speed>0.0</speed>
<temp>0.00</temp>
<bpm>0</bpm>
<rpm>0.00</rpm>
</extensions>
</trkpt>
<trkpt lat="63.749576569" lon="-20.240034103">
<ele>36.793945</ele>
<time>2012-07-26T22:03:04Z</time>
<extensions>
<speed>0.0</speed>
<temp>0.00</temp>
<bpm>0</bpm>
<rpm>0.00</rpm>
</extensions>
</trkpt>
<trkpt lat="63.749576569" lon="-20.240034103">
<ele>36.785156</ele>
<time>2012-07-26T22:03:09Z</time>
<extensions>
<speed>0.0</speed>
<temp>0.00</temp>
<bpm>0</bpm>
<rpm>0.00</rpm>
</extensions>
</trkpt>
<trkpt lat="63.749576569" lon="-20.240034103">
<ele>36.782227</ele>
<time>2012-07-26T22:03:14Z</time>
<extensions>
<speed>0.0</speed>
<temp>0.00</temp>
<bpm>0</bpm>
<rpm>0.00</rpm>
</extensions>
</trkpt>
<trkpt lat="63.749576569" lon="-20.240034103">
<ele>36.780273</ele>
<time>2012-07-26T22:03:19Z</time>
<extensions>
<speed>0.0</speed>
<temp>0.00</temp>
<bpm>0</bpm>
<rpm>0.00</rpm>
</extensions>
</trkpt>
<trkpt lat="63.749576569" lon="-20.240032196">
<ele>36.777344</ele>
<time>2012-07-26T22:03:24Z</time>
<extensions>
<speed>0.0</speed>
<temp>0.00</temp>
<bpm>0</bpm>
<rpm>0.00</rpm>
</extensions>
</trkpt>
<trkpt lat="63.749576569" lon="-20.240032196">
<ele>36.773438</ele>
<time>2012-07-26T22:03:29Z</time>
<extensions>
<speed>0.0</speed>
<temp>0.00</temp>
<bpm>0</bpm>
<rpm>0.00</rpm>
</extensions>
</trkpt>
<trkpt lat="63.749576569" lon="-20.240032196">
<ele>36.770508</ele>
<time>2012-07-26T22:03:34Z</time>
<extensions>
<speed>0.0</speed>
<temp>0.00</temp>
<bpm>0</bpm>
<rpm>0.00</rpm>
</extensions>
</trkpt>
<trkpt lat="63.749576569" lon="-20.240032196">
<ele>36.766602</ele>
<time>2012-07-26T22:03:39Z</time>
<extensions>
<speed>0.0</speed>
<temp>0.00</temp>
<bpm>0</bpm>
<rpm>0.00</rpm>
</extensions>
</trkpt>
<trkpt lat="63.749576569" lon="-20.240032196">
<ele>36.761719</ele>
<time>2012-07-26T22:03:44Z</time>
<extensions>
<speed>0.0</speed>
<temp>0.00</temp>
<bpm>0</bpm>
<rpm>0.00</rpm>
</extensions>
</trkpt>
<trkpt lat="63.749576569" lon="-20.240032196">
<ele>36.753906</ele>
<time>2012-07-26T22:03:49Z</time>
<extensions>
<speed>0.0</speed>
<temp>0.00</temp>
<bpm>0</bpm>
<rpm>0.00</rpm>
</extensions>
</trkpt>
<trkpt lat="63.749576569" lon="-20.240032196">
<ele>36.748047</ele>
<time>2012-07-26T22:03:54Z</time>
<extensions>
<speed>0.0</speed>
<temp>0.00</temp>
<bpm>0</bpm>
<rpm>0.00</rpm>
</extensions>
</trkpt>
<trkpt lat="63.749576569" lon="-20.240032196">
<ele>36.741211</ele>
<time>2012-07-26T22:03:59Z</time>
<extensions>
<speed>0.0</speed>
<temp>0.00</temp>
<bpm>0</bpm>
<rpm>0.00</rpm>
</extensions>
</trkpt>
<trkpt lat="63.749576569" lon="-20.240032196">
<ele>36.741211</ele>
<time>2012-07-26T22:04:04Z</time>
<extensions>
<speed>0.0</speed>
<temp>0.00</temp>
<bpm>0</bpm>
<rpm>0.00</rpm>
</extensions>
</trkpt>
<trkpt lat="63.749576569" lon="-20.240032196">
<ele>36.740234</ele>
<time>2012-07-26T22:04:09Z</time>
<extensions>
<speed>0.0</speed>
<temp>0.00</temp>
<bpm>0</bpm>
<rpm>0.00</rpm>
</extensions>
</trkpt>
<trkpt lat="63.749576569" lon="-20.240032196">
<ele>36.737305</ele>
<time>2012-07-26T22:04:14Z</time>
<extensions>
<speed>0.0</speed>
<temp>0.00</temp>
<bpm>0</bpm>
<rpm>0.00</rpm>
</extensions>
</trkpt>
<trkpt lat="63.749576569" lon="-20.240030289">
<ele>36.743164</ele>
<time>2012-07-26T22:04:19Z</time>
<extensions>
<speed>0.0</speed>
<temp>0.00</temp>
<bpm>0</bpm>
<rpm>0.00</rpm>
</extensions>
</trkpt>
<trkpt lat="63.749576569" lon="-20.240030289">
<ele>36.739258</ele>
<time>2012-07-26T22:04:24Z</time>
<speed>0.010000</speed>
<extensions>
<speed>0.0</speed>
<temp>0.00</temp>
<bpm>0</bpm>
<rpm>0.00</rpm>
</extensions>
</trkpt>
<trkpt lat="63.749576569" lon="-20.240030289">
<ele>36.741211</ele>
<time>2012-07-26T22:04:29Z</time>
<extensions>
<speed>0.0</speed>
<temp>0.00</temp>
<bpm>0</bpm>
<rpm>0.00</rpm>
</extensions>
</trkpt>
<trkpt lat="63.749576569" lon="-20.240030289">
<ele>36.743164</ele>
<time>2012-07-26T22:04:34Z</time>
<extensions>
<speed>0.0</speed>
<temp>0.00</temp>
<bpm>0</bpm>
<rpm>0.00</rpm>
</extensions>
</trkpt>
<trkpt lat="63.749576569" lon="-20.240030289">
<ele>36.746094</ele>
<time>2012-07-26T22:04:39Z</time>
<extensions>
<speed>0.0</speed>
<temp>0.00</temp>
<bpm>0</bpm>
<rpm>0.00</rpm>
</extensions>
</trkpt>
<trkpt lat="63.749572754" lon="-20.240030289">
<ele>36.750977</ele>
<time>2012-07-26T22:04:44Z</time>
<extensions>
<speed>0.0</speed>
<temp>0.00</temp>
<bpm>0</bpm>
<rpm>0.00</rpm>
</extensions>
</trkpt>
<trkpt lat="63.749572754" lon="-20.240030289">
<ele>36.749023</ele>
<time>2012-07-26T22:04:49Z</time>
<extensions>
<speed>0.0</speed>
<temp>0.00</temp>
<bpm>0</bpm>
<rpm>0.00</rpm>
</extensions>
</trkpt>
<trkpt lat="63.749572754" lon="-20.240030289">
<ele>36.750000</ele>
<time>2012-07-26T22:04:54Z</time>
<extensions>
<speed>0.0</speed>
<temp>0.00</temp>
<bpm>0</bpm>
<rpm>0.00</rpm>
</extensions>
</trkpt>
<trkpt lat="63.749572754" lon="-20.240030289">
<ele>36.750000</ele>
<time>2012-07-26T22:04:59Z</time>
<extensions>
<speed>0.0</speed>
<temp>0.00</temp>
<bpm>0</bpm>
<rpm>0.00</rpm>
</extensions>
</trkpt>
<trkpt lat="63.749572754" lon="-20.240030289">
<ele>36.749023</ele>
<time>2012-07-26T22:05:04Z</time>
<speed>0.010000</speed>
<extensions>
<speed>0.0</speed>
<temp>0.00</temp>
<bpm>0</bpm>
<rpm>0.00</rpm>
</extensions>
</trkpt>
<trkpt lat="63.749572754" lon="-20.240030289">
<ele>36.749023</ele>
<time>2012-07-26T22:05:09Z</time>
<extensions>
<speed>0.0</speed>
<temp>0.00</temp>
<bpm>0</bpm>
<rpm>0.00</rpm>
</extensions>
</trkpt>
<trkpt lat="63.749572754" lon="-20.240030289">
<ele>36.748047</ele>
<time>2012-07-26T22:05:14Z</time>
<extensions>
<speed>0.0</speed>
<temp>0.00</temp>
<bpm>0</bpm>
<rpm>0.00</rpm>
</extensions>
</trkpt>
<trkpt lat="63.749572754" lon="-20.240030289">
<ele>36.749023</ele>
<time>2012-07-26T22:05:19Z</time>
<extensions>
<speed>0.0</speed>
<temp>0.00</temp>
<bpm>0</bpm>
<rpm>0.00</rpm>
</extensions>
</trkpt>
<trkpt lat="63.749572754" lon="-20.240028381">
<ele>36.747070</ele>
<time>2012-07-26T22:05:24Z</time>
<extensions>
<speed>0.0</speed>
<temp>0.00</temp>
<bpm>0</bpm>
<rpm>0.00</rpm>
</extensions>
</trkpt>
<trkpt lat="63.749572754" lon="-20.240028381">
<ele>36.741211</ele>
<time>2012-07-26T22:05:29Z</time>
<extensions>
<speed>0.0</speed>
<temp>0.00</temp>
<bpm>0</bpm>
<rpm>0.00</rpm>
</extensions>
</trkpt>
<trkpt lat="63.749572754" lon="-20.240028381">
<ele>36.735352</ele>
<time>2012-07-26T22:05:34Z</time>
<extensions>
<speed>0.0</speed>
<temp>0.00</temp>
<bpm>0</bpm>
<rpm>0.00</rpm>
</extensions>
</trkpt>
<trkpt lat="63.749572754" lon="-20.240028381">
<ele>36.727539</ele>
<time>2012-07-26T22:05:39Z</time>
<extensions>
<speed>0.0</speed>
<temp>0.00</temp>
<bpm>0</bpm>
<rpm>0.00</rpm>
</extensions>
</trkpt>
<trkpt lat="63.749572754" lon="-20.240028381">
<ele>36.724609</ele>
<time>2012-07-26T22:05:44Z</time>
<extensions>
<speed>0.0</speed>
<temp>0.00</temp>
<bpm>0</bpm>
<rpm>0.00</rpm>
</extensions>
</trkpt>
<trkpt lat="63.749572754" lon="-20.240028381">
<ele>36.717773</ele>
<time>2012-07-26T22:05:49Z</time>
<extensions>
<speed>0.0</speed>
<temp>0.00</temp>
<bpm>0</bpm>
<rpm>0.00</rpm>
</extensions>
</trkpt>
<trkpt lat="63.749572754" lon="-20.240028381">
<ele>36.710938</ele>
<time>2012-07-26T22:05:54Z</time>
<extensions>
<speed>0.0</speed>
<temp>0.00</temp>
<bpm>0</bpm>
<rpm>0.00</rpm>
</extensions>
</trkpt>
<trkpt lat="63.749572754" lon="-20.240028381">
<ele>36.701172</ele>
<time>2012-07-26T22:05:59Z</time>
<extensions>
<speed>0.0</speed>
<temp>0.00</temp>
<bpm>0</bpm>
<rpm>0.00</rpm>
</extensions>
</trkpt>
<trkpt lat="63.749572754" lon="-20.240028381">
<ele>36.689453</ele>
<time>2012-07-26T22:06:04Z</time>
<extensions>
<speed>0.0</speed>
<temp>0.00</temp>
<bpm>0</bpm>
<rpm>0.00</rpm>
</extensions>
</trkpt>
<trkpt lat="63.749572754" lon="-20.240028381">
<ele>36.684570</ele>
<time>2012-07-26T22:06:09Z</time>
<extensions>
<speed>0.0</speed>
<temp>0.00</temp>
<bpm>0</bpm>
<rpm>0.00</rpm>
</extensions>
</trkpt>
<trkpt lat="63.749572754" lon="-20.240028381">
<ele>36.684570</ele>
<time>2012-07-26T22:06:14Z</time>
<extensions>
<speed>0.0</speed>
<temp>0.00</temp>
<bpm>0</bpm>
<rpm>0.00</rpm>
</extensions>
</trkpt>
<trkpt lat="63.749572754" lon="-20.240028381">
<ele>36.686523</ele>
<time>2012-07-26T22:06:19Z</time>
<extensions>
<speed>0.0</speed>
<temp>0.00</temp>
<bpm>0</bpm>
<rpm>0.00</rpm>
</extensions>
</trkpt>
<trkpt lat="63.749572754" lon="-20.240026474">
<ele>36.692383</ele>
<time>2012-07-26T22:06:24Z</time>
<extensions>
<speed>0.0</speed>
<temp>0.00</temp>
<bpm>0</bpm>
<rpm>0.00</rpm>
</extensions>
</trkpt>
<trkpt lat="63.749572754" lon="-20.240026474">
<ele>36.693359</ele>
<time>2012-07-26T22:06:29Z</time>
<extensions>
<speed>0.0</speed>
<temp>0.00</temp>
<bpm>0</bpm>
<rpm>0.00</rpm>
</extensions>
</trkpt>
<trkpt lat="63.749572754" lon="-20.240026474">
<ele>36.694336</ele>
<time>2012-07-26T22:06:34Z</time>
<extensions>
<speed>0.0</speed>
<temp>0.00</temp>
<bpm>0</bpm>
<rpm>0.00</rpm>
</extensions>
</trkpt>
<trkpt lat="63.749572754" lon="-20.240026474">
<ele>36.693359</ele>
<time>2012-07-26T22:06:39Z</time>
<speed>0.010000</speed>
<extensions>
<speed>0.0</speed>
<temp>0.00</temp>
<bpm>0</bpm>
<rpm>0.00</rpm>
</extensions>
</trkpt>
<trkpt lat="63.749572754" lon="-20.240026474">
<ele>36.690430</ele>
<time>2012-07-26T22:06:44Z</time>
<extensions>
<speed>0.0</speed>
<temp>0.00</temp>
<bpm>0</bpm>
<rpm>0.00</rpm>
</extensions>
</trkpt>
<trkpt lat="63.749572754" lon="-20.240026474">
<ele>36.690430</ele>
<time>2012-07-26T22:06:49Z</time>
<extensions>
<speed>0.0</speed>
<temp>0.00</temp>
<bpm>0</bpm>
<rpm>0.00</rpm>
</extensions>
</trkpt>
<trkpt lat="63.749572754" lon="-20.240026474">
<ele>36.688477</ele>
<time>2012-07-26T22:06:54Z</time>
<speed>0.010000</speed>
<extensions>
<speed>0.0</speed>
<temp>0.00</temp>
<bpm>0</bpm>
<rpm>0.00</rpm>
</extensions>
</trkpt>
<trkpt lat="63.749572754" lon="-20.240024567">
<ele>36.698242</ele>
<time>2012-07-26T22:06:59Z</time>
<extensions>
<speed>0.0</speed>
<temp>0.00</temp>
<bpm>0</bpm>
<rpm>0.00</rpm>
</extensions>
</trkpt>
<trkpt lat="63.749572754" lon="-20.240024567">
<ele>36.705078</ele>
<time>2012-07-26T22:07:04Z</time>
<extensions>
<speed>0.0</speed>
<temp>0.00</temp>
<bpm>0</bpm>
<rpm>0.00</rpm>
</extensions>
</trkpt>
<trkpt lat="63.749572754" lon="-20.240024567">
<ele>36.708984</ele>
<time>2012-07-26T22:07:09Z</time>
<speed>0.010000</speed>
<extensions>
<speed>0.0</speed>
<temp>0.00</temp>
<bpm>0</bpm>
<rpm>0.00</rpm>
</extensions>
</trkpt>
<trkpt lat="63.749572754" lon="-20.240024567">
<ele>36.713867</ele>
<time>2012-07-26T22:07:14Z</time>
<extensions>
<speed>0.0</speed>
<temp>0.00</temp>
<bpm>0</bpm>
<rpm>0.00</rpm>
</extensions>
</trkpt>
<trkpt lat="63.749572754" lon="-20.240024567">
<ele>36.716797</ele>
<time>2012-07-26T22:07:19Z</time>
<speed>0.020000</speed>
<extensions>
<speed>0.0</speed>
<temp>0.00</temp>
<bpm>0</bpm>
<rpm>0.00</rpm>
</extensions>
</trkpt>
<trkpt lat="63.749572754" lon="-20.240024567">
<ele>36.725586</ele>
<time>2012-07-26T22:07:24Z</time>
<extensions>
<speed>0.0</speed>
<temp>0.00</temp>
<bpm>0</bpm>
<rpm>0.00</rpm>
</extensions>
</trkpt>
<trkpt lat="63.749572754" lon="-20.240022659">
<ele>36.726563</ele>
<time>2012-07-26T22:07:29Z</time>
<extensions>
<speed>0.0</speed>
<temp>0.00</temp>
<bpm>0</bpm>
<rpm>0.00</rpm>
</extensions>
</trkpt>
<trkpt lat="63.749572754" lon="-20.240022659">
<ele>36.728516</ele>
<time>2012-07-26T22:07:34Z</time>
<extensions>
<speed>0.0</speed>
<temp>0.00</temp>
<bpm>0</bpm>
<rpm>0.00</rpm>
</extensions>
</trkpt>
<trkpt lat="63.749572754" lon="-20.240022659">
<ele>36.728516</ele>
<time>2012-07-26T22:07:39Z</time>
<extensions>
<speed>0.0</speed>
<temp>0.00</temp>
<bpm>0</bpm>
<rpm>0.00</rpm>
</extensions>
</trkpt>
<trkpt lat="63.749572754" lon="-20.240022659">
<ele>36.732422</ele>
<time>2012-07-26T22:07:44Z</time>
<extensions>
<speed>0.0</speed>
<temp>0.00</temp>
<bpm>0</bpm>
<rpm>0.00</rpm>
</extensions>
</trkpt>
<trkpt lat="63.749572754" lon="-20.240020752">
<ele>36.738281</ele>
<time>2012-07-26T22:07:49Z</time>
<speed>0.010000</speed>
<extensions>
<speed>0.0</speed>
<temp>0.00</temp>
<bpm>0</bpm>
<rpm>0.00</rpm>
</extensions>
</trkpt>
<trkpt lat="63.749572754" lon="-20.240020752">
<ele>36.740234</ele>
<time>2012-07-26T22:07:54Z</time>
<extensions>
<speed>0.0</speed>
<temp>0.00</temp>
<bpm>0</bpm>
<rpm>0.00</rpm>
</extensions>
</trkpt>
<trkpt lat="63.749572754" lon="-20.240020752">
<ele>36.742188</ele>
<time>2012-07-26T22:07:59Z</time>
<extensions>
<speed>0.0</speed>
<temp>0.00</temp>
<bpm>0</bpm>
<rpm>0.00</rpm>
</extensions>
</trkpt>
<trkpt lat="63.749568939" lon="-20.240020752">
<ele>36.749023</ele>
<time>2012-07-26T22:08:04Z</time>
<extensions>
<speed>0.0</speed>
<temp>0.00</temp>
<bpm>0</bpm>
<rpm>0.00</rpm>
</extensions>
</trkpt>
<trkpt lat="63.749568939" lon="-20.240020752">
<ele>36.757813</ele>
<time>2012-07-26T22:08:09Z</time>
<extensions>
<speed>0.0</speed>
<temp>0.00</temp>
<bpm>0</bpm>
<rpm>0.00</rpm>
</extensions>
</trkpt>
<trkpt lat="63.749568939" lon="-20.240020752">
<ele>36.761719</ele>
<time>2012-07-26T22:08:14Z</time>
<speed>0.010000</speed>
<extensions>
<speed>0.0</speed>
<temp>0.00</temp>
<bpm>0</bpm>
<rpm>0.00</rpm>
</extensions>
</trkpt>
<trkpt lat="63.749568939" lon="-20.240018845">
<ele>36.768555</ele>
<time>2012-07-26T22:08:19Z</time>
<speed>0.010000</speed>
<extensions>
<speed>0.0</speed>
<temp>0.00</temp>
<bpm>0</bpm>
<rpm>0.00</rpm>
</extensions>
</trkpt>
<trkpt lat="63.749568939" lon="-20.240018845">
<ele>36.769531</ele>
<time>2012-07-26T22:08:24Z</time>
<extensions>
<speed>0.0</speed>
<temp>0.00</temp>
<bpm>0</bpm>
<rpm>0.00</rpm>
</extensions>
</trkpt>
<trkpt lat="63.749568939" lon="-20.240018845">
<ele>36.774414</ele>
<time>2012-07-26T22:08:29Z</time>
<speed>0.010000</speed>
<extensions>
<speed>0.0</speed>
<temp>0.00</temp>
<bpm>0</bpm>
<rpm>0.00</rpm>
</extensions>
</trkpt>
<trkpt lat="63.749568939" lon="-20.240018845">
<ele>36.773438</ele>
<time>2012-07-26T22:08:34Z</time>
<speed>0.010000</speed>
<extensions>
<speed>0.0</speed>
<temp>0.00</temp>
<bpm>0</bpm>
<rpm>0.00</rpm>
</extensions>
</trkpt>
<trkpt lat="63.749568939" lon="-20.240018845">
<ele>36.783203</ele>
<time>2012-07-26T22:08:39Z</time>
<extensions>
<speed>0.0</speed>
<temp>0.00</temp>
<bpm>0</bpm>
<rpm>0.00</rpm>
</extensions>
</trkpt>
<trkpt lat="63.749568939" lon="-20.240018845">
<ele>36.790039</ele>
<time>2012-07-26T22:08:44Z</time>
<speed>0.010000</speed>
<extensions>
<speed>0.0</speed>
<temp>0.00</temp>
<bpm>0</bpm>
<rpm>0.00</rpm>
</extensions>
</trkpt>
<trkpt lat="63.749568939" lon="-20.240018845">
<ele>36.792969</ele>
<time>2012-07-26T22:08:49Z</time>
<speed>0.010000</speed>
<extensions>
<speed>0.0</speed>
<temp>0.00</temp>
<bpm>0</bpm>
<rpm>0.00</rpm>
</extensions>
</trkpt>
<trkpt lat="63.749568939" lon="-20.240016937">
<ele>36.798828</ele>
<time>2012-07-26T22:08:54Z</time>
<extensions>
<speed>0.0</speed>
<temp>0.00</temp>
<bpm>0</bpm>
<rpm>0.00</rpm>
</extensions>
</trkpt>
<trkpt lat="63.749568939" lon="-20.240016937">
<ele>36.806641</ele>
<time>2012-07-26T22:08:59Z</time>
<extensions>
<speed>0.0</speed>
<temp>0.00</temp>
<bpm>0</bpm>
<rpm>0.00</rpm>
</extensions>
</trkpt>
<trkpt lat="63.749568939" lon="-20.240016937">
<ele>36.817383</ele>
<time>2012-07-26T22:09:04Z</time>
<extensions>
<speed>0.0</speed>
<temp>0.00</temp>
<bpm>0</bpm>
<rpm>0.00</rpm>
</extensions>
</trkpt>
<trkpt lat="63.749568939" lon="-20.240016937">
<ele>36.827148</ele>
<time>2012-07-26T22:09:09Z</time>
<extensions>
<speed>0.0</speed>
<temp>0.00</temp>
<bpm>0</bpm>
<rpm>0.00</rpm>
</extensions>
</trkpt>
<trkpt lat="63.749568939" lon="-20.240016937">
<ele>36.833008</ele>
<time>2012-07-26T22:09:14Z</time>
<extensions>
<speed>0.0</speed>
<temp>0.00</temp>
<bpm>0</bpm>
<rpm>0.00</rpm>
</extensions>
</trkpt>
<trkpt lat="63.749568939" lon="-20.240016937">
<ele>36.839844</ele>
<time>2012-07-26T22:09:19Z</time>
<extensions>
<speed>0.0</speed>
<temp>0.00</temp>
<bpm>0</bpm>
<rpm>0.00</rpm>
</extensions>
</trkpt>
<trkpt lat="63.749568939" lon="-20.240015030">
<ele>36.851563</ele>
<time>2012-07-26T22:09:24Z</time>
<extensions>
<speed>0.0</speed>
<temp>0.00</temp>
<bpm>0</bpm>
<rpm>0.00</rpm>
</extensions>
</trkpt>
<trkpt lat="63.749568939" lon="-20.240015030">
<ele>36.862305</ele>
<time>2012-07-26T22:09:29Z</time>
<speed>0.010000</speed>
<extensions>
<speed>0.0</speed>
<temp>0.00</temp>
<bpm>0</bpm>
<rpm>0.00</rpm>
</extensions>
</trkpt>
<trkpt lat="63.749568939" lon="-20.240015030">
<ele>36.861328</ele>
<time>2012-07-26T22:09:34Z</time>
<extensions>
<speed>0.0</speed>
<temp>0.00</temp>
<bpm>0</bpm>
<rpm>0.00</rpm>
</extensions>
</trkpt>
<trkpt lat="63.749568939" lon="-20.240015030">
<ele>36.870117</ele>
<time>2012-07-26T22:09:39Z</time>
<extensions>
<speed>0.0</speed>
<temp>0.00</temp>
<bpm>0</bpm>
<rpm>0.00</rpm>
</extensions>
</trkpt>
<trkpt lat="63.749568939" lon="-20.240015030">
<ele>36.875977</ele>
<time>2012-07-26T22:09:44Z</time>
<speed>0.010000</speed>
<extensions>
<speed>0.0</speed>
<temp>0.00</temp>
<bpm>0</bpm>
<rpm>0.00</rpm>
</extensions>
</trkpt>
<trkpt lat="63.749568939" lon="-20.240015030">
<ele>36.882813</ele>
<time>2012-07-26T22:09:49Z</time>
<extensions>
<speed>0.0</speed>
<temp>0.00</temp>
<bpm>0</bpm>
<rpm>0.00</rpm>
</extensions>
</trkpt>
<trkpt lat="63.749568939" lon="-20.240015030">
<ele>36.891602</ele>
<time>2012-07-26T22:09:54Z</time>
<speed>0.020000</speed>
<extensions>
<speed>0.0</speed>
<temp>0.00</temp>
<bpm>0</bpm>
<rpm>0.00</rpm>
</extensions>
</trkpt>
<trkpt lat="63.749568939" lon="-20.240015030">
<ele>36.892578</ele>
<time>2012-07-26T22:09:59Z</time>
<extensions>
<speed>0.0</speed>
<temp>0.00</temp>
<bpm>0</bpm>
<rpm>0.00</rpm>
</extensions>
</trkpt>
<trkpt lat="63.749568939" lon="-20.240015030">
<ele>36.901367</ele>
<time>2012-07-26T22:10:04Z</time>
<extensions>
<speed>0.0</speed>
<temp>0.00</temp>
<bpm>0</bpm>
<rpm>0.00</rpm>
</extensions>
</trkpt>
<trkpt lat="63.749568939" lon="-20.240015030">
<ele>36.906250</ele>
<time>2012-07-26T22:10:09Z</time>
<extensions>
<speed>0.0</speed>
<temp>0.00</temp>
<bpm>0</bpm>
<rpm>0.00</rpm>
</extensions>
</trkpt>
<trkpt lat="63.749568939" lon="-20.240015030">
<ele>36.908203</ele>
<time>2012-07-26T22:10:14Z</time>
<extensions>
<speed>0.0</speed>
<temp>0.00</temp>
<bpm>0</bpm>
<rpm>0.00</rpm>
</extensions>
</trkpt>
<trkpt lat="63.749568939" lon="-20.240013123">
<ele>36.909180</ele>
<time>2012-07-26T22:10:19Z</time>
<extensions>
<speed>0.0</speed>
<temp>0.00</temp>
<bpm>0</bpm>
<rpm>0.00</rpm>
</extensions>
</trkpt>
<trkpt lat="63.749568939" lon="-20.240013123">
<ele>36.914063</ele>
<time>2012-07-26T22:10:24Z</time>
<extensions>
<speed>0.0</speed>
<temp>0.00</temp>
<bpm>0</bpm>
<rpm>0.00</rpm>
</extensions>
</trkpt>
<trkpt lat="63.749565125" lon="-20.240013123">
<ele>36.922852</ele>
<time>2012-07-26T22:10:29Z</time>
<extensions>
<speed>0.0</speed>
<temp>0.00</temp>
<bpm>0</bpm>
<rpm>0.00</rpm>
</extensions>
</trkpt>
<trkpt lat="63.749565125" lon="-20.240013123">
<ele>36.928711</ele>
<time>2012-07-26T22:10:34Z</time>
<extensions>
<speed>0.0</speed>
<temp>0.00</temp>
<bpm>0</bpm>
<rpm>0.00</rpm>
</extensions>
</trkpt>
<trkpt lat="63.749565125" lon="-20.240013123">
<ele>36.934570</ele>
<time>2012-07-26T22:10:39Z</time>
<extensions>
<speed>0.0</speed>
<temp>0.00</temp>
<bpm>0</bpm>
<rpm>0.00</rpm>
</extensions>
</trkpt>
<trkpt lat="63.749565125" lon="-20.240013123">
<ele>36.937500</ele>
<time>2012-07-26T22:10:44Z</time>
<extensions>
<speed>0.0</speed>
<temp>0.00</temp>
<bpm>0</bpm>
<rpm>0.00</rpm>
</extensions>
</trkpt>
<trkpt lat="63.749565125" lon="-20.240013123">
<ele>36.942383</ele>
<time>2012-07-26T22:10:49Z</time>
<extensions>
<speed>0.0</speed>
<temp>0.00</temp>
<bpm>0</bpm>
<rpm>0.00</rpm>
</extensions>
</trkpt>
<trkpt lat="63.749565125" lon="-20.240013123">
<ele>36.943359</ele>
<time>2012-07-26T22:10:54Z</time>
<extensions>
<speed>0.0</speed>
<temp>0.00</temp>
<bpm>0</bpm>
<rpm>0.00</rpm>
</extensions>
</trkpt>
<trkpt lat="63.749565125" lon="-20.240013123">
<ele>36.941406</ele>
<time>2012-07-26T22:10:59Z</time>
<extensions>
<speed>0.0</speed>
<temp>0.00</temp>
<bpm>0</bpm>
<rpm>0.00</rpm>
</extensions>
</trkpt>
<trkpt lat="63.749565125" lon="-20.240011215">
<ele>36.946289</ele>
<time>2012-07-26T22:11:04Z</time>
<extensions>
<speed>0.0</speed>
<temp>0.00</temp>
<bpm>0</bpm>
<rpm>0.00</rpm>
</extensions>
</trkpt>
<trkpt lat="63.749565125" lon="-20.240011215">
<ele>36.954102</ele>
<time>2012-07-26T22:11:09Z</time>
<extensions>
<speed>0.0</speed>
<temp>0.00</temp>
<bpm>0</bpm>
<rpm>0.00</rpm>
</extensions>
</trkpt>
<trkpt lat="63.749565125" lon="-20.240011215">
<ele>36.963867</ele>
<time>2012-07-26T22:11:14Z</time>
<speed>0.010000</speed>
<extensions>
<speed>0.0</speed>
<temp>0.00</temp>
<bpm>0</bpm>
<rpm>0.00</rpm>
</extensions>
</trkpt>
<trkpt lat="63.749565125" lon="-20.240011215">
<ele>36.970703</ele>
<time>2012-07-26T22:11:19Z</time>
<extensions>
<speed>0.0</speed>
<temp>0.00</temp>
<bpm>0</bpm>
<rpm>0.00</rpm>
</extensions>
</trkpt>
<trkpt lat="63.749565125" lon="-20.240011215">
<ele>36.968750</ele>
<time>2012-07-26T22:11:24Z</time>
<extensions>
<speed>0.0</speed>
<temp>0.00</temp>
<bpm>0</bpm>
<rpm>0.00</rpm>
</extensions>
</trkpt>
<trkpt lat="63.749565125" lon="-20.240011215">
<ele>36.970703</ele>
<time>2012-07-26T22:11:29Z</time>
<extensions>
<speed>0.0</speed>
<temp>0.00</temp>
<bpm>0</bpm>
<rpm>0.00</rpm>
</extensions>
</trkpt>
<trkpt lat="63.749565125" lon="-20.240011215">
<ele>36.967773</ele>
<time>2012-07-26T22:11:34Z</time>
<extensions>
<speed>0.0</speed>
<temp>0.00</temp>
<bpm>0</bpm>
<rpm>0.00</rpm>
</extensions>
</trkpt>
<trkpt lat="63.749565125" lon="-20.240011215">
<ele>36.968750</ele>
<time>2012-07-26T22:11:39Z</time>
<extensions>
<speed>0.0</speed>
<temp>0.00</temp>
<bpm>0</bpm>
<rpm>0.00</rpm>
</extensions>
</trkpt>
<trkpt lat="63.749565125" lon="-20.240011215">
<ele>36.972656</ele>
<time>2012-07-26T22:11:44Z</time>
<extensions>
<speed>0.0</speed>
<temp>0.00</temp>
<bpm>0</bpm>
<rpm>0.00</rpm>
</extensions>
</trkpt>
<trkpt lat="63.749565125" lon="-20.240011215">
<ele>36.972656</ele>
<time>2012-07-26T22:11:49Z</time>
<extensions>
<speed>0.0</speed>
<temp>0.00</temp>
<bpm>0</bpm>
<rpm>0.00</rpm>
</extensions>
</trkpt>
<trkpt lat="63.749565125" lon="-20.240011215">
<ele>36.974609</ele>
<time>2012-07-26T22:11:54Z</time>
<extensions>
<speed>0.0</speed>
<temp>0.00</temp>
<bpm>0</bpm>
<rpm>0.00</rpm>
</extensions>
</trkpt>
<trkpt lat="63.749565125" lon="-20.240009308">
<ele>36.971680</ele>
<time>2012-07-26T22:11:59Z</time>
<speed>0.010000</speed>
<extensions>
<speed>0.0</speed>
<temp>0.00</temp>
<bpm>0</bpm>
<rpm>0.00</rpm>
</extensions>
</trkpt>
<trkpt lat="63.749565125" lon="-20.240009308">
<ele>36.974609</ele>
<time>2012-07-26T22:12:04Z</time>
<speed>0.010000</speed>
<extensions>
<speed>0.0</speed>
<temp>0.00</temp>
<bpm>0</bpm>
<rpm>0.00</rpm>
</extensions>
</trkpt>
<trkpt lat="63.749565125" lon="-20.240009308">
<ele>36.976563</ele>
<time>2012-07-26T22:12:09Z</time>
<speed>0.010000</speed>
<extensions>
<speed>0.0</speed>
<temp>0.00</temp>
<bpm>0</bpm>
<rpm>0.00</rpm>
</extensions>
</trkpt>
<trkpt lat="63.749565125" lon="-20.240009308">
<ele>36.986328</ele>
<time>2012-07-26T22:12:14Z</time>
<extensions>
<speed>0.0</speed>
<temp>0.00</temp>
<bpm>0</bpm>
<rpm>0.00</rpm>
</extensions>
</trkpt>
<trkpt lat="63.749565125" lon="-20.240009308">
<ele>36.989258</ele>
<time>2012-07-26T22:12:19Z</time>
<extensions>
<speed>0.0</speed>
<temp>0.00</temp>
<bpm>0</bpm>
<rpm>0.00</rpm>
</extensions>
</trkpt>
<trkpt lat="63.749565125" lon="-20.240009308">
<ele>36.993164</ele>
<time>2012-07-26T22:12:24Z</time>
<extensions>
<speed>0.0</speed>
<temp>0.00</temp>
<bpm>0</bpm>
<rpm>0.00</rpm>
</extensions>
</trkpt>
<trkpt lat="63.749565125" lon="-20.240009308">
<ele>36.993164</ele>
<time>2012-07-26T22:12:29Z</time>
<speed>0.010000</speed>
<extensions>
<speed>0.0</speed>
<temp>0.00</temp>
<bpm>0</bpm>
<rpm>0.00</rpm>
</extensions>
</trkpt>
<trkpt lat="63.749565125" lon="-20.240009308">
<ele>36.992188</ele>
<time>2012-07-26T22:12:34Z</time>
<extensions>
<speed>0.0</speed>
<temp>0.00</temp>
<bpm>0</bpm>
<rpm>0.00</rpm>
</extensions>
</trkpt>
<trkpt lat="63.749565125" lon="-20.240009308">
<ele>36.989258</ele>
<time>2012-07-26T22:12:39Z</time>
<extensions>
<speed>0.0</speed>
<temp>0.00</temp>
<bpm>0</bpm>
<rpm>0.00</rpm>
</extensions>
</trkpt>
<trkpt lat="63.749565125" lon="-20.240009308">
<ele>36.985352</ele>
<time>2012-07-26T22:12:44Z</time>
<extensions>
<speed>0.0</speed>
<temp>0.00</temp>
<bpm>0</bpm>
<rpm>0.00</rpm>
</extensions>
</trkpt>
<trkpt lat="63.749565125" lon="-20.240009308">
<ele>36.988281</ele>
<time>2012-07-26T22:12:49Z</time>
<speed>0.020000</speed>
<extensions>
<speed>0.0</speed>
<temp>0.00</temp>
<bpm>0</bpm>
<rpm>0.00</rpm>
</extensions>
</trkpt>
<trkpt lat="63.749565125" lon="-20.240009308">
<ele>36.996094</ele>
<time>2012-07-26T22:12:54Z</time>
<speed>0.020000</speed>
<extensions>
<speed>0.0</speed>
<temp>0.00</temp>
<bpm>0</bpm>
<rpm>0.00</rpm>
</extensions>
</trkpt>
</trkseg>
</trk>
</gpx>